<?xml version="1.0" encoding="UTF-8" standalone="no" ?>
<gpx xmlns="http://www.topografix.com/GPX/1/1" creator="www.cicloide.com" version="1.1" xmlns:xsi="http://www.w3.org/2001/XMLSchema-instance" xsi:schemaLocation="http://www.topografix.com/GPX/1/1 http://www.topografix.com/GPX/1/1/gpx.xsd">
  <trk>
    <name>www.cicloide.com 17676</name>
    <desc>www.cicloide.com 17676</desc>
    <trkseg>
      <trkpt lat="41.604618430" lon="2.539180050">
        <ele>114.80</ele>
        <time>2014-04-06T07:51:02Z</time>
      </trkpt>
      <trkpt lat="41.604621780" lon="2.539175020">
        <ele>114.80</ele>
        <time>2014-04-06T07:51:03Z</time>
      </trkpt>
      <trkpt lat="41.604621780" lon="2.539175020">
        <ele>114.80</ele>
        <time>2014-04-06T07:51:03Z</time>
      </trkpt>
      <trkpt lat="41.604621780" lon="2.539176690">
        <ele>114.80</ele>
        <time>2014-04-06T07:51:04Z</time>
      </trkpt>
      <trkpt lat="41.604621780" lon="2.539176690">
        <ele>114.80</ele>
        <time>2014-04-06T07:51:05Z</time>
      </trkpt>
      <trkpt lat="41.604621780" lon="2.539176690">
        <ele>114.80</ele>
        <time>2014-04-06T07:51:06Z</time>
      </trkpt>
      <trkpt lat="41.604621780" lon="2.539176690">
        <ele>114.80</ele>
        <time>2014-04-06T07:51:07Z</time>
      </trkpt>
      <trkpt lat="41.604621780" lon="2.539178370">
        <ele>114.80</ele>
        <time>2014-04-06T07:51:08Z</time>
      </trkpt>
      <trkpt lat="41.604621780" lon="2.539178370">
        <ele>114.80</ele>
        <time>2014-04-06T07:51:09Z</time>
      </trkpt>
      <trkpt lat="41.604621780" lon="2.539178370">
        <ele>114.80</ele>
        <time>2014-04-06T07:51:10Z</time>
      </trkpt>
      <trkpt lat="41.604621780" lon="2.539180050">
        <ele>114.80</ele>
        <time>2014-04-06T07:51:11Z</time>
      </trkpt>
      <trkpt lat="41.604621780" lon="2.539180050">
        <ele>114.80</ele>
        <time>2014-04-06T07:51:12Z</time>
      </trkpt>
      <trkpt lat="41.604621780" lon="2.539180050">
        <ele>114.80</ele>
        <time>2014-04-06T07:51:13Z</time>
      </trkpt>
      <trkpt lat="41.604621780" lon="2.539181720">
        <ele>114.80</ele>
        <time>2014-04-06T07:51:14Z</time>
      </trkpt>
      <trkpt lat="41.604621780" lon="2.539181720">
        <ele>114.80</ele>
        <time>2014-04-06T07:51:15Z</time>
      </trkpt>
      <trkpt lat="41.604621780" lon="2.539181720">
        <ele>114.80</ele>
        <time>2014-04-06T07:51:16Z</time>
      </trkpt>
      <trkpt lat="41.604621780" lon="2.539183400">
        <ele>114.80</ele>
        <time>2014-04-06T07:51:17Z</time>
      </trkpt>
      <trkpt lat="41.604621780" lon="2.539183400">
        <ele>114.80</ele>
        <time>2014-04-06T07:51:18Z</time>
      </trkpt>
      <trkpt lat="41.604621780" lon="2.539183400">
        <ele>114.80</ele>
        <time>2014-04-06T07:51:19Z</time>
      </trkpt>
      <trkpt lat="41.604621780" lon="2.539183400">
        <ele>114.80</ele>
        <time>2014-04-06T07:51:20Z</time>
      </trkpt>
      <trkpt lat="41.604621780" lon="2.539185080">
        <ele>114.80</ele>
        <time>2014-04-06T07:51:21Z</time>
      </trkpt>
      <trkpt lat="41.604621780" lon="2.539185080">
        <ele>114.80</ele>
        <time>2014-04-06T07:51:22Z</time>
      </trkpt>
      <trkpt lat="41.604621780" lon="2.539185080">
        <ele>114.80</ele>
        <time>2014-04-06T07:51:23Z</time>
      </trkpt>
      <trkpt lat="41.604621780" lon="2.539185080">
        <ele>114.80</ele>
        <time>2014-04-06T07:51:24Z</time>
      </trkpt>
      <trkpt lat="41.604621780" lon="2.539186750">
        <ele>114.80</ele>
        <time>2014-04-06T07:51:25Z</time>
      </trkpt>
      <trkpt lat="41.604621780" lon="2.539186750">
        <ele>114.80</ele>
        <time>2014-04-06T07:51:26Z</time>
      </trkpt>
      <trkpt lat="41.604621780" lon="2.539186750">
        <ele>114.80</ele>
        <time>2014-04-06T07:51:27Z</time>
      </trkpt>
      <trkpt lat="41.604621780" lon="2.539186750">
        <ele>114.80</ele>
        <time>2014-04-06T07:51:28Z</time>
      </trkpt>
      <trkpt lat="41.604621780" lon="2.539186750">
        <ele>114.80</ele>
        <time>2014-04-06T07:51:29Z</time>
      </trkpt>
      <trkpt lat="41.604621780" lon="2.539186750">
        <ele>114.80</ele>
        <time>2014-04-06T07:51:30Z</time>
      </trkpt>
      <trkpt lat="41.604621780" lon="2.539186750">
        <ele>114.80</ele>
        <time>2014-04-06T07:51:31Z</time>
      </trkpt>
      <trkpt lat="41.604621780" lon="2.539186750">
        <ele>114.80</ele>
        <time>2014-04-06T07:51:32Z</time>
      </trkpt>
      <trkpt lat="41.604621780" lon="2.539186750">
        <ele>114.80</ele>
        <time>2014-04-06T07:51:33Z</time>
      </trkpt>
      <trkpt lat="41.604621780" lon="2.539186750">
        <ele>114.80</ele>
        <time>2014-04-06T07:51:34Z</time>
      </trkpt>
      <trkpt lat="41.604621780" lon="2.539188430">
        <ele>114.80</ele>
        <time>2014-04-06T07:51:35Z</time>
      </trkpt>
      <trkpt lat="41.604621780" lon="2.539188430">
        <ele>114.80</ele>
        <time>2014-04-06T07:51:36Z</time>
      </trkpt>
      <trkpt lat="41.604621780" lon="2.539188430">
        <ele>114.80</ele>
        <time>2014-04-06T07:51:37Z</time>
      </trkpt>
      <trkpt lat="41.604621780" lon="2.539188430">
        <ele>114.80</ele>
        <time>2014-04-06T07:51:38Z</time>
      </trkpt>
      <trkpt lat="41.604621780" lon="2.539188430">
        <ele>114.80</ele>
        <time>2014-04-06T07:51:39Z</time>
      </trkpt>
      <trkpt lat="41.604621780" lon="2.539188430">
        <ele>114.80</ele>
        <time>2014-04-06T07:51:40Z</time>
      </trkpt>
      <trkpt lat="41.604621780" lon="2.539188430">
        <ele>114.80</ele>
        <time>2014-04-06T07:51:41Z</time>
      </trkpt>
      <trkpt lat="41.604621780" lon="2.539188430">
        <ele>114.80</ele>
        <time>2014-04-06T07:51:42Z</time>
      </trkpt>
      <trkpt lat="41.604621780" lon="2.539188430">
        <ele>114.80</ele>
        <time>2014-04-06T07:51:43Z</time>
      </trkpt>
      <trkpt lat="41.604621780" lon="2.539188430">
        <ele>114.80</ele>
        <time>2014-04-06T07:51:44Z</time>
      </trkpt>
      <trkpt lat="41.604621780" lon="2.539188430">
        <ele>114.80</ele>
        <time>2014-04-06T07:51:45Z</time>
      </trkpt>
      <trkpt lat="41.604621780" lon="2.539188430">
        <ele>114.80</ele>
        <time>2014-04-06T07:51:46Z</time>
      </trkpt>
      <trkpt lat="41.604621780" lon="2.539188430">
        <ele>114.80</ele>
        <time>2014-04-06T07:51:47Z</time>
      </trkpt>
      <trkpt lat="41.604621780" lon="2.539188430">
        <ele>114.80</ele>
        <time>2014-04-06T07:51:48Z</time>
      </trkpt>
      <trkpt lat="41.604621780" lon="2.539188430">
        <ele>114.80</ele>
        <time>2014-04-06T07:51:49Z</time>
      </trkpt>
      <trkpt lat="41.604621780" lon="2.539188430">
        <ele>114.80</ele>
        <time>2014-04-06T07:51:50Z</time>
      </trkpt>
      <trkpt lat="41.604621780" lon="2.539188430">
        <ele>114.80</ele>
        <time>2014-04-06T07:51:51Z</time>
      </trkpt>
      <trkpt lat="41.604621780" lon="2.539190100">
        <ele>114.80</ele>
        <time>2014-04-06T07:51:52Z</time>
      </trkpt>
      <trkpt lat="41.604621780" lon="2.539190100">
        <ele>114.80</ele>
        <time>2014-04-06T07:51:53Z</time>
      </trkpt>
      <trkpt lat="41.604621780" lon="2.539190100">
        <ele>114.80</ele>
        <time>2014-04-06T07:51:54Z</time>
      </trkpt>
      <trkpt lat="41.604621780" lon="2.539190100">
        <ele>114.80</ele>
        <time>2014-04-06T07:51:55Z</time>
      </trkpt>
      <trkpt lat="41.604621780" lon="2.539190100">
        <ele>114.80</ele>
        <time>2014-04-06T07:51:56Z</time>
      </trkpt>
      <trkpt lat="41.604621780" lon="2.539190100">
        <ele>114.80</ele>
        <time>2014-04-06T07:51:57Z</time>
      </trkpt>
      <trkpt lat="41.604621780" lon="2.539190100">
        <ele>114.80</ele>
        <time>2014-04-06T07:51:58Z</time>
      </trkpt>
      <trkpt lat="41.604621780" lon="2.539190100">
        <ele>114.80</ele>
        <time>2014-04-06T07:51:59Z</time>
      </trkpt>
      <trkpt lat="41.604621780" lon="2.539190100">
        <ele>114.80</ele>
        <time>2014-04-06T07:52:00Z</time>
      </trkpt>
      <trkpt lat="41.604621780" lon="2.539190100">
        <ele>114.80</ele>
        <time>2014-04-06T07:52:01Z</time>
      </trkpt>
      <trkpt lat="41.604621780" lon="2.539190100">
        <ele>114.80</ele>
        <time>2014-04-06T07:52:02Z</time>
      </trkpt>
      <trkpt lat="41.604621780" lon="2.539190100">
        <ele>114.80</ele>
        <time>2014-04-06T07:52:03Z</time>
      </trkpt>
      <trkpt lat="41.604621780" lon="2.539190100">
        <ele>114.80</ele>
        <time>2014-04-06T07:52:04Z</time>
      </trkpt>
      <trkpt lat="41.604621780" lon="2.539190100">
        <ele>114.80</ele>
        <time>2014-04-06T07:52:05Z</time>
      </trkpt>
      <trkpt lat="41.604621780" lon="2.539190100">
        <ele>114.80</ele>
        <time>2014-04-06T07:52:06Z</time>
      </trkpt>
      <trkpt lat="41.604623450" lon="2.539190100">
        <ele>114.80</ele>
        <time>2014-04-06T07:52:07Z</time>
      </trkpt>
      <trkpt lat="41.604623450" lon="2.539190100">
        <ele>114.80</ele>
        <time>2014-04-06T07:52:08Z</time>
      </trkpt>
      <trkpt lat="41.604623450" lon="2.539191780">
        <ele>114.80</ele>
        <time>2014-04-06T07:52:09Z</time>
      </trkpt>
      <trkpt lat="41.604623450" lon="2.539191780">
        <ele>114.80</ele>
        <time>2014-04-06T07:52:10Z</time>
      </trkpt>
      <trkpt lat="41.604623450" lon="2.539191780">
        <ele>114.80</ele>
        <time>2014-04-06T07:52:11Z</time>
      </trkpt>
      <trkpt lat="41.604623450" lon="2.539191780">
        <ele>114.80</ele>
        <time>2014-04-06T07:52:12Z</time>
      </trkpt>
      <trkpt lat="41.604623450" lon="2.539191780">
        <ele>114.80</ele>
        <time>2014-04-06T07:52:13Z</time>
      </trkpt>
      <trkpt lat="41.604623450" lon="2.539191780">
        <ele>114.80</ele>
        <time>2014-04-06T07:52:14Z</time>
      </trkpt>
      <trkpt lat="41.604623450" lon="2.539191780">
        <ele>114.80</ele>
        <time>2014-04-06T07:52:15Z</time>
      </trkpt>
      <trkpt lat="41.604623450" lon="2.539193460">
        <ele>114.80</ele>
        <time>2014-04-06T07:52:16Z</time>
      </trkpt>
      <trkpt lat="41.604623450" lon="2.539193460">
        <ele>114.80</ele>
        <time>2014-04-06T07:52:17Z</time>
      </trkpt>
      <trkpt lat="41.604623450" lon="2.539193460">
        <ele>114.80</ele>
        <time>2014-04-06T07:52:18Z</time>
      </trkpt>
      <trkpt lat="41.604623450" lon="2.539193460">
        <ele>114.80</ele>
        <time>2014-04-06T07:52:19Z</time>
      </trkpt>
      <trkpt lat="41.604623450" lon="2.539193460">
        <ele>114.80</ele>
        <time>2014-04-06T07:52:20Z</time>
      </trkpt>
      <trkpt lat="41.604623450" lon="2.539193460">
        <ele>114.80</ele>
        <time>2014-04-06T07:52:21Z</time>
      </trkpt>
      <trkpt lat="41.604623450" lon="2.539195130">
        <ele>114.80</ele>
        <time>2014-04-06T07:52:22Z</time>
      </trkpt>
      <trkpt lat="41.604623450" lon="2.539195130">
        <ele>114.80</ele>
        <time>2014-04-06T07:52:23Z</time>
      </trkpt>
      <trkpt lat="41.604623450" lon="2.539195130">
        <ele>114.80</ele>
        <time>2014-04-06T07:52:24Z</time>
      </trkpt>
      <trkpt lat="41.604623450" lon="2.539193460">
        <ele>114.80</ele>
        <time>2014-04-06T07:52:25Z</time>
      </trkpt>
      <trkpt lat="41.604623450" lon="2.539193460">
        <ele>114.80</ele>
        <time>2014-04-06T07:52:26Z</time>
      </trkpt>
      <trkpt lat="41.604623450" lon="2.539193460">
        <ele>114.80</ele>
        <time>2014-04-06T07:52:27Z</time>
      </trkpt>
      <trkpt lat="41.604623450" lon="2.539193460">
        <ele>114.80</ele>
        <time>2014-04-06T07:52:28Z</time>
      </trkpt>
      <trkpt lat="41.604623450" lon="2.539193460">
        <ele>114.80</ele>
        <time>2014-04-06T07:52:29Z</time>
      </trkpt>
      <trkpt lat="41.604623450" lon="2.539193460">
        <ele>114.80</ele>
        <time>2014-04-06T07:52:30Z</time>
      </trkpt>
      <trkpt lat="41.604623450" lon="2.539195130">
        <ele>114.80</ele>
        <time>2014-04-06T07:52:31Z</time>
      </trkpt>
      <trkpt lat="41.604623450" lon="2.539196810">
        <ele>114.80</ele>
        <time>2014-04-06T07:52:32Z</time>
      </trkpt>
      <trkpt lat="41.604623450" lon="2.539196810">
        <ele>114.80</ele>
        <time>2014-04-06T07:52:33Z</time>
      </trkpt>
      <trkpt lat="41.604623450" lon="2.539198490">
        <ele>114.80</ele>
        <time>2014-04-06T07:52:34Z</time>
      </trkpt>
      <trkpt lat="41.604623450" lon="2.539198490">
        <ele>114.80</ele>
        <time>2014-04-06T07:52:35Z</time>
      </trkpt>
      <trkpt lat="41.604625130" lon="2.539198490">
        <ele>114.80</ele>
        <time>2014-04-06T07:52:36Z</time>
      </trkpt>
      <trkpt lat="41.604625130" lon="2.539200000">
        <ele>114.80</ele>
        <time>2014-04-06T07:52:37Z</time>
      </trkpt>
      <trkpt lat="41.604623450" lon="2.539200000">
        <ele>114.80</ele>
        <time>2014-04-06T07:52:38Z</time>
      </trkpt>
      <trkpt lat="41.604623450" lon="2.539198490">
        <ele>114.80</ele>
        <time>2014-04-06T07:52:39Z</time>
      </trkpt>
      <trkpt lat="41.604623450" lon="2.539198490">
        <ele>114.80</ele>
        <time>2014-04-06T07:52:40Z</time>
      </trkpt>
      <trkpt lat="41.604623450" lon="2.539198490">
        <ele>114.80</ele>
        <time>2014-04-06T07:52:41Z</time>
      </trkpt>
      <trkpt lat="41.604621780" lon="2.539198490">
        <ele>114.80</ele>
        <time>2014-04-06T07:52:42Z</time>
      </trkpt>
      <trkpt lat="41.604621780" lon="2.539198490">
        <ele>114.80</ele>
        <time>2014-04-06T07:52:43Z</time>
      </trkpt>
      <trkpt lat="41.604621780" lon="2.539198490">
        <ele>114.80</ele>
        <time>2014-04-06T07:52:44Z</time>
      </trkpt>
      <trkpt lat="41.604621780" lon="2.539196810">
        <ele>114.80</ele>
        <time>2014-04-06T07:52:45Z</time>
      </trkpt>
      <trkpt lat="41.604621780" lon="2.539196810">
        <ele>114.80</ele>
        <time>2014-04-06T07:52:46Z</time>
      </trkpt>
      <trkpt lat="41.604621780" lon="2.539196810">
        <ele>114.80</ele>
        <time>2014-04-06T07:52:47Z</time>
      </trkpt>
      <trkpt lat="41.604620100" lon="2.539196810">
        <ele>114.80</ele>
        <time>2014-04-06T07:52:48Z</time>
      </trkpt>
      <trkpt lat="41.604620100" lon="2.539196810">
        <ele>114.80</ele>
        <time>2014-04-06T07:52:49Z</time>
      </trkpt>
      <trkpt lat="41.604620100" lon="2.539196810">
        <ele>114.80</ele>
        <time>2014-04-06T07:52:50Z</time>
      </trkpt>
      <trkpt lat="41.604620100" lon="2.539196810">
        <ele>114.80</ele>
        <time>2014-04-06T07:52:51Z</time>
      </trkpt>
      <trkpt lat="41.604620100" lon="2.539195130">
        <ele>114.80</ele>
        <time>2014-04-06T07:52:52Z</time>
      </trkpt>
      <trkpt lat="41.604620100" lon="2.539195130">
        <ele>114.80</ele>
        <time>2014-04-06T07:52:53Z</time>
      </trkpt>
      <trkpt lat="41.604618430" lon="2.539195130">
        <ele>114.80</ele>
        <time>2014-04-06T07:52:54Z</time>
      </trkpt>
      <trkpt lat="41.604618430" lon="2.539193460">
        <ele>114.80</ele>
        <time>2014-04-06T07:52:55Z</time>
      </trkpt>
      <trkpt lat="41.604618430" lon="2.539193460">
        <ele>114.80</ele>
        <time>2014-04-06T07:52:56Z</time>
      </trkpt>
      <trkpt lat="41.604618430" lon="2.539193460">
        <ele>114.80</ele>
        <time>2014-04-06T07:52:57Z</time>
      </trkpt>
      <trkpt lat="41.604618430" lon="2.539193460">
        <ele>114.80</ele>
        <time>2014-04-06T07:52:58Z</time>
      </trkpt>
      <trkpt lat="41.604616750" lon="2.539193460">
        <ele>114.80</ele>
        <time>2014-04-06T07:52:59Z</time>
      </trkpt>
      <trkpt lat="41.604616750" lon="2.539193460">
        <ele>114.80</ele>
        <time>2014-04-06T07:53:00Z</time>
      </trkpt>
      <trkpt lat="41.604616750" lon="2.539191780">
        <ele>114.80</ele>
        <time>2014-04-06T07:53:01Z</time>
      </trkpt>
      <trkpt lat="41.604616750" lon="2.539191780">
        <ele>114.80</ele>
        <time>2014-04-06T07:53:02Z</time>
      </trkpt>
      <trkpt lat="41.604615070" lon="2.539191780">
        <ele>114.80</ele>
        <time>2014-04-06T07:53:03Z</time>
      </trkpt>
      <trkpt lat="41.604615070" lon="2.539191780">
        <ele>114.80</ele>
        <time>2014-04-06T07:53:04Z</time>
      </trkpt>
      <trkpt lat="41.604615070" lon="2.539191780">
        <ele>114.80</ele>
        <time>2014-04-06T07:53:05Z</time>
      </trkpt>
      <trkpt lat="41.604613400" lon="2.539191780">
        <ele>114.80</ele>
        <time>2014-04-06T07:53:06Z</time>
      </trkpt>
      <trkpt lat="41.604613400" lon="2.539190100">
        <ele>114.80</ele>
        <time>2014-04-06T07:53:07Z</time>
      </trkpt>
      <trkpt lat="41.604613400" lon="2.539190100">
        <ele>114.80</ele>
        <time>2014-04-06T07:53:08Z</time>
      </trkpt>
      <trkpt lat="41.604611720" lon="2.539190100">
        <ele>114.80</ele>
        <time>2014-04-06T07:53:09Z</time>
      </trkpt>
      <trkpt lat="41.604611720" lon="2.539190100">
        <ele>114.80</ele>
        <time>2014-04-06T07:53:10Z</time>
      </trkpt>
      <trkpt lat="41.604611720" lon="2.539188430">
        <ele>114.80</ele>
        <time>2014-04-06T07:53:11Z</time>
      </trkpt>
      <trkpt lat="41.604611720" lon="2.539188430">
        <ele>114.80</ele>
        <time>2014-04-06T07:53:12Z</time>
      </trkpt>
      <trkpt lat="41.604611720" lon="2.539188430">
        <ele>114.80</ele>
        <time>2014-04-06T07:53:13Z</time>
      </trkpt>
      <trkpt lat="41.604610040" lon="2.539188430">
        <ele>114.80</ele>
        <time>2014-04-06T07:53:14Z</time>
      </trkpt>
      <trkpt lat="41.604610040" lon="2.539188430">
        <ele>114.80</ele>
        <time>2014-04-06T07:53:15Z</time>
      </trkpt>
      <trkpt lat="41.604610040" lon="2.539186750">
        <ele>114.80</ele>
        <time>2014-04-06T07:53:16Z</time>
      </trkpt>
      <trkpt lat="41.604610040" lon="2.539186750">
        <ele>114.80</ele>
        <time>2014-04-06T07:53:17Z</time>
      </trkpt>
      <trkpt lat="41.604608370" lon="2.539186750">
        <ele>114.80</ele>
        <time>2014-04-06T07:53:18Z</time>
      </trkpt>
      <trkpt lat="41.604608370" lon="2.539186750">
        <ele>114.80</ele>
        <time>2014-04-06T07:53:19Z</time>
      </trkpt>
      <trkpt lat="41.604608370" lon="2.539185080">
        <ele>114.80</ele>
        <time>2014-04-06T07:53:20Z</time>
      </trkpt>
      <trkpt lat="41.604608370" lon="2.539185080">
        <ele>114.80</ele>
        <time>2014-04-06T07:53:21Z</time>
      </trkpt>
      <trkpt lat="41.604606690" lon="2.539185080">
        <ele>114.80</ele>
        <time>2014-04-06T07:53:22Z</time>
      </trkpt>
      <trkpt lat="41.604606690" lon="2.539185080">
        <ele>114.80</ele>
        <time>2014-04-06T07:53:23Z</time>
      </trkpt>
      <trkpt lat="41.604606690" lon="2.539185080">
        <ele>114.80</ele>
        <time>2014-04-06T07:53:24Z</time>
      </trkpt>
      <trkpt lat="41.604606690" lon="2.539185080">
        <ele>114.80</ele>
        <time>2014-04-06T07:53:25Z</time>
      </trkpt>
      <trkpt lat="41.604605010" lon="2.539185080">
        <ele>114.80</ele>
        <time>2014-04-06T07:53:26Z</time>
      </trkpt>
      <trkpt lat="41.604605010" lon="2.539185080">
        <ele>114.80</ele>
        <time>2014-04-06T07:53:27Z</time>
      </trkpt>
      <trkpt lat="41.604605010" lon="2.539183400">
        <ele>114.80</ele>
        <time>2014-04-06T07:53:28Z</time>
      </trkpt>
      <trkpt lat="41.604605010" lon="2.539183400">
        <ele>114.80</ele>
        <time>2014-04-06T07:53:29Z</time>
      </trkpt>
      <trkpt lat="41.604603340" lon="2.539183400">
        <ele>114.80</ele>
        <time>2014-04-06T07:53:30Z</time>
      </trkpt>
      <trkpt lat="41.604603340" lon="2.539183400">
        <ele>114.80</ele>
        <time>2014-04-06T07:53:31Z</time>
      </trkpt>
      <trkpt lat="41.604603340" lon="2.539183400">
        <ele>114.80</ele>
        <time>2014-04-06T07:53:32Z</time>
      </trkpt>
      <trkpt lat="41.604603340" lon="2.539183400">
        <ele>114.80</ele>
        <time>2014-04-06T07:53:33Z</time>
      </trkpt>
      <trkpt lat="41.604603340" lon="2.539183400">
        <ele>114.80</ele>
        <time>2014-04-06T07:53:34Z</time>
      </trkpt>
      <trkpt lat="41.604603340" lon="2.539185080">
        <ele>114.80</ele>
        <time>2014-04-06T07:53:35Z</time>
      </trkpt>
      <trkpt lat="41.604605010" lon="2.539185080">
        <ele>114.80</ele>
        <time>2014-04-06T07:53:36Z</time>
      </trkpt>
      <trkpt lat="41.604605010" lon="2.539185080">
        <ele>114.80</ele>
        <time>2014-04-06T07:53:37Z</time>
      </trkpt>
      <trkpt lat="41.604605010" lon="2.539185080">
        <ele>114.80</ele>
        <time>2014-04-06T07:53:38Z</time>
      </trkpt>
      <trkpt lat="41.604603340" lon="2.539185080">
        <ele>114.80</ele>
        <time>2014-04-06T07:53:39Z</time>
      </trkpt>
      <trkpt lat="41.604603340" lon="2.539185080">
        <ele>114.80</ele>
        <time>2014-04-06T07:53:40Z</time>
      </trkpt>
      <trkpt lat="41.604603340" lon="2.539185080">
        <ele>114.80</ele>
        <time>2014-04-06T07:53:41Z</time>
      </trkpt>
      <trkpt lat="41.604603340" lon="2.539183400">
        <ele>114.80</ele>
        <time>2014-04-06T07:53:42Z</time>
      </trkpt>
      <trkpt lat="41.604603340" lon="2.539183400">
        <ele>114.80</ele>
        <time>2014-04-06T07:53:43Z</time>
      </trkpt>
      <trkpt lat="41.604603340" lon="2.539183400">
        <ele>114.80</ele>
        <time>2014-04-06T07:53:44Z</time>
      </trkpt>
      <trkpt lat="41.604603340" lon="2.539183400">
        <ele>114.80</ele>
        <time>2014-04-06T07:53:45Z</time>
      </trkpt>
      <trkpt lat="41.604601830" lon="2.539183400">
        <ele>114.80</ele>
        <time>2014-04-06T07:53:46Z</time>
      </trkpt>
      <trkpt lat="41.604601830" lon="2.539181720">
        <ele>114.80</ele>
        <time>2014-04-06T07:53:47Z</time>
      </trkpt>
      <trkpt lat="41.604601830" lon="2.539181720">
        <ele>114.80</ele>
        <time>2014-04-06T07:53:48Z</time>
      </trkpt>
      <trkpt lat="41.604600150" lon="2.539180050">
        <ele>114.80</ele>
        <time>2014-04-06T07:53:49Z</time>
      </trkpt>
      <trkpt lat="41.604600150" lon="2.539180050">
        <ele>114.80</ele>
        <time>2014-04-06T07:53:50Z</time>
      </trkpt>
      <trkpt lat="41.604600150" lon="2.539180050">
        <ele>114.80</ele>
        <time>2014-04-06T07:53:51Z</time>
      </trkpt>
      <trkpt lat="41.604598480" lon="2.539178370">
        <ele>114.80</ele>
        <time>2014-04-06T07:53:52Z</time>
      </trkpt>
      <trkpt lat="41.604598480" lon="2.539178370">
        <ele>114.80</ele>
        <time>2014-04-06T07:53:53Z</time>
      </trkpt>
      <trkpt lat="41.604598480" lon="2.539178370">
        <ele>114.80</ele>
        <time>2014-04-06T07:53:54Z</time>
      </trkpt>
      <trkpt lat="41.604600150" lon="2.539180050">
        <ele>114.80</ele>
        <time>2014-04-06T07:53:55Z</time>
      </trkpt>
      <trkpt lat="41.604603340" lon="2.539183400">
        <ele>114.80</ele>
        <time>2014-04-06T07:53:56Z</time>
      </trkpt>
      <trkpt lat="41.604603340" lon="2.539183400">
        <ele>114.80</ele>
        <time>2014-04-06T07:53:57Z</time>
      </trkpt>
      <trkpt lat="41.604605010" lon="2.539183400">
        <ele>114.80</ele>
        <time>2014-04-06T07:53:58Z</time>
      </trkpt>
      <trkpt lat="41.604605010" lon="2.539185080">
        <ele>114.80</ele>
        <time>2014-04-06T07:53:59Z</time>
      </trkpt>
      <trkpt lat="41.604606690" lon="2.539185080">
        <ele>114.80</ele>
        <time>2014-04-06T07:54:00Z</time>
      </trkpt>
      <trkpt lat="41.604606690" lon="2.539188430">
        <ele>114.80</ele>
        <time>2014-04-06T07:54:01Z</time>
      </trkpt>
      <trkpt lat="41.604606690" lon="2.539196810">
        <ele>114.80</ele>
        <time>2014-04-06T07:54:02Z</time>
      </trkpt>
      <trkpt lat="41.604605010" lon="2.539211730">
        <ele>114.80</ele>
        <time>2014-04-06T07:54:03Z</time>
      </trkpt>
      <trkpt lat="41.604603340" lon="2.539226820">
        <ele>114.80</ele>
        <time>2014-04-06T07:54:04Z</time>
      </trkpt>
      <trkpt lat="41.604595120" lon="2.539248440">
        <ele>114.40</ele>
        <time>2014-04-06T07:54:05Z</time>
      </trkpt>
      <trkpt lat="41.604585070" lon="2.539275100">
        <ele>114.60</ele>
        <time>2014-04-06T07:54:06Z</time>
      </trkpt>
      <trkpt lat="41.604570150" lon="2.539301750">
        <ele>114.70</ele>
        <time>2014-04-06T07:54:07Z</time>
      </trkpt>
      <trkpt lat="41.604556730" lon="2.539331760">
        <ele>114.80</ele>
        <time>2014-04-06T07:54:08Z</time>
      </trkpt>
      <trkpt lat="41.604541810" lon="2.539368470">
        <ele>114.70</ele>
        <time>2014-04-06T07:54:09Z</time>
      </trkpt>
      <trkpt lat="41.604523370" lon="2.539406690">
        <ele>114.70</ele>
        <time>2014-04-06T07:54:10Z</time>
      </trkpt>
      <trkpt lat="41.604505100" lon="2.539446760">
        <ele>114.90</ele>
        <time>2014-04-06T07:54:11Z</time>
      </trkpt>
      <trkpt lat="41.604486830" lon="2.539481800">
        <ele>115.00</ele>
        <time>2014-04-06T07:54:12Z</time>
      </trkpt>
      <trkpt lat="41.604468390" lon="2.539511800">
        <ele>115.00</ele>
        <time>2014-04-06T07:54:13Z</time>
      </trkpt>
      <trkpt lat="41.604451790" lon="2.539545160">
        <ele>115.00</ele>
        <time>2014-04-06T07:54:14Z</time>
      </trkpt>
      <trkpt lat="41.604443410" lon="2.539588410">
        <ele>114.90</ele>
        <time>2014-04-06T07:54:15Z</time>
      </trkpt>
      <trkpt lat="41.604443410" lon="2.539636690">
        <ele>115.00</ele>
        <time>2014-04-06T07:54:16Z</time>
      </trkpt>
      <trkpt lat="41.604451790" lon="2.539685140">
        <ele>115.00</ele>
        <time>2014-04-06T07:54:17Z</time>
      </trkpt>
      <trkpt lat="41.604466710" lon="2.539733420">
        <ele>114.70</ele>
        <time>2014-04-06T07:54:18Z</time>
      </trkpt>
      <trkpt lat="41.604486830" lon="2.539781700">
        <ele>114.40</ele>
        <time>2014-04-06T07:54:19Z</time>
      </trkpt>
      <trkpt lat="41.604511810" lon="2.539831820">
        <ele>114.20</ele>
        <time>2014-04-06T07:54:20Z</time>
      </trkpt>
      <trkpt lat="41.604546680" lon="2.539878430">
        <ele>114.00</ele>
        <time>2014-04-06T07:54:21Z</time>
      </trkpt>
      <trkpt lat="41.604586740" lon="2.539920000">
        <ele>113.80</ele>
        <time>2014-04-06T07:54:22Z</time>
      </trkpt>
      <trkpt lat="41.604626810" lon="2.539958390">
        <ele>113.50</ele>
        <time>2014-04-06T07:54:23Z</time>
      </trkpt>
      <trkpt lat="41.604660000" lon="2.539988400">
        <ele>113.20</ele>
        <time>2014-04-06T07:54:24Z</time>
      </trkpt>
      <trkpt lat="41.604683470" lon="2.540010020">
        <ele>113.10</ele>
        <time>2014-04-06T07:54:25Z</time>
      </trkpt>
      <trkpt lat="41.604701740" lon="2.540030140">
        <ele>113.00</ele>
        <time>2014-04-06T07:54:26Z</time>
      </trkpt>
      <trkpt lat="41.604711800" lon="2.540055120">
        <ele>113.00</ele>
        <time>2014-04-06T07:54:27Z</time>
      </trkpt>
      <trkpt lat="41.604716830" lon="2.540083450">
        <ele>113.20</ele>
        <time>2014-04-06T07:54:28Z</time>
      </trkpt>
      <trkpt lat="41.604725040" lon="2.540110100">
        <ele>113.40</ele>
        <time>2014-04-06T07:54:29Z</time>
      </trkpt>
      <trkpt lat="41.604738450" lon="2.540133400">
        <ele>113.30</ele>
        <time>2014-04-06T07:54:30Z</time>
      </trkpt>
      <trkpt lat="41.604755050" lon="2.540150000">
        <ele>113.30</ele>
        <time>2014-04-06T07:54:31Z</time>
      </trkpt>
      <trkpt lat="41.604776680" lon="2.540160060">
        <ele>113.20</ele>
        <time>2014-04-06T07:54:32Z</time>
      </trkpt>
      <trkpt lat="41.604796790" lon="2.540160060">
        <ele>113.20</ele>
        <time>2014-04-06T07:54:33Z</time>
      </trkpt>
      <trkpt lat="41.604818420" lon="2.540156710">
        <ele>113.20</ele>
        <time>2014-04-06T07:54:34Z</time>
      </trkpt>
      <trkpt lat="41.604838370" lon="2.540158380">
        <ele>113.50</ele>
        <time>2014-04-06T07:54:35Z</time>
      </trkpt>
      <trkpt lat="41.604856810" lon="2.540166760">
        <ele>113.70</ele>
        <time>2014-04-06T07:54:36Z</time>
      </trkpt>
      <trkpt lat="41.604875080" lon="2.540175150">
        <ele>113.70</ele>
        <time>2014-04-06T07:54:37Z</time>
      </trkpt>
      <trkpt lat="41.604895030" lon="2.540175150">
        <ele>113.60</ele>
        <time>2014-04-06T07:54:38Z</time>
      </trkpt>
      <trkpt lat="41.604915140" lon="2.540173470">
        <ele>113.60</ele>
        <time>2014-04-06T07:54:39Z</time>
      </trkpt>
      <trkpt lat="41.604935090" lon="2.540178330">
        <ele>113.90</ele>
        <time>2014-04-06T07:54:40Z</time>
      </trkpt>
      <trkpt lat="41.604955040" lon="2.540183360">
        <ele>114.20</ele>
        <time>2014-04-06T07:54:41Z</time>
      </trkpt>
      <trkpt lat="41.604975160" lon="2.540188390">
        <ele>114.00</ele>
        <time>2014-04-06T07:54:42Z</time>
      </trkpt>
      <trkpt lat="41.604996780" lon="2.540193420">
        <ele>113.80</ele>
        <time>2014-04-06T07:54:43Z</time>
      </trkpt>
      <trkpt lat="41.605016730" lon="2.540195100">
        <ele>114.00</ele>
        <time>2014-04-06T07:54:44Z</time>
      </trkpt>
      <trkpt lat="41.605038360" lon="2.540198450">
        <ele>114.10</ele>
        <time>2014-04-06T07:54:45Z</time>
      </trkpt>
      <trkpt lat="41.605058480" lon="2.540200120">
        <ele>114.10</ele>
        <time>2014-04-06T07:54:46Z</time>
      </trkpt>
      <trkpt lat="41.605080100" lon="2.540201800">
        <ele>114.30</ele>
        <time>2014-04-06T07:54:47Z</time>
      </trkpt>
      <trkpt lat="41.605100050" lon="2.540205150">
        <ele>114.40</ele>
        <time>2014-04-06T07:54:48Z</time>
      </trkpt>
      <trkpt lat="41.605120000" lon="2.540208340">
        <ele>114.30</ele>
        <time>2014-04-06T07:54:49Z</time>
      </trkpt>
      <trkpt lat="41.605140110" lon="2.540210010">
        <ele>114.30</ele>
        <time>2014-04-06T07:54:50Z</time>
      </trkpt>
      <trkpt lat="41.605161740" lon="2.540208340">
        <ele>114.50</ele>
        <time>2014-04-06T07:54:51Z</time>
      </trkpt>
      <trkpt lat="41.605183370" lon="2.540211690">
        <ele>114.70</ele>
        <time>2014-04-06T07:54:52Z</time>
      </trkpt>
      <trkpt lat="41.605205160" lon="2.540215040">
        <ele>114.90</ele>
        <time>2014-04-06T07:54:53Z</time>
      </trkpt>
      <trkpt lat="41.605226780" lon="2.540216720">
        <ele>114.90</ele>
        <time>2014-04-06T07:54:54Z</time>
      </trkpt>
      <trkpt lat="41.605248410" lon="2.540220070">
        <ele>115.00</ele>
        <time>2014-04-06T07:54:55Z</time>
      </trkpt>
      <trkpt lat="41.605270030" lon="2.540223430">
        <ele>115.20</ele>
        <time>2014-04-06T07:54:56Z</time>
      </trkpt>
      <trkpt lat="41.605293340" lon="2.540223430">
        <ele>115.30</ele>
        <time>2014-04-06T07:54:57Z</time>
      </trkpt>
      <trkpt lat="41.605315130" lon="2.540226780">
        <ele>115.50</ele>
        <time>2014-04-06T07:54:58Z</time>
      </trkpt>
      <trkpt lat="41.605336750" lon="2.540231810">
        <ele>115.50</ele>
        <time>2014-04-06T07:54:59Z</time>
      </trkpt>
      <trkpt lat="41.605360060" lon="2.540235160">
        <ele>115.50</ele>
        <time>2014-04-06T07:55:00Z</time>
      </trkpt>
      <trkpt lat="41.605381680" lon="2.540236670">
        <ele>115.40</ele>
        <time>2014-04-06T07:55:01Z</time>
      </trkpt>
      <trkpt lat="41.605403470" lon="2.540243370">
        <ele>115.40</ele>
        <time>2014-04-06T07:55:02Z</time>
      </trkpt>
      <trkpt lat="41.605425100" lon="2.540248400">
        <ele>115.60</ele>
        <time>2014-04-06T07:55:03Z</time>
      </trkpt>
      <trkpt lat="41.605445050" lon="2.540255110">
        <ele>115.70</ele>
        <time>2014-04-06T07:55:04Z</time>
      </trkpt>
      <trkpt lat="41.605466670" lon="2.540258460">
        <ele>115.80</ele>
        <time>2014-04-06T07:55:05Z</time>
      </trkpt>
      <trkpt lat="41.605488470" lon="2.540263490">
        <ele>115.50</ele>
        <time>2014-04-06T07:55:06Z</time>
      </trkpt>
      <trkpt lat="41.605510090" lon="2.540266680">
        <ele>115.30</ele>
        <time>2014-04-06T07:55:07Z</time>
      </trkpt>
      <trkpt lat="41.605533390" lon="2.540270030">
        <ele>115.50</ele>
        <time>2014-04-06T07:55:08Z</time>
      </trkpt>
      <trkpt lat="41.605555020" lon="2.540271710">
        <ele>115.70</ele>
        <time>2014-04-06T07:55:09Z</time>
      </trkpt>
      <trkpt lat="41.605576810" lon="2.540273380">
        <ele>116.10</ele>
        <time>2014-04-06T07:55:10Z</time>
      </trkpt>
      <trkpt lat="41.605596760" lon="2.540271710">
        <ele>116.50</ele>
        <time>2014-04-06T07:55:11Z</time>
      </trkpt>
      <trkpt lat="41.605618390" lon="2.540266680">
        <ele>116.80</ele>
        <time>2014-04-06T07:55:12Z</time>
      </trkpt>
      <trkpt lat="41.605638340" lon="2.540260140">
        <ele>116.80</ele>
        <time>2014-04-06T07:55:13Z</time>
      </trkpt>
      <trkpt lat="41.605660130" lon="2.540258460">
        <ele>116.80</ele>
        <time>2014-04-06T07:55:14Z</time>
      </trkpt>
      <trkpt lat="41.605678400" lon="2.540263490">
        <ele>116.50</ele>
        <time>2014-04-06T07:55:15Z</time>
      </trkpt>
      <trkpt lat="41.605698350" lon="2.540268350">
        <ele>116.20</ele>
        <time>2014-04-06T07:55:16Z</time>
      </trkpt>
      <trkpt lat="41.605715110" lon="2.540275060">
        <ele>116.10</ele>
        <time>2014-04-06T07:55:17Z</time>
      </trkpt>
      <trkpt lat="41.605730030" lon="2.540280090">
        <ele>116.20</ele>
        <time>2014-04-06T07:55:18Z</time>
      </trkpt>
      <trkpt lat="41.605740090" lon="2.540283440">
        <ele>116.40</ele>
        <time>2014-04-06T07:55:19Z</time>
      </trkpt>
      <trkpt lat="41.605745120" lon="2.540281760">
        <ele>116.80</ele>
        <time>2014-04-06T07:55:20Z</time>
      </trkpt>
      <trkpt lat="41.605748470" lon="2.540281760">
        <ele>117.00</ele>
        <time>2014-04-06T07:55:21Z</time>
      </trkpt>
      <trkpt lat="41.605750150" lon="2.540280090">
        <ele>117.40</ele>
        <time>2014-04-06T07:55:22Z</time>
      </trkpt>
      <trkpt lat="41.605753330" lon="2.540281760">
        <ele>117.60</ele>
        <time>2014-04-06T07:55:23Z</time>
      </trkpt>
      <trkpt lat="41.605756690" lon="2.540280090">
        <ele>117.80</ele>
        <time>2014-04-06T07:55:24Z</time>
      </trkpt>
      <trkpt lat="41.605758360" lon="2.540278410">
        <ele>117.90</ele>
        <time>2014-04-06T07:55:25Z</time>
      </trkpt>
      <trkpt lat="41.605761720" lon="2.540276730">
        <ele>118.00</ele>
        <time>2014-04-06T07:55:26Z</time>
      </trkpt>
      <trkpt lat="41.605763390" lon="2.540276730">
        <ele>118.00</ele>
        <time>2014-04-06T07:55:27Z</time>
      </trkpt>
      <trkpt lat="41.605765070" lon="2.540275060">
        <ele>117.90</ele>
        <time>2014-04-06T07:55:28Z</time>
      </trkpt>
      <trkpt lat="41.605768420" lon="2.540275060">
        <ele>118.50</ele>
        <time>2014-04-06T07:55:29Z</time>
      </trkpt>
      <trkpt lat="41.605770100" lon="2.540275060">
        <ele>118.90</ele>
        <time>2014-04-06T07:55:30Z</time>
      </trkpt>
      <trkpt lat="41.605771780" lon="2.540273380">
        <ele>119.20</ele>
        <time>2014-04-06T07:55:31Z</time>
      </trkpt>
      <trkpt lat="41.605773450" lon="2.540273380">
        <ele>118.70</ele>
        <time>2014-04-06T07:55:32Z</time>
      </trkpt>
      <trkpt lat="41.605775130" lon="2.540271710">
        <ele>118.40</ele>
        <time>2014-04-06T07:55:33Z</time>
      </trkpt>
      <trkpt lat="41.605776800" lon="2.540271710">
        <ele>118.50</ele>
        <time>2014-04-06T07:55:34Z</time>
      </trkpt>
      <trkpt lat="41.605778480" lon="2.540271710">
        <ele>118.50</ele>
        <time>2014-04-06T07:55:35Z</time>
      </trkpt>
      <trkpt lat="41.605780160" lon="2.540271710">
        <ele>118.60</ele>
        <time>2014-04-06T07:55:36Z</time>
      </trkpt>
      <trkpt lat="41.605781670" lon="2.540270030">
        <ele>118.40</ele>
        <time>2014-04-06T07:55:37Z</time>
      </trkpt>
      <trkpt lat="41.605783340" lon="2.540270030">
        <ele>118.20</ele>
        <time>2014-04-06T07:55:38Z</time>
      </trkpt>
      <trkpt lat="41.605785020" lon="2.540270030">
        <ele>117.80</ele>
        <time>2014-04-06T07:55:39Z</time>
      </trkpt>
      <trkpt lat="41.605786690" lon="2.540270030">
        <ele>117.50</ele>
        <time>2014-04-06T07:55:40Z</time>
      </trkpt>
      <trkpt lat="41.605788370" lon="2.540270030">
        <ele>117.30</ele>
        <time>2014-04-06T07:55:41Z</time>
      </trkpt>
      <trkpt lat="41.605790050" lon="2.540270030">
        <ele>117.20</ele>
        <time>2014-04-06T07:55:42Z</time>
      </trkpt>
      <trkpt lat="41.605791720" lon="2.540270030">
        <ele>117.10</ele>
        <time>2014-04-06T07:55:43Z</time>
      </trkpt>
      <trkpt lat="41.605793400" lon="2.540268350">
        <ele>117.20</ele>
        <time>2014-04-06T07:55:44Z</time>
      </trkpt>
      <trkpt lat="41.605795080" lon="2.540268350">
        <ele>117.20</ele>
        <time>2014-04-06T07:55:45Z</time>
      </trkpt>
      <trkpt lat="41.605796750" lon="2.540268350">
        <ele>117.20</ele>
        <time>2014-04-06T07:55:46Z</time>
      </trkpt>
      <trkpt lat="41.605798430" lon="2.540268350">
        <ele>117.20</ele>
        <time>2014-04-06T07:55:47Z</time>
      </trkpt>
      <trkpt lat="41.605800110" lon="2.540266680">
        <ele>117.40</ele>
        <time>2014-04-06T07:55:48Z</time>
      </trkpt>
      <trkpt lat="41.605801780" lon="2.540266680">
        <ele>117.50</ele>
        <time>2014-04-06T07:55:49Z</time>
      </trkpt>
      <trkpt lat="41.605803460" lon="2.540266680">
        <ele>117.60</ele>
        <time>2014-04-06T07:55:50Z</time>
      </trkpt>
      <trkpt lat="41.605805130" lon="2.540266680">
        <ele>117.40</ele>
        <time>2014-04-06T07:55:51Z</time>
      </trkpt>
      <trkpt lat="41.605806810" lon="2.540266680">
        <ele>117.20</ele>
        <time>2014-04-06T07:55:52Z</time>
      </trkpt>
      <trkpt lat="41.605808490" lon="2.540265000">
        <ele>117.40</ele>
        <time>2014-04-06T07:55:53Z</time>
      </trkpt>
      <trkpt lat="41.605810000" lon="2.540265000">
        <ele>117.50</ele>
        <time>2014-04-06T07:55:54Z</time>
      </trkpt>
      <trkpt lat="41.605811670" lon="2.540265000">
        <ele>117.60</ele>
        <time>2014-04-06T07:55:55Z</time>
      </trkpt>
      <trkpt lat="41.605811670" lon="2.540265000">
        <ele>117.40</ele>
        <time>2014-04-06T07:55:56Z</time>
      </trkpt>
      <trkpt lat="41.605813350" lon="2.540263490">
        <ele>117.30</ele>
        <time>2014-04-06T07:55:57Z</time>
      </trkpt>
      <trkpt lat="41.605815030" lon="2.540263490">
        <ele>117.20</ele>
        <time>2014-04-06T07:55:58Z</time>
      </trkpt>
      <trkpt lat="41.605815030" lon="2.540263490">
        <ele>117.20</ele>
        <time>2014-04-06T07:55:59Z</time>
      </trkpt>
      <trkpt lat="41.605816700" lon="2.540261810">
        <ele>117.20</ele>
        <time>2014-04-06T07:56:00Z</time>
      </trkpt>
      <trkpt lat="41.605818380" lon="2.540261810">
        <ele>117.20</ele>
        <time>2014-04-06T07:56:01Z</time>
      </trkpt>
      <trkpt lat="41.605820050" lon="2.540261810">
        <ele>117.20</ele>
        <time>2014-04-06T07:56:02Z</time>
      </trkpt>
      <trkpt lat="41.605820050" lon="2.540260140">
        <ele>117.10</ele>
        <time>2014-04-06T07:56:03Z</time>
      </trkpt>
      <trkpt lat="41.605821730" lon="2.540260140">
        <ele>116.90</ele>
        <time>2014-04-06T07:56:04Z</time>
      </trkpt>
      <trkpt lat="41.605823410" lon="2.540260140">
        <ele>116.80</ele>
        <time>2014-04-06T07:56:05Z</time>
      </trkpt>
      <trkpt lat="41.605825080" lon="2.540258460">
        <ele>116.80</ele>
        <time>2014-04-06T07:56:06Z</time>
      </trkpt>
      <trkpt lat="41.605825080" lon="2.540258460">
        <ele>117.10</ele>
        <time>2014-04-06T07:56:07Z</time>
      </trkpt>
      <trkpt lat="41.605826760" lon="2.540258460">
        <ele>117.30</ele>
        <time>2014-04-06T07:56:08Z</time>
      </trkpt>
      <trkpt lat="41.605826760" lon="2.540256790">
        <ele>117.50</ele>
        <time>2014-04-06T07:56:09Z</time>
      </trkpt>
      <trkpt lat="41.605828440" lon="2.540256790">
        <ele>117.30</ele>
        <time>2014-04-06T07:56:10Z</time>
      </trkpt>
      <trkpt lat="41.605828440" lon="2.540256790">
        <ele>117.10</ele>
        <time>2014-04-06T07:56:11Z</time>
      </trkpt>
      <trkpt lat="41.605830110" lon="2.540256790">
        <ele>116.90</ele>
        <time>2014-04-06T07:56:12Z</time>
      </trkpt>
      <trkpt lat="41.605830110" lon="2.540256790">
        <ele>116.70</ele>
        <time>2014-04-06T07:56:13Z</time>
      </trkpt>
      <trkpt lat="41.605830110" lon="2.540256790">
        <ele>116.60</ele>
        <time>2014-04-06T07:56:14Z</time>
      </trkpt>
      <trkpt lat="41.605831790" lon="2.540256790">
        <ele>116.80</ele>
        <time>2014-04-06T07:56:15Z</time>
      </trkpt>
      <trkpt lat="41.605831790" lon="2.540256790">
        <ele>116.90</ele>
        <time>2014-04-06T07:56:16Z</time>
      </trkpt>
      <trkpt lat="41.605831790" lon="2.540256790">
        <ele>116.80</ele>
        <time>2014-04-06T07:56:17Z</time>
      </trkpt>
      <trkpt lat="41.605833470" lon="2.540256790">
        <ele>116.80</ele>
        <time>2014-04-06T07:56:18Z</time>
      </trkpt>
      <trkpt lat="41.605833470" lon="2.540256790">
        <ele>116.70</ele>
        <time>2014-04-06T07:56:19Z</time>
      </trkpt>
      <trkpt lat="41.605833470" lon="2.540256790">
        <ele>116.60</ele>
        <time>2014-04-06T07:56:20Z</time>
      </trkpt>
      <trkpt lat="41.605835140" lon="2.540255110">
        <ele>116.60</ele>
        <time>2014-04-06T07:56:21Z</time>
      </trkpt>
      <trkpt lat="41.605835140" lon="2.540255110">
        <ele>117.00</ele>
        <time>2014-04-06T07:56:22Z</time>
      </trkpt>
      <trkpt lat="41.605835140" lon="2.540255110">
        <ele>117.20</ele>
        <time>2014-04-06T07:56:23Z</time>
      </trkpt>
      <trkpt lat="41.605835140" lon="2.540255110">
        <ele>117.00</ele>
        <time>2014-04-06T07:56:24Z</time>
      </trkpt>
      <trkpt lat="41.605835140" lon="2.540255110">
        <ele>116.80</ele>
        <time>2014-04-06T07:56:25Z</time>
      </trkpt>
      <trkpt lat="41.605835140" lon="2.540255110">
        <ele>116.70</ele>
        <time>2014-04-06T07:56:26Z</time>
      </trkpt>
      <trkpt lat="41.605836820" lon="2.540255110">
        <ele>116.70</ele>
        <time>2014-04-06T07:56:27Z</time>
      </trkpt>
      <trkpt lat="41.605837320" lon="2.540253600">
        <ele>116.00</ele>
        <time>2014-04-06T07:56:30Z</time>
      </trkpt>
      <trkpt lat="41.605838490" lon="2.540256790">
        <ele>116.30</ele>
        <time>2014-04-06T07:56:32Z</time>
      </trkpt>
      <trkpt lat="41.605840000" lon="2.540258460">
        <ele>116.30</ele>
        <time>2014-04-06T07:56:33Z</time>
      </trkpt>
      <trkpt lat="41.605840000" lon="2.540260140">
        <ele>116.10</ele>
        <time>2014-04-06T07:56:34Z</time>
      </trkpt>
      <trkpt lat="41.605840000" lon="2.540260140">
        <ele>116.00</ele>
        <time>2014-04-06T07:56:35Z</time>
      </trkpt>
      <trkpt lat="41.605838490" lon="2.540258460">
        <ele>116.20</ele>
        <time>2014-04-06T07:56:36Z</time>
      </trkpt>
      <trkpt lat="41.605838490" lon="2.540258460">
        <ele>116.30</ele>
        <time>2014-04-06T07:56:37Z</time>
      </trkpt>
      <trkpt lat="41.605836820" lon="2.540258460">
        <ele>116.30</ele>
        <time>2014-04-06T07:56:38Z</time>
      </trkpt>
      <trkpt lat="41.605836820" lon="2.540258460">
        <ele>116.20</ele>
        <time>2014-04-06T07:56:39Z</time>
      </trkpt>
      <trkpt lat="41.605836820" lon="2.540258460">
        <ele>116.20</ele>
        <time>2014-04-06T07:56:40Z</time>
      </trkpt>
      <trkpt lat="41.605836820" lon="2.540258460">
        <ele>116.40</ele>
        <time>2014-04-06T07:56:41Z</time>
      </trkpt>
      <trkpt lat="41.605836820" lon="2.540258460">
        <ele>116.60</ele>
        <time>2014-04-06T07:56:42Z</time>
      </trkpt>
      <trkpt lat="41.605836820" lon="2.540258460">
        <ele>116.50</ele>
        <time>2014-04-06T07:56:43Z</time>
      </trkpt>
      <trkpt lat="41.605836820" lon="2.540260140">
        <ele>116.50</ele>
        <time>2014-04-06T07:56:44Z</time>
      </trkpt>
      <trkpt lat="41.605836820" lon="2.540261810">
        <ele>116.50</ele>
        <time>2014-04-06T07:56:45Z</time>
      </trkpt>
      <trkpt lat="41.605838490" lon="2.540263490">
        <ele>116.50</ele>
        <time>2014-04-06T07:56:46Z</time>
      </trkpt>
      <trkpt lat="41.605838490" lon="2.540265000">
        <ele>116.50</ele>
        <time>2014-04-06T07:56:47Z</time>
      </trkpt>
      <trkpt lat="41.605838490" lon="2.540265000">
        <ele>116.40</ele>
        <time>2014-04-06T07:56:48Z</time>
      </trkpt>
      <trkpt lat="41.605838490" lon="2.540266680">
        <ele>116.40</ele>
        <time>2014-04-06T07:56:49Z</time>
      </trkpt>
      <trkpt lat="41.605838490" lon="2.540266680">
        <ele>116.70</ele>
        <time>2014-04-06T07:56:50Z</time>
      </trkpt>
      <trkpt lat="41.605836820" lon="2.540265000">
        <ele>116.90</ele>
        <time>2014-04-06T07:56:51Z</time>
      </trkpt>
      <trkpt lat="41.605836820" lon="2.540265000">
        <ele>117.10</ele>
        <time>2014-04-06T07:56:52Z</time>
      </trkpt>
      <trkpt lat="41.605835140" lon="2.540263490">
        <ele>117.10</ele>
        <time>2014-04-06T07:56:53Z</time>
      </trkpt>
      <trkpt lat="41.605833470" lon="2.540263490">
        <ele>117.00</ele>
        <time>2014-04-06T07:56:54Z</time>
      </trkpt>
      <trkpt lat="41.605833470" lon="2.540263490">
        <ele>117.10</ele>
        <time>2014-04-06T07:56:55Z</time>
      </trkpt>
      <trkpt lat="41.605831790" lon="2.540261810">
        <ele>117.20</ele>
        <time>2014-04-06T07:56:56Z</time>
      </trkpt>
      <trkpt lat="41.605830110" lon="2.540261810">
        <ele>117.00</ele>
        <time>2014-04-06T07:56:57Z</time>
      </trkpt>
      <trkpt lat="41.605830110" lon="2.540260140">
        <ele>116.80</ele>
        <time>2014-04-06T07:56:58Z</time>
      </trkpt>
      <trkpt lat="41.605828440" lon="2.540260140">
        <ele>116.70</ele>
        <time>2014-04-06T07:56:59Z</time>
      </trkpt>
      <trkpt lat="41.605826760" lon="2.540260140">
        <ele>116.90</ele>
        <time>2014-04-06T07:57:00Z</time>
      </trkpt>
      <trkpt lat="41.605826760" lon="2.540258460">
        <ele>117.00</ele>
        <time>2014-04-06T07:57:01Z</time>
      </trkpt>
      <trkpt lat="41.605825080" lon="2.540258460">
        <ele>117.10</ele>
        <time>2014-04-06T07:57:02Z</time>
      </trkpt>
      <trkpt lat="41.605823410" lon="2.540258460">
        <ele>117.10</ele>
        <time>2014-04-06T07:57:03Z</time>
      </trkpt>
      <trkpt lat="41.605821730" lon="2.540256790">
        <ele>117.40</ele>
        <time>2014-04-06T07:57:04Z</time>
      </trkpt>
      <trkpt lat="41.605821730" lon="2.540256790">
        <ele>117.60</ele>
        <time>2014-04-06T07:57:05Z</time>
      </trkpt>
      <trkpt lat="41.605821730" lon="2.540256790">
        <ele>117.70</ele>
        <time>2014-04-06T07:57:06Z</time>
      </trkpt>
      <trkpt lat="41.605821730" lon="2.540256790">
        <ele>117.40</ele>
        <time>2014-04-06T07:57:07Z</time>
      </trkpt>
      <trkpt lat="41.605821730" lon="2.540255110">
        <ele>117.10</ele>
        <time>2014-04-06T07:57:08Z</time>
      </trkpt>
      <trkpt lat="41.605820050" lon="2.540255110">
        <ele>117.00</ele>
        <time>2014-04-06T07:57:09Z</time>
      </trkpt>
      <trkpt lat="41.605820050" lon="2.540255110">
        <ele>116.90</ele>
        <time>2014-04-06T07:57:10Z</time>
      </trkpt>
      <trkpt lat="41.605820050" lon="2.540255110">
        <ele>116.80</ele>
        <time>2014-04-06T07:57:11Z</time>
      </trkpt>
      <trkpt lat="41.605820050" lon="2.540255110">
        <ele>116.70</ele>
        <time>2014-04-06T07:57:12Z</time>
      </trkpt>
      <trkpt lat="41.605820050" lon="2.540255110">
        <ele>116.60</ele>
        <time>2014-04-06T07:57:13Z</time>
      </trkpt>
      <trkpt lat="41.605818380" lon="2.540253430">
        <ele>116.60</ele>
        <time>2014-04-06T07:57:14Z</time>
      </trkpt>
      <trkpt lat="41.605818380" lon="2.540253430">
        <ele>116.80</ele>
        <time>2014-04-06T07:57:15Z</time>
      </trkpt>
      <trkpt lat="41.605816700" lon="2.540253430">
        <ele>117.00</ele>
        <time>2014-04-06T07:57:16Z</time>
      </trkpt>
      <trkpt lat="41.605816700" lon="2.540253430">
        <ele>117.20</ele>
        <time>2014-04-06T07:57:17Z</time>
      </trkpt>
      <trkpt lat="41.605816700" lon="2.540253430">
        <ele>117.30</ele>
        <time>2014-04-06T07:57:18Z</time>
      </trkpt>
      <trkpt lat="41.605815030" lon="2.540255110">
        <ele>116.80</ele>
        <time>2014-04-06T07:57:19Z</time>
      </trkpt>
      <trkpt lat="41.605815030" lon="2.540255110">
        <ele>116.50</ele>
        <time>2014-04-06T07:57:20Z</time>
      </trkpt>
      <trkpt lat="41.605813350" lon="2.540255110">
        <ele>116.30</ele>
        <time>2014-04-06T07:57:21Z</time>
      </trkpt>
      <trkpt lat="41.605813350" lon="2.540255110">
        <ele>116.20</ele>
        <time>2014-04-06T07:57:22Z</time>
      </trkpt>
      <trkpt lat="41.605811670" lon="2.540256790">
        <ele>116.30</ele>
        <time>2014-04-06T07:57:23Z</time>
      </trkpt>
      <trkpt lat="41.605811670" lon="2.540256790">
        <ele>116.40</ele>
        <time>2014-04-06T07:57:24Z</time>
      </trkpt>
      <trkpt lat="41.605811670" lon="2.540258460">
        <ele>116.40</ele>
        <time>2014-04-06T07:57:25Z</time>
      </trkpt>
      <trkpt lat="41.605810000" lon="2.540258460">
        <ele>116.10</ele>
        <time>2014-04-06T07:57:26Z</time>
      </trkpt>
      <trkpt lat="41.605810000" lon="2.540258460">
        <ele>115.90</ele>
        <time>2014-04-06T07:57:27Z</time>
      </trkpt>
      <trkpt lat="41.605810000" lon="2.540260140">
        <ele>116.10</ele>
        <time>2014-04-06T07:57:28Z</time>
      </trkpt>
      <trkpt lat="41.605808490" lon="2.540260140">
        <ele>116.30</ele>
        <time>2014-04-06T07:57:29Z</time>
      </trkpt>
      <trkpt lat="41.605808490" lon="2.540260140">
        <ele>116.60</ele>
        <time>2014-04-06T07:57:30Z</time>
      </trkpt>
      <trkpt lat="41.605808490" lon="2.540260140">
        <ele>116.80</ele>
        <time>2014-04-06T07:57:31Z</time>
      </trkpt>
      <trkpt lat="41.605808490" lon="2.540261810">
        <ele>117.00</ele>
        <time>2014-04-06T07:57:32Z</time>
      </trkpt>
      <trkpt lat="41.605806810" lon="2.540261810">
        <ele>117.00</ele>
        <time>2014-04-06T07:57:33Z</time>
      </trkpt>
      <trkpt lat="41.605806810" lon="2.540261810">
        <ele>117.00</ele>
        <time>2014-04-06T07:57:34Z</time>
      </trkpt>
      <trkpt lat="41.605806810" lon="2.540263490">
        <ele>117.00</ele>
        <time>2014-04-06T07:57:35Z</time>
      </trkpt>
      <trkpt lat="41.605806810" lon="2.540263490">
        <ele>117.00</ele>
        <time>2014-04-06T07:57:36Z</time>
      </trkpt>
      <trkpt lat="41.605806810" lon="2.540263490">
        <ele>117.00</ele>
        <time>2014-04-06T07:57:37Z</time>
      </trkpt>
      <trkpt lat="41.605805130" lon="2.540265000">
        <ele>117.00</ele>
        <time>2014-04-06T07:57:38Z</time>
      </trkpt>
      <trkpt lat="41.605805130" lon="2.540265000">
        <ele>116.90</ele>
        <time>2014-04-06T07:57:39Z</time>
      </trkpt>
      <trkpt lat="41.605805130" lon="2.540266680">
        <ele>116.60</ele>
        <time>2014-04-06T07:57:40Z</time>
      </trkpt>
      <trkpt lat="41.605805130" lon="2.540266680">
        <ele>116.30</ele>
        <time>2014-04-06T07:57:41Z</time>
      </trkpt>
      <trkpt lat="41.605805130" lon="2.540268350">
        <ele>116.30</ele>
        <time>2014-04-06T07:57:42Z</time>
      </trkpt>
      <trkpt lat="41.605803460" lon="2.540268350">
        <ele>116.30</ele>
        <time>2014-04-06T07:57:43Z</time>
      </trkpt>
      <trkpt lat="41.605803460" lon="2.540270030">
        <ele>116.20</ele>
        <time>2014-04-06T07:57:44Z</time>
      </trkpt>
      <trkpt lat="41.605803460" lon="2.540270030">
        <ele>116.00</ele>
        <time>2014-04-06T07:57:45Z</time>
      </trkpt>
      <trkpt lat="41.605801780" lon="2.540270030">
        <ele>115.80</ele>
        <time>2014-04-06T07:57:46Z</time>
      </trkpt>
      <trkpt lat="41.605801780" lon="2.540271710">
        <ele>115.90</ele>
        <time>2014-04-06T07:57:47Z</time>
      </trkpt>
      <trkpt lat="41.605801780" lon="2.540271710">
        <ele>116.00</ele>
        <time>2014-04-06T07:57:48Z</time>
      </trkpt>
      <trkpt lat="41.605800110" lon="2.540273380">
        <ele>115.90</ele>
        <time>2014-04-06T07:57:49Z</time>
      </trkpt>
      <trkpt lat="41.605800110" lon="2.540273380">
        <ele>115.80</ele>
        <time>2014-04-06T07:57:50Z</time>
      </trkpt>
      <trkpt lat="41.605798430" lon="2.540275060">
        <ele>115.70</ele>
        <time>2014-04-06T07:57:51Z</time>
      </trkpt>
      <trkpt lat="41.605796750" lon="2.540275060">
        <ele>115.90</ele>
        <time>2014-04-06T07:57:52Z</time>
      </trkpt>
      <trkpt lat="41.605796750" lon="2.540275060">
        <ele>116.20</ele>
        <time>2014-04-06T07:57:53Z</time>
      </trkpt>
      <trkpt lat="41.605795080" lon="2.540276730">
        <ele>115.50</ele>
        <time>2014-04-06T07:57:54Z</time>
      </trkpt>
      <trkpt lat="41.605795080" lon="2.540276730">
        <ele>115.10</ele>
        <time>2014-04-06T07:57:55Z</time>
      </trkpt>
      <trkpt lat="41.605793400" lon="2.540276730">
        <ele>114.70</ele>
        <time>2014-04-06T07:57:56Z</time>
      </trkpt>
      <trkpt lat="41.605791720" lon="2.540276730">
        <ele>115.00</ele>
        <time>2014-04-06T07:57:57Z</time>
      </trkpt>
      <trkpt lat="41.605791720" lon="2.540276730">
        <ele>115.30</ele>
        <time>2014-04-06T07:57:58Z</time>
      </trkpt>
      <trkpt lat="41.605790050" lon="2.540276730">
        <ele>115.80</ele>
        <time>2014-04-06T07:57:59Z</time>
      </trkpt>
      <trkpt lat="41.605790050" lon="2.540276730">
        <ele>116.30</ele>
        <time>2014-04-06T07:58:00Z</time>
      </trkpt>
      <trkpt lat="41.605790050" lon="2.540276730">
        <ele>116.00</ele>
        <time>2014-04-06T07:58:01Z</time>
      </trkpt>
      <trkpt lat="41.605788370" lon="2.540276730">
        <ele>115.80</ele>
        <time>2014-04-06T07:58:02Z</time>
      </trkpt>
      <trkpt lat="41.605788370" lon="2.540276730">
        <ele>115.70</ele>
        <time>2014-04-06T07:58:03Z</time>
      </trkpt>
      <trkpt lat="41.605786690" lon="2.540275060">
        <ele>116.20</ele>
        <time>2014-04-06T07:58:04Z</time>
      </trkpt>
      <trkpt lat="41.605786690" lon="2.540275060">
        <ele>116.50</ele>
        <time>2014-04-06T07:58:05Z</time>
      </trkpt>
      <trkpt lat="41.605786690" lon="2.540275060">
        <ele>116.20</ele>
        <time>2014-04-06T07:58:06Z</time>
      </trkpt>
      <trkpt lat="41.605786690" lon="2.540275060">
        <ele>116.10</ele>
        <time>2014-04-06T07:58:07Z</time>
      </trkpt>
      <trkpt lat="41.605786690" lon="2.540275060">
        <ele>116.30</ele>
        <time>2014-04-06T07:58:08Z</time>
      </trkpt>
      <trkpt lat="41.605786690" lon="2.540273380">
        <ele>116.40</ele>
        <time>2014-04-06T07:58:09Z</time>
      </trkpt>
      <trkpt lat="41.605785020" lon="2.540273380">
        <ele>116.50</ele>
        <time>2014-04-06T07:58:10Z</time>
      </trkpt>
      <trkpt lat="41.605785020" lon="2.540271710">
        <ele>116.40</ele>
        <time>2014-04-06T07:58:11Z</time>
      </trkpt>
      <trkpt lat="41.605785020" lon="2.540271710">
        <ele>116.40</ele>
        <time>2014-04-06T07:58:12Z</time>
      </trkpt>
      <trkpt lat="41.605786690" lon="2.540271710">
        <ele>116.50</ele>
        <time>2014-04-06T07:58:13Z</time>
      </trkpt>
      <trkpt lat="41.605786690" lon="2.540270030">
        <ele>116.60</ele>
        <time>2014-04-06T07:58:14Z</time>
      </trkpt>
      <trkpt lat="41.605786690" lon="2.540270030">
        <ele>116.70</ele>
        <time>2014-04-06T07:58:15Z</time>
      </trkpt>
      <trkpt lat="41.605786690" lon="2.540270030">
        <ele>116.70</ele>
        <time>2014-04-06T07:58:16Z</time>
      </trkpt>
      <trkpt lat="41.605786690" lon="2.540268350">
        <ele>116.70</ele>
        <time>2014-04-06T07:58:17Z</time>
      </trkpt>
      <trkpt lat="41.605786690" lon="2.540268350">
        <ele>116.70</ele>
        <time>2014-04-06T07:58:18Z</time>
      </trkpt>
      <trkpt lat="41.605786690" lon="2.540268350">
        <ele>116.70</ele>
        <time>2014-04-06T07:58:19Z</time>
      </trkpt>
      <trkpt lat="41.605786690" lon="2.540266680">
        <ele>116.70</ele>
        <time>2014-04-06T07:58:20Z</time>
      </trkpt>
      <trkpt lat="41.605786690" lon="2.540266680">
        <ele>116.70</ele>
        <time>2014-04-06T07:58:21Z</time>
      </trkpt>
      <trkpt lat="41.605788370" lon="2.540266680">
        <ele>116.70</ele>
        <time>2014-04-06T07:58:22Z</time>
      </trkpt>
      <trkpt lat="41.605788370" lon="2.540265000">
        <ele>116.30</ele>
        <time>2014-04-06T07:58:23Z</time>
      </trkpt>
      <trkpt lat="41.605788370" lon="2.540265000">
        <ele>116.10</ele>
        <time>2014-04-06T07:58:24Z</time>
      </trkpt>
      <trkpt lat="41.605788370" lon="2.540265000">
        <ele>116.00</ele>
        <time>2014-04-06T07:58:25Z</time>
      </trkpt>
      <trkpt lat="41.605788370" lon="2.540263490">
        <ele>116.00</ele>
        <time>2014-04-06T07:58:26Z</time>
      </trkpt>
      <trkpt lat="41.605790050" lon="2.540263490">
        <ele>116.10</ele>
        <time>2014-04-06T07:58:27Z</time>
      </trkpt>
      <trkpt lat="41.605790050" lon="2.540263490">
        <ele>116.30</ele>
        <time>2014-04-06T07:58:28Z</time>
      </trkpt>
      <trkpt lat="41.605790050" lon="2.540263490">
        <ele>116.40</ele>
        <time>2014-04-06T07:58:29Z</time>
      </trkpt>
      <trkpt lat="41.605790050" lon="2.540261810">
        <ele>116.50</ele>
        <time>2014-04-06T07:58:30Z</time>
      </trkpt>
      <trkpt lat="41.605791720" lon="2.540261810">
        <ele>116.60</ele>
        <time>2014-04-06T07:58:31Z</time>
      </trkpt>
      <trkpt lat="41.605791720" lon="2.540261810">
        <ele>116.20</ele>
        <time>2014-04-06T07:58:32Z</time>
      </trkpt>
      <trkpt lat="41.605791720" lon="2.540261810">
        <ele>115.90</ele>
        <time>2014-04-06T07:58:33Z</time>
      </trkpt>
      <trkpt lat="41.605791720" lon="2.540260140">
        <ele>115.70</ele>
        <time>2014-04-06T07:58:34Z</time>
      </trkpt>
      <trkpt lat="41.605793400" lon="2.540260140">
        <ele>115.70</ele>
        <time>2014-04-06T07:58:35Z</time>
      </trkpt>
      <trkpt lat="41.605793400" lon="2.540258460">
        <ele>115.60</ele>
        <time>2014-04-06T07:58:36Z</time>
      </trkpt>
      <trkpt lat="41.605793400" lon="2.540258460">
        <ele>115.50</ele>
        <time>2014-04-06T07:58:37Z</time>
      </trkpt>
      <trkpt lat="41.605793400" lon="2.540256790">
        <ele>115.40</ele>
        <time>2014-04-06T07:58:38Z</time>
      </trkpt>
      <trkpt lat="41.605793400" lon="2.540255110">
        <ele>115.60</ele>
        <time>2014-04-06T07:58:39Z</time>
      </trkpt>
      <trkpt lat="41.605793400" lon="2.540253430">
        <ele>115.70</ele>
        <time>2014-04-06T07:58:40Z</time>
      </trkpt>
      <trkpt lat="41.605793400" lon="2.540251760">
        <ele>115.70</ele>
        <time>2014-04-06T07:58:41Z</time>
      </trkpt>
      <trkpt lat="41.605793400" lon="2.540250080">
        <ele>116.10</ele>
        <time>2014-04-06T07:58:42Z</time>
      </trkpt>
      <trkpt lat="41.605793400" lon="2.540248400">
        <ele>116.30</ele>
        <time>2014-04-06T07:58:43Z</time>
      </trkpt>
      <trkpt lat="41.605795080" lon="2.540246730">
        <ele>116.20</ele>
        <time>2014-04-06T07:58:44Z</time>
      </trkpt>
      <trkpt lat="41.605795080" lon="2.540246730">
        <ele>116.10</ele>
        <time>2014-04-06T07:58:45Z</time>
      </trkpt>
      <trkpt lat="41.605795080" lon="2.540245050">
        <ele>116.20</ele>
        <time>2014-04-06T07:58:46Z</time>
      </trkpt>
      <trkpt lat="41.605795080" lon="2.540243370">
        <ele>116.30</ele>
        <time>2014-04-06T07:58:47Z</time>
      </trkpt>
      <trkpt lat="41.605795080" lon="2.540241700">
        <ele>116.30</ele>
        <time>2014-04-06T07:58:48Z</time>
      </trkpt>
      <trkpt lat="41.605795080" lon="2.540240020">
        <ele>116.20</ele>
        <time>2014-04-06T07:58:49Z</time>
      </trkpt>
      <trkpt lat="41.605795080" lon="2.540238350">
        <ele>116.20</ele>
        <time>2014-04-06T07:58:50Z</time>
      </trkpt>
      <trkpt lat="41.605795080" lon="2.540238350">
        <ele>116.10</ele>
        <time>2014-04-06T07:58:51Z</time>
      </trkpt>
      <trkpt lat="41.605795080" lon="2.540236670">
        <ele>116.00</ele>
        <time>2014-04-06T07:58:52Z</time>
      </trkpt>
      <trkpt lat="41.605795080" lon="2.540235160">
        <ele>116.00</ele>
        <time>2014-04-06T07:58:53Z</time>
      </trkpt>
      <trkpt lat="41.605795080" lon="2.540233480">
        <ele>116.00</ele>
        <time>2014-04-06T07:58:54Z</time>
      </trkpt>
      <trkpt lat="41.605795080" lon="2.540231810">
        <ele>116.10</ele>
        <time>2014-04-06T07:58:55Z</time>
      </trkpt>
      <trkpt lat="41.605793400" lon="2.540230130">
        <ele>116.10</ele>
        <time>2014-04-06T07:58:56Z</time>
      </trkpt>
      <trkpt lat="41.605793400" lon="2.540230130">
        <ele>116.00</ele>
        <time>2014-04-06T07:58:57Z</time>
      </trkpt>
      <trkpt lat="41.605793400" lon="2.540228450">
        <ele>116.20</ele>
        <time>2014-04-06T07:58:58Z</time>
      </trkpt>
      <trkpt lat="41.605793400" lon="2.540226780">
        <ele>116.40</ele>
        <time>2014-04-06T07:58:59Z</time>
      </trkpt>
      <trkpt lat="41.605793400" lon="2.540226780">
        <ele>116.50</ele>
        <time>2014-04-06T07:59:00Z</time>
      </trkpt>
      <trkpt lat="41.605793400" lon="2.540225100">
        <ele>116.40</ele>
        <time>2014-04-06T07:59:01Z</time>
      </trkpt>
      <trkpt lat="41.605793400" lon="2.540225100">
        <ele>116.40</ele>
        <time>2014-04-06T07:59:02Z</time>
      </trkpt>
      <trkpt lat="41.605793400" lon="2.540223430">
        <ele>116.40</ele>
        <time>2014-04-06T07:59:03Z</time>
      </trkpt>
      <trkpt lat="41.605790050" lon="2.540213370">
        <ele>116.00</ele>
        <time>2014-04-06T07:59:06Z</time>
      </trkpt>
      <trkpt lat="41.605790050" lon="2.540211690">
        <ele>116.40</ele>
        <time>2014-04-06T07:59:08Z</time>
      </trkpt>
      <trkpt lat="41.605790050" lon="2.540210010">
        <ele>116.10</ele>
        <time>2014-04-06T07:59:09Z</time>
      </trkpt>
      <trkpt lat="41.605788370" lon="2.540208340">
        <ele>115.90</ele>
        <time>2014-04-06T07:59:10Z</time>
      </trkpt>
      <trkpt lat="41.605788370" lon="2.540206660">
        <ele>115.70</ele>
        <time>2014-04-06T07:59:11Z</time>
      </trkpt>
      <trkpt lat="41.605786690" lon="2.540205150">
        <ele>115.60</ele>
        <time>2014-04-06T07:59:12Z</time>
      </trkpt>
      <trkpt lat="41.605786690" lon="2.540203480">
        <ele>115.80</ele>
        <time>2014-04-06T07:59:13Z</time>
      </trkpt>
      <trkpt lat="41.605786690" lon="2.540201800">
        <ele>116.10</ele>
        <time>2014-04-06T07:59:14Z</time>
      </trkpt>
      <trkpt lat="41.605785020" lon="2.540200120">
        <ele>116.50</ele>
        <time>2014-04-06T07:59:15Z</time>
      </trkpt>
      <trkpt lat="41.605785020" lon="2.540196770">
        <ele>116.80</ele>
        <time>2014-04-06T07:59:16Z</time>
      </trkpt>
      <trkpt lat="41.605783340" lon="2.540195100">
        <ele>116.50</ele>
        <time>2014-04-06T07:59:17Z</time>
      </trkpt>
      <trkpt lat="41.605781670" lon="2.540191740">
        <ele>116.40</ele>
        <time>2014-04-06T07:59:18Z</time>
      </trkpt>
      <trkpt lat="41.605781670" lon="2.540190070">
        <ele>116.20</ele>
        <time>2014-04-06T07:59:19Z</time>
      </trkpt>
      <trkpt lat="41.605780160" lon="2.540186710">
        <ele>116.20</ele>
        <time>2014-04-06T07:59:20Z</time>
      </trkpt>
      <trkpt lat="41.605780160" lon="2.540185040">
        <ele>116.20</ele>
        <time>2014-04-06T07:59:21Z</time>
      </trkpt>
      <trkpt lat="41.605778480" lon="2.540183360">
        <ele>116.20</ele>
        <time>2014-04-06T07:59:22Z</time>
      </trkpt>
      <trkpt lat="41.605778480" lon="2.540181680">
        <ele>116.20</ele>
        <time>2014-04-06T07:59:23Z</time>
      </trkpt>
      <trkpt lat="41.605778480" lon="2.540181680">
        <ele>116.10</ele>
        <time>2014-04-06T07:59:24Z</time>
      </trkpt>
      <trkpt lat="41.605778480" lon="2.540185040">
        <ele>116.00</ele>
        <time>2014-04-06T07:59:25Z</time>
      </trkpt>
      <trkpt lat="41.605778480" lon="2.540186710">
        <ele>115.90</ele>
        <time>2014-04-06T07:59:26Z</time>
      </trkpt>
      <trkpt lat="41.605780160" lon="2.540188390">
        <ele>116.00</ele>
        <time>2014-04-06T07:59:27Z</time>
      </trkpt>
      <trkpt lat="41.605780160" lon="2.540190070">
        <ele>116.10</ele>
        <time>2014-04-06T07:59:28Z</time>
      </trkpt>
      <trkpt lat="41.605781670" lon="2.540193420">
        <ele>115.80</ele>
        <time>2014-04-06T07:59:29Z</time>
      </trkpt>
      <trkpt lat="41.605781670" lon="2.540195100">
        <ele>115.60</ele>
        <time>2014-04-06T07:59:30Z</time>
      </trkpt>
      <trkpt lat="41.605781670" lon="2.540196770">
        <ele>115.50</ele>
        <time>2014-04-06T07:59:31Z</time>
      </trkpt>
      <trkpt lat="41.605781670" lon="2.540198450">
        <ele>116.00</ele>
        <time>2014-04-06T07:59:32Z</time>
      </trkpt>
      <trkpt lat="41.605783340" lon="2.540200120">
        <ele>116.40</ele>
        <time>2014-04-06T07:59:33Z</time>
      </trkpt>
      <trkpt lat="41.605783340" lon="2.540201800">
        <ele>116.30</ele>
        <time>2014-04-06T07:59:34Z</time>
      </trkpt>
      <trkpt lat="41.605783340" lon="2.540203480">
        <ele>116.20</ele>
        <time>2014-04-06T07:59:35Z</time>
      </trkpt>
      <trkpt lat="41.605785020" lon="2.540205150">
        <ele>116.30</ele>
        <time>2014-04-06T07:59:36Z</time>
      </trkpt>
      <trkpt lat="41.605785020" lon="2.540206660">
        <ele>116.40</ele>
        <time>2014-04-06T07:59:37Z</time>
      </trkpt>
      <trkpt lat="41.605785020" lon="2.540206660">
        <ele>116.50</ele>
        <time>2014-04-06T07:59:38Z</time>
      </trkpt>
      <trkpt lat="41.605786690" lon="2.540208340">
        <ele>116.50</ele>
        <time>2014-04-06T07:59:39Z</time>
      </trkpt>
      <trkpt lat="41.605786690" lon="2.540210010">
        <ele>116.50</ele>
        <time>2014-04-06T07:59:40Z</time>
      </trkpt>
      <trkpt lat="41.605786690" lon="2.540211690">
        <ele>116.00</ele>
        <time>2014-04-06T07:59:41Z</time>
      </trkpt>
      <trkpt lat="41.605786690" lon="2.540211690">
        <ele>115.60</ele>
        <time>2014-04-06T07:59:42Z</time>
      </trkpt>
      <trkpt lat="41.605785020" lon="2.540215040">
        <ele>115.80</ele>
        <time>2014-04-06T07:59:43Z</time>
      </trkpt>
      <trkpt lat="41.605785020" lon="2.540216720">
        <ele>116.00</ele>
        <time>2014-04-06T07:59:44Z</time>
      </trkpt>
      <trkpt lat="41.605785020" lon="2.540218400">
        <ele>116.10</ele>
        <time>2014-04-06T07:59:45Z</time>
      </trkpt>
      <trkpt lat="41.605783340" lon="2.540220070">
        <ele>116.00</ele>
        <time>2014-04-06T07:59:46Z</time>
      </trkpt>
      <trkpt lat="41.605783340" lon="2.540221750">
        <ele>116.00</ele>
        <time>2014-04-06T07:59:47Z</time>
      </trkpt>
      <trkpt lat="41.605783340" lon="2.540223430">
        <ele>115.80</ele>
        <time>2014-04-06T07:59:48Z</time>
      </trkpt>
      <trkpt lat="41.605783340" lon="2.540225100">
        <ele>115.60</ele>
        <time>2014-04-06T07:59:49Z</time>
      </trkpt>
      <trkpt lat="41.605783340" lon="2.540226780">
        <ele>115.50</ele>
        <time>2014-04-06T07:59:50Z</time>
      </trkpt>
      <trkpt lat="41.605781670" lon="2.540228450">
        <ele>115.60</ele>
        <time>2014-04-06T07:59:51Z</time>
      </trkpt>
      <trkpt lat="41.605781670" lon="2.540230130">
        <ele>115.60</ele>
        <time>2014-04-06T07:59:52Z</time>
      </trkpt>
      <trkpt lat="41.605781670" lon="2.540231810">
        <ele>115.50</ele>
        <time>2014-04-06T07:59:53Z</time>
      </trkpt>
      <trkpt lat="41.605781670" lon="2.540233480">
        <ele>115.40</ele>
        <time>2014-04-06T07:59:54Z</time>
      </trkpt>
      <trkpt lat="41.605781670" lon="2.540235160">
        <ele>115.30</ele>
        <time>2014-04-06T07:59:55Z</time>
      </trkpt>
      <trkpt lat="41.605781670" lon="2.540235160">
        <ele>115.30</ele>
        <time>2014-04-06T07:59:56Z</time>
      </trkpt>
      <trkpt lat="41.605781670" lon="2.540236670">
        <ele>115.30</ele>
        <time>2014-04-06T07:59:57Z</time>
      </trkpt>
      <trkpt lat="41.605781670" lon="2.540238350">
        <ele>115.60</ele>
        <time>2014-04-06T07:59:58Z</time>
      </trkpt>
      <trkpt lat="41.605780160" lon="2.540240020">
        <ele>115.90</ele>
        <time>2014-04-06T07:59:59Z</time>
      </trkpt>
      <trkpt lat="41.605778480" lon="2.540241700">
        <ele>116.10</ele>
        <time>2014-04-06T08:00:00Z</time>
      </trkpt>
      <trkpt lat="41.605778480" lon="2.540243370">
        <ele>116.30</ele>
        <time>2014-04-06T08:00:01Z</time>
      </trkpt>
      <trkpt lat="41.605776800" lon="2.540243370">
        <ele>116.20</ele>
        <time>2014-04-06T08:00:02Z</time>
      </trkpt>
      <trkpt lat="41.605775130" lon="2.540243370">
        <ele>116.20</ele>
        <time>2014-04-06T08:00:03Z</time>
      </trkpt>
      <trkpt lat="41.605775130" lon="2.540243370">
        <ele>116.10</ele>
        <time>2014-04-06T08:00:04Z</time>
      </trkpt>
      <trkpt lat="41.605773450" lon="2.540245050">
        <ele>115.80</ele>
        <time>2014-04-06T08:00:05Z</time>
      </trkpt>
      <trkpt lat="41.605771780" lon="2.540245050">
        <ele>115.60</ele>
        <time>2014-04-06T08:00:06Z</time>
      </trkpt>
      <trkpt lat="41.605770100" lon="2.540245050">
        <ele>115.30</ele>
        <time>2014-04-06T08:00:07Z</time>
      </trkpt>
      <trkpt lat="41.605768420" lon="2.540245050">
        <ele>115.00</ele>
        <time>2014-04-06T08:00:08Z</time>
      </trkpt>
      <trkpt lat="41.605768420" lon="2.540243370">
        <ele>114.80</ele>
        <time>2014-04-06T08:00:09Z</time>
      </trkpt>
      <trkpt lat="41.605766750" lon="2.540243370">
        <ele>114.90</ele>
        <time>2014-04-06T08:00:10Z</time>
      </trkpt>
      <trkpt lat="41.605766750" lon="2.540241700">
        <ele>114.90</ele>
        <time>2014-04-06T08:00:11Z</time>
      </trkpt>
      <trkpt lat="41.605765070" lon="2.540240020">
        <ele>115.20</ele>
        <time>2014-04-06T08:00:12Z</time>
      </trkpt>
      <trkpt lat="41.605765070" lon="2.540238350">
        <ele>115.40</ele>
        <time>2014-04-06T08:00:13Z</time>
      </trkpt>
      <trkpt lat="41.605765070" lon="2.540238350">
        <ele>115.10</ele>
        <time>2014-04-06T08:00:14Z</time>
      </trkpt>
      <trkpt lat="41.605765070" lon="2.540236670">
        <ele>115.00</ele>
        <time>2014-04-06T08:00:15Z</time>
      </trkpt>
      <trkpt lat="41.605765070" lon="2.540235160">
        <ele>114.80</ele>
        <time>2014-04-06T08:00:16Z</time>
      </trkpt>
      <trkpt lat="41.605765070" lon="2.540233480">
        <ele>114.90</ele>
        <time>2014-04-06T08:00:17Z</time>
      </trkpt>
      <trkpt lat="41.605765070" lon="2.540233480">
        <ele>114.90</ele>
        <time>2014-04-06T08:00:18Z</time>
      </trkpt>
      <trkpt lat="41.605765070" lon="2.540231810">
        <ele>115.40</ele>
        <time>2014-04-06T08:00:19Z</time>
      </trkpt>
      <trkpt lat="41.605765070" lon="2.540231810">
        <ele>115.80</ele>
        <time>2014-04-06T08:00:20Z</time>
      </trkpt>
      <trkpt lat="41.605765070" lon="2.540230130">
        <ele>116.00</ele>
        <time>2014-04-06T08:00:21Z</time>
      </trkpt>
      <trkpt lat="41.605765070" lon="2.540230130">
        <ele>116.20</ele>
        <time>2014-04-06T08:00:22Z</time>
      </trkpt>
      <trkpt lat="41.605765070" lon="2.540228450">
        <ele>116.30</ele>
        <time>2014-04-06T08:00:23Z</time>
      </trkpt>
      <trkpt lat="41.605765070" lon="2.540228450">
        <ele>116.00</ele>
        <time>2014-04-06T08:00:24Z</time>
      </trkpt>
      <trkpt lat="41.605766750" lon="2.540226780">
        <ele>115.80</ele>
        <time>2014-04-06T08:00:25Z</time>
      </trkpt>
      <trkpt lat="41.605766750" lon="2.540226780">
        <ele>115.80</ele>
        <time>2014-04-06T08:00:26Z</time>
      </trkpt>
      <trkpt lat="41.605766750" lon="2.540226780">
        <ele>115.80</ele>
        <time>2014-04-06T08:00:27Z</time>
      </trkpt>
      <trkpt lat="41.605766750" lon="2.540225100">
        <ele>115.80</ele>
        <time>2014-04-06T08:00:28Z</time>
      </trkpt>
      <trkpt lat="41.605765070" lon="2.540225100">
        <ele>116.00</ele>
        <time>2014-04-06T08:00:29Z</time>
      </trkpt>
      <trkpt lat="41.605765070" lon="2.540223430">
        <ele>116.20</ele>
        <time>2014-04-06T08:00:30Z</time>
      </trkpt>
      <trkpt lat="41.605766750" lon="2.540221750">
        <ele>116.10</ele>
        <time>2014-04-06T08:00:31Z</time>
      </trkpt>
      <trkpt lat="41.605766750" lon="2.540221750">
        <ele>116.10</ele>
        <time>2014-04-06T08:00:32Z</time>
      </trkpt>
      <trkpt lat="41.605766750" lon="2.540220070">
        <ele>115.70</ele>
        <time>2014-04-06T08:00:33Z</time>
      </trkpt>
      <trkpt lat="41.605766750" lon="2.540220070">
        <ele>115.40</ele>
        <time>2014-04-06T08:00:34Z</time>
      </trkpt>
      <trkpt lat="41.605766750" lon="2.540218400">
        <ele>115.10</ele>
        <time>2014-04-06T08:00:35Z</time>
      </trkpt>
      <trkpt lat="41.605766750" lon="2.540216720">
        <ele>115.20</ele>
        <time>2014-04-06T08:00:36Z</time>
      </trkpt>
      <trkpt lat="41.605766750" lon="2.540216720">
        <ele>115.30</ele>
        <time>2014-04-06T08:00:37Z</time>
      </trkpt>
      <trkpt lat="41.605766750" lon="2.540215040">
        <ele>115.60</ele>
        <time>2014-04-06T08:00:38Z</time>
      </trkpt>
      <trkpt lat="41.605766750" lon="2.540215040">
        <ele>115.90</ele>
        <time>2014-04-06T08:00:39Z</time>
      </trkpt>
      <trkpt lat="41.605766750" lon="2.540213370">
        <ele>115.70</ele>
        <time>2014-04-06T08:00:40Z</time>
      </trkpt>
      <trkpt lat="41.605766750" lon="2.540213370">
        <ele>115.60</ele>
        <time>2014-04-06T08:00:41Z</time>
      </trkpt>
      <trkpt lat="41.605766750" lon="2.540211690">
        <ele>115.50</ele>
        <time>2014-04-06T08:00:42Z</time>
      </trkpt>
      <trkpt lat="41.605766750" lon="2.540210010">
        <ele>115.60</ele>
        <time>2014-04-06T08:00:43Z</time>
      </trkpt>
      <trkpt lat="41.605766750" lon="2.540211690">
        <ele>115.70</ele>
        <time>2014-04-06T08:00:44Z</time>
      </trkpt>
      <trkpt lat="41.605766750" lon="2.540211690">
        <ele>116.00</ele>
        <time>2014-04-06T08:00:45Z</time>
      </trkpt>
      <trkpt lat="41.605768420" lon="2.540211690">
        <ele>116.30</ele>
        <time>2014-04-06T08:00:46Z</time>
      </trkpt>
      <trkpt lat="41.605768420" lon="2.540211690">
        <ele>116.30</ele>
        <time>2014-04-06T08:00:47Z</time>
      </trkpt>
      <trkpt lat="41.605768420" lon="2.540213370">
        <ele>116.30</ele>
        <time>2014-04-06T08:00:48Z</time>
      </trkpt>
      <trkpt lat="41.605770100" lon="2.540213370">
        <ele>116.30</ele>
        <time>2014-04-06T08:00:49Z</time>
      </trkpt>
      <trkpt lat="41.605770100" lon="2.540213370">
        <ele>116.30</ele>
        <time>2014-04-06T08:00:50Z</time>
      </trkpt>
      <trkpt lat="41.605770100" lon="2.540213370">
        <ele>116.40</ele>
        <time>2014-04-06T08:00:51Z</time>
      </trkpt>
      <trkpt lat="41.605770100" lon="2.540211690">
        <ele>115.80</ele>
        <time>2014-04-06T08:00:52Z</time>
      </trkpt>
      <trkpt lat="41.605771780" lon="2.540213370">
        <ele>115.40</ele>
        <time>2014-04-06T08:00:53Z</time>
      </trkpt>
      <trkpt lat="41.605773450" lon="2.540216720">
        <ele>115.10</ele>
        <time>2014-04-06T08:00:54Z</time>
      </trkpt>
      <trkpt lat="41.605773450" lon="2.540221750">
        <ele>115.20</ele>
        <time>2014-04-06T08:00:55Z</time>
      </trkpt>
      <trkpt lat="41.605773450" lon="2.540225100">
        <ele>115.40</ele>
        <time>2014-04-06T08:00:56Z</time>
      </trkpt>
      <trkpt lat="41.605775130" lon="2.540230130">
        <ele>115.40</ele>
        <time>2014-04-06T08:00:57Z</time>
      </trkpt>
      <trkpt lat="41.605775130" lon="2.540235160">
        <ele>115.50</ele>
        <time>2014-04-06T08:00:58Z</time>
      </trkpt>
      <trkpt lat="41.605775130" lon="2.540238350">
        <ele>115.70</ele>
        <time>2014-04-06T08:00:59Z</time>
      </trkpt>
      <trkpt lat="41.605776800" lon="2.540243370">
        <ele>115.90</ele>
        <time>2014-04-06T08:01:00Z</time>
      </trkpt>
      <trkpt lat="41.605776800" lon="2.540246730">
        <ele>116.00</ele>
        <time>2014-04-06T08:01:01Z</time>
      </trkpt>
      <trkpt lat="41.605776800" lon="2.540248400">
        <ele>115.70</ele>
        <time>2014-04-06T08:01:02Z</time>
      </trkpt>
      <trkpt lat="41.605778480" lon="2.540251760">
        <ele>115.40</ele>
        <time>2014-04-06T08:01:03Z</time>
      </trkpt>
      <trkpt lat="41.605778480" lon="2.540255110">
        <ele>115.20</ele>
        <time>2014-04-06T08:01:04Z</time>
      </trkpt>
      <trkpt lat="41.605778480" lon="2.540258460">
        <ele>115.10</ele>
        <time>2014-04-06T08:01:05Z</time>
      </trkpt>
      <trkpt lat="41.605778480" lon="2.540261810">
        <ele>115.20</ele>
        <time>2014-04-06T08:01:06Z</time>
      </trkpt>
      <trkpt lat="41.605780160" lon="2.540263490">
        <ele>115.30</ele>
        <time>2014-04-06T08:01:07Z</time>
      </trkpt>
      <trkpt lat="41.605780160" lon="2.540265000">
        <ele>115.40</ele>
        <time>2014-04-06T08:01:08Z</time>
      </trkpt>
      <trkpt lat="41.605780160" lon="2.540265000">
        <ele>115.80</ele>
        <time>2014-04-06T08:01:09Z</time>
      </trkpt>
      <trkpt lat="41.605780160" lon="2.540268350">
        <ele>116.20</ele>
        <time>2014-04-06T08:01:10Z</time>
      </trkpt>
      <trkpt lat="41.605780160" lon="2.540270030">
        <ele>116.10</ele>
        <time>2014-04-06T08:01:11Z</time>
      </trkpt>
      <trkpt lat="41.605780160" lon="2.540271710">
        <ele>116.10</ele>
        <time>2014-04-06T08:01:12Z</time>
      </trkpt>
      <trkpt lat="41.605780160" lon="2.540275060">
        <ele>116.00</ele>
        <time>2014-04-06T08:01:13Z</time>
      </trkpt>
      <trkpt lat="41.605780160" lon="2.540276730">
        <ele>115.80</ele>
        <time>2014-04-06T08:01:14Z</time>
      </trkpt>
      <trkpt lat="41.605780160" lon="2.540280090">
        <ele>115.70</ele>
        <time>2014-04-06T08:01:15Z</time>
      </trkpt>
      <trkpt lat="41.605780160" lon="2.540281760">
        <ele>115.40</ele>
        <time>2014-04-06T08:01:16Z</time>
      </trkpt>
      <trkpt lat="41.605781670" lon="2.540285120">
        <ele>115.10</ele>
        <time>2014-04-06T08:01:17Z</time>
      </trkpt>
      <trkpt lat="41.605781670" lon="2.540286790">
        <ele>115.10</ele>
        <time>2014-04-06T08:01:18Z</time>
      </trkpt>
      <trkpt lat="41.605781670" lon="2.540288470">
        <ele>115.10</ele>
        <time>2014-04-06T08:01:19Z</time>
      </trkpt>
      <trkpt lat="41.605781670" lon="2.540290150">
        <ele>115.10</ele>
        <time>2014-04-06T08:01:20Z</time>
      </trkpt>
      <trkpt lat="41.605781670" lon="2.540291820">
        <ele>115.50</ele>
        <time>2014-04-06T08:01:21Z</time>
      </trkpt>
      <trkpt lat="41.605780160" lon="2.540291820">
        <ele>115.80</ele>
        <time>2014-04-06T08:01:22Z</time>
      </trkpt>
      <trkpt lat="41.605780160" lon="2.540291820">
        <ele>116.10</ele>
        <time>2014-04-06T08:01:23Z</time>
      </trkpt>
      <trkpt lat="41.605780160" lon="2.540293330">
        <ele>116.30</ele>
        <time>2014-04-06T08:01:24Z</time>
      </trkpt>
      <trkpt lat="41.605780160" lon="2.540293330">
        <ele>115.90</ele>
        <time>2014-04-06T08:01:25Z</time>
      </trkpt>
      <trkpt lat="41.605780160" lon="2.540293330">
        <ele>115.60</ele>
        <time>2014-04-06T08:01:26Z</time>
      </trkpt>
      <trkpt lat="41.605780160" lon="2.540293330">
        <ele>115.40</ele>
        <time>2014-04-06T08:01:27Z</time>
      </trkpt>
      <trkpt lat="41.605780160" lon="2.540291820">
        <ele>115.60</ele>
        <time>2014-04-06T08:01:28Z</time>
      </trkpt>
      <trkpt lat="41.605778480" lon="2.540291820">
        <ele>115.70</ele>
        <time>2014-04-06T08:01:29Z</time>
      </trkpt>
      <trkpt lat="41.605778480" lon="2.540291820">
        <ele>115.80</ele>
        <time>2014-04-06T08:01:30Z</time>
      </trkpt>
      <trkpt lat="41.605778480" lon="2.540291820">
        <ele>115.80</ele>
        <time>2014-04-06T08:01:31Z</time>
      </trkpt>
      <trkpt lat="41.605778480" lon="2.540291820">
        <ele>115.80</ele>
        <time>2014-04-06T08:01:32Z</time>
      </trkpt>
      <trkpt lat="41.605778480" lon="2.540290150">
        <ele>115.90</ele>
        <time>2014-04-06T08:01:33Z</time>
      </trkpt>
      <trkpt lat="41.605778480" lon="2.540290150">
        <ele>116.00</ele>
        <time>2014-04-06T08:01:34Z</time>
      </trkpt>
      <trkpt lat="41.605776800" lon="2.540290150">
        <ele>116.00</ele>
        <time>2014-04-06T08:01:35Z</time>
      </trkpt>
      <trkpt lat="41.605776800" lon="2.540290150">
        <ele>116.00</ele>
        <time>2014-04-06T08:01:36Z</time>
      </trkpt>
      <trkpt lat="41.605776800" lon="2.540288470">
        <ele>116.20</ele>
        <time>2014-04-06T08:01:37Z</time>
      </trkpt>
      <trkpt lat="41.605776800" lon="2.540288470">
        <ele>116.20</ele>
        <time>2014-04-06T08:01:38Z</time>
      </trkpt>
      <trkpt lat="41.605776800" lon="2.540290150">
        <ele>116.30</ele>
        <time>2014-04-06T08:01:39Z</time>
      </trkpt>
      <trkpt lat="41.605776800" lon="2.540290150">
        <ele>116.30</ele>
        <time>2014-04-06T08:01:40Z</time>
      </trkpt>
      <trkpt lat="41.605776800" lon="2.540291820">
        <ele>116.30</ele>
        <time>2014-04-06T08:01:41Z</time>
      </trkpt>
      <trkpt lat="41.605776800" lon="2.540291820">
        <ele>116.20</ele>
        <time>2014-04-06T08:01:42Z</time>
      </trkpt>
      <trkpt lat="41.605776800" lon="2.540291820">
        <ele>116.10</ele>
        <time>2014-04-06T08:01:43Z</time>
      </trkpt>
      <trkpt lat="41.605778480" lon="2.540291820">
        <ele>116.00</ele>
        <time>2014-04-06T08:01:44Z</time>
      </trkpt>
      <trkpt lat="41.605778480" lon="2.540291820">
        <ele>115.90</ele>
        <time>2014-04-06T08:01:45Z</time>
      </trkpt>
      <trkpt lat="41.605778480" lon="2.540290150">
        <ele>115.90</ele>
        <time>2014-04-06T08:01:46Z</time>
      </trkpt>
      <trkpt lat="41.605778480" lon="2.540290150">
        <ele>115.90</ele>
        <time>2014-04-06T08:01:47Z</time>
      </trkpt>
      <trkpt lat="41.605778480" lon="2.540290150">
        <ele>115.90</ele>
        <time>2014-04-06T08:01:48Z</time>
      </trkpt>
      <trkpt lat="41.605778480" lon="2.540290150">
        <ele>116.00</ele>
        <time>2014-04-06T08:01:49Z</time>
      </trkpt>
      <trkpt lat="41.605778480" lon="2.540290150">
        <ele>116.00</ele>
        <time>2014-04-06T08:01:50Z</time>
      </trkpt>
      <trkpt lat="41.605778480" lon="2.540288470">
        <ele>116.00</ele>
        <time>2014-04-06T08:01:51Z</time>
      </trkpt>
      <trkpt lat="41.605778480" lon="2.540288470">
        <ele>115.80</ele>
        <time>2014-04-06T08:01:52Z</time>
      </trkpt>
      <trkpt lat="41.605778480" lon="2.540286790">
        <ele>115.70</ele>
        <time>2014-04-06T08:01:53Z</time>
      </trkpt>
      <trkpt lat="41.605778480" lon="2.540286790">
        <ele>115.70</ele>
        <time>2014-04-06T08:01:54Z</time>
      </trkpt>
      <trkpt lat="41.605778480" lon="2.540288470">
        <ele>115.80</ele>
        <time>2014-04-06T08:01:55Z</time>
      </trkpt>
      <trkpt lat="41.605778480" lon="2.540286790">
        <ele>115.40</ele>
        <time>2014-04-06T08:01:56Z</time>
      </trkpt>
      <trkpt lat="41.605778480" lon="2.540286790">
        <ele>115.10</ele>
        <time>2014-04-06T08:01:57Z</time>
      </trkpt>
      <trkpt lat="41.605778480" lon="2.540285120">
        <ele>114.90</ele>
        <time>2014-04-06T08:01:58Z</time>
      </trkpt>
      <trkpt lat="41.605778480" lon="2.540283440">
        <ele>115.00</ele>
        <time>2014-04-06T08:01:59Z</time>
      </trkpt>
      <trkpt lat="41.605778480" lon="2.540281760">
        <ele>115.10</ele>
        <time>2014-04-06T08:02:00Z</time>
      </trkpt>
      <trkpt lat="41.605776800" lon="2.540280090">
        <ele>115.10</ele>
        <time>2014-04-06T08:02:01Z</time>
      </trkpt>
      <trkpt lat="41.605776800" lon="2.540280090">
        <ele>115.20</ele>
        <time>2014-04-06T08:02:02Z</time>
      </trkpt>
      <trkpt lat="41.605775130" lon="2.540280090">
        <ele>115.50</ele>
        <time>2014-04-06T08:02:03Z</time>
      </trkpt>
      <trkpt lat="41.605773450" lon="2.540280090">
        <ele>115.70</ele>
        <time>2014-04-06T08:02:04Z</time>
      </trkpt>
      <trkpt lat="41.605773450" lon="2.540281760">
        <ele>115.90</ele>
        <time>2014-04-06T08:02:05Z</time>
      </trkpt>
      <trkpt lat="41.605773450" lon="2.540285120">
        <ele>116.00</ele>
        <time>2014-04-06T08:02:06Z</time>
      </trkpt>
      <trkpt lat="41.605773450" lon="2.540286790">
        <ele>116.10</ele>
        <time>2014-04-06T08:02:07Z</time>
      </trkpt>
      <trkpt lat="41.605775130" lon="2.540288470">
        <ele>116.10</ele>
        <time>2014-04-06T08:02:08Z</time>
      </trkpt>
      <trkpt lat="41.605775130" lon="2.540290150">
        <ele>116.00</ele>
        <time>2014-04-06T08:02:09Z</time>
      </trkpt>
      <trkpt lat="41.605775130" lon="2.540291820">
        <ele>116.00</ele>
        <time>2014-04-06T08:02:10Z</time>
      </trkpt>
      <trkpt lat="41.605775130" lon="2.540293330">
        <ele>116.00</ele>
        <time>2014-04-06T08:02:11Z</time>
      </trkpt>
      <trkpt lat="41.605775130" lon="2.540295010">
        <ele>115.90</ele>
        <time>2014-04-06T08:02:12Z</time>
      </trkpt>
      <trkpt lat="41.605773450" lon="2.540296680">
        <ele>115.80</ele>
        <time>2014-04-06T08:02:13Z</time>
      </trkpt>
      <trkpt lat="41.605773450" lon="2.540298360">
        <ele>115.80</ele>
        <time>2014-04-06T08:02:14Z</time>
      </trkpt>
      <trkpt lat="41.605773450" lon="2.540300040">
        <ele>115.60</ele>
        <time>2014-04-06T08:02:15Z</time>
      </trkpt>
      <trkpt lat="41.605775130" lon="2.540301710">
        <ele>115.50</ele>
        <time>2014-04-06T08:02:16Z</time>
      </trkpt>
      <trkpt lat="41.605775130" lon="2.540303390">
        <ele>115.50</ele>
        <time>2014-04-06T08:02:17Z</time>
      </trkpt>
      <trkpt lat="41.605775130" lon="2.540305070">
        <ele>115.70</ele>
        <time>2014-04-06T08:02:18Z</time>
      </trkpt>
      <trkpt lat="41.605775130" lon="2.540306740">
        <ele>115.80</ele>
        <time>2014-04-06T08:02:19Z</time>
      </trkpt>
      <trkpt lat="41.605775130" lon="2.540306740">
        <ele>115.70</ele>
        <time>2014-04-06T08:02:20Z</time>
      </trkpt>
      <trkpt lat="41.605775130" lon="2.540305070">
        <ele>115.70</ele>
        <time>2014-04-06T08:02:21Z</time>
      </trkpt>
      <trkpt lat="41.605775130" lon="2.540305070">
        <ele>115.40</ele>
        <time>2014-04-06T08:02:22Z</time>
      </trkpt>
      <trkpt lat="41.605776800" lon="2.540303390">
        <ele>115.20</ele>
        <time>2014-04-06T08:02:23Z</time>
      </trkpt>
      <trkpt lat="41.605776800" lon="2.540303390">
        <ele>115.10</ele>
        <time>2014-04-06T08:02:24Z</time>
      </trkpt>
      <trkpt lat="41.605776800" lon="2.540303390">
        <ele>114.60</ele>
        <time>2014-04-06T08:02:25Z</time>
      </trkpt>
      <trkpt lat="41.605775130" lon="2.540301710">
        <ele>114.30</ele>
        <time>2014-04-06T08:02:26Z</time>
      </trkpt>
      <trkpt lat="41.605775130" lon="2.540301710">
        <ele>114.60</ele>
        <time>2014-04-06T08:02:27Z</time>
      </trkpt>
      <trkpt lat="41.605776800" lon="2.540301710">
        <ele>114.70</ele>
        <time>2014-04-06T08:02:28Z</time>
      </trkpt>
      <trkpt lat="41.605776800" lon="2.540300040">
        <ele>114.80</ele>
        <time>2014-04-06T08:02:29Z</time>
      </trkpt>
      <trkpt lat="41.605776800" lon="2.540300040">
        <ele>115.00</ele>
        <time>2014-04-06T08:02:30Z</time>
      </trkpt>
      <trkpt lat="41.605776800" lon="2.540298360">
        <ele>115.20</ele>
        <time>2014-04-06T08:02:31Z</time>
      </trkpt>
      <trkpt lat="41.605778480" lon="2.540298360">
        <ele>115.30</ele>
        <time>2014-04-06T08:02:32Z</time>
      </trkpt>
      <trkpt lat="41.605778480" lon="2.540296680">
        <ele>115.30</ele>
        <time>2014-04-06T08:02:33Z</time>
      </trkpt>
      <trkpt lat="41.605780160" lon="2.540295010">
        <ele>115.50</ele>
        <time>2014-04-06T08:02:34Z</time>
      </trkpt>
      <trkpt lat="41.605780160" lon="2.540295010">
        <ele>115.60</ele>
        <time>2014-04-06T08:02:35Z</time>
      </trkpt>
      <trkpt lat="41.605781670" lon="2.540291820">
        <ele>115.70</ele>
        <time>2014-04-06T08:02:36Z</time>
      </trkpt>
      <trkpt lat="41.605783340" lon="2.540291820">
        <ele>115.40</ele>
        <time>2014-04-06T08:02:37Z</time>
      </trkpt>
      <trkpt lat="41.605783340" lon="2.540290150">
        <ele>115.20</ele>
        <time>2014-04-06T08:02:38Z</time>
      </trkpt>
      <trkpt lat="41.605785020" lon="2.540288470">
        <ele>115.40</ele>
        <time>2014-04-06T08:02:39Z</time>
      </trkpt>
      <trkpt lat="41.605785020" lon="2.540286790">
        <ele>115.50</ele>
        <time>2014-04-06T08:02:40Z</time>
      </trkpt>
      <trkpt lat="41.605786690" lon="2.540286790">
        <ele>115.50</ele>
        <time>2014-04-06T08:02:41Z</time>
      </trkpt>
      <trkpt lat="41.605786690" lon="2.540285120">
        <ele>115.40</ele>
        <time>2014-04-06T08:02:42Z</time>
      </trkpt>
      <trkpt lat="41.605788370" lon="2.540283440">
        <ele>115.30</ele>
        <time>2014-04-06T08:02:43Z</time>
      </trkpt>
      <trkpt lat="41.605790050" lon="2.540281760">
        <ele>115.20</ele>
        <time>2014-04-06T08:02:44Z</time>
      </trkpt>
      <trkpt lat="41.605791720" lon="2.540278410">
        <ele>115.00</ele>
        <time>2014-04-06T08:02:45Z</time>
      </trkpt>
      <trkpt lat="41.605791720" lon="2.540276730">
        <ele>115.30</ele>
        <time>2014-04-06T08:02:46Z</time>
      </trkpt>
      <trkpt lat="41.605793400" lon="2.540275060">
        <ele>115.50</ele>
        <time>2014-04-06T08:02:47Z</time>
      </trkpt>
      <trkpt lat="41.605795080" lon="2.540273380">
        <ele>115.70</ele>
        <time>2014-04-06T08:02:48Z</time>
      </trkpt>
      <trkpt lat="41.605796750" lon="2.540270030">
        <ele>115.80</ele>
        <time>2014-04-06T08:02:49Z</time>
      </trkpt>
      <trkpt lat="41.605796750" lon="2.540268350">
        <ele>115.90</ele>
        <time>2014-04-06T08:02:50Z</time>
      </trkpt>
      <trkpt lat="41.605798430" lon="2.540266680">
        <ele>115.80</ele>
        <time>2014-04-06T08:02:51Z</time>
      </trkpt>
      <trkpt lat="41.605800110" lon="2.540266680">
        <ele>115.60</ele>
        <time>2014-04-06T08:02:52Z</time>
      </trkpt>
      <trkpt lat="41.605801780" lon="2.540266680">
        <ele>115.80</ele>
        <time>2014-04-06T08:02:53Z</time>
      </trkpt>
      <trkpt lat="41.605801780" lon="2.540266680">
        <ele>115.80</ele>
        <time>2014-04-06T08:02:54Z</time>
      </trkpt>
      <trkpt lat="41.605803460" lon="2.540265000">
        <ele>115.90</ele>
        <time>2014-04-06T08:02:55Z</time>
      </trkpt>
      <trkpt lat="41.605803460" lon="2.540265000">
        <ele>116.10</ele>
        <time>2014-04-06T08:02:56Z</time>
      </trkpt>
      <trkpt lat="41.605805130" lon="2.540265000">
        <ele>116.20</ele>
        <time>2014-04-06T08:02:57Z</time>
      </trkpt>
      <trkpt lat="41.605805130" lon="2.540265000">
        <ele>115.80</ele>
        <time>2014-04-06T08:02:58Z</time>
      </trkpt>
      <trkpt lat="41.605805130" lon="2.540265000">
        <ele>115.60</ele>
        <time>2014-04-06T08:02:59Z</time>
      </trkpt>
      <trkpt lat="41.605805130" lon="2.540265000">
        <ele>115.90</ele>
        <time>2014-04-06T08:03:00Z</time>
      </trkpt>
      <trkpt lat="41.605805130" lon="2.540263490">
        <ele>116.20</ele>
        <time>2014-04-06T08:03:01Z</time>
      </trkpt>
      <trkpt lat="41.605805130" lon="2.540263490">
        <ele>116.30</ele>
        <time>2014-04-06T08:03:02Z</time>
      </trkpt>
      <trkpt lat="41.605806810" lon="2.540263490">
        <ele>116.30</ele>
        <time>2014-04-06T08:03:03Z</time>
      </trkpt>
      <trkpt lat="41.605806810" lon="2.540261810">
        <ele>116.20</ele>
        <time>2014-04-06T08:03:04Z</time>
      </trkpt>
      <trkpt lat="41.605806810" lon="2.540261810">
        <ele>116.20</ele>
        <time>2014-04-06T08:03:05Z</time>
      </trkpt>
      <trkpt lat="41.605808490" lon="2.540258460">
        <ele>116.20</ele>
        <time>2014-04-06T08:03:06Z</time>
      </trkpt>
      <trkpt lat="41.605808490" lon="2.540255110">
        <ele>116.10</ele>
        <time>2014-04-06T08:03:07Z</time>
      </trkpt>
      <trkpt lat="41.605810000" lon="2.540253430">
        <ele>116.00</ele>
        <time>2014-04-06T08:03:08Z</time>
      </trkpt>
      <trkpt lat="41.605811670" lon="2.540250080">
        <ele>115.90</ele>
        <time>2014-04-06T08:03:09Z</time>
      </trkpt>
      <trkpt lat="41.605813350" lon="2.540246730">
        <ele>115.90</ele>
        <time>2014-04-06T08:03:10Z</time>
      </trkpt>
      <trkpt lat="41.605813350" lon="2.540245050">
        <ele>115.80</ele>
        <time>2014-04-06T08:03:11Z</time>
      </trkpt>
      <trkpt lat="41.605815030" lon="2.540241700">
        <ele>115.50</ele>
        <time>2014-04-06T08:03:12Z</time>
      </trkpt>
      <trkpt lat="41.605815030" lon="2.540240020">
        <ele>115.30</ele>
        <time>2014-04-06T08:03:13Z</time>
      </trkpt>
      <trkpt lat="41.605815030" lon="2.540240020">
        <ele>115.10</ele>
        <time>2014-04-06T08:03:14Z</time>
      </trkpt>
      <trkpt lat="41.605815030" lon="2.540238350">
        <ele>115.00</ele>
        <time>2014-04-06T08:03:15Z</time>
      </trkpt>
      <trkpt lat="41.605815030" lon="2.540238350">
        <ele>114.90</ele>
        <time>2014-04-06T08:03:16Z</time>
      </trkpt>
      <trkpt lat="41.605813350" lon="2.540238350">
        <ele>115.00</ele>
        <time>2014-04-06T08:03:17Z</time>
      </trkpt>
      <trkpt lat="41.605815030" lon="2.540236670">
        <ele>115.00</ele>
        <time>2014-04-06T08:03:18Z</time>
      </trkpt>
      <trkpt lat="41.605815030" lon="2.540235160">
        <ele>114.90</ele>
        <time>2014-04-06T08:03:19Z</time>
      </trkpt>
      <trkpt lat="41.605815030" lon="2.540233480">
        <ele>114.80</ele>
        <time>2014-04-06T08:03:20Z</time>
      </trkpt>
      <trkpt lat="41.605816700" lon="2.540231810">
        <ele>114.80</ele>
        <time>2014-04-06T08:03:21Z</time>
      </trkpt>
      <trkpt lat="41.605816700" lon="2.540230130">
        <ele>115.20</ele>
        <time>2014-04-06T08:03:22Z</time>
      </trkpt>
      <trkpt lat="41.605816700" lon="2.540230130">
        <ele>115.60</ele>
        <time>2014-04-06T08:03:23Z</time>
      </trkpt>
      <trkpt lat="41.605816700" lon="2.540230130">
        <ele>115.30</ele>
        <time>2014-04-06T08:03:24Z</time>
      </trkpt>
      <trkpt lat="41.605816700" lon="2.540230130">
        <ele>115.20</ele>
        <time>2014-04-06T08:03:25Z</time>
      </trkpt>
      <trkpt lat="41.605816700" lon="2.540228450">
        <ele>115.10</ele>
        <time>2014-04-06T08:03:26Z</time>
      </trkpt>
      <trkpt lat="41.605816700" lon="2.540228450">
        <ele>115.10</ele>
        <time>2014-04-06T08:03:27Z</time>
      </trkpt>
      <trkpt lat="41.605816700" lon="2.540226780">
        <ele>115.10</ele>
        <time>2014-04-06T08:03:28Z</time>
      </trkpt>
      <trkpt lat="41.605816700" lon="2.540226780">
        <ele>114.90</ele>
        <time>2014-04-06T08:03:29Z</time>
      </trkpt>
      <trkpt lat="41.605816700" lon="2.540226780">
        <ele>114.80</ele>
        <time>2014-04-06T08:03:30Z</time>
      </trkpt>
      <trkpt lat="41.605816700" lon="2.540226780">
        <ele>114.90</ele>
        <time>2014-04-06T08:03:31Z</time>
      </trkpt>
      <trkpt lat="41.605816700" lon="2.540225100">
        <ele>115.00</ele>
        <time>2014-04-06T08:03:32Z</time>
      </trkpt>
      <trkpt lat="41.605816700" lon="2.540225100">
        <ele>115.00</ele>
        <time>2014-04-06T08:03:33Z</time>
      </trkpt>
      <trkpt lat="41.605816700" lon="2.540225100">
        <ele>115.40</ele>
        <time>2014-04-06T08:03:34Z</time>
      </trkpt>
      <trkpt lat="41.605816700" lon="2.540223430">
        <ele>115.60</ele>
        <time>2014-04-06T08:03:35Z</time>
      </trkpt>
      <trkpt lat="41.605818380" lon="2.540223430">
        <ele>115.10</ele>
        <time>2014-04-06T08:03:36Z</time>
      </trkpt>
      <trkpt lat="41.605818380" lon="2.540223430">
        <ele>114.70</ele>
        <time>2014-04-06T08:03:37Z</time>
      </trkpt>
      <trkpt lat="41.605818380" lon="2.540221750">
        <ele>114.80</ele>
        <time>2014-04-06T08:03:38Z</time>
      </trkpt>
      <trkpt lat="41.605818380" lon="2.540221750">
        <ele>115.00</ele>
        <time>2014-04-06T08:03:39Z</time>
      </trkpt>
      <trkpt lat="41.605818380" lon="2.540221750">
        <ele>115.10</ele>
        <time>2014-04-06T08:03:40Z</time>
      </trkpt>
      <trkpt lat="41.605820050" lon="2.540221750">
        <ele>115.20</ele>
        <time>2014-04-06T08:03:41Z</time>
      </trkpt>
      <trkpt lat="41.605820050" lon="2.540220070">
        <ele>115.20</ele>
        <time>2014-04-06T08:03:42Z</time>
      </trkpt>
      <trkpt lat="41.605820050" lon="2.540220070">
        <ele>115.30</ele>
        <time>2014-04-06T08:03:43Z</time>
      </trkpt>
      <trkpt lat="41.605820050" lon="2.540218400">
        <ele>115.30</ele>
        <time>2014-04-06T08:03:44Z</time>
      </trkpt>
      <trkpt lat="41.605820050" lon="2.540218400">
        <ele>115.30</ele>
        <time>2014-04-06T08:03:45Z</time>
      </trkpt>
      <trkpt lat="41.605820050" lon="2.540218400">
        <ele>115.20</ele>
        <time>2014-04-06T08:03:46Z</time>
      </trkpt>
      <trkpt lat="41.605820050" lon="2.540218400">
        <ele>115.20</ele>
        <time>2014-04-06T08:03:47Z</time>
      </trkpt>
      <trkpt lat="41.605820050" lon="2.540218400">
        <ele>115.20</ele>
        <time>2014-04-06T08:03:48Z</time>
      </trkpt>
      <trkpt lat="41.605820050" lon="2.540218400">
        <ele>115.30</ele>
        <time>2014-04-06T08:03:49Z</time>
      </trkpt>
      <trkpt lat="41.605820050" lon="2.540218400">
        <ele>115.60</ele>
        <time>2014-04-06T08:03:50Z</time>
      </trkpt>
      <trkpt lat="41.605820050" lon="2.540218400">
        <ele>115.80</ele>
        <time>2014-04-06T08:03:51Z</time>
      </trkpt>
      <trkpt lat="41.605820050" lon="2.540218400">
        <ele>115.90</ele>
        <time>2014-04-06T08:03:52Z</time>
      </trkpt>
      <trkpt lat="41.605818380" lon="2.540218400">
        <ele>115.60</ele>
        <time>2014-04-06T08:03:53Z</time>
      </trkpt>
      <trkpt lat="41.605818380" lon="2.540218400">
        <ele>115.40</ele>
        <time>2014-04-06T08:03:54Z</time>
      </trkpt>
      <trkpt lat="41.605818380" lon="2.540218400">
        <ele>115.40</ele>
        <time>2014-04-06T08:03:55Z</time>
      </trkpt>
      <trkpt lat="41.605818380" lon="2.540218400">
        <ele>115.50</ele>
        <time>2014-04-06T08:03:56Z</time>
      </trkpt>
      <trkpt lat="41.605818380" lon="2.540218400">
        <ele>115.40</ele>
        <time>2014-04-06T08:03:57Z</time>
      </trkpt>
      <trkpt lat="41.605818380" lon="2.540218400">
        <ele>115.40</ele>
        <time>2014-04-06T08:03:58Z</time>
      </trkpt>
      <trkpt lat="41.605818380" lon="2.540220070">
        <ele>115.40</ele>
        <time>2014-04-06T08:03:59Z</time>
      </trkpt>
      <trkpt lat="41.605816700" lon="2.540220070">
        <ele>115.40</ele>
        <time>2014-04-06T08:04:00Z</time>
      </trkpt>
      <trkpt lat="41.605816700" lon="2.540220070">
        <ele>115.40</ele>
        <time>2014-04-06T08:04:01Z</time>
      </trkpt>
      <trkpt lat="41.605816700" lon="2.540221750">
        <ele>115.70</ele>
        <time>2014-04-06T08:04:02Z</time>
      </trkpt>
      <trkpt lat="41.605815030" lon="2.540221750">
        <ele>115.90</ele>
        <time>2014-04-06T08:04:03Z</time>
      </trkpt>
      <trkpt lat="41.605815030" lon="2.540221750">
        <ele>116.10</ele>
        <time>2014-04-06T08:04:04Z</time>
      </trkpt>
      <trkpt lat="41.605813350" lon="2.540223430">
        <ele>116.00</ele>
        <time>2014-04-06T08:04:05Z</time>
      </trkpt>
      <trkpt lat="41.605811670" lon="2.540226780">
        <ele>115.90</ele>
        <time>2014-04-06T08:04:06Z</time>
      </trkpt>
      <trkpt lat="41.605810000" lon="2.540230130">
        <ele>115.70</ele>
        <time>2014-04-06T08:04:07Z</time>
      </trkpt>
      <trkpt lat="41.605808490" lon="2.540231810">
        <ele>115.60</ele>
        <time>2014-04-06T08:04:08Z</time>
      </trkpt>
      <trkpt lat="41.605806810" lon="2.540233480">
        <ele>115.30</ele>
        <time>2014-04-06T08:04:09Z</time>
      </trkpt>
      <trkpt lat="41.605805130" lon="2.540236670">
        <ele>115.10</ele>
        <time>2014-04-06T08:04:10Z</time>
      </trkpt>
      <trkpt lat="41.605805130" lon="2.540238350">
        <ele>115.00</ele>
        <time>2014-04-06T08:04:11Z</time>
      </trkpt>
      <trkpt lat="41.605803460" lon="2.540238350">
        <ele>115.10</ele>
        <time>2014-04-06T08:04:12Z</time>
      </trkpt>
      <trkpt lat="41.605801780" lon="2.540240020">
        <ele>115.30</ele>
        <time>2014-04-06T08:04:13Z</time>
      </trkpt>
      <trkpt lat="41.605801780" lon="2.540241700">
        <ele>115.30</ele>
        <time>2014-04-06T08:04:14Z</time>
      </trkpt>
      <trkpt lat="41.605800110" lon="2.540243370">
        <ele>115.40</ele>
        <time>2014-04-06T08:04:15Z</time>
      </trkpt>
      <trkpt lat="41.605800110" lon="2.540246730">
        <ele>115.50</ele>
        <time>2014-04-06T08:04:16Z</time>
      </trkpt>
      <trkpt lat="41.605800110" lon="2.540250080">
        <ele>115.50</ele>
        <time>2014-04-06T08:04:17Z</time>
      </trkpt>
      <trkpt lat="41.605800110" lon="2.540251760">
        <ele>115.60</ele>
        <time>2014-04-06T08:04:18Z</time>
      </trkpt>
      <trkpt lat="41.605800110" lon="2.540255110">
        <ele>115.00</ele>
        <time>2014-04-06T08:04:19Z</time>
      </trkpt>
      <trkpt lat="41.605800110" lon="2.540256790">
        <ele>114.50</ele>
        <time>2014-04-06T08:04:20Z</time>
      </trkpt>
      <trkpt lat="41.605798430" lon="2.540258460">
        <ele>114.90</ele>
        <time>2014-04-06T08:04:21Z</time>
      </trkpt>
      <trkpt lat="41.605798430" lon="2.540258460">
        <ele>115.10</ele>
        <time>2014-04-06T08:04:22Z</time>
      </trkpt>
      <trkpt lat="41.605798430" lon="2.540260140">
        <ele>114.90</ele>
        <time>2014-04-06T08:04:23Z</time>
      </trkpt>
      <trkpt lat="41.605798430" lon="2.540260140">
        <ele>114.70</ele>
        <time>2014-04-06T08:04:24Z</time>
      </trkpt>
      <trkpt lat="41.605796750" lon="2.540260140">
        <ele>114.50</ele>
        <time>2014-04-06T08:04:25Z</time>
      </trkpt>
      <trkpt lat="41.605796750" lon="2.540261810">
        <ele>114.80</ele>
        <time>2014-04-06T08:04:26Z</time>
      </trkpt>
      <trkpt lat="41.605796750" lon="2.540261810">
        <ele>115.00</ele>
        <time>2014-04-06T08:04:27Z</time>
      </trkpt>
      <trkpt lat="41.605796750" lon="2.540263490">
        <ele>114.80</ele>
        <time>2014-04-06T08:04:28Z</time>
      </trkpt>
      <trkpt lat="41.605795080" lon="2.540263490">
        <ele>114.70</ele>
        <time>2014-04-06T08:04:29Z</time>
      </trkpt>
      <trkpt lat="41.605795080" lon="2.540263490">
        <ele>114.60</ele>
        <time>2014-04-06T08:04:30Z</time>
      </trkpt>
      <trkpt lat="41.605795080" lon="2.540265000">
        <ele>115.00</ele>
        <time>2014-04-06T08:04:31Z</time>
      </trkpt>
      <trkpt lat="41.605795080" lon="2.540265000">
        <ele>115.20</ele>
        <time>2014-04-06T08:04:32Z</time>
      </trkpt>
      <trkpt lat="41.605795080" lon="2.540265000">
        <ele>115.30</ele>
        <time>2014-04-06T08:04:33Z</time>
      </trkpt>
      <trkpt lat="41.605796750" lon="2.540270030">
        <ele>115.30</ele>
        <time>2014-04-06T08:04:34Z</time>
      </trkpt>
      <trkpt lat="41.605798430" lon="2.540275060">
        <ele>115.50</ele>
        <time>2014-04-06T08:04:35Z</time>
      </trkpt>
      <trkpt lat="41.605801780" lon="2.540275060">
        <ele>115.60</ele>
        <time>2014-04-06T08:04:36Z</time>
      </trkpt>
      <trkpt lat="41.605803460" lon="2.540276730">
        <ele>115.70</ele>
        <time>2014-04-06T08:04:37Z</time>
      </trkpt>
      <trkpt lat="41.605805130" lon="2.540278410">
        <ele>115.80</ele>
        <time>2014-04-06T08:04:38Z</time>
      </trkpt>
      <trkpt lat="41.605805130" lon="2.540281760">
        <ele>115.80</ele>
        <time>2014-04-06T08:04:39Z</time>
      </trkpt>
      <trkpt lat="41.605806810" lon="2.540285120">
        <ele>116.00</ele>
        <time>2014-04-06T08:04:40Z</time>
      </trkpt>
      <trkpt lat="41.605808490" lon="2.540290150">
        <ele>116.20</ele>
        <time>2014-04-06T08:04:41Z</time>
      </trkpt>
      <trkpt lat="41.605810000" lon="2.540291820">
        <ele>115.70</ele>
        <time>2014-04-06T08:04:42Z</time>
      </trkpt>
      <trkpt lat="41.605810000" lon="2.540293330">
        <ele>115.40</ele>
        <time>2014-04-06T08:04:43Z</time>
      </trkpt>
      <trkpt lat="41.605810000" lon="2.540295010">
        <ele>115.10</ele>
        <time>2014-04-06T08:04:44Z</time>
      </trkpt>
      <trkpt lat="41.605811670" lon="2.540298360">
        <ele>114.90</ele>
        <time>2014-04-06T08:04:45Z</time>
      </trkpt>
      <trkpt lat="41.605813350" lon="2.540300040">
        <ele>114.70</ele>
        <time>2014-04-06T08:04:46Z</time>
      </trkpt>
      <trkpt lat="41.605815030" lon="2.540301710">
        <ele>115.00</ele>
        <time>2014-04-06T08:04:47Z</time>
      </trkpt>
      <trkpt lat="41.605815030" lon="2.540305070">
        <ele>115.30</ele>
        <time>2014-04-06T08:04:48Z</time>
      </trkpt>
      <trkpt lat="41.605816700" lon="2.540305070">
        <ele>115.40</ele>
        <time>2014-04-06T08:04:49Z</time>
      </trkpt>
      <trkpt lat="41.605816700" lon="2.540310090">
        <ele>115.30</ele>
        <time>2014-04-06T08:04:50Z</time>
      </trkpt>
      <trkpt lat="41.605818380" lon="2.540321660">
        <ele>115.30</ele>
        <time>2014-04-06T08:04:51Z</time>
      </trkpt>
      <trkpt lat="41.605823410" lon="2.540336750">
        <ele>115.40</ele>
        <time>2014-04-06T08:04:52Z</time>
      </trkpt>
      <trkpt lat="41.605833470" lon="2.540348480">
        <ele>115.50</ele>
        <time>2014-04-06T08:04:53Z</time>
      </trkpt>
      <trkpt lat="41.605846710" lon="2.540355020">
        <ele>115.20</ele>
        <time>2014-04-06T08:04:54Z</time>
      </trkpt>
      <trkpt lat="41.605865150" lon="2.540358370">
        <ele>115.00</ele>
        <time>2014-04-06T08:04:55Z</time>
      </trkpt>
      <trkpt lat="41.605883420" lon="2.540370110">
        <ele>114.80</ele>
        <time>2014-04-06T08:04:56Z</time>
      </trkpt>
      <trkpt lat="41.605900020" lon="2.540383350">
        <ele>114.80</ele>
        <time>2014-04-06T08:04:57Z</time>
      </trkpt>
      <trkpt lat="41.605916780" lon="2.540395090">
        <ele>114.70</ele>
        <time>2014-04-06T08:04:58Z</time>
      </trkpt>
      <trkpt lat="41.605931700" lon="2.540400120">
        <ele>114.90</ele>
        <time>2014-04-06T08:04:59Z</time>
      </trkpt>
      <trkpt lat="41.605945110" lon="2.540405150">
        <ele>115.10</ele>
        <time>2014-04-06T08:05:00Z</time>
      </trkpt>
      <trkpt lat="41.605953490" lon="2.540415040">
        <ele>114.70</ele>
        <time>2014-04-06T08:05:01Z</time>
      </trkpt>
      <trkpt lat="41.605966740" lon="2.540431800">
        <ele>114.50</ele>
        <time>2014-04-06T08:05:02Z</time>
      </trkpt>
      <trkpt lat="41.605983330" lon="2.540453430">
        <ele>114.30</ele>
        <time>2014-04-06T08:05:03Z</time>
      </trkpt>
      <trkpt lat="41.606001770" lon="2.540475050">
        <ele>114.40</ele>
        <time>2014-04-06T08:05:04Z</time>
      </trkpt>
      <trkpt lat="41.606025080" lon="2.540493490">
        <ele>114.50</ele>
        <time>2014-04-06T08:05:05Z</time>
      </trkpt>
      <trkpt lat="41.606048380" lon="2.540506730">
        <ele>114.70</ele>
        <time>2014-04-06T08:05:06Z</time>
      </trkpt>
      <trkpt lat="41.606070000" lon="2.540513440">
        <ele>114.90</ele>
        <time>2014-04-06T08:05:07Z</time>
      </trkpt>
      <trkpt lat="41.606090120" lon="2.540521820">
        <ele>115.00</ele>
        <time>2014-04-06T08:05:08Z</time>
      </trkpt>
      <trkpt lat="41.606111750" lon="2.540530040">
        <ele>115.30</ele>
        <time>2014-04-06T08:05:09Z</time>
      </trkpt>
      <trkpt lat="41.606135050" lon="2.540540090">
        <ele>115.50</ele>
        <time>2014-04-06T08:05:10Z</time>
      </trkpt>
      <trkpt lat="41.606160020" lon="2.540548480">
        <ele>115.20</ele>
        <time>2014-04-06T08:05:11Z</time>
      </trkpt>
      <trkpt lat="41.606183490" lon="2.540556690">
        <ele>115.00</ele>
        <time>2014-04-06T08:05:12Z</time>
      </trkpt>
      <trkpt lat="41.606208470" lon="2.540561720">
        <ele>115.10</ele>
        <time>2014-04-06T08:05:13Z</time>
      </trkpt>
      <trkpt lat="41.606231770" lon="2.540566750">
        <ele>115.20</ele>
        <time>2014-04-06T08:05:14Z</time>
      </trkpt>
      <trkpt lat="41.606255080" lon="2.540570100">
        <ele>115.30</ele>
        <time>2014-04-06T08:05:15Z</time>
      </trkpt>
      <trkpt lat="41.606280050" lon="2.540576810">
        <ele>115.50</ele>
        <time>2014-04-06T08:05:16Z</time>
      </trkpt>
      <trkpt lat="41.606301680" lon="2.540585020">
        <ele>115.60</ele>
        <time>2014-04-06T08:05:17Z</time>
      </trkpt>
      <trkpt lat="41.606325150" lon="2.540593400">
        <ele>115.80</ele>
        <time>2014-04-06T08:05:18Z</time>
      </trkpt>
      <trkpt lat="41.606348450" lon="2.540600110">
        <ele>116.00</ele>
        <time>2014-04-06T08:05:19Z</time>
      </trkpt>
      <trkpt lat="41.606373430" lon="2.540606810">
        <ele>115.70</ele>
        <time>2014-04-06T08:05:20Z</time>
      </trkpt>
      <trkpt lat="41.606396730" lon="2.540615030">
        <ele>115.50</ele>
        <time>2014-04-06T08:05:21Z</time>
      </trkpt>
      <trkpt lat="41.606421710" lon="2.540623410">
        <ele>115.30</ele>
        <time>2014-04-06T08:05:22Z</time>
      </trkpt>
      <trkpt lat="41.606446690" lon="2.540633470">
        <ele>115.30</ele>
        <time>2014-04-06T08:05:23Z</time>
      </trkpt>
      <trkpt lat="41.606471660" lon="2.540646710">
        <ele>115.30</ele>
        <time>2014-04-06T08:05:24Z</time>
      </trkpt>
      <trkpt lat="41.606493460" lon="2.540658450">
        <ele>115.50</ele>
        <time>2014-04-06T08:05:25Z</time>
      </trkpt>
      <trkpt lat="41.606516760" lon="2.540671690">
        <ele>115.70</ele>
        <time>2014-04-06T08:05:26Z</time>
      </trkpt>
      <trkpt lat="41.606540060" lon="2.540681750">
        <ele>115.80</ele>
        <time>2014-04-06T08:05:27Z</time>
      </trkpt>
      <trkpt lat="41.606561690" lon="2.540695160">
        <ele>115.90</ele>
        <time>2014-04-06T08:05:28Z</time>
      </trkpt>
      <trkpt lat="41.606585150" lon="2.540706730">
        <ele>115.90</ele>
        <time>2014-04-06T08:05:29Z</time>
      </trkpt>
      <trkpt lat="41.606610130" lon="2.540716780">
        <ele>116.40</ele>
        <time>2014-04-06T08:05:30Z</time>
      </trkpt>
      <trkpt lat="41.606633430" lon="2.540725000">
        <ele>116.70</ele>
        <time>2014-04-06T08:05:31Z</time>
      </trkpt>
      <trkpt lat="41.606656740" lon="2.540733380">
        <ele>116.90</ele>
        <time>2014-04-06T08:05:32Z</time>
      </trkpt>
      <trkpt lat="41.606680040" lon="2.540743440">
        <ele>116.90</ele>
        <time>2014-04-06T08:05:33Z</time>
      </trkpt>
      <trkpt lat="41.606703340" lon="2.540751820">
        <ele>117.00</ele>
        <time>2014-04-06T08:05:34Z</time>
      </trkpt>
      <trkpt lat="41.606726810" lon="2.540763390">
        <ele>117.00</ele>
        <time>2014-04-06T08:05:35Z</time>
      </trkpt>
      <trkpt lat="41.606753460" lon="2.540771770">
        <ele>117.00</ele>
        <time>2014-04-06T08:05:36Z</time>
      </trkpt>
      <trkpt lat="41.606776770" lon="2.540781830">
        <ele>117.40</ele>
        <time>2014-04-06T08:05:37Z</time>
      </trkpt>
      <trkpt lat="41.606801740" lon="2.540790040">
        <ele>117.70</ele>
        <time>2014-04-06T08:05:38Z</time>
      </trkpt>
      <trkpt lat="41.606826720" lon="2.540796750">
        <ele>117.60</ele>
        <time>2014-04-06T08:05:39Z</time>
      </trkpt>
      <trkpt lat="41.606851700" lon="2.540803450">
        <ele>117.60</ele>
        <time>2014-04-06T08:05:40Z</time>
      </trkpt>
      <trkpt lat="41.606878350" lon="2.540810160">
        <ele>117.50</ele>
        <time>2014-04-06T08:05:41Z</time>
      </trkpt>
      <trkpt lat="41.606903330" lon="2.540821730">
        <ele>117.70</ele>
        <time>2014-04-06T08:05:42Z</time>
      </trkpt>
      <trkpt lat="41.606928480" lon="2.540831780">
        <ele>117.80</ele>
        <time>2014-04-06T08:05:43Z</time>
      </trkpt>
      <trkpt lat="41.606955130" lon="2.540841680">
        <ele>118.40</ele>
        <time>2014-04-06T08:05:44Z</time>
      </trkpt>
      <trkpt lat="41.606981790" lon="2.540850060">
        <ele>118.80</ele>
        <time>2014-04-06T08:05:45Z</time>
      </trkpt>
      <trkpt lat="41.607010120" lon="2.540858440">
        <ele>119.10</ele>
        <time>2014-04-06T08:05:46Z</time>
      </trkpt>
      <trkpt lat="41.607038450" lon="2.540866820">
        <ele>119.10</ele>
        <time>2014-04-06T08:05:47Z</time>
      </trkpt>
      <trkpt lat="41.607066780" lon="2.540871680">
        <ele>119.10</ele>
        <time>2014-04-06T08:05:48Z</time>
      </trkpt>
      <trkpt lat="41.607095110" lon="2.540876710">
        <ele>119.00</ele>
        <time>2014-04-06T08:05:49Z</time>
      </trkpt>
      <trkpt lat="41.607123440" lon="2.540881740">
        <ele>119.00</ele>
        <time>2014-04-06T08:05:50Z</time>
      </trkpt>
      <trkpt lat="41.607153450" lon="2.540886770">
        <ele>119.30</ele>
        <time>2014-04-06T08:05:51Z</time>
      </trkpt>
      <trkpt lat="41.607183460" lon="2.540890120">
        <ele>119.40</ele>
        <time>2014-04-06T08:05:52Z</time>
      </trkpt>
      <trkpt lat="41.607211790" lon="2.540891800">
        <ele>119.60</ele>
        <time>2014-04-06T08:05:53Z</time>
      </trkpt>
      <trkpt lat="41.607243470" lon="2.540893480">
        <ele>119.40</ele>
        <time>2014-04-06T08:05:54Z</time>
      </trkpt>
      <trkpt lat="41.607271800" lon="2.540895150">
        <ele>119.30</ele>
        <time>2014-04-06T08:05:55Z</time>
      </trkpt>
      <trkpt lat="41.607301810" lon="2.540893480">
        <ele>119.50</ele>
        <time>2014-04-06T08:05:56Z</time>
      </trkpt>
      <trkpt lat="41.607331810" lon="2.540893480">
        <ele>119.60</ele>
        <time>2014-04-06T08:05:57Z</time>
      </trkpt>
      <trkpt lat="41.607361820" lon="2.540890120">
        <ele>119.60</ele>
        <time>2014-04-06T08:05:58Z</time>
      </trkpt>
      <trkpt lat="41.607390150" lon="2.540890120">
        <ele>119.60</ele>
        <time>2014-04-06T08:05:59Z</time>
      </trkpt>
      <trkpt lat="41.607420160" lon="2.540886770">
        <ele>119.60</ele>
        <time>2014-04-06T08:06:00Z</time>
      </trkpt>
      <trkpt lat="41.607451680" lon="2.540881740">
        <ele>119.90</ele>
        <time>2014-04-06T08:06:01Z</time>
      </trkpt>
      <trkpt lat="41.607481680" lon="2.540878390">
        <ele>120.10</ele>
        <time>2014-04-06T08:06:02Z</time>
      </trkpt>
      <trkpt lat="41.607513370" lon="2.540873360">
        <ele>120.50</ele>
        <time>2014-04-06T08:06:03Z</time>
      </trkpt>
      <trkpt lat="41.607543370" lon="2.540866820">
        <ele>120.80</ele>
        <time>2014-04-06T08:06:04Z</time>
      </trkpt>
      <trkpt lat="41.607573380" lon="2.540861790">
        <ele>121.00</ele>
        <time>2014-04-06T08:06:05Z</time>
      </trkpt>
      <trkpt lat="41.607603390" lon="2.540856760">
        <ele>120.80</ele>
        <time>2014-04-06T08:06:06Z</time>
      </trkpt>
      <trkpt lat="41.607633400" lon="2.540853410">
        <ele>120.70</ele>
        <time>2014-04-06T08:06:07Z</time>
      </trkpt>
      <trkpt lat="41.607665080" lon="2.540848380">
        <ele>120.70</ele>
        <time>2014-04-06T08:06:08Z</time>
      </trkpt>
      <trkpt lat="41.607693410" lon="2.540845030">
        <ele>120.70</ele>
        <time>2014-04-06T08:06:09Z</time>
      </trkpt>
      <trkpt lat="41.607723420" lon="2.540843350">
        <ele>121.00</ele>
        <time>2014-04-06T08:06:10Z</time>
      </trkpt>
      <trkpt lat="41.607753420" lon="2.540843350">
        <ele>121.20</ele>
        <time>2014-04-06T08:06:11Z</time>
      </trkpt>
      <trkpt lat="41.607783430" lon="2.540843350">
        <ele>121.40</ele>
        <time>2014-04-06T08:06:12Z</time>
      </trkpt>
      <trkpt lat="41.607811760" lon="2.540845030">
        <ele>121.30</ele>
        <time>2014-04-06T08:06:13Z</time>
      </trkpt>
      <trkpt lat="41.607840090" lon="2.540846700">
        <ele>121.30</ele>
        <time>2014-04-06T08:06:14Z</time>
      </trkpt>
      <trkpt lat="41.607868420" lon="2.540851730">
        <ele>121.00</ele>
        <time>2014-04-06T08:06:15Z</time>
      </trkpt>
      <trkpt lat="41.607898430" lon="2.540858440">
        <ele>120.80</ele>
        <time>2014-04-06T08:06:16Z</time>
      </trkpt>
      <trkpt lat="41.607928440" lon="2.540866820">
        <ele>121.00</ele>
        <time>2014-04-06T08:06:17Z</time>
      </trkpt>
      <trkpt lat="41.607958450" lon="2.540875030">
        <ele>121.10</ele>
        <time>2014-04-06T08:06:18Z</time>
      </trkpt>
      <trkpt lat="41.607991810" lon="2.540886770">
        <ele>121.20</ele>
        <time>2014-04-06T08:06:19Z</time>
      </trkpt>
      <trkpt lat="41.608025000" lon="2.540896830">
        <ele>121.30</ele>
        <time>2014-04-06T08:06:20Z</time>
      </trkpt>
      <trkpt lat="41.608060030" lon="2.540910070">
        <ele>121.40</ele>
        <time>2014-04-06T08:06:21Z</time>
      </trkpt>
      <trkpt lat="41.608095070" lon="2.540923480">
        <ele>121.50</ele>
        <time>2014-04-06T08:06:22Z</time>
      </trkpt>
      <trkpt lat="41.608126750" lon="2.540938400">
        <ele>121.60</ele>
        <time>2014-04-06T08:06:23Z</time>
      </trkpt>
      <trkpt lat="41.608156760" lon="2.540953490">
        <ele>121.70</ele>
        <time>2014-04-06T08:06:24Z</time>
      </trkpt>
      <trkpt lat="41.608181740" lon="2.540966730">
        <ele>121.50</ele>
        <time>2014-04-06T08:06:25Z</time>
      </trkpt>
      <trkpt lat="41.608208390" lon="2.540981820">
        <ele>121.40</ele>
        <time>2014-04-06T08:06:26Z</time>
      </trkpt>
      <trkpt lat="41.608236730" lon="2.540995060">
        <ele>121.60</ele>
        <time>2014-04-06T08:06:27Z</time>
      </trkpt>
      <trkpt lat="41.608263380" lon="2.541010150">
        <ele>121.80</ele>
        <time>2014-04-06T08:06:28Z</time>
      </trkpt>
      <trkpt lat="41.608291710" lon="2.541028420">
        <ele>121.70</ele>
        <time>2014-04-06T08:06:29Z</time>
      </trkpt>
      <trkpt lat="41.608323390" lon="2.541053400">
        <ele>121.50</ele>
        <time>2014-04-06T08:06:30Z</time>
      </trkpt>
      <trkpt lat="41.608351720" lon="2.541078380">
        <ele>121.50</ele>
        <time>2014-04-06T08:06:31Z</time>
      </trkpt>
      <trkpt lat="41.608378380" lon="2.541106710">
        <ele>121.10</ele>
        <time>2014-04-06T08:06:32Z</time>
      </trkpt>
      <trkpt lat="41.608403360" lon="2.541136720">
        <ele>120.80</ele>
        <time>2014-04-06T08:06:33Z</time>
      </trkpt>
      <trkpt lat="41.608430010" lon="2.541165050">
        <ele>121.10</ele>
        <time>2014-04-06T08:06:34Z</time>
      </trkpt>
      <trkpt lat="41.608460020" lon="2.541193380">
        <ele>121.30</ele>
        <time>2014-04-06T08:06:35Z</time>
      </trkpt>
      <trkpt lat="41.608488350" lon="2.541221710">
        <ele>121.70</ele>
        <time>2014-04-06T08:06:36Z</time>
      </trkpt>
      <trkpt lat="41.608515000" lon="2.541251720">
        <ele>122.00</ele>
        <time>2014-04-06T08:06:37Z</time>
      </trkpt>
      <trkpt lat="41.608540150" lon="2.541273340">
        <ele>122.20</ele>
        <time>2014-04-06T08:06:38Z</time>
      </trkpt>
      <trkpt lat="41.608568480" lon="2.541296810">
        <ele>122.20</ele>
        <time>2014-04-06T08:06:39Z</time>
      </trkpt>
      <trkpt lat="41.608600000" lon="2.541316760">
        <ele>122.10</ele>
        <time>2014-04-06T08:06:40Z</time>
      </trkpt>
      <trkpt lat="41.608631680" lon="2.541333360">
        <ele>122.40</ele>
        <time>2014-04-06T08:06:41Z</time>
      </trkpt>
      <trkpt lat="41.608661690" lon="2.541351800">
        <ele>122.50</ele>
        <time>2014-04-06T08:06:42Z</time>
      </trkpt>
      <trkpt lat="41.608693370" lon="2.541363360">
        <ele>122.60</ele>
        <time>2014-04-06T08:06:43Z</time>
      </trkpt>
      <trkpt lat="41.608726730" lon="2.541371750">
        <ele>122.70</ele>
        <time>2014-04-06T08:06:44Z</time>
      </trkpt>
      <trkpt lat="41.608760090" lon="2.541381800">
        <ele>122.70</ele>
        <time>2014-04-06T08:06:45Z</time>
      </trkpt>
      <trkpt lat="41.608793450" lon="2.541386670">
        <ele>123.00</ele>
        <time>2014-04-06T08:06:46Z</time>
      </trkpt>
      <trkpt lat="41.608825130" lon="2.541390020">
        <ele>123.20</ele>
        <time>2014-04-06T08:06:47Z</time>
      </trkpt>
      <trkpt lat="41.608858490" lon="2.541393370">
        <ele>123.40</ele>
        <time>2014-04-06T08:06:48Z</time>
      </trkpt>
      <trkpt lat="41.608891690" lon="2.541393370">
        <ele>123.60</ele>
        <time>2014-04-06T08:06:49Z</time>
      </trkpt>
      <trkpt lat="41.608925050" lon="2.541393370">
        <ele>123.70</ele>
        <time>2014-04-06T08:06:50Z</time>
      </trkpt>
      <trkpt lat="41.608958410" lon="2.541390020">
        <ele>123.50</ele>
        <time>2014-04-06T08:06:51Z</time>
      </trkpt>
      <trkpt lat="41.608993440" lon="2.541385160">
        <ele>123.40</ele>
        <time>2014-04-06T08:06:52Z</time>
      </trkpt>
      <trkpt lat="41.609028480" lon="2.541378450">
        <ele>123.80</ele>
        <time>2014-04-06T08:06:53Z</time>
      </trkpt>
      <trkpt lat="41.609063350" lon="2.541373420">
        <ele>124.00</ele>
        <time>2014-04-06T08:06:54Z</time>
      </trkpt>
      <trkpt lat="41.609098380" lon="2.541368390">
        <ele>124.20</ele>
        <time>2014-04-06T08:06:55Z</time>
      </trkpt>
      <trkpt lat="41.609133420" lon="2.541363360">
        <ele>124.30</ele>
        <time>2014-04-06T08:06:56Z</time>
      </trkpt>
      <trkpt lat="41.609168460" lon="2.541360010">
        <ele>124.50</ele>
        <time>2014-04-06T08:06:57Z</time>
      </trkpt>
      <trkpt lat="41.609203490" lon="2.541351800">
        <ele>124.50</ele>
        <time>2014-04-06T08:06:58Z</time>
      </trkpt>
      <trkpt lat="41.609235010" lon="2.541345090">
        <ele>124.50</ele>
        <time>2014-04-06T08:06:59Z</time>
      </trkpt>
      <trkpt lat="41.609268370" lon="2.541340060">
        <ele>124.80</ele>
        <time>2014-04-06T08:07:00Z</time>
      </trkpt>
      <trkpt lat="41.609303410" lon="2.541336710">
        <ele>125.00</ele>
        <time>2014-04-06T08:07:01Z</time>
      </trkpt>
      <trkpt lat="41.609336770" lon="2.541330000">
        <ele>125.20</ele>
        <time>2014-04-06T08:07:02Z</time>
      </trkpt>
      <trkpt lat="41.609370130" lon="2.541323470">
        <ele>125.40</ele>
        <time>2014-04-06T08:07:03Z</time>
      </trkpt>
      <trkpt lat="41.609403490" lon="2.541316760">
        <ele>125.50</ele>
        <time>2014-04-06T08:07:04Z</time>
      </trkpt>
      <trkpt lat="41.609436680" lon="2.541310060">
        <ele>125.70</ele>
        <time>2014-04-06T08:07:05Z</time>
      </trkpt>
      <trkpt lat="41.609470040" lon="2.541306700">
        <ele>125.90</ele>
        <time>2014-04-06T08:07:06Z</time>
      </trkpt>
      <trkpt lat="41.609501720" lon="2.541305030">
        <ele>125.70</ele>
        <time>2014-04-06T08:07:07Z</time>
      </trkpt>
      <trkpt lat="41.609531730" lon="2.541300000">
        <ele>125.60</ele>
        <time>2014-04-06T08:07:08Z</time>
      </trkpt>
      <trkpt lat="41.609563410" lon="2.541298490">
        <ele>125.50</ele>
        <time>2014-04-06T08:07:09Z</time>
      </trkpt>
      <trkpt lat="41.609595100" lon="2.541295140">
        <ele>125.90</ele>
        <time>2014-04-06T08:07:10Z</time>
      </trkpt>
      <trkpt lat="41.609628460" lon="2.541288430">
        <ele>126.10</ele>
        <time>2014-04-06T08:07:11Z</time>
      </trkpt>
      <trkpt lat="41.609661820" lon="2.541283400">
        <ele>126.20</ele>
        <time>2014-04-06T08:07:12Z</time>
      </trkpt>
      <trkpt lat="41.609695010" lon="2.541280050">
        <ele>126.30</ele>
        <time>2014-04-06T08:07:13Z</time>
      </trkpt>
      <trkpt lat="41.609726690" lon="2.541276700">
        <ele>126.50</ele>
        <time>2014-04-06T08:07:14Z</time>
      </trkpt>
      <trkpt lat="41.609760050" lon="2.541275020">
        <ele>126.60</ele>
        <time>2014-04-06T08:07:15Z</time>
      </trkpt>
      <trkpt lat="41.609791740" lon="2.541273340">
        <ele>126.70</ele>
        <time>2014-04-06T08:07:16Z</time>
      </trkpt>
      <trkpt lat="41.609821740" lon="2.541273340">
        <ele>127.20</ele>
        <time>2014-04-06T08:07:17Z</time>
      </trkpt>
      <trkpt lat="41.609850070" lon="2.541278370">
        <ele>127.50</ele>
        <time>2014-04-06T08:07:18Z</time>
      </trkpt>
      <trkpt lat="41.609878400" lon="2.541288430">
        <ele>127.40</ele>
        <time>2014-04-06T08:07:19Z</time>
      </trkpt>
      <trkpt lat="41.609908410" lon="2.541296810">
        <ele>127.40</ele>
        <time>2014-04-06T08:07:20Z</time>
      </trkpt>
      <trkpt lat="41.609938420" lon="2.541303350">
        <ele>127.30</ele>
        <time>2014-04-06T08:07:21Z</time>
      </trkpt>
      <trkpt lat="41.609968430" lon="2.541308380">
        <ele>127.70</ele>
        <time>2014-04-06T08:07:22Z</time>
      </trkpt>
      <trkpt lat="41.609996760" lon="2.541310060">
        <ele>127.90</ele>
        <time>2014-04-06T08:07:23Z</time>
      </trkpt>
      <trkpt lat="41.610026760" lon="2.541310060">
        <ele>128.10</ele>
        <time>2014-04-06T08:07:24Z</time>
      </trkpt>
      <trkpt lat="41.610055100" lon="2.541310060">
        <ele>128.20</ele>
        <time>2014-04-06T08:07:25Z</time>
      </trkpt>
      <trkpt lat="41.610083430" lon="2.541310060">
        <ele>128.50</ele>
        <time>2014-04-06T08:07:26Z</time>
      </trkpt>
      <trkpt lat="41.610111760" lon="2.541308380">
        <ele>128.60</ele>
        <time>2014-04-06T08:07:27Z</time>
      </trkpt>
      <trkpt lat="41.610141760" lon="2.541303350">
        <ele>128.80</ele>
        <time>2014-04-06T08:07:28Z</time>
      </trkpt>
      <trkpt lat="41.610171770" lon="2.541298490">
        <ele>129.10</ele>
        <time>2014-04-06T08:07:29Z</time>
      </trkpt>
      <trkpt lat="41.610203450" lon="2.541291780">
        <ele>129.30</ele>
        <time>2014-04-06T08:07:30Z</time>
      </trkpt>
      <trkpt lat="41.610238490" lon="2.541283400">
        <ele>129.50</ele>
        <time>2014-04-06T08:07:31Z</time>
      </trkpt>
      <trkpt lat="41.610271680" lon="2.541275020">
        <ele>129.60</ele>
        <time>2014-04-06T08:07:32Z</time>
      </trkpt>
      <trkpt lat="41.610305040" lon="2.541266810">
        <ele>130.10</ele>
        <time>2014-04-06T08:07:33Z</time>
      </trkpt>
      <trkpt lat="41.610336730" lon="2.541258420">
        <ele>130.50</ele>
        <time>2014-04-06T08:07:34Z</time>
      </trkpt>
      <trkpt lat="41.610368410" lon="2.541246690">
        <ele>130.80</ele>
        <time>2014-04-06T08:07:35Z</time>
      </trkpt>
      <trkpt lat="41.610400090" lon="2.541238470">
        <ele>130.90</ele>
        <time>2014-04-06T08:07:36Z</time>
      </trkpt>
      <trkpt lat="41.610430100" lon="2.541230090">
        <ele>131.00</ele>
        <time>2014-04-06T08:07:37Z</time>
      </trkpt>
      <trkpt lat="41.610460110" lon="2.541220030">
        <ele>131.30</ele>
        <time>2014-04-06T08:07:38Z</time>
      </trkpt>
      <trkpt lat="41.610491790" lon="2.541211820">
        <ele>131.40</ele>
        <time>2014-04-06T08:07:39Z</time>
      </trkpt>
      <trkpt lat="41.610521800" lon="2.541201760">
        <ele>131.50</ele>
        <time>2014-04-06T08:07:40Z</time>
      </trkpt>
      <trkpt lat="41.610551810" lon="2.541190030">
        <ele>131.60</ele>
        <time>2014-04-06T08:07:41Z</time>
      </trkpt>
      <trkpt lat="41.610581810" lon="2.541178460">
        <ele>131.60</ele>
        <time>2014-04-06T08:07:42Z</time>
      </trkpt>
      <trkpt lat="41.610611820" lon="2.541168400">
        <ele>131.50</ele>
        <time>2014-04-06T08:07:43Z</time>
      </trkpt>
      <trkpt lat="41.610640150" lon="2.541156670">
        <ele>131.30</ele>
        <time>2014-04-06T08:07:44Z</time>
      </trkpt>
      <trkpt lat="41.610668480" lon="2.541146780">
        <ele>131.40</ele>
        <time>2014-04-06T08:07:45Z</time>
      </trkpt>
      <trkpt lat="41.610696810" lon="2.541138390">
        <ele>131.40</ele>
        <time>2014-04-06T08:07:46Z</time>
      </trkpt>
      <trkpt lat="41.610725140" lon="2.541128340">
        <ele>131.40</ele>
        <time>2014-04-06T08:07:47Z</time>
      </trkpt>
      <trkpt lat="41.610753480" lon="2.541118450">
        <ele>131.80</ele>
        <time>2014-04-06T08:07:48Z</time>
      </trkpt>
      <trkpt lat="41.610781810" lon="2.541108390">
        <ele>132.20</ele>
        <time>2014-04-06T08:07:49Z</time>
      </trkpt>
      <trkpt lat="41.610811810" lon="2.541098330">
        <ele>132.20</ele>
        <time>2014-04-06T08:07:50Z</time>
      </trkpt>
      <trkpt lat="41.610840140" lon="2.541090110">
        <ele>132.10</ele>
        <time>2014-04-06T08:07:51Z</time>
      </trkpt>
      <trkpt lat="41.610868480" lon="2.541081730">
        <ele>132.20</ele>
        <time>2014-04-06T08:07:52Z</time>
      </trkpt>
      <trkpt lat="41.610896810" lon="2.541073350">
        <ele>132.30</ele>
        <time>2014-04-06T08:07:53Z</time>
      </trkpt>
      <trkpt lat="41.610925140" lon="2.541065140">
        <ele>132.30</ele>
        <time>2014-04-06T08:07:54Z</time>
      </trkpt>
      <trkpt lat="41.610953470" lon="2.541055080">
        <ele>132.70</ele>
        <time>2014-04-06T08:07:55Z</time>
      </trkpt>
      <trkpt lat="41.610980120" lon="2.541045020">
        <ele>132.90</ele>
        <time>2014-04-06T08:07:56Z</time>
      </trkpt>
      <trkpt lat="41.611006780" lon="2.541033450">
        <ele>133.20</ele>
        <time>2014-04-06T08:07:57Z</time>
      </trkpt>
      <trkpt lat="41.611035110" lon="2.541021720">
        <ele>133.50</ele>
        <time>2014-04-06T08:07:58Z</time>
      </trkpt>
      <trkpt lat="41.611061760" lon="2.541011830">
        <ele>133.90</ele>
        <time>2014-04-06T08:07:59Z</time>
      </trkpt>
      <trkpt lat="41.611088420" lon="2.541000090">
        <ele>134.20</ele>
        <time>2014-04-06T08:08:00Z</time>
      </trkpt>
      <trkpt lat="41.611115070" lon="2.540990030">
        <ele>134.40</ele>
        <time>2014-04-06T08:08:01Z</time>
      </trkpt>
      <trkpt lat="41.611143400" lon="2.540978470">
        <ele>134.40</ele>
        <time>2014-04-06T08:08:02Z</time>
      </trkpt>
      <trkpt lat="41.611170060" lon="2.540968410">
        <ele>134.40</ele>
        <time>2014-04-06T08:08:03Z</time>
      </trkpt>
      <trkpt lat="41.611195030" lon="2.540958350">
        <ele>134.80</ele>
        <time>2014-04-06T08:08:04Z</time>
      </trkpt>
      <trkpt lat="41.611223360" lon="2.540950140">
        <ele>135.00</ele>
        <time>2014-04-06T08:08:05Z</time>
      </trkpt>
      <trkpt lat="41.611251700" lon="2.540941750">
        <ele>135.20</ele>
        <time>2014-04-06T08:08:06Z</time>
      </trkpt>
      <trkpt lat="41.611278350" lon="2.540931700">
        <ele>135.50</ele>
        <time>2014-04-06T08:08:07Z</time>
      </trkpt>
      <trkpt lat="41.611305000" lon="2.540921810">
        <ele>135.70</ele>
        <time>2014-04-06T08:08:08Z</time>
      </trkpt>
      <trkpt lat="41.611333340" lon="2.540911750">
        <ele>135.40</ele>
        <time>2014-04-06T08:08:09Z</time>
      </trkpt>
      <trkpt lat="41.611358480" lon="2.540901690">
        <ele>135.20</ele>
        <time>2014-04-06T08:08:10Z</time>
      </trkpt>
      <trkpt lat="41.611385140" lon="2.540891800">
        <ele>135.40</ele>
        <time>2014-04-06T08:08:11Z</time>
      </trkpt>
      <trkpt lat="41.611410110" lon="2.540881740">
        <ele>135.50</ele>
        <time>2014-04-06T08:08:12Z</time>
      </trkpt>
      <trkpt lat="41.611436770" lon="2.540871680">
        <ele>135.60</ele>
        <time>2014-04-06T08:08:13Z</time>
      </trkpt>
      <trkpt lat="41.611461750" lon="2.540860120">
        <ele>135.60</ele>
        <time>2014-04-06T08:08:14Z</time>
      </trkpt>
      <trkpt lat="41.611488400" lon="2.540848380">
        <ele>135.60</ele>
        <time>2014-04-06T08:08:15Z</time>
      </trkpt>
      <trkpt lat="41.611515060" lon="2.540836810">
        <ele>136.00</ele>
        <time>2014-04-06T08:08:16Z</time>
      </trkpt>
      <trkpt lat="41.611540030" lon="2.540826760">
        <ele>136.30</ele>
        <time>2014-04-06T08:08:17Z</time>
      </trkpt>
      <trkpt lat="41.611565010" lon="2.540816700">
        <ele>136.60</ele>
        <time>2014-04-06T08:08:18Z</time>
      </trkpt>
      <trkpt lat="41.611590160" lon="2.540808480">
        <ele>136.80</ele>
        <time>2014-04-06T08:08:19Z</time>
      </trkpt>
      <trkpt lat="41.611616810" lon="2.540800100">
        <ele>137.00</ele>
        <time>2014-04-06T08:08:20Z</time>
      </trkpt>
      <trkpt lat="41.611645140" lon="2.540795070">
        <ele>136.80</ele>
        <time>2014-04-06T08:08:21Z</time>
      </trkpt>
      <trkpt lat="41.611673470" lon="2.540793400">
        <ele>136.70</ele>
        <time>2014-04-06T08:08:22Z</time>
      </trkpt>
      <trkpt lat="41.611701800" lon="2.540790040">
        <ele>136.90</ele>
        <time>2014-04-06T08:08:23Z</time>
      </trkpt>
      <trkpt lat="41.611731810" lon="2.540788370">
        <ele>137.20</ele>
        <time>2014-04-06T08:08:24Z</time>
      </trkpt>
      <trkpt lat="41.611761820" lon="2.540788370">
        <ele>137.30</ele>
        <time>2014-04-06T08:08:25Z</time>
      </trkpt>
      <trkpt lat="41.611790150" lon="2.540786690">
        <ele>137.30</ele>
        <time>2014-04-06T08:08:26Z</time>
      </trkpt>
      <trkpt lat="41.611818480" lon="2.540788370">
        <ele>137.30</ele>
        <time>2014-04-06T08:08:27Z</time>
      </trkpt>
      <trkpt lat="41.611846810" lon="2.540788370">
        <ele>137.40</ele>
        <time>2014-04-06T08:08:28Z</time>
      </trkpt>
      <trkpt lat="41.611875140" lon="2.540790040">
        <ele>137.50</ele>
        <time>2014-04-06T08:08:29Z</time>
      </trkpt>
      <trkpt lat="41.611903470" lon="2.540790040">
        <ele>137.70</ele>
        <time>2014-04-06T08:08:30Z</time>
      </trkpt>
      <trkpt lat="41.611933480" lon="2.540793400">
        <ele>137.90</ele>
        <time>2014-04-06T08:08:31Z</time>
      </trkpt>
      <trkpt lat="41.611961810" lon="2.540795070">
        <ele>138.00</ele>
        <time>2014-04-06T08:08:32Z</time>
      </trkpt>
      <trkpt lat="41.611991820" lon="2.540796750">
        <ele>138.10</ele>
        <time>2014-04-06T08:08:33Z</time>
      </trkpt>
      <trkpt lat="41.612020150" lon="2.540796750">
        <ele>138.30</ele>
        <time>2014-04-06T08:08:34Z</time>
      </trkpt>
      <trkpt lat="41.612050160" lon="2.540798420">
        <ele>138.20</ele>
        <time>2014-04-06T08:08:35Z</time>
      </trkpt>
      <trkpt lat="41.612080000" lon="2.540796750">
        <ele>138.20</ele>
        <time>2014-04-06T08:08:36Z</time>
      </trkpt>
      <trkpt lat="41.612111680" lon="2.540796750">
        <ele>138.20</ele>
        <time>2014-04-06T08:08:37Z</time>
      </trkpt>
      <trkpt lat="41.612140010" lon="2.540798420">
        <ele>138.30</ele>
        <time>2014-04-06T08:08:38Z</time>
      </trkpt>
      <trkpt lat="41.612166660" lon="2.540801780">
        <ele>138.30</ele>
        <time>2014-04-06T08:08:39Z</time>
      </trkpt>
      <trkpt lat="41.612193490" lon="2.540801780">
        <ele>138.70</ele>
        <time>2014-04-06T08:08:40Z</time>
      </trkpt>
      <trkpt lat="41.612221820" lon="2.540803450">
        <ele>139.00</ele>
        <time>2014-04-06T08:08:41Z</time>
      </trkpt>
      <trkpt lat="41.612248470" lon="2.540805130">
        <ele>139.10</ele>
        <time>2014-04-06T08:08:42Z</time>
      </trkpt>
      <trkpt lat="41.612275130" lon="2.540806810">
        <ele>139.20</ele>
        <time>2014-04-06T08:08:43Z</time>
      </trkpt>
      <trkpt lat="41.612301780" lon="2.540806810">
        <ele>139.20</ele>
        <time>2014-04-06T08:08:44Z</time>
      </trkpt>
      <trkpt lat="41.612330110" lon="2.540808480">
        <ele>139.50</ele>
        <time>2014-04-06T08:08:45Z</time>
      </trkpt>
      <trkpt lat="41.612356770" lon="2.540810160">
        <ele>139.80</ele>
        <time>2014-04-06T08:08:46Z</time>
      </trkpt>
      <trkpt lat="41.612383420" lon="2.540810160">
        <ele>139.80</ele>
        <time>2014-04-06T08:08:47Z</time>
      </trkpt>
      <trkpt lat="41.612410070" lon="2.540811670">
        <ele>139.90</ele>
        <time>2014-04-06T08:08:48Z</time>
      </trkpt>
      <trkpt lat="41.612436730" lon="2.540813340">
        <ele>139.90</ele>
        <time>2014-04-06T08:08:49Z</time>
      </trkpt>
      <trkpt lat="41.612465060" lon="2.540813340">
        <ele>139.90</ele>
        <time>2014-04-06T08:08:50Z</time>
      </trkpt>
      <trkpt lat="41.612493390" lon="2.540813340">
        <ele>139.90</ele>
        <time>2014-04-06T08:08:51Z</time>
      </trkpt>
      <trkpt lat="41.612521720" lon="2.540815020">
        <ele>140.00</ele>
        <time>2014-04-06T08:08:52Z</time>
      </trkpt>
      <trkpt lat="41.612548380" lon="2.540818370">
        <ele>140.00</ele>
        <time>2014-04-06T08:08:53Z</time>
      </trkpt>
      <trkpt lat="41.612578380" lon="2.540813340">
        <ele>139.90</ele>
        <time>2014-04-06T08:08:54Z</time>
      </trkpt>
      <trkpt lat="41.612606710" lon="2.540810160">
        <ele>139.90</ele>
        <time>2014-04-06T08:08:55Z</time>
      </trkpt>
      <trkpt lat="41.612635040" lon="2.540811670">
        <ele>140.20</ele>
        <time>2014-04-06T08:08:56Z</time>
      </trkpt>
      <trkpt lat="41.612661700" lon="2.540815020">
        <ele>140.50</ele>
        <time>2014-04-06T08:08:57Z</time>
      </trkpt>
      <trkpt lat="41.612688350" lon="2.540813340">
        <ele>140.70</ele>
        <time>2014-04-06T08:08:58Z</time>
      </trkpt>
      <trkpt lat="41.612715010" lon="2.540816700">
        <ele>140.70</ele>
        <time>2014-04-06T08:08:59Z</time>
      </trkpt>
      <trkpt lat="41.612741660" lon="2.540820050">
        <ele>140.70</ele>
        <time>2014-04-06T08:09:00Z</time>
      </trkpt>
      <trkpt lat="41.612768480" lon="2.540821730">
        <ele>140.70</ele>
        <time>2014-04-06T08:09:01Z</time>
      </trkpt>
      <trkpt lat="41.612795140" lon="2.540823400">
        <ele>140.70</ele>
        <time>2014-04-06T08:09:02Z</time>
      </trkpt>
      <trkpt lat="41.612820120" lon="2.540826760">
        <ele>140.70</ele>
        <time>2014-04-06T08:09:03Z</time>
      </trkpt>
      <trkpt lat="41.612846770" lon="2.540828430">
        <ele>140.80</ele>
        <time>2014-04-06T08:09:04Z</time>
      </trkpt>
      <trkpt lat="41.612868400" lon="2.540838490">
        <ele>141.00</ele>
        <time>2014-04-06T08:09:05Z</time>
      </trkpt>
      <trkpt lat="41.612891700" lon="2.540843350">
        <ele>141.40</ele>
        <time>2014-04-06T08:09:06Z</time>
      </trkpt>
      <trkpt lat="41.612916680" lon="2.540845030">
        <ele>141.80</ele>
        <time>2014-04-06T08:09:07Z</time>
      </trkpt>
      <trkpt lat="41.612941820" lon="2.540846700">
        <ele>142.20</ele>
        <time>2014-04-06T08:09:08Z</time>
      </trkpt>
      <trkpt lat="41.612966800" lon="2.540848380">
        <ele>142.40</ele>
        <time>2014-04-06T08:09:09Z</time>
      </trkpt>
      <trkpt lat="41.612990100" lon="2.540850060">
        <ele>142.70</ele>
        <time>2014-04-06T08:09:10Z</time>
      </trkpt>
      <trkpt lat="41.613015080" lon="2.540851730">
        <ele>142.90</ele>
        <time>2014-04-06T08:09:11Z</time>
      </trkpt>
      <trkpt lat="41.613040060" lon="2.540851730">
        <ele>143.10</ele>
        <time>2014-04-06T08:09:12Z</time>
      </trkpt>
      <trkpt lat="41.613063360" lon="2.540855090">
        <ele>143.50</ele>
        <time>2014-04-06T08:09:13Z</time>
      </trkpt>
      <trkpt lat="41.613086660" lon="2.540856760">
        <ele>143.90</ele>
        <time>2014-04-06T08:09:14Z</time>
      </trkpt>
      <trkpt lat="41.613108450" lon="2.540856760">
        <ele>143.80</ele>
        <time>2014-04-06T08:09:15Z</time>
      </trkpt>
      <trkpt lat="41.613131760" lon="2.540858440">
        <ele>143.80</ele>
        <time>2014-04-06T08:09:16Z</time>
      </trkpt>
      <trkpt lat="41.613153380" lon="2.540858440">
        <ele>143.80</ele>
        <time>2014-04-06T08:09:17Z</time>
      </trkpt>
      <trkpt lat="41.613178360" lon="2.540860120">
        <ele>144.10</ele>
        <time>2014-04-06T08:09:18Z</time>
      </trkpt>
      <trkpt lat="41.613201830" lon="2.540863470">
        <ele>144.20</ele>
        <time>2014-04-06T08:09:19Z</time>
      </trkpt>
      <trkpt lat="41.613225130" lon="2.540865140">
        <ele>144.30</ele>
        <time>2014-04-06T08:09:20Z</time>
      </trkpt>
      <trkpt lat="41.613250110" lon="2.540868330">
        <ele>144.30</ele>
        <time>2014-04-06T08:09:21Z</time>
      </trkpt>
      <trkpt lat="41.613273410" lon="2.540870010">
        <ele>144.60</ele>
        <time>2014-04-06T08:09:22Z</time>
      </trkpt>
      <trkpt lat="41.613298390" lon="2.540871680">
        <ele>144.80</ele>
        <time>2014-04-06T08:09:23Z</time>
      </trkpt>
      <trkpt lat="41.613323370" lon="2.540875030">
        <ele>144.90</ele>
        <time>2014-04-06T08:09:24Z</time>
      </trkpt>
      <trkpt lat="41.613348340" lon="2.540878390">
        <ele>145.10</ele>
        <time>2014-04-06T08:09:25Z</time>
      </trkpt>
      <trkpt lat="41.613371810" lon="2.540878390">
        <ele>145.20</ele>
        <time>2014-04-06T08:09:26Z</time>
      </trkpt>
      <trkpt lat="41.613398470" lon="2.540878390">
        <ele>145.70</ele>
        <time>2014-04-06T08:09:27Z</time>
      </trkpt>
      <trkpt lat="41.613423450" lon="2.540881740">
        <ele>146.10</ele>
        <time>2014-04-06T08:09:28Z</time>
      </trkpt>
      <trkpt lat="41.613448420" lon="2.540883420">
        <ele>146.40</ele>
        <time>2014-04-06T08:09:29Z</time>
      </trkpt>
      <trkpt lat="41.613471730" lon="2.540886770">
        <ele>146.30</ele>
        <time>2014-04-06T08:09:30Z</time>
      </trkpt>
      <trkpt lat="41.613495030" lon="2.540890120">
        <ele>146.30</ele>
        <time>2014-04-06T08:09:31Z</time>
      </trkpt>
      <trkpt lat="41.613520010" lon="2.540893480">
        <ele>146.50</ele>
        <time>2014-04-06T08:09:32Z</time>
      </trkpt>
      <trkpt lat="41.613543480" lon="2.540898340">
        <ele>146.70</ele>
        <time>2014-04-06T08:09:33Z</time>
      </trkpt>
      <trkpt lat="41.613568450" lon="2.540901690">
        <ele>146.70</ele>
        <time>2014-04-06T08:09:34Z</time>
      </trkpt>
      <trkpt lat="41.613593430" lon="2.540906720">
        <ele>146.70</ele>
        <time>2014-04-06T08:09:35Z</time>
      </trkpt>
      <trkpt lat="41.613616730" lon="2.540913420">
        <ele>146.60</ele>
        <time>2014-04-06T08:09:36Z</time>
      </trkpt>
      <trkpt lat="41.613641710" lon="2.540916780">
        <ele>147.00</ele>
        <time>2014-04-06T08:09:37Z</time>
      </trkpt>
      <trkpt lat="41.613666690" lon="2.540921810">
        <ele>147.30</ele>
        <time>2014-04-06T08:09:38Z</time>
      </trkpt>
      <trkpt lat="41.613691670" lon="2.540928340">
        <ele>147.50</ele>
        <time>2014-04-06T08:09:39Z</time>
      </trkpt>
      <trkpt lat="41.613716810" lon="2.540933370">
        <ele>147.70</ele>
        <time>2014-04-06T08:09:40Z</time>
      </trkpt>
      <trkpt lat="41.613741790" lon="2.540940080">
        <ele>148.10</ele>
        <time>2014-04-06T08:09:41Z</time>
      </trkpt>
      <trkpt lat="41.613766770" lon="2.540946780">
        <ele>148.50</ele>
        <time>2014-04-06T08:09:42Z</time>
      </trkpt>
      <trkpt lat="41.613791750" lon="2.540951810">
        <ele>148.80</ele>
        <time>2014-04-06T08:09:43Z</time>
      </trkpt>
      <trkpt lat="41.613816730" lon="2.540956670">
        <ele>148.80</ele>
        <time>2014-04-06T08:09:44Z</time>
      </trkpt>
      <trkpt lat="41.613841700" lon="2.540961700">
        <ele>148.80</ele>
        <time>2014-04-06T08:09:45Z</time>
      </trkpt>
      <trkpt lat="41.613865010" lon="2.540971760">
        <ele>148.70</ele>
        <time>2014-04-06T08:09:46Z</time>
      </trkpt>
      <trkpt lat="41.613890150" lon="2.540980140">
        <ele>148.60</ele>
        <time>2014-04-06T08:09:47Z</time>
      </trkpt>
      <trkpt lat="41.613915130" lon="2.540988360">
        <ele>148.60</ele>
        <time>2014-04-06T08:09:48Z</time>
      </trkpt>
      <trkpt lat="41.613938430" lon="2.540996740">
        <ele>148.70</ele>
        <time>2014-04-06T08:09:49Z</time>
      </trkpt>
      <trkpt lat="41.613965090" lon="2.541001770">
        <ele>148.80</ele>
        <time>2014-04-06T08:09:50Z</time>
      </trkpt>
      <trkpt lat="41.613990060" lon="2.541006800">
        <ele>149.00</ele>
        <time>2014-04-06T08:09:51Z</time>
      </trkpt>
      <trkpt lat="41.614018390" lon="2.541008470">
        <ele>149.20</ele>
        <time>2014-04-06T08:09:52Z</time>
      </trkpt>
      <trkpt lat="41.614046730" lon="2.541008470">
        <ele>149.20</ele>
        <time>2014-04-06T08:09:53Z</time>
      </trkpt>
      <trkpt lat="41.614073380" lon="2.541011830">
        <ele>149.30</ele>
        <time>2014-04-06T08:09:54Z</time>
      </trkpt>
      <trkpt lat="41.614100030" lon="2.541018370">
        <ele>149.30</ele>
        <time>2014-04-06T08:09:55Z</time>
      </trkpt>
      <trkpt lat="41.614126690" lon="2.541023390">
        <ele>149.50</ele>
        <time>2014-04-06T08:09:56Z</time>
      </trkpt>
      <trkpt lat="41.614151670" lon="2.541035130">
        <ele>149.70</ele>
        <time>2014-04-06T08:09:57Z</time>
      </trkpt>
      <trkpt lat="41.614175140" lon="2.541045020">
        <ele>149.90</ele>
        <time>2014-04-06T08:09:58Z</time>
      </trkpt>
      <trkpt lat="41.614201790" lon="2.541050050">
        <ele>150.10</ele>
        <time>2014-04-06T08:09:59Z</time>
      </trkpt>
      <trkpt lat="41.614226770" lon="2.541055080">
        <ele>150.20</ele>
        <time>2014-04-06T08:10:00Z</time>
      </trkpt>
      <trkpt lat="41.614251750" lon="2.541060110">
        <ele>150.30</ele>
        <time>2014-04-06T08:10:01Z</time>
      </trkpt>
      <trkpt lat="41.614276720" lon="2.541066810">
        <ele>150.30</ele>
        <time>2014-04-06T08:10:02Z</time>
      </trkpt>
      <trkpt lat="41.614301700" lon="2.541075030">
        <ele>150.60</ele>
        <time>2014-04-06T08:10:03Z</time>
      </trkpt>
      <trkpt lat="41.614325000" lon="2.541083410">
        <ele>150.70</ele>
        <time>2014-04-06T08:10:04Z</time>
      </trkpt>
      <trkpt lat="41.614350150" lon="2.541090110">
        <ele>151.10</ele>
        <time>2014-04-06T08:10:05Z</time>
      </trkpt>
      <trkpt lat="41.614376800" lon="2.541098330">
        <ele>151.40</ele>
        <time>2014-04-06T08:10:06Z</time>
      </trkpt>
      <trkpt lat="41.614401780" lon="2.541105030">
        <ele>151.70</ele>
        <time>2014-04-06T08:10:07Z</time>
      </trkpt>
      <trkpt lat="41.614428440" lon="2.541110060">
        <ele>152.10</ele>
        <time>2014-04-06T08:10:08Z</time>
      </trkpt>
      <trkpt lat="41.614455090" lon="2.541116770">
        <ele>152.40</ele>
        <time>2014-04-06T08:10:09Z</time>
      </trkpt>
      <trkpt lat="41.614480070" lon="2.541123470">
        <ele>152.30</ele>
        <time>2014-04-06T08:10:10Z</time>
      </trkpt>
      <trkpt lat="41.614505050" lon="2.541128340">
        <ele>152.30</ele>
        <time>2014-04-06T08:10:11Z</time>
      </trkpt>
      <trkpt lat="41.614526670" lon="2.541135040">
        <ele>152.70</ele>
        <time>2014-04-06T08:10:12Z</time>
      </trkpt>
      <trkpt lat="41.614546790" lon="2.541141750">
        <ele>153.00</ele>
        <time>2014-04-06T08:10:13Z</time>
      </trkpt>
      <trkpt lat="41.614565060" lon="2.541143420">
        <ele>153.30</ele>
        <time>2014-04-06T08:10:14Z</time>
      </trkpt>
      <trkpt lat="41.614583330" lon="2.541146780">
        <ele>153.40</ele>
        <time>2014-04-06T08:10:15Z</time>
      </trkpt>
      <trkpt lat="41.614606800" lon="2.541150130">
        <ele>153.50</ele>
        <time>2014-04-06T08:10:16Z</time>
      </trkpt>
      <trkpt lat="41.614628430" lon="2.541161700">
        <ele>153.50</ele>
        <time>2014-04-06T08:10:17Z</time>
      </trkpt>
      <trkpt lat="41.614651730" lon="2.541170080">
        <ele>153.50</ele>
        <time>2014-04-06T08:10:18Z</time>
      </trkpt>
      <trkpt lat="41.614675030" lon="2.541176780">
        <ele>153.70</ele>
        <time>2014-04-06T08:10:19Z</time>
      </trkpt>
      <trkpt lat="41.614696830" lon="2.541181810">
        <ele>153.80</ele>
        <time>2014-04-06T08:10:20Z</time>
      </trkpt>
      <trkpt lat="41.614718450" lon="2.541195060">
        <ele>153.90</ele>
        <time>2014-04-06T08:10:21Z</time>
      </trkpt>
      <trkpt lat="41.614741750" lon="2.541205110">
        <ele>154.30</ele>
        <time>2014-04-06T08:10:22Z</time>
      </trkpt>
      <trkpt lat="41.614765050" lon="2.541215000">
        <ele>154.50</ele>
        <time>2014-04-06T08:10:23Z</time>
      </trkpt>
      <trkpt lat="41.614788360" lon="2.541221710">
        <ele>154.50</ele>
        <time>2014-04-06T08:10:24Z</time>
      </trkpt>
      <trkpt lat="41.614810150" lon="2.541235120">
        <ele>154.60</ele>
        <time>2014-04-06T08:10:25Z</time>
      </trkpt>
      <trkpt lat="41.614831770" lon="2.541246690">
        <ele>154.60</ele>
        <time>2014-04-06T08:10:26Z</time>
      </trkpt>
      <trkpt lat="41.614853400" lon="2.541256750">
        <ele>155.00</ele>
        <time>2014-04-06T08:10:27Z</time>
      </trkpt>
      <trkpt lat="41.614876700" lon="2.541265130">
        <ele>155.30</ele>
        <time>2014-04-06T08:10:28Z</time>
      </trkpt>
      <trkpt lat="41.614901680" lon="2.541270160">
        <ele>155.50</ele>
        <time>2014-04-06T08:10:29Z</time>
      </trkpt>
      <trkpt lat="41.614925150" lon="2.541280050">
        <ele>155.60</ele>
        <time>2014-04-06T08:10:30Z</time>
      </trkpt>
      <trkpt lat="41.614950130" lon="2.541288430">
        <ele>155.90</ele>
        <time>2014-04-06T08:10:31Z</time>
      </trkpt>
      <trkpt lat="41.614973430" lon="2.541295140">
        <ele>156.00</ele>
        <time>2014-04-06T08:10:32Z</time>
      </trkpt>
      <trkpt lat="41.614998410" lon="2.541303350">
        <ele>156.10</ele>
        <time>2014-04-06T08:10:33Z</time>
      </trkpt>
      <trkpt lat="41.615021710" lon="2.541308380">
        <ele>156.50</ele>
        <time>2014-04-06T08:10:34Z</time>
      </trkpt>
      <trkpt lat="41.615045010" lon="2.541315080">
        <ele>156.80</ele>
        <time>2014-04-06T08:10:35Z</time>
      </trkpt>
      <trkpt lat="41.615070160" lon="2.541321790">
        <ele>156.90</ele>
        <time>2014-04-06T08:10:36Z</time>
      </trkpt>
      <trkpt lat="41.615091780" lon="2.541328500">
        <ele>157.00</ele>
        <time>2014-04-06T08:10:37Z</time>
      </trkpt>
      <trkpt lat="41.615113410" lon="2.541335030">
        <ele>157.20</ele>
        <time>2014-04-06T08:10:38Z</time>
      </trkpt>
      <trkpt lat="41.615138380" lon="2.541341740">
        <ele>157.30</ele>
        <time>2014-04-06T08:10:39Z</time>
      </trkpt>
      <trkpt lat="41.615163360" lon="2.541348440">
        <ele>157.40</ele>
        <time>2014-04-06T08:10:40Z</time>
      </trkpt>
      <trkpt lat="41.615188340" lon="2.541353470">
        <ele>157.50</ele>
        <time>2014-04-06T08:10:41Z</time>
      </trkpt>
      <trkpt lat="41.615213490" lon="2.541358340">
        <ele>157.70</ele>
        <time>2014-04-06T08:10:42Z</time>
      </trkpt>
      <trkpt lat="41.615238460" lon="2.541365040">
        <ele>157.70</ele>
        <time>2014-04-06T08:10:43Z</time>
      </trkpt>
      <trkpt lat="41.615263440" lon="2.541371750">
        <ele>157.70</ele>
        <time>2014-04-06T08:10:44Z</time>
      </trkpt>
      <trkpt lat="41.615290100" lon="2.541378450">
        <ele>157.70</ele>
        <time>2014-04-06T08:10:45Z</time>
      </trkpt>
      <trkpt lat="41.615316750" lon="2.541386670">
        <ele>157.80</ele>
        <time>2014-04-06T08:10:46Z</time>
      </trkpt>
      <trkpt lat="41.615341730" lon="2.541398400">
        <ele>158.00</ele>
        <time>2014-04-06T08:10:47Z</time>
      </trkpt>
      <trkpt lat="41.615366710" lon="2.541408460">
        <ele>158.10</ele>
        <time>2014-04-06T08:10:48Z</time>
      </trkpt>
      <trkpt lat="41.615391690" lon="2.541420030">
        <ele>158.10</ele>
        <time>2014-04-06T08:10:49Z</time>
      </trkpt>
      <trkpt lat="41.615416660" lon="2.541430080">
        <ele>158.40</ele>
        <time>2014-04-06T08:10:50Z</time>
      </trkpt>
      <trkpt lat="41.615441810" lon="2.541443500">
        <ele>158.70</ele>
        <time>2014-04-06T08:10:51Z</time>
      </trkpt>
      <trkpt lat="41.615468460" lon="2.541455060">
        <ele>158.80</ele>
        <time>2014-04-06T08:10:52Z</time>
      </trkpt>
      <trkpt lat="41.615491770" lon="2.541466800">
        <ele>158.70</ele>
        <time>2014-04-06T08:10:53Z</time>
      </trkpt>
      <trkpt lat="41.615516740" lon="2.541481720">
        <ele>158.60</ele>
        <time>2014-04-06T08:10:54Z</time>
      </trkpt>
      <trkpt lat="41.615540040" lon="2.541496800">
        <ele>158.80</ele>
        <time>2014-04-06T08:10:55Z</time>
      </trkpt>
      <trkpt lat="41.615565020" lon="2.541511720">
        <ele>159.00</ele>
        <time>2014-04-06T08:10:56Z</time>
      </trkpt>
      <trkpt lat="41.615590000" lon="2.541525140">
        <ele>159.10</ele>
        <time>2014-04-06T08:10:57Z</time>
      </trkpt>
      <trkpt lat="41.615613470" lon="2.541538380">
        <ele>159.10</ele>
        <time>2014-04-06T08:10:58Z</time>
      </trkpt>
      <trkpt lat="41.615638450" lon="2.541553470">
        <ele>159.10</ele>
        <time>2014-04-06T08:10:59Z</time>
      </trkpt>
      <trkpt lat="41.615663430" lon="2.541568390">
        <ele>159.40</ele>
        <time>2014-04-06T08:11:00Z</time>
      </trkpt>
      <trkpt lat="41.615686730" lon="2.541581800">
        <ele>159.70</ele>
        <time>2014-04-06T08:11:01Z</time>
      </trkpt>
      <trkpt lat="41.615711710" lon="2.541595040">
        <ele>160.50</ele>
        <time>2014-04-06T08:11:02Z</time>
      </trkpt>
      <trkpt lat="41.615736680" lon="2.541608450">
        <ele>161.10</ele>
        <time>2014-04-06T08:11:03Z</time>
      </trkpt>
      <trkpt lat="41.615760150" lon="2.541621690">
        <ele>161.50</ele>
        <time>2014-04-06T08:11:04Z</time>
      </trkpt>
      <trkpt lat="41.615783460" lon="2.541636780">
        <ele>161.50</ele>
        <time>2014-04-06T08:11:05Z</time>
      </trkpt>
      <trkpt lat="41.615808430" lon="2.541650030">
        <ele>161.50</ele>
        <time>2014-04-06T08:11:06Z</time>
      </trkpt>
      <trkpt lat="41.615833410" lon="2.541665110">
        <ele>161.50</ele>
        <time>2014-04-06T08:11:07Z</time>
      </trkpt>
      <trkpt lat="41.615856710" lon="2.541680030">
        <ele>161.50</ele>
        <time>2014-04-06T08:11:08Z</time>
      </trkpt>
      <trkpt lat="41.615881690" lon="2.541695120">
        <ele>161.80</ele>
        <time>2014-04-06T08:11:09Z</time>
      </trkpt>
      <trkpt lat="41.615905160" lon="2.541708360">
        <ele>162.10</ele>
        <time>2014-04-06T08:11:10Z</time>
      </trkpt>
      <trkpt lat="41.615928460" lon="2.541723450">
        <ele>162.30</ele>
        <time>2014-04-06T08:11:11Z</time>
      </trkpt>
      <trkpt lat="41.615951760" lon="2.541738370">
        <ele>162.10</ele>
        <time>2014-04-06T08:11:12Z</time>
      </trkpt>
      <trkpt lat="41.615975070" lon="2.541753460">
        <ele>161.90</ele>
        <time>2014-04-06T08:11:13Z</time>
      </trkpt>
      <trkpt lat="41.615998370" lon="2.541768380">
        <ele>162.10</ele>
        <time>2014-04-06T08:11:14Z</time>
      </trkpt>
      <trkpt lat="41.616021670" lon="2.541781790">
        <ele>162.20</ele>
        <time>2014-04-06T08:11:15Z</time>
      </trkpt>
      <trkpt lat="41.616043460" lon="2.541798390">
        <ele>162.40</ele>
        <time>2014-04-06T08:11:16Z</time>
      </trkpt>
      <trkpt lat="41.616065090" lon="2.541815150">
        <ele>162.60</ele>
        <time>2014-04-06T08:11:17Z</time>
      </trkpt>
      <trkpt lat="41.616088390" lon="2.541830070">
        <ele>162.70</ele>
        <time>2014-04-06T08:11:18Z</time>
      </trkpt>
      <trkpt lat="41.616113370" lon="2.541845160">
        <ele>162.80</ele>
        <time>2014-04-06T08:11:19Z</time>
      </trkpt>
      <trkpt lat="41.616136670" lon="2.541860080">
        <ele>162.90</ele>
        <time>2014-04-06T08:11:20Z</time>
      </trkpt>
      <trkpt lat="41.616160140" lon="2.541875000">
        <ele>163.00</ele>
        <time>2014-04-06T08:11:21Z</time>
      </trkpt>
      <trkpt lat="41.616183440" lon="2.541890080">
        <ele>163.00</ele>
        <time>2014-04-06T08:11:22Z</time>
      </trkpt>
      <trkpt lat="41.616206740" lon="2.541905000">
        <ele>163.10</ele>
        <time>2014-04-06T08:11:23Z</time>
      </trkpt>
      <trkpt lat="41.616228370" lon="2.541918410">
        <ele>163.30</ele>
        <time>2014-04-06T08:11:24Z</time>
      </trkpt>
      <trkpt lat="41.616251670" lon="2.541933330">
        <ele>163.50</ele>
        <time>2014-04-06T08:11:25Z</time>
      </trkpt>
      <trkpt lat="41.616273460" lon="2.541950100">
        <ele>164.00</ele>
        <time>2014-04-06T08:11:26Z</time>
      </trkpt>
      <trkpt lat="41.616293410" lon="2.541966690">
        <ele>164.30</ele>
        <time>2014-04-06T08:11:27Z</time>
      </trkpt>
      <trkpt lat="41.616313360" lon="2.541980110">
        <ele>164.70</ele>
        <time>2014-04-06T08:11:28Z</time>
      </trkpt>
      <trkpt lat="41.616335150" lon="2.541991670">
        <ele>165.00</ele>
        <time>2014-04-06T08:11:29Z</time>
      </trkpt>
      <trkpt lat="41.616356780" lon="2.542003410">
        <ele>165.20</ele>
        <time>2014-04-06T08:11:30Z</time>
      </trkpt>
      <trkpt lat="41.616378400" lon="2.542013470">
        <ele>165.40</ele>
        <time>2014-04-06T08:11:31Z</time>
      </trkpt>
      <trkpt lat="41.616405060" lon="2.542021680">
        <ele>165.60</ele>
        <time>2014-04-06T08:11:32Z</time>
      </trkpt>
      <trkpt lat="41.616428360" lon="2.542030060">
        <ele>165.80</ele>
        <time>2014-04-06T08:11:33Z</time>
      </trkpt>
      <trkpt lat="41.616455010" lon="2.542036770">
        <ele>165.90</ele>
        <time>2014-04-06T08:11:34Z</time>
      </trkpt>
      <trkpt lat="41.616481670" lon="2.542040120">
        <ele>166.50</ele>
        <time>2014-04-06T08:11:35Z</time>
      </trkpt>
      <trkpt lat="41.616508490" lon="2.542045150">
        <ele>166.90</ele>
        <time>2014-04-06T08:11:36Z</time>
      </trkpt>
      <trkpt lat="41.616536820" lon="2.542048330">
        <ele>167.30</ele>
        <time>2014-04-06T08:11:37Z</time>
      </trkpt>
      <trkpt lat="41.616563480" lon="2.542050010">
        <ele>167.40</ele>
        <time>2014-04-06T08:11:38Z</time>
      </trkpt>
      <trkpt lat="41.616590130" lon="2.542046830">
        <ele>167.40</ele>
        <time>2014-04-06T08:11:39Z</time>
      </trkpt>
      <trkpt lat="41.616616780" lon="2.542043470">
        <ele>167.50</ele>
        <time>2014-04-06T08:11:40Z</time>
      </trkpt>
      <trkpt lat="41.616645120" lon="2.542036770">
        <ele>167.60</ele>
        <time>2014-04-06T08:11:41Z</time>
      </trkpt>
      <trkpt lat="41.616671770" lon="2.542028380">
        <ele>167.60</ele>
        <time>2014-04-06T08:11:42Z</time>
      </trkpt>
      <trkpt lat="41.616701780" lon="2.542018490">
        <ele>167.70</ele>
        <time>2014-04-06T08:11:43Z</time>
      </trkpt>
      <trkpt lat="41.616731780" lon="2.542005080">
        <ele>167.70</ele>
        <time>2014-04-06T08:11:44Z</time>
      </trkpt>
      <trkpt lat="41.616760110" lon="2.541988490">
        <ele>167.20</ele>
        <time>2014-04-06T08:11:45Z</time>
      </trkpt>
      <trkpt lat="41.616790120" lon="2.541971720">
        <ele>166.90</ele>
        <time>2014-04-06T08:11:46Z</time>
      </trkpt>
      <trkpt lat="41.616816780" lon="2.541955130">
        <ele>167.10</ele>
        <time>2014-04-06T08:11:47Z</time>
      </trkpt>
      <trkpt lat="41.616843430" lon="2.541938360">
        <ele>167.20</ele>
        <time>2014-04-06T08:11:48Z</time>
      </trkpt>
      <trkpt lat="41.616870090" lon="2.541918410">
        <ele>167.30</ele>
        <time>2014-04-06T08:11:49Z</time>
      </trkpt>
      <trkpt lat="41.616893390" lon="2.541896790">
        <ele>167.60</ele>
        <time>2014-04-06T08:11:50Z</time>
      </trkpt>
      <trkpt lat="41.616920040" lon="2.541878350">
        <ele>167.70</ele>
        <time>2014-04-06T08:11:51Z</time>
      </trkpt>
      <trkpt lat="41.616945020" lon="2.541858400">
        <ele>168.00</ele>
        <time>2014-04-06T08:11:52Z</time>
      </trkpt>
      <trkpt lat="41.616968490" lon="2.541838450">
        <ele>168.20</ele>
        <time>2014-04-06T08:11:53Z</time>
      </trkpt>
      <trkpt lat="41.616993470" lon="2.541815150">
        <ele>168.20</ele>
        <time>2014-04-06T08:11:54Z</time>
      </trkpt>
      <trkpt lat="41.617016770" lon="2.541793360">
        <ele>168.20</ele>
        <time>2014-04-06T08:11:55Z</time>
      </trkpt>
      <trkpt lat="41.617040070" lon="2.541771730">
        <ele>168.20</ele>
        <time>2014-04-06T08:11:56Z</time>
      </trkpt>
      <trkpt lat="41.617063370" lon="2.541748430">
        <ele>167.90</ele>
        <time>2014-04-06T08:11:57Z</time>
      </trkpt>
      <trkpt lat="41.617088350" lon="2.541725130">
        <ele>167.60</ele>
        <time>2014-04-06T08:11:58Z</time>
      </trkpt>
      <trkpt lat="41.617110140" lon="2.541703330">
        <ele>167.80</ele>
        <time>2014-04-06T08:11:59Z</time>
      </trkpt>
      <trkpt lat="41.617133440" lon="2.541678360">
        <ele>167.90</ele>
        <time>2014-04-06T08:12:00Z</time>
      </trkpt>
      <trkpt lat="41.617153390" lon="2.541653380">
        <ele>168.00</ele>
        <time>2014-04-06T08:12:01Z</time>
      </trkpt>
      <trkpt lat="41.617175020" lon="2.541628400">
        <ele>168.20</ele>
        <time>2014-04-06T08:12:02Z</time>
      </trkpt>
      <trkpt lat="41.617195140" lon="2.541603420">
        <ele>168.40</ele>
        <time>2014-04-06T08:12:03Z</time>
      </trkpt>
      <trkpt lat="41.617216760" lon="2.541580120">
        <ele>168.50</ele>
        <time>2014-04-06T08:12:04Z</time>
      </trkpt>
      <trkpt lat="41.617235030" lon="2.541553470">
        <ele>168.50</ele>
        <time>2014-04-06T08:12:05Z</time>
      </trkpt>
      <trkpt lat="41.617258340" lon="2.541528490">
        <ele>168.50</ele>
        <time>2014-04-06T08:12:06Z</time>
      </trkpt>
      <trkpt lat="41.617278450" lon="2.541503340">
        <ele>168.50</ele>
        <time>2014-04-06T08:12:07Z</time>
      </trkpt>
      <trkpt lat="41.617298400" lon="2.541475010">
        <ele>168.50</ele>
        <time>2014-04-06T08:12:08Z</time>
      </trkpt>
      <trkpt lat="41.617316670" lon="2.541446680">
        <ele>168.60</ele>
        <time>2014-04-06T08:12:09Z</time>
      </trkpt>
      <trkpt lat="41.617336790" lon="2.541416670">
        <ele>168.70</ele>
        <time>2014-04-06T08:12:10Z</time>
      </trkpt>
      <trkpt lat="41.617355060" lon="2.541386670">
        <ele>168.60</ele>
        <time>2014-04-06T08:12:11Z</time>
      </trkpt>
      <trkpt lat="41.617375010" lon="2.541358340">
        <ele>168.50</ele>
        <time>2014-04-06T08:12:12Z</time>
      </trkpt>
      <trkpt lat="41.617391780" lon="2.541328500">
        <ele>168.70</ele>
        <time>2014-04-06T08:12:13Z</time>
      </trkpt>
      <trkpt lat="41.617408370" lon="2.541298490">
        <ele>168.80</ele>
        <time>2014-04-06T08:12:14Z</time>
      </trkpt>
      <trkpt lat="41.617425130" lon="2.541270160">
        <ele>168.80</ele>
        <time>2014-04-06T08:12:15Z</time>
      </trkpt>
      <trkpt lat="41.617441730" lon="2.541241830">
        <ele>169.40</ele>
        <time>2014-04-06T08:12:16Z</time>
      </trkpt>
      <trkpt lat="41.617456820" lon="2.541213330">
        <ele>169.90</ele>
        <time>2014-04-06T08:12:17Z</time>
      </trkpt>
      <trkpt lat="41.617471740" lon="2.541185000">
        <ele>169.80</ele>
        <time>2014-04-06T08:12:18Z</time>
      </trkpt>
      <trkpt lat="41.617486830" lon="2.541156670">
        <ele>169.80</ele>
        <time>2014-04-06T08:12:19Z</time>
      </trkpt>
      <trkpt lat="41.617501750" lon="2.541130010">
        <ele>169.80</ele>
        <time>2014-04-06T08:12:20Z</time>
      </trkpt>
      <trkpt lat="41.617516670" lon="2.541103360">
        <ele>170.10</ele>
        <time>2014-04-06T08:12:21Z</time>
      </trkpt>
      <trkpt lat="41.617530080" lon="2.541075030">
        <ele>170.40</ele>
        <time>2014-04-06T08:12:22Z</time>
      </trkpt>
      <trkpt lat="41.617541810" lon="2.541045020">
        <ele>171.00</ele>
        <time>2014-04-06T08:12:23Z</time>
      </trkpt>
      <trkpt lat="41.617556730" lon="2.541015010">
        <ele>171.40</ele>
        <time>2014-04-06T08:12:24Z</time>
      </trkpt>
      <trkpt lat="41.617571820" lon="2.540983330">
        <ele>171.50</ele>
        <time>2014-04-06T08:12:25Z</time>
      </trkpt>
      <trkpt lat="41.617585060" lon="2.540951810">
        <ele>171.60</ele>
        <time>2014-04-06T08:12:26Z</time>
      </trkpt>
      <trkpt lat="41.617600150" lon="2.540921810">
        <ele>171.70</ele>
        <time>2014-04-06T08:12:27Z</time>
      </trkpt>
      <trkpt lat="41.617613390" lon="2.540891800">
        <ele>172.00</ele>
        <time>2014-04-06T08:12:28Z</time>
      </trkpt>
      <trkpt lat="41.617630160" lon="2.540861790">
        <ele>172.30</ele>
        <time>2014-04-06T08:12:29Z</time>
      </trkpt>
      <trkpt lat="41.617645080" lon="2.540835140">
        <ele>172.50</ele>
        <time>2014-04-06T08:12:30Z</time>
      </trkpt>
      <trkpt lat="41.617660000" lon="2.540806810">
        <ele>172.70</ele>
        <time>2014-04-06T08:12:31Z</time>
      </trkpt>
      <trkpt lat="41.617675080" lon="2.540778480">
        <ele>173.00</ele>
        <time>2014-04-06T08:12:32Z</time>
      </trkpt>
      <trkpt lat="41.617686820" lon="2.540750140">
        <ele>173.20</ele>
        <time>2014-04-06T08:12:33Z</time>
      </trkpt>
      <trkpt lat="41.617696710" lon="2.540720140">
        <ele>173.40</ele>
        <time>2014-04-06T08:12:34Z</time>
      </trkpt>
      <trkpt lat="41.617708440" lon="2.540693480">
        <ele>173.70</ele>
        <time>2014-04-06T08:12:35Z</time>
      </trkpt>
      <trkpt lat="41.617720010" lon="2.540668340">
        <ele>173.90</ele>
        <time>2014-04-06T08:12:36Z</time>
      </trkpt>
      <trkpt lat="41.617731750" lon="2.540643360">
        <ele>173.70</ele>
        <time>2014-04-06T08:12:37Z</time>
      </trkpt>
      <trkpt lat="41.617743480" lon="2.540618380">
        <ele>173.60</ele>
        <time>2014-04-06T08:12:38Z</time>
      </trkpt>
      <trkpt lat="41.617753370" lon="2.540595080">
        <ele>173.90</ele>
        <time>2014-04-06T08:12:39Z</time>
      </trkpt>
      <trkpt lat="41.617765100" lon="2.540571780">
        <ele>174.20</ele>
        <time>2014-04-06T08:12:40Z</time>
      </trkpt>
      <trkpt lat="41.617775000" lon="2.540546800">
        <ele>174.40</ele>
        <time>2014-04-06T08:12:41Z</time>
      </trkpt>
      <trkpt lat="41.617785050" lon="2.540525010">
        <ele>174.30</ele>
        <time>2014-04-06T08:12:42Z</time>
      </trkpt>
      <trkpt lat="41.617795110" lon="2.540501710">
        <ele>174.30</ele>
        <time>2014-04-06T08:12:43Z</time>
      </trkpt>
      <trkpt lat="41.617805000" lon="2.540480080">
        <ele>174.50</ele>
        <time>2014-04-06T08:12:44Z</time>
      </trkpt>
      <trkpt lat="41.617815060" lon="2.540456780">
        <ele>174.70</ele>
        <time>2014-04-06T08:12:45Z</time>
      </trkpt>
      <trkpt lat="41.617825120" lon="2.540433480">
        <ele>174.90</ele>
        <time>2014-04-06T08:12:46Z</time>
      </trkpt>
      <trkpt lat="41.617835010" lon="2.540408330">
        <ele>175.50</ele>
        <time>2014-04-06T08:12:47Z</time>
      </trkpt>
      <trkpt lat="41.617845070" lon="2.540383350">
        <ele>176.00</ele>
        <time>2014-04-06T08:12:48Z</time>
      </trkpt>
      <trkpt lat="41.617855130" lon="2.540355020">
        <ele>176.30</ele>
        <time>2014-04-06T08:12:49Z</time>
      </trkpt>
      <trkpt lat="41.617865020" lon="2.540330040">
        <ele>176.50</ele>
        <time>2014-04-06T08:12:50Z</time>
      </trkpt>
      <trkpt lat="41.617876750" lon="2.540305070">
        <ele>177.00</ele>
        <time>2014-04-06T08:12:51Z</time>
      </trkpt>
      <trkpt lat="41.617888490" lon="2.540283440">
        <ele>177.40</ele>
        <time>2014-04-06T08:12:52Z</time>
      </trkpt>
      <trkpt lat="41.617898380" lon="2.540260140">
        <ele>177.60</ele>
        <time>2014-04-06T08:12:53Z</time>
      </trkpt>
      <trkpt lat="41.617908440" lon="2.540236670">
        <ele>177.80</ele>
        <time>2014-04-06T08:12:54Z</time>
      </trkpt>
      <trkpt lat="41.617918490" lon="2.540213370">
        <ele>177.90</ele>
        <time>2014-04-06T08:12:55Z</time>
      </trkpt>
      <trkpt lat="41.617928380" lon="2.540190070">
        <ele>178.20</ele>
        <time>2014-04-06T08:12:56Z</time>
      </trkpt>
      <trkpt lat="41.617940120" lon="2.540170120">
        <ele>178.40</ele>
        <time>2014-04-06T08:12:57Z</time>
      </trkpt>
      <trkpt lat="41.617956720" lon="2.540155030">
        <ele>178.60</ele>
        <time>2014-04-06T08:12:58Z</time>
      </trkpt>
      <trkpt lat="41.617975160" lon="2.540148490">
        <ele>178.70</ele>
        <time>2014-04-06T08:12:59Z</time>
      </trkpt>
      <trkpt lat="41.617993430" lon="2.540150000">
        <ele>178.80</ele>
        <time>2014-04-06T08:13:00Z</time>
      </trkpt>
      <trkpt lat="41.618010020" lon="2.540156710">
        <ele>179.20</ele>
        <time>2014-04-06T08:13:01Z</time>
      </trkpt>
      <trkpt lat="41.618026790" lon="2.540173470">
        <ele>179.40</ele>
        <time>2014-04-06T08:13:02Z</time>
      </trkpt>
      <trkpt lat="41.618038360" lon="2.540196770">
        <ele>179.40</ele>
        <time>2014-04-06T08:13:03Z</time>
      </trkpt>
      <trkpt lat="41.618050090" lon="2.540223430">
        <ele>179.40</ele>
        <time>2014-04-06T08:13:04Z</time>
      </trkpt>
      <trkpt lat="41.618055120" lon="2.540253430">
        <ele>179.40</ele>
        <time>2014-04-06T08:13:05Z</time>
      </trkpt>
      <trkpt lat="41.618056800" lon="2.540285120">
        <ele>180.50</ele>
        <time>2014-04-06T08:13:06Z</time>
      </trkpt>
      <trkpt lat="41.618056800" lon="2.540318480">
        <ele>181.30</ele>
        <time>2014-04-06T08:13:07Z</time>
      </trkpt>
      <trkpt lat="41.618056800" lon="2.540350160">
        <ele>181.40</ele>
        <time>2014-04-06T08:13:08Z</time>
      </trkpt>
      <trkpt lat="41.618055120" lon="2.540380000">
        <ele>181.60</ele>
        <time>2014-04-06T08:13:09Z</time>
      </trkpt>
      <trkpt lat="41.618053440" lon="2.540410010">
        <ele>182.10</ele>
        <time>2014-04-06T08:13:10Z</time>
      </trkpt>
      <trkpt lat="41.618051770" lon="2.540438340">
        <ele>182.60</ele>
        <time>2014-04-06T08:13:11Z</time>
      </trkpt>
      <trkpt lat="41.618048410" lon="2.540466670">
        <ele>182.90</ele>
        <time>2014-04-06T08:13:12Z</time>
      </trkpt>
      <trkpt lat="41.618043380" lon="2.540493490">
        <ele>182.80</ele>
        <time>2014-04-06T08:13:13Z</time>
      </trkpt>
      <trkpt lat="41.618035000" lon="2.540518470">
        <ele>182.80</ele>
        <time>2014-04-06T08:13:14Z</time>
      </trkpt>
      <trkpt lat="41.618025110" lon="2.540545120">
        <ele>183.00</ele>
        <time>2014-04-06T08:13:15Z</time>
      </trkpt>
      <trkpt lat="41.618015050" lon="2.540570100">
        <ele>183.20</ele>
        <time>2014-04-06T08:13:16Z</time>
      </trkpt>
      <trkpt lat="41.618003490" lon="2.540591730">
        <ele>183.40</ele>
        <time>2014-04-06T08:13:17Z</time>
      </trkpt>
      <trkpt lat="41.617990080" lon="2.540613350">
        <ele>183.60</ele>
        <time>2014-04-06T08:13:18Z</time>
      </trkpt>
      <trkpt lat="41.617976660" lon="2.540635140">
        <ele>183.70</ele>
        <time>2014-04-06T08:13:19Z</time>
      </trkpt>
      <trkpt lat="41.617963420" lon="2.540656770">
        <ele>184.10</ele>
        <time>2014-04-06T08:13:20Z</time>
      </trkpt>
      <trkpt lat="41.617951690" lon="2.540681750">
        <ele>184.40</ele>
        <time>2014-04-06T08:13:21Z</time>
      </trkpt>
      <trkpt lat="41.617941800" lon="2.540705050">
        <ele>184.80</ele>
        <time>2014-04-06T08:13:22Z</time>
      </trkpt>
      <trkpt lat="41.617931740" lon="2.540730030">
        <ele>185.10</ele>
        <time>2014-04-06T08:13:23Z</time>
      </trkpt>
      <trkpt lat="41.617925030" lon="2.540753330">
        <ele>185.30</ele>
        <time>2014-04-06T08:13:24Z</time>
      </trkpt>
      <trkpt lat="41.617921680" lon="2.540780150">
        <ele>185.30</ele>
        <time>2014-04-06T08:13:25Z</time>
      </trkpt>
      <trkpt lat="41.617918490" lon="2.540806810">
        <ele>185.30</ele>
        <time>2014-04-06T08:13:26Z</time>
      </trkpt>
      <trkpt lat="41.617916820" lon="2.540835140">
        <ele>185.70</ele>
        <time>2014-04-06T08:13:27Z</time>
      </trkpt>
      <trkpt lat="41.617915140" lon="2.540865140">
        <ele>185.90</ele>
        <time>2014-04-06T08:13:28Z</time>
      </trkpt>
      <trkpt lat="41.617916820" lon="2.540895150">
        <ele>186.20</ele>
        <time>2014-04-06T08:13:29Z</time>
      </trkpt>
      <trkpt lat="41.617921680" lon="2.540925160">
        <ele>186.50</ele>
        <time>2014-04-06T08:13:30Z</time>
      </trkpt>
      <trkpt lat="41.617928380" lon="2.540953490">
        <ele>186.60</ele>
        <time>2014-04-06T08:13:31Z</time>
      </trkpt>
      <trkpt lat="41.617935090" lon="2.540980140">
        <ele>186.70</ele>
        <time>2014-04-06T08:13:32Z</time>
      </trkpt>
      <trkpt lat="41.617943470" lon="2.541008470">
        <ele>186.80</ele>
        <time>2014-04-06T08:13:33Z</time>
      </trkpt>
      <trkpt lat="41.617953360" lon="2.541035130">
        <ele>187.00</ele>
        <time>2014-04-06T08:13:34Z</time>
      </trkpt>
      <trkpt lat="41.617963420" lon="2.541063460">
        <ele>187.10</ele>
        <time>2014-04-06T08:13:35Z</time>
      </trkpt>
      <trkpt lat="41.617973480" lon="2.541091790">
        <ele>187.20</ele>
        <time>2014-04-06T08:13:36Z</time>
      </trkpt>
      <trkpt lat="41.617983370" lon="2.541120120">
        <ele>187.20</ele>
        <time>2014-04-06T08:13:37Z</time>
      </trkpt>
      <trkpt lat="41.617995100" lon="2.541148450">
        <ele>187.30</ele>
        <time>2014-04-06T08:13:38Z</time>
      </trkpt>
      <trkpt lat="41.618006670" lon="2.541176780">
        <ele>187.40</ele>
        <time>2014-04-06T08:13:39Z</time>
      </trkpt>
      <trkpt lat="41.618016730" lon="2.541205110">
        <ele>187.40</ele>
        <time>2014-04-06T08:13:40Z</time>
      </trkpt>
      <trkpt lat="41.618028460" lon="2.541235120">
        <ele>187.80</ele>
        <time>2014-04-06T08:13:41Z</time>
      </trkpt>
      <trkpt lat="41.618040030" lon="2.541263450">
        <ele>188.10</ele>
        <time>2014-04-06T08:13:42Z</time>
      </trkpt>
      <trkpt lat="41.618050090" lon="2.541293460">
        <ele>188.30</ele>
        <time>2014-04-06T08:13:43Z</time>
      </trkpt>
      <trkpt lat="41.618061820" lon="2.541323470">
        <ele>188.40</ele>
        <time>2014-04-06T08:13:44Z</time>
      </trkpt>
      <trkpt lat="41.618073390" lon="2.541353470">
        <ele>188.50</ele>
        <time>2014-04-06T08:13:45Z</time>
      </trkpt>
      <trkpt lat="41.618085130" lon="2.541380130">
        <ele>188.50</ele>
        <time>2014-04-06T08:13:46Z</time>
      </trkpt>
      <trkpt lat="41.618095020" lon="2.541408460">
        <ele>188.50</ele>
        <time>2014-04-06T08:13:47Z</time>
      </trkpt>
      <trkpt lat="41.618106750" lon="2.541435110">
        <ele>188.70</ele>
        <time>2014-04-06T08:13:48Z</time>
      </trkpt>
      <trkpt lat="41.618118490" lon="2.541461770">
        <ele>188.90</ele>
        <time>2014-04-06T08:13:49Z</time>
      </trkpt>
      <trkpt lat="41.618130050" lon="2.541490100">
        <ele>189.00</ele>
        <time>2014-04-06T08:13:50Z</time>
      </trkpt>
      <trkpt lat="41.618141790" lon="2.541515080">
        <ele>188.90</ele>
        <time>2014-04-06T08:13:51Z</time>
      </trkpt>
      <trkpt lat="41.618153350" lon="2.541541730">
        <ele>188.80</ele>
        <time>2014-04-06T08:13:52Z</time>
      </trkpt>
      <trkpt lat="41.618165090" lon="2.541570060">
        <ele>189.10</ele>
        <time>2014-04-06T08:13:53Z</time>
      </trkpt>
      <trkpt lat="41.618176820" lon="2.541598390">
        <ele>189.30</ele>
        <time>2014-04-06T08:13:54Z</time>
      </trkpt>
      <trkpt lat="41.618188390" lon="2.541626720">
        <ele>189.30</ele>
        <time>2014-04-06T08:13:55Z</time>
      </trkpt>
      <trkpt lat="41.618196770" lon="2.541656730">
        <ele>189.30</ele>
        <time>2014-04-06T08:13:56Z</time>
      </trkpt>
      <trkpt lat="41.618206660" lon="2.541686740">
        <ele>189.30</ele>
        <time>2014-04-06T08:13:57Z</time>
      </trkpt>
      <trkpt lat="41.618218400" lon="2.541716750">
        <ele>189.60</ele>
        <time>2014-04-06T08:13:58Z</time>
      </trkpt>
      <trkpt lat="41.618230130" lon="2.541745080">
        <ele>189.70</ele>
        <time>2014-04-06T08:13:59Z</time>
      </trkpt>
      <trkpt lat="41.618243380" lon="2.541771730">
        <ele>190.00</ele>
        <time>2014-04-06T08:14:00Z</time>
      </trkpt>
      <trkpt lat="41.618258460" lon="2.541800060">
        <ele>190.30</ele>
        <time>2014-04-06T08:14:01Z</time>
      </trkpt>
      <trkpt lat="41.618268350" lon="2.541828390">
        <ele>190.50</ele>
        <time>2014-04-06T08:14:02Z</time>
      </trkpt>
      <trkpt lat="41.618280090" lon="2.541858400">
        <ele>190.90</ele>
        <time>2014-04-06T08:14:03Z</time>
      </trkpt>
      <trkpt lat="41.618291820" lon="2.541886730">
        <ele>191.30</ele>
        <time>2014-04-06T08:14:04Z</time>
      </trkpt>
      <trkpt lat="41.618301710" lon="2.541915060">
        <ele>191.40</ele>
        <time>2014-04-06T08:14:05Z</time>
      </trkpt>
      <trkpt lat="41.618315130" lon="2.541945070">
        <ele>191.50</ele>
        <time>2014-04-06T08:14:06Z</time>
      </trkpt>
      <trkpt lat="41.618328370" lon="2.541971720">
        <ele>191.40</ele>
        <time>2014-04-06T08:14:07Z</time>
      </trkpt>
      <trkpt lat="41.618340100" lon="2.542000050">
        <ele>191.30</ele>
        <time>2014-04-06T08:14:08Z</time>
      </trkpt>
      <trkpt lat="41.618353350" lon="2.542025030">
        <ele>191.30</ele>
        <time>2014-04-06T08:14:09Z</time>
      </trkpt>
      <trkpt lat="41.618365080" lon="2.542051690">
        <ele>191.60</ele>
        <time>2014-04-06T08:14:10Z</time>
      </trkpt>
      <trkpt lat="41.618378490" lon="2.542078340">
        <ele>191.80</ele>
        <time>2014-04-06T08:14:11Z</time>
      </trkpt>
      <trkpt lat="41.618390060" lon="2.542105000">
        <ele>192.20</ele>
        <time>2014-04-06T08:14:12Z</time>
      </trkpt>
      <trkpt lat="41.618401790" lon="2.542131820">
        <ele>192.50</ele>
        <time>2014-04-06T08:14:13Z</time>
      </trkpt>
      <trkpt lat="41.618415040" lon="2.542156800">
        <ele>192.50</ele>
        <time>2014-04-06T08:14:14Z</time>
      </trkpt>
      <trkpt lat="41.618430130" lon="2.542181770">
        <ele>192.50</ele>
        <time>2014-04-06T08:14:15Z</time>
      </trkpt>
      <trkpt lat="41.618445040" lon="2.542205080">
        <ele>192.50</ele>
        <time>2014-04-06T08:14:16Z</time>
      </trkpt>
      <trkpt lat="41.618460130" lon="2.542226700">
        <ele>192.80</ele>
        <time>2014-04-06T08:14:17Z</time>
      </trkpt>
      <trkpt lat="41.618475050" lon="2.542248490">
        <ele>192.90</ele>
        <time>2014-04-06T08:14:18Z</time>
      </trkpt>
      <trkpt lat="41.618493490" lon="2.542270120">
        <ele>193.20</ele>
        <time>2014-04-06T08:14:19Z</time>
      </trkpt>
      <trkpt lat="41.618513440" lon="2.542291740">
        <ele>193.40</ele>
        <time>2014-04-06T08:14:20Z</time>
      </trkpt>
      <trkpt lat="41.618531710" lon="2.542311690">
        <ele>193.50</ele>
        <time>2014-04-06T08:14:21Z</time>
      </trkpt>
      <trkpt lat="41.618550150" lon="2.542333490">
        <ele>193.50</ele>
        <time>2014-04-06T08:14:22Z</time>
      </trkpt>
      <trkpt lat="41.618568430" lon="2.542355110">
        <ele>193.50</ele>
        <time>2014-04-06T08:14:23Z</time>
      </trkpt>
      <trkpt lat="41.618585020" lon="2.542376740">
        <ele>193.90</ele>
        <time>2014-04-06T08:14:24Z</time>
      </trkpt>
      <trkpt lat="41.618603460" lon="2.542398360">
        <ele>194.20</ele>
        <time>2014-04-06T08:14:25Z</time>
      </trkpt>
      <trkpt lat="41.618621740" lon="2.542416800">
        <ele>194.50</ele>
        <time>2014-04-06T08:14:26Z</time>
      </trkpt>
      <trkpt lat="41.618640010" lon="2.542436750">
        <ele>194.70</ele>
        <time>2014-04-06T08:14:27Z</time>
      </trkpt>
      <trkpt lat="41.618656770" lon="2.542456700">
        <ele>194.80</ele>
        <time>2014-04-06T08:14:28Z</time>
      </trkpt>
      <trkpt lat="41.618675040" lon="2.542475140">
        <ele>195.10</ele>
        <time>2014-04-06T08:14:29Z</time>
      </trkpt>
      <trkpt lat="41.618693480" lon="2.542493410">
        <ele>195.30</ele>
        <time>2014-04-06T08:14:30Z</time>
      </trkpt>
      <trkpt lat="41.618710080" lon="2.542511690">
        <ele>195.80</ele>
        <time>2014-04-06T08:14:31Z</time>
      </trkpt>
      <trkpt lat="41.618728350" lon="2.542528450">
        <ele>196.10</ele>
        <time>2014-04-06T08:14:32Z</time>
      </trkpt>
      <trkpt lat="41.618748470" lon="2.542546720">
        <ele>196.00</ele>
        <time>2014-04-06T08:14:33Z</time>
      </trkpt>
      <trkpt lat="41.618766740" lon="2.542565160">
        <ele>196.00</ele>
        <time>2014-04-06T08:14:34Z</time>
      </trkpt>
      <trkpt lat="41.618785010" lon="2.542583430">
        <ele>196.00</ele>
        <time>2014-04-06T08:14:35Z</time>
      </trkpt>
      <trkpt lat="41.618803460" lon="2.542601710">
        <ele>196.30</ele>
        <time>2014-04-06T08:14:36Z</time>
      </trkpt>
      <trkpt lat="41.618821730" lon="2.542620150">
        <ele>196.50</ele>
        <time>2014-04-06T08:14:37Z</time>
      </trkpt>
      <trkpt lat="41.618838490" lon="2.542636740">
        <ele>196.80</ele>
        <time>2014-04-06T08:14:38Z</time>
      </trkpt>
      <trkpt lat="41.618860120" lon="2.542651660">
        <ele>197.00</ele>
        <time>2014-04-06T08:14:39Z</time>
      </trkpt>
      <trkpt lat="41.618880070" lon="2.542666750">
        <ele>197.20</ele>
        <time>2014-04-06T08:14:40Z</time>
      </trkpt>
      <trkpt lat="41.618900010" lon="2.542680160">
        <ele>197.50</ele>
        <time>2014-04-06T08:14:41Z</time>
      </trkpt>
      <trkpt lat="41.618923480" lon="2.542691730">
        <ele>197.70</ele>
        <time>2014-04-06T08:14:42Z</time>
      </trkpt>
      <trkpt lat="41.618946790" lon="2.542701790">
        <ele>197.90</ele>
        <time>2014-04-06T08:14:43Z</time>
      </trkpt>
      <trkpt lat="41.618970090" lon="2.542710000">
        <ele>198.00</ele>
        <time>2014-04-06T08:14:44Z</time>
      </trkpt>
      <trkpt lat="41.618995070" lon="2.542716710">
        <ele>198.60</ele>
        <time>2014-04-06T08:14:45Z</time>
      </trkpt>
      <trkpt lat="41.619018370" lon="2.542721740">
        <ele>199.10</ele>
        <time>2014-04-06T08:14:46Z</time>
      </trkpt>
      <trkpt lat="41.619043350" lon="2.542723410">
        <ele>199.40</ele>
        <time>2014-04-06T08:14:47Z</time>
      </trkpt>
      <trkpt lat="41.619070000" lon="2.542721740">
        <ele>199.30</ele>
        <time>2014-04-06T08:14:48Z</time>
      </trkpt>
      <trkpt lat="41.619096820" lon="2.542716710">
        <ele>199.20</ele>
        <time>2014-04-06T08:14:49Z</time>
      </trkpt>
      <trkpt lat="41.619121800" lon="2.542710000">
        <ele>199.20</ele>
        <time>2014-04-06T08:14:50Z</time>
      </trkpt>
      <trkpt lat="41.619146780" lon="2.542706820">
        <ele>199.30</ele>
        <time>2014-04-06T08:14:51Z</time>
      </trkpt>
      <trkpt lat="41.619171760" lon="2.542701790">
        <ele>199.70</ele>
        <time>2014-04-06T08:14:52Z</time>
      </trkpt>
      <trkpt lat="41.619198410" lon="2.542696760">
        <ele>200.00</ele>
        <time>2014-04-06T08:14:53Z</time>
      </trkpt>
      <trkpt lat="41.619221710" lon="2.542693410">
        <ele>200.20</ele>
        <time>2014-04-06T08:14:54Z</time>
      </trkpt>
      <trkpt lat="41.619245010" lon="2.542690050">
        <ele>200.30</ele>
        <time>2014-04-06T08:14:55Z</time>
      </trkpt>
      <trkpt lat="41.619268480" lon="2.542686700">
        <ele>200.40</ele>
        <time>2014-04-06T08:14:56Z</time>
      </trkpt>
      <trkpt lat="41.619291780" lon="2.542685020">
        <ele>200.30</ele>
        <time>2014-04-06T08:14:57Z</time>
      </trkpt>
      <trkpt lat="41.619316760" lon="2.542685020">
        <ele>200.30</ele>
        <time>2014-04-06T08:14:58Z</time>
      </trkpt>
      <trkpt lat="41.619341740" lon="2.542688380">
        <ele>200.30</ele>
        <time>2014-04-06T08:14:59Z</time>
      </trkpt>
      <trkpt lat="41.619366720" lon="2.542691730">
        <ele>200.30</ele>
        <time>2014-04-06T08:15:00Z</time>
      </trkpt>
      <trkpt lat="41.619391700" lon="2.542698430">
        <ele>200.30</ele>
        <time>2014-04-06T08:15:01Z</time>
      </trkpt>
      <trkpt lat="41.619416680" lon="2.542706820">
        <ele>200.80</ele>
        <time>2014-04-06T08:15:02Z</time>
      </trkpt>
      <trkpt lat="41.619440140" lon="2.542716710">
        <ele>201.30</ele>
        <time>2014-04-06T08:15:03Z</time>
      </trkpt>
      <trkpt lat="41.619463450" lon="2.542728440">
        <ele>201.20</ele>
        <time>2014-04-06T08:15:04Z</time>
      </trkpt>
      <trkpt lat="41.619486750" lon="2.542745040">
        <ele>201.20</ele>
        <time>2014-04-06T08:15:05Z</time>
      </trkpt>
      <trkpt lat="41.619513400" lon="2.542771690">
        <ele>201.20</ele>
        <time>2014-04-06T08:15:06Z</time>
      </trkpt>
      <trkpt lat="41.619541730" lon="2.542800020">
        <ele>201.50</ele>
        <time>2014-04-06T08:15:07Z</time>
      </trkpt>
      <trkpt lat="41.619573420" lon="2.542826680">
        <ele>201.70</ele>
        <time>2014-04-06T08:15:08Z</time>
      </trkpt>
      <trkpt lat="41.619605100" lon="2.542860040">
        <ele>201.80</ele>
        <time>2014-04-06T08:15:09Z</time>
      </trkpt>
      <trkpt lat="41.619638460" lon="2.542898430">
        <ele>202.00</ele>
        <time>2014-04-06T08:15:10Z</time>
      </trkpt>
      <trkpt lat="41.619670140" lon="2.542940000">
        <ele>202.00</ele>
        <time>2014-04-06T08:15:11Z</time>
      </trkpt>
      <trkpt lat="41.619703340" lon="2.542988450">
        <ele>202.00</ele>
        <time>2014-04-06T08:15:12Z</time>
      </trkpt>
      <trkpt lat="41.619733340" lon="2.543040080">
        <ele>202.00</ele>
        <time>2014-04-06T08:15:13Z</time>
      </trkpt>
      <trkpt lat="41.619765030" lon="2.543098420">
        <ele>202.00</ele>
        <time>2014-04-06T08:15:14Z</time>
      </trkpt>
      <trkpt lat="41.619798390" lon="2.543158430">
        <ele>202.00</ele>
        <time>2014-04-06T08:15:15Z</time>
      </trkpt>
      <trkpt lat="41.619836780" lon="2.543218450">
        <ele>201.80</ele>
        <time>2014-04-06T08:15:16Z</time>
      </trkpt>
      <trkpt lat="41.619875000" lon="2.543285000">
        <ele>201.70</ele>
        <time>2014-04-06T08:15:17Z</time>
      </trkpt>
      <trkpt lat="41.619896790" lon="2.543366810">
        <ele>201.70</ele>
        <time>2014-04-06T08:15:18Z</time>
      </trkpt>
      <trkpt lat="41.619901820" lon="2.543460010">
        <ele>200.90</ele>
        <time>2014-04-06T08:15:19Z</time>
      </trkpt>
      <trkpt lat="41.619890090" lon="2.543556740">
        <ele>200.30</ele>
        <time>2014-04-06T08:15:20Z</time>
      </trkpt>
      <trkpt lat="41.619863430" lon="2.543658330">
        <ele>199.60</ele>
        <time>2014-04-06T08:15:21Z</time>
      </trkpt>
      <trkpt lat="41.619830070" lon="2.543756730">
        <ele>199.10</ele>
        <time>2014-04-06T08:15:22Z</time>
      </trkpt>
      <trkpt lat="41.619795030" lon="2.543858490">
        <ele>198.20</ele>
        <time>2014-04-06T08:15:23Z</time>
      </trkpt>
      <trkpt lat="41.619760000" lon="2.543963430">
        <ele>197.60</ele>
        <time>2014-04-06T08:15:24Z</time>
      </trkpt>
      <trkpt lat="41.619721780" lon="2.544071730">
        <ele>197.10</ele>
        <time>2014-04-06T08:15:25Z</time>
      </trkpt>
      <trkpt lat="41.619675010" lon="2.544178340">
        <ele>196.20</ele>
        <time>2014-04-06T08:15:26Z</time>
      </trkpt>
      <trkpt lat="41.619626730" lon="2.544285130">
        <ele>195.50</ele>
        <time>2014-04-06T08:15:27Z</time>
      </trkpt>
      <trkpt lat="41.619575090" lon="2.544395100">
        <ele>194.80</ele>
        <time>2014-04-06T08:15:28Z</time>
      </trkpt>
      <trkpt lat="41.619526810" lon="2.544508420">
        <ele>194.30</ele>
        <time>2014-04-06T08:15:29Z</time>
      </trkpt>
      <trkpt lat="41.619490100" lon="2.544628450">
        <ele>193.30</ele>
        <time>2014-04-06T08:15:30Z</time>
      </trkpt>
      <trkpt lat="41.619466800" lon="2.544750160">
        <ele>192.50</ele>
        <time>2014-04-06T08:15:31Z</time>
      </trkpt>
      <trkpt lat="41.619453390" lon="2.544883430">
        <ele>192.00</ele>
        <time>2014-04-06T08:15:32Z</time>
      </trkpt>
      <trkpt lat="41.619445010" lon="2.545023410">
        <ele>191.20</ele>
        <time>2014-04-06T08:15:33Z</time>
      </trkpt>
      <trkpt lat="41.619438470" lon="2.545166740">
        <ele>190.60</ele>
        <time>2014-04-06T08:15:34Z</time>
      </trkpt>
      <trkpt lat="41.619423380" lon="2.545310070">
        <ele>189.60</ele>
        <time>2014-04-06T08:15:35Z</time>
      </trkpt>
      <trkpt lat="41.619406780" lon="2.545453400">
        <ele>188.80</ele>
        <time>2014-04-06T08:15:36Z</time>
      </trkpt>
      <trkpt lat="41.619398400" lon="2.545598410">
        <ele>188.20</ele>
        <time>2014-04-06T08:15:37Z</time>
      </trkpt>
      <trkpt lat="41.619400080" lon="2.545746760">
        <ele>187.70</ele>
        <time>2014-04-06T08:15:38Z</time>
      </trkpt>
      <trkpt lat="41.619400080" lon="2.545896800">
        <ele>187.30</ele>
        <time>2014-04-06T08:15:39Z</time>
      </trkpt>
      <trkpt lat="41.619386670" lon="2.546043480">
        <ele>186.30</ele>
        <time>2014-04-06T08:15:40Z</time>
      </trkpt>
      <trkpt lat="41.619360010" lon="2.546185140">
        <ele>185.60</ele>
        <time>2014-04-06T08:15:41Z</time>
      </trkpt>
      <trkpt lat="41.619335040" lon="2.546325120">
        <ele>184.50</ele>
        <time>2014-04-06T08:15:42Z</time>
      </trkpt>
      <trkpt lat="41.619328330" lon="2.546460060">
        <ele>183.60</ele>
        <time>2014-04-06T08:15:43Z</time>
      </trkpt>
      <trkpt lat="41.619333360" lon="2.546610100">
        <ele>183.00</ele>
        <time>2014-04-06T08:15:44Z</time>
      </trkpt>
      <trkpt lat="41.619351800" lon="2.546761810">
        <ele>182.40</ele>
        <time>2014-04-06T08:15:45Z</time>
      </trkpt>
      <trkpt lat="41.619373420" lon="2.546910010">
        <ele>181.90</ele>
        <time>2014-04-06T08:15:46Z</time>
      </trkpt>
      <trkpt lat="41.619398400" lon="2.547058360">
        <ele>181.40</ele>
        <time>2014-04-06T08:15:47Z</time>
      </trkpt>
      <trkpt lat="41.619418350" lon="2.547208400">
        <ele>181.10</ele>
        <time>2014-04-06T08:15:48Z</time>
      </trkpt>
      <trkpt lat="41.619423380" lon="2.547355080">
        <ele>180.10</ele>
        <time>2014-04-06T08:15:49Z</time>
      </trkpt>
      <trkpt lat="41.619408460" lon="2.547493390">
        <ele>179.40</ele>
        <time>2014-04-06T08:15:50Z</time>
      </trkpt>
      <trkpt lat="41.619380130" lon="2.547625150">
        <ele>178.80</ele>
        <time>2014-04-06T08:15:51Z</time>
      </trkpt>
      <trkpt lat="41.619360010" lon="2.547750040">
        <ele>178.50</ele>
        <time>2014-04-06T08:15:52Z</time>
      </trkpt>
      <trkpt lat="41.619361690" lon="2.547870070">
        <ele>178.30</ele>
        <time>2014-04-06T08:15:53Z</time>
      </trkpt>
      <trkpt lat="41.619383480" lon="2.547981720">
        <ele>177.90</ele>
        <time>2014-04-06T08:15:54Z</time>
      </trkpt>
      <trkpt lat="41.619416680" lon="2.548085150">
        <ele>177.70</ele>
        <time>2014-04-06T08:15:55Z</time>
      </trkpt>
      <trkpt lat="41.619458420" lon="2.548181710">
        <ele>177.50</ele>
        <time>2014-04-06T08:15:56Z</time>
      </trkpt>
      <trkpt lat="41.619505020" lon="2.548268380">
        <ele>177.40</ele>
        <time>2014-04-06T08:15:57Z</time>
      </trkpt>
      <trkpt lat="41.619558330" lon="2.548351690">
        <ele>177.30</ele>
        <time>2014-04-06T08:15:58Z</time>
      </trkpt>
      <trkpt lat="41.619618340" lon="2.548430150">
        <ele>177.00</ele>
        <time>2014-04-06T08:15:59Z</time>
      </trkpt>
      <trkpt lat="41.619681710" lon="2.548503410">
        <ele>176.80</ele>
        <time>2014-04-06T08:16:00Z</time>
      </trkpt>
      <trkpt lat="41.619751780" lon="2.548573480">
        <ele>176.10</ele>
        <time>2014-04-06T08:16:01Z</time>
      </trkpt>
      <trkpt lat="41.619825040" lon="2.548641710">
        <ele>175.50</ele>
        <time>2014-04-06T08:16:02Z</time>
      </trkpt>
      <trkpt lat="41.619903330" lon="2.548710100">
        <ele>175.10</ele>
        <time>2014-04-06T08:16:03Z</time>
      </trkpt>
      <trkpt lat="41.619978430" lon="2.548785040">
        <ele>174.90</ele>
        <time>2014-04-06T08:16:04Z</time>
      </trkpt>
      <trkpt lat="41.620056720" lon="2.548863490">
        <ele>174.70</ele>
        <time>2014-04-06T08:16:05Z</time>
      </trkpt>
      <trkpt lat="41.620133500" lon="2.548950160">
        <ele>174.40</ele>
        <time>2014-04-06T08:16:06Z</time>
      </trkpt>
      <trkpt lat="41.620201720" lon="2.549046720">
        <ele>174.10</ele>
        <time>2014-04-06T08:16:07Z</time>
      </trkpt>
      <trkpt lat="41.620263420" lon="2.549153340">
        <ele>173.90</ele>
        <time>2014-04-06T08:16:08Z</time>
      </trkpt>
      <trkpt lat="41.620323430" lon="2.549265150">
        <ele>173.80</ele>
        <time>2014-04-06T08:16:09Z</time>
      </trkpt>
      <trkpt lat="41.620383440" lon="2.549380150">
        <ele>173.70</ele>
        <time>2014-04-06T08:16:10Z</time>
      </trkpt>
      <trkpt lat="41.620440110" lon="2.549495150">
        <ele>172.90</ele>
        <time>2014-04-06T08:16:11Z</time>
      </trkpt>
      <trkpt lat="41.620496770" lon="2.549613340">
        <ele>172.30</ele>
        <time>2014-04-06T08:16:12Z</time>
      </trkpt>
      <trkpt lat="41.620546720" lon="2.549735040">
        <ele>171.90</ele>
        <time>2014-04-06T08:16:13Z</time>
      </trkpt>
      <trkpt lat="41.620593490" lon="2.549855070">
        <ele>171.50</ele>
        <time>2014-04-06T08:16:14Z</time>
      </trkpt>
      <trkpt lat="41.620633390" lon="2.549973420">
        <ele>170.80</ele>
        <time>2014-04-06T08:16:15Z</time>
      </trkpt>
      <trkpt lat="41.620666750" lon="2.550091780">
        <ele>170.20</ele>
        <time>2014-04-06T08:16:16Z</time>
      </trkpt>
      <trkpt lat="41.620700110" lon="2.550203420">
        <ele>169.80</ele>
        <time>2014-04-06T08:16:17Z</time>
      </trkpt>
      <trkpt lat="41.620730120" lon="2.550310040">
        <ele>169.30</ele>
        <time>2014-04-06T08:16:18Z</time>
      </trkpt>
      <trkpt lat="41.620760130" lon="2.550413470">
        <ele>168.90</ele>
        <time>2014-04-06T08:16:19Z</time>
      </trkpt>
      <trkpt lat="41.620788460" lon="2.550510030">
        <ele>168.60</ele>
        <time>2014-04-06T08:16:20Z</time>
      </trkpt>
      <trkpt lat="41.620808410" lon="2.550608440">
        <ele>168.30</ele>
        <time>2014-04-06T08:16:21Z</time>
      </trkpt>
      <trkpt lat="41.620823490" lon="2.550706670">
        <ele>168.10</ele>
        <time>2014-04-06T08:16:22Z</time>
      </trkpt>
      <trkpt lat="41.620833380" lon="2.550810100">
        <ele>167.70</ele>
        <time>2014-04-06T08:16:23Z</time>
      </trkpt>
      <trkpt lat="41.620840090" lon="2.550915050">
        <ele>167.40</ele>
        <time>2014-04-06T08:16:24Z</time>
      </trkpt>
      <trkpt lat="41.620851820" lon="2.551021660">
        <ele>167.00</ele>
        <time>2014-04-06T08:16:25Z</time>
      </trkpt>
      <trkpt lat="41.620868420" lon="2.551130130">
        <ele>166.60</ele>
        <time>2014-04-06T08:16:26Z</time>
      </trkpt>
      <trkpt lat="41.620895080" lon="2.551240100">
        <ele>166.50</ele>
        <time>2014-04-06T08:16:27Z</time>
      </trkpt>
      <trkpt lat="41.620931790" lon="2.551348390">
        <ele>166.50</ele>
        <time>2014-04-06T08:16:28Z</time>
      </trkpt>
      <trkpt lat="41.620983420" lon="2.551448470">
        <ele>166.40</ele>
        <time>2014-04-06T08:16:29Z</time>
      </trkpt>
      <trkpt lat="41.621041760" lon="2.551543350">
        <ele>166.40</ele>
        <time>2014-04-06T08:16:30Z</time>
      </trkpt>
      <trkpt lat="41.621101770" lon="2.551631700">
        <ele>166.40</ele>
        <time>2014-04-06T08:16:31Z</time>
      </trkpt>
      <trkpt lat="41.621161790" lon="2.551720040">
        <ele>165.80</ele>
        <time>2014-04-06T08:16:32Z</time>
      </trkpt>
      <trkpt lat="41.621213420" lon="2.551820120">
        <ele>165.50</ele>
        <time>2014-04-06T08:16:33Z</time>
      </trkpt>
      <trkpt lat="41.621250130" lon="2.551933450">
        <ele>165.20</ele>
        <time>2014-04-06T08:16:34Z</time>
      </trkpt>
      <trkpt lat="41.621268410" lon="2.552051800">
        <ele>164.70</ele>
        <time>2014-04-06T08:16:35Z</time>
      </trkpt>
      <trkpt lat="41.621278460" lon="2.552171830">
        <ele>164.40</ele>
        <time>2014-04-06T08:16:36Z</time>
      </trkpt>
      <trkpt lat="41.621283490" lon="2.552290010">
        <ele>163.80</ele>
        <time>2014-04-06T08:16:37Z</time>
      </trkpt>
      <trkpt lat="41.621290030" lon="2.552406690">
        <ele>163.40</ele>
        <time>2014-04-06T08:16:38Z</time>
      </trkpt>
      <trkpt lat="41.621300090" lon="2.552518340">
        <ele>162.60</ele>
        <time>2014-04-06T08:16:39Z</time>
      </trkpt>
      <trkpt lat="41.621313330" lon="2.552625120">
        <ele>162.00</ele>
        <time>2014-04-06T08:16:40Z</time>
      </trkpt>
      <trkpt lat="41.621330100" lon="2.552726710">
        <ele>161.60</ele>
        <time>2014-04-06T08:16:41Z</time>
      </trkpt>
      <trkpt lat="41.621348370" lon="2.552826790">
        <ele>161.20</ele>
        <time>2014-04-06T08:16:42Z</time>
      </trkpt>
      <trkpt lat="41.621370160" lon="2.552921670">
        <ele>160.90</ele>
        <time>2014-04-06T08:16:43Z</time>
      </trkpt>
      <trkpt lat="41.621395140" lon="2.553015050">
        <ele>161.10</ele>
        <time>2014-04-06T08:16:44Z</time>
      </trkpt>
      <trkpt lat="41.621425150" lon="2.553103390">
        <ele>161.20</ele>
        <time>2014-04-06T08:16:45Z</time>
      </trkpt>
      <trkpt lat="41.621455150" lon="2.553191740">
        <ele>160.90</ele>
        <time>2014-04-06T08:16:46Z</time>
      </trkpt>
      <trkpt lat="41.621490020" lon="2.553278410">
        <ele>160.60</ele>
        <time>2014-04-06T08:16:47Z</time>
      </trkpt>
      <trkpt lat="41.621531760" lon="2.553360050">
        <ele>160.50</ele>
        <time>2014-04-06T08:16:48Z</time>
      </trkpt>
      <trkpt lat="41.621576690" lon="2.553445040">
        <ele>160.20</ele>
        <time>2014-04-06T08:16:49Z</time>
      </trkpt>
      <trkpt lat="41.621626820" lon="2.553523490">
        <ele>160.00</ele>
        <time>2014-04-06T08:16:50Z</time>
      </trkpt>
      <trkpt lat="41.621681800" lon="2.553595080">
        <ele>159.60</ele>
        <time>2014-04-06T08:16:51Z</time>
      </trkpt>
      <trkpt lat="41.621736790" lon="2.553676720">
        <ele>159.30</ele>
        <time>2014-04-06T08:16:52Z</time>
      </trkpt>
      <trkpt lat="41.621795120" lon="2.553755000">
        <ele>159.30</ele>
        <time>2014-04-06T08:16:53Z</time>
      </trkpt>
      <trkpt lat="41.621856810" lon="2.553835130">
        <ele>159.40</ele>
        <time>2014-04-06T08:16:54Z</time>
      </trkpt>
      <trkpt lat="41.621920010" lon="2.553915100">
        <ele>159.40</ele>
        <time>2014-04-06T08:16:55Z</time>
      </trkpt>
      <trkpt lat="41.621978350" lon="2.554000090">
        <ele>158.60</ele>
        <time>2014-04-06T08:16:56Z</time>
      </trkpt>
      <trkpt lat="41.622030150" lon="2.554095140">
        <ele>158.10</ele>
        <time>2014-04-06T08:16:57Z</time>
      </trkpt>
      <trkpt lat="41.622080110" lon="2.554195050">
        <ele>157.50</ele>
        <time>2014-04-06T08:16:58Z</time>
      </trkpt>
      <trkpt lat="41.622128390" lon="2.554293460">
        <ele>157.10</ele>
        <time>2014-04-06T08:16:59Z</time>
      </trkpt>
      <trkpt lat="41.622178340" lon="2.554388340">
        <ele>156.80</ele>
        <time>2014-04-06T08:17:00Z</time>
      </trkpt>
      <trkpt lat="41.622228470" lon="2.554476680">
        <ele>156.10</ele>
        <time>2014-04-06T08:17:01Z</time>
      </trkpt>
      <trkpt lat="41.622290160" lon="2.554560000">
        <ele>155.60</ele>
        <time>2014-04-06T08:17:02Z</time>
      </trkpt>
      <trkpt lat="41.622350010" lon="2.554630070">
        <ele>155.20</ele>
        <time>2014-04-06T08:17:03Z</time>
      </trkpt>
      <trkpt lat="41.622406670" lon="2.554703330">
        <ele>154.90</ele>
        <time>2014-04-06T08:17:04Z</time>
      </trkpt>
      <trkpt lat="41.622466680" lon="2.554770050">
        <ele>154.10</ele>
        <time>2014-04-06T08:17:05Z</time>
      </trkpt>
      <trkpt lat="41.622533400" lon="2.554833420">
        <ele>153.60</ele>
        <time>2014-04-06T08:17:06Z</time>
      </trkpt>
      <trkpt lat="41.622603470" lon="2.554895110">
        <ele>153.20</ele>
        <time>2014-04-06T08:17:07Z</time>
      </trkpt>
      <trkpt lat="41.622671700" lon="2.554951770">
        <ele>152.90</ele>
        <time>2014-04-06T08:17:08Z</time>
      </trkpt>
      <trkpt lat="41.622741780" lon="2.555000050">
        <ele>152.70</ele>
        <time>2014-04-06T08:17:09Z</time>
      </trkpt>
      <trkpt lat="41.622813360" lon="2.555040120">
        <ele>152.30</ele>
        <time>2014-04-06T08:17:10Z</time>
      </trkpt>
      <trkpt lat="41.622886780" lon="2.555071800">
        <ele>152.10</ele>
        <time>2014-04-06T08:17:11Z</time>
      </trkpt>
      <trkpt lat="41.622963390" lon="2.555093420">
        <ele>151.60</ele>
        <time>2014-04-06T08:17:12Z</time>
      </trkpt>
      <trkpt lat="41.623043360" lon="2.555113370">
        <ele>151.20</ele>
        <time>2014-04-06T08:17:13Z</time>
      </trkpt>
      <trkpt lat="41.623123490" lon="2.555133490">
        <ele>151.00</ele>
        <time>2014-04-06T08:17:14Z</time>
      </trkpt>
      <trkpt lat="41.623206800" lon="2.555153440">
        <ele>150.40</ele>
        <time>2014-04-06T08:17:15Z</time>
      </trkpt>
      <trkpt lat="41.623283410" lon="2.555183450">
        <ele>150.00</ele>
        <time>2014-04-06T08:17:16Z</time>
      </trkpt>
      <trkpt lat="41.623353490" lon="2.555236760">
        <ele>149.50</ele>
        <time>2014-04-06T08:17:17Z</time>
      </trkpt>
      <trkpt lat="41.623416690" lon="2.555308340">
        <ele>149.10</ele>
        <time>2014-04-06T08:17:18Z</time>
      </trkpt>
      <trkpt lat="41.623461780" lon="2.555401710">
        <ele>148.80</ele>
        <time>2014-04-06T08:17:19Z</time>
      </trkpt>
      <trkpt lat="41.623488440" lon="2.555511680">
        <ele>148.60</ele>
        <time>2014-04-06T08:17:20Z</time>
      </trkpt>
      <trkpt lat="41.623503360" lon="2.555625010">
        <ele>148.40</ele>
        <time>2014-04-06T08:17:21Z</time>
      </trkpt>
      <trkpt lat="41.623506710" lon="2.555740000">
        <ele>147.90</ele>
        <time>2014-04-06T08:17:22Z</time>
      </trkpt>
      <trkpt lat="41.623510060" lon="2.555853500">
        <ele>147.50</ele>
        <time>2014-04-06T08:17:23Z</time>
      </trkpt>
      <trkpt lat="41.623518440" lon="2.555961790">
        <ele>147.00</ele>
        <time>2014-04-06T08:17:24Z</time>
      </trkpt>
      <trkpt lat="41.623533360" lon="2.556068410">
        <ele>146.60</ele>
        <time>2014-04-06T08:17:25Z</time>
      </trkpt>
      <trkpt lat="41.623551800" lon="2.556175030">
        <ele>146.40</ele>
        <time>2014-04-06T08:17:26Z</time>
      </trkpt>
      <trkpt lat="41.623573430" lon="2.556278460">
        <ele>145.90</ele>
        <time>2014-04-06T08:17:27Z</time>
      </trkpt>
      <trkpt lat="41.623598410" lon="2.556378370">
        <ele>145.50</ele>
        <time>2014-04-06T08:17:28Z</time>
      </trkpt>
      <trkpt lat="41.623625060" lon="2.556471750">
        <ele>145.50</ele>
        <time>2014-04-06T08:17:29Z</time>
      </trkpt>
      <trkpt lat="41.623656740" lon="2.556556740">
        <ele>145.40</ele>
        <time>2014-04-06T08:17:30Z</time>
      </trkpt>
      <trkpt lat="41.623683400" lon="2.556643410">
        <ele>145.00</ele>
        <time>2014-04-06T08:17:31Z</time>
      </trkpt>
      <trkpt lat="41.623683400" lon="2.556736780">
        <ele>144.70</ele>
        <time>2014-04-06T08:17:32Z</time>
      </trkpt>
      <trkpt lat="41.623663450" lon="2.556820100">
        <ele>144.40</ele>
        <time>2014-04-06T08:17:33Z</time>
      </trkpt>
      <trkpt lat="41.623621710" lon="2.556885140">
        <ele>144.40</ele>
        <time>2014-04-06T08:17:34Z</time>
      </trkpt>
      <trkpt lat="41.623576780" lon="2.556940130">
        <ele>144.30</ele>
        <time>2014-04-06T08:17:35Z</time>
      </trkpt>
      <trkpt lat="41.623531690" lon="2.556991760">
        <ele>144.10</ele>
        <time>2014-04-06T08:17:36Z</time>
      </trkpt>
      <trkpt lat="41.623488440" lon="2.557040040">
        <ele>144.00</ele>
        <time>2014-04-06T08:17:37Z</time>
      </trkpt>
      <trkpt lat="41.623448370" lon="2.557085130">
        <ele>143.90</ele>
        <time>2014-04-06T08:17:38Z</time>
      </trkpt>
      <trkpt lat="41.623413330" lon="2.557135090">
        <ele>144.40</ele>
        <time>2014-04-06T08:17:39Z</time>
      </trkpt>
      <trkpt lat="41.623381820" lon="2.557188400">
        <ele>144.80</ele>
        <time>2014-04-06T08:17:40Z</time>
      </trkpt>
      <trkpt lat="41.623351810" lon="2.557243380">
        <ele>144.80</ele>
        <time>2014-04-06T08:17:41Z</time>
      </trkpt>
      <trkpt lat="41.623326670" lon="2.557310100">
        <ele>144.80</ele>
        <time>2014-04-06T08:17:42Z</time>
      </trkpt>
      <trkpt lat="41.623308390" lon="2.557383360">
        <ele>144.50</ele>
        <time>2014-04-06T08:17:43Z</time>
      </trkpt>
      <trkpt lat="41.623306720" lon="2.557463490">
        <ele>144.30</ele>
        <time>2014-04-06T08:17:44Z</time>
      </trkpt>
      <trkpt lat="41.623316770" lon="2.557546810">
        <ele>144.10</ele>
        <time>2014-04-06T08:17:45Z</time>
      </trkpt>
      <trkpt lat="41.623341750" lon="2.557623420">
        <ele>144.10</ele>
        <time>2014-04-06T08:17:46Z</time>
      </trkpt>
      <trkpt lat="41.623380140" lon="2.557688460">
        <ele>144.00</ele>
        <time>2014-04-06T08:17:47Z</time>
      </trkpt>
      <trkpt lat="41.623423390" lon="2.557743450">
        <ele>144.30</ele>
        <time>2014-04-06T08:17:48Z</time>
      </trkpt>
      <trkpt lat="41.623475030" lon="2.557790050">
        <ele>144.50</ele>
        <time>2014-04-06T08:17:49Z</time>
      </trkpt>
      <trkpt lat="41.623528330" lon="2.557840010">
        <ele>143.80</ele>
        <time>2014-04-06T08:17:50Z</time>
      </trkpt>
      <trkpt lat="41.623581810" lon="2.557893480">
        <ele>143.30</ele>
        <time>2014-04-06T08:17:51Z</time>
      </trkpt>
      <trkpt lat="41.623631770" lon="2.557953330">
        <ele>142.90</ele>
        <time>2014-04-06T08:17:52Z</time>
      </trkpt>
      <trkpt lat="41.623665130" lon="2.558026760">
        <ele>142.70</ele>
        <time>2014-04-06T08:17:53Z</time>
      </trkpt>
      <trkpt lat="41.623681720" lon="2.558108400">
        <ele>142.50</ele>
        <time>2014-04-06T08:17:54Z</time>
      </trkpt>
      <trkpt lat="41.623693460" lon="2.558188360">
        <ele>142.30</ele>
        <time>2014-04-06T08:17:55Z</time>
      </trkpt>
      <trkpt lat="41.623703350" lon="2.558263460">
        <ele>142.10</ele>
        <time>2014-04-06T08:17:56Z</time>
      </trkpt>
      <trkpt lat="41.623713410" lon="2.558336720">
        <ele>142.00</ele>
        <time>2014-04-06T08:17:57Z</time>
      </trkpt>
      <trkpt lat="41.623728490" lon="2.558405110">
        <ele>142.00</ele>
        <time>2014-04-06T08:17:58Z</time>
      </trkpt>
      <trkpt lat="41.623745090" lon="2.558470160">
        <ele>141.90</ele>
        <time>2014-04-06T08:17:59Z</time>
      </trkpt>
      <trkpt lat="41.623765040" lon="2.558530010">
        <ele>142.10</ele>
        <time>2014-04-06T08:18:00Z</time>
      </trkpt>
      <trkpt lat="41.623790020" lon="2.558588340">
        <ele>142.30</ele>
        <time>2014-04-06T08:18:01Z</time>
      </trkpt>
      <trkpt lat="41.623815000" lon="2.558646680">
        <ele>142.00</ele>
        <time>2014-04-06T08:18:02Z</time>
      </trkpt>
      <trkpt lat="41.623841820" lon="2.558703340">
        <ele>141.80</ele>
        <time>2014-04-06T08:18:03Z</time>
      </trkpt>
      <trkpt lat="41.623866800" lon="2.558760000">
        <ele>141.70</ele>
        <time>2014-04-06T08:18:04Z</time>
      </trkpt>
      <trkpt lat="41.623896800" lon="2.558815160">
        <ele>141.90</ele>
        <time>2014-04-06T08:18:05Z</time>
      </trkpt>
      <trkpt lat="41.623923460" lon="2.558871820">
        <ele>142.10</ele>
        <time>2014-04-06T08:18:06Z</time>
      </trkpt>
      <trkpt lat="41.623950110" lon="2.558920100">
        <ele>142.30</ele>
        <time>2014-04-06T08:18:07Z</time>
      </trkpt>
      <trkpt lat="41.623975090" lon="2.558966700">
        <ele>142.50</ele>
        <time>2014-04-06T08:18:08Z</time>
      </trkpt>
      <trkpt lat="41.624001740" lon="2.559025040">
        <ele>142.30</ele>
        <time>2014-04-06T08:18:09Z</time>
      </trkpt>
      <trkpt lat="41.624030070" lon="2.559085050">
        <ele>142.20</ele>
        <time>2014-04-06T08:18:10Z</time>
      </trkpt>
      <trkpt lat="41.624061760" lon="2.559143390">
        <ele>142.10</ele>
        <time>2014-04-06T08:18:11Z</time>
      </trkpt>
      <trkpt lat="41.624093440" lon="2.559201730">
        <ele>142.20</ele>
        <time>2014-04-06T08:18:12Z</time>
      </trkpt>
      <trkpt lat="41.624130150" lon="2.559256720">
        <ele>142.40</ele>
        <time>2014-04-06T08:18:13Z</time>
      </trkpt>
      <trkpt lat="41.624161670" lon="2.559315050">
        <ele>142.40</ele>
        <time>2014-04-06T08:18:14Z</time>
      </trkpt>
      <trkpt lat="41.624198380" lon="2.559368360">
        <ele>142.40</ele>
        <time>2014-04-06T08:18:15Z</time>
      </trkpt>
      <trkpt lat="41.624230070" lon="2.559428380">
        <ele>142.40</ele>
        <time>2014-04-06T08:18:16Z</time>
      </trkpt>
      <trkpt lat="41.624258400" lon="2.559498450">
        <ele>142.60</ele>
        <time>2014-04-06T08:18:17Z</time>
      </trkpt>
      <trkpt lat="41.624285050" lon="2.559566680">
        <ele>142.90</ele>
        <time>2014-04-06T08:18:18Z</time>
      </trkpt>
      <trkpt lat="41.624308350" lon="2.559640100">
        <ele>143.10</ele>
        <time>2014-04-06T08:18:19Z</time>
      </trkpt>
      <trkpt lat="41.624331820" lon="2.559718390">
        <ele>143.20</ele>
        <time>2014-04-06T08:18:20Z</time>
      </trkpt>
      <trkpt lat="41.624356800" lon="2.559796680">
        <ele>142.70</ele>
        <time>2014-04-06T08:18:21Z</time>
      </trkpt>
      <trkpt lat="41.624385130" lon="2.559873460">
        <ele>142.40</ele>
        <time>2014-04-06T08:18:22Z</time>
      </trkpt>
      <trkpt lat="41.624415140" lon="2.559950070">
        <ele>142.10</ele>
        <time>2014-04-06T08:18:23Z</time>
      </trkpt>
      <trkpt lat="41.624445150" lon="2.560030030">
        <ele>142.00</ele>
        <time>2014-04-06T08:18:24Z</time>
      </trkpt>
      <trkpt lat="41.624480020" lon="2.560110160">
        <ele>141.90</ele>
        <time>2014-04-06T08:18:25Z</time>
      </trkpt>
      <trkpt lat="41.624521760" lon="2.560188450">
        <ele>141.80</ele>
        <time>2014-04-06T08:18:26Z</time>
      </trkpt>
      <trkpt lat="41.624568360" lon="2.560266740">
        <ele>141.70</ele>
        <time>2014-04-06T08:18:27Z</time>
      </trkpt>
      <trkpt lat="41.624620160" lon="2.560340160">
        <ele>141.70</ele>
        <time>2014-04-06T08:18:28Z</time>
      </trkpt>
      <trkpt lat="41.624676820" lon="2.560415100">
        <ele>141.60</ele>
        <time>2014-04-06T08:18:29Z</time>
      </trkpt>
      <trkpt lat="41.624738350" lon="2.560490030">
        <ele>141.60</ele>
        <time>2014-04-06T08:18:30Z</time>
      </trkpt>
      <trkpt lat="41.624801710" lon="2.560566810">
        <ele>141.20</ele>
        <time>2014-04-06T08:18:31Z</time>
      </trkpt>
      <trkpt lat="41.624865080" lon="2.560643420">
        <ele>140.90</ele>
        <time>2014-04-06T08:18:32Z</time>
      </trkpt>
      <trkpt lat="41.624921740" lon="2.560730090">
        <ele>140.40</ele>
        <time>2014-04-06T08:18:33Z</time>
      </trkpt>
      <trkpt lat="41.624966670" lon="2.560830000">
        <ele>139.90</ele>
        <time>2014-04-06T08:18:34Z</time>
      </trkpt>
      <trkpt lat="41.624996680" lon="2.560940140">
        <ele>139.60</ele>
        <time>2014-04-06T08:18:35Z</time>
      </trkpt>
      <trkpt lat="41.625015120" lon="2.561053460">
        <ele>139.20</ele>
        <time>2014-04-06T08:18:36Z</time>
      </trkpt>
      <trkpt lat="41.625023330" lon="2.561173490">
        <ele>138.90</ele>
        <time>2014-04-06T08:18:37Z</time>
      </trkpt>
      <trkpt lat="41.625016790" lon="2.561293350">
        <ele>138.40</ele>
        <time>2014-04-06T08:18:38Z</time>
      </trkpt>
      <trkpt lat="41.624993490" lon="2.561411700">
        <ele>138.00</ele>
        <time>2014-04-06T08:18:39Z</time>
      </trkpt>
      <trkpt lat="41.624963480" lon="2.561523350">
        <ele>137.20</ele>
        <time>2014-04-06T08:18:40Z</time>
      </trkpt>
      <trkpt lat="41.624938340" lon="2.561623430">
        <ele>136.60</ele>
        <time>2014-04-06T08:18:41Z</time>
      </trkpt>
      <trkpt lat="41.624916710" lon="2.561706750">
        <ele>136.20</ele>
        <time>2014-04-06T08:18:42Z</time>
      </trkpt>
      <trkpt lat="41.624898440" lon="2.561775140">
        <ele>135.60</ele>
        <time>2014-04-06T08:18:43Z</time>
      </trkpt>
      <trkpt lat="41.624888380" lon="2.561838340">
        <ele>135.10</ele>
        <time>2014-04-06T08:18:44Z</time>
      </trkpt>
      <trkpt lat="41.624888380" lon="2.561905060">
        <ele>134.40</ele>
        <time>2014-04-06T08:18:45Z</time>
      </trkpt>
      <trkpt lat="41.624895090" lon="2.561978490">
        <ele>133.90</ele>
        <time>2014-04-06T08:18:46Z</time>
      </trkpt>
      <trkpt lat="41.624910010" lon="2.562051750">
        <ele>133.40</ele>
        <time>2014-04-06T08:18:47Z</time>
      </trkpt>
      <trkpt lat="41.624938340" lon="2.562120140">
        <ele>133.00</ele>
        <time>2014-04-06T08:18:48Z</time>
      </trkpt>
      <trkpt lat="41.624966670" lon="2.562181670">
        <ele>132.70</ele>
        <time>2014-04-06T08:18:49Z</time>
      </trkpt>
      <trkpt lat="41.625000030" lon="2.562238490">
        <ele>132.70</ele>
        <time>2014-04-06T08:18:50Z</time>
      </trkpt>
      <trkpt lat="41.625033390" lon="2.562293480">
        <ele>132.70</ele>
        <time>2014-04-06T08:18:51Z</time>
      </trkpt>
      <trkpt lat="41.625068420" lon="2.562346790">
        <ele>132.50</ele>
        <time>2014-04-06T08:18:52Z</time>
      </trkpt>
      <trkpt lat="41.625108490" lon="2.562396740">
        <ele>132.40</ele>
        <time>2014-04-06T08:18:53Z</time>
      </trkpt>
      <trkpt lat="41.625148390" lon="2.562446700">
        <ele>132.20</ele>
        <time>2014-04-06T08:18:54Z</time>
      </trkpt>
      <trkpt lat="41.625188450" lon="2.562495150">
        <ele>132.10</ele>
        <time>2014-04-06T08:18:55Z</time>
      </trkpt>
      <trkpt lat="41.625231700" lon="2.562536720">
        <ele>132.00</ele>
        <time>2014-04-06T08:18:56Z</time>
      </trkpt>
      <trkpt lat="41.625278480" lon="2.562576790">
        <ele>132.10</ele>
        <time>2014-04-06T08:18:57Z</time>
      </trkpt>
      <trkpt lat="41.625328430" lon="2.562610150">
        <ele>132.10</ele>
        <time>2014-04-06T08:18:58Z</time>
      </trkpt>
      <trkpt lat="41.625378390" lon="2.562643340">
        <ele>131.20</ele>
        <time>2014-04-06T08:18:59Z</time>
      </trkpt>
      <trkpt lat="41.625430020" lon="2.562676700">
        <ele>130.60</ele>
        <time>2014-04-06T08:19:00Z</time>
      </trkpt>
      <trkpt lat="41.625481820" lon="2.562710060">
        <ele>130.10</ele>
        <time>2014-04-06T08:19:01Z</time>
      </trkpt>
      <trkpt lat="41.625535130" lon="2.562741740">
        <ele>129.60</ele>
        <time>2014-04-06T08:19:02Z</time>
      </trkpt>
      <trkpt lat="41.625585090" lon="2.562776780">
        <ele>129.30</ele>
        <time>2014-04-06T08:19:03Z</time>
      </trkpt>
      <trkpt lat="41.625631690" lon="2.562815000">
        <ele>129.10</ele>
        <time>2014-04-06T08:19:04Z</time>
      </trkpt>
      <trkpt lat="41.625675110" lon="2.562861770">
        <ele>129.00</ele>
        <time>2014-04-06T08:19:05Z</time>
      </trkpt>
      <trkpt lat="41.625710140" lon="2.562915080">
        <ele>128.80</ele>
        <time>2014-04-06T08:19:06Z</time>
      </trkpt>
      <trkpt lat="41.625735120" lon="2.562975100">
        <ele>128.70</ele>
        <time>2014-04-06T08:19:07Z</time>
      </trkpt>
      <trkpt lat="41.625741830" lon="2.563036790">
        <ele>128.60</ele>
        <time>2014-04-06T08:19:08Z</time>
      </trkpt>
      <trkpt lat="41.625738470" lon="2.563088420">
        <ele>128.30</ele>
        <time>2014-04-06T08:19:09Z</time>
      </trkpt>
      <trkpt lat="41.625726740" lon="2.563143400">
        <ele>128.00</ele>
        <time>2014-04-06T08:19:10Z</time>
      </trkpt>
      <trkpt lat="41.625711820" lon="2.563193360">
        <ele>128.10</ele>
        <time>2014-04-06T08:19:11Z</time>
      </trkpt>
      <trkpt lat="41.625695060" lon="2.563240130">
        <ele>128.10</ele>
        <time>2014-04-06T08:19:12Z</time>
      </trkpt>
      <trkpt lat="41.625676780" lon="2.563288410">
        <ele>128.20</ele>
        <time>2014-04-06T08:19:13Z</time>
      </trkpt>
      <trkpt lat="41.625651810" lon="2.563343400">
        <ele>128.30</ele>
        <time>2014-04-06T08:19:14Z</time>
      </trkpt>
      <trkpt lat="41.625628340" lon="2.563393350">
        <ele>128.40</ele>
        <time>2014-04-06T08:19:15Z</time>
      </trkpt>
      <trkpt lat="41.625603360" lon="2.563450010">
        <ele>128.10</ele>
        <time>2014-04-06T08:19:16Z</time>
      </trkpt>
      <trkpt lat="41.625576700" lon="2.563510030">
        <ele>127.80</ele>
        <time>2014-04-06T08:19:17Z</time>
      </trkpt>
      <trkpt lat="41.625551730" lon="2.563570040">
        <ele>127.60</ele>
        <time>2014-04-06T08:19:18Z</time>
      </trkpt>
      <trkpt lat="41.625526750" lon="2.563631730">
        <ele>127.40</ele>
        <time>2014-04-06T08:19:19Z</time>
      </trkpt>
      <trkpt lat="41.625498420" lon="2.563693430">
        <ele>127.30</ele>
        <time>2014-04-06T08:19:20Z</time>
      </trkpt>
      <trkpt lat="41.625473440" lon="2.563758470">
        <ele>127.70</ele>
        <time>2014-04-06T08:19:21Z</time>
      </trkpt>
      <trkpt lat="41.625450140" lon="2.563825020">
        <ele>127.90</ele>
        <time>2014-04-06T08:19:22Z</time>
      </trkpt>
      <trkpt lat="41.625430020" lon="2.563895090">
        <ele>127.50</ele>
        <time>2014-04-06T08:19:23Z</time>
      </trkpt>
      <trkpt lat="41.625416780" lon="2.563970030">
        <ele>127.20</ele>
        <time>2014-04-06T08:19:24Z</time>
      </trkpt>
      <trkpt lat="41.625408390" lon="2.564048480">
        <ele>127.20</ele>
        <time>2014-04-06T08:19:25Z</time>
      </trkpt>
      <trkpt lat="41.625406720" lon="2.564130120">
        <ele>127.10</ele>
        <time>2014-04-06T08:19:26Z</time>
      </trkpt>
      <trkpt lat="41.625410070" lon="2.564213440">
        <ele>127.10</ele>
        <time>2014-04-06T08:19:27Z</time>
      </trkpt>
      <trkpt lat="41.625413420" lon="2.564296750">
        <ele>127.00</ele>
        <time>2014-04-06T08:19:28Z</time>
      </trkpt>
      <trkpt lat="41.625415100" lon="2.564381750">
        <ele>127.00</ele>
        <time>2014-04-06T08:19:29Z</time>
      </trkpt>
      <trkpt lat="41.625408390" lon="2.564465060">
        <ele>126.60</ele>
        <time>2014-04-06T08:19:30Z</time>
      </trkpt>
      <trkpt lat="41.625396830" lon="2.564548380">
        <ele>126.30</ele>
        <time>2014-04-06T08:19:31Z</time>
      </trkpt>
      <trkpt lat="41.625378390" lon="2.564631700">
        <ele>126.40</ele>
        <time>2014-04-06T08:19:32Z</time>
      </trkpt>
      <trkpt lat="41.625353410" lon="2.564711830">
        <ele>126.40</ele>
        <time>2014-04-06T08:19:33Z</time>
      </trkpt>
      <trkpt lat="41.625325080" lon="2.564791790">
        <ele>126.50</ele>
        <time>2014-04-06T08:19:34Z</time>
      </trkpt>
      <trkpt lat="41.625298420" lon="2.564871750">
        <ele>126.20</ele>
        <time>2014-04-06T08:19:35Z</time>
      </trkpt>
      <trkpt lat="41.625270090" lon="2.564955070">
        <ele>126.00</ele>
        <time>2014-04-06T08:19:36Z</time>
      </trkpt>
      <trkpt lat="41.625241760" lon="2.565035030">
        <ele>125.60</ele>
        <time>2014-04-06T08:19:37Z</time>
      </trkpt>
      <trkpt lat="41.625211760" lon="2.565118350">
        <ele>125.30</ele>
        <time>2014-04-06T08:19:38Z</time>
      </trkpt>
      <trkpt lat="41.625181750" lon="2.565203340">
        <ele>125.10</ele>
        <time>2014-04-06T08:19:39Z</time>
      </trkpt>
      <trkpt lat="41.625153420" lon="2.565288330">
        <ele>124.70</ele>
        <time>2014-04-06T08:19:40Z</time>
      </trkpt>
      <trkpt lat="41.625125090" lon="2.565376680">
        <ele>124.40</ele>
        <time>2014-04-06T08:19:41Z</time>
      </trkpt>
      <trkpt lat="41.625095080" lon="2.565463350">
        <ele>123.80</ele>
        <time>2014-04-06T08:19:42Z</time>
      </trkpt>
      <trkpt lat="41.625063400" lon="2.565551690">
        <ele>123.40</ele>
        <time>2014-04-06T08:19:43Z</time>
      </trkpt>
      <trkpt lat="41.625035060" lon="2.565640040">
        <ele>122.80</ele>
        <time>2014-04-06T08:19:44Z</time>
      </trkpt>
      <trkpt lat="41.625006730" lon="2.565730060">
        <ele>122.30</ele>
        <time>2014-04-06T08:19:45Z</time>
      </trkpt>
      <trkpt lat="41.624978400" lon="2.565820080">
        <ele>122.00</ele>
        <time>2014-04-06T08:19:46Z</time>
      </trkpt>
      <trkpt lat="41.624951750" lon="2.565906750">
        <ele>121.70</ele>
        <time>2014-04-06T08:19:47Z</time>
      </trkpt>
      <trkpt lat="41.624926770" lon="2.565996770">
        <ele>121.40</ele>
        <time>2014-04-06T08:19:48Z</time>
      </trkpt>
      <trkpt lat="41.624908330" lon="2.566080090">
        <ele>121.20</ele>
        <time>2014-04-06T08:19:49Z</time>
      </trkpt>
      <trkpt lat="41.624891730" lon="2.566163400">
        <ele>121.00</ele>
        <time>2014-04-06T08:19:50Z</time>
      </trkpt>
      <trkpt lat="41.624880000" lon="2.566255100">
        <ele>121.00</ele>
        <time>2014-04-06T08:19:51Z</time>
      </trkpt>
      <trkpt lat="41.624875140" lon="2.566345120">
        <ele>120.90</ele>
        <time>2014-04-06T08:19:52Z</time>
      </trkpt>
      <trkpt lat="41.624875140" lon="2.566433470">
        <ele>120.90</ele>
        <time>2014-04-06T08:19:53Z</time>
      </trkpt>
      <trkpt lat="41.624883350" lon="2.566516790">
        <ele>120.80</ele>
        <time>2014-04-06T08:19:54Z</time>
      </trkpt>
      <trkpt lat="41.624890060" lon="2.566598430">
        <ele>120.70</ele>
        <time>2014-04-06T08:19:55Z</time>
      </trkpt>
      <trkpt lat="41.624896760" lon="2.566678390">
        <ele>120.50</ele>
        <time>2014-04-06T08:19:56Z</time>
      </trkpt>
      <trkpt lat="41.624901790" lon="2.566756680">
        <ele>120.30</ele>
        <time>2014-04-06T08:19:57Z</time>
      </trkpt>
      <trkpt lat="41.624906820" lon="2.566831780">
        <ele>120.20</ele>
        <time>2014-04-06T08:19:58Z</time>
      </trkpt>
      <trkpt lat="41.624911680" lon="2.566908390">
        <ele>119.90</ele>
        <time>2014-04-06T08:19:59Z</time>
      </trkpt>
      <trkpt lat="41.624915040" lon="2.566981810">
        <ele>119.60</ele>
        <time>2014-04-06T08:20:00Z</time>
      </trkpt>
      <trkpt lat="41.624921740" lon="2.567051720">
        <ele>119.90</ele>
        <time>2014-04-06T08:20:01Z</time>
      </trkpt>
      <trkpt lat="41.624928450" lon="2.567120110">
        <ele>120.20</ele>
        <time>2014-04-06T08:20:02Z</time>
      </trkpt>
      <trkpt lat="41.624935150" lon="2.567185160">
        <ele>120.50</ele>
        <time>2014-04-06T08:20:03Z</time>
      </trkpt>
      <trkpt lat="41.624935150" lon="2.567246680">
        <ele>120.70</ele>
        <time>2014-04-06T08:20:04Z</time>
      </trkpt>
      <trkpt lat="41.624935150" lon="2.567306700">
        <ele>120.80</ele>
        <time>2014-04-06T08:20:05Z</time>
      </trkpt>
      <trkpt lat="41.624928450" lon="2.567363360">
        <ele>121.30</ele>
        <time>2014-04-06T08:20:06Z</time>
      </trkpt>
      <trkpt lat="41.624920070" lon="2.567418340">
        <ele>121.70</ele>
        <time>2014-04-06T08:20:07Z</time>
      </trkpt>
      <trkpt lat="41.624908330" lon="2.567471820">
        <ele>121.60</ele>
        <time>2014-04-06T08:20:08Z</time>
      </trkpt>
      <trkpt lat="41.624896760" lon="2.567521780">
        <ele>121.60</ele>
        <time>2014-04-06T08:20:09Z</time>
      </trkpt>
      <trkpt lat="41.624885030" lon="2.567571730">
        <ele>121.60</ele>
        <time>2014-04-06T08:20:10Z</time>
      </trkpt>
      <trkpt lat="41.624873460" lon="2.567621690">
        <ele>121.70</ele>
        <time>2014-04-06T08:20:11Z</time>
      </trkpt>
      <trkpt lat="41.624861730" lon="2.567671810">
        <ele>121.80</ele>
        <time>2014-04-06T08:20:12Z</time>
      </trkpt>
      <trkpt lat="41.624850160" lon="2.567721770">
        <ele>121.90</ele>
        <time>2014-04-06T08:20:13Z</time>
      </trkpt>
      <trkpt lat="41.624840100" lon="2.567768370">
        <ele>122.00</ele>
        <time>2014-04-06T08:20:14Z</time>
      </trkpt>
      <trkpt lat="41.624830040" lon="2.567813470">
        <ele>122.30</ele>
        <time>2014-04-06T08:20:15Z</time>
      </trkpt>
      <trkpt lat="41.624821830" lon="2.567856720">
        <ele>122.50</ele>
        <time>2014-04-06T08:20:16Z</time>
      </trkpt>
      <trkpt lat="41.624811770" lon="2.567901810">
        <ele>122.70</ele>
        <time>2014-04-06T08:20:17Z</time>
      </trkpt>
      <trkpt lat="41.624800040" lon="2.567941710">
        <ele>123.20</ele>
        <time>2014-04-06T08:20:18Z</time>
      </trkpt>
      <trkpt lat="41.624783440" lon="2.567980100">
        <ele>123.60</ele>
        <time>2014-04-06T08:20:19Z</time>
      </trkpt>
      <trkpt lat="41.624765000" lon="2.568020000">
        <ele>124.20</ele>
        <time>2014-04-06T08:20:20Z</time>
      </trkpt>
      <trkpt lat="41.624746730" lon="2.568060060">
        <ele>124.60</ele>
        <time>2014-04-06T08:20:21Z</time>
      </trkpt>
      <trkpt lat="41.624728450" lon="2.568101800">
        <ele>124.80</ele>
        <time>2014-04-06T08:20:22Z</time>
      </trkpt>
      <trkpt lat="41.624708340" lon="2.568143380">
        <ele>125.00</ele>
        <time>2014-04-06T08:20:23Z</time>
      </trkpt>
      <trkpt lat="41.624690070" lon="2.568185120">
        <ele>125.10</ele>
        <time>2014-04-06T08:20:24Z</time>
      </trkpt>
      <trkpt lat="41.624670120" lon="2.568228370">
        <ele>124.90</ele>
        <time>2014-04-06T08:20:25Z</time>
      </trkpt>
      <trkpt lat="41.624651680" lon="2.568270110">
        <ele>124.80</ele>
        <time>2014-04-06T08:20:26Z</time>
      </trkpt>
      <trkpt lat="41.624631730" lon="2.568311690">
        <ele>124.90</ele>
        <time>2014-04-06T08:20:27Z</time>
      </trkpt>
      <trkpt lat="41.624610100" lon="2.568350080">
        <ele>125.00</ele>
        <time>2014-04-06T08:20:28Z</time>
      </trkpt>
      <trkpt lat="41.624588480" lon="2.568390140">
        <ele>125.10</ele>
        <time>2014-04-06T08:20:29Z</time>
      </trkpt>
      <trkpt lat="41.624563330" lon="2.568426690">
        <ele>125.20</ele>
        <time>2014-04-06T08:20:30Z</time>
      </trkpt>
      <trkpt lat="41.624536680" lon="2.568465080">
        <ele>125.20</ele>
        <time>2014-04-06T08:20:31Z</time>
      </trkpt>
      <trkpt lat="41.624508350" lon="2.568508490">
        <ele>125.20</ele>
        <time>2014-04-06T08:20:32Z</time>
      </trkpt>
      <trkpt lat="41.624480020" lon="2.568553420">
        <ele>125.20</ele>
        <time>2014-04-06T08:20:33Z</time>
      </trkpt>
      <trkpt lat="41.624453360" lon="2.568605050">
        <ele>125.30</ele>
        <time>2014-04-06T08:20:34Z</time>
      </trkpt>
      <trkpt lat="41.624436760" lon="2.568668420">
        <ele>125.40</ele>
        <time>2014-04-06T08:20:35Z</time>
      </trkpt>
      <trkpt lat="41.624426710" lon="2.568731790">
        <ele>125.50</ele>
        <time>2014-04-06T08:20:36Z</time>
      </trkpt>
      <trkpt lat="41.624426710" lon="2.568790130">
        <ele>125.50</ele>
        <time>2014-04-06T08:20:37Z</time>
      </trkpt>
      <trkpt lat="41.624428380" lon="2.568853490">
        <ele>125.50</ele>
        <time>2014-04-06T08:20:38Z</time>
      </trkpt>
      <trkpt lat="41.624428380" lon="2.568918370">
        <ele>125.20</ele>
        <time>2014-04-06T08:20:39Z</time>
      </trkpt>
      <trkpt lat="41.624435090" lon="2.568985090">
        <ele>125.10</ele>
        <time>2014-04-06T08:20:40Z</time>
      </trkpt>
      <trkpt lat="41.624448330" lon="2.569055160">
        <ele>124.70</ele>
        <time>2014-04-06T08:20:41Z</time>
      </trkpt>
      <trkpt lat="41.624461740" lon="2.569131770">
        <ele>124.50</ele>
        <time>2014-04-06T08:20:42Z</time>
      </trkpt>
      <trkpt lat="41.624475150" lon="2.569213410">
        <ele>124.30</ele>
        <time>2014-04-06T08:20:43Z</time>
      </trkpt>
      <trkpt lat="41.624486720" lon="2.569296730">
        <ele>123.70</ele>
        <time>2014-04-06T08:20:44Z</time>
      </trkpt>
      <trkpt lat="41.624496780" lon="2.569385070">
        <ele>123.30</ele>
        <time>2014-04-06T08:20:45Z</time>
      </trkpt>
      <trkpt lat="41.624508350" lon="2.569478450">
        <ele>123.00</ele>
        <time>2014-04-06T08:20:46Z</time>
      </trkpt>
      <trkpt lat="41.624521760" lon="2.569573330">
        <ele>122.80</ele>
        <time>2014-04-06T08:20:47Z</time>
      </trkpt>
      <trkpt lat="41.624536680" lon="2.569671730">
        <ele>122.40</ele>
        <time>2014-04-06T08:20:48Z</time>
      </trkpt>
      <trkpt lat="41.624551760" lon="2.569773490">
        <ele>122.20</ele>
        <time>2014-04-06T08:20:49Z</time>
      </trkpt>
      <trkpt lat="41.624560150" lon="2.569870050">
        <ele>122.00</ele>
        <time>2014-04-06T08:20:50Z</time>
      </trkpt>
      <trkpt lat="41.624556790" lon="2.569961750">
        <ele>121.10</ele>
        <time>2014-04-06T08:20:51Z</time>
      </trkpt>
      <trkpt lat="41.624523430" lon="2.570038360">
        <ele>120.50</ele>
        <time>2014-04-06T08:20:52Z</time>
      </trkpt>
      <trkpt lat="41.624470120" lon="2.570088480">
        <ele>120.00</ele>
        <time>2014-04-06T08:20:53Z</time>
      </trkpt>
      <trkpt lat="41.624411790" lon="2.570115140">
        <ele>119.60</ele>
        <time>2014-04-06T08:20:54Z</time>
      </trkpt>
      <trkpt lat="41.624351770" lon="2.570135090">
        <ele>119.20</ele>
        <time>2014-04-06T08:20:55Z</time>
      </trkpt>
      <trkpt lat="41.624291760" lon="2.570151680">
        <ele>119.20</ele>
        <time>2014-04-06T08:20:56Z</time>
      </trkpt>
      <trkpt lat="41.624235100" lon="2.570165090">
        <ele>119.30</ele>
        <time>2014-04-06T08:20:57Z</time>
      </trkpt>
      <trkpt lat="41.624178430" lon="2.570176830">
        <ele>119.10</ele>
        <time>2014-04-06T08:20:58Z</time>
      </trkpt>
      <trkpt lat="41.624123450" lon="2.570188390">
        <ele>119.00</ele>
        <time>2014-04-06T08:20:59Z</time>
      </trkpt>
      <trkpt lat="41.624071820" lon="2.570200130">
        <ele>118.70</ele>
        <time>2014-04-06T08:21:00Z</time>
      </trkpt>
      <trkpt lat="41.624020020" lon="2.570210020">
        <ele>118.50</ele>
        <time>2014-04-06T08:21:01Z</time>
      </trkpt>
      <trkpt lat="41.623970060" lon="2.570218400">
        <ele>118.40</ele>
        <time>2014-04-06T08:21:02Z</time>
      </trkpt>
      <trkpt lat="41.623920100" lon="2.570226780">
        <ele>118.40</ele>
        <time>2014-04-06T08:21:03Z</time>
      </trkpt>
      <trkpt lat="41.623870150" lon="2.570235000">
        <ele>118.40</ele>
        <time>2014-04-06T08:21:04Z</time>
      </trkpt>
      <trkpt lat="41.623821700" lon="2.570243380">
        <ele>118.10</ele>
        <time>2014-04-06T08:21:05Z</time>
      </trkpt>
      <trkpt lat="41.623773420" lon="2.570253440">
        <ele>118.00</ele>
        <time>2014-04-06T08:21:06Z</time>
      </trkpt>
      <trkpt lat="41.623723460" lon="2.570261820">
        <ele>118.00</ele>
        <time>2014-04-06T08:21:07Z</time>
      </trkpt>
      <trkpt lat="41.623670160" lon="2.570270030">
        <ele>118.10</ele>
        <time>2014-04-06T08:21:08Z</time>
      </trkpt>
      <trkpt lat="41.623616680" lon="2.570278420">
        <ele>118.20</ele>
        <time>2014-04-06T08:21:09Z</time>
      </trkpt>
      <trkpt lat="41.623565050" lon="2.570285120">
        <ele>118.10</ele>
        <time>2014-04-06T08:21:10Z</time>
      </trkpt>
      <trkpt lat="41.623513410" lon="2.570296690">
        <ele>118.10</ele>
        <time>2014-04-06T08:21:11Z</time>
      </trkpt>
      <trkpt lat="41.623458430" lon="2.570308420">
        <ele>118.10</ele>
        <time>2014-04-06T08:21:12Z</time>
      </trkpt>
      <trkpt lat="41.623405120" lon="2.570320160">
        <ele>118.00</ele>
        <time>2014-04-06T08:21:13Z</time>
      </trkpt>
      <trkpt lat="41.623351810" lon="2.570330050">
        <ele>117.50</ele>
        <time>2014-04-06T08:21:14Z</time>
      </trkpt>
      <trkpt lat="41.623296830" lon="2.570341780">
        <ele>117.00</ele>
        <time>2014-04-06T08:21:15Z</time>
      </trkpt>
      <trkpt lat="41.623241670" lon="2.570351670">
        <ele>116.70</ele>
        <time>2014-04-06T08:21:16Z</time>
      </trkpt>
      <trkpt lat="41.623188360" lon="2.570363410">
        <ele>116.80</ele>
        <time>2014-04-06T08:21:17Z</time>
      </trkpt>
      <trkpt lat="41.623133380" lon="2.570370110">
        <ele>116.90</ele>
        <time>2014-04-06T08:21:18Z</time>
      </trkpt>
      <trkpt lat="41.623080070" lon="2.570378500">
        <ele>116.90</ele>
        <time>2014-04-06T08:21:19Z</time>
      </trkpt>
      <trkpt lat="41.623028440" lon="2.570390060">
        <ele>116.80</ele>
        <time>2014-04-06T08:21:20Z</time>
      </trkpt>
      <trkpt lat="41.622976800" lon="2.570398440">
        <ele>116.80</ele>
        <time>2014-04-06T08:21:21Z</time>
      </trkpt>
      <trkpt lat="41.622926680" lon="2.570405150">
        <ele>116.50</ele>
        <time>2014-04-06T08:21:22Z</time>
      </trkpt>
      <trkpt lat="41.622873370" lon="2.570413360">
        <ele>116.20</ele>
        <time>2014-04-06T08:21:23Z</time>
      </trkpt>
      <trkpt lat="41.622820060" lon="2.570421750">
        <ele>116.60</ele>
        <time>2014-04-06T08:21:24Z</time>
      </trkpt>
      <trkpt lat="41.622768430" lon="2.570430130">
        <ele>116.80</ele>
        <time>2014-04-06T08:21:25Z</time>
      </trkpt>
      <trkpt lat="41.622715120" lon="2.570440020">
        <ele>116.70</ele>
        <time>2014-04-06T08:21:26Z</time>
      </trkpt>
      <trkpt lat="41.622665000" lon="2.570450080">
        <ele>116.60</ele>
        <time>2014-04-06T08:21:27Z</time>
      </trkpt>
      <trkpt lat="41.622611690" lon="2.570455110">
        <ele>116.60</ele>
        <time>2014-04-06T08:21:28Z</time>
      </trkpt>
      <trkpt lat="41.622556700" lon="2.570451750">
        <ele>116.60</ele>
        <time>2014-04-06T08:21:29Z</time>
      </trkpt>
      <trkpt lat="41.622501720" lon="2.570440020">
        <ele>116.70</ele>
        <time>2014-04-06T08:21:30Z</time>
      </trkpt>
      <trkpt lat="41.622446730" lon="2.570418390">
        <ele>116.10</ele>
        <time>2014-04-06T08:21:31Z</time>
      </trkpt>
      <trkpt lat="41.622393420" lon="2.570391740">
        <ele>115.70</ele>
        <time>2014-04-06T08:21:32Z</time>
      </trkpt>
      <trkpt lat="41.622340120" lon="2.570360060">
        <ele>115.40</ele>
        <time>2014-04-06T08:21:33Z</time>
      </trkpt>
      <trkpt lat="41.622285130" lon="2.570336750">
        <ele>115.80</ele>
        <time>2014-04-06T08:21:34Z</time>
      </trkpt>
      <trkpt lat="41.622228470" lon="2.570318480">
        <ele>116.10</ele>
        <time>2014-04-06T08:21:35Z</time>
      </trkpt>
      <trkpt lat="41.622170130" lon="2.570310100">
        <ele>115.50</ele>
        <time>2014-04-06T08:21:36Z</time>
      </trkpt>
      <trkpt lat="41.622113470" lon="2.570315130">
        <ele>115.10</ele>
        <time>2014-04-06T08:21:37Z</time>
      </trkpt>
      <trkpt lat="41.622056810" lon="2.570340110">
        <ele>114.60</ele>
        <time>2014-04-06T08:21:38Z</time>
      </trkpt>
      <trkpt lat="41.622005010" lon="2.570380000">
        <ele>114.20</ele>
        <time>2014-04-06T08:21:39Z</time>
      </trkpt>
      <trkpt lat="41.621961760" lon="2.570421750">
        <ele>113.80</ele>
        <time>2014-04-06T08:21:40Z</time>
      </trkpt>
      <trkpt lat="41.621923370" lon="2.570466670">
        <ele>113.60</ele>
        <time>2014-04-06T08:21:41Z</time>
      </trkpt>
      <trkpt lat="41.621885150" lon="2.570521830">
        <ele>113.40</ele>
        <time>2014-04-06T08:21:42Z</time>
      </trkpt>
      <trkpt lat="41.621850110" lon="2.570578490">
        <ele>113.30</ele>
        <time>2014-04-06T08:21:43Z</time>
      </trkpt>
      <trkpt lat="41.621815070" lon="2.570630120">
        <ele>113.20</ele>
        <time>2014-04-06T08:21:44Z</time>
      </trkpt>
      <trkpt lat="41.621776680" lon="2.570685110">
        <ele>113.00</ele>
        <time>2014-04-06T08:21:45Z</time>
      </trkpt>
      <trkpt lat="41.621735110" lon="2.570751830">
        <ele>112.90</ele>
        <time>2014-04-06T08:21:46Z</time>
      </trkpt>
      <trkpt lat="41.621691690" lon="2.570821730">
        <ele>112.90</ele>
        <time>2014-04-06T08:21:47Z</time>
      </trkpt>
      <trkpt lat="41.621651790" lon="2.570891800">
        <ele>112.90</ele>
        <time>2014-04-06T08:21:48Z</time>
      </trkpt>
      <trkpt lat="41.621608380" lon="2.570965060">
        <ele>112.90</ele>
        <time>2014-04-06T08:21:49Z</time>
      </trkpt>
      <trkpt lat="41.621566800" lon="2.571040000">
        <ele>112.60</ele>
        <time>2014-04-06T08:21:50Z</time>
      </trkpt>
      <trkpt lat="41.621525060" lon="2.571113420">
        <ele>112.40</ele>
        <time>2014-04-06T08:21:51Z</time>
      </trkpt>
      <trkpt lat="41.621491700" lon="2.571193380">
        <ele>112.30</ele>
        <time>2014-04-06T08:21:52Z</time>
      </trkpt>
      <trkpt lat="41.621455150" lon="2.571273350">
        <ele>112.10</ele>
        <time>2014-04-06T08:21:53Z</time>
      </trkpt>
      <trkpt lat="41.621423470" lon="2.571358340">
        <ele>111.90</ele>
        <time>2014-04-06T08:21:54Z</time>
      </trkpt>
      <trkpt lat="41.621388430" lon="2.571438470">
        <ele>112.00</ele>
        <time>2014-04-06T08:21:55Z</time>
      </trkpt>
      <trkpt lat="41.621351720" lon="2.571520110">
        <ele>112.10</ele>
        <time>2014-04-06T08:21:56Z</time>
      </trkpt>
      <trkpt lat="41.621320040" lon="2.571600070">
        <ele>111.20</ele>
        <time>2014-04-06T08:21:57Z</time>
      </trkpt>
      <trkpt lat="41.621285000" lon="2.571686740">
        <ele>110.60</ele>
        <time>2014-04-06T08:21:58Z</time>
      </trkpt>
      <trkpt lat="41.621253490" lon="2.571778440">
        <ele>110.10</ele>
        <time>2014-04-06T08:21:59Z</time>
      </trkpt>
      <trkpt lat="41.621235050" lon="2.571876680">
        <ele>109.30</ele>
        <time>2014-04-06T08:22:00Z</time>
      </trkpt>
      <trkpt lat="41.621231690" lon="2.571978430">
        <ele>108.70</ele>
        <time>2014-04-06T08:22:01Z</time>
      </trkpt>
      <trkpt lat="41.621241750" lon="2.572078350">
        <ele>108.30</ele>
        <time>2014-04-06T08:22:02Z</time>
      </trkpt>
      <trkpt lat="41.621261700" lon="2.572173400">
        <ele>108.00</ele>
        <time>2014-04-06T08:22:03Z</time>
      </trkpt>
      <trkpt lat="41.621285000" lon="2.572265090">
        <ele>108.20</ele>
        <time>2014-04-06T08:22:04Z</time>
      </trkpt>
      <trkpt lat="41.621310150" lon="2.572355120">
        <ele>108.30</ele>
        <time>2014-04-06T08:22:05Z</time>
      </trkpt>
      <trkpt lat="41.621335130" lon="2.572443460">
        <ele>108.30</ele>
        <time>2014-04-06T08:22:06Z</time>
      </trkpt>
      <trkpt lat="41.621360100" lon="2.572530130">
        <ele>107.80</ele>
        <time>2014-04-06T08:22:07Z</time>
      </trkpt>
      <trkpt lat="41.621383400" lon="2.572613450">
        <ele>107.50</ele>
        <time>2014-04-06T08:22:08Z</time>
      </trkpt>
      <trkpt lat="41.621403350" lon="2.572695090">
        <ele>107.60</ele>
        <time>2014-04-06T08:22:09Z</time>
      </trkpt>
      <trkpt lat="41.621420120" lon="2.572773370">
        <ele>107.70</ele>
        <time>2014-04-06T08:22:10Z</time>
      </trkpt>
      <trkpt lat="41.621433360" lon="2.572845120">
        <ele>107.50</ele>
        <time>2014-04-06T08:22:11Z</time>
      </trkpt>
      <trkpt lat="41.621446770" lon="2.572916700">
        <ele>107.40</ele>
        <time>2014-04-06T08:22:12Z</time>
      </trkpt>
      <trkpt lat="41.621460020" lon="2.572988450">
        <ele>107.30</ele>
        <time>2014-04-06T08:22:13Z</time>
      </trkpt>
      <trkpt lat="41.621473430" lon="2.573050140">
        <ele>107.00</ele>
        <time>2014-04-06T08:22:14Z</time>
      </trkpt>
      <trkpt lat="41.621488350" lon="2.573108480">
        <ele>106.80</ele>
        <time>2014-04-06T08:22:15Z</time>
      </trkpt>
      <trkpt lat="41.621506790" lon="2.573166820">
        <ele>106.70</ele>
        <time>2014-04-06T08:22:16Z</time>
      </trkpt>
      <trkpt lat="41.621530090" lon="2.573223480">
        <ele>106.60</ele>
        <time>2014-04-06T08:22:17Z</time>
      </trkpt>
      <trkpt lat="41.621560100" lon="2.573275110">
        <ele>106.50</ele>
        <time>2014-04-06T08:22:18Z</time>
      </trkpt>
      <trkpt lat="41.621593460" lon="2.573323390">
        <ele>106.40</ele>
        <time>2014-04-06T08:22:19Z</time>
      </trkpt>
      <trkpt lat="41.621630000" lon="2.573368490">
        <ele>106.30</ele>
        <time>2014-04-06T08:22:20Z</time>
      </trkpt>
      <trkpt lat="41.621668390" lon="2.573411740">
        <ele>106.50</ele>
        <time>2014-04-06T08:22:21Z</time>
      </trkpt>
      <trkpt lat="41.621710130" lon="2.573451800">
        <ele>106.60</ele>
        <time>2014-04-06T08:22:22Z</time>
      </trkpt>
      <trkpt lat="41.621755060" lon="2.573488350">
        <ele>106.50</ele>
        <time>2014-04-06T08:22:23Z</time>
      </trkpt>
      <trkpt lat="41.621801660" lon="2.573523390">
        <ele>106.50</ele>
        <time>2014-04-06T08:22:24Z</time>
      </trkpt>
      <trkpt lat="41.621851790" lon="2.573555070">
        <ele>106.50</ele>
        <time>2014-04-06T08:22:25Z</time>
      </trkpt>
      <trkpt lat="41.621901740" lon="2.573583400">
        <ele>106.40</ele>
        <time>2014-04-06T08:22:26Z</time>
      </trkpt>
      <trkpt lat="41.621948350" lon="2.573615080">
        <ele>106.30</ele>
        <time>2014-04-06T08:22:27Z</time>
      </trkpt>
      <trkpt lat="41.621993440" lon="2.573650120">
        <ele>105.90</ele>
        <time>2014-04-06T08:22:28Z</time>
      </trkpt>
      <trkpt lat="41.622038370" lon="2.573690020">
        <ele>105.50</ele>
        <time>2014-04-06T08:22:29Z</time>
      </trkpt>
      <trkpt lat="41.622081790" lon="2.573733440">
        <ele>105.80</ele>
        <time>2014-04-06T08:22:30Z</time>
      </trkpt>
      <trkpt lat="41.622118330" lon="2.573781720">
        <ele>106.00</ele>
        <time>2014-04-06T08:22:31Z</time>
      </trkpt>
      <trkpt lat="41.622150010" lon="2.573833350">
        <ele>106.10</ele>
        <time>2014-04-06T08:22:32Z</time>
      </trkpt>
      <trkpt lat="41.622178340" lon="2.573888330">
        <ele>106.00</ele>
        <time>2014-04-06T08:22:33Z</time>
      </trkpt>
      <trkpt lat="41.622203490" lon="2.573945000">
        <ele>105.90</ele>
        <time>2014-04-06T08:22:34Z</time>
      </trkpt>
      <trkpt lat="41.622226790" lon="2.574003330">
        <ele>105.70</ele>
        <time>2014-04-06T08:22:35Z</time>
      </trkpt>
      <trkpt lat="41.622248420" lon="2.574061670">
        <ele>105.60</ele>
        <time>2014-04-06T08:22:36Z</time>
      </trkpt>
      <trkpt lat="41.622268370" lon="2.574123360">
        <ele>105.50</ele>
        <time>2014-04-06T08:22:37Z</time>
      </trkpt>
      <trkpt lat="41.622283450" lon="2.574186730">
        <ele>105.50</ele>
        <time>2014-04-06T08:22:38Z</time>
      </trkpt>
      <trkpt lat="41.622293340" lon="2.574255130">
        <ele>105.50</ele>
        <time>2014-04-06T08:22:39Z</time>
      </trkpt>
      <trkpt lat="41.622296700" lon="2.574325030">
        <ele>105.10</ele>
        <time>2014-04-06T08:22:40Z</time>
      </trkpt>
      <trkpt lat="41.622296700" lon="2.574393430">
        <ele>104.70</ele>
        <time>2014-04-06T08:22:41Z</time>
      </trkpt>
      <trkpt lat="41.622290160" lon="2.574463330">
        <ele>104.90</ele>
        <time>2014-04-06T08:22:42Z</time>
      </trkpt>
      <trkpt lat="41.622276750" lon="2.574530050">
        <ele>105.00</ele>
        <time>2014-04-06T08:22:43Z</time>
      </trkpt>
      <trkpt lat="41.622258480" lon="2.574596770">
        <ele>105.10</ele>
        <time>2014-04-06T08:22:44Z</time>
      </trkpt>
      <trkpt lat="41.622233330" lon="2.574661820">
        <ele>105.20</ele>
        <time>2014-04-06T08:22:45Z</time>
      </trkpt>
      <trkpt lat="41.622203490" lon="2.574721660">
        <ele>105.30</ele>
        <time>2014-04-06T08:22:46Z</time>
      </trkpt>
      <trkpt lat="41.622170130" lon="2.574780000">
        <ele>105.00</ele>
        <time>2014-04-06T08:22:47Z</time>
      </trkpt>
      <trkpt lat="41.622135090" lon="2.574836660">
        <ele>104.90</ele>
        <time>2014-04-06T08:22:48Z</time>
      </trkpt>
      <trkpt lat="41.622096700" lon="2.574890140">
        <ele>104.80</ele>
        <time>2014-04-06T08:22:49Z</time>
      </trkpt>
      <trkpt lat="41.622056810" lon="2.574943450">
        <ele>104.20</ele>
        <time>2014-04-06T08:22:50Z</time>
      </trkpt>
      <trkpt lat="41.622013390" lon="2.574993400">
        <ele>103.70</ele>
        <time>2014-04-06T08:22:51Z</time>
      </trkpt>
      <trkpt lat="41.621970140" lon="2.575045040">
        <ele>103.40</ele>
        <time>2014-04-06T08:22:52Z</time>
      </trkpt>
      <trkpt lat="41.621926720" lon="2.575098350">
        <ele>103.20</ele>
        <time>2014-04-06T08:22:53Z</time>
      </trkpt>
      <trkpt lat="41.621880120" lon="2.575148470">
        <ele>103.20</ele>
        <time>2014-04-06T08:22:54Z</time>
      </trkpt>
      <trkpt lat="41.621835020" lon="2.575200100">
        <ele>103.20</ele>
        <time>2014-04-06T08:22:55Z</time>
      </trkpt>
      <trkpt lat="41.621791770" lon="2.575251730">
        <ele>103.10</ele>
        <time>2014-04-06T08:22:56Z</time>
      </trkpt>
      <trkpt lat="41.621746680" lon="2.575305040">
        <ele>102.70</ele>
        <time>2014-04-06T08:22:57Z</time>
      </trkpt>
      <trkpt lat="41.621703430" lon="2.575355000">
        <ele>102.30</ele>
        <time>2014-04-06T08:22:58Z</time>
      </trkpt>
      <trkpt lat="41.621663360" lon="2.575406800">
        <ele>102.20</ele>
        <time>2014-04-06T08:22:59Z</time>
      </trkpt>
      <trkpt lat="41.621623460" lon="2.575460110">
        <ele>102.10</ele>
        <time>2014-04-06T08:23:00Z</time>
      </trkpt>
      <trkpt lat="41.621586750" lon="2.575516770">
        <ele>102.00</ele>
        <time>2014-04-06T08:23:01Z</time>
      </trkpt>
      <trkpt lat="41.621551710" lon="2.575578460">
        <ele>101.90</ele>
        <time>2014-04-06T08:23:02Z</time>
      </trkpt>
      <trkpt lat="41.621523380" lon="2.575645010">
        <ele>101.90</ele>
        <time>2014-04-06T08:23:03Z</time>
      </trkpt>
      <trkpt lat="41.621500080" lon="2.575720120">
        <ele>101.70</ele>
        <time>2014-04-06T08:23:04Z</time>
      </trkpt>
      <trkpt lat="41.621485160" lon="2.575801750">
        <ele>101.50</ele>
        <time>2014-04-06T08:23:05Z</time>
      </trkpt>
      <trkpt lat="41.621478460" lon="2.575886750">
        <ele>101.70</ele>
        <time>2014-04-06T08:23:06Z</time>
      </trkpt>
      <trkpt lat="41.621478460" lon="2.575975090">
        <ele>101.90</ele>
        <time>2014-04-06T08:23:07Z</time>
      </trkpt>
      <trkpt lat="41.621483480" lon="2.576065110">
        <ele>101.50</ele>
        <time>2014-04-06T08:23:08Z</time>
      </trkpt>
      <trkpt lat="41.621488350" lon="2.576158490">
        <ele>101.10</ele>
        <time>2014-04-06T08:23:09Z</time>
      </trkpt>
      <trkpt lat="41.621495050" lon="2.576253370">
        <ele>100.80</ele>
        <time>2014-04-06T08:23:10Z</time>
      </trkpt>
      <trkpt lat="41.621500080" lon="2.576348420">
        <ele>100.20</ele>
        <time>2014-04-06T08:23:11Z</time>
      </trkpt>
      <trkpt lat="41.621506790" lon="2.576446830">
        <ele>99.70</ele>
        <time>2014-04-06T08:23:12Z</time>
      </trkpt>
      <trkpt lat="41.621511820" lon="2.576543390">
        <ele>99.50</ele>
        <time>2014-04-06T08:23:13Z</time>
      </trkpt>
      <trkpt lat="41.621520030" lon="2.576641790">
        <ele>99.30</ele>
        <time>2014-04-06T08:23:14Z</time>
      </trkpt>
      <trkpt lat="41.621531760" lon="2.576740030">
        <ele>99.10</ele>
        <time>2014-04-06T08:23:15Z</time>
      </trkpt>
      <trkpt lat="41.621561770" lon="2.576831720">
        <ele>98.80</ele>
        <time>2014-04-06T08:23:16Z</time>
      </trkpt>
      <trkpt lat="41.621605020" lon="2.576913360">
        <ele>98.50</ele>
        <time>2014-04-06T08:23:17Z</time>
      </trkpt>
      <trkpt lat="41.621658330" lon="2.576986790">
        <ele>98.10</ele>
        <time>2014-04-06T08:23:18Z</time>
      </trkpt>
      <trkpt lat="41.621715160" lon="2.577056690">
        <ele>97.80</ele>
        <time>2014-04-06T08:23:19Z</time>
      </trkpt>
      <trkpt lat="41.621775010" lon="2.577125090">
        <ele>97.80</ele>
        <time>2014-04-06T08:23:20Z</time>
      </trkpt>
      <trkpt lat="41.621831670" lon="2.577200020">
        <ele>97.80</ele>
        <time>2014-04-06T08:23:21Z</time>
      </trkpt>
      <trkpt lat="41.621885150" lon="2.577281660">
        <ele>97.90</ele>
        <time>2014-04-06T08:23:22Z</time>
      </trkpt>
      <trkpt lat="41.621928400" lon="2.577363470">
        <ele>97.60</ele>
        <time>2014-04-06T08:23:23Z</time>
      </trkpt>
      <trkpt lat="41.621963430" lon="2.577448460">
        <ele>97.50</ele>
        <time>2014-04-06T08:23:24Z</time>
      </trkpt>
      <trkpt lat="41.621993440" lon="2.577528430">
        <ele>96.80</ele>
        <time>2014-04-06T08:23:25Z</time>
      </trkpt>
      <trkpt lat="41.622023450" lon="2.577605040">
        <ele>96.30</ele>
        <time>2014-04-06T08:23:26Z</time>
      </trkpt>
      <trkpt lat="41.622046750" lon="2.577675110">
        <ele>96.40</ele>
        <time>2014-04-06T08:23:27Z</time>
      </trkpt>
      <trkpt lat="41.622070050" lon="2.577738480">
        <ele>96.40</ele>
        <time>2014-04-06T08:23:28Z</time>
      </trkpt>
      <trkpt lat="41.622096700" lon="2.577788430">
        <ele>96.50</ele>
        <time>2014-04-06T08:23:29Z</time>
      </trkpt>
      <trkpt lat="41.622118330" lon="2.577838390">
        <ele>96.10</ele>
        <time>2014-04-06T08:23:30Z</time>
      </trkpt>
      <trkpt lat="41.622131740" lon="2.577891700">
        <ele>95.90</ele>
        <time>2014-04-06T08:23:31Z</time>
      </trkpt>
      <trkpt lat="41.622136770" lon="2.577948360">
        <ele>95.70</ele>
        <time>2014-04-06T08:23:32Z</time>
      </trkpt>
      <trkpt lat="41.622141800" lon="2.578011730">
        <ele>95.50</ele>
        <time>2014-04-06T08:23:33Z</time>
      </trkpt>
      <trkpt lat="41.622150010" lon="2.578073420">
        <ele>95.40</ele>
        <time>2014-04-06T08:23:34Z</time>
      </trkpt>
      <trkpt lat="41.622155040" lon="2.578136790">
        <ele>95.00</ele>
        <time>2014-04-06T08:23:35Z</time>
      </trkpt>
      <trkpt lat="41.622163420" lon="2.578200150">
        <ele>94.70</ele>
        <time>2014-04-06T08:23:36Z</time>
      </trkpt>
      <trkpt lat="41.622175160" lon="2.578266710">
        <ele>94.50</ele>
        <time>2014-04-06T08:23:37Z</time>
      </trkpt>
      <trkpt lat="41.622188400" lon="2.578338450">
        <ele>94.30</ele>
        <time>2014-04-06T08:23:38Z</time>
      </trkpt>
      <trkpt lat="41.622210030" lon="2.578405010">
        <ele>94.10</ele>
        <time>2014-04-06T08:23:39Z</time>
      </trkpt>
      <trkpt lat="41.622240040" lon="2.578470050">
        <ele>93.90</ele>
        <time>2014-04-06T08:23:40Z</time>
      </trkpt>
      <trkpt lat="41.622276750" lon="2.578530060">
        <ele>93.80</ele>
        <time>2014-04-06T08:23:41Z</time>
      </trkpt>
      <trkpt lat="41.622326700" lon="2.578576670">
        <ele>93.60</ele>
        <time>2014-04-06T08:23:42Z</time>
      </trkpt>
      <trkpt lat="41.622368450" lon="2.578621760">
        <ele>93.50</ele>
        <time>2014-04-06T08:23:43Z</time>
      </trkpt>
      <trkpt lat="41.622401810" lon="2.578665010">
        <ele>92.60</ele>
        <time>2014-04-06T08:23:44Z</time>
      </trkpt>
      <trkpt lat="41.622428460" lon="2.578715140">
        <ele>91.90</ele>
        <time>2014-04-06T08:23:45Z</time>
      </trkpt>
      <trkpt lat="41.622441700" lon="2.578761740">
        <ele>91.60</ele>
        <time>2014-04-06T08:23:46Z</time>
      </trkpt>
      <trkpt lat="41.622446730" lon="2.578808340">
        <ele>91.30</ele>
        <time>2014-04-06T08:23:47Z</time>
      </trkpt>
      <trkpt lat="41.622448410" lon="2.578853440">
        <ele>91.10</ele>
        <time>2014-04-06T08:23:48Z</time>
      </trkpt>
      <trkpt lat="41.622453440" lon="2.578890150">
        <ele>91.00</ele>
        <time>2014-04-06T08:23:49Z</time>
      </trkpt>
      <trkpt lat="41.622460140" lon="2.578923340">
        <ele>91.00</ele>
        <time>2014-04-06T08:23:50Z</time>
      </trkpt>
      <trkpt lat="41.622465010" lon="2.578951670">
        <ele>90.90</ele>
        <time>2014-04-06T08:23:51Z</time>
      </trkpt>
      <trkpt lat="41.622470030" lon="2.578973470">
        <ele>90.80</ele>
        <time>2014-04-06T08:23:52Z</time>
      </trkpt>
      <trkpt lat="41.622476740" lon="2.578993420">
        <ele>90.70</ele>
        <time>2014-04-06T08:23:53Z</time>
      </trkpt>
      <trkpt lat="41.622488480" lon="2.579010010">
        <ele>90.70</ele>
        <time>2014-04-06T08:23:54Z</time>
      </trkpt>
      <trkpt lat="41.622496690" lon="2.579033480">
        <ele>90.80</ele>
        <time>2014-04-06T08:23:55Z</time>
      </trkpt>
      <trkpt lat="41.622501720" lon="2.579060140">
        <ele>90.90</ele>
        <time>2014-04-06T08:23:56Z</time>
      </trkpt>
      <trkpt lat="41.622506750" lon="2.579083440">
        <ele>91.00</ele>
        <time>2014-04-06T08:23:57Z</time>
      </trkpt>
      <trkpt lat="41.622511780" lon="2.579106740">
        <ele>91.50</ele>
        <time>2014-04-06T08:23:58Z</time>
      </trkpt>
      <trkpt lat="41.622518480" lon="2.579128360">
        <ele>91.80</ele>
        <time>2014-04-06T08:23:59Z</time>
      </trkpt>
      <trkpt lat="41.622523340" lon="2.579153340">
        <ele>92.00</ele>
        <time>2014-04-06T08:24:00Z</time>
      </trkpt>
      <trkpt lat="41.622528370" lon="2.579178490">
        <ele>92.40</ele>
        <time>2014-04-06T08:24:01Z</time>
      </trkpt>
      <trkpt lat="41.622533400" lon="2.579203470">
        <ele>92.70</ele>
        <time>2014-04-06T08:24:02Z</time>
      </trkpt>
      <trkpt lat="41.622536750" lon="2.579226770">
        <ele>93.30</ele>
        <time>2014-04-06T08:24:03Z</time>
      </trkpt>
      <trkpt lat="41.622543460" lon="2.579248390">
        <ele>93.70</ele>
        <time>2014-04-06T08:24:04Z</time>
      </trkpt>
      <trkpt lat="41.622546810" lon="2.579275050">
        <ele>93.70</ele>
        <time>2014-04-06T08:24:05Z</time>
      </trkpt>
      <trkpt lat="41.622553350" lon="2.579303380">
        <ele>93.60</ele>
        <time>2014-04-06T08:24:06Z</time>
      </trkpt>
      <trkpt lat="41.622558380" lon="2.579328360">
        <ele>93.60</ele>
        <time>2014-04-06T08:24:07Z</time>
      </trkpt>
      <trkpt lat="41.622563410" lon="2.579348470">
        <ele>93.90</ele>
        <time>2014-04-06T08:24:08Z</time>
      </trkpt>
      <trkpt lat="41.622565090" lon="2.579363390">
        <ele>94.10</ele>
        <time>2014-04-06T08:24:09Z</time>
      </trkpt>
      <trkpt lat="41.622570110" lon="2.579381670">
        <ele>94.40</ele>
        <time>2014-04-06T08:24:10Z</time>
      </trkpt>
      <trkpt lat="41.622576820" lon="2.579403460">
        <ele>94.50</ele>
        <time>2014-04-06T08:24:11Z</time>
      </trkpt>
      <trkpt lat="41.622583360" lon="2.579426760">
        <ele>94.70</ele>
        <time>2014-04-06T08:24:12Z</time>
      </trkpt>
      <trkpt lat="41.622590060" lon="2.579448390">
        <ele>94.90</ele>
        <time>2014-04-06T08:24:13Z</time>
      </trkpt>
      <trkpt lat="41.622596770" lon="2.579473360">
        <ele>95.20</ele>
        <time>2014-04-06T08:24:14Z</time>
      </trkpt>
      <trkpt lat="41.622601800" lon="2.579501690">
        <ele>95.50</ele>
        <time>2014-04-06T08:24:15Z</time>
      </trkpt>
      <trkpt lat="41.622606830" lon="2.579530030">
        <ele>95.80</ele>
        <time>2014-04-06T08:24:16Z</time>
      </trkpt>
      <trkpt lat="41.622608340" lon="2.579555000">
        <ele>95.90</ele>
        <time>2014-04-06T08:24:17Z</time>
      </trkpt>
      <trkpt lat="41.622608340" lon="2.579580150">
        <ele>96.00</ele>
        <time>2014-04-06T08:24:18Z</time>
      </trkpt>
      <trkpt lat="41.622608340" lon="2.579605130">
        <ele>96.10</ele>
        <time>2014-04-06T08:24:19Z</time>
      </trkpt>
      <trkpt lat="41.622610010" lon="2.579630110">
        <ele>96.20</ele>
        <time>2014-04-06T08:24:20Z</time>
      </trkpt>
      <trkpt lat="41.622613370" lon="2.579656760">
        <ele>96.30</ele>
        <time>2014-04-06T08:24:21Z</time>
      </trkpt>
      <trkpt lat="41.622616720" lon="2.579683410">
        <ele>96.40</ele>
        <time>2014-04-06T08:24:22Z</time>
      </trkpt>
      <trkpt lat="41.622620070" lon="2.579708390">
        <ele>96.50</ele>
        <time>2014-04-06T08:24:23Z</time>
      </trkpt>
      <trkpt lat="41.622621750" lon="2.579735050">
        <ele>96.60</ele>
        <time>2014-04-06T08:24:24Z</time>
      </trkpt>
      <trkpt lat="41.622625100" lon="2.579753490">
        <ele>96.60</ele>
        <time>2014-04-06T08:24:25Z</time>
      </trkpt>
      <trkpt lat="41.622628450" lon="2.579775110">
        <ele>96.60</ele>
        <time>2014-04-06T08:24:26Z</time>
      </trkpt>
      <trkpt lat="41.622631810" lon="2.579790030">
        <ele>96.60</ele>
        <time>2014-04-06T08:24:27Z</time>
      </trkpt>
      <trkpt lat="41.622633480" lon="2.579808470">
        <ele>96.60</ele>
        <time>2014-04-06T08:24:28Z</time>
      </trkpt>
      <trkpt lat="41.622635160" lon="2.579830100">
        <ele>97.40</ele>
        <time>2014-04-06T08:24:29Z</time>
      </trkpt>
      <trkpt lat="41.622638340" lon="2.579856750">
        <ele>98.00</ele>
        <time>2014-04-06T08:24:30Z</time>
      </trkpt>
      <trkpt lat="41.622641700" lon="2.579873350">
        <ele>98.00</ele>
        <time>2014-04-06T08:24:31Z</time>
      </trkpt>
      <trkpt lat="41.622643370" lon="2.579895140">
        <ele>98.00</ele>
        <time>2014-04-06T08:24:32Z</time>
      </trkpt>
      <trkpt lat="41.622646730" lon="2.579918440">
        <ele>98.00</ele>
        <time>2014-04-06T08:24:33Z</time>
      </trkpt>
      <trkpt lat="41.622645050" lon="2.579943420">
        <ele>98.60</ele>
        <time>2014-04-06T08:24:34Z</time>
      </trkpt>
      <trkpt lat="41.622638340" lon="2.579971750">
        <ele>99.10</ele>
        <time>2014-04-06T08:24:35Z</time>
      </trkpt>
      <trkpt lat="41.622631810" lon="2.579998410">
        <ele>99.50</ele>
        <time>2014-04-06T08:24:36Z</time>
      </trkpt>
      <trkpt lat="41.622623420" lon="2.580026740">
        <ele>99.80</ele>
        <time>2014-04-06T08:24:37Z</time>
      </trkpt>
      <trkpt lat="41.622611690" lon="2.580055070">
        <ele>100.00</ele>
        <time>2014-04-06T08:24:38Z</time>
      </trkpt>
      <trkpt lat="41.622598450" lon="2.580083400">
        <ele>100.10</ele>
        <time>2014-04-06T08:24:39Z</time>
      </trkpt>
      <trkpt lat="41.622586710" lon="2.580113410">
        <ele>100.20</ele>
        <time>2014-04-06T08:24:40Z</time>
      </trkpt>
      <trkpt lat="41.622575140" lon="2.580141740">
        <ele>100.30</ele>
        <time>2014-04-06T08:24:41Z</time>
      </trkpt>
      <trkpt lat="41.622560060" lon="2.580170070">
        <ele>100.30</ele>
        <time>2014-04-06T08:24:42Z</time>
      </trkpt>
      <trkpt lat="41.622546810" lon="2.580193370">
        <ele>100.40</ele>
        <time>2014-04-06T08:24:43Z</time>
      </trkpt>
      <trkpt lat="41.622535080" lon="2.580216670">
        <ele>100.40</ele>
        <time>2014-04-06T08:24:44Z</time>
      </trkpt>
      <trkpt lat="41.622521670" lon="2.580236790">
        <ele>100.40</ele>
        <time>2014-04-06T08:24:45Z</time>
      </trkpt>
      <trkpt lat="41.622508420" lon="2.580256740">
        <ele>100.60</ele>
        <time>2014-04-06T08:24:46Z</time>
      </trkpt>
      <trkpt lat="41.622495010" lon="2.580276690">
        <ele>100.80</ele>
        <time>2014-04-06T08:24:47Z</time>
      </trkpt>
      <trkpt lat="41.622485120" lon="2.580298480">
        <ele>101.50</ele>
        <time>2014-04-06T08:24:48Z</time>
      </trkpt>
      <trkpt lat="41.622470030" lon="2.580318430">
        <ele>102.10</ele>
        <time>2014-04-06T08:24:49Z</time>
      </trkpt>
      <trkpt lat="41.622456790" lon="2.580336700">
        <ele>102.40</ele>
        <time>2014-04-06T08:24:50Z</time>
      </trkpt>
      <trkpt lat="41.622440030" lon="2.580353460">
        <ele>102.70</ele>
        <time>2014-04-06T08:24:51Z</time>
      </trkpt>
      <trkpt lat="41.622421760" lon="2.580373410">
        <ele>102.80</ele>
        <time>2014-04-06T08:24:52Z</time>
      </trkpt>
      <trkpt lat="41.622405160" lon="2.580390010">
        <ele>103.20</ele>
        <time>2014-04-06T08:24:53Z</time>
      </trkpt>
      <trkpt lat="41.622390070" lon="2.580411800">
        <ele>103.50</ele>
        <time>2014-04-06T08:24:54Z</time>
      </trkpt>
      <trkpt lat="41.622375150" lon="2.580430070">
        <ele>103.60</ele>
        <time>2014-04-06T08:24:55Z</time>
      </trkpt>
      <trkpt lat="41.622361740" lon="2.580450020">
        <ele>103.70</ele>
        <time>2014-04-06T08:24:56Z</time>
      </trkpt>
      <trkpt lat="41.622345140" lon="2.580470140">
        <ele>103.70</ele>
        <time>2014-04-06T08:24:57Z</time>
      </trkpt>
      <trkpt lat="41.622326700" lon="2.580490090">
        <ele>103.60</ele>
        <time>2014-04-06T08:24:58Z</time>
      </trkpt>
      <trkpt lat="41.622306760" lon="2.580510040">
        <ele>103.60</ele>
        <time>2014-04-06T08:24:59Z</time>
      </trkpt>
      <trkpt lat="41.622278420" lon="2.580530150">
        <ele>103.80</ele>
        <time>2014-04-06T08:25:00Z</time>
      </trkpt>
      <trkpt lat="41.622243390" lon="2.580546750">
        <ele>104.00</ele>
        <time>2014-04-06T08:25:01Z</time>
      </trkpt>
      <trkpt lat="41.622205000" lon="2.580551780">
        <ele>103.90</ele>
        <time>2014-04-06T08:25:02Z</time>
      </trkpt>
      <trkpt lat="41.622168450" lon="2.580553460">
        <ele>103.90</ele>
        <time>2014-04-06T08:25:03Z</time>
      </trkpt>
      <trkpt lat="41.622130060" lon="2.580560160">
        <ele>103.90</ele>
        <time>2014-04-06T08:25:04Z</time>
      </trkpt>
      <trkpt lat="41.622088490" lon="2.580570050">
        <ele>103.70</ele>
        <time>2014-04-06T08:25:05Z</time>
      </trkpt>
      <trkpt lat="41.622046750" lon="2.580573400">
        <ele>103.50</ele>
        <time>2014-04-06T08:25:06Z</time>
      </trkpt>
      <trkpt lat="41.622006680" lon="2.580581790">
        <ele>103.40</ele>
        <time>2014-04-06T08:25:07Z</time>
      </trkpt>
      <trkpt lat="41.621970140" lon="2.580601740">
        <ele>103.30</ele>
        <time>2014-04-06T08:25:08Z</time>
      </trkpt>
      <trkpt lat="41.621938450" lon="2.580630070">
        <ele>103.20</ele>
        <time>2014-04-06T08:25:09Z</time>
      </trkpt>
      <trkpt lat="41.621910120" lon="2.580666780">
        <ele>103.00</ele>
        <time>2014-04-06T08:25:10Z</time>
      </trkpt>
      <trkpt lat="41.621890010" lon="2.580711710">
        <ele>102.80</ele>
        <time>2014-04-06T08:25:11Z</time>
      </trkpt>
      <trkpt lat="41.621881790" lon="2.580766690">
        <ele>102.20</ele>
        <time>2014-04-06T08:25:12Z</time>
      </trkpt>
      <trkpt lat="41.621881790" lon="2.580828380">
        <ele>101.70</ele>
        <time>2014-04-06T08:25:13Z</time>
      </trkpt>
      <trkpt lat="41.621888330" lon="2.580883370">
        <ele>100.80</ele>
        <time>2014-04-06T08:25:14Z</time>
      </trkpt>
      <trkpt lat="41.621895040" lon="2.580943380">
        <ele>100.20</ele>
        <time>2014-04-06T08:25:15Z</time>
      </trkpt>
      <trkpt lat="41.621901740" lon="2.581003400">
        <ele>99.70</ele>
        <time>2014-04-06T08:25:16Z</time>
      </trkpt>
      <trkpt lat="41.621915150" lon="2.581065090">
        <ele>99.00</ele>
        <time>2014-04-06T08:25:17Z</time>
      </trkpt>
      <trkpt lat="41.621933430" lon="2.581128450">
        <ele>98.40</ele>
        <time>2014-04-06T08:25:18Z</time>
      </trkpt>
      <trkpt lat="41.621958400" lon="2.581193330">
        <ele>97.30</ele>
        <time>2014-04-06T08:25:19Z</time>
      </trkpt>
      <trkpt lat="41.621986730" lon="2.581256700">
        <ele>96.50</ele>
        <time>2014-04-06T08:25:20Z</time>
      </trkpt>
      <trkpt lat="41.622016740" lon="2.581316710">
        <ele>95.70</ele>
        <time>2014-04-06T08:25:21Z</time>
      </trkpt>
      <trkpt lat="41.622053450" lon="2.581378400">
        <ele>95.10</ele>
        <time>2014-04-06T08:25:22Z</time>
      </trkpt>
      <trkpt lat="41.622090000" lon="2.581433390">
        <ele>94.70</ele>
        <time>2014-04-06T08:25:23Z</time>
      </trkpt>
      <trkpt lat="41.622126710" lon="2.581486700">
        <ele>93.80</ele>
        <time>2014-04-06T08:25:24Z</time>
      </trkpt>
      <trkpt lat="41.622166780" lon="2.581536820">
        <ele>93.10</ele>
        <time>2014-04-06T08:25:25Z</time>
      </trkpt>
      <trkpt lat="41.622210030" lon="2.581580070">
        <ele>92.50</ele>
        <time>2014-04-06T08:25:26Z</time>
      </trkpt>
      <trkpt lat="41.622255120" lon="2.581616780">
        <ele>92.00</ele>
        <time>2014-04-06T08:25:27Z</time>
      </trkpt>
      <trkpt lat="41.622303400" lon="2.581645110">
        <ele>91.40</ele>
        <time>2014-04-06T08:25:28Z</time>
      </trkpt>
      <trkpt lat="41.622351680" lon="2.581660030">
        <ele>90.90</ele>
        <time>2014-04-06T08:25:29Z</time>
      </trkpt>
      <trkpt lat="41.622398450" lon="2.581670090">
        <ele>90.60</ele>
        <time>2014-04-06T08:25:30Z</time>
      </trkpt>
      <trkpt lat="41.622445060" lon="2.581678470">
        <ele>89.90</ele>
        <time>2014-04-06T08:25:31Z</time>
      </trkpt>
      <trkpt lat="41.622486800" lon="2.581685010">
        <ele>89.40</ele>
        <time>2014-04-06T08:25:32Z</time>
      </trkpt>
      <trkpt lat="41.622528370" lon="2.581691720">
        <ele>89.10</ele>
        <time>2014-04-06T08:25:33Z</time>
      </trkpt>
      <trkpt lat="41.622566760" lon="2.581695070">
        <ele>88.80</ele>
        <time>2014-04-06T08:25:34Z</time>
      </trkpt>
      <trkpt lat="41.622605150" lon="2.581698420">
        <ele>88.60</ele>
        <time>2014-04-06T08:25:35Z</time>
      </trkpt>
      <trkpt lat="41.622645050" lon="2.581698420">
        <ele>88.70</ele>
        <time>2014-04-06T08:25:36Z</time>
      </trkpt>
      <trkpt lat="41.622686790" lon="2.581700100">
        <ele>88.80</ele>
        <time>2014-04-06T08:25:37Z</time>
      </trkpt>
      <trkpt lat="41.622730040" lon="2.581703450">
        <ele>88.90</ele>
        <time>2014-04-06T08:25:38Z</time>
      </trkpt>
      <trkpt lat="41.622771780" lon="2.581706810">
        <ele>89.00</ele>
        <time>2014-04-06T08:25:39Z</time>
      </trkpt>
      <trkpt lat="41.622811680" lon="2.581708480">
        <ele>89.40</ele>
        <time>2014-04-06T08:25:40Z</time>
      </trkpt>
      <trkpt lat="41.622850070" lon="2.581710160">
        <ele>89.60</ele>
        <time>2014-04-06T08:25:41Z</time>
      </trkpt>
      <trkpt lat="41.622890140" lon="2.581713340">
        <ele>89.80</ele>
        <time>2014-04-06T08:25:42Z</time>
      </trkpt>
      <trkpt lat="41.622928360" lon="2.581716700">
        <ele>89.70</ele>
        <time>2014-04-06T08:25:43Z</time>
      </trkpt>
      <trkpt lat="41.622966750" lon="2.581718370">
        <ele>89.60</ele>
        <time>2014-04-06T08:25:44Z</time>
      </trkpt>
      <trkpt lat="41.623006810" lon="2.581718370">
        <ele>89.50</ele>
        <time>2014-04-06T08:25:45Z</time>
      </trkpt>
      <trkpt lat="41.623046710" lon="2.581716700">
        <ele>89.50</ele>
        <time>2014-04-06T08:25:46Z</time>
      </trkpt>
      <trkpt lat="41.623083420" lon="2.581716700">
        <ele>89.40</ele>
        <time>2014-04-06T08:25:47Z</time>
      </trkpt>
      <trkpt lat="41.623120140" lon="2.581718370">
        <ele>89.20</ele>
        <time>2014-04-06T08:25:48Z</time>
      </trkpt>
      <trkpt lat="41.623156680" lon="2.581720050">
        <ele>89.00</ele>
        <time>2014-04-06T08:25:49Z</time>
      </trkpt>
      <trkpt lat="41.623193390" lon="2.581720050">
        <ele>89.20</ele>
        <time>2014-04-06T08:25:50Z</time>
      </trkpt>
      <trkpt lat="41.623231780" lon="2.581721730">
        <ele>89.40</ele>
        <time>2014-04-06T08:25:51Z</time>
      </trkpt>
      <trkpt lat="41.623268490" lon="2.581715020">
        <ele>89.10</ele>
        <time>2014-04-06T08:25:52Z</time>
      </trkpt>
      <trkpt lat="41.623305040" lon="2.581708480">
        <ele>88.90</ele>
        <time>2014-04-06T08:25:53Z</time>
      </trkpt>
      <trkpt lat="41.623340080" lon="2.581700100">
        <ele>88.80</ele>
        <time>2014-04-06T08:25:54Z</time>
      </trkpt>
      <trkpt lat="41.623373440" lon="2.581686690">
        <ele>89.00</ele>
        <time>2014-04-06T08:25:55Z</time>
      </trkpt>
      <trkpt lat="41.623405120" lon="2.581673450">
        <ele>89.10</ele>
        <time>2014-04-06T08:25:56Z</time>
      </trkpt>
      <trkpt lat="41.623440160" lon="2.581656680">
        <ele>89.50</ele>
        <time>2014-04-06T08:25:57Z</time>
      </trkpt>
      <trkpt lat="41.623471670" lon="2.581641760">
        <ele>89.80</ele>
        <time>2014-04-06T08:25:58Z</time>
      </trkpt>
      <trkpt lat="41.623506710" lon="2.581626670">
        <ele>89.60</ele>
        <time>2014-04-06T08:25:59Z</time>
      </trkpt>
      <trkpt lat="41.623545100" lon="2.581618460">
        <ele>89.40</ele>
        <time>2014-04-06T08:26:00Z</time>
      </trkpt>
      <trkpt lat="41.623586670" lon="2.581613430">
        <ele>89.30</ele>
        <time>2014-04-06T08:26:01Z</time>
      </trkpt>
      <trkpt lat="41.623631770" lon="2.581616780">
        <ele>89.00</ele>
        <time>2014-04-06T08:26:02Z</time>
      </trkpt>
      <trkpt lat="41.623676690" lon="2.581623490">
        <ele>88.80</ele>
        <time>2014-04-06T08:26:03Z</time>
      </trkpt>
      <trkpt lat="41.623723460" lon="2.581633380">
        <ele>88.60</ele>
        <time>2014-04-06T08:26:04Z</time>
      </trkpt>
      <trkpt lat="41.623771740" lon="2.581641760">
        <ele>88.60</ele>
        <time>2014-04-06T08:26:05Z</time>
      </trkpt>
      <trkpt lat="41.623825050" lon="2.581638410">
        <ele>88.00</ele>
        <time>2014-04-06T08:26:06Z</time>
      </trkpt>
      <trkpt lat="41.623875010" lon="2.581628350">
        <ele>87.60</ele>
        <time>2014-04-06T08:26:07Z</time>
      </trkpt>
      <trkpt lat="41.623920100" lon="2.581610080">
        <ele>87.30</ele>
        <time>2014-04-06T08:26:08Z</time>
      </trkpt>
      <trkpt lat="41.623956820" lon="2.581586780">
        <ele>87.00</ele>
        <time>2014-04-06T08:26:09Z</time>
      </trkpt>
      <trkpt lat="41.623995040" lon="2.581568340">
        <ele>86.70</ele>
        <time>2014-04-06T08:26:10Z</time>
      </trkpt>
      <trkpt lat="41.624035100" lon="2.581551740">
        <ele>86.30</ele>
        <time>2014-04-06T08:26:11Z</time>
      </trkpt>
      <trkpt lat="41.624075000" lon="2.581543360">
        <ele>86.00</ele>
        <time>2014-04-06T08:26:12Z</time>
      </trkpt>
      <trkpt lat="41.624111710" lon="2.581535140">
        <ele>85.80</ele>
        <time>2014-04-06T08:26:13Z</time>
      </trkpt>
      <trkpt lat="41.624150100" lon="2.581528440">
        <ele>85.70</ele>
        <time>2014-04-06T08:26:14Z</time>
      </trkpt>
      <trkpt lat="41.624185140" lon="2.581525090">
        <ele>85.70</ele>
        <time>2014-04-06T08:26:15Z</time>
      </trkpt>
      <trkpt lat="41.624215150" lon="2.581521730">
        <ele>85.40</ele>
        <time>2014-04-06T08:26:16Z</time>
      </trkpt>
      <trkpt lat="41.624246660" lon="2.581518380">
        <ele>85.10</ele>
        <time>2014-04-06T08:26:17Z</time>
      </trkpt>
      <trkpt lat="41.624276670" lon="2.581513350">
        <ele>84.80</ele>
        <time>2014-04-06T08:26:18Z</time>
      </trkpt>
      <trkpt lat="41.624301820" lon="2.581506810">
        <ele>84.60</ele>
        <time>2014-04-06T08:26:19Z</time>
      </trkpt>
      <trkpt lat="41.624325120" lon="2.581503460">
        <ele>84.50</ele>
        <time>2014-04-06T08:26:20Z</time>
      </trkpt>
      <trkpt lat="41.624353450" lon="2.581498430">
        <ele>84.90</ele>
        <time>2014-04-06T08:26:21Z</time>
      </trkpt>
      <trkpt lat="41.624378430" lon="2.581490050">
        <ele>85.30</ele>
        <time>2014-04-06T08:26:22Z</time>
      </trkpt>
      <trkpt lat="41.624403400" lon="2.581478480">
        <ele>85.50</ele>
        <time>2014-04-06T08:26:23Z</time>
      </trkpt>
      <trkpt lat="41.624428380" lon="2.581468420">
        <ele>85.70</ele>
        <time>2014-04-06T08:26:24Z</time>
      </trkpt>
      <trkpt lat="41.624451680" lon="2.581456690">
        <ele>85.70</ele>
        <time>2014-04-06T08:26:25Z</time>
      </trkpt>
      <trkpt lat="41.624471800" lon="2.581446800">
        <ele>85.70</ele>
        <time>2014-04-06T08:26:26Z</time>
      </trkpt>
      <trkpt lat="41.624496780" lon="2.581433390">
        <ele>85.70</ele>
        <time>2014-04-06T08:26:27Z</time>
      </trkpt>
      <trkpt lat="41.624521760" lon="2.581418470">
        <ele>85.90</ele>
        <time>2014-04-06T08:26:28Z</time>
      </trkpt>
      <trkpt lat="41.624545060" lon="2.581406730">
        <ele>86.10</ele>
        <time>2014-04-06T08:26:29Z</time>
      </trkpt>
      <trkpt lat="41.624568360" lon="2.581391810">
        <ele>86.50</ele>
        <time>2014-04-06T08:26:30Z</time>
      </trkpt>
      <trkpt lat="41.624593340" lon="2.581376730">
        <ele>86.90</ele>
        <time>2014-04-06T08:26:31Z</time>
      </trkpt>
      <trkpt lat="41.624621670" lon="2.581360130">
        <ele>87.10</ele>
        <time>2014-04-06T08:26:32Z</time>
      </trkpt>
      <trkpt lat="41.624651680" lon="2.581343370">
        <ele>86.90</ele>
        <time>2014-04-06T08:26:33Z</time>
      </trkpt>
      <trkpt lat="41.624678330" lon="2.581328450">
        <ele>86.80</ele>
        <time>2014-04-06T08:26:34Z</time>
      </trkpt>
      <trkpt lat="41.624700120" lon="2.581316710">
        <ele>87.30</ele>
        <time>2014-04-06T08:26:35Z</time>
      </trkpt>
      <trkpt lat="41.624725100" lon="2.581301790">
        <ele>87.70</ele>
        <time>2014-04-06T08:26:36Z</time>
      </trkpt>
      <trkpt lat="41.624751760" lon="2.581285030">
        <ele>87.70</ele>
        <time>2014-04-06T08:26:37Z</time>
      </trkpt>
      <trkpt lat="41.624773380" lon="2.581270110">
        <ele>87.70</ele>
        <time>2014-04-06T08:26:38Z</time>
      </trkpt>
      <trkpt lat="41.624798360" lon="2.581255020">
        <ele>87.80</ele>
        <time>2014-04-06T08:26:39Z</time>
      </trkpt>
      <trkpt lat="41.624826690" lon="2.581240100">
        <ele>88.00</ele>
        <time>2014-04-06T08:26:40Z</time>
      </trkpt>
      <trkpt lat="41.624851670" lon="2.581226690">
        <ele>88.10</ele>
        <time>2014-04-06T08:26:41Z</time>
      </trkpt>
      <trkpt lat="41.624876810" lon="2.581208420">
        <ele>88.50</ele>
        <time>2014-04-06T08:26:42Z</time>
      </trkpt>
      <trkpt lat="41.624906820" lon="2.581186790">
        <ele>88.70</ele>
        <time>2014-04-06T08:26:43Z</time>
      </trkpt>
      <trkpt lat="41.624935150" lon="2.581165000">
        <ele>88.90</ele>
        <time>2014-04-06T08:26:44Z</time>
      </trkpt>
      <trkpt lat="41.624961810" lon="2.581143370">
        <ele>89.00</ele>
        <time>2014-04-06T08:26:45Z</time>
      </trkpt>
      <trkpt lat="41.624986790" lon="2.581123430">
        <ele>89.10</ele>
        <time>2014-04-06T08:26:46Z</time>
      </trkpt>
      <trkpt lat="41.625011760" lon="2.581095090">
        <ele>88.70</ele>
        <time>2014-04-06T08:26:47Z</time>
      </trkpt>
      <trkpt lat="41.625036740" lon="2.581066760">
        <ele>88.30</ele>
        <time>2014-04-06T08:26:48Z</time>
      </trkpt>
      <trkpt lat="41.625063400" lon="2.581040110">
        <ele>88.40</ele>
        <time>2014-04-06T08:26:49Z</time>
      </trkpt>
      <trkpt lat="41.625088370" lon="2.581016810">
        <ele>88.50</ele>
        <time>2014-04-06T08:26:50Z</time>
      </trkpt>
      <trkpt lat="41.625113350" lon="2.580990150">
        <ele>88.50</ele>
        <time>2014-04-06T08:26:51Z</time>
      </trkpt>
      <trkpt lat="41.625136820" lon="2.580965010">
        <ele>88.80</ele>
        <time>2014-04-06T08:26:52Z</time>
      </trkpt>
      <trkpt lat="41.625160120" lon="2.580940030">
        <ele>89.10</ele>
        <time>2014-04-06T08:26:53Z</time>
      </trkpt>
      <trkpt lat="41.625183420" lon="2.580915050">
        <ele>89.30</ele>
        <time>2014-04-06T08:26:54Z</time>
      </trkpt>
      <trkpt lat="41.625208400" lon="2.580891750">
        <ele>89.60</ele>
        <time>2014-04-06T08:26:55Z</time>
      </trkpt>
      <trkpt lat="41.625231700" lon="2.580868450">
        <ele>89.70</ele>
        <time>2014-04-06T08:26:56Z</time>
      </trkpt>
      <trkpt lat="41.625255010" lon="2.580845150">
        <ele>89.90</ele>
        <time>2014-04-06T08:26:57Z</time>
      </trkpt>
      <trkpt lat="41.625275120" lon="2.580825030">
        <ele>90.00</ele>
        <time>2014-04-06T08:26:58Z</time>
      </trkpt>
      <trkpt lat="41.625296750" lon="2.580803400">
        <ele>90.10</ele>
        <time>2014-04-06T08:26:59Z</time>
      </trkpt>
      <trkpt lat="41.625316700" lon="2.580783460">
        <ele>90.20</ele>
        <time>2014-04-06T08:27:00Z</time>
      </trkpt>
      <trkpt lat="41.625336810" lon="2.580765020">
        <ele>89.80</ele>
        <time>2014-04-06T08:27:01Z</time>
      </trkpt>
      <trkpt lat="41.625356760" lon="2.580746740">
        <ele>89.60</ele>
        <time>2014-04-06T08:27:02Z</time>
      </trkpt>
      <trkpt lat="41.625378390" lon="2.580730150">
        <ele>90.00</ele>
        <time>2014-04-06T08:27:03Z</time>
      </trkpt>
      <trkpt lat="41.625396830" lon="2.580711710">
        <ele>90.30</ele>
        <time>2014-04-06T08:27:04Z</time>
      </trkpt>
      <trkpt lat="41.625418450" lon="2.580693430">
        <ele>90.50</ele>
        <time>2014-04-06T08:27:05Z</time>
      </trkpt>
      <trkpt lat="41.625438400" lon="2.580676670">
        <ele>91.00</ele>
        <time>2014-04-06T08:27:06Z</time>
      </trkpt>
      <trkpt lat="41.625460030" lon="2.580660070">
        <ele>91.30</ele>
        <time>2014-04-06T08:27:07Z</time>
      </trkpt>
      <trkpt lat="41.625483330" lon="2.580643480">
        <ele>91.30</ele>
        <time>2014-04-06T08:27:08Z</time>
      </trkpt>
      <trkpt lat="41.625506800" lon="2.580628390">
        <ele>91.30</ele>
        <time>2014-04-06T08:27:09Z</time>
      </trkpt>
      <trkpt lat="41.625530100" lon="2.580613470">
        <ele>91.30</ele>
        <time>2014-04-06T08:27:10Z</time>
      </trkpt>
      <trkpt lat="41.625553400" lon="2.580601740">
        <ele>91.60</ele>
        <time>2014-04-06T08:27:11Z</time>
      </trkpt>
      <trkpt lat="41.625576700" lon="2.580588490">
        <ele>91.80</ele>
        <time>2014-04-06T08:27:12Z</time>
      </trkpt>
      <trkpt lat="41.625596820" lon="2.580575080">
        <ele>92.10</ele>
        <time>2014-04-06T08:27:13Z</time>
      </trkpt>
      <trkpt lat="41.625615090" lon="2.580565020">
        <ele>92.20</ele>
        <time>2014-04-06T08:27:14Z</time>
      </trkpt>
      <trkpt lat="41.625631690" lon="2.580560160">
        <ele>92.60</ele>
        <time>2014-04-06T08:27:15Z</time>
      </trkpt>
      <trkpt lat="41.625651810" lon="2.580551780">
        <ele>92.80</ele>
        <time>2014-04-06T08:27:16Z</time>
      </trkpt>
      <trkpt lat="41.625670080" lon="2.580543400">
        <ele>93.00</ele>
        <time>2014-04-06T08:27:17Z</time>
      </trkpt>
      <trkpt lat="41.625690030" lon="2.580536690">
        <ele>93.10</ele>
        <time>2014-04-06T08:27:18Z</time>
      </trkpt>
      <trkpt lat="41.625708470" lon="2.580530150">
        <ele>93.10</ele>
        <time>2014-04-06T08:27:19Z</time>
      </trkpt>
      <trkpt lat="41.625728420" lon="2.580523450">
        <ele>93.90</ele>
        <time>2014-04-06T08:27:20Z</time>
      </trkpt>
      <trkpt lat="41.625746690" lon="2.580518420">
        <ele>94.40</ele>
        <time>2014-04-06T08:27:21Z</time>
      </trkpt>
      <trkpt lat="41.625770160" lon="2.580513390">
        <ele>94.10</ele>
        <time>2014-04-06T08:27:22Z</time>
      </trkpt>
      <trkpt lat="41.625796810" lon="2.580503330">
        <ele>93.90</ele>
        <time>2014-04-06T08:27:23Z</time>
      </trkpt>
      <trkpt lat="41.625825140" lon="2.580490090">
        <ele>93.70</ele>
        <time>2014-04-06T08:27:24Z</time>
      </trkpt>
      <trkpt lat="41.625855150" lon="2.580471820">
        <ele>94.20</ele>
        <time>2014-04-06T08:27:25Z</time>
      </trkpt>
      <trkpt lat="41.625881800" lon="2.580450020">
        <ele>94.50</ele>
        <time>2014-04-06T08:27:26Z</time>
      </trkpt>
      <trkpt lat="41.625906780" lon="2.580430070">
        <ele>94.80</ele>
        <time>2014-04-06T08:27:27Z</time>
      </trkpt>
      <trkpt lat="41.625930080" lon="2.580408450">
        <ele>95.10</ele>
        <time>2014-04-06T08:27:28Z</time>
      </trkpt>
      <trkpt lat="41.625951710" lon="2.580383470">
        <ele>95.20</ele>
        <time>2014-04-06T08:27:29Z</time>
      </trkpt>
      <trkpt lat="41.625975010" lon="2.580358490">
        <ele>95.00</ele>
        <time>2014-04-06T08:27:30Z</time>
      </trkpt>
      <trkpt lat="41.625996800" lon="2.580331670">
        <ele>94.90</ele>
        <time>2014-04-06T08:27:31Z</time>
      </trkpt>
      <trkpt lat="41.626015080" lon="2.580308370">
        <ele>95.30</ele>
        <time>2014-04-06T08:27:32Z</time>
      </trkpt>
      <trkpt lat="41.626035030" lon="2.580290100">
        <ele>95.60</ele>
        <time>2014-04-06T08:27:33Z</time>
      </trkpt>
      <trkpt lat="41.626055140" lon="2.580268470">
        <ele>95.80</ele>
        <time>2014-04-06T08:27:34Z</time>
      </trkpt>
      <trkpt lat="41.626076770" lon="2.580248350">
        <ele>95.90</ele>
        <time>2014-04-06T08:27:35Z</time>
      </trkpt>
      <trkpt lat="41.626095040" lon="2.580230080">
        <ele>96.00</ele>
        <time>2014-04-06T08:27:36Z</time>
      </trkpt>
      <trkpt lat="41.626116670" lon="2.580213490">
        <ele>96.10</ele>
        <time>2014-04-06T08:27:37Z</time>
      </trkpt>
      <trkpt lat="41.626138460" lon="2.580190020">
        <ele>96.10</ele>
        <time>2014-04-06T08:27:38Z</time>
      </trkpt>
      <trkpt lat="41.626158410" lon="2.580170070">
        <ele>96.10</ele>
        <time>2014-04-06T08:27:39Z</time>
      </trkpt>
      <trkpt lat="41.626180030" lon="2.580148440">
        <ele>96.20</ele>
        <time>2014-04-06T08:27:40Z</time>
      </trkpt>
      <trkpt lat="41.626203330" lon="2.580130000">
        <ele>96.30</ele>
        <time>2014-04-06T08:27:41Z</time>
      </trkpt>
      <trkpt lat="41.626226800" lon="2.580113410">
        <ele>96.40</ele>
        <time>2014-04-06T08:27:42Z</time>
      </trkpt>
      <trkpt lat="41.626250110" lon="2.580096810">
        <ele>96.40</ele>
        <time>2014-04-06T08:27:43Z</time>
      </trkpt>
      <trkpt lat="41.626275080" lon="2.580076690">
        <ele>96.20</ele>
        <time>2014-04-06T08:27:44Z</time>
      </trkpt>
      <trkpt lat="41.626300060" lon="2.580061770">
        <ele>96.00</ele>
        <time>2014-04-06T08:27:45Z</time>
      </trkpt>
      <trkpt lat="41.626326720" lon="2.580043330">
        <ele>96.30</ele>
        <time>2014-04-06T08:27:46Z</time>
      </trkpt>
      <trkpt lat="41.626351690" lon="2.580028410">
        <ele>96.60</ele>
        <time>2014-04-06T08:27:47Z</time>
      </trkpt>
      <trkpt lat="41.626375000" lon="2.580013490">
        <ele>96.90</ele>
        <time>2014-04-06T08:27:48Z</time>
      </trkpt>
      <trkpt lat="41.626398470" lon="2.579996730">
        <ele>97.10</ele>
        <time>2014-04-06T08:27:49Z</time>
      </trkpt>
      <trkpt lat="41.626421770" lon="2.579978460">
        <ele>97.30</ele>
        <time>2014-04-06T08:27:50Z</time>
      </trkpt>
      <trkpt lat="41.626446750" lon="2.579960020">
        <ele>97.50</ele>
        <time>2014-04-06T08:27:51Z</time>
      </trkpt>
      <trkpt lat="41.626471720" lon="2.579941740">
        <ele>97.60</ele>
        <time>2014-04-06T08:27:52Z</time>
      </trkpt>
      <trkpt lat="41.626498380" lon="2.579923470">
        <ele>97.40</ele>
        <time>2014-04-06T08:27:53Z</time>
      </trkpt>
      <trkpt lat="41.626526710" lon="2.579906710">
        <ele>97.30</ele>
        <time>2014-04-06T08:27:54Z</time>
      </trkpt>
      <trkpt lat="41.626551690" lon="2.579893460">
        <ele>97.20</ele>
        <time>2014-04-06T08:27:55Z</time>
      </trkpt>
      <trkpt lat="41.626575160" lon="2.579880050">
        <ele>97.20</ele>
        <time>2014-04-06T08:27:56Z</time>
      </trkpt>
      <trkpt lat="41.626600130" lon="2.579866810">
        <ele>97.20</ele>
        <time>2014-04-06T08:27:57Z</time>
      </trkpt>
      <trkpt lat="41.626626790" lon="2.579851720">
        <ele>97.40</ele>
        <time>2014-04-06T08:27:58Z</time>
      </trkpt>
      <trkpt lat="41.626651770" lon="2.579840160">
        <ele>97.50</ele>
        <time>2014-04-06T08:27:59Z</time>
      </trkpt>
      <trkpt lat="41.626676740" lon="2.579833450">
        <ele>97.70</ele>
        <time>2014-04-06T08:28:00Z</time>
      </trkpt>
      <trkpt lat="41.626703400" lon="2.579823390">
        <ele>97.80</ele>
        <time>2014-04-06T08:28:01Z</time>
      </trkpt>
      <trkpt lat="41.626725020" lon="2.579815010">
        <ele>97.90</ele>
        <time>2014-04-06T08:28:02Z</time>
      </trkpt>
      <trkpt lat="41.626746820" lon="2.579806800">
        <ele>98.10</ele>
        <time>2014-04-06T08:28:03Z</time>
      </trkpt>
      <trkpt lat="41.626766770" lon="2.579801770">
        <ele>98.30</ele>
        <time>2014-04-06T08:28:04Z</time>
      </trkpt>
      <trkpt lat="41.626790070" lon="2.579795060">
        <ele>98.20</ele>
        <time>2014-04-06T08:28:05Z</time>
      </trkpt>
      <trkpt lat="41.626811690" lon="2.579788360">
        <ele>98.10</ele>
        <time>2014-04-06T08:28:06Z</time>
      </trkpt>
      <trkpt lat="41.626835160" lon="2.579788360">
        <ele>97.80</ele>
        <time>2014-04-06T08:28:07Z</time>
      </trkpt>
      <trkpt lat="41.626860140" lon="2.579785000">
        <ele>97.50</ele>
        <time>2014-04-06T08:28:08Z</time>
      </trkpt>
      <trkpt lat="41.626885120" lon="2.579781820">
        <ele>97.40</ele>
        <time>2014-04-06T08:28:09Z</time>
      </trkpt>
      <trkpt lat="41.626910100" lon="2.579778470">
        <ele>97.60</ele>
        <time>2014-04-06T08:28:10Z</time>
      </trkpt>
      <trkpt lat="41.626936750" lon="2.579770080">
        <ele>97.80</ele>
        <time>2014-04-06T08:28:11Z</time>
      </trkpt>
      <trkpt lat="41.626965080" lon="2.579763380">
        <ele>97.60</ele>
        <time>2014-04-06T08:28:12Z</time>
      </trkpt>
      <trkpt lat="41.626993410" lon="2.579756670">
        <ele>97.40</ele>
        <time>2014-04-06T08:28:13Z</time>
      </trkpt>
      <trkpt lat="41.627016710" lon="2.579751810">
        <ele>97.30</ele>
        <time>2014-04-06T08:28:14Z</time>
      </trkpt>
      <trkpt lat="41.627035150" lon="2.579748460">
        <ele>98.00</ele>
        <time>2014-04-06T08:28:15Z</time>
      </trkpt>
      <trkpt lat="41.627055100" lon="2.579746780">
        <ele>98.50</ele>
        <time>2014-04-06T08:28:16Z</time>
      </trkpt>
      <trkpt lat="41.627081760" lon="2.579743430">
        <ele>98.70</ele>
        <time>2014-04-06T08:28:17Z</time>
      </trkpt>
      <trkpt lat="41.627111770" lon="2.579736720">
        <ele>98.80</ele>
        <time>2014-04-06T08:28:18Z</time>
      </trkpt>
      <trkpt lat="41.627138420" lon="2.579733370">
        <ele>99.00</ele>
        <time>2014-04-06T08:28:19Z</time>
      </trkpt>
      <trkpt lat="41.627163400" lon="2.579733370">
        <ele>99.20</ele>
        <time>2014-04-06T08:28:20Z</time>
      </trkpt>
      <trkpt lat="41.627188380" lon="2.579730020">
        <ele>99.30</ele>
        <time>2014-04-06T08:28:21Z</time>
      </trkpt>
      <trkpt lat="41.627213350" lon="2.579726660">
        <ele>99.40</ele>
        <time>2014-04-06T08:28:22Z</time>
      </trkpt>
      <trkpt lat="41.627235150" lon="2.579725160">
        <ele>99.50</ele>
        <time>2014-04-06T08:28:23Z</time>
      </trkpt>
      <trkpt lat="41.627258450" lon="2.579725160">
        <ele>99.90</ele>
        <time>2014-04-06T08:28:24Z</time>
      </trkpt>
      <trkpt lat="41.627280070" lon="2.579725160">
        <ele>100.30</ele>
        <time>2014-04-06T08:28:25Z</time>
      </trkpt>
      <trkpt lat="41.627303380" lon="2.579725160">
        <ele>100.70</ele>
        <time>2014-04-06T08:28:26Z</time>
      </trkpt>
      <trkpt lat="41.627325000" lon="2.579723480">
        <ele>101.00</ele>
        <time>2014-04-06T08:28:27Z</time>
      </trkpt>
      <trkpt lat="41.627346790" lon="2.579721800">
        <ele>101.20</ele>
        <time>2014-04-06T08:28:28Z</time>
      </trkpt>
      <trkpt lat="41.627371770" lon="2.579716770">
        <ele>100.80</ele>
        <time>2014-04-06T08:28:29Z</time>
      </trkpt>
      <trkpt lat="41.627393400" lon="2.579716770">
        <ele>100.50</ele>
        <time>2014-04-06T08:28:30Z</time>
      </trkpt>
      <trkpt lat="41.627418380" lon="2.579715100">
        <ele>100.10</ele>
        <time>2014-04-06T08:28:31Z</time>
      </trkpt>
      <trkpt lat="41.627441680" lon="2.579710070">
        <ele>99.90</ele>
        <time>2014-04-06T08:28:32Z</time>
      </trkpt>
      <trkpt lat="41.627465150" lon="2.579705040">
        <ele>99.70</ele>
        <time>2014-04-06T08:28:33Z</time>
      </trkpt>
      <trkpt lat="41.627485100" lon="2.579701690">
        <ele>100.10</ele>
        <time>2014-04-06T08:28:34Z</time>
      </trkpt>
      <trkpt lat="41.627508400" lon="2.579698330">
        <ele>100.40</ele>
        <time>2014-04-06T08:28:35Z</time>
      </trkpt>
      <trkpt lat="41.627530020" lon="2.579695150">
        <ele>100.60</ele>
        <time>2014-04-06T08:28:36Z</time>
      </trkpt>
      <trkpt lat="41.627556680" lon="2.579691800">
        <ele>100.80</ele>
        <time>2014-04-06T08:28:37Z</time>
      </trkpt>
      <trkpt lat="41.627585010" lon="2.579686770">
        <ele>101.40</ele>
        <time>2014-04-06T08:28:38Z</time>
      </trkpt>
      <trkpt lat="41.627618370" lon="2.579680060">
        <ele>101.80</ele>
        <time>2014-04-06T08:28:39Z</time>
      </trkpt>
      <trkpt lat="41.627650050" lon="2.579670000">
        <ele>102.10</ele>
        <time>2014-04-06T08:28:40Z</time>
      </trkpt>
      <trkpt lat="41.627676710" lon="2.579658440">
        <ele>101.80</ele>
        <time>2014-04-06T08:28:41Z</time>
      </trkpt>
      <trkpt lat="41.627703360" lon="2.579643350">
        <ele>101.60</ele>
        <time>2014-04-06T08:28:42Z</time>
      </trkpt>
      <trkpt lat="41.627730010" lon="2.579626750">
        <ele>101.60</ele>
        <time>2014-04-06T08:28:43Z</time>
      </trkpt>
      <trkpt lat="41.627756670" lon="2.579610160">
        <ele>101.60</ele>
        <time>2014-04-06T08:28:44Z</time>
      </trkpt>
      <trkpt lat="41.627780140" lon="2.579596750">
        <ele>101.70</ele>
        <time>2014-04-06T08:28:45Z</time>
      </trkpt>
      <trkpt lat="41.627800090" lon="2.579586690">
        <ele>101.70</ele>
        <time>2014-04-06T08:28:46Z</time>
      </trkpt>
      <trkpt lat="41.627820040" lon="2.579573440">
        <ele>101.80</ele>
        <time>2014-04-06T08:28:47Z</time>
      </trkpt>
      <trkpt lat="41.627840150" lon="2.579563390">
        <ele>102.20</ele>
        <time>2014-04-06T08:28:48Z</time>
      </trkpt>
      <trkpt lat="41.627858430" lon="2.579553490">
        <ele>102.50</ele>
        <time>2014-04-06T08:28:49Z</time>
      </trkpt>
      <trkpt lat="41.627880050" lon="2.579545110">
        <ele>102.20</ele>
        <time>2014-04-06T08:28:50Z</time>
      </trkpt>
      <trkpt lat="41.627896810" lon="2.579538410">
        <ele>101.90</ele>
        <time>2014-04-06T08:28:51Z</time>
      </trkpt>
      <trkpt lat="41.627920120" lon="2.579528350">
        <ele>101.70</ele>
        <time>2014-04-06T08:28:52Z</time>
      </trkpt>
      <trkpt lat="41.627940060" lon="2.579518460">
        <ele>101.90</ele>
        <time>2014-04-06T08:28:53Z</time>
      </trkpt>
      <trkpt lat="41.627961690" lon="2.579506720">
        <ele>102.00</ele>
        <time>2014-04-06T08:28:54Z</time>
      </trkpt>
      <trkpt lat="41.627983480" lon="2.579496670">
        <ele>102.60</ele>
        <time>2014-04-06T08:28:55Z</time>
      </trkpt>
      <trkpt lat="41.628003430" lon="2.579488450">
        <ele>103.10</ele>
        <time>2014-04-06T08:28:56Z</time>
      </trkpt>
      <trkpt lat="41.628023380" lon="2.579478390">
        <ele>103.30</ele>
        <time>2014-04-06T08:28:57Z</time>
      </trkpt>
      <trkpt lat="41.628045010" lon="2.579471690">
        <ele>103.50</ele>
        <time>2014-04-06T08:28:58Z</time>
      </trkpt>
      <trkpt lat="41.628065120" lon="2.579465150">
        <ele>103.70</ele>
        <time>2014-04-06T08:28:59Z</time>
      </trkpt>
      <trkpt lat="41.628086750" lon="2.579460120">
        <ele>103.90</ele>
        <time>2014-04-06T08:29:00Z</time>
      </trkpt>
      <trkpt lat="41.628103340" lon="2.579451740">
        <ele>104.10</ele>
        <time>2014-04-06T08:29:01Z</time>
      </trkpt>
      <trkpt lat="41.628126810" lon="2.579446710">
        <ele>104.40</ele>
        <time>2014-04-06T08:29:02Z</time>
      </trkpt>
      <trkpt lat="41.628146760" lon="2.579445030">
        <ele>104.70</ele>
        <time>2014-04-06T08:29:03Z</time>
      </trkpt>
      <trkpt lat="41.628170060" lon="2.579441680">
        <ele>104.90</ele>
        <time>2014-04-06T08:29:04Z</time>
      </trkpt>
      <trkpt lat="41.628190010" lon="2.579441680">
        <ele>105.00</ele>
        <time>2014-04-06T08:29:05Z</time>
      </trkpt>
      <trkpt lat="41.628211810" lon="2.579438500">
        <ele>105.10</ele>
        <time>2014-04-06T08:29:06Z</time>
      </trkpt>
      <trkpt lat="41.628235110" lon="2.579438500">
        <ele>105.30</ele>
        <time>2014-04-06T08:29:07Z</time>
      </trkpt>
      <trkpt lat="41.628256730" lon="2.579440000">
        <ele>105.40</ele>
        <time>2014-04-06T08:29:08Z</time>
      </trkpt>
      <trkpt lat="41.628278360" lon="2.579443360">
        <ele>105.80</ele>
        <time>2014-04-06T08:29:09Z</time>
      </trkpt>
      <trkpt lat="41.628303340" lon="2.579450060">
        <ele>106.10</ele>
        <time>2014-04-06T08:29:10Z</time>
      </trkpt>
      <trkpt lat="41.628326810" lon="2.579456770">
        <ele>106.30</ele>
        <time>2014-04-06T08:29:11Z</time>
      </trkpt>
      <trkpt lat="41.628346750" lon="2.579461800">
        <ele>106.50</ele>
        <time>2014-04-06T08:29:12Z</time>
      </trkpt>
      <trkpt lat="41.628368380" lon="2.579471690">
        <ele>106.70</ele>
        <time>2014-04-06T08:29:13Z</time>
      </trkpt>
      <trkpt lat="41.628388330" lon="2.579481750">
        <ele>106.80</ele>
        <time>2014-04-06T08:29:14Z</time>
      </trkpt>
      <trkpt lat="41.628411800" lon="2.579493480">
        <ele>106.90</ele>
        <time>2014-04-06T08:29:15Z</time>
      </trkpt>
      <trkpt lat="41.628435100" lon="2.579508400">
        <ele>107.30</ele>
        <time>2014-04-06T08:29:16Z</time>
      </trkpt>
      <trkpt lat="41.628458400" lon="2.579521810">
        <ele>107.60</ele>
        <time>2014-04-06T08:29:17Z</time>
      </trkpt>
      <trkpt lat="41.628480030" lon="2.579533380">
        <ele>107.80</ele>
        <time>2014-04-06T08:29:18Z</time>
      </trkpt>
      <trkpt lat="41.628496790" lon="2.579550140">
        <ele>108.20</ele>
        <time>2014-04-06T08:29:19Z</time>
      </trkpt>
      <trkpt lat="41.628515060" lon="2.579565060">
        <ele>108.50</ele>
        <time>2014-04-06T08:29:20Z</time>
      </trkpt>
      <trkpt lat="41.628538370" lon="2.579581830">
        <ele>108.70</ele>
        <time>2014-04-06T08:29:21Z</time>
      </trkpt>
      <trkpt lat="41.628558480" lon="2.579601770">
        <ele>108.90</ele>
        <time>2014-04-06T08:29:22Z</time>
      </trkpt>
      <trkpt lat="41.628578430" lon="2.579618370">
        <ele>108.70</ele>
        <time>2014-04-06T08:29:23Z</time>
      </trkpt>
      <trkpt lat="41.628600060" lon="2.579633460">
        <ele>108.50</ele>
        <time>2014-04-06T08:29:24Z</time>
      </trkpt>
      <trkpt lat="41.628618330" lon="2.579645030">
        <ele>108.40</ele>
        <time>2014-04-06T08:29:25Z</time>
      </trkpt>
      <trkpt lat="41.628633420" lon="2.579660110">
        <ele>108.70</ele>
        <time>2014-04-06T08:29:26Z</time>
      </trkpt>
      <trkpt lat="41.628651690" lon="2.579675030">
        <ele>109.00</ele>
        <time>2014-04-06T08:29:27Z</time>
      </trkpt>
      <trkpt lat="41.628670130" lon="2.579691800">
        <ele>109.60</ele>
        <time>2014-04-06T08:29:28Z</time>
      </trkpt>
      <trkpt lat="41.628688400" lon="2.579705040">
        <ele>110.10</ele>
        <time>2014-04-06T08:29:29Z</time>
      </trkpt>
      <trkpt lat="41.628706670" lon="2.579720130">
        <ele>110.40</ele>
        <time>2014-04-06T08:29:30Z</time>
      </trkpt>
      <trkpt lat="41.628721760" lon="2.579738400">
        <ele>110.60</ele>
        <time>2014-04-06T08:29:31Z</time>
      </trkpt>
      <trkpt lat="41.628740030" lon="2.579756670">
        <ele>110.80</ele>
        <time>2014-04-06T08:29:32Z</time>
      </trkpt>
      <trkpt lat="41.628758470" lon="2.579775110">
        <ele>111.10</ele>
        <time>2014-04-06T08:29:33Z</time>
      </trkpt>
      <trkpt lat="41.628778420" lon="2.579793380">
        <ele>111.30</ele>
        <time>2014-04-06T08:29:34Z</time>
      </trkpt>
      <trkpt lat="41.628796700" lon="2.579811830">
        <ele>111.20</ele>
        <time>2014-04-06T08:29:35Z</time>
      </trkpt>
      <trkpt lat="41.628818490" lon="2.579835130">
        <ele>111.20</ele>
        <time>2014-04-06T08:29:36Z</time>
      </trkpt>
      <trkpt lat="41.628838440" lon="2.579860100">
        <ele>111.10</ele>
        <time>2014-04-06T08:29:37Z</time>
      </trkpt>
      <trkpt lat="41.628863420" lon="2.579881730">
        <ele>111.30</ele>
        <time>2014-04-06T08:29:38Z</time>
      </trkpt>
      <trkpt lat="41.628888390" lon="2.579903360">
        <ele>111.50</ele>
        <time>2014-04-06T08:29:39Z</time>
      </trkpt>
      <trkpt lat="41.628916720" lon="2.579921800">
        <ele>111.70</ele>
        <time>2014-04-06T08:29:40Z</time>
      </trkpt>
      <trkpt lat="41.628945060" lon="2.579938390">
        <ele>111.80</ele>
        <time>2014-04-06T08:29:41Z</time>
      </trkpt>
      <trkpt lat="41.628973390" lon="2.579948450">
        <ele>111.90</ele>
        <time>2014-04-06T08:29:42Z</time>
      </trkpt>
      <trkpt lat="41.629003390" lon="2.579960020">
        <ele>112.00</ele>
        <time>2014-04-06T08:29:43Z</time>
      </trkpt>
      <trkpt lat="41.629033400" lon="2.579971750">
        <ele>112.10</ele>
        <time>2014-04-06T08:29:44Z</time>
      </trkpt>
      <trkpt lat="41.629063410" lon="2.579983490">
        <ele>112.20</ele>
        <time>2014-04-06T08:29:45Z</time>
      </trkpt>
      <trkpt lat="41.629096770" lon="2.579996730">
        <ele>112.20</ele>
        <time>2014-04-06T08:29:46Z</time>
      </trkpt>
      <trkpt lat="41.629135160" lon="2.580006790">
        <ele>112.40</ele>
        <time>2014-04-06T08:29:47Z</time>
      </trkpt>
      <trkpt lat="41.629170030" lon="2.580015000">
        <ele>112.50</ele>
        <time>2014-04-06T08:29:48Z</time>
      </trkpt>
      <trkpt lat="41.629205060" lon="2.580028410">
        <ele>112.60</ele>
        <time>2014-04-06T08:29:49Z</time>
      </trkpt>
      <trkpt lat="41.629241770" lon="2.580040150">
        <ele>112.10</ele>
        <time>2014-04-06T08:29:50Z</time>
      </trkpt>
      <trkpt lat="41.629271780" lon="2.580050040">
        <ele>111.60</ele>
        <time>2014-04-06T08:29:51Z</time>
      </trkpt>
      <trkpt lat="41.629305140" lon="2.580060100">
        <ele>111.50</ele>
        <time>2014-04-06T08:29:52Z</time>
      </trkpt>
      <trkpt lat="41.629336830" lon="2.580073340">
        <ele>111.40</ele>
        <time>2014-04-06T08:29:53Z</time>
      </trkpt>
      <trkpt lat="41.629370020" lon="2.580083400">
        <ele>111.10</ele>
        <time>2014-04-06T08:29:54Z</time>
      </trkpt>
      <trkpt lat="41.629401700" lon="2.580093460">
        <ele>110.90</ele>
        <time>2014-04-06T08:29:55Z</time>
      </trkpt>
      <trkpt lat="41.629433380" lon="2.580103350">
        <ele>110.70</ele>
        <time>2014-04-06T08:29:56Z</time>
      </trkpt>
      <trkpt lat="41.629461720" lon="2.580106700">
        <ele>110.90</ele>
        <time>2014-04-06T08:29:57Z</time>
      </trkpt>
      <trkpt lat="41.629491720" lon="2.580111730">
        <ele>111.10</ele>
        <time>2014-04-06T08:29:58Z</time>
      </trkpt>
      <trkpt lat="41.629525080" lon="2.580118440">
        <ele>110.60</ele>
        <time>2014-04-06T08:29:59Z</time>
      </trkpt>
      <trkpt lat="41.629550060" lon="2.580125140">
        <ele>110.20</ele>
        <time>2014-04-06T08:30:00Z</time>
      </trkpt>
      <trkpt lat="41.629576720" lon="2.580128490">
        <ele>110.40</ele>
        <time>2014-04-06T08:30:01Z</time>
      </trkpt>
      <trkpt lat="41.629606720" lon="2.580131680">
        <ele>110.50</ele>
        <time>2014-04-06T08:30:02Z</time>
      </trkpt>
      <trkpt lat="41.629636730" lon="2.580136710">
        <ele>110.60</ele>
        <time>2014-04-06T08:30:03Z</time>
      </trkpt>
      <trkpt lat="41.629665060" lon="2.580141740">
        <ele>110.70</ele>
        <time>2014-04-06T08:30:04Z</time>
      </trkpt>
      <trkpt lat="41.629691720" lon="2.580145090">
        <ele>110.70</ele>
        <time>2014-04-06T08:30:05Z</time>
      </trkpt>
      <trkpt lat="41.629718370" lon="2.580150120">
        <ele>110.50</ele>
        <time>2014-04-06T08:30:06Z</time>
      </trkpt>
      <trkpt lat="41.629746700" lon="2.580155150">
        <ele>110.30</ele>
        <time>2014-04-06T08:30:07Z</time>
      </trkpt>
      <trkpt lat="41.629775030" lon="2.580161690">
        <ele>110.20</ele>
        <time>2014-04-06T08:30:08Z</time>
      </trkpt>
      <trkpt lat="41.629805040" lon="2.580168390">
        <ele>110.50</ele>
        <time>2014-04-06T08:30:09Z</time>
      </trkpt>
      <trkpt lat="41.629836720" lon="2.580176770">
        <ele>110.60</ele>
        <time>2014-04-06T08:30:10Z</time>
      </trkpt>
      <trkpt lat="41.629861700" lon="2.580181800">
        <ele>110.70</ele>
        <time>2014-04-06T08:30:11Z</time>
      </trkpt>
      <trkpt lat="41.629886680" lon="2.580188340">
        <ele>110.80</ele>
        <time>2014-04-06T08:30:12Z</time>
      </trkpt>
      <trkpt lat="41.629910150" lon="2.580195050">
        <ele>110.90</ele>
        <time>2014-04-06T08:30:13Z</time>
      </trkpt>
      <trkpt lat="41.629935130" lon="2.580203430">
        <ele>111.00</ele>
        <time>2014-04-06T08:30:14Z</time>
      </trkpt>
      <trkpt lat="41.629963460" lon="2.580211810">
        <ele>111.00</ele>
        <time>2014-04-06T08:30:15Z</time>
      </trkpt>
      <trkpt lat="41.629988430" lon="2.580220020">
        <ele>111.40</ele>
        <time>2014-04-06T08:30:16Z</time>
      </trkpt>
      <trkpt lat="41.630010060" lon="2.580228410">
        <ele>111.80</ele>
        <time>2014-04-06T08:30:17Z</time>
      </trkpt>
      <trkpt lat="41.630031690" lon="2.580236790">
        <ele>111.60</ele>
        <time>2014-04-06T08:30:18Z</time>
      </trkpt>
      <trkpt lat="41.630056660" lon="2.580248350">
        <ele>111.50</ele>
        <time>2014-04-06T08:30:19Z</time>
      </trkpt>
      <trkpt lat="41.630080130" lon="2.580256740">
        <ele>111.70</ele>
        <time>2014-04-06T08:30:20Z</time>
      </trkpt>
      <trkpt lat="41.630106790" lon="2.580261770">
        <ele>111.80</ele>
        <time>2014-04-06T08:30:21Z</time>
      </trkpt>
      <trkpt lat="41.630130090" lon="2.580263440">
        <ele>111.90</ele>
        <time>2014-04-06T08:30:22Z</time>
      </trkpt>
      <trkpt lat="41.630156740" lon="2.580265120">
        <ele>112.20</ele>
        <time>2014-04-06T08:30:23Z</time>
      </trkpt>
      <trkpt lat="41.630185070" lon="2.580266790">
        <ele>112.40</ele>
        <time>2014-04-06T08:30:24Z</time>
      </trkpt>
      <trkpt lat="41.630211730" lon="2.580266790">
        <ele>112.60</ele>
        <time>2014-04-06T08:30:25Z</time>
      </trkpt>
      <trkpt lat="41.630240060" lon="2.580265120">
        <ele>112.80</ele>
        <time>2014-04-06T08:30:26Z</time>
      </trkpt>
      <trkpt lat="41.630265040" lon="2.580265120">
        <ele>112.70</ele>
        <time>2014-04-06T08:30:27Z</time>
      </trkpt>
      <trkpt lat="41.630293370" lon="2.580266790">
        <ele>112.60</ele>
        <time>2014-04-06T08:30:28Z</time>
      </trkpt>
      <trkpt lat="41.630318350" lon="2.580270150">
        <ele>112.50</ele>
        <time>2014-04-06T08:30:29Z</time>
      </trkpt>
      <trkpt lat="41.630345000" lon="2.580271820">
        <ele>112.60</ele>
        <time>2014-04-06T08:30:30Z</time>
      </trkpt>
      <trkpt lat="41.630375010" lon="2.580271820">
        <ele>112.70</ele>
        <time>2014-04-06T08:30:31Z</time>
      </trkpt>
      <trkpt lat="41.630398480" lon="2.580271820">
        <ele>113.10</ele>
        <time>2014-04-06T08:30:32Z</time>
      </trkpt>
      <trkpt lat="41.630426810" lon="2.580271820">
        <ele>113.50</ele>
        <time>2014-04-06T08:30:33Z</time>
      </trkpt>
      <trkpt lat="41.630455140" lon="2.580268470">
        <ele>113.70</ele>
        <time>2014-04-06T08:30:34Z</time>
      </trkpt>
      <trkpt lat="41.630481790" lon="2.580266790">
        <ele>113.80</ele>
        <time>2014-04-06T08:30:35Z</time>
      </trkpt>
      <trkpt lat="41.630505090" lon="2.580260090">
        <ele>113.80</ele>
        <time>2014-04-06T08:30:36Z</time>
      </trkpt>
      <trkpt lat="41.630531750" lon="2.580256740">
        <ele>113.80</ele>
        <time>2014-04-06T08:30:37Z</time>
      </trkpt>
      <trkpt lat="41.630556730" lon="2.580250030">
        <ele>113.80</ele>
        <time>2014-04-06T08:30:38Z</time>
      </trkpt>
      <trkpt lat="41.630581710" lon="2.580245000">
        <ele>114.10</ele>
        <time>2014-04-06T08:30:39Z</time>
      </trkpt>
      <trkpt lat="41.630605010" lon="2.580238460">
        <ele>114.40</ele>
        <time>2014-04-06T08:30:40Z</time>
      </trkpt>
      <trkpt lat="41.630628480" lon="2.580230080">
        <ele>114.70</ele>
        <time>2014-04-06T08:30:41Z</time>
      </trkpt>
      <trkpt lat="41.630648430" lon="2.580223380">
        <ele>114.60</ele>
        <time>2014-04-06T08:30:42Z</time>
      </trkpt>
      <trkpt lat="41.630670050" lon="2.580216670">
        <ele>114.60</ele>
        <time>2014-04-06T08:30:43Z</time>
      </trkpt>
      <trkpt lat="41.630695030" lon="2.580211810">
        <ele>114.50</ele>
        <time>2014-04-06T08:30:44Z</time>
      </trkpt>
      <trkpt lat="41.630723360" lon="2.580205100">
        <ele>114.40</ele>
        <time>2014-04-06T08:30:45Z</time>
      </trkpt>
      <trkpt lat="41.630751690" lon="2.580201750">
        <ele>114.80</ele>
        <time>2014-04-06T08:30:46Z</time>
      </trkpt>
      <trkpt lat="41.630778340" lon="2.580193370">
        <ele>115.00</ele>
        <time>2014-04-06T08:30:47Z</time>
      </trkpt>
      <trkpt lat="41.630803490" lon="2.580186660">
        <ele>115.20</ele>
        <time>2014-04-06T08:30:48Z</time>
      </trkpt>
      <trkpt lat="41.630830150" lon="2.580180130">
        <ele>115.10</ele>
        <time>2014-04-06T08:30:49Z</time>
      </trkpt>
      <trkpt lat="41.630856800" lon="2.580176770">
        <ele>115.00</ele>
        <time>2014-04-06T08:30:50Z</time>
      </trkpt>
      <trkpt lat="41.630886810" lon="2.580168390">
        <ele>114.80</ele>
        <time>2014-04-06T08:30:51Z</time>
      </trkpt>
      <trkpt lat="41.630913460" lon="2.580163360">
        <ele>114.70</ele>
        <time>2014-04-06T08:30:52Z</time>
      </trkpt>
      <trkpt lat="41.630941790" lon="2.580156820">
        <ele>114.70</ele>
        <time>2014-04-06T08:30:53Z</time>
      </trkpt>
      <trkpt lat="41.630968450" lon="2.580153470">
        <ele>115.00</ele>
        <time>2014-04-06T08:30:54Z</time>
      </trkpt>
      <trkpt lat="41.630998450" lon="2.580148440">
        <ele>115.30</ele>
        <time>2014-04-06T08:30:55Z</time>
      </trkpt>
      <trkpt lat="41.631031810" lon="2.580138380">
        <ele>115.30</ele>
        <time>2014-04-06T08:30:56Z</time>
      </trkpt>
      <trkpt lat="41.631063330" lon="2.580128490">
        <ele>115.20</ele>
        <time>2014-04-06T08:30:57Z</time>
      </trkpt>
      <trkpt lat="41.631091830" lon="2.580118440">
        <ele>115.20</ele>
        <time>2014-04-06T08:30:58Z</time>
      </trkpt>
      <trkpt lat="41.631123340" lon="2.580110050">
        <ele>115.20</ele>
        <time>2014-04-06T08:30:59Z</time>
      </trkpt>
      <trkpt lat="41.631153350" lon="2.580101670">
        <ele>115.20</ele>
        <time>2014-04-06T08:31:00Z</time>
      </trkpt>
      <trkpt lat="41.631181680" lon="2.580095130">
        <ele>115.70</ele>
        <time>2014-04-06T08:31:01Z</time>
      </trkpt>
      <trkpt lat="41.631210010" lon="2.580090100">
        <ele>116.10</ele>
        <time>2014-04-06T08:31:02Z</time>
      </trkpt>
      <trkpt lat="41.631235160" lon="2.580085080">
        <ele>116.10</ele>
        <time>2014-04-06T08:31:03Z</time>
      </trkpt>
      <trkpt lat="41.631258460" lon="2.580080050">
        <ele>116.10</ele>
        <time>2014-04-06T08:31:04Z</time>
      </trkpt>
      <trkpt lat="41.631286790" lon="2.580075020">
        <ele>116.10</ele>
        <time>2014-04-06T08:31:05Z</time>
      </trkpt>
      <trkpt lat="41.631315120" lon="2.580070160">
        <ele>116.10</ele>
        <time>2014-04-06T08:31:06Z</time>
      </trkpt>
      <trkpt lat="41.631341780" lon="2.580066800">
        <ele>116.10</ele>
        <time>2014-04-06T08:31:07Z</time>
      </trkpt>
      <trkpt lat="41.631370110" lon="2.580061770">
        <ele>116.30</ele>
        <time>2014-04-06T08:31:08Z</time>
      </trkpt>
      <trkpt lat="41.631395090" lon="2.580065130">
        <ele>116.50</ele>
        <time>2014-04-06T08:31:09Z</time>
      </trkpt>
      <trkpt lat="41.631420060" lon="2.580063450">
        <ele>116.50</ele>
        <time>2014-04-06T08:31:10Z</time>
      </trkpt>
      <trkpt lat="41.631446720" lon="2.580056740">
        <ele>116.50</ele>
        <time>2014-04-06T08:31:11Z</time>
      </trkpt>
      <trkpt lat="41.631475050" lon="2.580051720">
        <ele>116.50</ele>
        <time>2014-04-06T08:31:12Z</time>
      </trkpt>
      <trkpt lat="41.631500030" lon="2.580048360">
        <ele>116.90</ele>
        <time>2014-04-06T08:31:13Z</time>
      </trkpt>
      <trkpt lat="41.631525000" lon="2.580050040">
        <ele>117.30</ele>
        <time>2014-04-06T08:31:14Z</time>
      </trkpt>
      <trkpt lat="41.631551830" lon="2.580056740">
        <ele>117.20</ele>
        <time>2014-04-06T08:31:15Z</time>
      </trkpt>
      <trkpt lat="41.631578480" lon="2.580060100">
        <ele>117.10</ele>
        <time>2014-04-06T08:31:16Z</time>
      </trkpt>
      <trkpt lat="41.631606810" lon="2.580065130">
        <ele>117.30</ele>
        <time>2014-04-06T08:31:17Z</time>
      </trkpt>
      <trkpt lat="41.631635140" lon="2.580070160">
        <ele>117.50</ele>
        <time>2014-04-06T08:31:18Z</time>
      </trkpt>
      <trkpt lat="41.631663470" lon="2.580075020">
        <ele>117.60</ele>
        <time>2014-04-06T08:31:19Z</time>
      </trkpt>
      <trkpt lat="41.631686780" lon="2.580083400">
        <ele>118.10</ele>
        <time>2014-04-06T08:31:20Z</time>
      </trkpt>
      <trkpt lat="41.631710080" lon="2.580090100">
        <ele>118.50</ele>
        <time>2014-04-06T08:31:21Z</time>
      </trkpt>
      <trkpt lat="41.631736730" lon="2.580098490">
        <ele>118.60</ele>
        <time>2014-04-06T08:31:22Z</time>
      </trkpt>
      <trkpt lat="41.631765060" lon="2.580105020">
        <ele>118.60</ele>
        <time>2014-04-06T08:31:23Z</time>
      </trkpt>
      <trkpt lat="41.631793390" lon="2.580110050">
        <ele>118.70</ele>
        <time>2014-04-06T08:31:24Z</time>
      </trkpt>
      <trkpt lat="41.631820050" lon="2.580118440">
        <ele>118.70</ele>
        <time>2014-04-06T08:31:25Z</time>
      </trkpt>
      <trkpt lat="41.631846700" lon="2.580121790">
        <ele>118.70</ele>
        <time>2014-04-06T08:31:26Z</time>
      </trkpt>
      <trkpt lat="41.631880060" lon="2.580128490">
        <ele>118.60</ele>
        <time>2014-04-06T08:31:27Z</time>
      </trkpt>
      <trkpt lat="41.631908390" lon="2.580135030">
        <ele>118.50</ele>
        <time>2014-04-06T08:31:28Z</time>
      </trkpt>
      <trkpt lat="41.631936720" lon="2.580138380">
        <ele>118.40</ele>
        <time>2014-04-06T08:31:29Z</time>
      </trkpt>
      <trkpt lat="41.631963380" lon="2.580143410">
        <ele>118.30</ele>
        <time>2014-04-06T08:31:30Z</time>
      </trkpt>
      <trkpt lat="41.631990030" lon="2.580146770">
        <ele>118.30</ele>
        <time>2014-04-06T08:31:31Z</time>
      </trkpt>
      <trkpt lat="41.632018360" lon="2.580148440">
        <ele>118.50</ele>
        <time>2014-04-06T08:31:32Z</time>
      </trkpt>
      <trkpt lat="41.632043340" lon="2.580146770">
        <ele>118.60</ele>
        <time>2014-04-06T08:31:33Z</time>
      </trkpt>
      <trkpt lat="41.632070000" lon="2.580146770">
        <ele>118.90</ele>
        <time>2014-04-06T08:31:34Z</time>
      </trkpt>
      <trkpt lat="41.632093470" lon="2.580148440">
        <ele>119.20</ele>
        <time>2014-04-06T08:31:35Z</time>
      </trkpt>
      <trkpt lat="41.632118440" lon="2.580150120">
        <ele>119.50</ele>
        <time>2014-04-06T08:31:36Z</time>
      </trkpt>
      <trkpt lat="41.632140070" lon="2.580151800">
        <ele>119.70</ele>
        <time>2014-04-06T08:31:37Z</time>
      </trkpt>
      <trkpt lat="41.632166720" lon="2.580155150">
        <ele>119.90</ele>
        <time>2014-04-06T08:31:38Z</time>
      </trkpt>
      <trkpt lat="41.632195050" lon="2.580156820">
        <ele>119.70</ele>
        <time>2014-04-06T08:31:39Z</time>
      </trkpt>
      <trkpt lat="41.632221710" lon="2.580160010">
        <ele>119.60</ele>
        <time>2014-04-06T08:31:40Z</time>
      </trkpt>
      <trkpt lat="41.632246690" lon="2.580161690">
        <ele>119.70</ele>
        <time>2014-04-06T08:31:41Z</time>
      </trkpt>
      <trkpt lat="41.632270160" lon="2.580163360">
        <ele>119.70</ele>
        <time>2014-04-06T08:31:42Z</time>
      </trkpt>
      <trkpt lat="41.632293460" lon="2.580166710">
        <ele>119.90</ele>
        <time>2014-04-06T08:31:43Z</time>
      </trkpt>
      <trkpt lat="41.632318440" lon="2.580168390">
        <ele>120.00</ele>
        <time>2014-04-06T08:31:44Z</time>
      </trkpt>
      <trkpt lat="41.632341740" lon="2.580170070">
        <ele>120.10</ele>
        <time>2014-04-06T08:31:45Z</time>
      </trkpt>
      <trkpt lat="41.632361690" lon="2.580173420">
        <ele>120.30</ele>
        <time>2014-04-06T08:31:46Z</time>
      </trkpt>
      <trkpt lat="41.632378450" lon="2.580173420">
        <ele>120.40</ele>
        <time>2014-04-06T08:31:47Z</time>
      </trkpt>
      <trkpt lat="41.632401750" lon="2.580176770">
        <ele>120.60</ele>
        <time>2014-04-06T08:31:48Z</time>
      </trkpt>
      <trkpt lat="41.632425050" lon="2.580180130">
        <ele>120.70</ele>
        <time>2014-04-06T08:31:49Z</time>
      </trkpt>
      <trkpt lat="41.632445000" lon="2.580178450">
        <ele>120.80</ele>
        <time>2014-04-06T08:31:50Z</time>
      </trkpt>
      <trkpt lat="41.632466800" lon="2.580178450">
        <ele>121.30</ele>
        <time>2014-04-06T08:31:51Z</time>
      </trkpt>
      <trkpt lat="41.632490100" lon="2.580178450">
        <ele>121.60</ele>
        <time>2014-04-06T08:31:52Z</time>
      </trkpt>
      <trkpt lat="41.632513400" lon="2.580178450">
        <ele>121.70</ele>
        <time>2014-04-06T08:31:53Z</time>
      </trkpt>
      <trkpt lat="41.632538380" lon="2.580178450">
        <ele>121.80</ele>
        <time>2014-04-06T08:31:54Z</time>
      </trkpt>
      <trkpt lat="41.632560000" lon="2.580178450">
        <ele>122.30</ele>
        <time>2014-04-06T08:31:55Z</time>
      </trkpt>
      <trkpt lat="41.632578440" lon="2.580173420">
        <ele>122.70</ele>
        <time>2014-04-06T08:31:56Z</time>
      </trkpt>
      <trkpt lat="41.632600070" lon="2.580168390">
        <ele>123.00</ele>
        <time>2014-04-06T08:31:57Z</time>
      </trkpt>
      <trkpt lat="41.632620020" lon="2.580165040">
        <ele>123.30</ele>
        <time>2014-04-06T08:31:58Z</time>
      </trkpt>
      <trkpt lat="41.632630070" lon="2.580160010">
        <ele>123.60</ele>
        <time>2014-04-06T08:31:59Z</time>
      </trkpt>
      <trkpt lat="41.632648350" lon="2.580153470">
        <ele>123.90</ele>
        <time>2014-04-06T08:32:00Z</time>
      </trkpt>
      <trkpt lat="41.632668460" lon="2.580148440">
        <ele>124.20</ele>
        <time>2014-04-06T08:32:01Z</time>
      </trkpt>
      <trkpt lat="41.632686740" lon="2.580143410">
        <ele>124.10</ele>
        <time>2014-04-06T08:32:02Z</time>
      </trkpt>
      <trkpt lat="41.632703330" lon="2.580135030">
        <ele>124.10</ele>
        <time>2014-04-06T08:32:03Z</time>
      </trkpt>
      <trkpt lat="41.632723450" lon="2.580130000">
        <ele>124.10</ele>
        <time>2014-04-06T08:32:04Z</time>
      </trkpt>
      <trkpt lat="41.632745070" lon="2.580125140">
        <ele>124.80</ele>
        <time>2014-04-06T08:32:05Z</time>
      </trkpt>
      <trkpt lat="41.632766700" lon="2.580120110">
        <ele>125.30</ele>
        <time>2014-04-06T08:32:06Z</time>
      </trkpt>
      <trkpt lat="41.632788490" lon="2.580118440">
        <ele>125.70</ele>
        <time>2014-04-06T08:32:07Z</time>
      </trkpt>
      <trkpt lat="41.632808440" lon="2.580115080">
        <ele>126.00</ele>
        <time>2014-04-06T08:32:08Z</time>
      </trkpt>
      <trkpt lat="41.632825040" lon="2.580118440">
        <ele>126.30</ele>
        <time>2014-04-06T08:32:09Z</time>
      </trkpt>
      <trkpt lat="41.632846660" lon="2.580116760">
        <ele>126.50</ele>
        <time>2014-04-06T08:32:10Z</time>
      </trkpt>
      <trkpt lat="41.632866780" lon="2.580111730">
        <ele>126.70</ele>
        <time>2014-04-06T08:32:11Z</time>
      </trkpt>
      <trkpt lat="41.632885050" lon="2.580105020">
        <ele>127.20</ele>
        <time>2014-04-06T08:32:12Z</time>
      </trkpt>
      <trkpt lat="41.632901820" lon="2.580096810">
        <ele>127.70</ele>
        <time>2014-04-06T08:32:13Z</time>
      </trkpt>
      <trkpt lat="41.632918410" lon="2.580086750">
        <ele>128.00</ele>
        <time>2014-04-06T08:32:14Z</time>
      </trkpt>
      <trkpt lat="41.632936690" lon="2.580078370">
        <ele>128.30</ele>
        <time>2014-04-06T08:32:15Z</time>
      </trkpt>
      <trkpt lat="41.632953450" lon="2.580070160">
        <ele>128.50</ele>
        <time>2014-04-06T08:32:16Z</time>
      </trkpt>
      <trkpt lat="41.632968370" lon="2.580058420">
        <ele>128.60</ele>
        <time>2014-04-06T08:32:17Z</time>
      </trkpt>
      <trkpt lat="41.632985130" lon="2.580045010">
        <ele>128.80</ele>
        <time>2014-04-06T08:32:18Z</time>
      </trkpt>
      <trkpt lat="41.633001730" lon="2.580030090">
        <ele>129.10</ele>
        <time>2014-04-06T08:32:19Z</time>
      </trkpt>
      <trkpt lat="41.633016820" lon="2.580016680">
        <ele>129.40</ele>
        <time>2014-04-06T08:32:20Z</time>
      </trkpt>
      <trkpt lat="41.633026710" lon="2.580003440">
        <ele>129.60</ele>
        <time>2014-04-06T08:32:21Z</time>
      </trkpt>
      <trkpt lat="41.633040120" lon="2.579986670">
        <ele>129.80</ele>
        <time>2014-04-06T08:32:22Z</time>
      </trkpt>
      <trkpt lat="41.633053360" lon="2.579973430">
        <ele>129.90</ele>
        <time>2014-04-06T08:32:23Z</time>
      </trkpt>
      <trkpt lat="41.633066770" lon="2.579956660">
        <ele>130.00</ele>
        <time>2014-04-06T08:32:24Z</time>
      </trkpt>
      <trkpt lat="41.633081690" lon="2.579941740">
        <ele>130.00</ele>
        <time>2014-04-06T08:32:25Z</time>
      </trkpt>
      <trkpt lat="41.633096780" lon="2.579925150">
        <ele>130.30</ele>
        <time>2014-04-06T08:32:26Z</time>
      </trkpt>
      <trkpt lat="41.633116730" lon="2.579911740">
        <ele>130.50</ele>
        <time>2014-04-06T08:32:27Z</time>
      </trkpt>
      <trkpt lat="41.633136680" lon="2.579898490">
        <ele>130.60</ele>
        <time>2014-04-06T08:32:28Z</time>
      </trkpt>
      <trkpt lat="41.633155120" lon="2.579886760">
        <ele>130.90</ele>
        <time>2014-04-06T08:32:29Z</time>
      </trkpt>
      <trkpt lat="41.633175070" lon="2.579875020">
        <ele>131.10</ele>
        <time>2014-04-06T08:32:30Z</time>
      </trkpt>
      <trkpt lat="41.633193340" lon="2.579868490">
        <ele>131.50</ele>
        <time>2014-04-06T08:32:31Z</time>
      </trkpt>
      <trkpt lat="41.633208430" lon="2.579865130">
        <ele>131.80</ele>
        <time>2014-04-06T08:32:32Z</time>
      </trkpt>
      <trkpt lat="41.633223350" lon="2.579860100">
        <ele>132.10</ele>
        <time>2014-04-06T08:32:33Z</time>
      </trkpt>
      <trkpt lat="41.633238430" lon="2.579855080">
        <ele>132.30</ele>
        <time>2014-04-06T08:32:34Z</time>
      </trkpt>
      <trkpt lat="41.633256710" lon="2.579853400">
        <ele>132.40</ele>
        <time>2014-04-06T08:32:35Z</time>
      </trkpt>
      <trkpt lat="41.633275150" lon="2.579855080">
        <ele>133.10</ele>
        <time>2014-04-06T08:32:36Z</time>
      </trkpt>
      <trkpt lat="41.633291740" lon="2.579855080">
        <ele>133.70</ele>
        <time>2014-04-06T08:32:37Z</time>
      </trkpt>
      <trkpt lat="41.633313370" lon="2.579858430">
        <ele>133.40</ele>
        <time>2014-04-06T08:32:38Z</time>
      </trkpt>
      <trkpt lat="41.633333480" lon="2.579863460">
        <ele>133.20</ele>
        <time>2014-04-06T08:32:39Z</time>
      </trkpt>
      <trkpt lat="41.633351760" lon="2.579870000">
        <ele>133.30</ele>
        <time>2014-04-06T08:32:40Z</time>
      </trkpt>
      <trkpt lat="41.633368350" lon="2.579880050">
        <ele>133.30</ele>
        <time>2014-04-06T08:32:41Z</time>
      </trkpt>
      <trkpt lat="41.633385120" lon="2.579890110">
        <ele>133.30</ele>
        <time>2014-04-06T08:32:42Z</time>
      </trkpt>
      <trkpt lat="41.633401710" lon="2.579900000">
        <ele>133.50</ele>
        <time>2014-04-06T08:32:43Z</time>
      </trkpt>
      <trkpt lat="41.633416800" lon="2.579911740">
        <ele>133.60</ele>
        <time>2014-04-06T08:32:44Z</time>
      </trkpt>
      <trkpt lat="41.633435070" lon="2.579926820">
        <ele>133.70</ele>
        <time>2014-04-06T08:32:45Z</time>
      </trkpt>
      <trkpt lat="41.633453350" lon="2.579941740">
        <ele>133.90</ele>
        <time>2014-04-06T08:32:46Z</time>
      </trkpt>
      <trkpt lat="41.633473460" lon="2.579955160">
        <ele>134.00</ele>
        <time>2014-04-06T08:32:47Z</time>
      </trkpt>
      <trkpt lat="41.633493410" lon="2.579968400">
        <ele>133.60</ele>
        <time>2014-04-06T08:32:48Z</time>
      </trkpt>
      <trkpt lat="41.633513360" lon="2.579981810">
        <ele>133.40</ele>
        <time>2014-04-06T08:32:49Z</time>
      </trkpt>
      <trkpt lat="41.633533480" lon="2.579995050">
        <ele>133.50</ele>
        <time>2014-04-06T08:32:50Z</time>
      </trkpt>
      <trkpt lat="41.633553430" lon="2.580006790">
        <ele>133.60</ele>
        <time>2014-04-06T08:32:51Z</time>
      </trkpt>
      <trkpt lat="41.633573370" lon="2.580016680">
        <ele>133.80</ele>
        <time>2014-04-06T08:32:52Z</time>
      </trkpt>
      <trkpt lat="41.633593490" lon="2.580026740">
        <ele>134.00</ele>
        <time>2014-04-06T08:32:53Z</time>
      </trkpt>
      <trkpt lat="41.633615120" lon="2.580035120">
        <ele>134.20</ele>
        <time>2014-04-06T08:32:54Z</time>
      </trkpt>
      <trkpt lat="41.633635070" lon="2.580045010">
        <ele>134.50</ele>
        <time>2014-04-06T08:32:55Z</time>
      </trkpt>
      <trkpt lat="41.633653340" lon="2.580055070">
        <ele>134.70</ele>
        <time>2014-04-06T08:32:56Z</time>
      </trkpt>
      <trkpt lat="41.633670100" lon="2.580060100">
        <ele>134.90</ele>
        <time>2014-04-06T08:32:57Z</time>
      </trkpt>
      <trkpt lat="41.633685020" lon="2.580066800">
        <ele>135.00</ele>
        <time>2014-04-06T08:32:58Z</time>
      </trkpt>
      <trkpt lat="41.633703460" lon="2.580073340">
        <ele>135.10</ele>
        <time>2014-04-06T08:32:59Z</time>
      </trkpt>
      <trkpt lat="41.633720060" lon="2.580081720">
        <ele>135.20</ele>
        <time>2014-04-06T08:33:00Z</time>
      </trkpt>
      <trkpt lat="41.633736820" lon="2.580090100">
        <ele>135.30</ele>
        <time>2014-04-06T08:33:01Z</time>
      </trkpt>
      <trkpt lat="41.633751740" lon="2.580095130">
        <ele>135.80</ele>
        <time>2014-04-06T08:33:02Z</time>
      </trkpt>
      <trkpt lat="41.633765150" lon="2.580098490">
        <ele>136.20</ele>
        <time>2014-04-06T08:33:03Z</time>
      </trkpt>
      <trkpt lat="41.633781750" lon="2.580101670">
        <ele>136.10</ele>
        <time>2014-04-06T08:33:04Z</time>
      </trkpt>
      <trkpt lat="41.633805050" lon="2.580101670">
        <ele>136.00</ele>
        <time>2014-04-06T08:33:05Z</time>
      </trkpt>
      <trkpt lat="41.633828350" lon="2.580100160">
        <ele>136.10</ele>
        <time>2014-04-06T08:33:06Z</time>
      </trkpt>
      <trkpt lat="41.633851820" lon="2.580098490">
        <ele>136.30</ele>
        <time>2014-04-06T08:33:07Z</time>
      </trkpt>
      <trkpt lat="41.633870090" lon="2.580098490">
        <ele>136.30</ele>
        <time>2014-04-06T08:33:08Z</time>
      </trkpt>
      <trkpt lat="41.633890040" lon="2.580103350">
        <ele>136.20</ele>
        <time>2014-04-06T08:33:09Z</time>
      </trkpt>
      <trkpt lat="41.633911670" lon="2.580105020">
        <ele>136.10</ele>
        <time>2014-04-06T08:33:10Z</time>
      </trkpt>
      <trkpt lat="41.633933460" lon="2.580105020">
        <ele>136.80</ele>
        <time>2014-04-06T08:33:11Z</time>
      </trkpt>
      <trkpt lat="41.633955090" lon="2.580108380">
        <ele>137.30</ele>
        <time>2014-04-06T08:33:12Z</time>
      </trkpt>
      <trkpt lat="41.633978390" lon="2.580111730">
        <ele>137.80</ele>
        <time>2014-04-06T08:33:13Z</time>
      </trkpt>
      <trkpt lat="41.634005040" lon="2.580113410">
        <ele>137.60</ele>
        <time>2014-04-06T08:33:14Z</time>
      </trkpt>
      <trkpt lat="41.634033370" lon="2.580118440">
        <ele>137.50</ele>
        <time>2014-04-06T08:33:15Z</time>
      </trkpt>
      <trkpt lat="41.634066730" lon="2.580123460">
        <ele>137.50</ele>
        <time>2014-04-06T08:33:16Z</time>
      </trkpt>
      <trkpt lat="41.634095060" lon="2.580131680">
        <ele>137.50</ele>
        <time>2014-04-06T08:33:17Z</time>
      </trkpt>
      <trkpt lat="41.634125070" lon="2.580141740">
        <ele>137.50</ele>
        <time>2014-04-06T08:33:18Z</time>
      </trkpt>
      <trkpt lat="41.634156750" lon="2.580153470">
        <ele>137.50</ele>
        <time>2014-04-06T08:33:19Z</time>
      </trkpt>
      <trkpt lat="41.634181730" lon="2.580173420">
        <ele>137.50</ele>
        <time>2014-04-06T08:33:20Z</time>
      </trkpt>
      <trkpt lat="41.634205030" lon="2.580201750">
        <ele>137.40</ele>
        <time>2014-04-06T08:33:21Z</time>
      </trkpt>
      <trkpt lat="41.634230010" lon="2.580235110">
        <ele>137.40</ele>
        <time>2014-04-06T08:33:22Z</time>
      </trkpt>
      <trkpt lat="41.634250130" lon="2.580273330">
        <ele>137.40</ele>
        <time>2014-04-06T08:33:23Z</time>
      </trkpt>
      <trkpt lat="41.634268400" lon="2.580315070">
        <ele>137.40</ele>
        <time>2014-04-06T08:33:24Z</time>
      </trkpt>
      <trkpt lat="41.634285000" lon="2.580350110">
        <ele>137.50</ele>
        <time>2014-04-06T08:33:25Z</time>
      </trkpt>
      <trkpt lat="41.634295060" lon="2.580383470">
        <ele>137.20</ele>
        <time>2014-04-06T08:33:26Z</time>
      </trkpt>
      <trkpt lat="41.634300090" lon="2.580418340">
        <ele>137.10</ele>
        <time>2014-04-06T08:33:27Z</time>
      </trkpt>
      <trkpt lat="41.634305110" lon="2.580448350">
        <ele>136.80</ele>
        <time>2014-04-06T08:33:28Z</time>
      </trkpt>
      <trkpt lat="41.634306790" lon="2.580480030">
        <ele>136.70</ele>
        <time>2014-04-06T08:33:29Z</time>
      </trkpt>
      <trkpt lat="41.634308470" lon="2.580511710">
        <ele>136.90</ele>
        <time>2014-04-06T08:33:30Z</time>
      </trkpt>
      <trkpt lat="41.634313330" lon="2.580543400">
        <ele>137.00</ele>
        <time>2014-04-06T08:33:31Z</time>
      </trkpt>
      <trkpt lat="41.634316680" lon="2.580573400">
        <ele>137.20</ele>
        <time>2014-04-06T08:33:32Z</time>
      </trkpt>
      <trkpt lat="41.634321710" lon="2.580600060">
        <ele>136.80</ele>
        <time>2014-04-06T08:33:33Z</time>
      </trkpt>
      <trkpt lat="41.634326740" lon="2.580625040">
        <ele>136.60</ele>
        <time>2014-04-06T08:33:34Z</time>
      </trkpt>
      <trkpt lat="41.634331770" lon="2.580650020">
        <ele>136.60</ele>
        <time>2014-04-06T08:33:35Z</time>
      </trkpt>
      <trkpt lat="41.634340150" lon="2.580676670">
        <ele>136.60</ele>
        <time>2014-04-06T08:33:36Z</time>
      </trkpt>
      <trkpt lat="41.634346690" lon="2.580701820">
        <ele>136.60</ele>
        <time>2014-04-06T08:33:37Z</time>
      </trkpt>
      <trkpt lat="41.634353390" lon="2.580730150">
        <ele>136.60</ele>
        <time>2014-04-06T08:33:38Z</time>
      </trkpt>
      <trkpt lat="41.634356750" lon="2.580758480">
        <ele>136.70</ele>
        <time>2014-04-06T08:33:39Z</time>
      </trkpt>
      <trkpt lat="41.634361780" lon="2.580786810">
        <ele>137.10</ele>
        <time>2014-04-06T08:33:40Z</time>
      </trkpt>
      <trkpt lat="41.634368480" lon="2.580811790">
        <ele>137.40</ele>
        <time>2014-04-06T08:33:41Z</time>
      </trkpt>
      <trkpt lat="41.634376700" lon="2.580838440">
        <ele>137.40</ele>
        <time>2014-04-06T08:33:42Z</time>
      </trkpt>
      <trkpt lat="41.634386750" lon="2.580863420">
        <ele>137.50</ele>
        <time>2014-04-06T08:33:43Z</time>
      </trkpt>
      <trkpt lat="41.634398490" lon="2.580890070">
        <ele>137.50</ele>
        <time>2014-04-06T08:33:44Z</time>
      </trkpt>
      <trkpt lat="41.634410060" lon="2.580916730">
        <ele>138.00</ele>
        <time>2014-04-06T08:33:45Z</time>
      </trkpt>
      <trkpt lat="41.634426820" lon="2.580940030">
        <ele>138.40</ele>
        <time>2014-04-06T08:33:46Z</time>
      </trkpt>
      <trkpt lat="41.634446770" lon="2.580968360">
        <ele>138.30</ele>
        <time>2014-04-06T08:33:47Z</time>
      </trkpt>
      <trkpt lat="41.634465040" lon="2.580995010">
        <ele>138.30</ele>
        <time>2014-04-06T08:33:48Z</time>
      </trkpt>
      <trkpt lat="41.634481810" lon="2.581023350">
        <ele>138.40</ele>
        <time>2014-04-06T08:33:49Z</time>
      </trkpt>
      <trkpt lat="41.634498400" lon="2.581050000">
        <ele>138.40</ele>
        <time>2014-04-06T08:33:50Z</time>
      </trkpt>
      <trkpt lat="41.634510140" lon="2.581078330">
        <ele>138.50</ele>
        <time>2014-04-06T08:33:51Z</time>
      </trkpt>
      <trkpt lat="41.634521700" lon="2.581106830">
        <ele>138.80</ele>
        <time>2014-04-06T08:33:52Z</time>
      </trkpt>
      <trkpt lat="41.634533440" lon="2.581133480">
        <ele>139.00</ele>
        <time>2014-04-06T08:33:53Z</time>
      </trkpt>
      <trkpt lat="41.634545000" lon="2.581160140">
        <ele>139.30</ele>
        <time>2014-04-06T08:33:54Z</time>
      </trkpt>
      <trkpt lat="41.634558420" lon="2.581185120">
        <ele>139.50</ele>
        <time>2014-04-06T08:33:55Z</time>
      </trkpt>
      <trkpt lat="41.634570150" lon="2.581211770">
        <ele>139.10</ele>
        <time>2014-04-06T08:33:56Z</time>
      </trkpt>
      <trkpt lat="41.634581720" lon="2.581238420">
        <ele>138.80</ele>
        <time>2014-04-06T08:33:57Z</time>
      </trkpt>
      <trkpt lat="41.634595130" lon="2.581263400">
        <ele>138.50</ele>
        <time>2014-04-06T08:33:58Z</time>
      </trkpt>
      <trkpt lat="41.634608370" lon="2.581286700">
        <ele>138.40</ele>
        <time>2014-04-06T08:33:59Z</time>
      </trkpt>
      <trkpt lat="41.634618430" lon="2.581310010">
        <ele>138.30</ele>
        <time>2014-04-06T08:34:00Z</time>
      </trkpt>
      <trkpt lat="41.634628490" lon="2.581335150">
        <ele>138.80</ele>
        <time>2014-04-06T08:34:01Z</time>
      </trkpt>
      <trkpt lat="41.634638380" lon="2.581363480">
        <ele>139.20</ele>
        <time>2014-04-06T08:34:02Z</time>
      </trkpt>
      <trkpt lat="41.634646760" lon="2.581393490">
        <ele>139.40</ele>
        <time>2014-04-06T08:34:03Z</time>
      </trkpt>
      <trkpt lat="41.634655140" lon="2.581421820">
        <ele>139.70</ele>
        <time>2014-04-06T08:34:04Z</time>
      </trkpt>
      <trkpt lat="41.634666710" lon="2.581445120">
        <ele>139.80</ele>
        <time>2014-04-06T08:34:05Z</time>
      </trkpt>
      <trkpt lat="41.634680120" lon="2.581470100">
        <ele>139.70</ele>
        <time>2014-04-06T08:34:06Z</time>
      </trkpt>
      <trkpt lat="41.634690010" lon="2.581493400">
        <ele>139.50</ele>
        <time>2014-04-06T08:34:07Z</time>
      </trkpt>
      <trkpt lat="41.634698390" lon="2.581520060">
        <ele>139.50</ele>
        <time>2014-04-06T08:34:08Z</time>
      </trkpt>
      <trkpt lat="41.634711800" lon="2.581543360">
        <ele>139.60</ele>
        <time>2014-04-06T08:34:09Z</time>
      </trkpt>
      <trkpt lat="41.634725050" lon="2.581568340">
        <ele>139.60</ele>
        <time>2014-04-06T08:34:10Z</time>
      </trkpt>
      <trkpt lat="41.634741810" lon="2.581598340">
        <ele>139.50</ele>
        <time>2014-04-06T08:34:11Z</time>
      </trkpt>
      <trkpt lat="41.634761760" lon="2.581620140">
        <ele>139.50</ele>
        <time>2014-04-06T08:34:12Z</time>
      </trkpt>
      <trkpt lat="41.634776680" lon="2.581643440">
        <ele>140.00</ele>
        <time>2014-04-06T08:34:13Z</time>
      </trkpt>
      <trkpt lat="41.634786740" lon="2.581670090">
        <ele>140.40</ele>
        <time>2014-04-06T08:34:14Z</time>
      </trkpt>
      <trkpt lat="41.634798470" lon="2.581696750">
        <ele>140.60</ele>
        <time>2014-04-06T08:34:15Z</time>
      </trkpt>
      <trkpt lat="41.634810040" lon="2.581725080">
        <ele>140.90</ele>
        <time>2014-04-06T08:34:16Z</time>
      </trkpt>
      <trkpt lat="41.634823450" lon="2.581753410">
        <ele>141.00</ele>
        <time>2014-04-06T08:34:17Z</time>
      </trkpt>
      <trkpt lat="41.634836690" lon="2.581781740">
        <ele>141.10</ele>
        <time>2014-04-06T08:34:18Z</time>
      </trkpt>
      <trkpt lat="41.634851780" lon="2.581806720">
        <ele>141.20</ele>
        <time>2014-04-06T08:34:19Z</time>
      </trkpt>
      <trkpt lat="41.634866700" lon="2.581833370">
        <ele>141.00</ele>
        <time>2014-04-06T08:34:20Z</time>
      </trkpt>
      <trkpt lat="41.634883470" lon="2.581855000">
        <ele>140.80</ele>
        <time>2014-04-06T08:34:21Z</time>
      </trkpt>
      <trkpt lat="41.634893360" lon="2.581881820">
        <ele>141.10</ele>
        <time>2014-04-06T08:34:22Z</time>
      </trkpt>
      <trkpt lat="41.634903410" lon="2.581908470">
        <ele>141.30</ele>
        <time>2014-04-06T08:34:23Z</time>
      </trkpt>
      <trkpt lat="41.634911800" lon="2.581935130">
        <ele>141.50</ele>
        <time>2014-04-06T08:34:24Z</time>
      </trkpt>
      <trkpt lat="41.634923360" lon="2.581961780">
        <ele>141.60</ele>
        <time>2014-04-06T08:34:25Z</time>
      </trkpt>
      <trkpt lat="41.634936770" lon="2.581985080">
        <ele>141.70</ele>
        <time>2014-04-06T08:34:26Z</time>
      </trkpt>
      <trkpt lat="41.634948340" lon="2.582010060">
        <ele>141.50</ele>
        <time>2014-04-06T08:34:27Z</time>
      </trkpt>
      <trkpt lat="41.634961750" lon="2.582036720">
        <ele>141.40</ele>
        <time>2014-04-06T08:34:28Z</time>
      </trkpt>
      <trkpt lat="41.634975000" lon="2.582055160">
        <ele>141.20</ele>
        <time>2014-04-06T08:34:29Z</time>
      </trkpt>
      <trkpt lat="41.634988410" lon="2.582076780">
        <ele>141.50</ele>
        <time>2014-04-06T08:34:30Z</time>
      </trkpt>
      <trkpt lat="41.635000140" lon="2.582098410">
        <ele>141.60</ele>
        <time>2014-04-06T08:34:31Z</time>
      </trkpt>
      <trkpt lat="41.635008360" lon="2.582113500">
        <ele>142.00</ele>
        <time>2014-04-06T08:34:32Z</time>
      </trkpt>
      <trkpt lat="41.635023440" lon="2.582130090">
        <ele>142.30</ele>
        <time>2014-04-06T08:34:33Z</time>
      </trkpt>
      <trkpt lat="41.635041720" lon="2.582143340">
        <ele>142.50</ele>
        <time>2014-04-06T08:34:34Z</time>
      </trkpt>
      <trkpt lat="41.635056800" lon="2.582156750">
        <ele>142.60</ele>
        <time>2014-04-06T08:34:35Z</time>
      </trkpt>
      <trkpt lat="41.635071720" lon="2.582168480">
        <ele>142.70</ele>
        <time>2014-04-06T08:34:36Z</time>
      </trkpt>
      <trkpt lat="41.635088490" lon="2.582178370">
        <ele>143.00</ele>
        <time>2014-04-06T08:34:37Z</time>
      </trkpt>
      <trkpt lat="41.635103410" lon="2.582190110">
        <ele>143.10</ele>
        <time>2014-04-06T08:34:38Z</time>
      </trkpt>
      <trkpt lat="41.635125030" lon="2.582203350">
        <ele>143.70</ele>
        <time>2014-04-06T08:34:39Z</time>
      </trkpt>
      <trkpt lat="41.635151690" lon="2.582213410">
        <ele>144.10</ele>
        <time>2014-04-06T08:34:40Z</time>
      </trkpt>
      <trkpt lat="41.635181690" lon="2.582221790">
        <ele>143.90</ele>
        <time>2014-04-06T08:34:41Z</time>
      </trkpt>
      <trkpt lat="41.635210020" lon="2.582228500">
        <ele>143.80</ele>
        <time>2014-04-06T08:34:42Z</time>
      </trkpt>
      <trkpt lat="41.635228460" lon="2.582236710">
        <ele>143.70</ele>
        <time>2014-04-06T08:34:43Z</time>
      </trkpt>
      <trkpt lat="41.635250090" lon="2.582240060">
        <ele>144.00</ele>
        <time>2014-04-06T08:34:44Z</time>
      </trkpt>
      <trkpt lat="41.635273390" lon="2.582245090">
        <ele>144.20</ele>
        <time>2014-04-06T08:34:45Z</time>
      </trkpt>
      <trkpt lat="41.635298370" lon="2.582251800">
        <ele>144.40</ele>
        <time>2014-04-06T08:34:46Z</time>
      </trkpt>
      <trkpt lat="41.635320000" lon="2.582256830">
        <ele>144.60</ele>
        <time>2014-04-06T08:34:47Z</time>
      </trkpt>
      <trkpt lat="41.635343460" lon="2.582258330">
        <ele>144.80</ele>
        <time>2014-04-06T08:34:48Z</time>
      </trkpt>
      <trkpt lat="41.635365090" lon="2.582261690">
        <ele>144.60</ele>
        <time>2014-04-06T08:34:49Z</time>
      </trkpt>
      <trkpt lat="41.635381690" lon="2.582265040">
        <ele>144.50</ele>
        <time>2014-04-06T08:34:50Z</time>
      </trkpt>
      <trkpt lat="41.635393420" lon="2.582271750">
        <ele>144.70</ele>
        <time>2014-04-06T08:34:51Z</time>
      </trkpt>
      <trkpt lat="41.635408340" lon="2.582276780">
        <ele>144.90</ele>
        <time>2014-04-06T08:34:52Z</time>
      </trkpt>
      <trkpt lat="41.635430130" lon="2.582280130">
        <ele>145.20</ele>
        <time>2014-04-06T08:34:53Z</time>
      </trkpt>
      <trkpt lat="41.635453440" lon="2.582280130">
        <ele>145.50</ele>
        <time>2014-04-06T08:34:54Z</time>
      </trkpt>
      <trkpt lat="41.635475060" lon="2.582283480">
        <ele>145.60</ele>
        <time>2014-04-06T08:34:55Z</time>
      </trkpt>
      <trkpt lat="41.635493330" lon="2.582285160">
        <ele>145.50</ele>
        <time>2014-04-06T08:34:56Z</time>
      </trkpt>
      <trkpt lat="41.635513450" lon="2.582288340">
        <ele>145.30</ele>
        <time>2014-04-06T08:34:57Z</time>
      </trkpt>
      <trkpt lat="41.635535070" lon="2.582286670">
        <ele>145.80</ele>
        <time>2014-04-06T08:34:58Z</time>
      </trkpt>
      <trkpt lat="41.635556700" lon="2.582285160">
        <ele>146.10</ele>
        <time>2014-04-06T08:34:59Z</time>
      </trkpt>
      <trkpt lat="41.635581680" lon="2.582286670">
        <ele>145.90</ele>
        <time>2014-04-06T08:35:00Z</time>
      </trkpt>
      <trkpt lat="41.635601790" lon="2.582283480">
        <ele>145.80</ele>
        <time>2014-04-06T08:35:01Z</time>
      </trkpt>
      <trkpt lat="41.635621740" lon="2.582283480">
        <ele>145.70</ele>
        <time>2014-04-06T08:35:02Z</time>
      </trkpt>
      <trkpt lat="41.635641690" lon="2.582280130">
        <ele>145.90</ele>
        <time>2014-04-06T08:35:03Z</time>
      </trkpt>
      <trkpt lat="41.635660130" lon="2.582281800">
        <ele>146.10</ele>
        <time>2014-04-06T08:35:04Z</time>
      </trkpt>
      <trkpt lat="41.635678410" lon="2.582281800">
        <ele>146.40</ele>
        <time>2014-04-06T08:35:05Z</time>
      </trkpt>
      <trkpt lat="41.635695000" lon="2.582281800">
        <ele>146.60</ele>
        <time>2014-04-06T08:35:06Z</time>
      </trkpt>
      <trkpt lat="41.635711770" lon="2.582280130">
        <ele>146.80</ele>
        <time>2014-04-06T08:35:07Z</time>
      </trkpt>
      <trkpt lat="41.635728360" lon="2.582281800">
        <ele>147.20</ele>
        <time>2014-04-06T08:35:08Z</time>
      </trkpt>
      <trkpt lat="41.635736740" lon="2.582285160">
        <ele>147.50</ele>
        <time>2014-04-06T08:35:09Z</time>
      </trkpt>
      <trkpt lat="41.635743450" lon="2.582293370">
        <ele>148.20</ele>
        <time>2014-04-06T08:35:10Z</time>
      </trkpt>
      <trkpt lat="41.635761720" lon="2.582300080">
        <ele>148.70</ele>
        <time>2014-04-06T08:35:11Z</time>
      </trkpt>
      <trkpt lat="41.635780160" lon="2.582305110">
        <ele>149.30</ele>
        <time>2014-04-06T08:35:12Z</time>
      </trkpt>
      <trkpt lat="41.635796760" lon="2.582310140">
        <ele>149.70</ele>
        <time>2014-04-06T08:35:13Z</time>
      </trkpt>
      <trkpt lat="41.635813350" lon="2.582315000">
        <ele>150.00</ele>
        <time>2014-04-06T08:35:14Z</time>
      </trkpt>
      <trkpt lat="41.635828440" lon="2.582321700">
        <ele>150.00</ele>
        <time>2014-04-06T08:35:15Z</time>
      </trkpt>
      <trkpt lat="41.635850070" lon="2.582323380">
        <ele>150.00</ele>
        <time>2014-04-06T08:35:16Z</time>
      </trkpt>
      <trkpt lat="41.635871690" lon="2.582325050">
        <ele>149.70</ele>
        <time>2014-04-06T08:35:17Z</time>
      </trkpt>
      <trkpt lat="41.635896670" lon="2.582331760">
        <ele>149.50</ele>
        <time>2014-04-06T08:35:18Z</time>
      </trkpt>
      <trkpt lat="41.635920140" lon="2.582336790">
        <ele>149.70</ele>
        <time>2014-04-06T08:35:19Z</time>
      </trkpt>
      <trkpt lat="41.635946790" lon="2.582350030">
        <ele>149.90</ele>
        <time>2014-04-06T08:35:20Z</time>
      </trkpt>
      <trkpt lat="41.635971770" lon="2.582366800">
        <ele>150.00</ele>
        <time>2014-04-06T08:35:21Z</time>
      </trkpt>
      <trkpt lat="41.635996750" lon="2.582381720">
        <ele>150.10</ele>
        <time>2014-04-06T08:35:22Z</time>
      </trkpt>
      <trkpt lat="41.636023400" lon="2.582395130">
        <ele>150.20</ele>
        <time>2014-04-06T08:35:23Z</time>
      </trkpt>
      <trkpt lat="41.636045030" lon="2.582410050">
        <ele>149.70</ele>
        <time>2014-04-06T08:35:24Z</time>
      </trkpt>
      <trkpt lat="41.636065150" lon="2.582421780">
        <ele>149.40</ele>
        <time>2014-04-06T08:35:25Z</time>
      </trkpt>
      <trkpt lat="41.636083420" lon="2.582435030">
        <ele>149.10</ele>
        <time>2014-04-06T08:35:26Z</time>
      </trkpt>
      <trkpt lat="41.636108400" lon="2.582440050">
        <ele>149.60</ele>
        <time>2014-04-06T08:35:27Z</time>
      </trkpt>
      <trkpt lat="41.636125160" lon="2.582451790">
        <ele>150.00</ele>
        <time>2014-04-06T08:35:28Z</time>
      </trkpt>
      <trkpt lat="41.636141760" lon="2.582465030">
        <ele>149.90</ele>
        <time>2014-04-06T08:35:29Z</time>
      </trkpt>
      <trkpt lat="41.636156680" lon="2.582476770">
        <ele>149.80</ele>
        <time>2014-04-06T08:35:30Z</time>
      </trkpt>
      <trkpt lat="41.636175120" lon="2.582488330">
        <ele>150.10</ele>
        <time>2014-04-06T08:35:31Z</time>
      </trkpt>
      <trkpt lat="41.636186680" lon="2.582501750">
        <ele>150.30</ele>
        <time>2014-04-06T08:35:32Z</time>
      </trkpt>
      <trkpt lat="41.636203450" lon="2.582513480">
        <ele>150.50</ele>
        <time>2014-04-06T08:35:33Z</time>
      </trkpt>
      <trkpt lat="41.636218370" lon="2.582521690">
        <ele>151.00</ele>
        <time>2014-04-06T08:35:34Z</time>
      </trkpt>
      <trkpt lat="41.636233460" lon="2.582533430">
        <ele>151.50</ele>
        <time>2014-04-06T08:35:35Z</time>
      </trkpt>
      <trkpt lat="41.636248370" lon="2.582538460">
        <ele>151.80</ele>
        <time>2014-04-06T08:35:36Z</time>
      </trkpt>
      <trkpt lat="41.636258430" lon="2.582548350">
        <ele>152.10</ele>
        <time>2014-04-06T08:35:37Z</time>
      </trkpt>
      <trkpt lat="41.636273350" lon="2.582553380">
        <ele>152.20</ele>
        <time>2014-04-06T08:35:38Z</time>
      </trkpt>
      <trkpt lat="41.636291790" lon="2.582560080">
        <ele>152.20</ele>
        <time>2014-04-06T08:35:39Z</time>
      </trkpt>
      <trkpt lat="41.636308390" lon="2.582565110">
        <ele>152.20</ele>
        <time>2014-04-06T08:35:40Z</time>
      </trkpt>
      <trkpt lat="41.636325150" lon="2.582571820">
        <ele>152.60</ele>
        <time>2014-04-06T08:35:41Z</time>
      </trkpt>
      <trkpt lat="41.636341750" lon="2.582576680">
        <ele>152.80</ele>
        <time>2014-04-06T08:35:42Z</time>
      </trkpt>
      <trkpt lat="41.636358350" lon="2.582585060">
        <ele>153.60</ele>
        <time>2014-04-06T08:35:43Z</time>
      </trkpt>
      <trkpt lat="41.636375110" lon="2.582591770">
        <ele>154.20</ele>
        <time>2014-04-06T08:35:44Z</time>
      </trkpt>
      <trkpt lat="41.636391710" lon="2.582596800">
        <ele>154.70</ele>
        <time>2014-04-06T08:35:45Z</time>
      </trkpt>
      <trkpt lat="41.636406790" lon="2.582601830">
        <ele>154.70</ele>
        <time>2014-04-06T08:35:46Z</time>
      </trkpt>
      <trkpt lat="41.636423390" lon="2.582605010">
        <ele>154.70</ele>
        <time>2014-04-06T08:35:47Z</time>
      </trkpt>
      <trkpt lat="41.636438480" lon="2.582608360">
        <ele>154.90</ele>
        <time>2014-04-06T08:35:48Z</time>
      </trkpt>
      <trkpt lat="41.636453400" lon="2.582611720">
        <ele>155.10</ele>
        <time>2014-04-06T08:35:49Z</time>
      </trkpt>
      <trkpt lat="41.636466810" lon="2.582613390">
        <ele>155.10</ele>
        <time>2014-04-06T08:35:50Z</time>
      </trkpt>
      <trkpt lat="41.636481730" lon="2.582613390">
        <ele>155.00</ele>
        <time>2014-04-06T08:35:51Z</time>
      </trkpt>
      <trkpt lat="41.636495140" lon="2.582615070">
        <ele>155.00</ele>
        <time>2014-04-06T08:35:52Z</time>
      </trkpt>
      <trkpt lat="41.636508380" lon="2.582618420">
        <ele>155.60</ele>
        <time>2014-04-06T08:35:53Z</time>
      </trkpt>
      <trkpt lat="41.636520120" lon="2.582621770">
        <ele>156.10</ele>
        <time>2014-04-06T08:35:54Z</time>
      </trkpt>
      <trkpt lat="41.636533360" lon="2.582621770">
        <ele>156.40</ele>
        <time>2014-04-06T08:35:55Z</time>
      </trkpt>
      <trkpt lat="41.636548450" lon="2.582620100">
        <ele>156.50</ele>
        <time>2014-04-06T08:35:56Z</time>
      </trkpt>
      <trkpt lat="41.636561690" lon="2.582616750">
        <ele>157.20</ele>
        <time>2014-04-06T08:35:57Z</time>
      </trkpt>
      <trkpt lat="41.636575100" lon="2.582615070">
        <ele>157.60</ele>
        <time>2014-04-06T08:35:58Z</time>
      </trkpt>
      <trkpt lat="41.636588340" lon="2.582610040">
        <ele>158.00</ele>
        <time>2014-04-06T08:35:59Z</time>
      </trkpt>
      <trkpt lat="41.636601760" lon="2.582605010">
        <ele>158.60</ele>
        <time>2014-04-06T08:36:00Z</time>
      </trkpt>
      <trkpt lat="41.636615000" lon="2.582603330">
        <ele>159.10</ele>
        <time>2014-04-06T08:36:01Z</time>
      </trkpt>
      <trkpt lat="41.636630090" lon="2.582596800">
        <ele>159.40</ele>
        <time>2014-04-06T08:36:02Z</time>
      </trkpt>
      <trkpt lat="41.636648360" lon="2.582588410">
        <ele>159.70</ele>
        <time>2014-04-06T08:36:03Z</time>
      </trkpt>
      <trkpt lat="41.636671830" lon="2.582576680">
        <ele>159.90</ele>
        <time>2014-04-06T08:36:04Z</time>
      </trkpt>
      <trkpt lat="41.636693450" lon="2.582571820">
        <ele>159.90</ele>
        <time>2014-04-06T08:36:05Z</time>
      </trkpt>
      <trkpt lat="41.636711730" lon="2.582570140">
        <ele>159.90</ele>
        <time>2014-04-06T08:36:06Z</time>
      </trkpt>
      <trkpt lat="41.636725140" lon="2.582570140">
        <ele>160.40</ele>
        <time>2014-04-06T08:36:07Z</time>
      </trkpt>
      <trkpt lat="41.636740060" lon="2.582570140">
        <ele>160.80</ele>
        <time>2014-04-06T08:36:08Z</time>
      </trkpt>
      <trkpt lat="41.636758330" lon="2.582566790">
        <ele>161.10</ele>
        <time>2014-04-06T08:36:09Z</time>
      </trkpt>
      <trkpt lat="41.636773420" lon="2.582565110">
        <ele>161.40</ele>
        <time>2014-04-06T08:36:10Z</time>
      </trkpt>
      <trkpt lat="41.636786830" lon="2.582561760">
        <ele>161.60</ele>
        <time>2014-04-06T08:36:11Z</time>
      </trkpt>
      <trkpt lat="41.636801750" lon="2.582558410">
        <ele>161.60</ele>
        <time>2014-04-06T08:36:12Z</time>
      </trkpt>
      <trkpt lat="41.636816670" lon="2.582558410">
        <ele>161.70</ele>
        <time>2014-04-06T08:36:13Z</time>
      </trkpt>
      <trkpt lat="41.636833430" lon="2.582556730">
        <ele>162.30</ele>
        <time>2014-04-06T08:36:14Z</time>
      </trkpt>
      <trkpt lat="41.636850030" lon="2.582553380">
        <ele>162.70</ele>
        <time>2014-04-06T08:36:15Z</time>
      </trkpt>
      <trkpt lat="41.636866790" lon="2.582550030">
        <ele>162.70</ele>
        <time>2014-04-06T08:36:16Z</time>
      </trkpt>
      <trkpt lat="41.636885060" lon="2.582548350">
        <ele>162.60</ele>
        <time>2014-04-06T08:36:17Z</time>
      </trkpt>
      <trkpt lat="41.636905010" lon="2.582546670">
        <ele>162.60</ele>
        <time>2014-04-06T08:36:18Z</time>
      </trkpt>
      <trkpt lat="41.636926810" lon="2.582546670">
        <ele>163.00</ele>
        <time>2014-04-06T08:36:19Z</time>
      </trkpt>
      <trkpt lat="41.636945080" lon="2.582548350">
        <ele>163.30</ele>
        <time>2014-04-06T08:36:20Z</time>
      </trkpt>
      <trkpt lat="41.636963350" lon="2.582548350">
        <ele>163.80</ele>
        <time>2014-04-06T08:36:21Z</time>
      </trkpt>
      <trkpt lat="41.636981790" lon="2.582551700">
        <ele>164.20</ele>
        <time>2014-04-06T08:36:22Z</time>
      </trkpt>
      <trkpt lat="41.637000060" lon="2.582558410">
        <ele>164.50</ele>
        <time>2014-04-06T08:36:23Z</time>
      </trkpt>
      <trkpt lat="41.637018340" lon="2.582561760">
        <ele>164.10</ele>
        <time>2014-04-06T08:36:24Z</time>
      </trkpt>
      <trkpt lat="41.637038450" lon="2.582568470">
        <ele>163.90</ele>
        <time>2014-04-06T08:36:25Z</time>
      </trkpt>
      <trkpt lat="41.637056730" lon="2.582576680">
        <ele>163.80</ele>
        <time>2014-04-06T08:36:26Z</time>
      </trkpt>
      <trkpt lat="41.637075000" lon="2.582585060">
        <ele>163.70</ele>
        <time>2014-04-06T08:36:27Z</time>
      </trkpt>
      <trkpt lat="41.637095110" lon="2.582593440">
        <ele>163.90</ele>
        <time>2014-04-06T08:36:28Z</time>
      </trkpt>
      <trkpt lat="41.637113390" lon="2.582603330">
        <ele>164.10</ele>
        <time>2014-04-06T08:36:29Z</time>
      </trkpt>
      <trkpt lat="41.637135010" lon="2.582611720">
        <ele>164.20</ele>
        <time>2014-04-06T08:36:30Z</time>
      </trkpt>
      <trkpt lat="41.637153450" lon="2.582621770">
        <ele>164.40</ele>
        <time>2014-04-06T08:36:31Z</time>
      </trkpt>
      <trkpt lat="41.637173400" lon="2.582631660">
        <ele>164.50</ele>
        <time>2014-04-06T08:36:32Z</time>
      </trkpt>
      <trkpt lat="41.637191670" lon="2.582640050">
        <ele>164.90</ele>
        <time>2014-04-06T08:36:33Z</time>
      </trkpt>
      <trkpt lat="41.637206760" lon="2.582653460">
        <ele>165.10</ele>
        <time>2014-04-06T08:36:34Z</time>
      </trkpt>
      <trkpt lat="41.637223360" lon="2.582663350">
        <ele>165.30</ele>
        <time>2014-04-06T08:36:35Z</time>
      </trkpt>
      <trkpt lat="41.637240120" lon="2.582673410">
        <ele>165.50</ele>
        <time>2014-04-06T08:36:36Z</time>
      </trkpt>
      <trkpt lat="41.637253370" lon="2.582685140">
        <ele>165.60</ele>
        <time>2014-04-06T08:36:37Z</time>
      </trkpt>
      <trkpt lat="41.637271810" lon="2.582698380">
        <ele>165.80</ele>
        <time>2014-04-06T08:36:38Z</time>
      </trkpt>
      <trkpt lat="41.637290080" lon="2.582711800">
        <ele>166.00</ele>
        <time>2014-04-06T08:36:39Z</time>
      </trkpt>
      <trkpt lat="41.637308350" lon="2.582723360">
        <ele>166.20</ele>
        <time>2014-04-06T08:36:40Z</time>
      </trkpt>
      <trkpt lat="41.637326790" lon="2.582736770">
        <ele>166.40</ele>
        <time>2014-04-06T08:36:41Z</time>
      </trkpt>
      <trkpt lat="41.637345060" lon="2.582748340">
        <ele>166.50</ele>
        <time>2014-04-06T08:36:42Z</time>
      </trkpt>
      <trkpt lat="41.637365010" lon="2.582758400">
        <ele>167.00</ele>
        <time>2014-04-06T08:36:43Z</time>
      </trkpt>
      <trkpt lat="41.637386810" lon="2.582770130">
        <ele>167.30</ele>
        <time>2014-04-06T08:36:44Z</time>
      </trkpt>
      <trkpt lat="41.637411780" lon="2.582776670">
        <ele>167.60</ele>
        <time>2014-04-06T08:36:45Z</time>
      </trkpt>
      <trkpt lat="41.637440110" lon="2.582778350">
        <ele>167.80</ele>
        <time>2014-04-06T08:36:46Z</time>
      </trkpt>
      <trkpt lat="41.637471800" lon="2.582776670">
        <ele>168.00</ele>
        <time>2014-04-06T08:36:47Z</time>
      </trkpt>
      <trkpt lat="41.637505160" lon="2.582775000">
        <ele>168.10</ele>
        <time>2014-04-06T08:36:48Z</time>
      </trkpt>
      <trkpt lat="41.637536670" lon="2.582770130">
        <ele>168.20</ele>
        <time>2014-04-06T08:36:49Z</time>
      </trkpt>
      <trkpt lat="41.637568360" lon="2.582768460">
        <ele>168.00</ele>
        <time>2014-04-06T08:36:50Z</time>
      </trkpt>
      <trkpt lat="41.637603390" lon="2.582765100">
        <ele>168.00</ele>
        <time>2014-04-06T08:36:51Z</time>
      </trkpt>
      <trkpt lat="41.637640110" lon="2.582763430">
        <ele>167.60</ele>
        <time>2014-04-06T08:36:52Z</time>
      </trkpt>
      <trkpt lat="41.637680000" lon="2.582763430">
        <ele>167.40</ele>
        <time>2014-04-06T08:36:53Z</time>
      </trkpt>
      <trkpt lat="41.637715040" lon="2.582765100">
        <ele>167.30</ele>
        <time>2014-04-06T08:36:54Z</time>
      </trkpt>
      <trkpt lat="41.637751750" lon="2.582766780">
        <ele>167.20</ele>
        <time>2014-04-06T08:36:55Z</time>
      </trkpt>
      <trkpt lat="41.637788470" lon="2.582773490">
        <ele>167.10</ele>
        <time>2014-04-06T08:36:56Z</time>
      </trkpt>
      <trkpt lat="41.637825010" lon="2.582780020">
        <ele>167.20</ele>
        <time>2014-04-06T08:36:57Z</time>
      </trkpt>
      <trkpt lat="41.637856690" lon="2.582790080">
        <ele>167.30</ele>
        <time>2014-04-06T08:36:58Z</time>
      </trkpt>
      <trkpt lat="41.637888380" lon="2.582806680">
        <ele>167.20</ele>
        <time>2014-04-06T08:36:59Z</time>
      </trkpt>
      <trkpt lat="41.637920060" lon="2.582820090">
        <ele>167.10</ele>
        <time>2014-04-06T08:37:00Z</time>
      </trkpt>
      <trkpt lat="41.637958450" lon="2.582833330">
        <ele>166.80</ele>
        <time>2014-04-06T08:37:01Z</time>
      </trkpt>
      <trkpt lat="41.637996670" lon="2.582850100">
        <ele>166.70</ele>
        <time>2014-04-06T08:37:02Z</time>
      </trkpt>
      <trkpt lat="41.638040090" lon="2.582861660">
        <ele>166.50</ele>
        <time>2014-04-06T08:37:03Z</time>
      </trkpt>
      <trkpt lat="41.638081660" lon="2.582876750">
        <ele>166.40</ele>
        <time>2014-04-06T08:37:04Z</time>
      </trkpt>
      <trkpt lat="41.638116700" lon="2.582896700">
        <ele>166.40</ele>
        <time>2014-04-06T08:37:05Z</time>
      </trkpt>
      <trkpt lat="41.638145030" lon="2.582931740">
        <ele>166.20</ele>
        <time>2014-04-06T08:37:06Z</time>
      </trkpt>
      <trkpt lat="41.638166820" lon="2.582973480">
        <ele>166.10</ele>
        <time>2014-04-06T08:37:07Z</time>
      </trkpt>
      <trkpt lat="41.638186770" lon="2.583016730">
        <ele>166.00</ele>
        <time>2014-04-06T08:37:08Z</time>
      </trkpt>
      <trkpt lat="41.638208400" lon="2.583060150">
        <ele>165.80</ele>
        <time>2014-04-06T08:37:09Z</time>
      </trkpt>
      <trkpt lat="41.638218460" lon="2.583101720">
        <ele>165.70</ele>
        <time>2014-04-06T08:37:10Z</time>
      </trkpt>
      <trkpt lat="41.638215100" lon="2.583138430">
        <ele>165.60</ele>
        <time>2014-04-06T08:37:11Z</time>
      </trkpt>
      <trkpt lat="41.638218460" lon="2.583168440">
        <ele>165.50</ele>
        <time>2014-04-06T08:37:12Z</time>
      </trkpt>
      <trkpt lat="41.638223490" lon="2.583195100">
        <ele>165.20</ele>
        <time>2014-04-06T08:37:13Z</time>
      </trkpt>
      <trkpt lat="41.638231700" lon="2.583221750">
        <ele>164.90</ele>
        <time>2014-04-06T08:37:14Z</time>
      </trkpt>
      <trkpt lat="41.638241760" lon="2.583246730">
        <ele>164.80</ele>
        <time>2014-04-06T08:37:15Z</time>
      </trkpt>
      <trkpt lat="41.638250140" lon="2.583271710">
        <ele>164.90</ele>
        <time>2014-04-06T08:37:16Z</time>
      </trkpt>
      <trkpt lat="41.638255000" lon="2.583295010">
        <ele>165.00</ele>
        <time>2014-04-06T08:37:17Z</time>
      </trkpt>
      <trkpt lat="41.638261710" lon="2.583318480">
        <ele>165.20</ele>
        <time>2014-04-06T08:37:18Z</time>
      </trkpt>
      <trkpt lat="41.638270090" lon="2.583338430">
        <ele>165.40</ele>
        <time>2014-04-06T08:37:19Z</time>
      </trkpt>
      <trkpt lat="41.638280150" lon="2.583361730">
        <ele>165.50</ele>
        <time>2014-04-06T08:37:20Z</time>
      </trkpt>
      <trkpt lat="41.638288360" lon="2.583383350">
        <ele>165.60</ele>
        <time>2014-04-06T08:37:21Z</time>
      </trkpt>
      <trkpt lat="41.638298420" lon="2.583406820">
        <ele>165.70</ele>
        <time>2014-04-06T08:37:22Z</time>
      </trkpt>
      <trkpt lat="41.638308480" lon="2.583428450">
        <ele>165.90</ele>
        <time>2014-04-06T08:37:23Z</time>
      </trkpt>
      <trkpt lat="41.638316690" lon="2.583453430">
        <ele>166.00</ele>
        <time>2014-04-06T08:37:24Z</time>
      </trkpt>
      <trkpt lat="41.638323400" lon="2.583473380">
        <ele>166.10</ele>
        <time>2014-04-06T08:37:25Z</time>
      </trkpt>
      <trkpt lat="41.638333460" lon="2.583491820">
        <ele>166.10</ele>
        <time>2014-04-06T08:37:26Z</time>
      </trkpt>
      <trkpt lat="41.638340000" lon="2.583511760">
        <ele>166.20</ele>
        <time>2014-04-06T08:37:27Z</time>
      </trkpt>
      <trkpt lat="41.638348380" lon="2.583533390">
        <ele>166.50</ele>
        <time>2014-04-06T08:37:28Z</time>
      </trkpt>
      <trkpt lat="41.638353410" lon="2.583555020">
        <ele>166.70</ele>
        <time>2014-04-06T08:37:29Z</time>
      </trkpt>
      <trkpt lat="41.638360110" lon="2.583573460">
        <ele>166.90</ele>
        <time>2014-04-06T08:37:30Z</time>
      </trkpt>
      <trkpt lat="41.638366820" lon="2.583593400">
        <ele>167.10</ele>
        <time>2014-04-06T08:37:31Z</time>
      </trkpt>
      <trkpt lat="41.638373360" lon="2.583613350">
        <ele>167.50</ele>
        <time>2014-04-06T08:37:32Z</time>
      </trkpt>
      <trkpt lat="41.638383410" lon="2.583633470">
        <ele>167.80</ele>
        <time>2014-04-06T08:37:33Z</time>
      </trkpt>
      <trkpt lat="41.638395150" lon="2.583653420">
        <ele>168.00</ele>
        <time>2014-04-06T08:37:34Z</time>
      </trkpt>
      <trkpt lat="41.638406720" lon="2.583671690">
        <ele>167.90</ele>
        <time>2014-04-06T08:37:35Z</time>
      </trkpt>
      <trkpt lat="41.638416770" lon="2.583691810">
        <ele>167.80</ele>
        <time>2014-04-06T08:37:36Z</time>
      </trkpt>
      <trkpt lat="41.638423480" lon="2.583713430">
        <ele>167.80</ele>
        <time>2014-04-06T08:37:37Z</time>
      </trkpt>
      <trkpt lat="41.638431690" lon="2.583735060">
        <ele>167.80</ele>
        <time>2014-04-06T08:37:38Z</time>
      </trkpt>
      <trkpt lat="41.638441750" lon="2.583753330">
        <ele>167.80</ele>
        <time>2014-04-06T08:37:39Z</time>
      </trkpt>
      <trkpt lat="41.638450130" lon="2.583771770">
        <ele>168.50</ele>
        <time>2014-04-06T08:37:40Z</time>
      </trkpt>
      <trkpt lat="41.638458350" lon="2.583785010">
        <ele>169.00</ele>
        <time>2014-04-06T08:37:41Z</time>
      </trkpt>
      <trkpt lat="41.638471760" lon="2.583798430">
        <ele>169.50</ele>
        <time>2014-04-06T08:37:42Z</time>
      </trkpt>
      <trkpt lat="41.638488350" lon="2.583810160">
        <ele>169.80</ele>
        <time>2014-04-06T08:37:43Z</time>
      </trkpt>
      <trkpt lat="41.638505120" lon="2.583818370">
        <ele>170.20</ele>
        <time>2014-04-06T08:37:44Z</time>
      </trkpt>
      <trkpt lat="41.638521710" lon="2.583825080">
        <ele>170.60</ele>
        <time>2014-04-06T08:37:45Z</time>
      </trkpt>
      <trkpt lat="41.638538480" lon="2.583831790">
        <ele>170.80</ele>
        <time>2014-04-06T08:37:46Z</time>
      </trkpt>
      <trkpt lat="41.638555070" lon="2.583838490">
        <ele>171.00</ele>
        <time>2014-04-06T08:37:47Z</time>
      </trkpt>
      <trkpt lat="41.638570160" lon="2.583843350">
        <ele>171.10</ele>
        <time>2014-04-06T08:37:48Z</time>
      </trkpt>
      <trkpt lat="41.638586760" lon="2.583848380">
        <ele>171.40</ele>
        <time>2014-04-06T08:37:49Z</time>
      </trkpt>
      <trkpt lat="41.638603350" lon="2.583853410">
        <ele>171.70</ele>
        <time>2014-04-06T08:37:50Z</time>
      </trkpt>
      <trkpt lat="41.638618440" lon="2.583855090">
        <ele>171.90</ele>
        <time>2014-04-06T08:37:51Z</time>
      </trkpt>
      <trkpt lat="41.638633360" lon="2.583855090">
        <ele>172.00</ele>
        <time>2014-04-06T08:37:52Z</time>
      </trkpt>
      <trkpt lat="41.638646770" lon="2.583853410">
        <ele>172.10</ele>
        <time>2014-04-06T08:37:53Z</time>
      </trkpt>
      <trkpt lat="41.638661690" lon="2.583853410">
        <ele>172.50</ele>
        <time>2014-04-06T08:37:54Z</time>
      </trkpt>
      <trkpt lat="41.638676780" lon="2.583856760">
        <ele>172.80</ele>
        <time>2014-04-06T08:37:55Z</time>
      </trkpt>
      <trkpt lat="41.638691700" lon="2.583860120">
        <ele>173.10</ele>
        <time>2014-04-06T08:37:56Z</time>
      </trkpt>
      <trkpt lat="41.638708460" lon="2.583865150">
        <ele>173.30</ele>
        <time>2014-04-06T08:37:57Z</time>
      </trkpt>
      <trkpt lat="41.638725060" lon="2.583870010">
        <ele>173.70</ele>
        <time>2014-04-06T08:37:58Z</time>
      </trkpt>
      <trkpt lat="41.638738470" lon="2.583880070">
        <ele>174.00</ele>
        <time>2014-04-06T08:37:59Z</time>
      </trkpt>
      <trkpt lat="41.638755070" lon="2.583888450">
        <ele>174.20</ele>
        <time>2014-04-06T08:38:00Z</time>
      </trkpt>
      <trkpt lat="41.638770150" lon="2.583900010">
        <ele>174.60</ele>
        <time>2014-04-06T08:38:01Z</time>
      </trkpt>
      <trkpt lat="41.638783400" lon="2.583913430">
        <ele>174.90</ele>
        <time>2014-04-06T08:38:02Z</time>
      </trkpt>
      <trkpt lat="41.638795130" lon="2.583926670">
        <ele>175.60</ele>
        <time>2014-04-06T08:38:03Z</time>
      </trkpt>
      <trkpt lat="41.638806700" lon="2.583941760">
        <ele>176.00</ele>
        <time>2014-04-06T08:38:04Z</time>
      </trkpt>
      <trkpt lat="41.638816760" lon="2.583956680">
        <ele>176.40</ele>
        <time>2014-04-06T08:38:05Z</time>
      </trkpt>
      <trkpt lat="41.638823460" lon="2.583973440">
        <ele>176.40</ele>
        <time>2014-04-06T08:38:06Z</time>
      </trkpt>
      <trkpt lat="41.638833350" lon="2.583985010">
        <ele>176.50</ele>
        <time>2014-04-06T08:38:07Z</time>
      </trkpt>
      <trkpt lat="41.638845090" lon="2.583996740">
        <ele>176.70</ele>
        <time>2014-04-06T08:38:08Z</time>
      </trkpt>
      <trkpt lat="41.638855150" lon="2.584006800">
        <ele>176.90</ele>
        <time>2014-04-06T08:38:09Z</time>
      </trkpt>
      <trkpt lat="41.638863360" lon="2.584018370">
        <ele>177.70</ele>
        <time>2014-04-06T08:38:10Z</time>
      </trkpt>
      <trkpt lat="41.638873420" lon="2.584030100">
        <ele>178.30</ele>
        <time>2014-04-06T08:38:11Z</time>
      </trkpt>
      <trkpt lat="41.638881800" lon="2.584041670">
        <ele>178.70</ele>
        <time>2014-04-06T08:38:12Z</time>
      </trkpt>
      <trkpt lat="41.638890020" lon="2.584053400">
        <ele>178.80</ele>
        <time>2014-04-06T08:38:13Z</time>
      </trkpt>
      <trkpt lat="41.638898400" lon="2.584065140">
        <ele>178.90</ele>
        <time>2014-04-06T08:38:14Z</time>
      </trkpt>
      <trkpt lat="41.638906780" lon="2.584078380">
        <ele>179.20</ele>
        <time>2014-04-06T08:38:15Z</time>
      </trkpt>
      <trkpt lat="41.638916670" lon="2.584088440">
        <ele>179.30</ele>
        <time>2014-04-06T08:38:16Z</time>
      </trkpt>
      <trkpt lat="41.638925050" lon="2.584100010">
        <ele>179.70</ele>
        <time>2014-04-06T08:38:17Z</time>
      </trkpt>
      <trkpt lat="41.638933430" lon="2.584111740">
        <ele>180.00</ele>
        <time>2014-04-06T08:38:18Z</time>
      </trkpt>
      <trkpt lat="41.638940140" lon="2.584125150">
        <ele>180.20</ele>
        <time>2014-04-06T08:38:19Z</time>
      </trkpt>
      <trkpt lat="41.638946680" lon="2.584136720">
        <ele>180.40</ele>
        <time>2014-04-06T08:38:20Z</time>
      </trkpt>
      <trkpt lat="41.638948350" lon="2.584151810">
        <ele>180.60</ele>
        <time>2014-04-06T08:38:21Z</time>
      </trkpt>
      <trkpt lat="41.638953380" lon="2.584168400">
        <ele>180.80</ele>
        <time>2014-04-06T08:38:22Z</time>
      </trkpt>
      <trkpt lat="41.638960090" lon="2.584183490">
        <ele>181.00</ele>
        <time>2014-04-06T08:38:23Z</time>
      </trkpt>
      <trkpt lat="41.638966790" lon="2.584196730">
        <ele>181.10</ele>
        <time>2014-04-06T08:38:24Z</time>
      </trkpt>
      <trkpt lat="41.638973330" lon="2.584211820">
        <ele>181.20</ele>
        <time>2014-04-06T08:38:25Z</time>
      </trkpt>
      <trkpt lat="41.638980040" lon="2.584228420">
        <ele>181.20</ele>
        <time>2014-04-06T08:38:26Z</time>
      </trkpt>
      <trkpt lat="41.638986740" lon="2.584241830">
        <ele>181.80</ele>
        <time>2014-04-06T08:38:27Z</time>
      </trkpt>
      <trkpt lat="41.638991770" lon="2.584258420">
        <ele>182.30</ele>
        <time>2014-04-06T08:38:28Z</time>
      </trkpt>
      <trkpt lat="41.638996800" lon="2.584273340">
        <ele>182.40</ele>
        <time>2014-04-06T08:38:29Z</time>
      </trkpt>
      <trkpt lat="41.639003340" lon="2.584288430">
        <ele>182.40</ele>
        <time>2014-04-06T08:38:30Z</time>
      </trkpt>
      <trkpt lat="41.639006690" lon="2.584301680">
        <ele>182.50</ele>
        <time>2014-04-06T08:38:31Z</time>
      </trkpt>
      <trkpt lat="41.639015070" lon="2.584313410">
        <ele>182.60</ele>
        <time>2014-04-06T08:38:32Z</time>
      </trkpt>
      <trkpt lat="41.639026810" lon="2.584328330">
        <ele>182.70</ele>
        <time>2014-04-06T08:38:33Z</time>
      </trkpt>
      <trkpt lat="41.639038380" lon="2.584345090">
        <ele>183.00</ele>
        <time>2014-04-06T08:38:34Z</time>
      </trkpt>
      <trkpt lat="41.639050110" lon="2.584360010">
        <ele>183.20</ele>
        <time>2014-04-06T08:38:35Z</time>
      </trkpt>
      <trkpt lat="41.639061680" lon="2.584380130">
        <ele>183.70</ele>
        <time>2014-04-06T08:38:36Z</time>
      </trkpt>
      <trkpt lat="41.639075090" lon="2.584398400">
        <ele>184.10</ele>
        <time>2014-04-06T08:38:37Z</time>
      </trkpt>
      <trkpt lat="41.639088330" lon="2.584415000">
        <ele>184.40</ele>
        <time>2014-04-06T08:38:38Z</time>
      </trkpt>
      <trkpt lat="41.639101740" lon="2.584430090">
        <ele>184.70</ele>
        <time>2014-04-06T08:38:39Z</time>
      </trkpt>
      <trkpt lat="41.639116660" lon="2.584446680">
        <ele>184.90</ele>
        <time>2014-04-06T08:38:40Z</time>
      </trkpt>
      <trkpt lat="41.639133430" lon="2.584463450">
        <ele>184.80</ele>
        <time>2014-04-06T08:38:41Z</time>
      </trkpt>
      <trkpt lat="41.639151700" lon="2.584481720">
        <ele>184.60</ele>
        <time>2014-04-06T08:38:42Z</time>
      </trkpt>
      <trkpt lat="41.639170140" lon="2.584500160">
        <ele>184.60</ele>
        <time>2014-04-06T08:38:43Z</time>
      </trkpt>
      <trkpt lat="41.639186730" lon="2.584521780">
        <ele>184.30</ele>
        <time>2014-04-06T08:38:44Z</time>
      </trkpt>
      <trkpt lat="41.639205010" lon="2.584540060">
        <ele>184.10</ele>
        <time>2014-04-06T08:38:45Z</time>
      </trkpt>
      <trkpt lat="41.639220090" lon="2.584558330">
        <ele>184.10</ele>
        <time>2014-04-06T08:38:46Z</time>
      </trkpt>
      <trkpt lat="41.639235010" lon="2.584578450">
        <ele>184.10</ele>
        <time>2014-04-06T08:38:47Z</time>
      </trkpt>
      <trkpt lat="41.639248430" lon="2.584600070">
        <ele>184.70</ele>
        <time>2014-04-06T08:38:48Z</time>
      </trkpt>
      <trkpt lat="41.639258480" lon="2.584625050">
        <ele>185.10</ele>
        <time>2014-04-06T08:38:49Z</time>
      </trkpt>
      <trkpt lat="41.639266700" lon="2.584650030">
        <ele>185.40</ele>
        <time>2014-04-06T08:38:50Z</time>
      </trkpt>
      <trkpt lat="41.639275080" lon="2.584673330">
        <ele>185.40</ele>
        <time>2014-04-06T08:38:51Z</time>
      </trkpt>
      <trkpt lat="41.639281790" lon="2.584695120">
        <ele>185.40</ele>
        <time>2014-04-06T08:38:52Z</time>
      </trkpt>
      <trkpt lat="41.639293350" lon="2.584718420">
        <ele>185.40</ele>
        <time>2014-04-06T08:38:53Z</time>
      </trkpt>
      <trkpt lat="41.639305090" lon="2.584743400">
        <ele>185.30</ele>
        <time>2014-04-06T08:38:54Z</time>
      </trkpt>
      <trkpt lat="41.639313470" lon="2.584766700">
        <ele>185.40</ele>
        <time>2014-04-06T08:38:55Z</time>
      </trkpt>
      <trkpt lat="41.639323360" lon="2.584790010">
        <ele>185.50</ele>
        <time>2014-04-06T08:38:56Z</time>
      </trkpt>
      <trkpt lat="41.639333420" lon="2.584810120">
        <ele>185.50</ele>
        <time>2014-04-06T08:38:57Z</time>
      </trkpt>
      <trkpt lat="41.639341800" lon="2.584830070">
        <ele>185.20</ele>
        <time>2014-04-06T08:38:58Z</time>
      </trkpt>
      <trkpt lat="41.639351690" lon="2.584846670">
        <ele>185.00</ele>
        <time>2014-04-06T08:38:59Z</time>
      </trkpt>
      <trkpt lat="41.639361750" lon="2.584865110">
        <ele>185.20</ele>
        <time>2014-04-06T08:39:00Z</time>
      </trkpt>
      <trkpt lat="41.639373480" lon="2.584885060">
        <ele>185.40</ele>
        <time>2014-04-06T08:39:01Z</time>
      </trkpt>
      <trkpt lat="41.639383370" lon="2.584903330">
        <ele>185.60</ele>
        <time>2014-04-06T08:39:02Z</time>
      </trkpt>
      <trkpt lat="41.639393430" lon="2.584921770">
        <ele>185.90</ele>
        <time>2014-04-06T08:39:03Z</time>
      </trkpt>
      <trkpt lat="41.639405000" lon="2.584941720">
        <ele>186.10</ele>
        <time>2014-04-06T08:39:04Z</time>
      </trkpt>
      <trkpt lat="41.639413380" lon="2.584961670">
        <ele>186.40</ele>
        <time>2014-04-06T08:39:05Z</time>
      </trkpt>
      <trkpt lat="41.639423440" lon="2.584981780">
        <ele>186.70</ele>
        <time>2014-04-06T08:39:06Z</time>
      </trkpt>
      <trkpt lat="41.639435010" lon="2.585001730">
        <ele>186.80</ele>
        <time>2014-04-06T08:39:07Z</time>
      </trkpt>
      <trkpt lat="41.639446740" lon="2.585020000">
        <ele>186.90</ele>
        <time>2014-04-06T08:39:08Z</time>
      </trkpt>
      <trkpt lat="41.639458480" lon="2.585038440">
        <ele>187.00</ele>
        <time>2014-04-06T08:39:09Z</time>
      </trkpt>
      <trkpt lat="41.639471720" lon="2.585056720">
        <ele>187.10</ele>
        <time>2014-04-06T08:39:10Z</time>
      </trkpt>
      <trkpt lat="41.639481780" lon="2.585075160">
        <ele>187.20</ele>
        <time>2014-04-06T08:39:11Z</time>
      </trkpt>
      <trkpt lat="41.639493340" lon="2.585091750">
        <ele>187.50</ele>
        <time>2014-04-06T08:39:12Z</time>
      </trkpt>
      <trkpt lat="41.639501730" lon="2.585110030">
        <ele>187.80</ele>
        <time>2014-04-06T08:39:13Z</time>
      </trkpt>
      <trkpt lat="41.639513460" lon="2.585130140">
        <ele>187.60</ele>
        <time>2014-04-06T08:39:14Z</time>
      </trkpt>
      <trkpt lat="41.639523350" lon="2.585146740">
        <ele>187.60</ele>
        <time>2014-04-06T08:39:15Z</time>
      </trkpt>
      <trkpt lat="41.639536760" lon="2.585165010">
        <ele>187.50</ele>
        <time>2014-04-06T08:39:16Z</time>
      </trkpt>
      <trkpt lat="41.639548330" lon="2.585183450">
        <ele>187.90</ele>
        <time>2014-04-06T08:39:17Z</time>
      </trkpt>
      <trkpt lat="41.639558390" lon="2.585201720">
        <ele>188.20</ele>
        <time>2014-04-06T08:39:18Z</time>
      </trkpt>
      <trkpt lat="41.639568450" lon="2.585220000">
        <ele>188.50</ele>
        <time>2014-04-06T08:39:19Z</time>
      </trkpt>
      <trkpt lat="41.639580010" lon="2.585238440">
        <ele>188.60</ele>
        <time>2014-04-06T08:39:20Z</time>
      </trkpt>
      <trkpt lat="41.639591750" lon="2.585255030">
        <ele>188.70</ele>
        <time>2014-04-06T08:39:21Z</time>
      </trkpt>
      <trkpt lat="41.639601810" lon="2.585270120">
        <ele>188.60</ele>
        <time>2014-04-06T08:39:22Z</time>
      </trkpt>
      <trkpt lat="41.639613370" lon="2.585288390">
        <ele>188.50</ele>
        <time>2014-04-06T08:39:23Z</time>
      </trkpt>
      <trkpt lat="41.639623430" lon="2.585303480">
        <ele>189.10</ele>
        <time>2014-04-06T08:39:24Z</time>
      </trkpt>
      <trkpt lat="41.639631810" lon="2.585320080">
        <ele>189.60</ele>
        <time>2014-04-06T08:39:25Z</time>
      </trkpt>
      <trkpt lat="41.639645060" lon="2.585335000">
        <ele>189.80</ele>
        <time>2014-04-06T08:39:26Z</time>
      </trkpt>
      <trkpt lat="41.639658470" lon="2.585350080">
        <ele>189.90</ele>
        <time>2014-04-06T08:39:27Z</time>
      </trkpt>
      <trkpt lat="41.639670040" lon="2.585363490">
        <ele>190.00</ele>
        <time>2014-04-06T08:39:28Z</time>
      </trkpt>
      <trkpt lat="41.639681770" lon="2.585376740">
        <ele>190.20</ele>
        <time>2014-04-06T08:39:29Z</time>
      </trkpt>
      <trkpt lat="41.639695010" lon="2.585386800">
        <ele>190.30</ele>
        <time>2014-04-06T08:39:30Z</time>
      </trkpt>
      <trkpt lat="41.639710100" lon="2.585398360">
        <ele>191.00</ele>
        <time>2014-04-06T08:39:31Z</time>
      </trkpt>
      <trkpt lat="41.639723340" lon="2.585411770">
        <ele>191.40</ele>
        <time>2014-04-06T08:39:32Z</time>
      </trkpt>
      <trkpt lat="41.639736760" lon="2.585425020">
        <ele>191.60</ele>
        <time>2014-04-06T08:39:33Z</time>
      </trkpt>
      <trkpt lat="41.639751680" lon="2.585436750">
        <ele>191.70</ele>
        <time>2014-04-06T08:39:34Z</time>
      </trkpt>
      <trkpt lat="41.639766760" lon="2.585448490">
        <ele>191.80</ele>
        <time>2014-04-06T08:39:35Z</time>
      </trkpt>
      <trkpt lat="41.639783360" lon="2.585458380">
        <ele>192.20</ele>
        <time>2014-04-06T08:39:36Z</time>
      </trkpt>
      <trkpt lat="41.639798450" lon="2.585470110">
        <ele>192.50</ele>
        <time>2014-04-06T08:39:37Z</time>
      </trkpt>
      <trkpt lat="41.639813370" lon="2.585481680">
        <ele>192.50</ele>
        <time>2014-04-06T08:39:38Z</time>
      </trkpt>
      <trkpt lat="41.639828450" lon="2.585495090">
        <ele>192.40</ele>
        <time>2014-04-06T08:39:39Z</time>
      </trkpt>
      <trkpt lat="41.639841700" lon="2.585506830">
        <ele>192.40</ele>
        <time>2014-04-06T08:39:40Z</time>
      </trkpt>
      <trkpt lat="41.639856780" lon="2.585516720">
        <ele>192.40</ele>
        <time>2014-04-06T08:39:41Z</time>
      </trkpt>
      <trkpt lat="41.639871700" lon="2.585528450">
        <ele>192.40</ele>
        <time>2014-04-06T08:39:42Z</time>
      </trkpt>
      <trkpt lat="41.639886790" lon="2.585538340">
        <ele>192.70</ele>
        <time>2014-04-06T08:39:43Z</time>
      </trkpt>
      <trkpt lat="41.639903390" lon="2.585548400">
        <ele>192.90</ele>
        <time>2014-04-06T08:39:44Z</time>
      </trkpt>
      <trkpt lat="41.639918480" lon="2.585560130">
        <ele>193.60</ele>
        <time>2014-04-06T08:39:45Z</time>
      </trkpt>
      <trkpt lat="41.639931720" lon="2.585571700">
        <ele>194.20</ele>
        <time>2014-04-06T08:39:46Z</time>
      </trkpt>
      <trkpt lat="41.639945130" lon="2.585581760">
        <ele>194.60</ele>
        <time>2014-04-06T08:39:47Z</time>
      </trkpt>
      <trkpt lat="41.639960050" lon="2.585591820">
        <ele>195.20</ele>
        <time>2014-04-06T08:39:48Z</time>
      </trkpt>
      <trkpt lat="41.639975140" lon="2.585603380">
        <ele>195.60</ele>
        <time>2014-04-06T08:39:49Z</time>
      </trkpt>
      <trkpt lat="41.639990060" lon="2.585611770">
        <ele>195.50</ele>
        <time>2014-04-06T08:39:50Z</time>
      </trkpt>
      <trkpt lat="41.640008330" lon="2.585618470">
        <ele>195.40</ele>
        <time>2014-04-06T08:39:51Z</time>
      </trkpt>
      <trkpt lat="41.640021740" lon="2.585630040">
        <ele>195.50</ele>
        <time>2014-04-06T08:39:52Z</time>
      </trkpt>
      <trkpt lat="41.640035150" lon="2.585643450">
        <ele>195.50</ele>
        <time>2014-04-06T08:39:53Z</time>
      </trkpt>
      <trkpt lat="41.640048390" lon="2.585658370">
        <ele>195.60</ele>
        <time>2014-04-06T08:39:54Z</time>
      </trkpt>
      <trkpt lat="41.640056780" lon="2.585670100">
        <ele>196.00</ele>
        <time>2014-04-06T08:39:55Z</time>
      </trkpt>
      <trkpt lat="41.640068340" lon="2.585683350">
        <ele>196.40</ele>
        <time>2014-04-06T08:39:56Z</time>
      </trkpt>
      <trkpt lat="41.640081750" lon="2.585696760">
        <ele>196.50</ele>
        <time>2014-04-06T08:39:57Z</time>
      </trkpt>
      <trkpt lat="41.640093490" lon="2.585710000">
        <ele>196.60</ele>
        <time>2014-04-06T08:39:58Z</time>
      </trkpt>
      <trkpt lat="41.640103380" lon="2.585723410">
        <ele>196.70</ele>
        <time>2014-04-06T08:39:59Z</time>
      </trkpt>
      <trkpt lat="41.640115110" lon="2.585736820">
        <ele>197.20</ele>
        <time>2014-04-06T08:40:00Z</time>
      </trkpt>
      <trkpt lat="41.640125010" lon="2.585748390">
        <ele>197.50</ele>
        <time>2014-04-06T08:40:01Z</time>
      </trkpt>
      <trkpt lat="41.640138420" lon="2.585760130">
        <ele>197.60</ele>
        <time>2014-04-06T08:40:02Z</time>
      </trkpt>
      <trkpt lat="41.640151830" lon="2.585771690">
        <ele>197.60</ele>
        <time>2014-04-06T08:40:03Z</time>
      </trkpt>
      <trkpt lat="41.640165070" lon="2.585778400">
        <ele>198.10</ele>
        <time>2014-04-06T08:40:04Z</time>
      </trkpt>
      <trkpt lat="41.640178480" lon="2.585780080">
        <ele>198.50</ele>
        <time>2014-04-06T08:40:05Z</time>
      </trkpt>
      <trkpt lat="41.640191730" lon="2.585780080">
        <ele>198.80</ele>
        <time>2014-04-06T08:40:06Z</time>
      </trkpt>
      <trkpt lat="41.640205140" lon="2.585778400">
        <ele>199.20</ele>
        <time>2014-04-06T08:40:07Z</time>
      </trkpt>
      <trkpt lat="41.640218380" lon="2.585773370">
        <ele>199.50</ele>
        <time>2014-04-06T08:40:08Z</time>
      </trkpt>
      <trkpt lat="41.640228440" lon="2.585765160">
        <ele>199.30</ele>
        <time>2014-04-06T08:40:09Z</time>
      </trkpt>
      <trkpt lat="41.640238330" lon="2.585753420">
        <ele>199.20</ele>
        <time>2014-04-06T08:40:10Z</time>
      </trkpt>
      <trkpt lat="41.640245030" lon="2.585736820">
        <ele>199.20</ele>
        <time>2014-04-06T08:40:11Z</time>
      </trkpt>
      <trkpt lat="41.640243360" lon="2.585716710">
        <ele>199.30</ele>
        <time>2014-04-06T08:40:12Z</time>
      </trkpt>
      <trkpt lat="41.640240000" lon="2.585695080">
        <ele>199.30</ele>
        <time>2014-04-06T08:40:13Z</time>
      </trkpt>
      <trkpt lat="41.640235140" lon="2.585678490">
        <ele>199.70</ele>
        <time>2014-04-06T08:40:14Z</time>
      </trkpt>
      <trkpt lat="41.640228440" lon="2.585660050">
        <ele>200.10</ele>
        <time>2014-04-06T08:40:15Z</time>
      </trkpt>
      <trkpt lat="41.640218380" lon="2.585643450">
        <ele>200.20</ele>
        <time>2014-04-06T08:40:16Z</time>
      </trkpt>
      <trkpt lat="41.640206810" lon="2.585626690">
        <ele>200.20</ele>
        <time>2014-04-06T08:40:17Z</time>
      </trkpt>
      <trkpt lat="41.640193400" lon="2.585613440">
        <ele>200.30</ele>
        <time>2014-04-06T08:40:18Z</time>
      </trkpt>
      <trkpt lat="41.640180160" lon="2.585600030">
        <ele>200.30</ele>
        <time>2014-04-06T08:40:19Z</time>
      </trkpt>
      <trkpt lat="41.640165070" lon="2.585585110">
        <ele>200.40</ele>
        <time>2014-04-06T08:40:20Z</time>
      </trkpt>
      <trkpt lat="41.640151830" lon="2.585571700">
        <ele>200.50</ele>
        <time>2014-04-06T08:40:21Z</time>
      </trkpt>
      <trkpt lat="41.640138420" lon="2.585558460">
        <ele>200.70</ele>
        <time>2014-04-06T08:40:22Z</time>
      </trkpt>
      <trkpt lat="41.640121820" lon="2.585541690">
        <ele>200.90</ele>
        <time>2014-04-06T08:40:23Z</time>
      </trkpt>
      <trkpt lat="41.640103380" lon="2.585525100">
        <ele>201.00</ele>
        <time>2014-04-06T08:40:24Z</time>
      </trkpt>
      <trkpt lat="41.640085110" lon="2.585503470">
        <ele>201.10</ele>
        <time>2014-04-06T08:40:25Z</time>
      </trkpt>
      <trkpt lat="41.640070020" lon="2.585483360">
        <ele>201.30</ele>
        <time>2014-04-06T08:40:26Z</time>
      </trkpt>
      <trkpt lat="41.640055100" lon="2.585463410">
        <ele>201.50</ele>
        <time>2014-04-06T08:40:27Z</time>
      </trkpt>
      <trkpt lat="41.640041690" lon="2.585445130">
        <ele>201.80</ele>
        <time>2014-04-06T08:40:28Z</time>
      </trkpt>
      <trkpt lat="41.640028450" lon="2.585430050">
        <ele>202.00</ele>
        <time>2014-04-06T08:40:29Z</time>
      </trkpt>
      <trkpt lat="41.640018390" lon="2.585415130">
        <ele>202.40</ele>
        <time>2014-04-06T08:40:30Z</time>
      </trkpt>
      <trkpt lat="41.640005140" lon="2.585398360">
        <ele>202.60</ele>
        <time>2014-04-06T08:40:31Z</time>
      </trkpt>
      <trkpt lat="41.639993410" lon="2.585383440">
        <ele>202.80</ele>
        <time>2014-04-06T08:40:32Z</time>
      </trkpt>
      <trkpt lat="41.639980000" lon="2.585370030">
        <ele>203.30</ele>
        <time>2014-04-06T08:40:33Z</time>
      </trkpt>
      <trkpt lat="41.639968430" lon="2.585355110">
        <ele>203.60</ele>
        <time>2014-04-06T08:40:34Z</time>
      </trkpt>
      <trkpt lat="41.639958370" lon="2.585338350">
        <ele>203.50</ele>
        <time>2014-04-06T08:40:35Z</time>
      </trkpt>
      <trkpt lat="41.639946810" lon="2.585321750">
        <ele>203.40</ele>
        <time>2014-04-06T08:40:36Z</time>
      </trkpt>
      <trkpt lat="41.639938420" lon="2.585305160">
        <ele>203.70</ele>
        <time>2014-04-06T08:40:37Z</time>
      </trkpt>
      <trkpt lat="41.639928370" lon="2.585286720">
        <ele>203.90</ele>
        <time>2014-04-06T08:40:38Z</time>
      </trkpt>
      <trkpt lat="41.639920150" lon="2.585268440">
        <ele>204.00</ele>
        <time>2014-04-06T08:40:39Z</time>
      </trkpt>
      <trkpt lat="41.639911770" lon="2.585250000">
        <ele>204.00</ele>
        <time>2014-04-06T08:40:40Z</time>
      </trkpt>
      <trkpt lat="41.639903390" lon="2.585231730">
        <ele>204.00</ele>
        <time>2014-04-06T08:40:41Z</time>
      </trkpt>
      <trkpt lat="41.639896680" lon="2.585213460">
        <ele>204.40</ele>
        <time>2014-04-06T08:40:42Z</time>
      </trkpt>
      <trkpt lat="41.639890140" lon="2.585195020">
        <ele>204.70</ele>
        <time>2014-04-06T08:40:43Z</time>
      </trkpt>
      <trkpt lat="41.639883440" lon="2.585178420">
        <ele>204.90</ele>
        <time>2014-04-06T08:40:44Z</time>
      </trkpt>
      <trkpt lat="41.639876730" lon="2.585158470">
        <ele>205.00</ele>
        <time>2014-04-06T08:40:45Z</time>
      </trkpt>
      <trkpt lat="41.639871700" lon="2.585138360">
        <ele>205.20</ele>
        <time>2014-04-06T08:40:46Z</time>
      </trkpt>
      <trkpt lat="41.639865000" lon="2.585118410">
        <ele>205.20</ele>
        <time>2014-04-06T08:40:47Z</time>
      </trkpt>
      <trkpt lat="41.639861810" lon="2.585096780">
        <ele>205.20</ele>
        <time>2014-04-06T08:40:48Z</time>
      </trkpt>
      <trkpt lat="41.639858460" lon="2.585076670">
        <ele>205.50</ele>
        <time>2014-04-06T08:40:49Z</time>
      </trkpt>
      <trkpt lat="41.639853430" lon="2.585058390">
        <ele>205.70</ele>
        <time>2014-04-06T08:40:50Z</time>
      </trkpt>
      <trkpt lat="41.639850080" lon="2.585040120">
        <ele>205.90</ele>
        <time>2014-04-06T08:40:51Z</time>
      </trkpt>
      <trkpt lat="41.639846730" lon="2.585020000">
        <ele>205.90</ele>
        <time>2014-04-06T08:40:52Z</time>
      </trkpt>
      <trkpt lat="41.639841700" lon="2.585001730">
        <ele>205.90</ele>
        <time>2014-04-06T08:40:53Z</time>
      </trkpt>
      <trkpt lat="41.639840020" lon="2.584981780">
        <ele>206.10</ele>
        <time>2014-04-06T08:40:54Z</time>
      </trkpt>
      <trkpt lat="41.639836670" lon="2.584958480">
        <ele>206.20</ele>
        <time>2014-04-06T08:40:55Z</time>
      </trkpt>
      <trkpt lat="41.639835160" lon="2.584935010">
        <ele>206.30</ele>
        <time>2014-04-06T08:40:56Z</time>
      </trkpt>
      <trkpt lat="41.639835160" lon="2.584911710">
        <ele>206.30</ele>
        <time>2014-04-06T08:40:57Z</time>
      </trkpt>
      <trkpt lat="41.639835160" lon="2.584888410">
        <ele>206.40</ele>
        <time>2014-04-06T08:40:58Z</time>
      </trkpt>
      <trkpt lat="41.639835160" lon="2.584865110">
        <ele>206.90</ele>
        <time>2014-04-06T08:40:59Z</time>
      </trkpt>
      <trkpt lat="41.639838340" lon="2.584840130">
        <ele>207.20</ele>
        <time>2014-04-06T08:41:00Z</time>
      </trkpt>
      <trkpt lat="41.639840020" lon="2.584813470">
        <ele>207.30</ele>
        <time>2014-04-06T08:41:01Z</time>
      </trkpt>
      <trkpt lat="41.639841700" lon="2.584786820">
        <ele>207.40</ele>
        <time>2014-04-06T08:41:02Z</time>
      </trkpt>
      <trkpt lat="41.639845050" lon="2.584760000">
        <ele>207.40</ele>
        <time>2014-04-06T08:41:03Z</time>
      </trkpt>
      <trkpt lat="41.639850080" lon="2.584735020">
        <ele>207.80</ele>
        <time>2014-04-06T08:41:04Z</time>
      </trkpt>
      <trkpt lat="41.639860140" lon="2.584711720">
        <ele>208.00</ele>
        <time>2014-04-06T08:41:05Z</time>
      </trkpt>
      <trkpt lat="41.639871700" lon="2.584688420">
        <ele>207.70</ele>
        <time>2014-04-06T08:41:06Z</time>
      </trkpt>
      <trkpt lat="41.639885120" lon="2.584663440">
        <ele>207.50</ele>
        <time>2014-04-06T08:41:07Z</time>
      </trkpt>
      <trkpt lat="41.639896680" lon="2.584638460">
        <ele>207.30</ele>
        <time>2014-04-06T08:41:08Z</time>
      </trkpt>
      <trkpt lat="41.639908420" lon="2.584615160">
        <ele>207.10</ele>
        <time>2014-04-06T08:41:09Z</time>
      </trkpt>
      <trkpt lat="41.639923340" lon="2.584591690">
        <ele>207.00</ele>
        <time>2014-04-06T08:41:10Z</time>
      </trkpt>
      <trkpt lat="41.639938420" lon="2.584570060">
        <ele>207.10</ele>
        <time>2014-04-06T08:41:11Z</time>
      </trkpt>
      <trkpt lat="41.639955020" lon="2.584548440">
        <ele>207.20</ele>
        <time>2014-04-06T08:41:12Z</time>
      </trkpt>
      <trkpt lat="41.639973460" lon="2.584528490">
        <ele>207.10</ele>
        <time>2014-04-06T08:41:13Z</time>
      </trkpt>
      <trkpt lat="41.639993410" lon="2.584508370">
        <ele>207.00</ele>
        <time>2014-04-06T08:41:14Z</time>
      </trkpt>
      <trkpt lat="41.640013360" lon="2.584490100">
        <ele>207.20</ele>
        <time>2014-04-06T08:41:15Z</time>
      </trkpt>
      <trkpt lat="41.640035150" lon="2.584475010">
        <ele>207.30</ele>
        <time>2014-04-06T08:41:16Z</time>
      </trkpt>
      <trkpt lat="41.640056780" lon="2.584460090">
        <ele>207.40</ele>
        <time>2014-04-06T08:41:17Z</time>
      </trkpt>
      <trkpt lat="41.640078400" lon="2.584446680">
        <ele>207.60</ele>
        <time>2014-04-06T08:41:18Z</time>
      </trkpt>
      <trkpt lat="41.640101700" lon="2.584440140">
        <ele>207.80</ele>
        <time>2014-04-06T08:41:19Z</time>
      </trkpt>
      <trkpt lat="41.640126680" lon="2.584438470">
        <ele>208.00</ele>
        <time>2014-04-06T08:41:20Z</time>
      </trkpt>
      <trkpt lat="41.640150150" lon="2.584440140">
        <ele>208.20</ele>
        <time>2014-04-06T08:41:21Z</time>
      </trkpt>
      <trkpt lat="41.640173450" lon="2.584441820">
        <ele>208.30</ele>
        <time>2014-04-06T08:41:22Z</time>
      </trkpt>
      <trkpt lat="41.640195080" lon="2.584446680">
        <ele>208.10</ele>
        <time>2014-04-06T08:41:23Z</time>
      </trkpt>
      <trkpt lat="41.640216700" lon="2.584456740">
        <ele>208.00</ele>
        <time>2014-04-06T08:41:24Z</time>
      </trkpt>
      <trkpt lat="41.640238330" lon="2.584466800">
        <ele>208.10</ele>
        <time>2014-04-06T08:41:25Z</time>
      </trkpt>
      <trkpt lat="41.640255090" lon="2.584483390">
        <ele>208.20</ele>
        <time>2014-04-06T08:41:26Z</time>
      </trkpt>
      <trkpt lat="41.640270010" lon="2.584501670">
        <ele>208.20</ele>
        <time>2014-04-06T08:41:27Z</time>
      </trkpt>
      <trkpt lat="41.640285100" lon="2.584521780">
        <ele>208.20</ele>
        <time>2014-04-06T08:41:28Z</time>
      </trkpt>
      <trkpt lat="41.640298340" lon="2.584545090">
        <ele>208.20</ele>
        <time>2014-04-06T08:41:29Z</time>
      </trkpt>
      <trkpt lat="41.640310080" lon="2.584570060">
        <ele>208.10</ele>
        <time>2014-04-06T08:41:30Z</time>
      </trkpt>
      <trkpt lat="41.640320140" lon="2.584595040">
        <ele>208.00</ele>
        <time>2014-04-06T08:41:31Z</time>
      </trkpt>
      <trkpt lat="41.640331700" lon="2.584623370">
        <ele>208.40</ele>
        <time>2014-04-06T08:41:32Z</time>
      </trkpt>
      <trkpt lat="41.640345110" lon="2.584646670">
        <ele>208.70</ele>
        <time>2014-04-06T08:41:33Z</time>
      </trkpt>
      <trkpt lat="41.640356680" lon="2.584668470">
        <ele>208.70</ele>
        <time>2014-04-06T08:41:34Z</time>
      </trkpt>
      <trkpt lat="41.640366740" lon="2.584688420">
        <ele>208.70</ele>
        <time>2014-04-06T08:41:35Z</time>
      </trkpt>
      <trkpt lat="41.640376800" lon="2.584708370">
        <ele>208.70</ele>
        <time>2014-04-06T08:41:36Z</time>
      </trkpt>
      <trkpt lat="41.640388360" lon="2.584728480">
        <ele>208.60</ele>
        <time>2014-04-06T08:41:37Z</time>
      </trkpt>
      <trkpt lat="41.640400100" lon="2.584746750">
        <ele>208.60</ele>
        <time>2014-04-06T08:41:38Z</time>
      </trkpt>
      <trkpt lat="41.640413340" lon="2.584766700">
        <ele>209.00</ele>
        <time>2014-04-06T08:41:39Z</time>
      </trkpt>
      <trkpt lat="41.640425080" lon="2.584788330">
        <ele>209.30</ele>
        <time>2014-04-06T08:41:40Z</time>
      </trkpt>
      <trkpt lat="41.640435140" lon="2.584806770">
        <ele>209.60</ele>
        <time>2014-04-06T08:41:41Z</time>
      </trkpt>
      <trkpt lat="41.640446700" lon="2.584826720">
        <ele>209.90</ele>
        <time>2014-04-06T08:41:42Z</time>
      </trkpt>
      <trkpt lat="41.640458440" lon="2.584846670">
        <ele>210.20</ele>
        <time>2014-04-06T08:41:43Z</time>
      </trkpt>
      <trkpt lat="41.640470000" lon="2.584865110">
        <ele>210.50</ele>
        <time>2014-04-06T08:41:44Z</time>
      </trkpt>
      <trkpt lat="41.640481740" lon="2.584883380">
        <ele>210.70</ele>
        <time>2014-04-06T08:41:45Z</time>
      </trkpt>
      <trkpt lat="41.640493470" lon="2.584901820">
        <ele>210.80</ele>
        <time>2014-04-06T08:41:46Z</time>
      </trkpt>
      <trkpt lat="41.640505040" lon="2.584920090">
        <ele>210.90</ele>
        <time>2014-04-06T08:41:47Z</time>
      </trkpt>
      <trkpt lat="41.640513420" lon="2.584940040">
        <ele>211.00</ele>
        <time>2014-04-06T08:41:48Z</time>
      </trkpt>
      <trkpt lat="41.640521800" lon="2.584963340">
        <ele>211.50</ele>
        <time>2014-04-06T08:41:49Z</time>
      </trkpt>
      <trkpt lat="41.640530020" lon="2.584986810">
        <ele>211.90</ele>
        <time>2014-04-06T08:41:50Z</time>
      </trkpt>
      <trkpt lat="41.640540080" lon="2.585006760">
        <ele>212.00</ele>
        <time>2014-04-06T08:41:51Z</time>
      </trkpt>
      <trkpt lat="41.640555000" lon="2.585025030">
        <ele>212.10</ele>
        <time>2014-04-06T08:41:52Z</time>
      </trkpt>
      <trkpt lat="41.640568410" lon="2.585041800">
        <ele>212.40</ele>
        <time>2014-04-06T08:41:53Z</time>
      </trkpt>
      <trkpt lat="41.640583500" lon="2.585056720">
        <ele>212.70</ele>
        <time>2014-04-06T08:41:54Z</time>
      </trkpt>
      <trkpt lat="41.640596740" lon="2.585071800">
        <ele>213.00</ele>
        <time>2014-04-06T08:41:55Z</time>
      </trkpt>
      <trkpt lat="41.640611830" lon="2.585088400">
        <ele>213.00</ele>
        <time>2014-04-06T08:41:56Z</time>
      </trkpt>
      <trkpt lat="41.640623390" lon="2.585106670">
        <ele>213.10</ele>
        <time>2014-04-06T08:41:57Z</time>
      </trkpt>
      <trkpt lat="41.640636800" lon="2.585125110">
        <ele>213.20</ele>
        <time>2014-04-06T08:41:58Z</time>
      </trkpt>
      <trkpt lat="41.640648370" lon="2.585145060">
        <ele>213.20</ele>
        <time>2014-04-06T08:41:59Z</time>
      </trkpt>
      <trkpt lat="41.640660110" lon="2.585161830">
        <ele>213.30</ele>
        <time>2014-04-06T08:42:00Z</time>
      </trkpt>
      <trkpt lat="41.640671670" lon="2.585181780">
        <ele>213.30</ele>
        <time>2014-04-06T08:42:01Z</time>
      </trkpt>
      <trkpt lat="41.640680050" lon="2.585201720">
        <ele>213.30</ele>
        <time>2014-04-06T08:42:02Z</time>
      </trkpt>
      <trkpt lat="41.640688440" lon="2.585216810">
        <ele>213.70</ele>
        <time>2014-04-06T08:42:03Z</time>
      </trkpt>
      <trkpt lat="41.640698490" lon="2.585235080">
        <ele>214.00</ele>
        <time>2014-04-06T08:42:04Z</time>
      </trkpt>
      <trkpt lat="41.640708390" lon="2.585253360">
        <ele>214.20</ele>
        <time>2014-04-06T08:42:05Z</time>
      </trkpt>
      <trkpt lat="41.640720120" lon="2.585270120">
        <ele>214.50</ele>
        <time>2014-04-06T08:42:06Z</time>
      </trkpt>
      <trkpt lat="41.640730010" lon="2.585285040">
        <ele>214.60</ele>
        <time>2014-04-06T08:42:07Z</time>
      </trkpt>
      <trkpt lat="41.640738390" lon="2.585301800">
        <ele>215.30</ele>
        <time>2014-04-06T08:42:08Z</time>
      </trkpt>
      <trkpt lat="41.640748450" lon="2.585316720">
        <ele>215.80</ele>
        <time>2014-04-06T08:42:09Z</time>
      </trkpt>
      <trkpt lat="41.640758340" lon="2.585333490">
        <ele>216.20</ele>
        <time>2014-04-06T08:42:10Z</time>
      </trkpt>
      <trkpt lat="41.640768400" lon="2.585348410">
        <ele>216.60</ele>
        <time>2014-04-06T08:42:11Z</time>
      </trkpt>
      <trkpt lat="41.640776780" lon="2.585363490">
        <ele>216.90</ele>
        <time>2014-04-06T08:42:12Z</time>
      </trkpt>
      <trkpt lat="41.640786670" lon="2.585380090">
        <ele>217.10</ele>
        <time>2014-04-06T08:42:13Z</time>
      </trkpt>
      <trkpt lat="41.640796730" lon="2.585395010">
        <ele>217.30</ele>
        <time>2014-04-06T08:42:14Z</time>
      </trkpt>
      <trkpt lat="41.640806790" lon="2.585410100">
        <ele>217.60</ele>
        <time>2014-04-06T08:42:15Z</time>
      </trkpt>
      <trkpt lat="41.640816680" lon="2.585423340">
        <ele>217.80</ele>
        <time>2014-04-06T08:42:16Z</time>
      </trkpt>
      <trkpt lat="41.640826740" lon="2.585438430">
        <ele>218.40</ele>
        <time>2014-04-06T08:42:17Z</time>
      </trkpt>
      <trkpt lat="41.640836800" lon="2.585451670">
        <ele>218.80</ele>
        <time>2014-04-06T08:42:18Z</time>
      </trkpt>
      <trkpt lat="41.640846690" lon="2.585465080">
        <ele>219.20</ele>
        <time>2014-04-06T08:42:19Z</time>
      </trkpt>
      <trkpt lat="41.640856750" lon="2.585480000">
        <ele>219.50</ele>
        <time>2014-04-06T08:42:20Z</time>
      </trkpt>
      <trkpt lat="41.640865130" lon="2.585493410">
        <ele>219.70</ele>
        <time>2014-04-06T08:42:21Z</time>
      </trkpt>
      <trkpt lat="41.640875020" lon="2.585508330">
        <ele>219.80</ele>
        <time>2014-04-06T08:42:22Z</time>
      </trkpt>
      <trkpt lat="41.640881720" lon="2.585525100">
        <ele>219.90</ele>
        <time>2014-04-06T08:42:23Z</time>
      </trkpt>
      <trkpt lat="41.640886750" lon="2.585543370">
        <ele>220.20</ele>
        <time>2014-04-06T08:42:24Z</time>
      </trkpt>
      <trkpt lat="41.640891780" lon="2.585560130">
        <ele>220.50</ele>
        <time>2014-04-06T08:42:25Z</time>
      </trkpt>
      <trkpt lat="41.640900000" lon="2.585580080">
        <ele>220.70</ele>
        <time>2014-04-06T08:42:26Z</time>
      </trkpt>
      <trkpt lat="41.640910050" lon="2.585596680">
        <ele>220.80</ele>
        <time>2014-04-06T08:42:27Z</time>
      </trkpt>
      <trkpt lat="41.640923470" lon="2.585608410">
        <ele>220.80</ele>
        <time>2014-04-06T08:42:28Z</time>
      </trkpt>
      <trkpt lat="41.640936710" lon="2.585616800">
        <ele>220.90</ele>
        <time>2014-04-06T08:42:29Z</time>
      </trkpt>
      <trkpt lat="41.640951800" lon="2.585625010">
        <ele>221.10</ele>
        <time>2014-04-06T08:42:30Z</time>
      </trkpt>
      <trkpt lat="41.640966720" lon="2.585631720">
        <ele>221.40</ele>
        <time>2014-04-06T08:42:31Z</time>
      </trkpt>
      <trkpt lat="41.640980130" lon="2.585640100">
        <ele>221.70</ele>
        <time>2014-04-06T08:42:32Z</time>
      </trkpt>
      <trkpt lat="41.640993370" lon="2.585651660">
        <ele>222.00</ele>
        <time>2014-04-06T08:42:33Z</time>
      </trkpt>
      <trkpt lat="41.641006780" lon="2.585660050">
        <ele>221.90</ele>
        <time>2014-04-06T08:42:34Z</time>
      </trkpt>
      <trkpt lat="41.641020020" lon="2.585671780">
        <ele>221.80</ele>
        <time>2014-04-06T08:42:35Z</time>
      </trkpt>
      <trkpt lat="41.641033440" lon="2.585683350">
        <ele>222.10</ele>
        <time>2014-04-06T08:42:36Z</time>
      </trkpt>
      <trkpt lat="41.641045000" lon="2.585696760">
        <ele>222.40</ele>
        <time>2014-04-06T08:42:37Z</time>
      </trkpt>
      <trkpt lat="41.641056740" lon="2.585708490">
        <ele>222.90</ele>
        <time>2014-04-06T08:42:38Z</time>
      </trkpt>
      <trkpt lat="41.641068470" lon="2.585720060">
        <ele>223.30</ele>
        <time>2014-04-06T08:42:39Z</time>
      </trkpt>
      <trkpt lat="41.641078360" lon="2.585731800">
        <ele>223.60</ele>
        <time>2014-04-06T08:42:40Z</time>
      </trkpt>
      <trkpt lat="41.641090100" lon="2.585743360">
        <ele>223.80</ele>
        <time>2014-04-06T08:42:41Z</time>
      </trkpt>
      <trkpt lat="41.641101660" lon="2.585753420">
        <ele>224.00</ele>
        <time>2014-04-06T08:42:42Z</time>
      </trkpt>
      <trkpt lat="41.641111720" lon="2.585765160">
        <ele>224.30</ele>
        <time>2014-04-06T08:42:43Z</time>
      </trkpt>
      <trkpt lat="41.641123460" lon="2.585776720">
        <ele>224.50</ele>
        <time>2014-04-06T08:42:44Z</time>
      </trkpt>
      <trkpt lat="41.641133350" lon="2.585790130">
        <ele>224.70</ele>
        <time>2014-04-06T08:42:45Z</time>
      </trkpt>
      <trkpt lat="41.641145080" lon="2.585803380">
        <ele>225.00</ele>
        <time>2014-04-06T08:42:46Z</time>
      </trkpt>
      <trkpt lat="41.641155140" lon="2.585815110">
        <ele>225.20</ele>
        <time>2014-04-06T08:42:47Z</time>
      </trkpt>
      <trkpt lat="41.641165030" lon="2.585826680">
        <ele>225.30</ele>
        <time>2014-04-06T08:42:48Z</time>
      </trkpt>
      <trkpt lat="41.641175090" lon="2.585840090">
        <ele>225.30</ele>
        <time>2014-04-06T08:42:49Z</time>
      </trkpt>
      <trkpt lat="41.641185150" lon="2.585851820">
        <ele>225.30</ele>
        <time>2014-04-06T08:42:50Z</time>
      </trkpt>
      <trkpt lat="41.641195040" lon="2.585865070">
        <ele>225.40</ele>
        <time>2014-04-06T08:42:51Z</time>
      </trkpt>
      <trkpt lat="41.641205100" lon="2.585876800">
        <ele>225.40</ele>
        <time>2014-04-06T08:42:52Z</time>
      </trkpt>
      <trkpt lat="41.641213480" lon="2.585890050">
        <ele>225.90</ele>
        <time>2014-04-06T08:42:53Z</time>
      </trkpt>
      <trkpt lat="41.641221690" lon="2.585903460">
        <ele>226.20</ele>
        <time>2014-04-06T08:42:54Z</time>
      </trkpt>
      <trkpt lat="41.641231750" lon="2.585915020">
        <ele>227.00</ele>
        <time>2014-04-06T08:42:55Z</time>
      </trkpt>
      <trkpt lat="41.641241810" lon="2.585928440">
        <ele>227.50</ele>
        <time>2014-04-06T08:42:56Z</time>
      </trkpt>
      <trkpt lat="41.641248350" lon="2.585943350">
        <ele>227.90</ele>
        <time>2014-04-06T08:42:57Z</time>
      </trkpt>
      <trkpt lat="41.641255050" lon="2.585960120">
        <ele>228.20</ele>
        <time>2014-04-06T08:42:58Z</time>
      </trkpt>
      <trkpt lat="41.641263440" lon="2.585975040">
        <ele>228.40</ele>
        <time>2014-04-06T08:42:59Z</time>
      </trkpt>
      <trkpt lat="41.641273490" lon="2.585988450">
        <ele>228.40</ele>
        <time>2014-04-06T08:43:00Z</time>
      </trkpt>
      <trkpt lat="41.641285060" lon="2.586001690">
        <ele>228.50</ele>
        <time>2014-04-06T08:43:01Z</time>
      </trkpt>
      <trkpt lat="41.641296800" lon="2.586015100">
        <ele>228.80</ele>
        <time>2014-04-06T08:43:02Z</time>
      </trkpt>
      <trkpt lat="41.641308360" lon="2.586030020">
        <ele>229.00</ele>
        <time>2014-04-06T08:43:03Z</time>
      </trkpt>
      <trkpt lat="41.641318420" lon="2.586045110">
        <ele>229.10</ele>
        <time>2014-04-06T08:43:04Z</time>
      </trkpt>
      <trkpt lat="41.641328480" lon="2.586058350">
        <ele>229.40</ele>
        <time>2014-04-06T08:43:05Z</time>
      </trkpt>
      <trkpt lat="41.641336690" lon="2.586075120">
        <ele>229.50</ele>
        <time>2014-04-06T08:43:06Z</time>
      </trkpt>
      <trkpt lat="41.641345070" lon="2.586088360">
        <ele>229.40</ele>
        <time>2014-04-06T08:43:07Z</time>
      </trkpt>
      <trkpt lat="41.641353460" lon="2.586105130">
        <ele>229.30</ele>
        <time>2014-04-06T08:43:08Z</time>
      </trkpt>
      <trkpt lat="41.641358490" lon="2.586120050">
        <ele>229.70</ele>
        <time>2014-04-06T08:43:09Z</time>
      </trkpt>
      <trkpt lat="41.641361670" lon="2.586136810">
        <ele>230.10</ele>
        <time>2014-04-06T08:43:10Z</time>
      </trkpt>
      <trkpt lat="41.641366700" lon="2.586155080">
        <ele>230.30</ele>
        <time>2014-04-06T08:43:11Z</time>
      </trkpt>
      <trkpt lat="41.641373410" lon="2.586173350">
        <ele>230.60</ele>
        <time>2014-04-06T08:43:12Z</time>
      </trkpt>
      <trkpt lat="41.641380110" lon="2.586191790">
        <ele>230.80</ele>
        <time>2014-04-06T08:43:13Z</time>
      </trkpt>
      <trkpt lat="41.641388490" lon="2.586210070">
        <ele>231.10</ele>
        <time>2014-04-06T08:43:14Z</time>
      </trkpt>
      <trkpt lat="41.641398380" lon="2.586228340">
        <ele>231.40</ele>
        <time>2014-04-06T08:43:15Z</time>
      </trkpt>
      <trkpt lat="41.641410120" lon="2.586243430">
        <ele>231.30</ele>
        <time>2014-04-06T08:43:16Z</time>
      </trkpt>
      <trkpt lat="41.641421690" lon="2.586256670">
        <ele>231.20</ele>
        <time>2014-04-06T08:43:17Z</time>
      </trkpt>
      <trkpt lat="41.641433420" lon="2.586268410">
        <ele>231.20</ele>
        <time>2014-04-06T08:43:18Z</time>
      </trkpt>
      <trkpt lat="41.641448340" lon="2.586276790">
        <ele>231.80</ele>
        <time>2014-04-06T08:43:19Z</time>
      </trkpt>
      <trkpt lat="41.641461750" lon="2.586285000">
        <ele>232.20</ele>
        <time>2014-04-06T08:43:20Z</time>
      </trkpt>
      <trkpt lat="41.641475160" lon="2.586295060">
        <ele>232.00</ele>
        <time>2014-04-06T08:43:21Z</time>
      </trkpt>
      <trkpt lat="41.641486730" lon="2.586306790">
        <ele>231.90</ele>
        <time>2014-04-06T08:43:22Z</time>
      </trkpt>
      <trkpt lat="41.641498460" lon="2.586320040">
        <ele>231.90</ele>
        <time>2014-04-06T08:43:23Z</time>
      </trkpt>
      <trkpt lat="41.641510030" lon="2.586331770">
        <ele>232.40</ele>
        <time>2014-04-06T08:43:24Z</time>
      </trkpt>
      <trkpt lat="41.641521770" lon="2.586345020">
        <ele>232.90</ele>
        <time>2014-04-06T08:43:25Z</time>
      </trkpt>
      <trkpt lat="41.641531820" lon="2.586358430">
        <ele>233.00</ele>
        <time>2014-04-06T08:43:26Z</time>
      </trkpt>
      <trkpt lat="41.641543390" lon="2.586371670">
        <ele>233.00</ele>
        <time>2014-04-06T08:43:27Z</time>
      </trkpt>
      <trkpt lat="41.641553450" lon="2.586385080">
        <ele>233.20</ele>
        <time>2014-04-06T08:43:28Z</time>
      </trkpt>
      <trkpt lat="41.641561660" lon="2.586398490">
        <ele>233.40</ele>
        <time>2014-04-06T08:43:29Z</time>
      </trkpt>
      <trkpt lat="41.641571720" lon="2.586411740">
        <ele>233.60</ele>
        <time>2014-04-06T08:43:30Z</time>
      </trkpt>
      <trkpt lat="41.641581780" lon="2.586425150">
        <ele>234.40</ele>
        <time>2014-04-06T08:43:31Z</time>
      </trkpt>
      <trkpt lat="41.641590160" lon="2.586440070">
        <ele>235.00</ele>
        <time>2014-04-06T08:43:32Z</time>
      </trkpt>
      <trkpt lat="41.641600050" lon="2.586455150">
        <ele>234.90</ele>
        <time>2014-04-06T08:43:33Z</time>
      </trkpt>
      <trkpt lat="41.641610110" lon="2.586466720">
        <ele>234.90</ele>
        <time>2014-04-06T08:43:34Z</time>
      </trkpt>
      <trkpt lat="41.641621680" lon="2.586480130">
        <ele>234.60</ele>
        <time>2014-04-06T08:43:35Z</time>
      </trkpt>
      <trkpt lat="41.641631740" lon="2.586493380">
        <ele>234.40</ele>
        <time>2014-04-06T08:43:36Z</time>
      </trkpt>
      <trkpt lat="41.641643470" lon="2.586505110">
        <ele>234.30</ele>
        <time>2014-04-06T08:43:37Z</time>
      </trkpt>
      <trkpt lat="41.641653360" lon="2.586518350">
        <ele>234.70</ele>
        <time>2014-04-06T08:43:38Z</time>
      </trkpt>
      <trkpt lat="41.641665100" lon="2.586530090">
        <ele>235.10</ele>
        <time>2014-04-06T08:43:39Z</time>
      </trkpt>
      <trkpt lat="41.641675150" lon="2.586543330">
        <ele>235.40</ele>
        <time>2014-04-06T08:43:40Z</time>
      </trkpt>
      <trkpt lat="41.641686720" lon="2.586556740">
        <ele>235.60</ele>
        <time>2014-04-06T08:43:41Z</time>
      </trkpt>
      <trkpt lat="41.641695100" lon="2.586571660">
        <ele>235.80</ele>
        <time>2014-04-06T08:43:42Z</time>
      </trkpt>
      <trkpt lat="41.641705160" lon="2.586586750">
        <ele>236.10</ele>
        <time>2014-04-06T08:43:43Z</time>
      </trkpt>
      <trkpt lat="41.641715050" lon="2.586601670">
        <ele>236.40</ele>
        <time>2014-04-06T08:43:44Z</time>
      </trkpt>
      <trkpt lat="41.641725110" lon="2.586616760">
        <ele>236.70</ele>
        <time>2014-04-06T08:43:45Z</time>
      </trkpt>
      <trkpt lat="41.641735000" lon="2.586630000">
        <ele>236.90</ele>
        <time>2014-04-06T08:43:46Z</time>
      </trkpt>
      <trkpt lat="41.641745060" lon="2.586645090">
        <ele>236.80</ele>
        <time>2014-04-06T08:43:47Z</time>
      </trkpt>
      <trkpt lat="41.641756790" lon="2.586656820">
        <ele>236.70</ele>
        <time>2014-04-06T08:43:48Z</time>
      </trkpt>
      <trkpt lat="41.641768360" lon="2.586670070">
        <ele>236.60</ele>
        <time>2014-04-06T08:43:49Z</time>
      </trkpt>
      <trkpt lat="41.641778420" lon="2.586680120">
        <ele>237.20</ele>
        <time>2014-04-06T08:43:50Z</time>
      </trkpt>
      <trkpt lat="41.641788480" lon="2.586695040">
        <ele>237.60</ele>
        <time>2014-04-06T08:43:51Z</time>
      </trkpt>
      <trkpt lat="41.641793340" lon="2.586708460">
        <ele>238.10</ele>
        <time>2014-04-06T08:43:52Z</time>
      </trkpt>
      <trkpt lat="41.641803400" lon="2.586721700">
        <ele>238.50</ele>
        <time>2014-04-06T08:43:53Z</time>
      </trkpt>
      <trkpt lat="41.641816810" lon="2.586733430">
        <ele>238.80</ele>
        <time>2014-04-06T08:43:54Z</time>
      </trkpt>
      <trkpt lat="41.641831730" lon="2.586741810">
        <ele>239.10</ele>
        <time>2014-04-06T08:43:55Z</time>
      </trkpt>
      <trkpt lat="41.641850000" lon="2.586751710">
        <ele>239.40</ele>
        <time>2014-04-06T08:43:56Z</time>
      </trkpt>
      <trkpt lat="41.641863410" lon="2.586766790">
        <ele>239.40</ele>
        <time>2014-04-06T08:43:57Z</time>
      </trkpt>
      <trkpt lat="41.641876820" lon="2.586783390">
        <ele>239.40</ele>
        <time>2014-04-06T08:43:58Z</time>
      </trkpt>
      <trkpt lat="41.641886710" lon="2.586800150">
        <ele>239.80</ele>
        <time>2014-04-06T08:43:59Z</time>
      </trkpt>
      <trkpt lat="41.641900120" lon="2.586816750">
        <ele>240.10</ele>
        <time>2014-04-06T08:44:00Z</time>
      </trkpt>
      <trkpt lat="41.641913370" lon="2.586831670">
        <ele>240.40</ele>
        <time>2014-04-06T08:44:01Z</time>
      </trkpt>
      <trkpt lat="41.641925100" lon="2.586846760">
        <ele>240.30</ele>
        <time>2014-04-06T08:44:02Z</time>
      </trkpt>
      <trkpt lat="41.641938350" lon="2.586861680">
        <ele>240.30</ele>
        <time>2014-04-06T08:44:03Z</time>
      </trkpt>
      <trkpt lat="41.641951760" lon="2.586878440">
        <ele>240.50</ele>
        <time>2014-04-06T08:44:04Z</time>
      </trkpt>
      <trkpt lat="41.641966680" lon="2.586893360">
        <ele>240.60</ele>
        <time>2014-04-06T08:44:05Z</time>
      </trkpt>
      <trkpt lat="41.641981760" lon="2.586908450">
        <ele>241.10</ele>
        <time>2014-04-06T08:44:06Z</time>
      </trkpt>
      <trkpt lat="41.641996680" lon="2.586923370">
        <ele>241.50</ele>
        <time>2014-04-06T08:44:07Z</time>
      </trkpt>
      <trkpt lat="41.642010100" lon="2.586938450">
        <ele>241.70</ele>
        <time>2014-04-06T08:44:08Z</time>
      </trkpt>
      <trkpt lat="41.642025010" lon="2.586953370">
        <ele>241.70</ele>
        <time>2014-04-06T08:44:09Z</time>
      </trkpt>
      <trkpt lat="41.642040100" lon="2.586970140">
        <ele>241.60</ele>
        <time>2014-04-06T08:44:10Z</time>
      </trkpt>
      <trkpt lat="41.642051670" lon="2.586985060">
        <ele>241.60</ele>
        <time>2014-04-06T08:44:11Z</time>
      </trkpt>
      <trkpt lat="41.642066760" lon="2.587000150">
        <ele>241.50</ele>
        <time>2014-04-06T08:44:12Z</time>
      </trkpt>
      <trkpt lat="41.642080000" lon="2.587015070">
        <ele>241.80</ele>
        <time>2014-04-06T08:44:13Z</time>
      </trkpt>
      <trkpt lat="41.642095090" lon="2.587028480">
        <ele>242.00</ele>
        <time>2014-04-06T08:44:14Z</time>
      </trkpt>
      <trkpt lat="41.642110010" lon="2.587043400">
        <ele>242.10</ele>
        <time>2014-04-06T08:44:15Z</time>
      </trkpt>
      <trkpt lat="41.642123420" lon="2.587060160">
        <ele>242.20</ele>
        <time>2014-04-06T08:44:16Z</time>
      </trkpt>
      <trkpt lat="41.642136660" lon="2.587073400">
        <ele>242.30</ele>
        <time>2014-04-06T08:44:17Z</time>
      </trkpt>
      <trkpt lat="41.642153430" lon="2.587086810">
        <ele>242.40</ele>
        <time>2014-04-06T08:44:18Z</time>
      </trkpt>
      <trkpt lat="41.642168350" lon="2.587100060">
        <ele>242.50</ele>
        <time>2014-04-06T08:44:19Z</time>
      </trkpt>
      <trkpt lat="41.642180080" lon="2.587115140">
        <ele>242.60</ele>
        <time>2014-04-06T08:44:20Z</time>
      </trkpt>
      <trkpt lat="41.642191810" lon="2.587130060">
        <ele>242.90</ele>
        <time>2014-04-06T08:44:21Z</time>
      </trkpt>
      <trkpt lat="41.642203380" lon="2.587143480">
        <ele>243.30</ele>
        <time>2014-04-06T08:44:22Z</time>
      </trkpt>
      <trkpt lat="41.642218470" lon="2.587155040">
        <ele>243.30</ele>
        <time>2014-04-06T08:44:23Z</time>
      </trkpt>
      <trkpt lat="41.642230040" lon="2.587168450">
        <ele>243.40</ele>
        <time>2014-04-06T08:44:24Z</time>
      </trkpt>
      <trkpt lat="41.642243450" lon="2.587180020">
        <ele>243.60</ele>
        <time>2014-04-06T08:44:25Z</time>
      </trkpt>
      <trkpt lat="41.642258370" lon="2.587190080">
        <ele>243.70</ele>
        <time>2014-04-06T08:44:26Z</time>
      </trkpt>
      <trkpt lat="41.642273450" lon="2.587201810">
        <ele>243.90</ele>
        <time>2014-04-06T08:44:27Z</time>
      </trkpt>
      <trkpt lat="41.642285020" lon="2.587211700">
        <ele>243.80</ele>
        <time>2014-04-06T08:44:28Z</time>
      </trkpt>
      <trkpt lat="41.642298430" lon="2.587221760">
        <ele>243.80</ele>
        <time>2014-04-06T08:44:29Z</time>
      </trkpt>
      <trkpt lat="41.642310000" lon="2.587231820">
        <ele>244.10</ele>
        <time>2014-04-06T08:44:30Z</time>
      </trkpt>
      <trkpt lat="41.642323410" lon="2.587238360">
        <ele>244.40</ele>
        <time>2014-04-06T08:44:31Z</time>
      </trkpt>
      <trkpt lat="41.642335150" lon="2.587246740">
        <ele>244.70</ele>
        <time>2014-04-06T08:44:32Z</time>
      </trkpt>
      <trkpt lat="41.642348390" lon="2.587255120">
        <ele>245.00</ele>
        <time>2014-04-06T08:44:33Z</time>
      </trkpt>
      <trkpt lat="41.642363480" lon="2.587263340">
        <ele>245.20</ele>
        <time>2014-04-06T08:44:34Z</time>
      </trkpt>
      <trkpt lat="41.642375040" lon="2.587270040">
        <ele>245.50</ele>
        <time>2014-04-06T08:44:35Z</time>
      </trkpt>
      <trkpt lat="41.642386780" lon="2.587280100">
        <ele>245.60</ele>
        <time>2014-04-06T08:44:36Z</time>
      </trkpt>
      <trkpt lat="41.642398340" lon="2.587288480">
        <ele>245.60</ele>
        <time>2014-04-06T08:44:37Z</time>
      </trkpt>
      <trkpt lat="41.642410080" lon="2.587296700">
        <ele>245.70</ele>
        <time>2014-04-06T08:44:38Z</time>
      </trkpt>
      <trkpt lat="41.642423490" lon="2.587301730">
        <ele>245.70</ele>
        <time>2014-04-06T08:44:39Z</time>
      </trkpt>
      <trkpt lat="41.642435060" lon="2.587308430">
        <ele>245.70</ele>
        <time>2014-04-06T08:44:40Z</time>
      </trkpt>
      <trkpt lat="41.642446790" lon="2.587318490">
        <ele>245.80</ele>
        <time>2014-04-06T08:44:41Z</time>
      </trkpt>
      <trkpt lat="41.642456680" lon="2.587330060">
        <ele>246.00</ele>
        <time>2014-04-06T08:44:42Z</time>
      </trkpt>
      <trkpt lat="41.642468420" lon="2.587338440">
        <ele>246.10</ele>
        <time>2014-04-06T08:44:43Z</time>
      </trkpt>
      <trkpt lat="41.642480150" lon="2.587348330">
        <ele>246.40</ele>
        <time>2014-04-06T08:44:44Z</time>
      </trkpt>
      <trkpt lat="41.642490040" lon="2.587358390">
        <ele>246.60</ele>
        <time>2014-04-06T08:44:45Z</time>
      </trkpt>
      <trkpt lat="41.642500100" lon="2.587370120">
        <ele>246.80</ele>
        <time>2014-04-06T08:44:46Z</time>
      </trkpt>
      <trkpt lat="41.642511670" lon="2.587378340">
        <ele>247.60</ele>
        <time>2014-04-06T08:44:47Z</time>
      </trkpt>
      <trkpt lat="41.642521730" lon="2.587386720">
        <ele>248.10</ele>
        <time>2014-04-06T08:44:48Z</time>
      </trkpt>
      <trkpt lat="41.642531780" lon="2.587396780">
        <ele>248.60</ele>
        <time>2014-04-06T08:44:49Z</time>
      </trkpt>
      <trkpt lat="41.642541680" lon="2.587406670">
        <ele>248.90</ele>
        <time>2014-04-06T08:44:50Z</time>
      </trkpt>
      <trkpt lat="41.642553410" lon="2.587415050">
        <ele>249.50</ele>
        <time>2014-04-06T08:44:51Z</time>
      </trkpt>
      <trkpt lat="41.642563470" lon="2.587425110">
        <ele>250.00</ele>
        <time>2014-04-06T08:44:52Z</time>
      </trkpt>
      <trkpt lat="41.642573360" lon="2.587435000">
        <ele>250.40</ele>
        <time>2014-04-06T08:44:53Z</time>
      </trkpt>
      <trkpt lat="41.642583420" lon="2.587445060">
        <ele>250.30</ele>
        <time>2014-04-06T08:44:54Z</time>
      </trkpt>
      <trkpt lat="41.642593480" lon="2.587453440">
        <ele>250.30</ele>
        <time>2014-04-06T08:44:55Z</time>
      </trkpt>
      <trkpt lat="41.642601690" lon="2.587463330">
        <ele>250.20</ele>
        <time>2014-04-06T08:44:56Z</time>
      </trkpt>
      <trkpt lat="41.642611750" lon="2.587471710">
        <ele>250.10</ele>
        <time>2014-04-06T08:44:57Z</time>
      </trkpt>
      <trkpt lat="41.642620130" lon="2.587481770">
        <ele>250.10</ele>
        <time>2014-04-06T08:44:58Z</time>
      </trkpt>
      <trkpt lat="41.642630020" lon="2.587490150">
        <ele>250.50</ele>
        <time>2014-04-06T08:44:59Z</time>
      </trkpt>
      <trkpt lat="41.642640080" lon="2.587498370">
        <ele>250.70</ele>
        <time>2014-04-06T08:45:00Z</time>
      </trkpt>
      <trkpt lat="41.642650140" lon="2.587506750">
        <ele>251.00</ele>
        <time>2014-04-06T08:45:01Z</time>
      </trkpt>
      <trkpt lat="41.642660030" lon="2.587511780">
        <ele>251.20</ele>
        <time>2014-04-06T08:45:02Z</time>
      </trkpt>
      <trkpt lat="41.642671760" lon="2.587516810">
        <ele>251.40</ele>
        <time>2014-04-06T08:45:03Z</time>
      </trkpt>
      <trkpt lat="41.642683330" lon="2.587521670">
        <ele>251.60</ele>
        <time>2014-04-06T08:45:04Z</time>
      </trkpt>
      <trkpt lat="41.642693390" lon="2.587526700">
        <ele>251.70</ele>
        <time>2014-04-06T08:45:05Z</time>
      </trkpt>
      <trkpt lat="41.642703450" lon="2.587535080">
        <ele>252.00</ele>
        <time>2014-04-06T08:45:06Z</time>
      </trkpt>
      <trkpt lat="41.642713340" lon="2.587543460">
        <ele>252.20</ele>
        <time>2014-04-06T08:45:07Z</time>
      </trkpt>
      <trkpt lat="41.642721720" lon="2.587555030">
        <ele>252.90</ele>
        <time>2014-04-06T08:45:08Z</time>
      </trkpt>
      <trkpt lat="41.642731780" lon="2.587565090">
        <ele>253.40</ele>
        <time>2014-04-06T08:45:09Z</time>
      </trkpt>
      <trkpt lat="41.642740160" lon="2.587575140">
        <ele>253.70</ele>
        <time>2014-04-06T08:45:10Z</time>
      </trkpt>
      <trkpt lat="41.642748370" lon="2.587583360">
        <ele>253.90</ele>
        <time>2014-04-06T08:45:11Z</time>
      </trkpt>
      <trkpt lat="41.642756760" lon="2.587591740">
        <ele>254.10</ele>
        <time>2014-04-06T08:45:12Z</time>
      </trkpt>
      <trkpt lat="41.642765140" lon="2.587601800">
        <ele>254.30</ele>
        <time>2014-04-06T08:45:13Z</time>
      </trkpt>
      <trkpt lat="41.642773350" lon="2.587608340">
        <ele>254.40</ele>
        <time>2014-04-06T08:45:14Z</time>
      </trkpt>
      <trkpt lat="41.642781730" lon="2.587618390">
        <ele>254.80</ele>
        <time>2014-04-06T08:45:15Z</time>
      </trkpt>
      <trkpt lat="41.642788440" lon="2.587626780">
        <ele>255.10</ele>
        <time>2014-04-06T08:45:16Z</time>
      </trkpt>
      <trkpt lat="41.642795140" lon="2.587635160">
        <ele>255.20</ele>
        <time>2014-04-06T08:45:17Z</time>
      </trkpt>
      <trkpt lat="41.642803360" lon="2.587643370">
        <ele>255.30</ele>
        <time>2014-04-06T08:45:18Z</time>
      </trkpt>
      <trkpt lat="41.642810060" lon="2.587650080">
        <ele>255.40</ele>
        <time>2014-04-06T08:45:19Z</time>
      </trkpt>
      <trkpt lat="41.642816770" lon="2.587656780">
        <ele>255.70</ele>
        <time>2014-04-06T08:45:20Z</time>
      </trkpt>
      <trkpt lat="41.642821800" lon="2.587663490">
        <ele>256.00</ele>
        <time>2014-04-06T08:45:21Z</time>
      </trkpt>
      <trkpt lat="41.642828340" lon="2.587671700">
        <ele>256.00</ele>
        <time>2014-04-06T08:45:22Z</time>
      </trkpt>
      <trkpt lat="41.642835040" lon="2.587676730">
        <ele>256.10</ele>
        <time>2014-04-06T08:45:23Z</time>
      </trkpt>
      <trkpt lat="41.642843420" lon="2.587681760">
        <ele>256.10</ele>
        <time>2014-04-06T08:45:24Z</time>
      </trkpt>
      <trkpt lat="41.642850130" lon="2.587686790">
        <ele>256.10</ele>
        <time>2014-04-06T08:45:25Z</time>
      </trkpt>
      <trkpt lat="41.642856670" lon="2.587691820">
        <ele>256.20</ele>
        <time>2014-04-06T08:45:26Z</time>
      </trkpt>
      <trkpt lat="41.642863370" lon="2.587693330">
        <ele>256.40</ele>
        <time>2014-04-06T08:45:27Z</time>
      </trkpt>
      <trkpt lat="41.642870080" lon="2.587688470">
        <ele>256.50</ele>
        <time>2014-04-06T08:45:28Z</time>
      </trkpt>
      <trkpt lat="41.642873430" lon="2.587681760">
        <ele>256.70</ele>
        <time>2014-04-06T08:45:29Z</time>
      </trkpt>
      <trkpt lat="41.642873430" lon="2.587673380">
        <ele>256.80</ele>
        <time>2014-04-06T08:45:30Z</time>
      </trkpt>
      <trkpt lat="41.642868400" lon="2.587666670">
        <ele>257.00</ele>
        <time>2014-04-06T08:45:31Z</time>
      </trkpt>
      <trkpt lat="41.642861700" lon="2.587663490">
        <ele>256.90</ele>
        <time>2014-04-06T08:45:32Z</time>
      </trkpt>
      <trkpt lat="41.642855160" lon="2.587658460">
        <ele>256.80</ele>
        <time>2014-04-06T08:45:33Z</time>
      </trkpt>
      <trkpt lat="41.642848450" lon="2.587661810">
        <ele>257.00</ele>
        <time>2014-04-06T08:45:34Z</time>
      </trkpt>
      <trkpt lat="41.642841750" lon="2.587673380">
        <ele>257.10</ele>
        <time>2014-04-06T08:45:35Z</time>
      </trkpt>
      <trkpt lat="41.642838390" lon="2.587688470">
        <ele>257.20</ele>
        <time>2014-04-06T08:45:36Z</time>
      </trkpt>
      <trkpt lat="41.642841750" lon="2.587701710">
        <ele>257.60</ele>
        <time>2014-04-06T08:45:37Z</time>
      </trkpt>
      <trkpt lat="41.642851810" lon="2.587711770">
        <ele>257.90</ele>
        <time>2014-04-06T08:45:38Z</time>
      </trkpt>
      <trkpt lat="41.642863370" lon="2.587718470">
        <ele>257.80</ele>
        <time>2014-04-06T08:45:39Z</time>
      </trkpt>
      <trkpt lat="41.642876780" lon="2.587725010">
        <ele>257.70</ele>
        <time>2014-04-06T08:45:40Z</time>
      </trkpt>
      <trkpt lat="41.642888350" lon="2.587733390">
        <ele>257.80</ele>
        <time>2014-04-06T08:45:41Z</time>
      </trkpt>
      <trkpt lat="41.642900090" lon="2.587741780">
        <ele>257.80</ele>
        <time>2014-04-06T08:45:42Z</time>
      </trkpt>
      <trkpt lat="41.642911820" lon="2.587751670">
        <ele>257.90</ele>
        <time>2014-04-06T08:45:43Z</time>
      </trkpt>
      <trkpt lat="41.642923390" lon="2.587760050">
        <ele>257.90</ele>
        <time>2014-04-06T08:45:44Z</time>
      </trkpt>
      <trkpt lat="41.642933450" lon="2.587771780">
        <ele>257.90</ele>
        <time>2014-04-06T08:45:45Z</time>
      </trkpt>
      <trkpt lat="41.642945010" lon="2.587780000">
        <ele>258.20</ele>
        <time>2014-04-06T08:45:46Z</time>
      </trkpt>
      <trkpt lat="41.642956750" lon="2.587790060">
        <ele>258.50</ele>
        <time>2014-04-06T08:45:47Z</time>
      </trkpt>
      <trkpt lat="41.642968480" lon="2.587798440">
        <ele>258.10</ele>
        <time>2014-04-06T08:45:48Z</time>
      </trkpt>
      <trkpt lat="41.642981730" lon="2.587806820">
        <ele>257.80</ele>
        <time>2014-04-06T08:45:49Z</time>
      </trkpt>
      <trkpt lat="41.642995140" lon="2.587813360">
        <ele>257.60</ele>
        <time>2014-04-06T08:45:50Z</time>
      </trkpt>
      <trkpt lat="41.643008380" lon="2.587818390">
        <ele>257.70</ele>
        <time>2014-04-06T08:45:51Z</time>
      </trkpt>
      <trkpt lat="41.643023470" lon="2.587826770">
        <ele>257.90</ele>
        <time>2014-04-06T08:45:52Z</time>
      </trkpt>
      <trkpt lat="41.643038390" lon="2.587835150">
        <ele>258.20</ele>
        <time>2014-04-06T08:45:53Z</time>
      </trkpt>
      <trkpt lat="41.643051800" lon="2.587843360">
        <ele>258.50</ele>
        <time>2014-04-06T08:45:54Z</time>
      </trkpt>
      <trkpt lat="41.643066720" lon="2.587850070">
        <ele>258.60</ele>
        <time>2014-04-06T08:45:55Z</time>
      </trkpt>
      <trkpt lat="41.643080130" lon="2.587856780">
        <ele>258.80</ele>
        <time>2014-04-06T08:45:56Z</time>
      </trkpt>
      <trkpt lat="41.643095050" lon="2.587861800">
        <ele>258.90</ele>
        <time>2014-04-06T08:45:57Z</time>
      </trkpt>
      <trkpt lat="41.643108460" lon="2.587868340">
        <ele>259.20</ele>
        <time>2014-04-06T08:45:58Z</time>
      </trkpt>
      <trkpt lat="41.643123380" lon="2.587876720">
        <ele>259.40</ele>
        <time>2014-04-06T08:45:59Z</time>
      </trkpt>
      <trkpt lat="41.643138470" lon="2.587883430">
        <ele>259.70</ele>
        <time>2014-04-06T08:46:00Z</time>
      </trkpt>
      <trkpt lat="41.643153390" lon="2.587890140">
        <ele>259.80</ele>
        <time>2014-04-06T08:46:01Z</time>
      </trkpt>
      <trkpt lat="41.643168470" lon="2.587895000">
        <ele>260.00</ele>
        <time>2014-04-06T08:46:02Z</time>
      </trkpt>
      <trkpt lat="41.643181720" lon="2.587901700">
        <ele>260.30</ele>
        <time>2014-04-06T08:46:03Z</time>
      </trkpt>
      <trkpt lat="41.643195130" lon="2.587908410">
        <ele>260.50</ele>
        <time>2014-04-06T08:46:04Z</time>
      </trkpt>
      <trkpt lat="41.643208370" lon="2.587916790">
        <ele>260.70</ele>
        <time>2014-04-06T08:46:05Z</time>
      </trkpt>
      <trkpt lat="41.643220110" lon="2.587926680">
        <ele>260.90</ele>
        <time>2014-04-06T08:46:06Z</time>
      </trkpt>
      <trkpt lat="41.643231670" lon="2.587933390">
        <ele>260.90</ele>
        <time>2014-04-06T08:46:07Z</time>
      </trkpt>
      <trkpt lat="41.643245080" lon="2.587940090">
        <ele>260.80</ele>
        <time>2014-04-06T08:46:08Z</time>
      </trkpt>
      <trkpt lat="41.643258500" lon="2.587945120">
        <ele>260.80</ele>
        <time>2014-04-06T08:46:09Z</time>
      </trkpt>
      <trkpt lat="41.643273420" lon="2.587950150">
        <ele>261.10</ele>
        <time>2014-04-06T08:46:10Z</time>
      </trkpt>
      <trkpt lat="41.643286830" lon="2.587956690">
        <ele>261.40</ele>
        <time>2014-04-06T08:46:11Z</time>
      </trkpt>
      <trkpt lat="41.643305100" lon="2.587965070">
        <ele>261.40</ele>
        <time>2014-04-06T08:46:12Z</time>
      </trkpt>
      <trkpt lat="41.643323370" lon="2.587975130">
        <ele>261.50</ele>
        <time>2014-04-06T08:46:13Z</time>
      </trkpt>
      <trkpt lat="41.643340140" lon="2.587986700">
        <ele>262.00</ele>
        <time>2014-04-06T08:46:14Z</time>
      </trkpt>
      <trkpt lat="41.643355060" lon="2.587998430">
        <ele>262.50</ele>
        <time>2014-04-06T08:46:15Z</time>
      </trkpt>
      <trkpt lat="41.643371820" lon="2.588008490">
        <ele>262.80</ele>
        <time>2014-04-06T08:46:16Z</time>
      </trkpt>
      <trkpt lat="41.643386740" lon="2.588020060">
        <ele>263.10</ele>
        <time>2014-04-06T08:46:17Z</time>
      </trkpt>
      <trkpt lat="41.643400150" lon="2.588031790">
        <ele>263.30</ele>
        <time>2014-04-06T08:46:18Z</time>
      </trkpt>
      <trkpt lat="41.643413390" lon="2.588048390">
        <ele>263.20</ele>
        <time>2014-04-06T08:46:19Z</time>
      </trkpt>
      <trkpt lat="41.643426800" lon="2.588063470">
        <ele>263.10</ele>
        <time>2014-04-06T08:46:20Z</time>
      </trkpt>
      <trkpt lat="41.643441720" lon="2.588078390">
        <ele>263.10</ele>
        <time>2014-04-06T08:46:21Z</time>
      </trkpt>
      <trkpt lat="41.643455140" lon="2.588095160">
        <ele>263.20</ele>
        <time>2014-04-06T08:46:22Z</time>
      </trkpt>
      <trkpt lat="41.643468380" lon="2.588111750">
        <ele>263.30</ele>
        <time>2014-04-06T08:46:23Z</time>
      </trkpt>
      <trkpt lat="41.643478440" lon="2.588128350">
        <ele>263.70</ele>
        <time>2014-04-06T08:46:24Z</time>
      </trkpt>
      <trkpt lat="41.643488500" lon="2.588146790">
        <ele>264.10</ele>
        <time>2014-04-06T08:46:25Z</time>
      </trkpt>
      <trkpt lat="41.643496710" lon="2.588165060">
        <ele>264.00</ele>
        <time>2014-04-06T08:46:26Z</time>
      </trkpt>
      <trkpt lat="41.643505090" lon="2.588181830">
        <ele>263.90</ele>
        <time>2014-04-06T08:46:27Z</time>
      </trkpt>
      <trkpt lat="41.643513470" lon="2.588201770">
        <ele>263.90</ele>
        <time>2014-04-06T08:46:28Z</time>
      </trkpt>
      <trkpt lat="41.643523360" lon="2.588218370">
        <ele>264.00</ele>
        <time>2014-04-06T08:46:29Z</time>
      </trkpt>
      <trkpt lat="41.643533420" lon="2.588235130">
        <ele>264.10</ele>
        <time>2014-04-06T08:46:30Z</time>
      </trkpt>
      <trkpt lat="41.643545160" lon="2.588255080">
        <ele>264.50</ele>
        <time>2014-04-06T08:46:31Z</time>
      </trkpt>
      <trkpt lat="41.643556720" lon="2.588273360">
        <ele>264.80</ele>
        <time>2014-04-06T08:46:32Z</time>
      </trkpt>
      <trkpt lat="41.643566780" lon="2.588291800">
        <ele>265.20</ele>
        <time>2014-04-06T08:46:33Z</time>
      </trkpt>
      <trkpt lat="41.643578350" lon="2.588310070">
        <ele>265.60</ele>
        <time>2014-04-06T08:46:34Z</time>
      </trkpt>
      <trkpt lat="41.643591760" lon="2.588328340">
        <ele>265.90</ele>
        <time>2014-04-06T08:46:35Z</time>
      </trkpt>
      <trkpt lat="41.643605000" lon="2.588346780">
        <ele>265.60</ele>
        <time>2014-04-06T08:46:36Z</time>
      </trkpt>
      <trkpt lat="41.643618410" lon="2.588365050">
        <ele>265.40</ele>
        <time>2014-04-06T08:46:37Z</time>
      </trkpt>
      <trkpt lat="41.643630150" lon="2.588385000">
        <ele>265.40</ele>
        <time>2014-04-06T08:46:38Z</time>
      </trkpt>
      <trkpt lat="41.643641720" lon="2.588405120">
        <ele>265.40</ele>
        <time>2014-04-06T08:46:39Z</time>
      </trkpt>
      <trkpt lat="41.643651770" lon="2.588425070">
        <ele>265.40</ele>
        <time>2014-04-06T08:46:40Z</time>
      </trkpt>
      <trkpt lat="41.643661670" lon="2.588443340">
        <ele>265.60</ele>
        <time>2014-04-06T08:46:41Z</time>
      </trkpt>
      <trkpt lat="41.643670050" lon="2.588465130">
        <ele>265.70</ele>
        <time>2014-04-06T08:46:42Z</time>
      </trkpt>
      <trkpt lat="41.643680110" lon="2.588483410">
        <ele>265.70</ele>
        <time>2014-04-06T08:46:43Z</time>
      </trkpt>
      <trkpt lat="41.643690000" lon="2.588501680">
        <ele>265.80</ele>
        <time>2014-04-06T08:46:44Z</time>
      </trkpt>
      <trkpt lat="41.643698380" lon="2.588523470">
        <ele>266.10</ele>
        <time>2014-04-06T08:46:45Z</time>
      </trkpt>
      <trkpt lat="41.643708440" lon="2.588545100">
        <ele>266.30</ele>
        <time>2014-04-06T08:46:46Z</time>
      </trkpt>
      <trkpt lat="41.643718490" lon="2.588565050">
        <ele>266.50</ele>
        <time>2014-04-06T08:46:47Z</time>
      </trkpt>
      <trkpt lat="41.643728390" lon="2.588581810">
        <ele>266.50</ele>
        <time>2014-04-06T08:46:48Z</time>
      </trkpt>
      <trkpt lat="41.643738440" lon="2.588596730">
        <ele>266.50</ele>
        <time>2014-04-06T08:46:49Z</time>
      </trkpt>
      <trkpt lat="41.643748330" lon="2.588613490">
        <ele>266.60</ele>
        <time>2014-04-06T08:46:50Z</time>
      </trkpt>
      <trkpt lat="41.643760070" lon="2.588630090">
        <ele>266.70</ele>
        <time>2014-04-06T08:46:51Z</time>
      </trkpt>
      <trkpt lat="41.643773480" lon="2.588645010">
        <ele>266.90</ele>
        <time>2014-04-06T08:46:52Z</time>
      </trkpt>
      <trkpt lat="41.643783370" lon="2.588660100">
        <ele>267.00</ele>
        <time>2014-04-06T08:46:53Z</time>
      </trkpt>
      <trkpt lat="41.643795110" lon="2.588673340">
        <ele>267.10</ele>
        <time>2014-04-06T08:46:54Z</time>
      </trkpt>
      <trkpt lat="41.643805000" lon="2.588680050">
        <ele>267.30</ele>
        <time>2014-04-06T08:46:55Z</time>
      </trkpt>
      <trkpt lat="41.643806670" lon="2.588681720">
        <ele>267.50</ele>
        <time>2014-04-06T08:46:56Z</time>
      </trkpt>
      <trkpt lat="41.643808350" lon="2.588683400">
        <ele>267.30</ele>
        <time>2014-04-06T08:46:57Z</time>
      </trkpt>
      <trkpt lat="41.643810030" lon="2.588685080">
        <ele>267.20</ele>
        <time>2014-04-06T08:46:58Z</time>
      </trkpt>
      <trkpt lat="41.643810030" lon="2.588686750">
        <ele>267.10</ele>
        <time>2014-04-06T08:46:59Z</time>
      </trkpt>
      <trkpt lat="41.643810030" lon="2.588688430">
        <ele>267.30</ele>
        <time>2014-04-06T08:47:00Z</time>
      </trkpt>
      <trkpt lat="41.643811700" lon="2.588690100">
        <ele>267.40</ele>
        <time>2014-04-06T08:47:01Z</time>
      </trkpt>
      <trkpt lat="41.643811700" lon="2.588691780">
        <ele>267.20</ele>
        <time>2014-04-06T08:47:02Z</time>
      </trkpt>
      <trkpt lat="41.643813380" lon="2.588693460">
        <ele>267.00</ele>
        <time>2014-04-06T08:47:03Z</time>
      </trkpt>
      <trkpt lat="41.643815050" lon="2.588693460">
        <ele>267.20</ele>
        <time>2014-04-06T08:47:04Z</time>
      </trkpt>
      <trkpt lat="41.643816730" lon="2.588695130">
        <ele>267.20</ele>
        <time>2014-04-06T08:47:05Z</time>
      </trkpt>
      <trkpt lat="41.643818410" lon="2.588696810">
        <ele>267.30</ele>
        <time>2014-04-06T08:47:06Z</time>
      </trkpt>
      <trkpt lat="41.643820080" lon="2.588698490">
        <ele>267.60</ele>
        <time>2014-04-06T08:47:07Z</time>
      </trkpt>
      <trkpt lat="41.643821760" lon="2.588698490">
        <ele>267.90</ele>
        <time>2014-04-06T08:47:08Z</time>
      </trkpt>
      <trkpt lat="41.643823440" lon="2.588700000">
        <ele>267.80</ele>
        <time>2014-04-06T08:47:09Z</time>
      </trkpt>
      <trkpt lat="41.643826790" lon="2.588700000">
        <ele>267.70</ele>
        <time>2014-04-06T08:47:10Z</time>
      </trkpt>
      <trkpt lat="41.643828470" lon="2.588701670">
        <ele>268.10</ele>
        <time>2014-04-06T08:47:11Z</time>
      </trkpt>
      <trkpt lat="41.643830140" lon="2.588701670">
        <ele>268.30</ele>
        <time>2014-04-06T08:47:12Z</time>
      </trkpt>
      <trkpt lat="41.643831820" lon="2.588703350">
        <ele>268.50</ele>
        <time>2014-04-06T08:47:13Z</time>
      </trkpt>
      <trkpt lat="41.643833490" lon="2.588703350">
        <ele>268.40</ele>
        <time>2014-04-06T08:47:14Z</time>
      </trkpt>
      <trkpt lat="41.643835000" lon="2.588705020">
        <ele>268.30</ele>
        <time>2014-04-06T08:47:15Z</time>
      </trkpt>
      <trkpt lat="41.643836680" lon="2.588706700">
        <ele>268.20</ele>
        <time>2014-04-06T08:47:16Z</time>
      </trkpt>
      <trkpt lat="41.643838360" lon="2.588706700">
        <ele>268.20</ele>
        <time>2014-04-06T08:47:17Z</time>
      </trkpt>
      <trkpt lat="41.643840030" lon="2.588708380">
        <ele>268.10</ele>
        <time>2014-04-06T08:47:18Z</time>
      </trkpt>
      <trkpt lat="41.643841710" lon="2.588708380">
        <ele>268.40</ele>
        <time>2014-04-06T08:47:19Z</time>
      </trkpt>
      <trkpt lat="41.643843390" lon="2.588710050">
        <ele>268.50</ele>
        <time>2014-04-06T08:47:20Z</time>
      </trkpt>
      <trkpt lat="41.643845060" lon="2.588710050">
        <ele>268.40</ele>
        <time>2014-04-06T08:47:21Z</time>
      </trkpt>
      <trkpt lat="41.643846740" lon="2.588710050">
        <ele>268.40</ele>
        <time>2014-04-06T08:47:22Z</time>
      </trkpt>
      <trkpt lat="41.643848410" lon="2.588710050">
        <ele>268.20</ele>
        <time>2014-04-06T08:47:23Z</time>
      </trkpt>
      <trkpt lat="41.643850090" lon="2.588710050">
        <ele>268.10</ele>
        <time>2014-04-06T08:47:24Z</time>
      </trkpt>
      <trkpt lat="41.643851770" lon="2.588710050">
        <ele>268.00</ele>
        <time>2014-04-06T08:47:25Z</time>
      </trkpt>
      <trkpt lat="41.643853440" lon="2.588711730">
        <ele>268.20</ele>
        <time>2014-04-06T08:47:26Z</time>
      </trkpt>
      <trkpt lat="41.643855120" lon="2.588711730">
        <ele>268.30</ele>
        <time>2014-04-06T08:47:27Z</time>
      </trkpt>
      <trkpt lat="41.643858470" lon="2.588711730">
        <ele>268.60</ele>
        <time>2014-04-06T08:47:28Z</time>
      </trkpt>
      <trkpt lat="41.643860150" lon="2.588713410">
        <ele>268.80</ele>
        <time>2014-04-06T08:47:29Z</time>
      </trkpt>
      <trkpt lat="41.643861830" lon="2.588713410">
        <ele>268.90</ele>
        <time>2014-04-06T08:47:30Z</time>
      </trkpt>
      <trkpt lat="41.643863330" lon="2.588713410">
        <ele>268.90</ele>
        <time>2014-04-06T08:47:31Z</time>
      </trkpt>
      <trkpt lat="41.643865010" lon="2.588715080">
        <ele>268.90</ele>
        <time>2014-04-06T08:47:32Z</time>
      </trkpt>
      <trkpt lat="41.643866690" lon="2.588715080">
        <ele>269.10</ele>
        <time>2014-04-06T08:47:33Z</time>
      </trkpt>
      <trkpt lat="41.643868360" lon="2.588713410">
        <ele>269.20</ele>
        <time>2014-04-06T08:47:34Z</time>
      </trkpt>
      <trkpt lat="41.643870040" lon="2.588713410">
        <ele>269.10</ele>
        <time>2014-04-06T08:47:35Z</time>
      </trkpt>
      <trkpt lat="41.643871720" lon="2.588715080">
        <ele>269.00</ele>
        <time>2014-04-06T08:47:36Z</time>
      </trkpt>
      <trkpt lat="41.643873390" lon="2.588716760">
        <ele>269.00</ele>
        <time>2014-04-06T08:47:37Z</time>
      </trkpt>
      <trkpt lat="41.643875070" lon="2.588718440">
        <ele>269.00</ele>
        <time>2014-04-06T08:47:38Z</time>
      </trkpt>
      <trkpt lat="41.643875070" lon="2.588720110">
        <ele>269.00</ele>
        <time>2014-04-06T08:47:39Z</time>
      </trkpt>
      <trkpt lat="41.643876750" lon="2.588721790">
        <ele>269.20</ele>
        <time>2014-04-06T08:47:40Z</time>
      </trkpt>
      <trkpt lat="41.643878420" lon="2.588723460">
        <ele>269.30</ele>
        <time>2014-04-06T08:47:41Z</time>
      </trkpt>
      <trkpt lat="41.643878420" lon="2.588725140">
        <ele>268.70</ele>
        <time>2014-04-06T08:47:42Z</time>
      </trkpt>
      <trkpt lat="41.643880100" lon="2.588726820">
        <ele>268.20</ele>
        <time>2014-04-06T08:47:43Z</time>
      </trkpt>
      <trkpt lat="41.643880100" lon="2.588730000">
        <ele>267.90</ele>
        <time>2014-04-06T08:47:44Z</time>
      </trkpt>
      <trkpt lat="41.643881770" lon="2.588731680">
        <ele>268.10</ele>
        <time>2014-04-06T08:47:45Z</time>
      </trkpt>
      <trkpt lat="41.643881770" lon="2.588733360">
        <ele>268.30</ele>
        <time>2014-04-06T08:47:46Z</time>
      </trkpt>
      <trkpt lat="41.643883450" lon="2.588736710">
        <ele>268.60</ele>
        <time>2014-04-06T08:47:47Z</time>
      </trkpt>
      <trkpt lat="41.643883450" lon="2.588738380">
        <ele>268.80</ele>
        <time>2014-04-06T08:47:48Z</time>
      </trkpt>
      <trkpt lat="41.643883450" lon="2.588741740">
        <ele>268.70</ele>
        <time>2014-04-06T08:47:49Z</time>
      </trkpt>
      <trkpt lat="41.643883450" lon="2.588743410">
        <ele>268.60</ele>
        <time>2014-04-06T08:47:50Z</time>
      </trkpt>
      <trkpt lat="41.643885130" lon="2.588746770">
        <ele>268.50</ele>
        <time>2014-04-06T08:47:51Z</time>
      </trkpt>
      <trkpt lat="41.643885130" lon="2.588748440">
        <ele>268.50</ele>
        <time>2014-04-06T08:47:52Z</time>
      </trkpt>
      <trkpt lat="41.643885130" lon="2.588751800">
        <ele>268.50</ele>
        <time>2014-04-06T08:47:53Z</time>
      </trkpt>
      <trkpt lat="41.643886800" lon="2.588753470">
        <ele>268.70</ele>
        <time>2014-04-06T08:47:54Z</time>
      </trkpt>
      <trkpt lat="41.643886800" lon="2.588755150">
        <ele>268.80</ele>
        <time>2014-04-06T08:47:55Z</time>
      </trkpt>
      <trkpt lat="41.643886800" lon="2.588756820">
        <ele>268.90</ele>
        <time>2014-04-06T08:47:56Z</time>
      </trkpt>
      <trkpt lat="41.643888480" lon="2.588758330">
        <ele>269.20</ele>
        <time>2014-04-06T08:47:57Z</time>
      </trkpt>
      <trkpt lat="41.643886800" lon="2.588761690">
        <ele>269.40</ele>
        <time>2014-04-06T08:47:58Z</time>
      </trkpt>
      <trkpt lat="41.643888480" lon="2.588761690">
        <ele>269.30</ele>
        <time>2014-04-06T08:47:59Z</time>
      </trkpt>
      <trkpt lat="41.643888480" lon="2.588763360">
        <ele>269.20</ele>
        <time>2014-04-06T08:48:00Z</time>
      </trkpt>
      <trkpt lat="41.643888480" lon="2.588765040">
        <ele>269.10</ele>
        <time>2014-04-06T08:48:01Z</time>
      </trkpt>
      <trkpt lat="41.643888480" lon="2.588766720">
        <ele>269.00</ele>
        <time>2014-04-06T08:48:02Z</time>
      </trkpt>
      <trkpt lat="41.643886800" lon="2.588766720">
        <ele>268.90</ele>
        <time>2014-04-06T08:48:03Z</time>
      </trkpt>
      <trkpt lat="41.643886800" lon="2.588768390">
        <ele>269.00</ele>
        <time>2014-04-06T08:48:04Z</time>
      </trkpt>
      <trkpt lat="41.643886800" lon="2.588770070">
        <ele>269.10</ele>
        <time>2014-04-06T08:48:05Z</time>
      </trkpt>
      <trkpt lat="41.643888480" lon="2.588770070">
        <ele>269.30</ele>
        <time>2014-04-06T08:48:06Z</time>
      </trkpt>
      <trkpt lat="41.643890160" lon="2.588771740">
        <ele>269.40</ele>
        <time>2014-04-06T08:48:07Z</time>
      </trkpt>
      <trkpt lat="41.643891660" lon="2.588771740">
        <ele>269.40</ele>
        <time>2014-04-06T08:48:08Z</time>
      </trkpt>
      <trkpt lat="41.643891660" lon="2.588773420">
        <ele>269.40</ele>
        <time>2014-04-06T08:48:09Z</time>
      </trkpt>
      <trkpt lat="41.643893340" lon="2.588773420">
        <ele>269.50</ele>
        <time>2014-04-06T08:48:10Z</time>
      </trkpt>
      <trkpt lat="41.643893340" lon="2.588773420">
        <ele>269.70</ele>
        <time>2014-04-06T08:48:11Z</time>
      </trkpt>
      <trkpt lat="41.643895020" lon="2.588773420">
        <ele>269.80</ele>
        <time>2014-04-06T08:48:12Z</time>
      </trkpt>
      <trkpt lat="41.643895020" lon="2.588773420">
        <ele>269.40</ele>
        <time>2014-04-06T08:48:13Z</time>
      </trkpt>
      <trkpt lat="41.643895020" lon="2.588773420">
        <ele>269.00</ele>
        <time>2014-04-06T08:48:14Z</time>
      </trkpt>
      <trkpt lat="41.643895020" lon="2.588773420">
        <ele>268.60</ele>
        <time>2014-04-06T08:48:15Z</time>
      </trkpt>
      <trkpt lat="41.643895020" lon="2.588775100">
        <ele>268.20</ele>
        <time>2014-04-06T08:48:16Z</time>
      </trkpt>
      <trkpt lat="41.643895020" lon="2.588775100">
        <ele>268.00</ele>
        <time>2014-04-06T08:48:17Z</time>
      </trkpt>
      <trkpt lat="41.643895020" lon="2.588775100">
        <ele>268.30</ele>
        <time>2014-04-06T08:48:18Z</time>
      </trkpt>
      <trkpt lat="41.643895020" lon="2.588775100">
        <ele>268.50</ele>
        <time>2014-04-06T08:48:19Z</time>
      </trkpt>
      <trkpt lat="41.643895020" lon="2.588775100">
        <ele>268.80</ele>
        <time>2014-04-06T08:48:20Z</time>
      </trkpt>
      <trkpt lat="41.643895020" lon="2.588775100">
        <ele>269.10</ele>
        <time>2014-04-06T08:48:21Z</time>
      </trkpt>
      <trkpt lat="41.643895020" lon="2.588775100">
        <ele>269.20</ele>
        <time>2014-04-06T08:48:22Z</time>
      </trkpt>
      <trkpt lat="41.643893340" lon="2.588776770">
        <ele>269.10</ele>
        <time>2014-04-06T08:48:23Z</time>
      </trkpt>
      <trkpt lat="41.643893340" lon="2.588776770">
        <ele>268.90</ele>
        <time>2014-04-06T08:48:24Z</time>
      </trkpt>
      <trkpt lat="41.643891660" lon="2.588776770">
        <ele>269.00</ele>
        <time>2014-04-06T08:48:25Z</time>
      </trkpt>
      <trkpt lat="41.643891660" lon="2.588778450">
        <ele>269.00</ele>
        <time>2014-04-06T08:48:26Z</time>
      </trkpt>
      <trkpt lat="41.643891660" lon="2.588778450">
        <ele>269.20</ele>
        <time>2014-04-06T08:48:27Z</time>
      </trkpt>
      <trkpt lat="41.643891660" lon="2.588778450">
        <ele>269.30</ele>
        <time>2014-04-06T08:48:28Z</time>
      </trkpt>
      <trkpt lat="41.643891660" lon="2.588778450">
        <ele>269.40</ele>
        <time>2014-04-06T08:48:29Z</time>
      </trkpt>
      <trkpt lat="41.643891660" lon="2.588778450">
        <ele>269.20</ele>
        <time>2014-04-06T08:48:30Z</time>
      </trkpt>
      <trkpt lat="41.643893340" lon="2.588780130">
        <ele>269.00</ele>
        <time>2014-04-06T08:48:31Z</time>
      </trkpt>
      <trkpt lat="41.643893340" lon="2.588780130">
        <ele>269.20</ele>
        <time>2014-04-06T08:48:32Z</time>
      </trkpt>
      <trkpt lat="41.643895020" lon="2.588780130">
        <ele>269.40</ele>
        <time>2014-04-06T08:48:33Z</time>
      </trkpt>
      <trkpt lat="41.643896690" lon="2.588780130">
        <ele>269.60</ele>
        <time>2014-04-06T08:48:34Z</time>
      </trkpt>
      <trkpt lat="41.643898370" lon="2.588780130">
        <ele>269.60</ele>
        <time>2014-04-06T08:48:35Z</time>
      </trkpt>
      <trkpt lat="41.643900050" lon="2.588780130">
        <ele>269.60</ele>
        <time>2014-04-06T08:48:36Z</time>
      </trkpt>
      <trkpt lat="41.643900050" lon="2.588780130">
        <ele>269.60</ele>
        <time>2014-04-06T08:48:37Z</time>
      </trkpt>
      <trkpt lat="41.643901720" lon="2.588780130">
        <ele>269.60</ele>
        <time>2014-04-06T08:48:38Z</time>
      </trkpt>
      <trkpt lat="41.643903400" lon="2.588780130">
        <ele>269.90</ele>
        <time>2014-04-06T08:48:39Z</time>
      </trkpt>
      <trkpt lat="41.643905080" lon="2.588780130">
        <ele>270.00</ele>
        <time>2014-04-06T08:48:40Z</time>
      </trkpt>
      <trkpt lat="41.643906750" lon="2.588778450">
        <ele>270.20</ele>
        <time>2014-04-06T08:48:41Z</time>
      </trkpt>
      <trkpt lat="41.643908430" lon="2.588778450">
        <ele>270.10</ele>
        <time>2014-04-06T08:48:42Z</time>
      </trkpt>
      <trkpt lat="41.643908430" lon="2.588776770">
        <ele>270.00</ele>
        <time>2014-04-06T08:48:43Z</time>
      </trkpt>
      <trkpt lat="41.643910100" lon="2.588775100">
        <ele>270.00</ele>
        <time>2014-04-06T08:48:44Z</time>
      </trkpt>
      <trkpt lat="41.643911780" lon="2.588775100">
        <ele>270.00</ele>
        <time>2014-04-06T08:48:45Z</time>
      </trkpt>
      <trkpt lat="41.643913460" lon="2.588773420">
        <ele>269.80</ele>
        <time>2014-04-06T08:48:46Z</time>
      </trkpt>
      <trkpt lat="41.643913460" lon="2.588771740">
        <ele>269.80</ele>
        <time>2014-04-06T08:48:47Z</time>
      </trkpt>
      <trkpt lat="41.643915130" lon="2.588771740">
        <ele>269.70</ele>
        <time>2014-04-06T08:48:48Z</time>
      </trkpt>
      <trkpt lat="41.643915130" lon="2.588770070">
        <ele>269.70</ele>
        <time>2014-04-06T08:48:49Z</time>
      </trkpt>
      <trkpt lat="41.643916810" lon="2.588768390">
        <ele>269.70</ele>
        <time>2014-04-06T08:48:50Z</time>
      </trkpt>
      <trkpt lat="41.643916810" lon="2.588766720">
        <ele>269.70</ele>
        <time>2014-04-06T08:48:51Z</time>
      </trkpt>
      <trkpt lat="41.643918490" lon="2.588766720">
        <ele>269.70</ele>
        <time>2014-04-06T08:48:52Z</time>
      </trkpt>
      <trkpt lat="41.643918490" lon="2.588765040">
        <ele>269.70</ele>
        <time>2014-04-06T08:48:53Z</time>
      </trkpt>
      <trkpt lat="41.643920000" lon="2.588763360">
        <ele>269.70</ele>
        <time>2014-04-06T08:48:54Z</time>
      </trkpt>
      <trkpt lat="41.643920000" lon="2.588761690">
        <ele>269.80</ele>
        <time>2014-04-06T08:48:55Z</time>
      </trkpt>
      <trkpt lat="41.643920000" lon="2.588761690">
        <ele>269.80</ele>
        <time>2014-04-06T08:48:56Z</time>
      </trkpt>
      <trkpt lat="41.643921670" lon="2.588760010">
        <ele>269.80</ele>
        <time>2014-04-06T08:48:57Z</time>
      </trkpt>
      <trkpt lat="41.643921670" lon="2.588758330">
        <ele>270.20</ele>
        <time>2014-04-06T08:48:58Z</time>
      </trkpt>
      <trkpt lat="41.643921670" lon="2.588756820">
        <ele>270.50</ele>
        <time>2014-04-06T08:48:59Z</time>
      </trkpt>
      <trkpt lat="41.643921670" lon="2.588756820">
        <ele>270.80</ele>
        <time>2014-04-06T08:49:00Z</time>
      </trkpt>
      <trkpt lat="41.643923350" lon="2.588755150">
        <ele>270.60</ele>
        <time>2014-04-06T08:49:01Z</time>
      </trkpt>
      <trkpt lat="41.643923350" lon="2.588753470">
        <ele>270.50</ele>
        <time>2014-04-06T08:49:02Z</time>
      </trkpt>
      <trkpt lat="41.643923350" lon="2.588751800">
        <ele>270.20</ele>
        <time>2014-04-06T08:49:03Z</time>
      </trkpt>
      <trkpt lat="41.643923350" lon="2.588750120">
        <ele>270.00</ele>
        <time>2014-04-06T08:49:04Z</time>
      </trkpt>
      <trkpt lat="41.643923350" lon="2.588750120">
        <ele>270.10</ele>
        <time>2014-04-06T08:49:05Z</time>
      </trkpt>
      <trkpt lat="41.643923350" lon="2.588748440">
        <ele>270.20</ele>
        <time>2014-04-06T08:49:06Z</time>
      </trkpt>
      <trkpt lat="41.643925020" lon="2.588746770">
        <ele>270.30</ele>
        <time>2014-04-06T08:49:07Z</time>
      </trkpt>
      <trkpt lat="41.643925020" lon="2.588746770">
        <ele>270.20</ele>
        <time>2014-04-06T08:49:08Z</time>
      </trkpt>
      <trkpt lat="41.643925020" lon="2.588745090">
        <ele>270.20</ele>
        <time>2014-04-06T08:49:09Z</time>
      </trkpt>
      <trkpt lat="41.643925020" lon="2.588745090">
        <ele>270.50</ele>
        <time>2014-04-06T08:49:10Z</time>
      </trkpt>
      <trkpt lat="41.643925020" lon="2.588743410">
        <ele>270.80</ele>
        <time>2014-04-06T08:49:11Z</time>
      </trkpt>
      <trkpt lat="41.643923350" lon="2.588743410">
        <ele>270.90</ele>
        <time>2014-04-06T08:49:12Z</time>
      </trkpt>
      <trkpt lat="41.643923350" lon="2.588743410">
        <ele>270.90</ele>
        <time>2014-04-06T08:49:13Z</time>
      </trkpt>
      <trkpt lat="41.643923350" lon="2.588741740">
        <ele>271.00</ele>
        <time>2014-04-06T08:49:14Z</time>
      </trkpt>
      <trkpt lat="41.643923350" lon="2.588741740">
        <ele>270.80</ele>
        <time>2014-04-06T08:49:15Z</time>
      </trkpt>
      <trkpt lat="41.643923350" lon="2.588741740">
        <ele>270.70</ele>
        <time>2014-04-06T08:49:16Z</time>
      </trkpt>
      <trkpt lat="41.643923350" lon="2.588740060">
        <ele>270.70</ele>
        <time>2014-04-06T08:49:17Z</time>
      </trkpt>
      <trkpt lat="41.643923350" lon="2.588740060">
        <ele>270.70</ele>
        <time>2014-04-06T08:49:18Z</time>
      </trkpt>
      <trkpt lat="41.643923350" lon="2.588738380">
        <ele>270.70</ele>
        <time>2014-04-06T08:49:19Z</time>
      </trkpt>
      <trkpt lat="41.643923350" lon="2.588738380">
        <ele>270.40</ele>
        <time>2014-04-06T08:49:20Z</time>
      </trkpt>
      <trkpt lat="41.643923350" lon="2.588736710">
        <ele>270.20</ele>
        <time>2014-04-06T08:49:21Z</time>
      </trkpt>
      <trkpt lat="41.643923350" lon="2.588736710">
        <ele>270.50</ele>
        <time>2014-04-06T08:49:22Z</time>
      </trkpt>
      <trkpt lat="41.643923350" lon="2.588735030">
        <ele>270.80</ele>
        <time>2014-04-06T08:49:23Z</time>
      </trkpt>
      <trkpt lat="41.643923350" lon="2.588735030">
        <ele>270.70</ele>
        <time>2014-04-06T08:49:24Z</time>
      </trkpt>
      <trkpt lat="41.643925020" lon="2.588733360">
        <ele>270.70</ele>
        <time>2014-04-06T08:49:25Z</time>
      </trkpt>
      <trkpt lat="41.643925020" lon="2.588733360">
        <ele>270.70</ele>
        <time>2014-04-06T08:49:26Z</time>
      </trkpt>
      <trkpt lat="41.643925020" lon="2.588731680">
        <ele>270.60</ele>
        <time>2014-04-06T08:49:27Z</time>
      </trkpt>
      <trkpt lat="41.643925020" lon="2.588731680">
        <ele>270.50</ele>
        <time>2014-04-06T08:49:28Z</time>
      </trkpt>
      <trkpt lat="41.643925020" lon="2.588730000">
        <ele>270.60</ele>
        <time>2014-04-06T08:49:29Z</time>
      </trkpt>
      <trkpt lat="41.643925020" lon="2.588730000">
        <ele>270.80</ele>
        <time>2014-04-06T08:49:30Z</time>
      </trkpt>
      <trkpt lat="41.643926700" lon="2.588728490">
        <ele>270.90</ele>
        <time>2014-04-06T08:49:31Z</time>
      </trkpt>
      <trkpt lat="41.643926700" lon="2.588728490">
        <ele>271.00</ele>
        <time>2014-04-06T08:49:32Z</time>
      </trkpt>
      <trkpt lat="41.643928380" lon="2.588728490">
        <ele>271.10</ele>
        <time>2014-04-06T08:49:33Z</time>
      </trkpt>
      <trkpt lat="41.643928380" lon="2.588726820">
        <ele>271.00</ele>
        <time>2014-04-06T08:49:34Z</time>
      </trkpt>
      <trkpt lat="41.643928380" lon="2.588726820">
        <ele>271.00</ele>
        <time>2014-04-06T08:49:35Z</time>
      </trkpt>
      <trkpt lat="41.643928380" lon="2.588726820">
        <ele>271.00</ele>
        <time>2014-04-06T08:49:36Z</time>
      </trkpt>
      <trkpt lat="41.643930050" lon="2.588726820">
        <ele>271.00</ele>
        <time>2014-04-06T08:49:37Z</time>
      </trkpt>
      <trkpt lat="41.643930050" lon="2.588726820">
        <ele>271.00</ele>
        <time>2014-04-06T08:49:38Z</time>
      </trkpt>
      <trkpt lat="41.643930050" lon="2.588726820">
        <ele>270.90</ele>
        <time>2014-04-06T08:49:39Z</time>
      </trkpt>
      <trkpt lat="41.643930050" lon="2.588726820">
        <ele>270.80</ele>
        <time>2014-04-06T08:49:40Z</time>
      </trkpt>
      <trkpt lat="41.643930050" lon="2.588726820">
        <ele>270.70</ele>
        <time>2014-04-06T08:49:41Z</time>
      </trkpt>
      <trkpt lat="41.643930050" lon="2.588726820">
        <ele>270.60</ele>
        <time>2014-04-06T08:49:42Z</time>
      </trkpt>
      <trkpt lat="41.643931730" lon="2.588726820">
        <ele>270.70</ele>
        <time>2014-04-06T08:49:43Z</time>
      </trkpt>
      <trkpt lat="41.643931730" lon="2.588725140">
        <ele>270.80</ele>
        <time>2014-04-06T08:49:44Z</time>
      </trkpt>
      <trkpt lat="41.643931730" lon="2.588726820">
        <ele>270.90</ele>
        <time>2014-04-06T08:49:45Z</time>
      </trkpt>
      <trkpt lat="41.643931730" lon="2.588726820">
        <ele>270.90</ele>
        <time>2014-04-06T08:49:46Z</time>
      </trkpt>
      <trkpt lat="41.643933410" lon="2.588725140">
        <ele>270.90</ele>
        <time>2014-04-06T08:49:47Z</time>
      </trkpt>
      <trkpt lat="41.643933410" lon="2.588725140">
        <ele>270.80</ele>
        <time>2014-04-06T08:49:48Z</time>
      </trkpt>
      <trkpt lat="41.643933410" lon="2.588725140">
        <ele>270.70</ele>
        <time>2014-04-06T08:49:49Z</time>
      </trkpt>
      <trkpt lat="41.643933410" lon="2.588723460">
        <ele>270.90</ele>
        <time>2014-04-06T08:49:50Z</time>
      </trkpt>
      <trkpt lat="41.643933410" lon="2.588725140">
        <ele>271.00</ele>
        <time>2014-04-06T08:49:51Z</time>
      </trkpt>
      <trkpt lat="41.643933410" lon="2.588725140">
        <ele>271.10</ele>
        <time>2014-04-06T08:49:52Z</time>
      </trkpt>
      <trkpt lat="41.643933410" lon="2.588725140">
        <ele>270.80</ele>
        <time>2014-04-06T08:49:53Z</time>
      </trkpt>
      <trkpt lat="41.643933410" lon="2.588726820">
        <ele>270.60</ele>
        <time>2014-04-06T08:49:54Z</time>
      </trkpt>
      <trkpt lat="41.643933410" lon="2.588726820">
        <ele>270.90</ele>
        <time>2014-04-06T08:49:55Z</time>
      </trkpt>
      <trkpt lat="41.643933410" lon="2.588728490">
        <ele>271.20</ele>
        <time>2014-04-06T08:49:56Z</time>
      </trkpt>
      <trkpt lat="41.643931730" lon="2.588728490">
        <ele>271.40</ele>
        <time>2014-04-06T08:49:57Z</time>
      </trkpt>
      <trkpt lat="41.643931730" lon="2.588730000">
        <ele>271.40</ele>
        <time>2014-04-06T08:49:58Z</time>
      </trkpt>
      <trkpt lat="41.643931730" lon="2.588730000">
        <ele>271.40</ele>
        <time>2014-04-06T08:49:59Z</time>
      </trkpt>
      <trkpt lat="41.643930050" lon="2.588731680">
        <ele>271.10</ele>
        <time>2014-04-06T08:50:00Z</time>
      </trkpt>
      <trkpt lat="41.643930050" lon="2.588733360">
        <ele>270.90</ele>
        <time>2014-04-06T08:50:01Z</time>
      </trkpt>
      <trkpt lat="41.643935080" lon="2.588738380">
        <ele>271.20</ele>
        <time>2014-04-06T08:50:02Z</time>
      </trkpt>
      <trkpt lat="41.643940110" lon="2.588745090">
        <ele>271.40</ele>
        <time>2014-04-06T08:50:03Z</time>
      </trkpt>
      <trkpt lat="41.643945140" lon="2.588750120">
        <ele>271.50</ele>
        <time>2014-04-06T08:50:04Z</time>
      </trkpt>
      <trkpt lat="41.643953360" lon="2.588756820">
        <ele>271.30</ele>
        <time>2014-04-06T08:50:05Z</time>
      </trkpt>
      <trkpt lat="41.643965090" lon="2.588763360">
        <ele>271.20</ele>
        <time>2014-04-06T08:50:06Z</time>
      </trkpt>
      <trkpt lat="41.643980010" lon="2.588771740">
        <ele>270.90</ele>
        <time>2014-04-06T08:50:07Z</time>
      </trkpt>
      <trkpt lat="41.643993420" lon="2.588781800">
        <ele>270.60</ele>
        <time>2014-04-06T08:50:08Z</time>
      </trkpt>
      <trkpt lat="41.644003480" lon="2.588791690">
        <ele>270.70</ele>
        <time>2014-04-06T08:50:09Z</time>
      </trkpt>
      <trkpt lat="41.644015050" lon="2.588800080">
        <ele>270.70</ele>
        <time>2014-04-06T08:50:10Z</time>
      </trkpt>
      <trkpt lat="41.644025100" lon="2.588803430">
        <ele>270.70</ele>
        <time>2014-04-06T08:50:11Z</time>
      </trkpt>
      <trkpt lat="41.644036670" lon="2.588808460">
        <ele>271.00</ele>
        <time>2014-04-06T08:50:12Z</time>
      </trkpt>
      <trkpt lat="41.644048410" lon="2.588815160">
        <ele>271.10</ele>
        <time>2014-04-06T08:50:13Z</time>
      </trkpt>
      <trkpt lat="41.644058460" lon="2.588825050">
        <ele>271.50</ele>
        <time>2014-04-06T08:50:14Z</time>
      </trkpt>
      <trkpt lat="41.644070030" lon="2.588831760">
        <ele>271.70</ele>
        <time>2014-04-06T08:50:15Z</time>
      </trkpt>
      <trkpt lat="41.644080090" lon="2.588838460">
        <ele>271.90</ele>
        <time>2014-04-06T08:50:16Z</time>
      </trkpt>
      <trkpt lat="41.644093330" lon="2.588843490">
        <ele>271.80</ele>
        <time>2014-04-06T08:50:17Z</time>
      </trkpt>
      <trkpt lat="41.644103390" lon="2.588848350">
        <ele>271.70</ele>
        <time>2014-04-06T08:50:18Z</time>
      </trkpt>
      <trkpt lat="41.644115130" lon="2.588858410">
        <ele>271.40</ele>
        <time>2014-04-06T08:50:19Z</time>
      </trkpt>
      <trkpt lat="41.644126690" lon="2.588865120">
        <ele>271.10</ele>
        <time>2014-04-06T08:50:20Z</time>
      </trkpt>
      <trkpt lat="41.644136750" lon="2.588871820">
        <ele>271.00</ele>
        <time>2014-04-06T08:50:21Z</time>
      </trkpt>
      <trkpt lat="41.644148490" lon="2.588880040">
        <ele>271.00</ele>
        <time>2014-04-06T08:50:22Z</time>
      </trkpt>
      <trkpt lat="41.644160050" lon="2.588888420">
        <ele>270.90</ele>
        <time>2014-04-06T08:50:23Z</time>
      </trkpt>
      <trkpt lat="41.644171790" lon="2.588898480">
        <ele>271.40</ele>
        <time>2014-04-06T08:50:24Z</time>
      </trkpt>
      <trkpt lat="41.644183360" lon="2.588905020">
        <ele>271.80</ele>
        <time>2014-04-06T08:50:25Z</time>
      </trkpt>
      <trkpt lat="41.644196770" lon="2.588911720">
        <ele>272.10</ele>
        <time>2014-04-06T08:50:26Z</time>
      </trkpt>
      <trkpt lat="41.644211690" lon="2.588920100">
        <ele>272.40</ele>
        <time>2014-04-06T08:50:27Z</time>
      </trkpt>
      <trkpt lat="41.644226770" lon="2.588925130">
        <ele>272.40</ele>
        <time>2014-04-06T08:50:28Z</time>
      </trkpt>
      <trkpt lat="41.644241690" lon="2.588930160">
        <ele>272.40</ele>
        <time>2014-04-06T08:50:29Z</time>
      </trkpt>
      <trkpt lat="41.644256780" lon="2.588935020">
        <ele>272.40</ele>
        <time>2014-04-06T08:50:30Z</time>
      </trkpt>
      <trkpt lat="41.644270020" lon="2.588940050">
        <ele>272.50</ele>
        <time>2014-04-06T08:50:31Z</time>
      </trkpt>
      <trkpt lat="41.644283430" lon="2.588945080">
        <ele>272.70</ele>
        <time>2014-04-06T08:50:32Z</time>
      </trkpt>
      <trkpt lat="41.644296680" lon="2.588948430">
        <ele>272.60</ele>
        <time>2014-04-06T08:50:33Z</time>
      </trkpt>
      <trkpt lat="41.644310090" lon="2.588956820">
        <ele>272.60</ele>
        <time>2014-04-06T08:50:34Z</time>
      </trkpt>
      <trkpt lat="41.644325010" lon="2.588965030">
        <ele>272.50</ele>
        <time>2014-04-06T08:50:35Z</time>
      </trkpt>
      <trkpt lat="41.644335070" lon="2.588975090">
        <ele>272.50</ele>
        <time>2014-04-06T08:50:36Z</time>
      </trkpt>
      <trkpt lat="41.644346800" lon="2.588985150">
        <ele>272.50</ele>
        <time>2014-04-06T08:50:37Z</time>
      </trkpt>
      <trkpt lat="41.644358370" lon="2.588995040">
        <ele>272.90</ele>
        <time>2014-04-06T08:50:38Z</time>
      </trkpt>
      <trkpt lat="41.644371780" lon="2.589000070">
        <ele>273.20</ele>
        <time>2014-04-06T08:50:39Z</time>
      </trkpt>
      <trkpt lat="41.644385020" lon="2.589003420">
        <ele>273.40</ele>
        <time>2014-04-06T08:50:40Z</time>
      </trkpt>
      <trkpt lat="41.644398430" lon="2.589008450">
        <ele>273.60</ele>
        <time>2014-04-06T08:50:41Z</time>
      </trkpt>
      <trkpt lat="41.644415030" lon="2.589010130">
        <ele>273.70</ele>
        <time>2014-04-06T08:50:42Z</time>
      </trkpt>
      <trkpt lat="41.644431790" lon="2.589013480">
        <ele>273.80</ele>
        <time>2014-04-06T08:50:43Z</time>
      </trkpt>
      <trkpt lat="41.644446710" lon="2.589018340">
        <ele>273.90</ele>
        <time>2014-04-06T08:50:44Z</time>
      </trkpt>
      <trkpt lat="41.644463480" lon="2.589020020">
        <ele>274.10</ele>
        <time>2014-04-06T08:50:45Z</time>
      </trkpt>
      <trkpt lat="41.644478400" lon="2.589023370">
        <ele>274.20</ele>
        <time>2014-04-06T08:50:46Z</time>
      </trkpt>
      <trkpt lat="41.644493490" lon="2.589025050">
        <ele>273.70</ele>
        <time>2014-04-06T08:50:47Z</time>
      </trkpt>
      <trkpt lat="41.644508410" lon="2.589028400">
        <ele>273.40</ele>
        <time>2014-04-06T08:50:48Z</time>
      </trkpt>
      <trkpt lat="41.644523490" lon="2.589031750">
        <ele>273.20</ele>
        <time>2014-04-06T08:50:49Z</time>
      </trkpt>
      <trkpt lat="41.644540090" lon="2.589033430">
        <ele>273.40</ele>
        <time>2014-04-06T08:50:50Z</time>
      </trkpt>
      <trkpt lat="41.644556690" lon="2.589035100">
        <ele>273.50</ele>
        <time>2014-04-06T08:50:51Z</time>
      </trkpt>
      <trkpt lat="41.644573450" lon="2.589038460">
        <ele>273.90</ele>
        <time>2014-04-06T08:50:52Z</time>
      </trkpt>
      <trkpt lat="41.644586690" lon="2.589041810">
        <ele>274.10</ele>
        <time>2014-04-06T08:50:53Z</time>
      </trkpt>
      <trkpt lat="41.644600100" lon="2.589050020">
        <ele>274.00</ele>
        <time>2014-04-06T08:50:54Z</time>
      </trkpt>
      <trkpt lat="41.644616700" lon="2.589050020">
        <ele>273.90</ele>
        <time>2014-04-06T08:50:55Z</time>
      </trkpt>
      <trkpt lat="41.644633460" lon="2.589055050">
        <ele>273.80</ele>
        <time>2014-04-06T08:50:56Z</time>
      </trkpt>
      <trkpt lat="41.644648380" lon="2.589060080">
        <ele>274.10</ele>
        <time>2014-04-06T08:50:57Z</time>
      </trkpt>
      <trkpt lat="41.644663470" lon="2.589065110">
        <ele>274.30</ele>
        <time>2014-04-06T08:50:58Z</time>
      </trkpt>
      <trkpt lat="41.644680070" lon="2.589070140">
        <ele>274.50</ele>
        <time>2014-04-06T08:50:59Z</time>
      </trkpt>
      <trkpt lat="41.644696660" lon="2.589076680">
        <ele>274.70</ele>
        <time>2014-04-06T08:51:00Z</time>
      </trkpt>
      <trkpt lat="41.644715100" lon="2.589081710">
        <ele>274.90</ele>
        <time>2014-04-06T08:51:01Z</time>
      </trkpt>
      <trkpt lat="41.644735050" lon="2.589086740">
        <ele>274.80</ele>
        <time>2014-04-06T08:51:02Z</time>
      </trkpt>
      <trkpt lat="41.644755000" lon="2.589093440">
        <ele>274.80</ele>
        <time>2014-04-06T08:51:03Z</time>
      </trkpt>
      <trkpt lat="41.644771760" lon="2.589101820">
        <ele>275.00</ele>
        <time>2014-04-06T08:51:04Z</time>
      </trkpt>
      <trkpt lat="41.644788360" lon="2.589110040">
        <ele>275.10</ele>
        <time>2014-04-06T08:51:05Z</time>
      </trkpt>
      <trkpt lat="41.644805120" lon="2.589118420">
        <ele>275.30</ele>
        <time>2014-04-06T08:51:06Z</time>
      </trkpt>
      <trkpt lat="41.644820040" lon="2.589126800">
        <ele>275.60</ele>
        <time>2014-04-06T08:51:07Z</time>
      </trkpt>
      <trkpt lat="41.644836810" lon="2.589136690">
        <ele>275.70</ele>
        <time>2014-04-06T08:51:08Z</time>
      </trkpt>
      <trkpt lat="41.644850050" lon="2.589148430">
        <ele>275.60</ele>
        <time>2014-04-06T08:51:09Z</time>
      </trkpt>
      <trkpt lat="41.644865140" lon="2.589161670">
        <ele>275.50</ele>
        <time>2014-04-06T08:51:10Z</time>
      </trkpt>
      <trkpt lat="41.644878380" lon="2.589173410">
        <ele>275.70</ele>
        <time>2014-04-06T08:51:11Z</time>
      </trkpt>
      <trkpt lat="41.644891790" lon="2.589183460">
        <ele>275.90</ele>
        <time>2014-04-06T08:51:12Z</time>
      </trkpt>
      <trkpt lat="41.644906710" lon="2.589193350">
        <ele>276.10</ele>
        <time>2014-04-06T08:51:13Z</time>
      </trkpt>
      <trkpt lat="41.644921800" lon="2.589203410">
        <ele>276.30</ele>
        <time>2014-04-06T08:51:14Z</time>
      </trkpt>
      <trkpt lat="41.644936720" lon="2.589215150">
        <ele>276.50</ele>
        <time>2014-04-06T08:51:15Z</time>
      </trkpt>
      <trkpt lat="41.644950130" lon="2.589228390">
        <ele>276.70</ele>
        <time>2014-04-06T08:51:16Z</time>
      </trkpt>
      <trkpt lat="41.644966730" lon="2.589240130">
        <ele>276.80</ele>
        <time>2014-04-06T08:51:17Z</time>
      </trkpt>
      <trkpt lat="41.644983490" lon="2.589246660">
        <ele>277.10</ele>
        <time>2014-04-06T08:51:18Z</time>
      </trkpt>
      <trkpt lat="41.645000090" lon="2.589256720">
        <ele>277.40</ele>
        <time>2014-04-06T08:51:19Z</time>
      </trkpt>
      <trkpt lat="41.645015010" lon="2.589266780">
        <ele>277.60</ele>
        <time>2014-04-06T08:51:20Z</time>
      </trkpt>
      <trkpt lat="41.645030090" lon="2.589276670">
        <ele>277.80</ele>
        <time>2014-04-06T08:51:21Z</time>
      </trkpt>
      <trkpt lat="41.645045010" lon="2.589288400">
        <ele>277.90</ele>
        <time>2014-04-06T08:51:22Z</time>
      </trkpt>
      <trkpt lat="41.645061780" lon="2.589298460">
        <ele>278.00</ele>
        <time>2014-04-06T08:51:23Z</time>
      </trkpt>
      <trkpt lat="41.645078370" lon="2.589313380">
        <ele>278.10</ele>
        <time>2014-04-06T08:51:24Z</time>
      </trkpt>
      <trkpt lat="41.645091790" lon="2.589328470">
        <ele>278.40</ele>
        <time>2014-04-06T08:51:25Z</time>
      </trkpt>
      <trkpt lat="41.645108380" lon="2.589341710">
        <ele>278.60</ele>
        <time>2014-04-06T08:51:26Z</time>
      </trkpt>
      <trkpt lat="41.645130010" lon="2.589353450">
        <ele>278.80</ele>
        <time>2014-04-06T08:51:27Z</time>
      </trkpt>
      <trkpt lat="41.645148450" lon="2.589366690">
        <ele>279.00</ele>
        <time>2014-04-06T08:51:28Z</time>
      </trkpt>
      <trkpt lat="41.645166720" lon="2.589380100">
        <ele>279.10</ele>
        <time>2014-04-06T08:51:29Z</time>
      </trkpt>
      <trkpt lat="41.645183480" lon="2.589393350">
        <ele>279.40</ele>
        <time>2014-04-06T08:51:30Z</time>
      </trkpt>
      <trkpt lat="41.645200080" lon="2.589408430">
        <ele>279.60</ele>
        <time>2014-04-06T08:51:31Z</time>
      </trkpt>
      <trkpt lat="41.645221710" lon="2.589418490">
        <ele>279.70</ele>
        <time>2014-04-06T08:51:32Z</time>
      </trkpt>
      <trkpt lat="41.645241820" lon="2.589431740">
        <ele>279.80</ele>
        <time>2014-04-06T08:51:33Z</time>
      </trkpt>
      <trkpt lat="41.645260090" lon="2.589443470">
        <ele>279.90</ele>
        <time>2014-04-06T08:51:34Z</time>
      </trkpt>
      <trkpt lat="41.645278370" lon="2.589455040">
        <ele>280.10</ele>
        <time>2014-04-06T08:51:35Z</time>
      </trkpt>
      <trkpt lat="41.645296810" lon="2.589466770">
        <ele>280.20</ele>
        <time>2014-04-06T08:51:36Z</time>
      </trkpt>
      <trkpt lat="41.645316760" lon="2.589478340">
        <ele>280.40</ele>
        <time>2014-04-06T08:51:37Z</time>
      </trkpt>
      <trkpt lat="41.645336700" lon="2.589490070">
        <ele>280.50</ele>
        <time>2014-04-06T08:51:38Z</time>
      </trkpt>
      <trkpt lat="41.645356820" lon="2.589503480">
        <ele>280.70</ele>
        <time>2014-04-06T08:51:39Z</time>
      </trkpt>
      <trkpt lat="41.645373420" lon="2.589518400">
        <ele>280.50</ele>
        <time>2014-04-06T08:51:40Z</time>
      </trkpt>
      <trkpt lat="41.645391690" lon="2.589531820">
        <ele>280.30</ele>
        <time>2014-04-06T08:51:41Z</time>
      </trkpt>
      <trkpt lat="41.645411810" lon="2.589546740">
        <ele>280.00</ele>
        <time>2014-04-06T08:51:42Z</time>
      </trkpt>
      <trkpt lat="41.645433430" lon="2.589555120">
        <ele>279.80</ele>
        <time>2014-04-06T08:51:43Z</time>
      </trkpt>
      <trkpt lat="41.645456730" lon="2.589566680">
        <ele>280.10</ele>
        <time>2014-04-06T08:51:44Z</time>
      </trkpt>
      <trkpt lat="41.645481710" lon="2.589591660">
        <ele>280.30</ele>
        <time>2014-04-06T08:51:45Z</time>
      </trkpt>
      <trkpt lat="41.645503340" lon="2.589618480">
        <ele>280.40</ele>
        <time>2014-04-06T08:51:46Z</time>
      </trkpt>
      <trkpt lat="41.645515070" lon="2.589651680">
        <ele>280.30</ele>
        <time>2014-04-06T08:51:47Z</time>
      </trkpt>
      <trkpt lat="41.645511720" lon="2.589680010">
        <ele>280.20</ele>
        <time>2014-04-06T08:51:48Z</time>
      </trkpt>
      <trkpt lat="41.645501830" lon="2.589698450">
        <ele>280.00</ele>
        <time>2014-04-06T08:51:49Z</time>
      </trkpt>
      <trkpt lat="41.645488420" lon="2.589711690">
        <ele>279.90</ele>
        <time>2014-04-06T08:51:50Z</time>
      </trkpt>
      <trkpt lat="41.645470140" lon="2.589721750">
        <ele>280.10</ele>
        <time>2014-04-06T08:51:51Z</time>
      </trkpt>
      <trkpt lat="41.645450030" lon="2.589728450">
        <ele>280.20</ele>
        <time>2014-04-06T08:51:52Z</time>
      </trkpt>
      <trkpt lat="41.645428400" lon="2.589733480">
        <ele>280.40</ele>
        <time>2014-04-06T08:51:53Z</time>
      </trkpt>
      <trkpt lat="41.645410130" lon="2.589731810">
        <ele>280.20</ele>
        <time>2014-04-06T08:51:54Z</time>
      </trkpt>
      <trkpt lat="41.645395040" lon="2.589731810">
        <ele>280.00</ele>
        <time>2014-04-06T08:51:55Z</time>
      </trkpt>
      <trkpt lat="41.645380120" lon="2.589733480">
        <ele>280.10</ele>
        <time>2014-04-06T08:51:56Z</time>
      </trkpt>
      <trkpt lat="41.645363360" lon="2.589730130">
        <ele>280.20</ele>
        <time>2014-04-06T08:51:57Z</time>
      </trkpt>
      <trkpt lat="41.645348440" lon="2.589726780">
        <ele>280.30</ele>
        <time>2014-04-06T08:51:58Z</time>
      </trkpt>
      <trkpt lat="41.645335030" lon="2.589718400">
        <ele>280.50</ele>
        <time>2014-04-06T08:51:59Z</time>
      </trkpt>
      <trkpt lat="41.645321790" lon="2.589713370">
        <ele>280.60</ele>
        <time>2014-04-06T08:52:00Z</time>
      </trkpt>
      <trkpt lat="41.645308370" lon="2.589703480">
        <ele>280.90</ele>
        <time>2014-04-06T08:52:01Z</time>
      </trkpt>
      <trkpt lat="41.645293450" lon="2.589698450">
        <ele>281.00</ele>
        <time>2014-04-06T08:52:02Z</time>
      </trkpt>
      <trkpt lat="41.645278370" lon="2.589695090">
        <ele>281.00</ele>
        <time>2014-04-06T08:52:03Z</time>
      </trkpt>
      <trkpt lat="41.645261770" lon="2.589691740">
        <ele>281.00</ele>
        <time>2014-04-06T08:52:04Z</time>
      </trkpt>
      <trkpt lat="41.645245010" lon="2.589686710">
        <ele>281.00</ele>
        <time>2014-04-06T08:52:05Z</time>
      </trkpt>
      <trkpt lat="41.645226730" lon="2.589683360">
        <ele>281.10</ele>
        <time>2014-04-06T08:52:06Z</time>
      </trkpt>
      <trkpt lat="41.645210140" lon="2.589680010">
        <ele>281.30</ele>
        <time>2014-04-06T08:52:07Z</time>
      </trkpt>
      <trkpt lat="41.645195050" lon="2.589678330">
        <ele>281.70</ele>
        <time>2014-04-06T08:52:08Z</time>
      </trkpt>
      <trkpt lat="41.645178450" lon="2.589675150">
        <ele>282.00</ele>
        <time>2014-04-06T08:52:09Z</time>
      </trkpt>
      <trkpt lat="41.645160010" lon="2.589673470">
        <ele>281.90</ele>
        <time>2014-04-06T08:52:10Z</time>
      </trkpt>
      <trkpt lat="41.645143420" lon="2.589671790">
        <ele>281.80</ele>
        <time>2014-04-06T08:52:11Z</time>
      </trkpt>
      <trkpt lat="41.645125150" lon="2.589670120">
        <ele>281.80</ele>
        <time>2014-04-06T08:52:12Z</time>
      </trkpt>
      <trkpt lat="41.645106710" lon="2.589666760">
        <ele>281.70</ele>
        <time>2014-04-06T08:52:13Z</time>
      </trkpt>
      <trkpt lat="41.645088430" lon="2.589663410">
        <ele>281.60</ele>
        <time>2014-04-06T08:52:14Z</time>
      </trkpt>
      <trkpt lat="41.645070160" lon="2.589663410">
        <ele>281.60</ele>
        <time>2014-04-06T08:52:15Z</time>
      </trkpt>
      <trkpt lat="41.645053400" lon="2.589658380">
        <ele>281.60</ele>
        <time>2014-04-06T08:52:16Z</time>
      </trkpt>
      <trkpt lat="41.645035120" lon="2.589650000">
        <ele>281.70</ele>
        <time>2014-04-06T08:52:17Z</time>
      </trkpt>
      <trkpt lat="41.645016680" lon="2.589645140">
        <ele>281.90</ele>
        <time>2014-04-06T08:52:18Z</time>
      </trkpt>
      <trkpt lat="41.644996730" lon="2.589638430">
        <ele>282.00</ele>
        <time>2014-04-06T08:52:19Z</time>
      </trkpt>
      <trkpt lat="41.644978460" lon="2.589633400">
        <ele>282.20</ele>
        <time>2014-04-06T08:52:20Z</time>
      </trkpt>
      <trkpt lat="41.644960020" lon="2.589631730">
        <ele>282.30</ele>
        <time>2014-04-06T08:52:21Z</time>
      </trkpt>
      <trkpt lat="41.644940070" lon="2.589628370">
        <ele>282.00</ele>
        <time>2014-04-06T08:52:22Z</time>
      </trkpt>
      <trkpt lat="41.644920120" lon="2.589621670">
        <ele>281.80</ele>
        <time>2014-04-06T08:52:23Z</time>
      </trkpt>
      <trkpt lat="41.644896820" lon="2.589615130">
        <ele>281.70</ele>
        <time>2014-04-06T08:52:24Z</time>
      </trkpt>
      <trkpt lat="41.644871680" lon="2.589610100">
        <ele>281.80</ele>
        <time>2014-04-06T08:52:25Z</time>
      </trkpt>
      <trkpt lat="41.644845020" lon="2.589605070">
        <ele>281.90</ele>
        <time>2014-04-06T08:52:26Z</time>
      </trkpt>
      <trkpt lat="41.644818370" lon="2.589596690">
        <ele>282.10</ele>
        <time>2014-04-06T08:52:27Z</time>
      </trkpt>
      <trkpt lat="41.644791710" lon="2.589588480">
        <ele>282.30</ele>
        <time>2014-04-06T08:52:28Z</time>
      </trkpt>
      <trkpt lat="41.644763380" lon="2.589580100">
        <ele>282.40</ele>
        <time>2014-04-06T08:52:29Z</time>
      </trkpt>
      <trkpt lat="41.644731700" lon="2.589571710">
        <ele>282.40</ele>
        <time>2014-04-06T08:52:30Z</time>
      </trkpt>
      <trkpt lat="41.644700020" lon="2.589565010">
        <ele>282.40</ele>
        <time>2014-04-06T08:52:31Z</time>
      </trkpt>
      <trkpt lat="41.644666820" lon="2.589558470">
        <ele>282.10</ele>
        <time>2014-04-06T08:52:32Z</time>
      </trkpt>
      <trkpt lat="41.644631790" lon="2.589553440">
        <ele>282.00</ele>
        <time>2014-04-06T08:52:33Z</time>
      </trkpt>
      <trkpt lat="41.644595070" lon="2.589548410">
        <ele>282.00</ele>
        <time>2014-04-06T08:52:34Z</time>
      </trkpt>
      <trkpt lat="41.644558360" lon="2.589545060">
        <ele>282.10</ele>
        <time>2014-04-06T08:52:35Z</time>
      </trkpt>
      <trkpt lat="41.644518460" lon="2.589541710">
        <ele>282.10</ele>
        <time>2014-04-06T08:52:36Z</time>
      </trkpt>
      <trkpt lat="41.644480070" lon="2.589531820">
        <ele>281.70</ele>
        <time>2014-04-06T08:52:37Z</time>
      </trkpt>
      <trkpt lat="41.644445040" lon="2.589525110">
        <ele>281.40</ele>
        <time>2014-04-06T08:52:38Z</time>
      </trkpt>
      <trkpt lat="41.644410000" lon="2.589523430">
        <ele>281.50</ele>
        <time>2014-04-06T08:52:39Z</time>
      </trkpt>
      <trkpt lat="41.644381670" lon="2.589518400">
        <ele>281.60</ele>
        <time>2014-04-06T08:52:40Z</time>
      </trkpt>
      <trkpt lat="41.644353340" lon="2.589516730">
        <ele>281.50</ele>
        <time>2014-04-06T08:52:41Z</time>
      </trkpt>
      <trkpt lat="41.644323330" lon="2.589513380">
        <ele>281.40</ele>
        <time>2014-04-06T08:52:42Z</time>
      </trkpt>
      <trkpt lat="41.644296680" lon="2.589508350">
        <ele>281.30</ele>
        <time>2014-04-06T08:52:43Z</time>
      </trkpt>
      <trkpt lat="41.644268350" lon="2.589506670">
        <ele>281.40</ele>
        <time>2014-04-06T08:52:44Z</time>
      </trkpt>
      <trkpt lat="41.644240020" lon="2.589501810">
        <ele>281.50</ele>
        <time>2014-04-06T08:52:45Z</time>
      </trkpt>
      <trkpt lat="41.644213360" lon="2.589505160">
        <ele>281.50</ele>
        <time>2014-04-06T08:52:46Z</time>
      </trkpt>
      <trkpt lat="41.644188380" lon="2.589518400">
        <ele>281.50</ele>
        <time>2014-04-06T08:52:47Z</time>
      </trkpt>
      <trkpt lat="41.644168440" lon="2.589535000">
        <ele>281.50</ele>
        <time>2014-04-06T08:52:48Z</time>
      </trkpt>
      <trkpt lat="41.644155020" lon="2.589556790">
        <ele>281.50</ele>
        <time>2014-04-06T08:52:49Z</time>
      </trkpt>
      <trkpt lat="41.644148490" lon="2.589581770">
        <ele>281.50</ele>
        <time>2014-04-06T08:52:50Z</time>
      </trkpt>
      <trkpt lat="41.644143460" lon="2.589606750">
        <ele>281.90</ele>
        <time>2014-04-06T08:52:51Z</time>
      </trkpt>
      <trkpt lat="41.644143460" lon="2.589635080">
        <ele>282.10</ele>
        <time>2014-04-06T08:52:52Z</time>
      </trkpt>
      <trkpt lat="41.644146810" lon="2.589658380">
        <ele>282.50</ele>
        <time>2014-04-06T08:52:53Z</time>
      </trkpt>
      <trkpt lat="41.644153350" lon="2.589681680">
        <ele>282.70</ele>
        <time>2014-04-06T08:52:54Z</time>
      </trkpt>
      <trkpt lat="41.644160050" lon="2.589705150">
        <ele>282.90</ele>
        <time>2014-04-06T08:52:55Z</time>
      </trkpt>
      <trkpt lat="41.644170110" lon="2.589725100">
        <ele>283.30</ele>
        <time>2014-04-06T08:52:56Z</time>
      </trkpt>
      <trkpt lat="41.644181680" lon="2.589741700">
        <ele>283.60</ele>
        <time>2014-04-06T08:52:57Z</time>
      </trkpt>
      <trkpt lat="41.644196770" lon="2.589751760">
        <ele>283.80</ele>
        <time>2014-04-06T08:52:58Z</time>
      </trkpt>
      <trkpt lat="41.644211690" lon="2.589758460">
        <ele>284.00</ele>
        <time>2014-04-06T08:52:59Z</time>
      </trkpt>
      <trkpt lat="41.644226770" lon="2.589763490">
        <ele>283.80</ele>
        <time>2014-04-06T08:53:00Z</time>
      </trkpt>
      <trkpt lat="41.644241690" lon="2.589768350">
        <ele>283.60</ele>
        <time>2014-04-06T08:53:01Z</time>
      </trkpt>
      <trkpt lat="41.644258460" lon="2.589771710">
        <ele>283.40</ele>
        <time>2014-04-06T08:53:02Z</time>
      </trkpt>
      <trkpt lat="41.644275050" lon="2.589776730">
        <ele>283.80</ele>
        <time>2014-04-06T08:53:03Z</time>
      </trkpt>
      <trkpt lat="41.644290140" lon="2.589780090">
        <ele>284.00</ele>
        <time>2014-04-06T08:53:04Z</time>
      </trkpt>
      <trkpt lat="41.644306740" lon="2.589781760">
        <ele>284.70</ele>
        <time>2014-04-06T08:53:05Z</time>
      </trkpt>
      <trkpt lat="41.644323330" lon="2.589785120">
        <ele>285.10</ele>
        <time>2014-04-06T08:53:06Z</time>
      </trkpt>
      <trkpt lat="41.644340100" lon="2.589788470">
        <ele>285.40</ele>
        <time>2014-04-06T08:53:07Z</time>
      </trkpt>
      <trkpt lat="41.644356690" lon="2.589793330">
        <ele>285.50</ele>
        <time>2014-04-06T08:53:08Z</time>
      </trkpt>
      <trkpt lat="41.644373460" lon="2.589798360">
        <ele>285.70</ele>
        <time>2014-04-06T08:53:09Z</time>
      </trkpt>
      <trkpt lat="41.644390050" lon="2.589805070">
        <ele>285.80</ele>
        <time>2014-04-06T08:53:10Z</time>
      </trkpt>
      <trkpt lat="41.644406820" lon="2.589811770">
        <ele>285.80</ele>
        <time>2014-04-06T08:53:11Z</time>
      </trkpt>
      <trkpt lat="41.644423410" lon="2.589816800">
        <ele>286.40</ele>
        <time>2014-04-06T08:53:12Z</time>
      </trkpt>
      <trkpt lat="41.644441690" lon="2.589821830">
        <ele>286.70</ele>
        <time>2014-04-06T08:53:13Z</time>
      </trkpt>
      <trkpt lat="41.644458450" lon="2.589826690">
        <ele>287.00</ele>
        <time>2014-04-06T08:53:14Z</time>
      </trkpt>
      <trkpt lat="41.644473370" lon="2.589831720">
        <ele>287.10</ele>
        <time>2014-04-06T08:53:15Z</time>
      </trkpt>
      <trkpt lat="41.644488460" lon="2.589840100">
        <ele>287.20</ele>
        <time>2014-04-06T08:53:16Z</time>
      </trkpt>
      <trkpt lat="41.644505050" lon="2.589845130">
        <ele>287.70</ele>
        <time>2014-04-06T08:53:17Z</time>
      </trkpt>
      <trkpt lat="41.644520140" lon="2.589850160">
        <ele>288.10</ele>
        <time>2014-04-06T08:53:18Z</time>
      </trkpt>
      <trkpt lat="41.644535060" lon="2.589856700">
        <ele>288.50</ele>
        <time>2014-04-06T08:53:19Z</time>
      </trkpt>
      <trkpt lat="41.644550150" lon="2.589861730">
        <ele>288.70</ele>
        <time>2014-04-06T08:53:20Z</time>
      </trkpt>
      <trkpt lat="41.644565070" lon="2.589866760">
        <ele>288.90</ele>
        <time>2014-04-06T08:53:21Z</time>
      </trkpt>
      <trkpt lat="41.644580150" lon="2.589871790">
        <ele>288.90</ele>
        <time>2014-04-06T08:53:22Z</time>
      </trkpt>
      <trkpt lat="41.644595070" lon="2.589876810">
        <ele>288.90</ele>
        <time>2014-04-06T08:53:23Z</time>
      </trkpt>
      <trkpt lat="41.644611670" lon="2.589880000">
        <ele>289.10</ele>
        <time>2014-04-06T08:53:24Z</time>
      </trkpt>
      <trkpt lat="41.644626760" lon="2.589885030">
        <ele>289.20</ele>
        <time>2014-04-06T08:53:25Z</time>
      </trkpt>
      <trkpt lat="41.644643350" lon="2.589890060">
        <ele>289.10</ele>
        <time>2014-04-06T08:53:26Z</time>
      </trkpt>
      <trkpt lat="41.644658440" lon="2.589896760">
        <ele>289.00</ele>
        <time>2014-04-06T08:53:27Z</time>
      </trkpt>
      <trkpt lat="41.644673360" lon="2.589905150">
        <ele>289.00</ele>
        <time>2014-04-06T08:53:28Z</time>
      </trkpt>
      <trkpt lat="41.644688450" lon="2.589911680">
        <ele>289.50</ele>
        <time>2014-04-06T08:53:29Z</time>
      </trkpt>
      <trkpt lat="41.644703370" lon="2.589918390">
        <ele>289.90</ele>
        <time>2014-04-06T08:53:30Z</time>
      </trkpt>
      <trkpt lat="41.644718460" lon="2.589925090">
        <ele>290.10</ele>
        <time>2014-04-06T08:53:31Z</time>
      </trkpt>
      <trkpt lat="41.644733380" lon="2.589931800">
        <ele>290.30</ele>
        <time>2014-04-06T08:53:32Z</time>
      </trkpt>
      <trkpt lat="41.644750140" lon="2.589938340">
        <ele>290.40</ele>
        <time>2014-04-06T08:53:33Z</time>
      </trkpt>
      <trkpt lat="41.644765060" lon="2.589945040">
        <ele>290.70</ele>
        <time>2014-04-06T08:53:34Z</time>
      </trkpt>
      <trkpt lat="41.644780150" lon="2.589948400">
        <ele>291.00</ele>
        <time>2014-04-06T08:53:35Z</time>
      </trkpt>
      <trkpt lat="41.644795070" lon="2.589955100">
        <ele>291.40</ele>
        <time>2014-04-06T08:53:36Z</time>
      </trkpt>
      <trkpt lat="41.644810150" lon="2.589960130">
        <ele>291.60</ele>
        <time>2014-04-06T08:53:37Z</time>
      </trkpt>
      <trkpt lat="41.644825070" lon="2.589965160">
        <ele>291.70</ele>
        <time>2014-04-06T08:53:38Z</time>
      </trkpt>
      <trkpt lat="41.644841670" lon="2.589970020">
        <ele>291.70</ele>
        <time>2014-04-06T08:53:39Z</time>
      </trkpt>
      <trkpt lat="41.644856760" lon="2.589975050">
        <ele>291.70</ele>
        <time>2014-04-06T08:53:40Z</time>
      </trkpt>
      <trkpt lat="41.644871680" lon="2.589983430">
        <ele>292.20</ele>
        <time>2014-04-06T08:53:41Z</time>
      </trkpt>
      <trkpt lat="41.644885090" lon="2.589988460">
        <ele>292.50</ele>
        <time>2014-04-06T08:53:42Z</time>
      </trkpt>
      <trkpt lat="41.644900010" lon="2.589996680">
        <ele>292.40</ele>
        <time>2014-04-06T08:53:43Z</time>
      </trkpt>
      <trkpt lat="41.644915100" lon="2.590001700">
        <ele>292.40</ele>
        <time>2014-04-06T08:53:44Z</time>
      </trkpt>
      <trkpt lat="41.644930010" lon="2.590006730">
        <ele>292.60</ele>
        <time>2014-04-06T08:53:45Z</time>
      </trkpt>
      <trkpt lat="41.644946780" lon="2.590011760">
        <ele>292.70</ele>
        <time>2014-04-06T08:53:46Z</time>
      </trkpt>
      <trkpt lat="41.644961700" lon="2.590015120">
        <ele>292.80</ele>
        <time>2014-04-06T08:53:47Z</time>
      </trkpt>
      <trkpt lat="41.644976790" lon="2.590020140">
        <ele>293.10</ele>
        <time>2014-04-06T08:53:48Z</time>
      </trkpt>
      <trkpt lat="41.644991710" lon="2.590026680">
        <ele>293.40</ele>
        <time>2014-04-06T08:53:49Z</time>
      </trkpt>
      <trkpt lat="41.645006790" lon="2.590033390">
        <ele>293.80</ele>
        <time>2014-04-06T08:53:50Z</time>
      </trkpt>
      <trkpt lat="41.645020040" lon="2.590041770">
        <ele>294.20</ele>
        <time>2014-04-06T08:53:51Z</time>
      </trkpt>
      <trkpt lat="41.645031770" lon="2.590051830">
        <ele>294.40</ele>
        <time>2014-04-06T08:53:52Z</time>
      </trkpt>
      <trkpt lat="41.645045010" lon="2.590060040">
        <ele>294.40</ele>
        <time>2014-04-06T08:53:53Z</time>
      </trkpt>
      <trkpt lat="41.645060100" lon="2.590066750">
        <ele>294.40</ele>
        <time>2014-04-06T08:53:54Z</time>
      </trkpt>
      <trkpt lat="41.645073350" lon="2.590076810">
        <ele>294.70</ele>
        <time>2014-04-06T08:53:55Z</time>
      </trkpt>
      <trkpt lat="41.645085080" lon="2.590085020">
        <ele>294.90</ele>
        <time>2014-04-06T08:53:56Z</time>
      </trkpt>
      <trkpt lat="41.645096810" lon="2.590095080">
        <ele>294.90</ele>
        <time>2014-04-06T08:53:57Z</time>
      </trkpt>
      <trkpt lat="41.645108380" lon="2.590106810">
        <ele>294.90</ele>
        <time>2014-04-06T08:53:58Z</time>
      </trkpt>
      <trkpt lat="41.645118440" lon="2.590120060">
        <ele>294.90</ele>
        <time>2014-04-06T08:53:59Z</time>
      </trkpt>
      <trkpt lat="41.645128330" lon="2.590131790">
        <ele>295.50</ele>
        <time>2014-04-06T08:54:00Z</time>
      </trkpt>
      <trkpt lat="41.645136710" lon="2.590145040">
        <ele>296.00</ele>
        <time>2014-04-06T08:54:01Z</time>
      </trkpt>
      <trkpt lat="41.645145090" lon="2.590158450">
        <ele>296.40</ele>
        <time>2014-04-06T08:54:02Z</time>
      </trkpt>
      <trkpt lat="41.645151800" lon="2.590173370">
        <ele>296.80</ele>
        <time>2014-04-06T08:54:03Z</time>
      </trkpt>
      <trkpt lat="41.645158340" lon="2.590186780">
        <ele>297.00</ele>
        <time>2014-04-06T08:54:04Z</time>
      </trkpt>
      <trkpt lat="41.645160010" lon="2.590203370">
        <ele>297.20</ele>
        <time>2014-04-06T08:54:05Z</time>
      </trkpt>
      <trkpt lat="41.645158340" lon="2.590216780">
        <ele>297.30</ele>
        <time>2014-04-06T08:54:06Z</time>
      </trkpt>
      <trkpt lat="41.645151800" lon="2.590230030">
        <ele>297.70</ele>
        <time>2014-04-06T08:54:07Z</time>
      </trkpt>
      <trkpt lat="41.645141740" lon="2.590240090">
        <ele>298.00</ele>
        <time>2014-04-06T08:54:08Z</time>
      </trkpt>
      <trkpt lat="41.645131680" lon="2.590248470">
        <ele>298.20</ele>
        <time>2014-04-06T08:54:09Z</time>
      </trkpt>
      <trkpt lat="41.645120120" lon="2.590253330">
        <ele>298.30</ele>
        <time>2014-04-06T08:54:10Z</time>
      </trkpt>
      <trkpt lat="41.645105030" lon="2.590256680">
        <ele>298.50</ele>
        <time>2014-04-06T08:54:11Z</time>
      </trkpt>
      <trkpt lat="41.645091790" lon="2.590258360">
        <ele>298.50</ele>
        <time>2014-04-06T08:54:12Z</time>
      </trkpt>
      <trkpt lat="41.645080050" lon="2.590258360">
        <ele>298.60</ele>
        <time>2014-04-06T08:54:13Z</time>
      </trkpt>
      <trkpt lat="41.645068480" lon="2.590261710">
        <ele>299.10</ele>
        <time>2014-04-06T08:54:14Z</time>
      </trkpt>
      <trkpt lat="41.645053400" lon="2.590260040">
        <ele>299.40</ele>
        <time>2014-04-06T08:54:15Z</time>
      </trkpt>
      <trkpt lat="41.645041660" lon="2.590258360">
        <ele>299.40</ele>
        <time>2014-04-06T08:54:16Z</time>
      </trkpt>
      <trkpt lat="41.645028420" lon="2.590256680">
        <ele>299.30</ele>
        <time>2014-04-06T08:54:17Z</time>
      </trkpt>
      <trkpt lat="41.645015010" lon="2.590256680">
        <ele>299.30</ele>
        <time>2014-04-06T08:54:18Z</time>
      </trkpt>
      <trkpt lat="41.645003440" lon="2.590258360">
        <ele>299.60</ele>
        <time>2014-04-06T08:54:19Z</time>
      </trkpt>
      <trkpt lat="41.644990030" lon="2.590261710">
        <ele>299.90</ele>
        <time>2014-04-06T08:54:20Z</time>
      </trkpt>
      <trkpt lat="41.644976790" lon="2.590263390">
        <ele>300.60</ele>
        <time>2014-04-06T08:54:21Z</time>
      </trkpt>
      <trkpt lat="41.644961700" lon="2.590266740">
        <ele>301.10</ele>
        <time>2014-04-06T08:54:22Z</time>
      </trkpt>
      <trkpt lat="41.644948460" lon="2.590268420">
        <ele>300.90</ele>
        <time>2014-04-06T08:54:23Z</time>
      </trkpt>
      <trkpt lat="41.644935040" lon="2.590270090">
        <ele>300.80</ele>
        <time>2014-04-06T08:54:24Z</time>
      </trkpt>
      <trkpt lat="41.644920120" lon="2.590273450">
        <ele>300.70</ele>
        <time>2014-04-06T08:54:25Z</time>
      </trkpt>
      <trkpt lat="41.644906710" lon="2.590280150">
        <ele>301.20</ele>
        <time>2014-04-06T08:54:26Z</time>
      </trkpt>
      <trkpt lat="41.644891790" lon="2.590286690">
        <ele>301.60</ele>
        <time>2014-04-06T08:54:27Z</time>
      </trkpt>
      <trkpt lat="41.644878380" lon="2.590296750">
        <ele>301.80</ele>
        <time>2014-04-06T08:54:28Z</time>
      </trkpt>
      <trkpt lat="41.644865140" lon="2.590305130">
        <ele>302.00</ele>
        <time>2014-04-06T08:54:29Z</time>
      </trkpt>
      <trkpt lat="41.644851730" lon="2.590313340">
        <ele>302.10</ele>
        <time>2014-04-06T08:54:30Z</time>
      </trkpt>
      <trkpt lat="41.644838480" lon="2.590321730">
        <ele>302.00</ele>
        <time>2014-04-06T08:54:31Z</time>
      </trkpt>
      <trkpt lat="41.644826750" lon="2.590328430">
        <ele>301.90</ele>
        <time>2014-04-06T08:54:32Z</time>
      </trkpt>
      <trkpt lat="41.644813340" lon="2.590335140">
        <ele>302.60</ele>
        <time>2014-04-06T08:54:33Z</time>
      </trkpt>
      <trkpt lat="41.644801770" lon="2.590345030">
        <ele>303.10</ele>
        <time>2014-04-06T08:54:34Z</time>
      </trkpt>
      <trkpt lat="41.644788360" lon="2.590353410">
        <ele>303.10</ele>
        <time>2014-04-06T08:54:35Z</time>
      </trkpt>
      <trkpt lat="41.644776790" lon="2.590363470">
        <ele>303.10</ele>
        <time>2014-04-06T08:54:36Z</time>
      </trkpt>
      <trkpt lat="41.644765060" lon="2.590373360">
        <ele>303.10</ele>
        <time>2014-04-06T08:54:37Z</time>
      </trkpt>
      <trkpt lat="41.644753490" lon="2.590383420">
        <ele>303.30</ele>
        <time>2014-04-06T08:54:38Z</time>
      </trkpt>
      <trkpt lat="41.644741760" lon="2.590395150">
        <ele>303.50</ele>
        <time>2014-04-06T08:54:39Z</time>
      </trkpt>
      <trkpt lat="41.644728350" lon="2.590405040">
        <ele>303.70</ele>
        <time>2014-04-06T08:54:40Z</time>
      </trkpt>
      <trkpt lat="41.644716780" lon="2.590415100">
        <ele>303.80</ele>
        <time>2014-04-06T08:54:41Z</time>
      </trkpt>
      <trkpt lat="41.644703370" lon="2.590425160">
        <ele>304.10</ele>
        <time>2014-04-06T08:54:42Z</time>
      </trkpt>
      <trkpt lat="41.644688450" lon="2.590436730">
        <ele>304.30</ele>
        <time>2014-04-06T08:54:43Z</time>
      </trkpt>
      <trkpt lat="41.644675040" lon="2.590451810">
        <ele>304.40</ele>
        <time>2014-04-06T08:54:44Z</time>
      </trkpt>
      <trkpt lat="41.644661790" lon="2.590468410">
        <ele>304.60</ele>
        <time>2014-04-06T08:54:45Z</time>
      </trkpt>
      <trkpt lat="41.644650060" lon="2.590485010">
        <ele>304.80</ele>
        <time>2014-04-06T08:54:46Z</time>
      </trkpt>
      <trkpt lat="41.644638490" lon="2.590503450">
        <ele>305.20</ele>
        <time>2014-04-06T08:54:47Z</time>
      </trkpt>
      <trkpt lat="41.644625080" lon="2.590518370">
        <ele>305.50</ele>
        <time>2014-04-06T08:54:48Z</time>
      </trkpt>
      <trkpt lat="41.644611670" lon="2.590531780">
        <ele>305.50</ele>
        <time>2014-04-06T08:54:49Z</time>
      </trkpt>
      <trkpt lat="41.644600100" lon="2.590546700">
        <ele>305.60</ele>
        <time>2014-04-06T08:54:50Z</time>
      </trkpt>
      <trkpt lat="41.644588370" lon="2.590563460">
        <ele>305.60</ele>
        <time>2014-04-06T08:54:51Z</time>
      </trkpt>
      <trkpt lat="41.644576800" lon="2.590578380">
        <ele>305.80</ele>
        <time>2014-04-06T08:54:52Z</time>
      </trkpt>
      <trkpt lat="41.644565070" lon="2.590593470">
        <ele>306.00</ele>
        <time>2014-04-06T08:54:53Z</time>
      </trkpt>
      <trkpt lat="41.644555010" lon="2.590608390">
        <ele>306.00</ele>
        <time>2014-04-06T08:54:54Z</time>
      </trkpt>
      <trkpt lat="41.644541770" lon="2.590621800">
        <ele>306.00</ele>
        <time>2014-04-06T08:54:55Z</time>
      </trkpt>
      <trkpt lat="41.644530030" lon="2.590635040">
        <ele>306.00</ele>
        <time>2014-04-06T08:54:56Z</time>
      </trkpt>
      <trkpt lat="41.644518460" lon="2.590650130">
        <ele>306.20</ele>
        <time>2014-04-06T08:54:57Z</time>
      </trkpt>
      <trkpt lat="41.644506730" lon="2.590665050">
        <ele>306.40</ele>
        <time>2014-04-06T08:54:58Z</time>
      </trkpt>
      <trkpt lat="41.644495160" lon="2.590681810">
        <ele>306.70</ele>
        <time>2014-04-06T08:54:59Z</time>
      </trkpt>
      <trkpt lat="41.644483430" lon="2.590698410">
        <ele>306.80</ele>
        <time>2014-04-06T08:55:00Z</time>
      </trkpt>
      <trkpt lat="41.644471690" lon="2.590715000">
        <ele>307.10</ele>
        <time>2014-04-06T08:55:01Z</time>
      </trkpt>
      <trkpt lat="41.644461800" lon="2.590731770">
        <ele>307.30</ele>
        <time>2014-04-06T08:55:02Z</time>
      </trkpt>
      <trkpt lat="41.644450070" lon="2.590748360">
        <ele>307.50</ele>
        <time>2014-04-06T08:55:03Z</time>
      </trkpt>
      <trkpt lat="41.644438330" lon="2.590763450">
        <ele>307.60</ele>
        <time>2014-04-06T08:55:04Z</time>
      </trkpt>
      <trkpt lat="41.644428440" lon="2.590780050">
        <ele>307.60</ele>
        <time>2014-04-06T08:55:05Z</time>
      </trkpt>
      <trkpt lat="41.644418380" lon="2.590795140">
        <ele>307.80</ele>
        <time>2014-04-06T08:55:06Z</time>
      </trkpt>
      <trkpt lat="41.644408490" lon="2.590811730">
        <ele>308.00</ele>
        <time>2014-04-06T08:55:07Z</time>
      </trkpt>
      <trkpt lat="41.644398430" lon="2.590828500">
        <ele>308.10</ele>
        <time>2014-04-06T08:55:08Z</time>
      </trkpt>
      <trkpt lat="41.644388380" lon="2.590845090">
        <ele>308.20</ele>
        <time>2014-04-06T08:55:09Z</time>
      </trkpt>
      <trkpt lat="41.644380160" lon="2.590861690">
        <ele>308.30</ele>
        <time>2014-04-06T08:55:10Z</time>
      </trkpt>
      <trkpt lat="41.644375130" lon="2.590875100">
        <ele>308.40</ele>
        <time>2014-04-06T08:55:11Z</time>
      </trkpt>
      <trkpt lat="41.644366750" lon="2.590890020">
        <ele>308.50</ele>
        <time>2014-04-06T08:55:12Z</time>
      </trkpt>
      <trkpt lat="41.644358370" lon="2.590906780">
        <ele>308.80</ele>
        <time>2014-04-06T08:55:13Z</time>
      </trkpt>
      <trkpt lat="41.644348480" lon="2.590923380">
        <ele>308.90</ele>
        <time>2014-04-06T08:55:14Z</time>
      </trkpt>
      <trkpt lat="41.644336740" lon="2.590936790">
        <ele>309.10</ele>
        <time>2014-04-06T08:55:15Z</time>
      </trkpt>
      <trkpt lat="41.644325010" lon="2.590946680">
        <ele>309.70</ele>
        <time>2014-04-06T08:55:16Z</time>
      </trkpt>
      <trkpt lat="41.644313440" lon="2.590958420">
        <ele>310.20</ele>
        <time>2014-04-06T08:55:17Z</time>
      </trkpt>
      <trkpt lat="41.644305060" lon="2.590970150">
        <ele>310.20</ele>
        <time>2014-04-06T08:55:18Z</time>
      </trkpt>
      <trkpt lat="41.644298350" lon="2.590985070">
        <ele>310.20</ele>
        <time>2014-04-06T08:55:19Z</time>
      </trkpt>
      <trkpt lat="41.644295000" lon="2.591001670">
        <ele>310.50</ele>
        <time>2014-04-06T08:55:20Z</time>
      </trkpt>
      <trkpt lat="41.644290140" lon="2.591020110">
        <ele>310.70</ele>
        <time>2014-04-06T08:55:21Z</time>
      </trkpt>
      <trkpt lat="41.644288460" lon="2.591038380">
        <ele>310.80</ele>
        <time>2014-04-06T08:55:22Z</time>
      </trkpt>
      <trkpt lat="41.644286790" lon="2.591055140">
        <ele>311.20</ele>
        <time>2014-04-06T08:55:23Z</time>
      </trkpt>
      <trkpt lat="41.644283430" lon="2.591073410">
        <ele>311.40</ele>
        <time>2014-04-06T08:55:24Z</time>
      </trkpt>
      <trkpt lat="41.644280080" lon="2.591093360">
        <ele>311.80</ele>
        <time>2014-04-06T08:55:25Z</time>
      </trkpt>
      <trkpt lat="41.644278410" lon="2.591113480">
        <ele>312.00</ele>
        <time>2014-04-06T08:55:26Z</time>
      </trkpt>
      <trkpt lat="41.644273380" lon="2.591133430">
        <ele>312.10</ele>
        <time>2014-04-06T08:55:27Z</time>
      </trkpt>
      <trkpt lat="41.644271700" lon="2.591151700">
        <ele>312.20</ele>
        <time>2014-04-06T08:55:28Z</time>
      </trkpt>
      <trkpt lat="41.644270020" lon="2.591171820">
        <ele>312.30</ele>
        <time>2014-04-06T08:55:29Z</time>
      </trkpt>
      <trkpt lat="41.644268350" lon="2.591190090">
        <ele>312.40</ele>
        <time>2014-04-06T08:55:30Z</time>
      </trkpt>
      <trkpt lat="41.644270020" lon="2.591208360">
        <ele>312.40</ele>
        <time>2014-04-06T08:55:31Z</time>
      </trkpt>
      <trkpt lat="41.644270020" lon="2.591228480">
        <ele>313.00</ele>
        <time>2014-04-06T08:55:32Z</time>
      </trkpt>
      <trkpt lat="41.644271700" lon="2.591246750">
        <ele>313.50</ele>
        <time>2014-04-06T08:55:33Z</time>
      </trkpt>
      <trkpt lat="41.644275050" lon="2.591266700">
        <ele>313.80</ele>
        <time>2014-04-06T08:55:34Z</time>
      </trkpt>
      <trkpt lat="41.644276730" lon="2.591286820">
        <ele>314.00</ele>
        <time>2014-04-06T08:55:35Z</time>
      </trkpt>
      <trkpt lat="41.644278410" lon="2.591308440">
        <ele>314.10</ele>
        <time>2014-04-06T08:55:36Z</time>
      </trkpt>
      <trkpt lat="41.644283430" lon="2.591328390">
        <ele>314.40</ele>
        <time>2014-04-06T08:55:37Z</time>
      </trkpt>
      <trkpt lat="41.644288460" lon="2.591350020">
        <ele>314.60</ele>
        <time>2014-04-06T08:55:38Z</time>
      </trkpt>
      <trkpt lat="41.644293490" lon="2.591368460">
        <ele>315.00</ele>
        <time>2014-04-06T08:55:39Z</time>
      </trkpt>
      <trkpt lat="41.644296680" lon="2.591388410">
        <ele>315.20</ele>
        <time>2014-04-06T08:55:40Z</time>
      </trkpt>
      <trkpt lat="41.644300030" lon="2.591406680">
        <ele>315.40</ele>
        <time>2014-04-06T08:55:41Z</time>
      </trkpt>
      <trkpt lat="41.644305060" lon="2.591425120">
        <ele>315.50</ele>
        <time>2014-04-06T08:55:42Z</time>
      </trkpt>
      <trkpt lat="41.644306740" lon="2.591443390">
        <ele>315.60</ele>
        <time>2014-04-06T08:55:43Z</time>
      </trkpt>
      <trkpt lat="41.644311770" lon="2.591461660">
        <ele>316.00</ele>
        <time>2014-04-06T08:55:44Z</time>
      </trkpt>
      <trkpt lat="41.644316790" lon="2.591481780">
        <ele>316.30</ele>
        <time>2014-04-06T08:55:45Z</time>
      </trkpt>
      <trkpt lat="41.644323330" lon="2.591500050">
        <ele>316.10</ele>
        <time>2014-04-06T08:55:46Z</time>
      </trkpt>
      <trkpt lat="41.644325010" lon="2.591516820">
        <ele>316.00</ele>
        <time>2014-04-06T08:55:47Z</time>
      </trkpt>
      <trkpt lat="41.644328360" lon="2.591535090">
        <ele>316.00</ele>
        <time>2014-04-06T08:55:48Z</time>
      </trkpt>
      <trkpt lat="41.644333390" lon="2.591551690">
        <ele>316.10</ele>
        <time>2014-04-06T08:55:49Z</time>
      </trkpt>
      <trkpt lat="41.644340100" lon="2.591568450">
        <ele>316.10</ele>
        <time>2014-04-06T08:55:50Z</time>
      </trkpt>
      <trkpt lat="41.644346800" lon="2.591586720">
        <ele>316.40</ele>
        <time>2014-04-06T08:55:51Z</time>
      </trkpt>
      <trkpt lat="41.644355020" lon="2.591605000">
        <ele>316.60</ele>
        <time>2014-04-06T08:55:52Z</time>
      </trkpt>
      <trkpt lat="41.644365070" lon="2.591621760">
        <ele>316.80</ele>
        <time>2014-04-06T08:55:53Z</time>
      </trkpt>
      <trkpt lat="41.644373460" lon="2.591640030">
        <ele>317.40</ele>
        <time>2014-04-06T08:55:54Z</time>
      </trkpt>
      <trkpt lat="41.644381670" lon="2.591661820">
        <ele>317.80</ele>
        <time>2014-04-06T08:55:55Z</time>
      </trkpt>
      <trkpt lat="41.644390050" lon="2.591683450">
        <ele>317.80</ele>
        <time>2014-04-06T08:55:56Z</time>
      </trkpt>
      <trkpt lat="41.644398430" lon="2.591701720">
        <ele>317.80</ele>
        <time>2014-04-06T08:55:57Z</time>
      </trkpt>
      <trkpt lat="41.644405140" lon="2.591720160">
        <ele>318.10</ele>
        <time>2014-04-06T08:55:58Z</time>
      </trkpt>
      <trkpt lat="41.644411680" lon="2.591736760">
        <ele>318.30</ele>
        <time>2014-04-06T08:55:59Z</time>
      </trkpt>
      <trkpt lat="41.644420060" lon="2.591753350">
        <ele>318.50</ele>
        <time>2014-04-06T08:56:00Z</time>
      </trkpt>
      <trkpt lat="41.644428440" lon="2.591770120">
        <ele>318.60</ele>
        <time>2014-04-06T08:56:01Z</time>
      </trkpt>
      <trkpt lat="41.644433470" lon="2.591788390">
        <ele>318.70</ele>
        <time>2014-04-06T08:56:02Z</time>
      </trkpt>
      <trkpt lat="41.644438330" lon="2.591805160">
        <ele>318.90</ele>
        <time>2014-04-06T08:56:03Z</time>
      </trkpt>
      <trkpt lat="41.644446710" lon="2.591821750">
        <ele>319.10</ele>
        <time>2014-04-06T08:56:04Z</time>
      </trkpt>
      <trkpt lat="41.644453420" lon="2.591838350">
        <ele>319.50</ele>
        <time>2014-04-06T08:56:05Z</time>
      </trkpt>
      <trkpt lat="41.644461800" lon="2.591855110">
        <ele>319.80</ele>
        <time>2014-04-06T08:56:06Z</time>
      </trkpt>
      <trkpt lat="41.644470020" lon="2.591873380">
        <ele>320.00</ele>
        <time>2014-04-06T08:56:07Z</time>
      </trkpt>
      <trkpt lat="41.644478400" lon="2.591888470">
        <ele>319.90</ele>
        <time>2014-04-06T08:56:08Z</time>
      </trkpt>
      <trkpt lat="41.644488460" lon="2.591901710">
        <ele>319.90</ele>
        <time>2014-04-06T08:56:09Z</time>
      </trkpt>
      <trkpt lat="41.644498350" lon="2.591918480">
        <ele>320.10</ele>
        <time>2014-04-06T08:56:10Z</time>
      </trkpt>
      <trkpt lat="41.644506730" lon="2.591935070">
        <ele>320.20</ele>
        <time>2014-04-06T08:56:11Z</time>
      </trkpt>
      <trkpt lat="41.644516790" lon="2.591948490">
        <ele>320.30</ele>
        <time>2014-04-06T08:56:12Z</time>
      </trkpt>
      <trkpt lat="41.644525000" lon="2.591965080">
        <ele>320.70</ele>
        <time>2014-04-06T08:56:13Z</time>
      </trkpt>
      <trkpt lat="41.644535060" lon="2.591980000">
        <ele>320.90</ele>
        <time>2014-04-06T08:56:14Z</time>
      </trkpt>
      <trkpt lat="41.644543440" lon="2.591996770">
        <ele>321.10</ele>
        <time>2014-04-06T08:56:15Z</time>
      </trkpt>
      <trkpt lat="41.644553330" lon="2.592011690">
        <ele>321.20</ele>
        <time>2014-04-06T08:56:16Z</time>
      </trkpt>
      <trkpt lat="41.644561710" lon="2.592026770">
        <ele>321.20</ele>
        <time>2014-04-06T08:56:17Z</time>
      </trkpt>
      <trkpt lat="41.644570100" lon="2.592041690">
        <ele>321.10</ele>
        <time>2014-04-06T08:56:18Z</time>
      </trkpt>
      <trkpt lat="41.644583340" lon="2.592053430">
        <ele>321.10</ele>
        <time>2014-04-06T08:56:19Z</time>
      </trkpt>
      <trkpt lat="41.644595070" lon="2.592065160">
        <ele>321.30</ele>
        <time>2014-04-06T08:56:20Z</time>
      </trkpt>
      <trkpt lat="41.644606810" lon="2.592076730">
        <ele>321.40</ele>
        <time>2014-04-06T08:56:21Z</time>
      </trkpt>
      <trkpt lat="41.644620050" lon="2.592086790">
        <ele>321.80</ele>
        <time>2014-04-06T08:56:22Z</time>
      </trkpt>
      <trkpt lat="41.644633460" lon="2.592098350">
        <ele>322.10</ele>
        <time>2014-04-06T08:56:23Z</time>
      </trkpt>
      <trkpt lat="41.644646710" lon="2.592108410">
        <ele>322.60</ele>
        <time>2014-04-06T08:56:24Z</time>
      </trkpt>
      <trkpt lat="41.644658440" lon="2.592118470">
        <ele>323.00</ele>
        <time>2014-04-06T08:56:25Z</time>
      </trkpt>
      <trkpt lat="41.644668330" lon="2.592123330">
        <ele>323.30</ele>
        <time>2014-04-06T08:56:26Z</time>
      </trkpt>
      <trkpt lat="41.644681740" lon="2.592131710">
        <ele>324.10</ele>
        <time>2014-04-06T08:56:27Z</time>
      </trkpt>
      <trkpt lat="41.644693480" lon="2.592138420">
        <ele>324.70</ele>
        <time>2014-04-06T08:56:28Z</time>
      </trkpt>
      <trkpt lat="41.644706720" lon="2.592145130">
        <ele>325.00</ele>
        <time>2014-04-06T08:56:29Z</time>
      </trkpt>
      <trkpt lat="41.644718460" lon="2.592155020">
        <ele>325.20</ele>
        <time>2014-04-06T08:56:30Z</time>
      </trkpt>
      <trkpt lat="41.644730020" lon="2.592165070">
        <ele>325.30</ele>
        <time>2014-04-06T08:56:31Z</time>
      </trkpt>
      <trkpt lat="41.644743430" lon="2.592173460">
        <ele>325.40</ele>
        <time>2014-04-06T08:56:32Z</time>
      </trkpt>
      <trkpt lat="41.644755000" lon="2.592183350">
        <ele>325.50</ele>
        <time>2014-04-06T08:56:33Z</time>
      </trkpt>
      <trkpt lat="41.644766740" lon="2.592191730">
        <ele>325.80</ele>
        <time>2014-04-06T08:56:34Z</time>
      </trkpt>
      <trkpt lat="41.644778470" lon="2.592200110">
        <ele>326.00</ele>
        <time>2014-04-06T08:56:35Z</time>
      </trkpt>
      <trkpt lat="41.644790040" lon="2.592206820">
        <ele>325.90</ele>
        <time>2014-04-06T08:56:36Z</time>
      </trkpt>
      <trkpt lat="41.644801770" lon="2.592213350">
        <ele>325.80</ele>
        <time>2014-04-06T08:56:37Z</time>
      </trkpt>
      <trkpt lat="41.644813340" lon="2.592221740">
        <ele>325.80</ele>
        <time>2014-04-06T08:56:38Z</time>
      </trkpt>
      <trkpt lat="41.644825070" lon="2.592228440">
        <ele>326.30</ele>
        <time>2014-04-06T08:56:39Z</time>
      </trkpt>
      <trkpt lat="41.644838480" lon="2.592233470">
        <ele>326.70</ele>
        <time>2014-04-06T08:56:40Z</time>
      </trkpt>
      <trkpt lat="41.644850050" lon="2.592240010">
        <ele>327.20</ele>
        <time>2014-04-06T08:56:41Z</time>
      </trkpt>
      <trkpt lat="41.644861790" lon="2.592248390">
        <ele>327.60</ele>
        <time>2014-04-06T08:56:42Z</time>
      </trkpt>
      <trkpt lat="41.644873350" lon="2.592255100">
        <ele>327.90</ele>
        <time>2014-04-06T08:56:43Z</time>
      </trkpt>
      <trkpt lat="41.644886760" lon="2.592263480">
        <ele>328.10</ele>
        <time>2014-04-06T08:56:44Z</time>
      </trkpt>
      <trkpt lat="41.644896820" lon="2.592273370">
        <ele>328.30</ele>
        <time>2014-04-06T08:56:45Z</time>
      </trkpt>
      <trkpt lat="41.644906710" lon="2.592285100">
        <ele>328.80</ele>
        <time>2014-04-06T08:56:46Z</time>
      </trkpt>
      <trkpt lat="41.644920120" lon="2.592293480">
        <ele>329.30</ele>
        <time>2014-04-06T08:56:47Z</time>
      </trkpt>
      <trkpt lat="41.644930010" lon="2.592300020">
        <ele>329.40</ele>
        <time>2014-04-06T08:56:48Z</time>
      </trkpt>
      <trkpt lat="41.644943430" lon="2.592306730">
        <ele>329.50</ele>
        <time>2014-04-06T08:56:49Z</time>
      </trkpt>
      <trkpt lat="41.644955160" lon="2.592313430">
        <ele>329.60</ele>
        <time>2014-04-06T08:56:50Z</time>
      </trkpt>
      <trkpt lat="41.644968400" lon="2.592318460">
        <ele>329.80</ele>
        <time>2014-04-06T08:56:51Z</time>
      </trkpt>
      <trkpt lat="41.644980140" lon="2.592323490">
        <ele>330.00</ele>
        <time>2014-04-06T08:56:52Z</time>
      </trkpt>
      <trkpt lat="41.644993380" lon="2.592328350">
        <ele>330.40</ele>
        <time>2014-04-06T08:56:53Z</time>
      </trkpt>
      <trkpt lat="41.645005120" lon="2.592333380">
        <ele>330.60</ele>
        <time>2014-04-06T08:56:54Z</time>
      </trkpt>
      <trkpt lat="41.645018360" lon="2.592340090">
        <ele>330.80</ele>
        <time>2014-04-06T08:56:55Z</time>
      </trkpt>
      <trkpt lat="41.645030090" lon="2.592343440">
        <ele>331.00</ele>
        <time>2014-04-06T08:56:56Z</time>
      </trkpt>
      <trkpt lat="41.645041660" lon="2.592348470">
        <ele>331.10</ele>
        <time>2014-04-06T08:56:57Z</time>
      </trkpt>
      <trkpt lat="41.645055070" lon="2.592351820">
        <ele>331.10</ele>
        <time>2014-04-06T08:56:58Z</time>
      </trkpt>
      <trkpt lat="41.645066810" lon="2.592353330">
        <ele>331.20</ele>
        <time>2014-04-06T08:56:59Z</time>
      </trkpt>
      <trkpt lat="41.645078370" lon="2.592356680">
        <ele>331.50</ele>
        <time>2014-04-06T08:57:00Z</time>
      </trkpt>
      <trkpt lat="41.645090110" lon="2.592361710">
        <ele>331.80</ele>
        <time>2014-04-06T08:57:01Z</time>
      </trkpt>
      <trkpt lat="41.645101680" lon="2.592366740">
        <ele>332.20</ele>
        <time>2014-04-06T08:57:02Z</time>
      </trkpt>
      <trkpt lat="41.645115090" lon="2.592371770">
        <ele>332.50</ele>
        <time>2014-04-06T08:57:03Z</time>
      </trkpt>
      <trkpt lat="41.645126820" lon="2.592375120">
        <ele>332.80</ele>
        <time>2014-04-06T08:57:04Z</time>
      </trkpt>
      <trkpt lat="41.645138390" lon="2.592378480">
        <ele>333.10</ele>
        <time>2014-04-06T08:57:05Z</time>
      </trkpt>
      <trkpt lat="41.645150120" lon="2.592381660">
        <ele>333.30</ele>
        <time>2014-04-06T08:57:06Z</time>
      </trkpt>
      <trkpt lat="41.645163370" lon="2.592385020">
        <ele>333.50</ele>
        <time>2014-04-06T08:57:07Z</time>
      </trkpt>
      <trkpt lat="41.645176780" lon="2.592383340">
        <ele>333.70</ele>
        <time>2014-04-06T08:57:08Z</time>
      </trkpt>
      <trkpt lat="41.645190020" lon="2.592386690">
        <ele>333.80</ele>
        <time>2014-04-06T08:57:09Z</time>
      </trkpt>
      <trkpt lat="41.645203430" lon="2.592391720">
        <ele>334.30</ele>
        <time>2014-04-06T08:57:10Z</time>
      </trkpt>
      <trkpt lat="41.645216680" lon="2.592396750">
        <ele>334.70</ele>
        <time>2014-04-06T08:57:11Z</time>
      </trkpt>
      <trkpt lat="41.645228410" lon="2.592403460">
        <ele>334.40</ele>
        <time>2014-04-06T08:57:12Z</time>
      </trkpt>
      <trkpt lat="41.645240150" lon="2.592410160">
        <ele>334.20</ele>
        <time>2014-04-06T08:57:13Z</time>
      </trkpt>
      <trkpt lat="41.645253390" lon="2.592416700">
        <ele>334.40</ele>
        <time>2014-04-06T08:57:14Z</time>
      </trkpt>
      <trkpt lat="41.645265120" lon="2.592421730">
        <ele>334.70</ele>
        <time>2014-04-06T08:57:15Z</time>
      </trkpt>
      <trkpt lat="41.645278370" lon="2.592426760">
        <ele>334.80</ele>
        <time>2014-04-06T08:57:16Z</time>
      </trkpt>
      <trkpt lat="41.645291780" lon="2.592431790">
        <ele>335.10</ele>
        <time>2014-04-06T08:57:17Z</time>
      </trkpt>
      <trkpt lat="41.645303340" lon="2.592436820">
        <ele>335.30</ele>
        <time>2014-04-06T08:57:18Z</time>
      </trkpt>
      <trkpt lat="41.645316760" lon="2.592441680">
        <ele>335.70</ele>
        <time>2014-04-06T08:57:19Z</time>
      </trkpt>
      <trkpt lat="41.645330000" lon="2.592445030">
        <ele>336.00</ele>
        <time>2014-04-06T08:57:20Z</time>
      </trkpt>
      <trkpt lat="41.645343410" lon="2.592448380">
        <ele>336.50</ele>
        <time>2014-04-06T08:57:21Z</time>
      </trkpt>
      <trkpt lat="41.645356820" lon="2.592453410">
        <ele>336.80</ele>
        <time>2014-04-06T08:57:22Z</time>
      </trkpt>
      <trkpt lat="41.645370060" lon="2.592458440">
        <ele>337.10</ele>
        <time>2014-04-06T08:57:23Z</time>
      </trkpt>
      <trkpt lat="41.645383480" lon="2.592461790">
        <ele>337.20</ele>
        <time>2014-04-06T08:57:24Z</time>
      </trkpt>
      <trkpt lat="41.645396720" lon="2.592463470">
        <ele>337.30</ele>
        <time>2014-04-06T08:57:25Z</time>
      </trkpt>
      <trkpt lat="41.645411810" lon="2.592465150">
        <ele>337.20</ele>
        <time>2014-04-06T08:57:26Z</time>
      </trkpt>
      <trkpt lat="41.645425050" lon="2.592470010">
        <ele>337.10</ele>
        <time>2014-04-06T08:57:27Z</time>
      </trkpt>
      <trkpt lat="41.645438460" lon="2.592473360">
        <ele>337.10</ele>
        <time>2014-04-06T08:57:28Z</time>
      </trkpt>
      <trkpt lat="41.645451700" lon="2.592476710">
        <ele>337.20</ele>
        <time>2014-04-06T08:57:29Z</time>
      </trkpt>
      <trkpt lat="41.645465120" lon="2.592480070">
        <ele>337.40</ele>
        <time>2014-04-06T08:57:30Z</time>
      </trkpt>
      <trkpt lat="41.645478360" lon="2.592481740">
        <ele>337.80</ele>
        <time>2014-04-06T08:57:31Z</time>
      </trkpt>
      <trkpt lat="41.645491770" lon="2.592485100">
        <ele>338.10</ele>
        <time>2014-04-06T08:57:32Z</time>
      </trkpt>
      <trkpt lat="41.645505010" lon="2.592486770">
        <ele>338.50</ele>
        <time>2014-04-06T08:57:33Z</time>
      </trkpt>
      <trkpt lat="41.645518420" lon="2.592488450">
        <ele>338.80</ele>
        <time>2014-04-06T08:57:34Z</time>
      </trkpt>
      <trkpt lat="41.645531670" lon="2.592488450">
        <ele>339.00</ele>
        <time>2014-04-06T08:57:35Z</time>
      </trkpt>
      <trkpt lat="41.645545080" lon="2.592490120">
        <ele>339.30</ele>
        <time>2014-04-06T08:57:36Z</time>
      </trkpt>
      <trkpt lat="41.645558490" lon="2.592493480">
        <ele>339.50</ele>
        <time>2014-04-06T08:57:37Z</time>
      </trkpt>
      <trkpt lat="41.645571730" lon="2.592496660">
        <ele>339.90</ele>
        <time>2014-04-06T08:57:38Z</time>
      </trkpt>
      <trkpt lat="41.645586820" lon="2.592500010">
        <ele>340.20</ele>
        <time>2014-04-06T08:57:39Z</time>
      </trkpt>
      <trkpt lat="41.645600060" lon="2.592503370">
        <ele>340.20</ele>
        <time>2014-04-06T08:57:40Z</time>
      </trkpt>
      <trkpt lat="41.645613480" lon="2.592506720">
        <ele>340.20</ele>
        <time>2014-04-06T08:57:41Z</time>
      </trkpt>
      <trkpt lat="41.645628400" lon="2.592508400">
        <ele>340.20</ele>
        <time>2014-04-06T08:57:42Z</time>
      </trkpt>
      <trkpt lat="41.645643480" lon="2.592511750">
        <ele>340.70</ele>
        <time>2014-04-06T08:57:43Z</time>
      </trkpt>
      <trkpt lat="41.645656730" lon="2.592513430">
        <ele>341.10</ele>
        <time>2014-04-06T08:57:44Z</time>
      </trkpt>
      <trkpt lat="41.645670140" lon="2.592515100">
        <ele>341.10</ele>
        <time>2014-04-06T08:57:45Z</time>
      </trkpt>
      <trkpt lat="41.645685060" lon="2.592518460">
        <ele>341.00</ele>
        <time>2014-04-06T08:57:46Z</time>
      </trkpt>
      <trkpt lat="41.645698470" lon="2.592521810">
        <ele>341.10</ele>
        <time>2014-04-06T08:57:47Z</time>
      </trkpt>
      <trkpt lat="41.645711710" lon="2.592525160">
        <ele>341.10</ele>
        <time>2014-04-06T08:57:48Z</time>
      </trkpt>
      <trkpt lat="41.645725120" lon="2.592528350">
        <ele>341.10</ele>
        <time>2014-04-06T08:57:49Z</time>
      </trkpt>
      <trkpt lat="41.645738370" lon="2.592531700">
        <ele>341.20</ele>
        <time>2014-04-06T08:57:50Z</time>
      </trkpt>
      <trkpt lat="41.645751780" lon="2.592533370">
        <ele>341.30</ele>
        <time>2014-04-06T08:57:51Z</time>
      </trkpt>
      <trkpt lat="41.645765020" lon="2.592535050">
        <ele>341.90</ele>
        <time>2014-04-06T08:57:52Z</time>
      </trkpt>
      <trkpt lat="41.645780110" lon="2.592536730">
        <ele>342.30</ele>
        <time>2014-04-06T08:57:53Z</time>
      </trkpt>
      <trkpt lat="41.645795030" lon="2.592540080">
        <ele>342.60</ele>
        <time>2014-04-06T08:57:54Z</time>
      </trkpt>
      <trkpt lat="41.645808440" lon="2.592540080">
        <ele>342.60</ele>
        <time>2014-04-06T08:57:55Z</time>
      </trkpt>
      <trkpt lat="41.645823360" lon="2.592541760">
        <ele>342.70</ele>
        <time>2014-04-06T08:57:56Z</time>
      </trkpt>
      <trkpt lat="41.645838450" lon="2.592545110">
        <ele>342.80</ele>
        <time>2014-04-06T08:57:57Z</time>
      </trkpt>
      <trkpt lat="41.645851690" lon="2.592546790">
        <ele>343.00</ele>
        <time>2014-04-06T08:57:58Z</time>
      </trkpt>
      <trkpt lat="41.645866780" lon="2.592548460">
        <ele>343.50</ele>
        <time>2014-04-06T08:57:59Z</time>
      </trkpt>
      <trkpt lat="41.645881700" lon="2.592553490">
        <ele>343.80</ele>
        <time>2014-04-06T08:58:00Z</time>
      </trkpt>
      <trkpt lat="41.645895110" lon="2.592560030">
        <ele>344.10</ele>
        <time>2014-04-06T08:58:01Z</time>
      </trkpt>
      <trkpt lat="41.645908350" lon="2.592566730">
        <ele>344.20</ele>
        <time>2014-04-06T08:58:02Z</time>
      </trkpt>
      <trkpt lat="41.645921760" lon="2.592576790">
        <ele>344.20</ele>
        <time>2014-04-06T08:58:03Z</time>
      </trkpt>
      <trkpt lat="41.645935010" lon="2.592585010">
        <ele>344.20</ele>
        <time>2014-04-06T08:58:04Z</time>
      </trkpt>
      <trkpt lat="41.645948420" lon="2.592591710">
        <ele>344.20</ele>
        <time>2014-04-06T08:58:05Z</time>
      </trkpt>
      <trkpt lat="41.645963340" lon="2.592598420">
        <ele>344.10</ele>
        <time>2014-04-06T08:58:06Z</time>
      </trkpt>
      <trkpt lat="41.645976750" lon="2.592606800">
        <ele>344.70</ele>
        <time>2014-04-06T08:58:07Z</time>
      </trkpt>
      <trkpt lat="41.645988480" lon="2.592616690">
        <ele>345.10</ele>
        <time>2014-04-06T08:58:08Z</time>
      </trkpt>
      <trkpt lat="41.646001730" lon="2.592625070">
        <ele>345.20</ele>
        <time>2014-04-06T08:58:09Z</time>
      </trkpt>
      <trkpt lat="41.646015140" lon="2.592631780">
        <ele>345.20</ele>
        <time>2014-04-06T08:58:10Z</time>
      </trkpt>
      <trkpt lat="41.646028380" lon="2.592636810">
        <ele>345.50</ele>
        <time>2014-04-06T08:58:11Z</time>
      </trkpt>
      <trkpt lat="41.646041790" lon="2.592643350">
        <ele>345.80</ele>
        <time>2014-04-06T08:58:12Z</time>
      </trkpt>
      <trkpt lat="41.646055030" lon="2.592648370">
        <ele>346.00</ele>
        <time>2014-04-06T08:58:13Z</time>
      </trkpt>
      <trkpt lat="41.646066770" lon="2.592655080">
        <ele>346.30</ele>
        <time>2014-04-06T08:58:14Z</time>
      </trkpt>
      <trkpt lat="41.646080010" lon="2.592663460">
        <ele>346.50</ele>
        <time>2014-04-06T08:58:15Z</time>
      </trkpt>
      <trkpt lat="41.646091750" lon="2.592671680">
        <ele>346.30</ele>
        <time>2014-04-06T08:58:16Z</time>
      </trkpt>
      <trkpt lat="41.646103480" lon="2.592678380">
        <ele>346.20</ele>
        <time>2014-04-06T08:58:17Z</time>
      </trkpt>
      <trkpt lat="41.646116720" lon="2.592686760">
        <ele>346.40</ele>
        <time>2014-04-06T08:58:18Z</time>
      </trkpt>
      <trkpt lat="41.646128460" lon="2.592693470">
        <ele>346.50</ele>
        <time>2014-04-06T08:58:19Z</time>
      </trkpt>
      <trkpt lat="41.646141700" lon="2.592701680">
        <ele>346.70</ele>
        <time>2014-04-06T08:58:20Z</time>
      </trkpt>
      <trkpt lat="41.646153440" lon="2.592711740">
        <ele>347.00</ele>
        <time>2014-04-06T08:58:21Z</time>
      </trkpt>
      <trkpt lat="41.646166680" lon="2.592723480">
        <ele>347.20</ele>
        <time>2014-04-06T08:58:22Z</time>
      </trkpt>
      <trkpt lat="41.646176740" lon="2.592735040">
        <ele>347.10</ele>
        <time>2014-04-06T08:58:23Z</time>
      </trkpt>
      <trkpt lat="41.646188470" lon="2.592746780">
        <ele>347.00</ele>
        <time>2014-04-06T08:58:24Z</time>
      </trkpt>
      <trkpt lat="41.646198360" lon="2.592760020">
        <ele>347.30</ele>
        <time>2014-04-06T08:58:25Z</time>
      </trkpt>
      <trkpt lat="41.646206750" lon="2.592773430">
        <ele>347.50</ele>
        <time>2014-04-06T08:58:26Z</time>
      </trkpt>
      <trkpt lat="41.646215130" lon="2.592786680">
        <ele>347.70</ele>
        <time>2014-04-06T08:58:27Z</time>
      </trkpt>
      <trkpt lat="41.646223340" lon="2.592801760">
        <ele>347.70</ele>
        <time>2014-04-06T08:58:28Z</time>
      </trkpt>
      <trkpt lat="41.646231720" lon="2.592818360">
        <ele>347.80</ele>
        <time>2014-04-06T08:58:29Z</time>
      </trkpt>
      <trkpt lat="41.646238430" lon="2.592835120">
        <ele>348.20</ele>
        <time>2014-04-06T08:58:30Z</time>
      </trkpt>
      <trkpt lat="41.646243460" lon="2.592853400">
        <ele>348.60</ele>
        <time>2014-04-06T08:58:31Z</time>
      </trkpt>
      <trkpt lat="41.646246810" lon="2.592871670">
        <ele>348.80</ele>
        <time>2014-04-06T08:58:32Z</time>
      </trkpt>
      <trkpt lat="41.646250000" lon="2.592890110">
        <ele>349.30</ele>
        <time>2014-04-06T08:58:33Z</time>
      </trkpt>
      <trkpt lat="41.646253350" lon="2.592908380">
        <ele>349.60</ele>
        <time>2014-04-06T08:58:34Z</time>
      </trkpt>
      <trkpt lat="41.646256700" lon="2.592928330">
        <ele>349.60</ele>
        <time>2014-04-06T08:58:35Z</time>
      </trkpt>
      <trkpt lat="41.646258380" lon="2.592950120">
        <ele>349.60</ele>
        <time>2014-04-06T08:58:36Z</time>
      </trkpt>
      <trkpt lat="41.646260060" lon="2.592970070">
        <ele>349.70</ele>
        <time>2014-04-06T08:58:37Z</time>
      </trkpt>
      <trkpt lat="41.646261730" lon="2.592990020">
        <ele>349.80</ele>
        <time>2014-04-06T08:58:38Z</time>
      </trkpt>
      <trkpt lat="41.646263410" lon="2.593006780">
        <ele>349.80</ele>
        <time>2014-04-06T08:58:39Z</time>
      </trkpt>
      <trkpt lat="41.646261730" lon="2.593026730">
        <ele>350.20</ele>
        <time>2014-04-06T08:58:40Z</time>
      </trkpt>
      <trkpt lat="41.646261730" lon="2.593045010">
        <ele>350.40</ele>
        <time>2014-04-06T08:58:41Z</time>
      </trkpt>
      <trkpt lat="41.646261730" lon="2.593063450">
        <ele>350.70</ele>
        <time>2014-04-06T08:58:42Z</time>
      </trkpt>
      <trkpt lat="41.646263410" lon="2.593080040">
        <ele>350.80</ele>
        <time>2014-04-06T08:58:43Z</time>
      </trkpt>
      <trkpt lat="41.646265080" lon="2.593100160">
        <ele>351.10</ele>
        <time>2014-04-06T08:58:44Z</time>
      </trkpt>
      <trkpt lat="41.646266760" lon="2.593116760">
        <ele>351.40</ele>
        <time>2014-04-06T08:58:45Z</time>
      </trkpt>
      <trkpt lat="41.646266760" lon="2.593135030">
        <ele>351.60</ele>
        <time>2014-04-06T08:58:46Z</time>
      </trkpt>
      <trkpt lat="41.646268440" lon="2.593153470">
        <ele>351.50</ele>
        <time>2014-04-06T08:58:47Z</time>
      </trkpt>
      <trkpt lat="41.646268440" lon="2.593171740">
        <ele>351.40</ele>
        <time>2014-04-06T08:58:48Z</time>
      </trkpt>
      <trkpt lat="41.646268440" lon="2.593190010">
        <ele>351.40</ele>
        <time>2014-04-06T08:58:49Z</time>
      </trkpt>
      <trkpt lat="41.646270110" lon="2.593208450">
        <ele>351.50</ele>
        <time>2014-04-06T08:58:50Z</time>
      </trkpt>
      <trkpt lat="41.646271790" lon="2.593226730">
        <ele>351.50</ele>
        <time>2014-04-06T08:58:51Z</time>
      </trkpt>
      <trkpt lat="41.646273470" lon="2.593245000">
        <ele>351.80</ele>
        <time>2014-04-06T08:58:52Z</time>
      </trkpt>
      <trkpt lat="41.646273470" lon="2.593263440">
        <ele>352.00</ele>
        <time>2014-04-06T08:58:53Z</time>
      </trkpt>
      <trkpt lat="41.646271790" lon="2.593280030">
        <ele>352.50</ele>
        <time>2014-04-06T08:58:54Z</time>
      </trkpt>
      <trkpt lat="41.646270110" lon="2.593298470">
        <ele>352.90</ele>
        <time>2014-04-06T08:58:55Z</time>
      </trkpt>
      <trkpt lat="41.646268440" lon="2.593315070">
        <ele>353.20</ele>
        <time>2014-04-06T08:58:56Z</time>
      </trkpt>
      <trkpt lat="41.646266760" lon="2.593333340">
        <ele>353.40</ele>
        <time>2014-04-06T08:58:57Z</time>
      </trkpt>
      <trkpt lat="41.646265080" lon="2.593351780">
        <ele>353.50</ele>
        <time>2014-04-06T08:58:58Z</time>
      </trkpt>
      <trkpt lat="41.646265080" lon="2.593370060">
        <ele>354.40</ele>
        <time>2014-04-06T08:58:59Z</time>
      </trkpt>
      <trkpt lat="41.646261730" lon="2.593390010">
        <ele>355.10</ele>
        <time>2014-04-06T08:59:00Z</time>
      </trkpt>
      <trkpt lat="41.646258380" lon="2.593408450">
        <ele>355.40</ele>
        <time>2014-04-06T08:59:01Z</time>
      </trkpt>
      <trkpt lat="41.646253350" lon="2.593425040">
        <ele>355.70</ele>
        <time>2014-04-06T08:59:02Z</time>
      </trkpt>
      <trkpt lat="41.646248490" lon="2.593440130">
        <ele>355.70</ele>
        <time>2014-04-06T08:59:03Z</time>
      </trkpt>
      <trkpt lat="41.646241780" lon="2.593456730">
        <ele>355.70</ele>
        <time>2014-04-06T08:59:04Z</time>
      </trkpt>
      <trkpt lat="41.646233400" lon="2.593473490">
        <ele>355.80</ele>
        <time>2014-04-06T08:59:05Z</time>
      </trkpt>
      <trkpt lat="41.646225020" lon="2.593488410">
        <ele>356.00</ele>
        <time>2014-04-06T08:59:06Z</time>
      </trkpt>
      <trkpt lat="41.646216800" lon="2.593505010">
        <ele>356.10</ele>
        <time>2014-04-06T08:59:07Z</time>
      </trkpt>
      <trkpt lat="41.646208420" lon="2.593523450">
        <ele>356.20</ele>
        <time>2014-04-06T08:59:08Z</time>
      </trkpt>
      <trkpt lat="41.646198360" lon="2.593540040">
        <ele>356.20</ele>
        <time>2014-04-06T08:59:09Z</time>
      </trkpt>
      <trkpt lat="41.646186800" lon="2.593556810">
        <ele>356.30</ele>
        <time>2014-04-06T08:59:10Z</time>
      </trkpt>
      <trkpt lat="41.646175060" lon="2.593575080">
        <ele>356.30</ele>
        <time>2014-04-06T08:59:11Z</time>
      </trkpt>
      <trkpt lat="41.646163500" lon="2.593591670">
        <ele>356.40</ele>
        <time>2014-04-06T08:59:12Z</time>
      </trkpt>
      <trkpt lat="41.646150080" lon="2.593608440">
        <ele>356.60</ele>
        <time>2014-04-06T08:59:13Z</time>
      </trkpt>
      <trkpt lat="41.646138350" lon="2.593626710">
        <ele>356.70</ele>
        <time>2014-04-06T08:59:14Z</time>
      </trkpt>
      <trkpt lat="41.646125110" lon="2.593645150">
        <ele>356.80</ele>
        <time>2014-04-06T08:59:15Z</time>
      </trkpt>
      <trkpt lat="41.646113370" lon="2.593661750">
        <ele>356.90</ele>
        <time>2014-04-06T08:59:16Z</time>
      </trkpt>
      <trkpt lat="41.646100130" lon="2.593680020">
        <ele>356.90</ele>
        <time>2014-04-06T08:59:17Z</time>
      </trkpt>
      <trkpt lat="41.646088390" lon="2.593698460">
        <ele>357.40</ele>
        <time>2014-04-06T08:59:18Z</time>
      </trkpt>
      <trkpt lat="41.646076830" lon="2.593718410">
        <ele>357.80</ele>
        <time>2014-04-06T08:59:19Z</time>
      </trkpt>
      <trkpt lat="41.646061740" lon="2.593736680">
        <ele>358.00</ele>
        <time>2014-04-06T08:59:20Z</time>
      </trkpt>
      <trkpt lat="41.646046820" lon="2.593755120">
        <ele>358.20</ele>
        <time>2014-04-06T08:59:21Z</time>
      </trkpt>
      <trkpt lat="41.646033410" lon="2.593773390">
        <ele>358.20</ele>
        <time>2014-04-06T08:59:22Z</time>
      </trkpt>
      <trkpt lat="41.646016810" lon="2.593791670">
        <ele>358.20</ele>
        <time>2014-04-06T08:59:23Z</time>
      </trkpt>
      <trkpt lat="41.646000050" lon="2.593810110">
        <ele>358.20</ele>
        <time>2014-04-06T08:59:24Z</time>
      </trkpt>
      <trkpt lat="41.645986810" lon="2.593831730">
        <ele>358.20</ele>
        <time>2014-04-06T08:59:25Z</time>
      </trkpt>
      <trkpt lat="41.645973390" lon="2.593856710">
        <ele>358.30</ele>
        <time>2014-04-06T08:59:26Z</time>
      </trkpt>
      <trkpt lat="41.645960150" lon="2.593880010">
        <ele>358.60</ele>
        <time>2014-04-06T08:59:27Z</time>
      </trkpt>
      <trkpt lat="41.645943390" lon="2.593901800">
        <ele>358.80</ele>
        <time>2014-04-06T08:59:28Z</time>
      </trkpt>
      <trkpt lat="41.645928470" lon="2.593920080">
        <ele>359.00</ele>
        <time>2014-04-06T08:59:29Z</time>
      </trkpt>
      <trkpt lat="41.645913380" lon="2.593940030">
        <ele>358.80</ele>
        <time>2014-04-06T08:59:30Z</time>
      </trkpt>
      <trkpt lat="41.645896780" lon="2.593961820">
        <ele>358.70</ele>
        <time>2014-04-06T08:59:31Z</time>
      </trkpt>
      <trkpt lat="41.645878340" lon="2.593983440">
        <ele>359.10</ele>
        <time>2014-04-06T08:59:32Z</time>
      </trkpt>
      <trkpt lat="41.645860070" lon="2.594003390">
        <ele>359.40</ele>
        <time>2014-04-06T08:59:33Z</time>
      </trkpt>
      <trkpt lat="41.645843470" lon="2.594025020">
        <ele>359.40</ele>
        <time>2014-04-06T08:59:34Z</time>
      </trkpt>
      <trkpt lat="41.645826710" lon="2.594045130">
        <ele>359.40</ele>
        <time>2014-04-06T08:59:35Z</time>
      </trkpt>
      <trkpt lat="41.645810110" lon="2.594068440">
        <ele>359.40</ele>
        <time>2014-04-06T08:59:36Z</time>
      </trkpt>
      <trkpt lat="41.645795030" lon="2.594088390">
        <ele>359.50</ele>
        <time>2014-04-06T08:59:37Z</time>
      </trkpt>
      <trkpt lat="41.645780110" lon="2.594106830">
        <ele>359.60</ele>
        <time>2014-04-06T08:59:38Z</time>
      </trkpt>
      <trkpt lat="41.645765020" lon="2.594125100">
        <ele>359.40</ele>
        <time>2014-04-06T08:59:39Z</time>
      </trkpt>
      <trkpt lat="41.645748420" lon="2.594143370">
        <ele>359.30</ele>
        <time>2014-04-06T08:59:40Z</time>
      </trkpt>
      <trkpt lat="41.645733340" lon="2.594161810">
        <ele>359.60</ele>
        <time>2014-04-06T08:59:41Z</time>
      </trkpt>
      <trkpt lat="41.645718420" lon="2.594180080">
        <ele>359.90</ele>
        <time>2014-04-06T08:59:42Z</time>
      </trkpt>
      <trkpt lat="41.645703330" lon="2.594198360">
        <ele>360.10</ele>
        <time>2014-04-06T08:59:43Z</time>
      </trkpt>
      <trkpt lat="41.645688410" lon="2.594216800">
        <ele>360.30</ele>
        <time>2014-04-06T08:59:44Z</time>
      </trkpt>
      <trkpt lat="41.645675000" lon="2.594235070">
        <ele>360.40</ele>
        <time>2014-04-06T08:59:45Z</time>
      </trkpt>
      <trkpt lat="41.645661760" lon="2.594253340">
        <ele>360.30</ele>
        <time>2014-04-06T08:59:46Z</time>
      </trkpt>
      <trkpt lat="41.645650020" lon="2.594270110">
        <ele>360.20</ele>
        <time>2014-04-06T08:59:47Z</time>
      </trkpt>
      <trkpt lat="41.645638450" lon="2.594290050">
        <ele>360.20</ele>
        <time>2014-04-06T08:59:48Z</time>
      </trkpt>
      <trkpt lat="41.645628400" lon="2.594310000">
        <ele>360.40</ele>
        <time>2014-04-06T08:59:49Z</time>
      </trkpt>
      <trkpt lat="41.645621690" lon="2.594333470">
        <ele>360.50</ele>
        <time>2014-04-06T08:59:50Z</time>
      </trkpt>
      <trkpt lat="41.645618340" lon="2.594356770">
        <ele>360.60</ele>
        <time>2014-04-06T08:59:51Z</time>
      </trkpt>
      <trkpt lat="41.645618340" lon="2.594380080">
        <ele>360.60</ele>
        <time>2014-04-06T08:59:52Z</time>
      </trkpt>
      <trkpt lat="41.645618340" lon="2.594403380">
        <ele>360.10</ele>
        <time>2014-04-06T08:59:53Z</time>
      </trkpt>
      <trkpt lat="41.645618340" lon="2.594426680">
        <ele>359.80</ele>
        <time>2014-04-06T08:59:54Z</time>
      </trkpt>
      <trkpt lat="41.645623370" lon="2.594446800">
        <ele>359.60</ele>
        <time>2014-04-06T08:59:55Z</time>
      </trkpt>
      <trkpt lat="41.645631750" lon="2.594463390">
        <ele>359.80</ele>
        <time>2014-04-06T08:59:56Z</time>
      </trkpt>
      <trkpt lat="41.645641810" lon="2.594480160">
        <ele>360.00</ele>
        <time>2014-04-06T08:59:57Z</time>
      </trkpt>
      <trkpt lat="41.645655050" lon="2.594490050">
        <ele>360.60</ele>
        <time>2014-04-06T08:59:58Z</time>
      </trkpt>
      <trkpt lat="41.645670140" lon="2.594500100">
        <ele>361.00</ele>
        <time>2014-04-06T08:59:59Z</time>
      </trkpt>
      <trkpt lat="41.645686730" lon="2.594510000">
        <ele>361.20</ele>
        <time>2014-04-06T09:00:00Z</time>
      </trkpt>
      <trkpt lat="41.645703330" lon="2.594518380">
        <ele>361.30</ele>
        <time>2014-04-06T09:00:01Z</time>
      </trkpt>
      <trkpt lat="41.645720090" lon="2.594521730">
        <ele>361.40</ele>
        <time>2014-04-06T09:00:02Z</time>
      </trkpt>
      <trkpt lat="41.645736690" lon="2.594525080">
        <ele>361.40</ele>
        <time>2014-04-06T09:00:03Z</time>
      </trkpt>
      <trkpt lat="41.645753450" lon="2.594525080">
        <ele>361.40</ele>
        <time>2014-04-06T09:00:04Z</time>
      </trkpt>
      <trkpt lat="41.645770050" lon="2.594525080">
        <ele>361.30</ele>
        <time>2014-04-06T09:00:05Z</time>
      </trkpt>
      <trkpt lat="41.645785140" lon="2.594525080">
        <ele>361.30</ele>
        <time>2014-04-06T09:00:06Z</time>
      </trkpt>
      <trkpt lat="41.645800060" lon="2.594525080">
        <ele>361.30</ele>
        <time>2014-04-06T09:00:07Z</time>
      </trkpt>
      <trkpt lat="41.645816820" lon="2.594526760">
        <ele>361.20</ele>
        <time>2014-04-06T09:00:08Z</time>
      </trkpt>
      <trkpt lat="41.645835090" lon="2.594528440">
        <ele>361.20</ele>
        <time>2014-04-06T09:00:09Z</time>
      </trkpt>
      <trkpt lat="41.645851690" lon="2.594531790">
        <ele>361.60</ele>
        <time>2014-04-06T09:00:10Z</time>
      </trkpt>
      <trkpt lat="41.645868450" lon="2.594538490">
        <ele>362.00</ele>
        <time>2014-04-06T09:00:11Z</time>
      </trkpt>
      <trkpt lat="41.645883370" lon="2.594546710">
        <ele>362.00</ele>
        <time>2014-04-06T09:00:12Z</time>
      </trkpt>
      <trkpt lat="41.645901810" lon="2.594551740">
        <ele>361.90</ele>
        <time>2014-04-06T09:00:13Z</time>
      </trkpt>
      <trkpt lat="41.645918410" lon="2.594550060">
        <ele>361.90</ele>
        <time>2014-04-06T09:00:14Z</time>
      </trkpt>
      <trkpt lat="41.645935010" lon="2.594546710">
        <ele>361.90</ele>
        <time>2014-04-06T09:00:15Z</time>
      </trkpt>
      <trkpt lat="41.645953450" lon="2.594543360">
        <ele>361.90</ele>
        <time>2014-04-06T09:00:16Z</time>
      </trkpt>
      <trkpt lat="41.645970040" lon="2.594540000">
        <ele>362.50</ele>
        <time>2014-04-06T09:00:17Z</time>
      </trkpt>
      <trkpt lat="41.645986810" lon="2.594535140">
        <ele>362.80</ele>
        <time>2014-04-06T09:00:18Z</time>
      </trkpt>
      <trkpt lat="41.646003400" lon="2.594526760">
        <ele>363.20</ele>
        <time>2014-04-06T09:00:19Z</time>
      </trkpt>
      <trkpt lat="41.646020000" lon="2.594518380">
        <ele>363.50</ele>
        <time>2014-04-06T09:00:20Z</time>
      </trkpt>
      <trkpt lat="41.646035090" lon="2.594506810">
        <ele>363.70</ele>
        <time>2014-04-06T09:00:21Z</time>
      </trkpt>
      <trkpt lat="41.646050000" lon="2.594493400">
        <ele>363.60</ele>
        <time>2014-04-06T09:00:22Z</time>
      </trkpt>
      <trkpt lat="41.646063420" lon="2.594478480">
        <ele>363.60</ele>
        <time>2014-04-06T09:00:23Z</time>
      </trkpt>
      <trkpt lat="41.646076830" lon="2.594465070">
        <ele>364.00</ele>
        <time>2014-04-06T09:00:24Z</time>
      </trkpt>
      <trkpt lat="41.646091750" lon="2.594453330">
        <ele>364.30</ele>
        <time>2014-04-06T09:00:25Z</time>
      </trkpt>
      <trkpt lat="41.646105160" lon="2.594443440">
        <ele>364.50</ele>
        <time>2014-04-06T09:00:26Z</time>
      </trkpt>
      <trkpt lat="41.646121750" lon="2.594435060">
        <ele>364.60</ele>
        <time>2014-04-06T09:00:27Z</time>
      </trkpt>
      <trkpt lat="41.646136670" lon="2.594428360">
        <ele>364.70</ele>
        <time>2014-04-06T09:00:28Z</time>
      </trkpt>
      <trkpt lat="41.646155110" lon="2.594425000">
        <ele>364.80</ele>
        <time>2014-04-06T09:00:29Z</time>
      </trkpt>
      <trkpt lat="41.646173390" lon="2.594423490">
        <ele>364.90</ele>
        <time>2014-04-06T09:00:30Z</time>
      </trkpt>
      <trkpt lat="41.646190150" lon="2.594421820">
        <ele>364.90</ele>
        <time>2014-04-06T09:00:31Z</time>
      </trkpt>
      <trkpt lat="41.646208420" lon="2.594421820">
        <ele>364.80</ele>
        <time>2014-04-06T09:00:32Z</time>
      </trkpt>
      <trkpt lat="41.646226700" lon="2.594421820">
        <ele>364.80</ele>
        <time>2014-04-06T09:00:33Z</time>
      </trkpt>
      <trkpt lat="41.646245140" lon="2.594421820">
        <ele>364.90</ele>
        <time>2014-04-06T09:00:34Z</time>
      </trkpt>
      <trkpt lat="41.646261730" lon="2.594421820">
        <ele>364.90</ele>
        <time>2014-04-06T09:00:35Z</time>
      </trkpt>
      <trkpt lat="41.646280000" lon="2.594421820">
        <ele>365.30</ele>
        <time>2014-04-06T09:00:36Z</time>
      </trkpt>
      <trkpt lat="41.646296770" lon="2.594421820">
        <ele>365.50</ele>
        <time>2014-04-06T09:00:37Z</time>
      </trkpt>
      <trkpt lat="41.646315040" lon="2.594423490">
        <ele>365.60</ele>
        <time>2014-04-06T09:00:38Z</time>
      </trkpt>
      <trkpt lat="41.646331800" lon="2.594426680">
        <ele>365.70</ele>
        <time>2014-04-06T09:00:39Z</time>
      </trkpt>
      <trkpt lat="41.646348400" lon="2.594431710">
        <ele>365.70</ele>
        <time>2014-04-06T09:00:40Z</time>
      </trkpt>
      <trkpt lat="41.646361810" lon="2.594435060">
        <ele>366.40</ele>
        <time>2014-04-06T09:00:41Z</time>
      </trkpt>
      <trkpt lat="41.646376730" lon="2.594438410">
        <ele>366.90</ele>
        <time>2014-04-06T09:00:42Z</time>
      </trkpt>
      <trkpt lat="41.646393500" lon="2.594438410">
        <ele>367.10</ele>
        <time>2014-04-06T09:00:43Z</time>
      </trkpt>
      <trkpt lat="41.646406740" lon="2.594438410">
        <ele>367.30</ele>
        <time>2014-04-06T09:00:44Z</time>
      </trkpt>
      <trkpt lat="41.646423330" lon="2.594438410">
        <ele>367.10</ele>
        <time>2014-04-06T09:00:45Z</time>
      </trkpt>
      <trkpt lat="41.646438420" lon="2.594438410">
        <ele>366.90</ele>
        <time>2014-04-06T09:00:46Z</time>
      </trkpt>
      <trkpt lat="41.646451670" lon="2.594438410">
        <ele>366.80</ele>
        <time>2014-04-06T09:00:47Z</time>
      </trkpt>
      <trkpt lat="41.646466750" lon="2.594438410">
        <ele>367.00</ele>
        <time>2014-04-06T09:00:48Z</time>
      </trkpt>
      <trkpt lat="41.646480000" lon="2.594440090">
        <ele>367.10</ele>
        <time>2014-04-06T09:00:49Z</time>
      </trkpt>
      <trkpt lat="41.646495080" lon="2.594441770">
        <ele>367.30</ele>
        <time>2014-04-06T09:00:50Z</time>
      </trkpt>
      <trkpt lat="41.646508490" lon="2.594443440">
        <ele>367.40</ele>
        <time>2014-04-06T09:00:51Z</time>
      </trkpt>
      <trkpt lat="41.646521740" lon="2.594443440">
        <ele>367.50</ele>
        <time>2014-04-06T09:00:52Z</time>
      </trkpt>
      <trkpt lat="41.646535150" lon="2.594445120">
        <ele>368.10</ele>
        <time>2014-04-06T09:00:53Z</time>
      </trkpt>
      <trkpt lat="41.646548390" lon="2.594443440">
        <ele>368.60</ele>
        <time>2014-04-06T09:00:54Z</time>
      </trkpt>
      <trkpt lat="41.646563480" lon="2.594441770">
        <ele>368.80</ele>
        <time>2014-04-06T09:00:55Z</time>
      </trkpt>
      <trkpt lat="41.646576720" lon="2.594441770">
        <ele>369.00</ele>
        <time>2014-04-06T09:00:56Z</time>
      </trkpt>
      <trkpt lat="41.646590130" lon="2.594441770">
        <ele>369.40</ele>
        <time>2014-04-06T09:00:57Z</time>
      </trkpt>
      <trkpt lat="41.646603380" lon="2.594440090">
        <ele>369.70</ele>
        <time>2014-04-06T09:00:58Z</time>
      </trkpt>
      <trkpt lat="41.646616790" lon="2.594435060">
        <ele>370.00</ele>
        <time>2014-04-06T09:00:59Z</time>
      </trkpt>
      <trkpt lat="41.646630030" lon="2.594430030">
        <ele>369.80</ele>
        <time>2014-04-06T09:01:00Z</time>
      </trkpt>
      <trkpt lat="41.646645120" lon="2.594423490">
        <ele>369.70</ele>
        <time>2014-04-06T09:01:01Z</time>
      </trkpt>
      <trkpt lat="41.646660040" lon="2.594418460">
        <ele>369.90</ele>
        <time>2014-04-06T09:01:02Z</time>
      </trkpt>
      <trkpt lat="41.646675130" lon="2.594413440">
        <ele>370.00</ele>
        <time>2014-04-06T09:01:03Z</time>
      </trkpt>
      <trkpt lat="41.646690050" lon="2.594408410">
        <ele>370.20</ele>
        <time>2014-04-06T09:01:04Z</time>
      </trkpt>
      <trkpt lat="41.646703460" lon="2.594405050">
        <ele>370.30</ele>
        <time>2014-04-06T09:01:05Z</time>
      </trkpt>
      <trkpt lat="41.646718380" lon="2.594400020">
        <ele>370.40</ele>
        <time>2014-04-06T09:01:06Z</time>
      </trkpt>
      <trkpt lat="41.646731790" lon="2.594393490">
        <ele>370.50</ele>
        <time>2014-04-06T09:01:07Z</time>
      </trkpt>
      <trkpt lat="41.646745030" lon="2.594388460">
        <ele>370.70</ele>
        <time>2014-04-06T09:01:08Z</time>
      </trkpt>
      <trkpt lat="41.646758440" lon="2.594385100">
        <ele>370.80</ele>
        <time>2014-04-06T09:01:09Z</time>
      </trkpt>
      <trkpt lat="41.646771690" lon="2.594381750">
        <ele>370.90</ele>
        <time>2014-04-06T09:01:10Z</time>
      </trkpt>
      <trkpt lat="41.646783420" lon="2.594376720">
        <ele>371.00</ele>
        <time>2014-04-06T09:01:11Z</time>
      </trkpt>
      <trkpt lat="41.646796660" lon="2.594366660">
        <ele>371.30</ele>
        <time>2014-04-06T09:01:12Z</time>
      </trkpt>
      <trkpt lat="41.646808400" lon="2.594356770">
        <ele>371.60</ele>
        <time>2014-04-06T09:01:13Z</time>
      </trkpt>
      <trkpt lat="41.646823490" lon="2.594350070">
        <ele>371.70</ele>
        <time>2014-04-06T09:01:14Z</time>
      </trkpt>
      <trkpt lat="41.646838410" lon="2.594343360">
        <ele>371.70</ele>
        <time>2014-04-06T09:01:15Z</time>
      </trkpt>
      <trkpt lat="41.646851820" lon="2.594335150">
        <ele>371.80</ele>
        <time>2014-04-06T09:01:16Z</time>
      </trkpt>
      <trkpt lat="41.646865060" lon="2.594326770">
        <ele>371.90</ele>
        <time>2014-04-06T09:01:17Z</time>
      </trkpt>
      <trkpt lat="41.646881820" lon="2.594318380">
        <ele>371.90</ele>
        <time>2014-04-06T09:01:18Z</time>
      </trkpt>
      <trkpt lat="41.646900100" lon="2.594310000">
        <ele>372.30</ele>
        <time>2014-04-06T09:01:19Z</time>
      </trkpt>
      <trkpt lat="41.646918370" lon="2.594301790">
        <ele>372.50</ele>
        <time>2014-04-06T09:01:20Z</time>
      </trkpt>
      <trkpt lat="41.646936810" lon="2.594295080">
        <ele>372.90</ele>
        <time>2014-04-06T09:01:21Z</time>
      </trkpt>
      <trkpt lat="41.646955080" lon="2.594290050">
        <ele>373.20</ele>
        <time>2014-04-06T09:01:22Z</time>
      </trkpt>
      <trkpt lat="41.646975030" lon="2.594285020">
        <ele>373.50</ele>
        <time>2014-04-06T09:01:23Z</time>
      </trkpt>
      <trkpt lat="41.646993470" lon="2.594278490">
        <ele>373.60</ele>
        <time>2014-04-06T09:01:24Z</time>
      </trkpt>
      <trkpt lat="41.647011740" lon="2.594273460">
        <ele>373.70</ele>
        <time>2014-04-06T09:01:25Z</time>
      </trkpt>
      <trkpt lat="41.647028340" lon="2.594268430">
        <ele>373.90</ele>
        <time>2014-04-06T09:01:26Z</time>
      </trkpt>
      <trkpt lat="41.647043430" lon="2.594263400">
        <ele>374.10</ele>
        <time>2014-04-06T09:01:27Z</time>
      </trkpt>
      <trkpt lat="41.647060020" lon="2.594258370">
        <ele>374.20</ele>
        <time>2014-04-06T09:01:28Z</time>
      </trkpt>
      <trkpt lat="41.647078460" lon="2.594253340">
        <ele>374.20</ele>
        <time>2014-04-06T09:01:29Z</time>
      </trkpt>
      <trkpt lat="41.647095060" lon="2.594250160">
        <ele>374.30</ele>
        <time>2014-04-06T09:01:30Z</time>
      </trkpt>
      <trkpt lat="41.647113330" lon="2.594245130">
        <ele>375.00</ele>
        <time>2014-04-06T09:01:31Z</time>
      </trkpt>
      <trkpt lat="41.647130100" lon="2.594240100">
        <ele>375.50</ele>
        <time>2014-04-06T09:01:32Z</time>
      </trkpt>
      <trkpt lat="41.647146690" lon="2.594235070">
        <ele>375.50</ele>
        <time>2014-04-06T09:01:33Z</time>
      </trkpt>
      <trkpt lat="41.647161780" lon="2.594231720">
        <ele>375.50</ele>
        <time>2014-04-06T09:01:34Z</time>
      </trkpt>
      <trkpt lat="41.647176700" lon="2.594228360">
        <ele>375.50</ele>
        <time>2014-04-06T09:01:35Z</time>
      </trkpt>
      <trkpt lat="41.647190110" lon="2.594225010">
        <ele>375.40</ele>
        <time>2014-04-06T09:01:36Z</time>
      </trkpt>
      <trkpt lat="41.647205030" lon="2.594221830">
        <ele>375.40</ele>
        <time>2014-04-06T09:01:37Z</time>
      </trkpt>
      <trkpt lat="41.647220120" lon="2.594218470">
        <ele>375.60</ele>
        <time>2014-04-06T09:01:38Z</time>
      </trkpt>
      <trkpt lat="41.647235040" lon="2.594218470">
        <ele>375.80</ele>
        <time>2014-04-06T09:01:39Z</time>
      </trkpt>
      <trkpt lat="41.647251800" lon="2.594218470">
        <ele>375.90</ele>
        <time>2014-04-06T09:01:40Z</time>
      </trkpt>
      <trkpt lat="41.647270070" lon="2.594216800">
        <ele>375.90</ele>
        <time>2014-04-06T09:01:41Z</time>
      </trkpt>
      <trkpt lat="41.647290020" lon="2.594216800">
        <ele>376.10</ele>
        <time>2014-04-06T09:01:42Z</time>
      </trkpt>
      <trkpt lat="41.647308460" lon="2.594218470">
        <ele>376.30</ele>
        <time>2014-04-06T09:01:43Z</time>
      </trkpt>
      <trkpt lat="41.647326740" lon="2.594216800">
        <ele>376.40</ele>
        <time>2014-04-06T09:01:44Z</time>
      </trkpt>
      <trkpt lat="41.647345010" lon="2.594216800">
        <ele>376.50</ele>
        <time>2014-04-06T09:01:45Z</time>
      </trkpt>
      <trkpt lat="41.647361770" lon="2.594216800">
        <ele>376.60</ele>
        <time>2014-04-06T09:01:46Z</time>
      </trkpt>
      <trkpt lat="41.647378370" lon="2.594215120">
        <ele>377.00</ele>
        <time>2014-04-06T09:01:47Z</time>
      </trkpt>
      <trkpt lat="41.647395130" lon="2.594213440">
        <ele>377.30</ele>
        <time>2014-04-06T09:01:48Z</time>
      </trkpt>
      <trkpt lat="41.647411730" lon="2.594210090">
        <ele>377.60</ele>
        <time>2014-04-06T09:01:49Z</time>
      </trkpt>
      <trkpt lat="41.647428490" lon="2.594208410">
        <ele>377.70</ele>
        <time>2014-04-06T09:01:50Z</time>
      </trkpt>
      <trkpt lat="41.647443410" lon="2.594208410">
        <ele>377.80</ele>
        <time>2014-04-06T09:01:51Z</time>
      </trkpt>
      <trkpt lat="41.647458330" lon="2.594210090">
        <ele>377.90</ele>
        <time>2014-04-06T09:01:52Z</time>
      </trkpt>
      <trkpt lat="41.647473420" lon="2.594213440">
        <ele>377.90</ele>
        <time>2014-04-06T09:01:53Z</time>
      </trkpt>
      <trkpt lat="41.647486660" lon="2.594218470">
        <ele>378.30</ele>
        <time>2014-04-06T09:01:54Z</time>
      </trkpt>
      <trkpt lat="41.647503430" lon="2.594221830">
        <ele>378.50</ele>
        <time>2014-04-06T09:01:55Z</time>
      </trkpt>
      <trkpt lat="41.647518350" lon="2.594220150">
        <ele>378.70</ele>
        <time>2014-04-06T09:01:56Z</time>
      </trkpt>
      <trkpt lat="41.647535110" lon="2.594223330">
        <ele>379.40</ele>
        <time>2014-04-06T09:01:57Z</time>
      </trkpt>
      <trkpt lat="41.647553380" lon="2.594230040">
        <ele>379.90</ele>
        <time>2014-04-06T09:01:58Z</time>
      </trkpt>
      <trkpt lat="41.647568470" lon="2.594243450">
        <ele>380.10</ele>
        <time>2014-04-06T09:01:59Z</time>
      </trkpt>
      <trkpt lat="41.647580040" lon="2.594258370">
        <ele>380.20</ele>
        <time>2014-04-06T09:02:00Z</time>
      </trkpt>
      <trkpt lat="41.647593450" lon="2.594271780">
        <ele>380.30</ele>
        <time>2014-04-06T09:02:01Z</time>
      </trkpt>
      <trkpt lat="41.647610040" lon="2.594283350">
        <ele>380.60</ele>
        <time>2014-04-06T09:02:02Z</time>
      </trkpt>
      <trkpt lat="41.647623460" lon="2.594296760">
        <ele>380.70</ele>
        <time>2014-04-06T09:02:03Z</time>
      </trkpt>
      <trkpt lat="41.647635020" lon="2.594308490">
        <ele>380.60</ele>
        <time>2014-04-06T09:02:04Z</time>
      </trkpt>
      <trkpt lat="41.647648430" lon="2.594321740">
        <ele>380.40</ele>
        <time>2014-04-06T09:02:05Z</time>
      </trkpt>
      <trkpt lat="41.647656820" lon="2.594336830">
        <ele>380.30</ele>
        <time>2014-04-06T09:02:06Z</time>
      </trkpt>
      <trkpt lat="41.647665030" lon="2.594353420">
        <ele>380.20</ele>
        <time>2014-04-06T09:02:07Z</time>
      </trkpt>
      <trkpt lat="41.647673410" lon="2.594370020">
        <ele>380.10</ele>
        <time>2014-04-06T09:02:08Z</time>
      </trkpt>
      <trkpt lat="41.647685150" lon="2.594381750">
        <ele>380.50</ele>
        <time>2014-04-06T09:02:09Z</time>
      </trkpt>
      <trkpt lat="41.647696710" lon="2.594393490">
        <ele>380.80</ele>
        <time>2014-04-06T09:02:10Z</time>
      </trkpt>
      <trkpt lat="41.647708450" lon="2.594408410">
        <ele>380.90</ele>
        <time>2014-04-06T09:02:11Z</time>
      </trkpt>
      <trkpt lat="41.647720020" lon="2.594420140">
        <ele>381.00</ele>
        <time>2014-04-06T09:02:12Z</time>
      </trkpt>
      <trkpt lat="41.647730070" lon="2.594435060">
        <ele>381.20</ele>
        <time>2014-04-06T09:02:13Z</time>
      </trkpt>
      <trkpt lat="41.647741810" lon="2.594448470">
        <ele>381.40</ele>
        <time>2014-04-06T09:02:14Z</time>
      </trkpt>
      <trkpt lat="41.647753380" lon="2.594460040">
        <ele>381.50</ele>
        <time>2014-04-06T09:02:15Z</time>
      </trkpt>
      <trkpt lat="41.647765110" lon="2.594473450">
        <ele>381.70</ele>
        <time>2014-04-06T09:02:16Z</time>
      </trkpt>
      <trkpt lat="41.647776680" lon="2.594486690">
        <ele>381.80</ele>
        <time>2014-04-06T09:02:17Z</time>
      </trkpt>
      <trkpt lat="41.647788410" lon="2.594500100">
        <ele>382.10</ele>
        <time>2014-04-06T09:02:18Z</time>
      </trkpt>
      <trkpt lat="41.647800150" lon="2.594511670">
        <ele>382.30</ele>
        <time>2014-04-06T09:02:19Z</time>
      </trkpt>
      <trkpt lat="41.647811710" lon="2.594525080">
        <ele>382.70</ele>
        <time>2014-04-06T09:02:20Z</time>
      </trkpt>
      <trkpt lat="41.647825120" lon="2.594536820">
        <ele>382.90</ele>
        <time>2014-04-06T09:02:21Z</time>
      </trkpt>
      <trkpt lat="41.647836690" lon="2.594548380">
        <ele>383.10</ele>
        <time>2014-04-06T09:02:22Z</time>
      </trkpt>
      <trkpt lat="41.647850100" lon="2.594560120">
        <ele>383.40</ele>
        <time>2014-04-06T09:02:23Z</time>
      </trkpt>
      <trkpt lat="41.647863350" lon="2.594571690">
        <ele>383.50</ele>
        <time>2014-04-06T09:02:24Z</time>
      </trkpt>
      <trkpt lat="41.647875080" lon="2.594581740">
        <ele>383.70</ele>
        <time>2014-04-06T09:02:25Z</time>
      </trkpt>
      <trkpt lat="41.647890000" lon="2.594590130">
        <ele>383.80</ele>
        <time>2014-04-06T09:02:26Z</time>
      </trkpt>
      <trkpt lat="41.647903410" lon="2.594598340">
        <ele>383.90</ele>
        <time>2014-04-06T09:02:27Z</time>
      </trkpt>
      <trkpt lat="41.647916820" lon="2.594608400">
        <ele>384.30</ele>
        <time>2014-04-06T09:02:28Z</time>
      </trkpt>
      <trkpt lat="41.647930070" lon="2.594616780">
        <ele>384.50</ele>
        <time>2014-04-06T09:02:29Z</time>
      </trkpt>
      <trkpt lat="41.647948340" lon="2.594626670">
        <ele>384.80</ele>
        <time>2014-04-06T09:02:30Z</time>
      </trkpt>
      <trkpt lat="41.647966780" lon="2.594631700">
        <ele>385.00</ele>
        <time>2014-04-06T09:02:31Z</time>
      </trkpt>
      <trkpt lat="41.647983370" lon="2.594638410">
        <ele>385.50</ele>
        <time>2014-04-06T09:02:32Z</time>
      </trkpt>
      <trkpt lat="41.647998460" lon="2.594645110">
        <ele>385.80</ele>
        <time>2014-04-06T09:02:33Z</time>
      </trkpt>
      <trkpt lat="41.648013380" lon="2.594651820">
        <ele>386.00</ele>
        <time>2014-04-06T09:02:34Z</time>
      </trkpt>
      <trkpt lat="41.648028470" lon="2.594656680">
        <ele>386.40</ele>
        <time>2014-04-06T09:02:35Z</time>
      </trkpt>
      <trkpt lat="41.648040040" lon="2.594663380">
        <ele>386.60</ele>
        <time>2014-04-06T09:02:36Z</time>
      </trkpt>
      <trkpt lat="41.648053450" lon="2.594668410">
        <ele>387.00</ele>
        <time>2014-04-06T09:02:37Z</time>
      </trkpt>
      <trkpt lat="41.648066690" lon="2.594671770">
        <ele>387.30</ele>
        <time>2014-04-06T09:02:38Z</time>
      </trkpt>
      <trkpt lat="41.648080100" lon="2.594676800">
        <ele>387.20</ele>
        <time>2014-04-06T09:02:39Z</time>
      </trkpt>
      <trkpt lat="41.648091670" lon="2.594683330">
        <ele>387.10</ele>
        <time>2014-04-06T09:02:40Z</time>
      </trkpt>
      <trkpt lat="41.648105080" lon="2.594688360">
        <ele>387.10</ele>
        <time>2014-04-06T09:02:41Z</time>
      </trkpt>
      <trkpt lat="41.648118490" lon="2.594688360">
        <ele>387.30</ele>
        <time>2014-04-06T09:02:42Z</time>
      </trkpt>
      <trkpt lat="41.648131730" lon="2.594691710">
        <ele>387.40</ele>
        <time>2014-04-06T09:02:43Z</time>
      </trkpt>
      <trkpt lat="41.648145150" lon="2.594695070">
        <ele>387.70</ele>
        <time>2014-04-06T09:02:44Z</time>
      </trkpt>
      <trkpt lat="41.648158390" lon="2.594696740">
        <ele>387.90</ele>
        <time>2014-04-06T09:02:45Z</time>
      </trkpt>
      <trkpt lat="41.648173480" lon="2.594698420">
        <ele>388.10</ele>
        <time>2014-04-06T09:02:46Z</time>
      </trkpt>
      <trkpt lat="41.648188400" lon="2.594700100">
        <ele>388.20</ele>
        <time>2014-04-06T09:02:47Z</time>
      </trkpt>
      <trkpt lat="41.648201810" lon="2.594705130">
        <ele>388.30</ele>
        <time>2014-04-06T09:02:48Z</time>
      </trkpt>
      <trkpt lat="41.648215050" lon="2.594708480">
        <ele>388.60</ele>
        <time>2014-04-06T09:02:49Z</time>
      </trkpt>
      <trkpt lat="41.648230140" lon="2.594711660">
        <ele>388.80</ele>
        <time>2014-04-06T09:02:50Z</time>
      </trkpt>
      <trkpt lat="41.648243380" lon="2.594715020">
        <ele>389.30</ele>
        <time>2014-04-06T09:02:51Z</time>
      </trkpt>
      <trkpt lat="41.648255120" lon="2.594716690">
        <ele>389.70</ele>
        <time>2014-04-06T09:02:52Z</time>
      </trkpt>
      <trkpt lat="41.648266680" lon="2.594718370">
        <ele>389.90</ele>
        <time>2014-04-06T09:02:53Z</time>
      </trkpt>
      <trkpt lat="41.648280090" lon="2.594720050">
        <ele>390.10</ele>
        <time>2014-04-06T09:02:54Z</time>
      </trkpt>
      <trkpt lat="41.648293340" lon="2.594720050">
        <ele>390.30</ele>
        <time>2014-04-06T09:02:55Z</time>
      </trkpt>
      <trkpt lat="41.648306750" lon="2.594721720">
        <ele>390.30</ele>
        <time>2014-04-06T09:02:56Z</time>
      </trkpt>
      <trkpt lat="41.648316810" lon="2.594721720">
        <ele>390.40</ele>
        <time>2014-04-06T09:02:57Z</time>
      </trkpt>
      <trkpt lat="41.648328370" lon="2.594721720">
        <ele>390.80</ele>
        <time>2014-04-06T09:02:58Z</time>
      </trkpt>
      <trkpt lat="41.648340110" lon="2.594721720">
        <ele>391.10</ele>
        <time>2014-04-06T09:02:59Z</time>
      </trkpt>
      <trkpt lat="41.648353350" lon="2.594723400">
        <ele>391.40</ele>
        <time>2014-04-06T09:03:00Z</time>
      </trkpt>
      <trkpt lat="41.648368440" lon="2.594726750">
        <ele>391.60</ele>
        <time>2014-04-06T09:03:01Z</time>
      </trkpt>
      <trkpt lat="41.648383360" lon="2.594731780">
        <ele>391.70</ele>
        <time>2014-04-06T09:03:02Z</time>
      </trkpt>
      <trkpt lat="41.648398450" lon="2.594735130">
        <ele>392.40</ele>
        <time>2014-04-06T09:03:03Z</time>
      </trkpt>
      <trkpt lat="41.648411690" lon="2.594738490">
        <ele>392.80</ele>
        <time>2014-04-06T09:03:04Z</time>
      </trkpt>
      <trkpt lat="41.648425100" lon="2.594738490">
        <ele>393.20</ele>
        <time>2014-04-06T09:03:05Z</time>
      </trkpt>
      <trkpt lat="41.648438340" lon="2.594741670">
        <ele>393.50</ele>
        <time>2014-04-06T09:03:06Z</time>
      </trkpt>
      <trkpt lat="41.648451760" lon="2.594745020">
        <ele>393.80</ele>
        <time>2014-04-06T09:03:07Z</time>
      </trkpt>
      <trkpt lat="41.648461810" lon="2.594746700">
        <ele>393.80</ele>
        <time>2014-04-06T09:03:08Z</time>
      </trkpt>
      <trkpt lat="41.648473380" lon="2.594748380">
        <ele>393.80</ele>
        <time>2014-04-06T09:03:09Z</time>
      </trkpt>
      <trkpt lat="41.648485120" lon="2.594751730">
        <ele>394.20</ele>
        <time>2014-04-06T09:03:10Z</time>
      </trkpt>
      <trkpt lat="41.648500040" lon="2.594750050">
        <ele>394.50</ele>
        <time>2014-04-06T09:03:11Z</time>
      </trkpt>
      <trkpt lat="41.648515120" lon="2.594750050">
        <ele>394.70</ele>
        <time>2014-04-06T09:03:12Z</time>
      </trkpt>
      <trkpt lat="41.648528370" lon="2.594753410">
        <ele>394.90</ele>
        <time>2014-04-06T09:03:13Z</time>
      </trkpt>
      <trkpt lat="41.648540100" lon="2.594755080">
        <ele>395.00</ele>
        <time>2014-04-06T09:03:14Z</time>
      </trkpt>
      <trkpt lat="41.648551670" lon="2.594756760">
        <ele>395.10</ele>
        <time>2014-04-06T09:03:15Z</time>
      </trkpt>
      <trkpt lat="41.648565080" lon="2.594758430">
        <ele>395.10</ele>
        <time>2014-04-06T09:03:16Z</time>
      </trkpt>
      <trkpt lat="41.648578490" lon="2.594756760">
        <ele>395.20</ele>
        <time>2014-04-06T09:03:17Z</time>
      </trkpt>
      <trkpt lat="41.648591730" lon="2.594758430">
        <ele>395.20</ele>
        <time>2014-04-06T09:03:18Z</time>
      </trkpt>
      <trkpt lat="41.648605140" lon="2.594760110">
        <ele>395.30</ele>
        <time>2014-04-06T09:03:19Z</time>
      </trkpt>
      <trkpt lat="41.648620060" lon="2.594760110">
        <ele>395.50</ele>
        <time>2014-04-06T09:03:20Z</time>
      </trkpt>
      <trkpt lat="41.648635150" lon="2.594760110">
        <ele>395.70</ele>
        <time>2014-04-06T09:03:21Z</time>
      </trkpt>
      <trkpt lat="41.648650070" lon="2.594758430">
        <ele>396.10</ele>
        <time>2014-04-06T09:03:22Z</time>
      </trkpt>
      <trkpt lat="41.648665160" lon="2.594758430">
        <ele>396.50</ele>
        <time>2014-04-06T09:03:23Z</time>
      </trkpt>
      <trkpt lat="41.648680080" lon="2.594756760">
        <ele>396.70</ele>
        <time>2014-04-06T09:03:24Z</time>
      </trkpt>
      <trkpt lat="41.648695000" lon="2.594758430">
        <ele>396.70</ele>
        <time>2014-04-06T09:03:25Z</time>
      </trkpt>
      <trkpt lat="41.648708410" lon="2.594756760">
        <ele>396.70</ele>
        <time>2014-04-06T09:03:26Z</time>
      </trkpt>
      <trkpt lat="41.648721820" lon="2.594756760">
        <ele>396.90</ele>
        <time>2014-04-06T09:03:27Z</time>
      </trkpt>
      <trkpt lat="41.648735060" lon="2.594756760">
        <ele>397.00</ele>
        <time>2014-04-06T09:03:28Z</time>
      </trkpt>
      <trkpt lat="41.648750150" lon="2.594760110">
        <ele>396.90</ele>
        <time>2014-04-06T09:03:29Z</time>
      </trkpt>
      <trkpt lat="41.648765070" lon="2.594760110">
        <ele>396.80</ele>
        <time>2014-04-06T09:03:30Z</time>
      </trkpt>
      <trkpt lat="41.648778480" lon="2.594763460">
        <ele>396.70</ele>
        <time>2014-04-06T09:03:31Z</time>
      </trkpt>
      <trkpt lat="41.648793400" lon="2.594765140">
        <ele>397.10</ele>
        <time>2014-04-06T09:03:32Z</time>
      </trkpt>
      <trkpt lat="41.648806810" lon="2.594765140">
        <ele>397.30</ele>
        <time>2014-04-06T09:03:33Z</time>
      </trkpt>
      <trkpt lat="41.648821730" lon="2.594765140">
        <ele>397.60</ele>
        <time>2014-04-06T09:03:34Z</time>
      </trkpt>
      <trkpt lat="41.648835140" lon="2.594765140">
        <ele>397.70</ele>
        <time>2014-04-06T09:03:35Z</time>
      </trkpt>
      <trkpt lat="41.648851740" lon="2.594763460">
        <ele>398.50</ele>
        <time>2014-04-06T09:03:36Z</time>
      </trkpt>
      <trkpt lat="41.648866830" lon="2.594761790">
        <ele>399.00</ele>
        <time>2014-04-06T09:03:37Z</time>
      </trkpt>
      <trkpt lat="41.648880070" lon="2.594761790">
        <ele>399.40</ele>
        <time>2014-04-06T09:03:38Z</time>
      </trkpt>
      <trkpt lat="41.648895160" lon="2.594760110">
        <ele>399.50</ele>
        <time>2014-04-06T09:03:39Z</time>
      </trkpt>
      <trkpt lat="41.648913430" lon="2.594758430">
        <ele>399.50</ele>
        <time>2014-04-06T09:03:40Z</time>
      </trkpt>
      <trkpt lat="41.648933380" lon="2.594756760">
        <ele>399.80</ele>
        <time>2014-04-06T09:03:41Z</time>
      </trkpt>
      <trkpt lat="41.648951820" lon="2.594753410">
        <ele>400.10</ele>
        <time>2014-04-06T09:03:42Z</time>
      </trkpt>
      <trkpt lat="41.648971770" lon="2.594751730">
        <ele>400.30</ele>
        <time>2014-04-06T09:03:43Z</time>
      </trkpt>
      <trkpt lat="41.648991720" lon="2.594750050">
        <ele>400.60</ele>
        <time>2014-04-06T09:03:44Z</time>
      </trkpt>
      <trkpt lat="41.649010160" lon="2.594748380">
        <ele>400.80</ele>
        <time>2014-04-06T09:03:45Z</time>
      </trkpt>
      <trkpt lat="41.649028430" lon="2.594745020">
        <ele>400.90</ele>
        <time>2014-04-06T09:03:46Z</time>
      </trkpt>
      <trkpt lat="41.649048380" lon="2.594741670">
        <ele>401.00</ele>
        <time>2014-04-06T09:03:47Z</time>
      </trkpt>
      <trkpt lat="41.649068500" lon="2.594740160">
        <ele>401.10</ele>
        <time>2014-04-06T09:03:48Z</time>
      </trkpt>
      <trkpt lat="41.649088440" lon="2.594736810">
        <ele>401.20</ele>
        <time>2014-04-06T09:03:49Z</time>
      </trkpt>
      <trkpt lat="41.649108390" lon="2.594735130">
        <ele>401.30</ele>
        <time>2014-04-06T09:03:50Z</time>
      </trkpt>
      <trkpt lat="41.649125160" lon="2.594731780">
        <ele>401.30</ele>
        <time>2014-04-06T09:03:51Z</time>
      </trkpt>
      <trkpt lat="41.649140080" lon="2.594731780">
        <ele>401.40</ele>
        <time>2014-04-06T09:03:52Z</time>
      </trkpt>
      <trkpt lat="41.649155000" lon="2.594733460">
        <ele>401.60</ele>
        <time>2014-04-06T09:03:53Z</time>
      </trkpt>
      <trkpt lat="41.649171760" lon="2.594733460">
        <ele>401.70</ele>
        <time>2014-04-06T09:03:54Z</time>
      </trkpt>
      <trkpt lat="41.649186680" lon="2.594733460">
        <ele>401.80</ele>
        <time>2014-04-06T09:03:55Z</time>
      </trkpt>
      <trkpt lat="41.649200090" lon="2.594731780">
        <ele>401.80</ele>
        <time>2014-04-06T09:03:56Z</time>
      </trkpt>
      <trkpt lat="41.649215010" lon="2.594730100">
        <ele>401.80</ele>
        <time>2014-04-06T09:03:57Z</time>
      </trkpt>
      <trkpt lat="41.649230100" lon="2.594726750">
        <ele>402.00</ele>
        <time>2014-04-06T09:03:58Z</time>
      </trkpt>
      <trkpt lat="41.649246700" lon="2.594726750">
        <ele>402.20</ele>
        <time>2014-04-06T09:03:59Z</time>
      </trkpt>
      <trkpt lat="41.649263460" lon="2.594726750">
        <ele>402.30</ele>
        <time>2014-04-06T09:04:00Z</time>
      </trkpt>
      <trkpt lat="41.649278380" lon="2.594728430">
        <ele>402.40</ele>
        <time>2014-04-06T09:04:01Z</time>
      </trkpt>
      <trkpt lat="41.649295140" lon="2.594728430">
        <ele>402.40</ele>
        <time>2014-04-06T09:04:02Z</time>
      </trkpt>
      <trkpt lat="41.649310060" lon="2.594730100">
        <ele>402.80</ele>
        <time>2014-04-06T09:04:03Z</time>
      </trkpt>
      <trkpt lat="41.649326830" lon="2.594733460">
        <ele>403.10</ele>
        <time>2014-04-06T09:04:04Z</time>
      </trkpt>
      <trkpt lat="41.649340070" lon="2.594735130">
        <ele>403.50</ele>
        <time>2014-04-06T09:04:05Z</time>
      </trkpt>
      <trkpt lat="41.649355160" lon="2.594728430">
        <ele>403.80</ele>
        <time>2014-04-06T09:04:06Z</time>
      </trkpt>
      <trkpt lat="41.649370080" lon="2.594725070">
        <ele>404.10</ele>
        <time>2014-04-06T09:04:07Z</time>
      </trkpt>
      <trkpt lat="41.649386670" lon="2.594721720">
        <ele>404.30</ele>
        <time>2014-04-06T09:04:08Z</time>
      </trkpt>
      <trkpt lat="41.649403440" lon="2.594718370">
        <ele>404.50</ele>
        <time>2014-04-06T09:04:09Z</time>
      </trkpt>
      <trkpt lat="41.649421710" lon="2.594718370">
        <ele>404.60</ele>
        <time>2014-04-06T09:04:10Z</time>
      </trkpt>
      <trkpt lat="41.649436800" lon="2.594716690">
        <ele>404.70</ele>
        <time>2014-04-06T09:04:11Z</time>
      </trkpt>
      <trkpt lat="41.649453390" lon="2.594713340">
        <ele>405.10</ele>
        <time>2014-04-06T09:04:12Z</time>
      </trkpt>
      <trkpt lat="41.649468480" lon="2.594713340">
        <ele>405.40</ele>
        <time>2014-04-06T09:04:13Z</time>
      </trkpt>
      <trkpt lat="41.649483400" lon="2.594711660">
        <ele>405.70</ele>
        <time>2014-04-06T09:04:14Z</time>
      </trkpt>
      <trkpt lat="41.649498490" lon="2.594708480">
        <ele>405.90</ele>
        <time>2014-04-06T09:04:15Z</time>
      </trkpt>
      <trkpt lat="41.649511730" lon="2.594706800">
        <ele>406.00</ele>
        <time>2014-04-06T09:04:16Z</time>
      </trkpt>
      <trkpt lat="41.649528490" lon="2.594701770">
        <ele>406.20</ele>
        <time>2014-04-06T09:04:17Z</time>
      </trkpt>
      <trkpt lat="41.649546770" lon="2.594701770">
        <ele>406.30</ele>
        <time>2014-04-06T09:04:18Z</time>
      </trkpt>
      <trkpt lat="41.649566720" lon="2.594698420">
        <ele>406.10</ele>
        <time>2014-04-06T09:04:19Z</time>
      </trkpt>
      <trkpt lat="41.649585160" lon="2.594695070">
        <ele>406.00</ele>
        <time>2014-04-06T09:04:20Z</time>
      </trkpt>
      <trkpt lat="41.649601750" lon="2.594691710">
        <ele>405.90</ele>
        <time>2014-04-06T09:04:21Z</time>
      </trkpt>
      <trkpt lat="41.649616670" lon="2.594685010">
        <ele>406.30</ele>
        <time>2014-04-06T09:04:22Z</time>
      </trkpt>
      <trkpt lat="41.649633440" lon="2.594678470">
        <ele>406.60</ele>
        <time>2014-04-06T09:04:23Z</time>
      </trkpt>
      <trkpt lat="41.649650030" lon="2.594671770">
        <ele>407.10</ele>
        <time>2014-04-06T09:04:24Z</time>
      </trkpt>
      <trkpt lat="41.649665120" lon="2.594661710">
        <ele>407.50</ele>
        <time>2014-04-06T09:04:25Z</time>
      </trkpt>
      <trkpt lat="41.649681720" lon="2.594651820">
        <ele>407.70</ele>
        <time>2014-04-06T09:04:26Z</time>
      </trkpt>
      <trkpt lat="41.649696800" lon="2.594640080">
        <ele>407.90</ele>
        <time>2014-04-06T09:04:27Z</time>
      </trkpt>
      <trkpt lat="41.649711720" lon="2.594630020">
        <ele>408.00</ele>
        <time>2014-04-06T09:04:28Z</time>
      </trkpt>
      <trkpt lat="41.649728490" lon="2.594620130">
        <ele>408.30</ele>
        <time>2014-04-06T09:04:29Z</time>
      </trkpt>
      <trkpt lat="41.649740050" lon="2.594608400">
        <ele>408.60</ele>
        <time>2014-04-06T09:04:30Z</time>
      </trkpt>
      <trkpt lat="41.649753460" lon="2.594598340">
        <ele>408.60</ele>
        <time>2014-04-06T09:04:31Z</time>
      </trkpt>
      <trkpt lat="41.649766710" lon="2.594588450">
        <ele>408.60</ele>
        <time>2014-04-06T09:04:32Z</time>
      </trkpt>
      <trkpt lat="41.649778440" lon="2.594575040">
        <ele>409.10</ele>
        <time>2014-04-06T09:04:33Z</time>
      </trkpt>
      <trkpt lat="41.649793360" lon="2.594563470">
        <ele>409.40</ele>
        <time>2014-04-06T09:04:34Z</time>
      </trkpt>
      <trkpt lat="41.649806770" lon="2.594553410">
        <ele>409.70</ele>
        <time>2014-04-06T09:04:35Z</time>
      </trkpt>
      <trkpt lat="41.649820020" lon="2.594543360">
        <ele>409.90</ele>
        <time>2014-04-06T09:04:36Z</time>
      </trkpt>
      <trkpt lat="41.649833430" lon="2.594533460">
        <ele>410.00</ele>
        <time>2014-04-06T09:04:37Z</time>
      </trkpt>
      <trkpt lat="41.649848350" lon="2.594525080">
        <ele>410.30</ele>
        <time>2014-04-06T09:04:38Z</time>
      </trkpt>
      <trkpt lat="41.649861760" lon="2.594515020">
        <ele>410.50</ele>
        <time>2014-04-06T09:04:39Z</time>
      </trkpt>
      <trkpt lat="41.649876680" lon="2.594505130">
        <ele>410.70</ele>
        <time>2014-04-06T09:04:40Z</time>
      </trkpt>
      <trkpt lat="41.649891770" lon="2.594495080">
        <ele>410.90</ele>
        <time>2014-04-06T09:04:41Z</time>
      </trkpt>
      <trkpt lat="41.649906690" lon="2.594483340">
        <ele>411.20</ele>
        <time>2014-04-06T09:04:42Z</time>
      </trkpt>
      <trkpt lat="41.649920100" lon="2.594471770">
        <ele>411.30</ele>
        <time>2014-04-06T09:04:43Z</time>
      </trkpt>
      <trkpt lat="41.649935020" lon="2.594461720">
        <ele>411.30</ele>
        <time>2014-04-06T09:04:44Z</time>
      </trkpt>
      <trkpt lat="41.649950100" lon="2.594453330">
        <ele>411.70</ele>
        <time>2014-04-06T09:04:45Z</time>
      </trkpt>
      <trkpt lat="41.649965020" lon="2.594441770">
        <ele>411.90</ele>
        <time>2014-04-06T09:04:46Z</time>
      </trkpt>
      <trkpt lat="41.649978440" lon="2.594433380">
        <ele>412.10</ele>
        <time>2014-04-06T09:04:47Z</time>
      </trkpt>
      <trkpt lat="41.649993360" lon="2.594423490">
        <ele>412.20</ele>
        <time>2014-04-06T09:04:48Z</time>
      </trkpt>
      <trkpt lat="41.650008440" lon="2.594411760">
        <ele>412.20</ele>
        <time>2014-04-06T09:04:49Z</time>
      </trkpt>
      <trkpt lat="41.650025040" lon="2.594401700">
        <ele>412.30</ele>
        <time>2014-04-06T09:04:50Z</time>
      </trkpt>
      <trkpt lat="41.650045160" lon="2.594390130">
        <ele>412.30</ele>
        <time>2014-04-06T09:04:51Z</time>
      </trkpt>
      <trkpt lat="41.650063430" lon="2.594381750">
        <ele>412.20</ele>
        <time>2014-04-06T09:04:52Z</time>
      </trkpt>
      <trkpt lat="41.650080020" lon="2.594373370">
        <ele>412.20</ele>
        <time>2014-04-06T09:04:53Z</time>
      </trkpt>
      <trkpt lat="41.650095110" lon="2.594363480">
        <ele>412.20</ele>
        <time>2014-04-06T09:04:54Z</time>
      </trkpt>
      <trkpt lat="41.650111710" lon="2.594356770">
        <ele>412.60</ele>
        <time>2014-04-06T09:04:55Z</time>
      </trkpt>
      <trkpt lat="41.650128470" lon="2.594350070">
        <ele>412.90</ele>
        <time>2014-04-06T09:04:56Z</time>
      </trkpt>
      <trkpt lat="41.650145070" lon="2.594343360">
        <ele>413.10</ele>
        <time>2014-04-06T09:04:57Z</time>
      </trkpt>
      <trkpt lat="41.650161660" lon="2.594335150">
        <ele>413.20</ele>
        <time>2014-04-06T09:04:58Z</time>
      </trkpt>
      <trkpt lat="41.650176750" lon="2.594330120">
        <ele>413.00</ele>
        <time>2014-04-06T09:04:59Z</time>
      </trkpt>
      <trkpt lat="41.650191670" lon="2.594323410">
        <ele>412.90</ele>
        <time>2014-04-06T09:05:00Z</time>
      </trkpt>
      <trkpt lat="41.650208430" lon="2.594315030">
        <ele>412.80</ele>
        <time>2014-04-06T09:05:01Z</time>
      </trkpt>
      <trkpt lat="41.650225030" lon="2.594306820">
        <ele>413.20</ele>
        <time>2014-04-06T09:05:02Z</time>
      </trkpt>
      <trkpt lat="41.650240120" lon="2.594301790">
        <ele>413.40</ele>
        <time>2014-04-06T09:05:03Z</time>
      </trkpt>
      <trkpt lat="41.650256710" lon="2.594296760">
        <ele>413.90</ele>
        <time>2014-04-06T09:05:04Z</time>
      </trkpt>
      <trkpt lat="41.650270130" lon="2.594290050">
        <ele>414.30</ele>
        <time>2014-04-06T09:05:05Z</time>
      </trkpt>
      <trkpt lat="41.650286720" lon="2.594285020">
        <ele>414.60</ele>
        <time>2014-04-06T09:05:06Z</time>
      </trkpt>
      <trkpt lat="41.650300130" lon="2.594280000">
        <ele>414.80</ele>
        <time>2014-04-06T09:05:07Z</time>
      </trkpt>
      <trkpt lat="41.650313380" lon="2.594271780">
        <ele>414.90</ele>
        <time>2014-04-06T09:05:08Z</time>
      </trkpt>
      <trkpt lat="41.650330140" lon="2.594265080">
        <ele>414.90</ele>
        <time>2014-04-06T09:05:09Z</time>
      </trkpt>
      <trkpt lat="41.650343380" lon="2.594265080">
        <ele>415.00</ele>
        <time>2014-04-06T09:05:10Z</time>
      </trkpt>
      <trkpt lat="41.650360150" lon="2.594265080">
        <ele>414.80</ele>
        <time>2014-04-06T09:05:11Z</time>
      </trkpt>
      <trkpt lat="41.650378420" lon="2.594268430">
        <ele>414.60</ele>
        <time>2014-04-06T09:05:12Z</time>
      </trkpt>
      <trkpt lat="41.650398370" lon="2.594273460">
        <ele>414.50</ele>
        <time>2014-04-06T09:05:13Z</time>
      </trkpt>
      <trkpt lat="41.650418490" lon="2.594278490">
        <ele>414.50</ele>
        <time>2014-04-06T09:05:14Z</time>
      </trkpt>
      <trkpt lat="41.650438430" lon="2.594285020">
        <ele>414.50</ele>
        <time>2014-04-06T09:05:15Z</time>
      </trkpt>
      <trkpt lat="41.650461740" lon="2.594293410">
        <ele>414.80</ele>
        <time>2014-04-06T09:05:16Z</time>
      </trkpt>
      <trkpt lat="41.650478330" lon="2.594305140">
        <ele>415.00</ele>
        <time>2014-04-06T09:05:17Z</time>
      </trkpt>
      <trkpt lat="41.650498450" lon="2.594316710">
        <ele>415.30</ele>
        <time>2014-04-06T09:05:18Z</time>
      </trkpt>
      <trkpt lat="41.650516720" lon="2.594330120">
        <ele>415.50</ele>
        <time>2014-04-06T09:05:19Z</time>
      </trkpt>
      <trkpt lat="41.650533480" lon="2.594346720">
        <ele>415.70</ele>
        <time>2014-04-06T09:05:20Z</time>
      </trkpt>
      <trkpt lat="41.650551760" lon="2.594360130">
        <ele>415.90</ele>
        <time>2014-04-06T09:05:21Z</time>
      </trkpt>
      <trkpt lat="41.650570030" lon="2.594375050">
        <ele>416.00</ele>
        <time>2014-04-06T09:05:22Z</time>
      </trkpt>
      <trkpt lat="41.650588470" lon="2.594390130">
        <ele>416.00</ele>
        <time>2014-04-06T09:05:23Z</time>
      </trkpt>
      <trkpt lat="41.650605070" lon="2.594403380">
        <ele>416.00</ele>
        <time>2014-04-06T09:05:24Z</time>
      </trkpt>
      <trkpt lat="41.650621660" lon="2.594420140">
        <ele>416.00</ele>
        <time>2014-04-06T09:05:25Z</time>
      </trkpt>
      <trkpt lat="41.650638430" lon="2.594435060">
        <ele>416.50</ele>
        <time>2014-04-06T09:05:26Z</time>
      </trkpt>
      <trkpt lat="41.650655020" lon="2.594450150">
        <ele>416.80</ele>
        <time>2014-04-06T09:05:27Z</time>
      </trkpt>
      <trkpt lat="41.650671790" lon="2.594463390">
        <ele>416.90</ele>
        <time>2014-04-06T09:05:28Z</time>
      </trkpt>
      <trkpt lat="41.650686710" lon="2.594478480">
        <ele>417.00</ele>
        <time>2014-04-06T09:05:29Z</time>
      </trkpt>
      <trkpt lat="41.650701790" lon="2.594496750">
        <ele>417.50</ele>
        <time>2014-04-06T09:05:30Z</time>
      </trkpt>
      <trkpt lat="41.650716710" lon="2.594513350">
        <ele>417.90</ele>
        <time>2014-04-06T09:05:31Z</time>
      </trkpt>
      <trkpt lat="41.650730120" lon="2.594530110">
        <ele>418.30</ele>
        <time>2014-04-06T09:05:32Z</time>
      </trkpt>
      <trkpt lat="41.650743370" lon="2.594548380">
        <ele>418.10</ele>
        <time>2014-04-06T09:05:33Z</time>
      </trkpt>
      <trkpt lat="41.650758460" lon="2.594566820">
        <ele>418.10</ele>
        <time>2014-04-06T09:05:34Z</time>
      </trkpt>
      <trkpt lat="41.650770020" lon="2.594585100">
        <ele>418.00</ele>
        <time>2014-04-06T09:05:35Z</time>
      </trkpt>
      <trkpt lat="41.650778400" lon="2.594605050">
        <ele>418.00</ele>
        <time>2014-04-06T09:05:36Z</time>
      </trkpt>
      <trkpt lat="41.650785110" lon="2.594623490">
        <ele>417.90</ele>
        <time>2014-04-06T09:05:37Z</time>
      </trkpt>
      <trkpt lat="41.650791820" lon="2.594640080">
        <ele>417.80</ele>
        <time>2014-04-06T09:05:38Z</time>
      </trkpt>
      <trkpt lat="41.650800030" lon="2.594655000">
        <ele>417.70</ele>
        <time>2014-04-06T09:05:39Z</time>
      </trkpt>
      <trkpt lat="41.650805060" lon="2.594670090">
        <ele>417.90</ele>
        <time>2014-04-06T09:05:40Z</time>
      </trkpt>
      <trkpt lat="41.650810090" lon="2.594681820">
        <ele>418.10</ele>
        <time>2014-04-06T09:05:41Z</time>
      </trkpt>
      <trkpt lat="41.650816790" lon="2.594690040">
        <ele>418.10</ele>
        <time>2014-04-06T09:05:42Z</time>
      </trkpt>
      <trkpt lat="41.650820150" lon="2.594691710">
        <ele>418.10</ele>
        <time>2014-04-06T09:05:43Z</time>
      </trkpt>
      <trkpt lat="41.650820150" lon="2.594691710">
        <ele>418.10</ele>
        <time>2014-04-06T09:05:44Z</time>
      </trkpt>
      <trkpt lat="41.650820150" lon="2.594693390">
        <ele>418.30</ele>
        <time>2014-04-06T09:05:45Z</time>
      </trkpt>
      <trkpt lat="41.650823330" lon="2.594695070">
        <ele>418.40</ele>
        <time>2014-04-06T09:05:46Z</time>
      </trkpt>
      <trkpt lat="41.650825010" lon="2.594695070">
        <ele>418.30</ele>
        <time>2014-04-06T09:05:47Z</time>
      </trkpt>
      <trkpt lat="41.650825010" lon="2.594695070">
        <ele>418.20</ele>
        <time>2014-04-06T09:05:48Z</time>
      </trkpt>
      <trkpt lat="41.650826680" lon="2.594696740">
        <ele>418.50</ele>
        <time>2014-04-06T09:05:49Z</time>
      </trkpt>
      <trkpt lat="41.650826680" lon="2.594698420">
        <ele>418.70</ele>
        <time>2014-04-06T09:05:50Z</time>
      </trkpt>
      <trkpt lat="41.650828360" lon="2.594698420">
        <ele>418.90</ele>
        <time>2014-04-06T09:05:51Z</time>
      </trkpt>
      <trkpt lat="41.650828360" lon="2.594700100">
        <ele>418.80</ele>
        <time>2014-04-06T09:05:52Z</time>
      </trkpt>
      <trkpt lat="41.650830040" lon="2.594700100">
        <ele>418.80</ele>
        <time>2014-04-06T09:05:53Z</time>
      </trkpt>
      <trkpt lat="41.650830040" lon="2.594701770">
        <ele>418.40</ele>
        <time>2014-04-06T09:05:54Z</time>
      </trkpt>
      <trkpt lat="41.650830040" lon="2.594701770">
        <ele>418.20</ele>
        <time>2014-04-06T09:05:55Z</time>
      </trkpt>
      <trkpt lat="41.650830040" lon="2.594701770">
        <ele>418.30</ele>
        <time>2014-04-06T09:05:56Z</time>
      </trkpt>
      <trkpt lat="41.650828360" lon="2.594701770">
        <ele>418.40</ele>
        <time>2014-04-06T09:05:57Z</time>
      </trkpt>
      <trkpt lat="41.650828360" lon="2.594701770">
        <ele>418.40</ele>
        <time>2014-04-06T09:05:58Z</time>
      </trkpt>
      <trkpt lat="41.650826680" lon="2.594701770">
        <ele>418.30</ele>
        <time>2014-04-06T09:05:59Z</time>
      </trkpt>
      <trkpt lat="41.650826680" lon="2.594701770">
        <ele>418.20</ele>
        <time>2014-04-06T09:06:00Z</time>
      </trkpt>
      <trkpt lat="41.650826680" lon="2.594701770">
        <ele>418.20</ele>
        <time>2014-04-06T09:06:01Z</time>
      </trkpt>
      <trkpt lat="41.650825010" lon="2.594701770">
        <ele>418.20</ele>
        <time>2014-04-06T09:06:02Z</time>
      </trkpt>
      <trkpt lat="41.650825010" lon="2.594701770">
        <ele>418.20</ele>
        <time>2014-04-06T09:06:03Z</time>
      </trkpt>
      <trkpt lat="41.650825010" lon="2.594701770">
        <ele>418.30</ele>
        <time>2014-04-06T09:06:04Z</time>
      </trkpt>
      <trkpt lat="41.650823330" lon="2.594701770">
        <ele>418.30</ele>
        <time>2014-04-06T09:06:05Z</time>
      </trkpt>
      <trkpt lat="41.650823330" lon="2.594701770">
        <ele>418.40</ele>
        <time>2014-04-06T09:06:06Z</time>
      </trkpt>
      <trkpt lat="41.650823330" lon="2.594701770">
        <ele>418.50</ele>
        <time>2014-04-06T09:06:07Z</time>
      </trkpt>
      <trkpt lat="41.650823330" lon="2.594701770">
        <ele>418.50</ele>
        <time>2014-04-06T09:06:08Z</time>
      </trkpt>
      <trkpt lat="41.650823330" lon="2.594701770">
        <ele>418.60</ele>
        <time>2014-04-06T09:06:09Z</time>
      </trkpt>
      <trkpt lat="41.650823330" lon="2.594703450">
        <ele>418.60</ele>
        <time>2014-04-06T09:06:10Z</time>
      </trkpt>
      <trkpt lat="41.650823330" lon="2.594703450">
        <ele>418.70</ele>
        <time>2014-04-06T09:06:11Z</time>
      </trkpt>
      <trkpt lat="41.650823330" lon="2.594703450">
        <ele>418.80</ele>
        <time>2014-04-06T09:06:12Z</time>
      </trkpt>
      <trkpt lat="41.650825010" lon="2.594705130">
        <ele>418.70</ele>
        <time>2014-04-06T09:06:13Z</time>
      </trkpt>
      <trkpt lat="41.650826680" lon="2.594706800">
        <ele>418.60</ele>
        <time>2014-04-06T09:06:14Z</time>
      </trkpt>
      <trkpt lat="41.650828360" lon="2.594708480">
        <ele>418.40</ele>
        <time>2014-04-06T09:06:15Z</time>
      </trkpt>
      <trkpt lat="41.650830040" lon="2.594708480">
        <ele>418.20</ele>
        <time>2014-04-06T09:06:16Z</time>
      </trkpt>
      <trkpt lat="41.650831710" lon="2.594710160">
        <ele>418.10</ele>
        <time>2014-04-06T09:06:17Z</time>
      </trkpt>
      <trkpt lat="41.650833390" lon="2.594711660">
        <ele>417.90</ele>
        <time>2014-04-06T09:06:18Z</time>
      </trkpt>
      <trkpt lat="41.650835070" lon="2.594711660">
        <ele>417.80</ele>
        <time>2014-04-06T09:06:19Z</time>
      </trkpt>
      <trkpt lat="41.650835070" lon="2.594713340">
        <ele>417.70</ele>
        <time>2014-04-06T09:06:20Z</time>
      </trkpt>
      <trkpt lat="41.650836740" lon="2.594713340">
        <ele>417.50</ele>
        <time>2014-04-06T09:06:21Z</time>
      </trkpt>
      <trkpt lat="41.650838420" lon="2.594715020">
        <ele>417.50</ele>
        <time>2014-04-06T09:06:22Z</time>
      </trkpt>
      <trkpt lat="41.650838420" lon="2.594715020">
        <ele>417.40</ele>
        <time>2014-04-06T09:06:23Z</time>
      </trkpt>
      <trkpt lat="41.650840090" lon="2.594715020">
        <ele>417.40</ele>
        <time>2014-04-06T09:06:24Z</time>
      </trkpt>
      <trkpt lat="41.650841770" lon="2.594715020">
        <ele>417.70</ele>
        <time>2014-04-06T09:06:25Z</time>
      </trkpt>
      <trkpt lat="41.650843450" lon="2.594715020">
        <ele>417.90</ele>
        <time>2014-04-06T09:06:26Z</time>
      </trkpt>
      <trkpt lat="41.650845120" lon="2.594715020">
        <ele>418.30</ele>
        <time>2014-04-06T09:06:27Z</time>
      </trkpt>
      <trkpt lat="41.650846800" lon="2.594715020">
        <ele>418.70</ele>
        <time>2014-04-06T09:06:28Z</time>
      </trkpt>
      <trkpt lat="41.650846800" lon="2.594715020">
        <ele>418.90</ele>
        <time>2014-04-06T09:06:29Z</time>
      </trkpt>
      <trkpt lat="41.650848480" lon="2.594713340">
        <ele>418.60</ele>
        <time>2014-04-06T09:06:30Z</time>
      </trkpt>
      <trkpt lat="41.650850150" lon="2.594715020">
        <ele>418.30</ele>
        <time>2014-04-06T09:06:31Z</time>
      </trkpt>
      <trkpt lat="41.650853340" lon="2.594715020">
        <ele>418.40</ele>
        <time>2014-04-06T09:06:32Z</time>
      </trkpt>
      <trkpt lat="41.650855010" lon="2.594715020">
        <ele>418.50</ele>
        <time>2014-04-06T09:06:33Z</time>
      </trkpt>
      <trkpt lat="41.650856690" lon="2.594715020">
        <ele>418.60</ele>
        <time>2014-04-06T09:06:34Z</time>
      </trkpt>
      <trkpt lat="41.650858370" lon="2.594715020">
        <ele>418.70</ele>
        <time>2014-04-06T09:06:35Z</time>
      </trkpt>
      <trkpt lat="41.650860040" lon="2.594715020">
        <ele>418.80</ele>
        <time>2014-04-06T09:06:36Z</time>
      </trkpt>
      <trkpt lat="41.650861720" lon="2.594715020">
        <ele>418.70</ele>
        <time>2014-04-06T09:06:37Z</time>
      </trkpt>
      <trkpt lat="41.650863400" lon="2.594713340">
        <ele>418.70</ele>
        <time>2014-04-06T09:06:38Z</time>
      </trkpt>
      <trkpt lat="41.650865070" lon="2.594713340">
        <ele>418.90</ele>
        <time>2014-04-06T09:06:39Z</time>
      </trkpt>
      <trkpt lat="41.650865070" lon="2.594713340">
        <ele>419.00</ele>
        <time>2014-04-06T09:06:40Z</time>
      </trkpt>
      <trkpt lat="41.650866750" lon="2.594713340">
        <ele>419.10</ele>
        <time>2014-04-06T09:06:41Z</time>
      </trkpt>
      <trkpt lat="41.650868430" lon="2.594711660">
        <ele>419.20</ele>
        <time>2014-04-06T09:06:42Z</time>
      </trkpt>
      <trkpt lat="41.650868430" lon="2.594711660">
        <ele>419.30</ele>
        <time>2014-04-06T09:06:43Z</time>
      </trkpt>
      <trkpt lat="41.650868430" lon="2.594711660">
        <ele>419.00</ele>
        <time>2014-04-06T09:06:44Z</time>
      </trkpt>
      <trkpt lat="41.650870100" lon="2.594711660">
        <ele>418.80</ele>
        <time>2014-04-06T09:06:45Z</time>
      </trkpt>
      <trkpt lat="41.650870100" lon="2.594710160">
        <ele>418.80</ele>
        <time>2014-04-06T09:06:46Z</time>
      </trkpt>
      <trkpt lat="41.650870100" lon="2.594710160">
        <ele>418.70</ele>
        <time>2014-04-06T09:06:47Z</time>
      </trkpt>
      <trkpt lat="41.650870100" lon="2.594710160">
        <ele>418.70</ele>
        <time>2014-04-06T09:06:48Z</time>
      </trkpt>
      <trkpt lat="41.650870100" lon="2.594710160">
        <ele>418.60</ele>
        <time>2014-04-06T09:06:49Z</time>
      </trkpt>
      <trkpt lat="41.650870100" lon="2.594708480">
        <ele>418.50</ele>
        <time>2014-04-06T09:06:50Z</time>
      </trkpt>
      <trkpt lat="41.650870100" lon="2.594708480">
        <ele>418.50</ele>
        <time>2014-04-06T09:06:51Z</time>
      </trkpt>
      <trkpt lat="41.650870100" lon="2.594708480">
        <ele>418.50</ele>
        <time>2014-04-06T09:06:52Z</time>
      </trkpt>
      <trkpt lat="41.650871780" lon="2.594708480">
        <ele>418.60</ele>
        <time>2014-04-06T09:06:53Z</time>
      </trkpt>
      <trkpt lat="41.650871780" lon="2.594708480">
        <ele>418.70</ele>
        <time>2014-04-06T09:06:54Z</time>
      </trkpt>
      <trkpt lat="41.650871780" lon="2.594708480">
        <ele>418.80</ele>
        <time>2014-04-06T09:06:55Z</time>
      </trkpt>
      <trkpt lat="41.650871780" lon="2.594708480">
        <ele>418.60</ele>
        <time>2014-04-06T09:06:56Z</time>
      </trkpt>
      <trkpt lat="41.650871780" lon="2.594708480">
        <ele>418.40</ele>
        <time>2014-04-06T09:06:57Z</time>
      </trkpt>
      <trkpt lat="41.650871780" lon="2.594708480">
        <ele>418.30</ele>
        <time>2014-04-06T09:06:58Z</time>
      </trkpt>
      <trkpt lat="41.650873450" lon="2.594710160">
        <ele>418.20</ele>
        <time>2014-04-06T09:06:59Z</time>
      </trkpt>
      <trkpt lat="41.650875130" lon="2.594711660">
        <ele>418.10</ele>
        <time>2014-04-06T09:07:00Z</time>
      </trkpt>
      <trkpt lat="41.650876810" lon="2.594711660">
        <ele>418.20</ele>
        <time>2014-04-06T09:07:01Z</time>
      </trkpt>
      <trkpt lat="41.650878480" lon="2.594711660">
        <ele>418.40</ele>
        <time>2014-04-06T09:07:02Z</time>
      </trkpt>
      <trkpt lat="41.650880160" lon="2.594711660">
        <ele>418.30</ele>
        <time>2014-04-06T09:07:03Z</time>
      </trkpt>
      <trkpt lat="41.650880160" lon="2.594711660">
        <ele>418.30</ele>
        <time>2014-04-06T09:07:04Z</time>
      </trkpt>
      <trkpt lat="41.650880160" lon="2.594711660">
        <ele>418.30</ele>
        <time>2014-04-06T09:07:05Z</time>
      </trkpt>
      <trkpt lat="41.650880160" lon="2.594711660">
        <ele>418.20</ele>
        <time>2014-04-06T09:07:06Z</time>
      </trkpt>
      <trkpt lat="41.650881670" lon="2.594713340">
        <ele>418.10</ele>
        <time>2014-04-06T09:07:07Z</time>
      </trkpt>
      <trkpt lat="41.650881670" lon="2.594713340">
        <ele>418.40</ele>
        <time>2014-04-06T09:07:08Z</time>
      </trkpt>
      <trkpt lat="41.650883350" lon="2.594713340">
        <ele>418.50</ele>
        <time>2014-04-06T09:07:09Z</time>
      </trkpt>
      <trkpt lat="41.650883350" lon="2.594713340">
        <ele>418.20</ele>
        <time>2014-04-06T09:07:10Z</time>
      </trkpt>
      <trkpt lat="41.650885020" lon="2.594715020">
        <ele>417.90</ele>
        <time>2014-04-06T09:07:11Z</time>
      </trkpt>
      <trkpt lat="41.650886700" lon="2.594715020">
        <ele>418.20</ele>
        <time>2014-04-06T09:07:12Z</time>
      </trkpt>
      <trkpt lat="41.650886700" lon="2.594716690">
        <ele>418.40</ele>
        <time>2014-04-06T09:07:13Z</time>
      </trkpt>
      <trkpt lat="41.650888370" lon="2.594716690">
        <ele>418.50</ele>
        <time>2014-04-06T09:07:14Z</time>
      </trkpt>
      <trkpt lat="41.650890050" lon="2.594716690">
        <ele>418.30</ele>
        <time>2014-04-06T09:07:15Z</time>
      </trkpt>
      <trkpt lat="41.650890050" lon="2.594718370">
        <ele>418.10</ele>
        <time>2014-04-06T09:07:16Z</time>
      </trkpt>
      <trkpt lat="41.650891730" lon="2.594720050">
        <ele>417.80</ele>
        <time>2014-04-06T09:07:17Z</time>
      </trkpt>
      <trkpt lat="41.650891730" lon="2.594720050">
        <ele>417.60</ele>
        <time>2014-04-06T09:07:18Z</time>
      </trkpt>
      <trkpt lat="41.650893400" lon="2.594720050">
        <ele>417.60</ele>
        <time>2014-04-06T09:07:19Z</time>
      </trkpt>
      <trkpt lat="41.650896760" lon="2.594720050">
        <ele>417.60</ele>
        <time>2014-04-06T09:07:20Z</time>
      </trkpt>
      <trkpt lat="41.650895080" lon="2.594721720">
        <ele>417.60</ele>
        <time>2014-04-06T09:07:21Z</time>
      </trkpt>
      <trkpt lat="41.650895080" lon="2.594721720">
        <ele>417.50</ele>
        <time>2014-04-06T09:07:22Z</time>
      </trkpt>
      <trkpt lat="41.650895080" lon="2.594723400">
        <ele>417.40</ele>
        <time>2014-04-06T09:07:23Z</time>
      </trkpt>
      <trkpt lat="41.650895080" lon="2.594723400">
        <ele>417.40</ele>
        <time>2014-04-06T09:07:24Z</time>
      </trkpt>
      <trkpt lat="41.650895080" lon="2.594725070">
        <ele>417.40</ele>
        <time>2014-04-06T09:07:25Z</time>
      </trkpt>
      <trkpt lat="41.650895080" lon="2.594725070">
        <ele>417.50</ele>
        <time>2014-04-06T09:07:26Z</time>
      </trkpt>
      <trkpt lat="41.650893400" lon="2.594725070">
        <ele>417.60</ele>
        <time>2014-04-06T09:07:27Z</time>
      </trkpt>
      <trkpt lat="41.650893400" lon="2.594726750">
        <ele>417.70</ele>
        <time>2014-04-06T09:07:28Z</time>
      </trkpt>
      <trkpt lat="41.650891730" lon="2.594726750">
        <ele>417.90</ele>
        <time>2014-04-06T09:07:29Z</time>
      </trkpt>
      <trkpt lat="41.650891730" lon="2.594726750">
        <ele>418.00</ele>
        <time>2014-04-06T09:07:30Z</time>
      </trkpt>
      <trkpt lat="41.650890050" lon="2.594728430">
        <ele>417.80</ele>
        <time>2014-04-06T09:07:31Z</time>
      </trkpt>
      <trkpt lat="41.650890050" lon="2.594728430">
        <ele>417.70</ele>
        <time>2014-04-06T09:07:32Z</time>
      </trkpt>
      <trkpt lat="41.650888370" lon="2.594728430">
        <ele>417.60</ele>
        <time>2014-04-06T09:07:33Z</time>
      </trkpt>
      <trkpt lat="41.650886700" lon="2.594730100">
        <ele>418.00</ele>
        <time>2014-04-06T09:07:34Z</time>
      </trkpt>
      <trkpt lat="41.650886700" lon="2.594730100">
        <ele>418.30</ele>
        <time>2014-04-06T09:07:35Z</time>
      </trkpt>
      <trkpt lat="41.650885020" lon="2.594730100">
        <ele>418.00</ele>
        <time>2014-04-06T09:07:36Z</time>
      </trkpt>
      <trkpt lat="41.650885020" lon="2.594730100">
        <ele>417.80</ele>
        <time>2014-04-06T09:07:37Z</time>
      </trkpt>
      <trkpt lat="41.650885020" lon="2.594730100">
        <ele>417.70</ele>
        <time>2014-04-06T09:07:38Z</time>
      </trkpt>
      <trkpt lat="41.650883350" lon="2.594731780">
        <ele>418.00</ele>
        <time>2014-04-06T09:07:39Z</time>
      </trkpt>
      <trkpt lat="41.650883350" lon="2.594731780">
        <ele>418.20</ele>
        <time>2014-04-06T09:07:40Z</time>
      </trkpt>
      <trkpt lat="41.650883350" lon="2.594733460">
        <ele>418.40</ele>
        <time>2014-04-06T09:07:41Z</time>
      </trkpt>
      <trkpt lat="41.650888370" lon="2.594740160">
        <ele>418.60</ele>
        <time>2014-04-06T09:07:42Z</time>
      </trkpt>
      <trkpt lat="41.650895080" lon="2.594746700">
        <ele>418.50</ele>
        <time>2014-04-06T09:07:43Z</time>
      </trkpt>
      <trkpt lat="41.650901790" lon="2.594753410">
        <ele>418.40</ele>
        <time>2014-04-06T09:07:44Z</time>
      </trkpt>
      <trkpt lat="41.650908490" lon="2.594760110">
        <ele>418.40</ele>
        <time>2014-04-06T09:07:45Z</time>
      </trkpt>
      <trkpt lat="41.650915030" lon="2.594771680">
        <ele>418.30</ele>
        <time>2014-04-06T09:07:46Z</time>
      </trkpt>
      <trkpt lat="41.650921730" lon="2.594785090">
        <ele>418.30</ele>
        <time>2014-04-06T09:07:47Z</time>
      </trkpt>
      <trkpt lat="41.650930120" lon="2.594798330">
        <ele>418.00</ele>
        <time>2014-04-06T09:07:48Z</time>
      </trkpt>
      <trkpt lat="41.650940010" lon="2.594811740">
        <ele>417.80</ele>
        <time>2014-04-06T09:07:49Z</time>
      </trkpt>
      <trkpt lat="41.650948390" lon="2.594825150">
        <ele>417.60</ele>
        <time>2014-04-06T09:07:50Z</time>
      </trkpt>
      <trkpt lat="41.650958450" lon="2.594835050">
        <ele>417.50</ele>
        <time>2014-04-06T09:07:51Z</time>
      </trkpt>
      <trkpt lat="41.650970010" lon="2.594846780">
        <ele>417.40</ele>
        <time>2014-04-06T09:07:52Z</time>
      </trkpt>
      <trkpt lat="41.650980070" lon="2.594856670">
        <ele>417.20</ele>
        <time>2014-04-06T09:07:53Z</time>
      </trkpt>
      <trkpt lat="41.650988450" lon="2.594866730">
        <ele>417.10</ele>
        <time>2014-04-06T09:07:54Z</time>
      </trkpt>
      <trkpt lat="41.650998350" lon="2.594880140">
        <ele>417.70</ele>
        <time>2014-04-06T09:07:55Z</time>
      </trkpt>
      <trkpt lat="41.651008400" lon="2.594891710">
        <ele>418.10</ele>
        <time>2014-04-06T09:07:56Z</time>
      </trkpt>
      <trkpt lat="41.651018460" lon="2.594901770">
        <ele>418.50</ele>
        <time>2014-04-06T09:07:57Z</time>
      </trkpt>
      <trkpt lat="41.651030030" lon="2.594911820">
        <ele>418.70</ele>
        <time>2014-04-06T09:07:58Z</time>
      </trkpt>
      <trkpt lat="41.651040090" lon="2.594923390">
        <ele>418.80</ele>
        <time>2014-04-06T09:07:59Z</time>
      </trkpt>
      <trkpt lat="41.651048470" lon="2.594935130">
        <ele>419.10</ele>
        <time>2014-04-06T09:08:00Z</time>
      </trkpt>
      <trkpt lat="41.651058360" lon="2.594946690">
        <ele>419.30</ele>
        <time>2014-04-06T09:08:01Z</time>
      </trkpt>
      <trkpt lat="41.651066740" lon="2.594956750">
        <ele>419.50</ele>
        <time>2014-04-06T09:08:02Z</time>
      </trkpt>
      <trkpt lat="41.651078480" lon="2.594963460">
        <ele>419.60</ele>
        <time>2014-04-06T09:08:03Z</time>
      </trkpt>
      <trkpt lat="41.651088370" lon="2.594973350">
        <ele>419.70</ele>
        <time>2014-04-06T09:08:04Z</time>
      </trkpt>
      <trkpt lat="41.651100100" lon="2.594983410">
        <ele>420.00</ele>
        <time>2014-04-06T09:08:05Z</time>
      </trkpt>
      <trkpt lat="41.651111670" lon="2.594991790">
        <ele>420.20</ele>
        <time>2014-04-06T09:08:06Z</time>
      </trkpt>
      <trkpt lat="41.651123400" lon="2.594998490">
        <ele>420.50</ele>
        <time>2014-04-06T09:08:07Z</time>
      </trkpt>
      <trkpt lat="41.651135140" lon="2.595005030">
        <ele>420.70</ele>
        <time>2014-04-06T09:08:08Z</time>
      </trkpt>
      <trkpt lat="41.651145030" lon="2.595011740">
        <ele>421.40</ele>
        <time>2014-04-06T09:08:09Z</time>
      </trkpt>
      <trkpt lat="41.651156760" lon="2.595015090">
        <ele>421.90</ele>
        <time>2014-04-06T09:08:10Z</time>
      </trkpt>
      <trkpt lat="41.651168330" lon="2.595018440">
        <ele>422.30</ele>
        <time>2014-04-06T09:08:11Z</time>
      </trkpt>
      <trkpt lat="41.651180060" lon="2.595025150">
        <ele>422.30</ele>
        <time>2014-04-06T09:08:12Z</time>
      </trkpt>
      <trkpt lat="41.651190120" lon="2.595035040">
        <ele>422.30</ele>
        <time>2014-04-06T09:08:13Z</time>
      </trkpt>
      <trkpt lat="41.651200010" lon="2.595041740">
        <ele>422.70</ele>
        <time>2014-04-06T09:08:14Z</time>
      </trkpt>
      <trkpt lat="41.651211750" lon="2.595045100">
        <ele>423.00</ele>
        <time>2014-04-06T09:08:15Z</time>
      </trkpt>
      <trkpt lat="41.651221810" lon="2.595050130">
        <ele>423.30</ele>
        <time>2014-04-06T09:08:16Z</time>
      </trkpt>
      <trkpt lat="41.651233370" lon="2.595053480">
        <ele>423.40</ele>
        <time>2014-04-06T09:08:17Z</time>
      </trkpt>
      <trkpt lat="41.651245110" lon="2.595055150">
        <ele>423.50</ele>
        <time>2014-04-06T09:08:18Z</time>
      </trkpt>
      <trkpt lat="41.651256680" lon="2.595060020">
        <ele>423.60</ele>
        <time>2014-04-06T09:08:19Z</time>
      </trkpt>
      <trkpt lat="41.651271760" lon="2.595065040">
        <ele>423.70</ele>
        <time>2014-04-06T09:08:20Z</time>
      </trkpt>
      <trkpt lat="41.651285010" lon="2.595070070">
        <ele>423.90</ele>
        <time>2014-04-06T09:08:21Z</time>
      </trkpt>
      <trkpt lat="41.651296740" lon="2.595073430">
        <ele>424.10</ele>
        <time>2014-04-06T09:08:22Z</time>
      </trkpt>
      <trkpt lat="41.651310150" lon="2.595076780">
        <ele>424.20</ele>
        <time>2014-04-06T09:08:23Z</time>
      </trkpt>
      <trkpt lat="41.651321720" lon="2.595081810">
        <ele>424.60</ele>
        <time>2014-04-06T09:08:24Z</time>
      </trkpt>
      <trkpt lat="41.651335130" lon="2.595090020">
        <ele>424.90</ele>
        <time>2014-04-06T09:08:25Z</time>
      </trkpt>
      <trkpt lat="41.651348370" lon="2.595098400">
        <ele>425.00</ele>
        <time>2014-04-06T09:08:26Z</time>
      </trkpt>
      <trkpt lat="41.651360110" lon="2.595100080">
        <ele>425.10</ele>
        <time>2014-04-06T09:08:27Z</time>
      </trkpt>
      <trkpt lat="41.651373350" lon="2.595103430">
        <ele>425.60</ele>
        <time>2014-04-06T09:08:28Z</time>
      </trkpt>
      <trkpt lat="41.651386760" lon="2.595106790">
        <ele>426.00</ele>
        <time>2014-04-06T09:08:29Z</time>
      </trkpt>
      <trkpt lat="41.651400010" lon="2.595108460">
        <ele>426.30</ele>
        <time>2014-04-06T09:08:30Z</time>
      </trkpt>
      <trkpt lat="41.651416770" lon="2.595108460">
        <ele>426.40</ele>
        <time>2014-04-06T09:08:31Z</time>
      </trkpt>
      <trkpt lat="41.651435040" lon="2.595106790">
        <ele>426.40</ele>
        <time>2014-04-06T09:08:32Z</time>
      </trkpt>
      <trkpt lat="41.651450130" lon="2.595105110">
        <ele>426.40</ele>
        <time>2014-04-06T09:08:33Z</time>
      </trkpt>
      <trkpt lat="41.651463370" lon="2.595103430">
        <ele>426.40</ele>
        <time>2014-04-06T09:08:34Z</time>
      </trkpt>
      <trkpt lat="41.651478460" lon="2.595101760">
        <ele>426.60</ele>
        <time>2014-04-06T09:08:35Z</time>
      </trkpt>
      <trkpt lat="41.651491700" lon="2.595096730">
        <ele>426.70</ele>
        <time>2014-04-06T09:08:36Z</time>
      </trkpt>
      <trkpt lat="41.651505120" lon="2.595091700">
        <ele>426.80</ele>
        <time>2014-04-06T09:08:37Z</time>
      </trkpt>
      <trkpt lat="41.651518360" lon="2.595088350">
        <ele>427.00</ele>
        <time>2014-04-06T09:08:38Z</time>
      </trkpt>
      <trkpt lat="41.651531770" lon="2.595085160">
        <ele>427.20</ele>
        <time>2014-04-06T09:08:39Z</time>
      </trkpt>
      <trkpt lat="41.651546690" lon="2.595080130">
        <ele>427.60</ele>
        <time>2014-04-06T09:08:40Z</time>
      </trkpt>
      <trkpt lat="41.651563450" lon="2.595076780">
        <ele>427.80</ele>
        <time>2014-04-06T09:08:41Z</time>
      </trkpt>
      <trkpt lat="41.651578370" lon="2.595068400">
        <ele>428.00</ele>
        <time>2014-04-06T09:08:42Z</time>
      </trkpt>
      <trkpt lat="41.651591780" lon="2.595058340">
        <ele>428.00</ele>
        <time>2014-04-06T09:08:43Z</time>
      </trkpt>
      <trkpt lat="41.651606700" lon="2.595051800">
        <ele>428.00</ele>
        <time>2014-04-06T09:08:44Z</time>
      </trkpt>
      <trkpt lat="41.651618440" lon="2.595043420">
        <ele>427.80</ele>
        <time>2014-04-06T09:08:45Z</time>
      </trkpt>
      <trkpt lat="41.651631680" lon="2.595035040">
        <ele>427.60</ele>
        <time>2014-04-06T09:08:46Z</time>
      </trkpt>
      <trkpt lat="41.651645090" lon="2.595026820">
        <ele>428.00</ele>
        <time>2014-04-06T09:08:47Z</time>
      </trkpt>
      <trkpt lat="41.651660010" lon="2.595018440">
        <ele>428.40</ele>
        <time>2014-04-06T09:08:48Z</time>
      </trkpt>
      <trkpt lat="41.651673420" lon="2.595010060">
        <ele>428.60</ele>
        <time>2014-04-06T09:08:49Z</time>
      </trkpt>
      <trkpt lat="41.651688340" lon="2.595001680">
        <ele>428.80</ele>
        <time>2014-04-06T09:08:50Z</time>
      </trkpt>
      <trkpt lat="41.651701750" lon="2.594993460">
        <ele>428.90</ele>
        <time>2014-04-06T09:08:51Z</time>
      </trkpt>
      <trkpt lat="41.651715000" lon="2.594985080">
        <ele>428.70</ele>
        <time>2014-04-06T09:08:52Z</time>
      </trkpt>
      <trkpt lat="41.651728410" lon="2.594976700">
        <ele>428.60</ele>
        <time>2014-04-06T09:08:53Z</time>
      </trkpt>
      <trkpt lat="41.651743330" lon="2.594968490">
        <ele>428.80</ele>
        <time>2014-04-06T09:08:54Z</time>
      </trkpt>
      <trkpt lat="41.651756740" lon="2.594960100">
        <ele>429.00</ele>
        <time>2014-04-06T09:08:55Z</time>
      </trkpt>
      <trkpt lat="41.651771830" lon="2.594953400">
        <ele>429.10</ele>
        <time>2014-04-06T09:08:56Z</time>
      </trkpt>
      <trkpt lat="41.651785070" lon="2.594945020">
        <ele>429.00</ele>
        <time>2014-04-06T09:08:57Z</time>
      </trkpt>
      <trkpt lat="41.651800160" lon="2.594940150">
        <ele>428.90</ele>
        <time>2014-04-06T09:08:58Z</time>
      </trkpt>
      <trkpt lat="41.651815080" lon="2.594931770">
        <ele>429.00</ele>
        <time>2014-04-06T09:08:59Z</time>
      </trkpt>
      <trkpt lat="41.651828490" lon="2.594921710">
        <ele>429.10</ele>
        <time>2014-04-06T09:09:00Z</time>
      </trkpt>
      <trkpt lat="41.651841730" lon="2.594915010">
        <ele>429.10</ele>
        <time>2014-04-06T09:09:01Z</time>
      </trkpt>
      <trkpt lat="41.651855140" lon="2.594910150">
        <ele>429.20</ele>
        <time>2014-04-06T09:09:02Z</time>
      </trkpt>
      <trkpt lat="41.651870060" lon="2.594905120">
        <ele>429.30</ele>
        <time>2014-04-06T09:09:03Z</time>
      </trkpt>
      <trkpt lat="41.651885150" lon="2.594898410">
        <ele>429.80</ele>
        <time>2014-04-06T09:09:04Z</time>
      </trkpt>
      <trkpt lat="41.651900070" lon="2.594891710">
        <ele>430.10</ele>
        <time>2014-04-06T09:09:05Z</time>
      </trkpt>
      <trkpt lat="41.651913480" lon="2.594883490">
        <ele>430.60</ele>
        <time>2014-04-06T09:09:06Z</time>
      </trkpt>
      <trkpt lat="41.651926720" lon="2.594878460">
        <ele>430.90</ele>
        <time>2014-04-06T09:09:07Z</time>
      </trkpt>
      <trkpt lat="41.651936780" lon="2.594871760">
        <ele>431.20</ele>
        <time>2014-04-06T09:09:08Z</time>
      </trkpt>
      <trkpt lat="41.651945000" lon="2.594860020">
        <ele>431.10</ele>
        <time>2014-04-06T09:09:09Z</time>
      </trkpt>
      <trkpt lat="41.651956730" lon="2.594850130">
        <ele>431.00</ele>
        <time>2014-04-06T09:09:10Z</time>
      </trkpt>
      <trkpt lat="41.651970140" lon="2.594845100">
        <ele>431.20</ele>
        <time>2014-04-06T09:09:11Z</time>
      </trkpt>
      <trkpt lat="41.651985060" lon="2.594840070">
        <ele>431.30</ele>
        <time>2014-04-06T09:09:12Z</time>
      </trkpt>
      <trkpt lat="41.652001830" lon="2.594836720">
        <ele>431.50</ele>
        <time>2014-04-06T09:09:13Z</time>
      </trkpt>
      <trkpt lat="41.652018420" lon="2.594830020">
        <ele>431.60</ele>
        <time>2014-04-06T09:09:14Z</time>
      </trkpt>
      <trkpt lat="41.652035020" lon="2.594826660">
        <ele>431.70</ele>
        <time>2014-04-06T09:09:15Z</time>
      </trkpt>
      <trkpt lat="41.652050110" lon="2.594821800">
        <ele>432.00</ele>
        <time>2014-04-06T09:09:16Z</time>
      </trkpt>
      <trkpt lat="41.652065030" lon="2.594815100">
        <ele>432.30</ele>
        <time>2014-04-06T09:09:17Z</time>
      </trkpt>
      <trkpt lat="41.652076760" lon="2.594810070">
        <ele>432.50</ele>
        <time>2014-04-06T09:09:18Z</time>
      </trkpt>
      <trkpt lat="41.652090000" lon="2.594805040">
        <ele>432.60</ele>
        <time>2014-04-06T09:09:19Z</time>
      </trkpt>
      <trkpt lat="41.652103420" lon="2.594798330">
        <ele>432.70</ele>
        <time>2014-04-06T09:09:20Z</time>
      </trkpt>
      <trkpt lat="41.652116830" lon="2.594793470">
        <ele>432.70</ele>
        <time>2014-04-06T09:09:21Z</time>
      </trkpt>
      <trkpt lat="41.652131750" lon="2.594785090">
        <ele>432.70</ele>
        <time>2014-04-06T09:09:22Z</time>
      </trkpt>
      <trkpt lat="41.652145160" lon="2.594780060">
        <ele>433.20</ele>
        <time>2014-04-06T09:09:23Z</time>
      </trkpt>
      <trkpt lat="41.652158400" lon="2.594773350">
        <ele>433.50</ele>
        <time>2014-04-06T09:09:24Z</time>
      </trkpt>
      <trkpt lat="41.652173490" lon="2.594766820">
        <ele>433.70</ele>
        <time>2014-04-06T09:09:25Z</time>
      </trkpt>
      <trkpt lat="41.652186730" lon="2.594761790">
        <ele>433.90</ele>
        <time>2014-04-06T09:09:26Z</time>
      </trkpt>
      <trkpt lat="41.652198470" lon="2.594755080">
        <ele>434.00</ele>
        <time>2014-04-06T09:09:27Z</time>
      </trkpt>
      <trkpt lat="41.652211710" lon="2.594748380">
        <ele>434.30</ele>
        <time>2014-04-06T09:09:28Z</time>
      </trkpt>
      <trkpt lat="41.652225120" lon="2.594741670">
        <ele>434.60</ele>
        <time>2014-04-06T09:09:29Z</time>
      </trkpt>
      <trkpt lat="41.652236690" lon="2.594738490">
        <ele>434.70</ele>
        <time>2014-04-06T09:09:30Z</time>
      </trkpt>
      <trkpt lat="41.652248420" lon="2.594731780">
        <ele>434.80</ele>
        <time>2014-04-06T09:09:31Z</time>
      </trkpt>
      <trkpt lat="41.652261670" lon="2.594723400">
        <ele>434.80</ele>
        <time>2014-04-06T09:09:32Z</time>
      </trkpt>
      <trkpt lat="41.652275080" lon="2.594716690">
        <ele>434.80</ele>
        <time>2014-04-06T09:09:33Z</time>
      </trkpt>
      <trkpt lat="41.652288490" lon="2.594711660">
        <ele>434.70</ele>
        <time>2014-04-06T09:09:34Z</time>
      </trkpt>
      <trkpt lat="41.652300050" lon="2.594706800">
        <ele>434.80</ele>
        <time>2014-04-06T09:09:35Z</time>
      </trkpt>
      <trkpt lat="41.652313470" lon="2.594700100">
        <ele>434.90</ele>
        <time>2014-04-06T09:09:36Z</time>
      </trkpt>
      <trkpt lat="41.652326710" lon="2.594693390">
        <ele>435.00</ele>
        <time>2014-04-06T09:09:37Z</time>
      </trkpt>
      <trkpt lat="41.652341800" lon="2.594683330">
        <ele>435.10</ele>
        <time>2014-04-06T09:09:38Z</time>
      </trkpt>
      <trkpt lat="41.652355040" lon="2.594675120">
        <ele>435.10</ele>
        <time>2014-04-06T09:09:39Z</time>
      </trkpt>
      <trkpt lat="41.652366770" lon="2.594668410">
        <ele>435.60</ele>
        <time>2014-04-06T09:09:40Z</time>
      </trkpt>
      <trkpt lat="41.652380020" lon="2.594660030">
        <ele>436.00</ele>
        <time>2014-04-06T09:09:41Z</time>
      </trkpt>
      <trkpt lat="41.652391750" lon="2.594653490">
        <ele>436.20</ele>
        <time>2014-04-06T09:09:42Z</time>
      </trkpt>
      <trkpt lat="41.652403490" lon="2.594645110">
        <ele>436.30</ele>
        <time>2014-04-06T09:09:43Z</time>
      </trkpt>
      <trkpt lat="41.652415050" lon="2.594638410">
        <ele>436.30</ele>
        <time>2014-04-06T09:09:44Z</time>
      </trkpt>
      <trkpt lat="41.652428470" lon="2.594636730">
        <ele>436.30</ele>
        <time>2014-04-06T09:09:45Z</time>
      </trkpt>
      <trkpt lat="41.652441710" lon="2.594635050">
        <ele>436.30</ele>
        <time>2014-04-06T09:09:46Z</time>
      </trkpt>
      <trkpt lat="41.652455120" lon="2.594631700">
        <ele>436.50</ele>
        <time>2014-04-06T09:09:47Z</time>
      </trkpt>
      <trkpt lat="41.652470040" lon="2.594630020">
        <ele>436.70</ele>
        <time>2014-04-06T09:09:48Z</time>
      </trkpt>
      <trkpt lat="41.652485130" lon="2.594626670">
        <ele>437.30</ele>
        <time>2014-04-06T09:09:49Z</time>
      </trkpt>
      <trkpt lat="41.652500050" lon="2.594623490">
        <ele>437.70</ele>
        <time>2014-04-06T09:09:50Z</time>
      </trkpt>
      <trkpt lat="41.652515130" lon="2.594620130">
        <ele>437.40</ele>
        <time>2014-04-06T09:09:51Z</time>
      </trkpt>
      <trkpt lat="41.652528380" lon="2.594616780">
        <ele>437.30</ele>
        <time>2014-04-06T09:09:52Z</time>
      </trkpt>
      <trkpt lat="41.652541790" lon="2.594613430">
        <ele>437.10</ele>
        <time>2014-04-06T09:09:53Z</time>
      </trkpt>
      <trkpt lat="41.652555030" lon="2.594608400">
        <ele>437.30</ele>
        <time>2014-04-06T09:09:54Z</time>
      </trkpt>
      <trkpt lat="41.652570120" lon="2.594606720">
        <ele>437.50</ele>
        <time>2014-04-06T09:09:55Z</time>
      </trkpt>
      <trkpt lat="41.652583360" lon="2.594601690">
        <ele>437.80</ele>
        <time>2014-04-06T09:09:56Z</time>
      </trkpt>
      <trkpt lat="41.652598450" lon="2.594598340">
        <ele>438.00</ele>
        <time>2014-04-06T09:09:57Z</time>
      </trkpt>
      <trkpt lat="41.652615050" lon="2.594595160">
        <ele>438.20</ele>
        <time>2014-04-06T09:09:58Z</time>
      </trkpt>
      <trkpt lat="41.652631810" lon="2.594590130">
        <ele>438.40</ele>
        <time>2014-04-06T09:09:59Z</time>
      </trkpt>
      <trkpt lat="41.652646730" lon="2.594590130">
        <ele>438.70</ele>
        <time>2014-04-06T09:10:00Z</time>
      </trkpt>
      <trkpt lat="41.652661820" lon="2.594588450">
        <ele>438.90</ele>
        <time>2014-04-06T09:10:01Z</time>
      </trkpt>
      <trkpt lat="41.652676740" lon="2.594588450">
        <ele>439.00</ele>
        <time>2014-04-06T09:10:02Z</time>
      </trkpt>
      <trkpt lat="41.652690150" lon="2.594586770">
        <ele>439.20</ele>
        <time>2014-04-06T09:10:03Z</time>
      </trkpt>
      <trkpt lat="41.652705070" lon="2.594585100">
        <ele>439.30</ele>
        <time>2014-04-06T09:10:04Z</time>
      </trkpt>
      <trkpt lat="41.652720160" lon="2.594581740">
        <ele>439.50</ele>
        <time>2014-04-06T09:10:05Z</time>
      </trkpt>
      <trkpt lat="41.652733400" lon="2.594580070">
        <ele>439.50</ele>
        <time>2014-04-06T09:10:06Z</time>
      </trkpt>
      <trkpt lat="41.652746810" lon="2.594576720">
        <ele>439.50</ele>
        <time>2014-04-06T09:10:07Z</time>
      </trkpt>
      <trkpt lat="41.652758380" lon="2.594576720">
        <ele>439.50</ele>
        <time>2014-04-06T09:10:08Z</time>
      </trkpt>
      <trkpt lat="41.652773460" lon="2.594575040">
        <ele>439.50</ele>
        <time>2014-04-06T09:10:09Z</time>
      </trkpt>
      <trkpt lat="41.652786710" lon="2.594575040">
        <ele>439.90</ele>
        <time>2014-04-06T09:10:10Z</time>
      </trkpt>
      <trkpt lat="41.652798440" lon="2.594573360">
        <ele>440.20</ele>
        <time>2014-04-06T09:10:11Z</time>
      </trkpt>
      <trkpt lat="41.652811690" lon="2.594571690">
        <ele>440.50</ele>
        <time>2014-04-06T09:10:12Z</time>
      </trkpt>
      <trkpt lat="41.652825100" lon="2.594570010">
        <ele>440.20</ele>
        <time>2014-04-06T09:10:13Z</time>
      </trkpt>
      <trkpt lat="41.652838340" lon="2.594568330">
        <ele>440.00</ele>
        <time>2014-04-06T09:10:14Z</time>
      </trkpt>
      <trkpt lat="41.652853430" lon="2.594568330">
        <ele>440.70</ele>
        <time>2014-04-06T09:10:15Z</time>
      </trkpt>
      <trkpt lat="41.652865000" lon="2.594568330">
        <ele>441.20</ele>
        <time>2014-04-06T09:10:16Z</time>
      </trkpt>
      <trkpt lat="41.652878410" lon="2.594568330">
        <ele>441.30</ele>
        <time>2014-04-06T09:10:17Z</time>
      </trkpt>
      <trkpt lat="41.652891820" lon="2.594568330">
        <ele>441.40</ele>
        <time>2014-04-06T09:10:18Z</time>
      </trkpt>
      <trkpt lat="41.652905060" lon="2.594571690">
        <ele>441.40</ele>
        <time>2014-04-06T09:10:19Z</time>
      </trkpt>
      <trkpt lat="41.652916800" lon="2.594573360">
        <ele>441.40</ele>
        <time>2014-04-06T09:10:20Z</time>
      </trkpt>
      <trkpt lat="41.652928360" lon="2.594573360">
        <ele>441.30</ele>
        <time>2014-04-06T09:10:21Z</time>
      </trkpt>
      <trkpt lat="41.652941770" lon="2.594573360">
        <ele>441.50</ele>
        <time>2014-04-06T09:10:22Z</time>
      </trkpt>
      <trkpt lat="41.652955020" lon="2.594575040">
        <ele>441.60</ele>
        <time>2014-04-06T09:10:23Z</time>
      </trkpt>
      <trkpt lat="41.652968430" lon="2.594578390">
        <ele>441.70</ele>
        <time>2014-04-06T09:10:24Z</time>
      </trkpt>
      <trkpt lat="41.652981670" lon="2.594580070">
        <ele>441.70</ele>
        <time>2014-04-06T09:10:25Z</time>
      </trkpt>
      <trkpt lat="41.652995080" lon="2.594583420">
        <ele>441.70</ele>
        <time>2014-04-06T09:10:26Z</time>
      </trkpt>
      <trkpt lat="41.653010000" lon="2.594586770">
        <ele>441.90</ele>
        <time>2014-04-06T09:10:27Z</time>
      </trkpt>
      <trkpt lat="41.653023410" lon="2.594590130">
        <ele>442.10</ele>
        <time>2014-04-06T09:10:28Z</time>
      </trkpt>
      <trkpt lat="41.653036820" lon="2.594590130">
        <ele>442.30</ele>
        <time>2014-04-06T09:10:29Z</time>
      </trkpt>
      <trkpt lat="41.653051740" lon="2.594590130">
        <ele>442.50</ele>
        <time>2014-04-06T09:10:30Z</time>
      </trkpt>
      <trkpt lat="41.653065150" lon="2.594591800">
        <ele>442.60</ele>
        <time>2014-04-06T09:10:31Z</time>
      </trkpt>
      <trkpt lat="41.653076720" lon="2.594595160">
        <ele>442.70</ele>
        <time>2014-04-06T09:10:32Z</time>
      </trkpt>
      <trkpt lat="41.653091810" lon="2.594593480">
        <ele>442.80</ele>
        <time>2014-04-06T09:10:33Z</time>
      </trkpt>
      <trkpt lat="41.653108410" lon="2.594596660">
        <ele>443.00</ele>
        <time>2014-04-06T09:10:34Z</time>
      </trkpt>
      <trkpt lat="41.653125000" lon="2.594603370">
        <ele>443.20</ele>
        <time>2014-04-06T09:10:35Z</time>
      </trkpt>
      <trkpt lat="41.653140090" lon="2.594610080">
        <ele>443.30</ele>
        <time>2014-04-06T09:10:36Z</time>
      </trkpt>
      <trkpt lat="41.653156690" lon="2.594620130">
        <ele>443.40</ele>
        <time>2014-04-06T09:10:37Z</time>
      </trkpt>
      <trkpt lat="41.653170100" lon="2.594631700">
        <ele>443.50</ele>
        <time>2014-04-06T09:10:38Z</time>
      </trkpt>
      <trkpt lat="41.653180150" lon="2.594648460">
        <ele>443.40</ele>
        <time>2014-04-06T09:10:39Z</time>
      </trkpt>
      <trkpt lat="41.653185020" lon="2.594666740">
        <ele>443.40</ele>
        <time>2014-04-06T09:10:40Z</time>
      </trkpt>
      <trkpt lat="41.653188370" lon="2.594686690">
        <ele>443.70</ele>
        <time>2014-04-06T09:10:41Z</time>
      </trkpt>
      <trkpt lat="41.653188370" lon="2.594706800">
        <ele>443.90</ele>
        <time>2014-04-06T09:10:42Z</time>
      </trkpt>
      <trkpt lat="41.653186690" lon="2.594725070">
        <ele>444.00</ele>
        <time>2014-04-06T09:10:43Z</time>
      </trkpt>
      <trkpt lat="41.653183340" lon="2.594743350">
        <ele>444.20</ele>
        <time>2014-04-06T09:10:44Z</time>
      </trkpt>
      <trkpt lat="41.653175130" lon="2.594760110">
        <ele>444.20</ele>
        <time>2014-04-06T09:10:45Z</time>
      </trkpt>
      <trkpt lat="41.653171770" lon="2.594776710">
        <ele>444.30</ele>
        <time>2014-04-06T09:10:46Z</time>
      </trkpt>
      <trkpt lat="41.653170100" lon="2.594795150">
        <ele>444.30</ele>
        <time>2014-04-06T09:10:47Z</time>
      </trkpt>
      <trkpt lat="41.653168420" lon="2.594815100">
        <ele>444.50</ele>
        <time>2014-04-06T09:10:48Z</time>
      </trkpt>
      <trkpt lat="41.653170100" lon="2.594836720">
        <ele>444.60</ele>
        <time>2014-04-06T09:10:49Z</time>
      </trkpt>
      <trkpt lat="41.653171770" lon="2.594858350">
        <ele>444.70</ele>
        <time>2014-04-06T09:10:50Z</time>
      </trkpt>
      <trkpt lat="41.653175130" lon="2.594878460">
        <ele>445.10</ele>
        <time>2014-04-06T09:10:51Z</time>
      </trkpt>
      <trkpt lat="41.653181660" lon="2.594900090">
        <ele>445.50</ele>
        <time>2014-04-06T09:10:52Z</time>
      </trkpt>
      <trkpt lat="41.653190050" lon="2.594920040">
        <ele>445.50</ele>
        <time>2014-04-06T09:10:53Z</time>
      </trkpt>
      <trkpt lat="41.653198430" lon="2.594940150">
        <ele>445.60</ele>
        <time>2014-04-06T09:10:54Z</time>
      </trkpt>
      <trkpt lat="41.653210160" lon="2.594955070">
        <ele>445.60</ele>
        <time>2014-04-06T09:10:55Z</time>
      </trkpt>
      <trkpt lat="41.653225080" lon="2.594971670">
        <ele>445.50</ele>
        <time>2014-04-06T09:10:56Z</time>
      </trkpt>
      <trkpt lat="41.653240000" lon="2.594978380">
        <ele>445.40</ele>
        <time>2014-04-06T09:10:57Z</time>
      </trkpt>
      <trkpt lat="41.653256770" lon="2.594983410">
        <ele>445.10</ele>
        <time>2014-04-06T09:10:58Z</time>
      </trkpt>
      <trkpt lat="41.653273360" lon="2.594990110">
        <ele>444.90</ele>
        <time>2014-04-06T09:10:59Z</time>
      </trkpt>
      <trkpt lat="41.653291800" lon="2.594996820">
        <ele>444.90</ele>
        <time>2014-04-06T09:11:00Z</time>
      </trkpt>
      <trkpt lat="41.653308400" lon="2.595003350">
        <ele>445.00</ele>
        <time>2014-04-06T09:11:01Z</time>
      </trkpt>
      <trkpt lat="41.653325160" lon="2.595011740">
        <ele>445.00</ele>
        <time>2014-04-06T09:11:02Z</time>
      </trkpt>
      <trkpt lat="41.653343430" lon="2.595016770">
        <ele>445.00</ele>
        <time>2014-04-06T09:11:03Z</time>
      </trkpt>
      <trkpt lat="41.653358350" lon="2.595018440">
        <ele>445.10</ele>
        <time>2014-04-06T09:11:04Z</time>
      </trkpt>
      <trkpt lat="41.653371760" lon="2.595021790">
        <ele>445.40</ele>
        <time>2014-04-06T09:11:05Z</time>
      </trkpt>
      <trkpt lat="41.653388360" lon="2.595023470">
        <ele>445.60</ele>
        <time>2014-04-06T09:11:06Z</time>
      </trkpt>
      <trkpt lat="41.653403450" lon="2.595023470">
        <ele>445.80</ele>
        <time>2014-04-06T09:11:07Z</time>
      </trkpt>
      <trkpt lat="41.653420040" lon="2.595023470">
        <ele>446.00</ele>
        <time>2014-04-06T09:11:08Z</time>
      </trkpt>
      <trkpt lat="41.653436810" lon="2.595023470">
        <ele>446.10</ele>
        <time>2014-04-06T09:11:09Z</time>
      </trkpt>
      <trkpt lat="41.653453400" lon="2.595023470">
        <ele>446.60</ele>
        <time>2014-04-06T09:11:10Z</time>
      </trkpt>
      <trkpt lat="41.653470000" lon="2.595023470">
        <ele>447.00</ele>
        <time>2014-04-06T09:11:11Z</time>
      </trkpt>
      <trkpt lat="41.653486760" lon="2.595023470">
        <ele>447.10</ele>
        <time>2014-04-06T09:11:12Z</time>
      </trkpt>
      <trkpt lat="41.653500010" lon="2.595023470">
        <ele>447.20</ele>
        <time>2014-04-06T09:11:13Z</time>
      </trkpt>
      <trkpt lat="41.653515100" lon="2.595021790">
        <ele>447.30</ele>
        <time>2014-04-06T09:11:14Z</time>
      </trkpt>
      <trkpt lat="41.653531690" lon="2.595018440">
        <ele>447.30</ele>
        <time>2014-04-06T09:11:15Z</time>
      </trkpt>
      <trkpt lat="41.653548460" lon="2.595016770">
        <ele>447.30</ele>
        <time>2014-04-06T09:11:16Z</time>
      </trkpt>
      <trkpt lat="41.653563380" lon="2.595016770">
        <ele>447.40</ele>
        <time>2014-04-06T09:11:17Z</time>
      </trkpt>
      <trkpt lat="41.653580140" lon="2.595016770">
        <ele>447.50</ele>
        <time>2014-04-06T09:11:18Z</time>
      </trkpt>
      <trkpt lat="41.653595060" lon="2.595018440">
        <ele>447.60</ele>
        <time>2014-04-06T09:11:19Z</time>
      </trkpt>
      <trkpt lat="41.653611820" lon="2.595021790">
        <ele>447.60</ele>
        <time>2014-04-06T09:11:20Z</time>
      </trkpt>
      <trkpt lat="41.653626740" lon="2.595028330">
        <ele>447.60</ele>
        <time>2014-04-06T09:11:21Z</time>
      </trkpt>
      <trkpt lat="41.653640150" lon="2.595033360">
        <ele>448.20</ele>
        <time>2014-04-06T09:11:22Z</time>
      </trkpt>
      <trkpt lat="41.653655070" lon="2.595040070">
        <ele>448.60</ele>
        <time>2014-04-06T09:11:23Z</time>
      </trkpt>
      <trkpt lat="41.653670160" lon="2.595046770">
        <ele>448.90</ele>
        <time>2014-04-06T09:11:24Z</time>
      </trkpt>
      <trkpt lat="41.653685080" lon="2.595055150">
        <ele>449.10</ele>
        <time>2014-04-06T09:11:25Z</time>
      </trkpt>
      <trkpt lat="41.653700000" lon="2.595065040">
        <ele>449.20</ele>
        <time>2014-04-06T09:11:26Z</time>
      </trkpt>
      <trkpt lat="41.653715090" lon="2.595075100">
        <ele>449.20</ele>
        <time>2014-04-06T09:11:27Z</time>
      </trkpt>
      <trkpt lat="41.653731680" lon="2.595088350">
        <ele>449.20</ele>
        <time>2014-04-06T09:11:28Z</time>
      </trkpt>
      <trkpt lat="41.653748450" lon="2.595101760">
        <ele>449.10</ele>
        <time>2014-04-06T09:11:29Z</time>
      </trkpt>
      <trkpt lat="41.653763370" lon="2.595118350">
        <ele>449.00</ele>
        <time>2014-04-06T09:11:30Z</time>
      </trkpt>
      <trkpt lat="41.653776780" lon="2.595131760">
        <ele>449.30</ele>
        <time>2014-04-06T09:11:31Z</time>
      </trkpt>
      <trkpt lat="41.653791700" lon="2.595145010">
        <ele>449.50</ele>
        <time>2014-04-06T09:11:32Z</time>
      </trkpt>
      <trkpt lat="41.653806790" lon="2.595156740">
        <ele>449.50</ele>
        <time>2014-04-06T09:11:33Z</time>
      </trkpt>
      <trkpt lat="41.653820030" lon="2.595171660">
        <ele>449.50</ele>
        <time>2014-04-06T09:11:34Z</time>
      </trkpt>
      <trkpt lat="41.653836790" lon="2.595188430">
        <ele>449.50</ele>
        <time>2014-04-06T09:11:35Z</time>
      </trkpt>
      <trkpt lat="41.653851710" lon="2.595205020">
        <ele>449.60</ele>
        <time>2014-04-06T09:11:36Z</time>
      </trkpt>
      <trkpt lat="41.653866800" lon="2.595221790">
        <ele>449.70</ele>
        <time>2014-04-06T09:11:37Z</time>
      </trkpt>
      <trkpt lat="41.653885070" lon="2.595238380">
        <ele>449.40</ele>
        <time>2014-04-06T09:11:38Z</time>
      </trkpt>
      <trkpt lat="41.653900160" lon="2.595256820">
        <ele>449.20</ele>
        <time>2014-04-06T09:11:39Z</time>
      </trkpt>
      <trkpt lat="41.653915080" lon="2.595271740">
        <ele>449.00</ele>
        <time>2014-04-06T09:11:40Z</time>
      </trkpt>
      <trkpt lat="41.653928490" lon="2.595288340">
        <ele>449.30</ele>
        <time>2014-04-06T09:11:41Z</time>
      </trkpt>
      <trkpt lat="41.653938380" lon="2.595308460">
        <ele>449.40</ele>
        <time>2014-04-06T09:11:42Z</time>
      </trkpt>
      <trkpt lat="41.653945090" lon="2.595326730">
        <ele>449.50</ele>
        <time>2014-04-06T09:11:43Z</time>
      </trkpt>
      <trkpt lat="41.653953470" lon="2.595343490">
        <ele>449.60</ele>
        <time>2014-04-06T09:11:44Z</time>
      </trkpt>
      <trkpt lat="41.653961680" lon="2.595356740">
        <ele>449.70</ele>
        <time>2014-04-06T09:11:45Z</time>
      </trkpt>
      <trkpt lat="41.653963360" lon="2.595373330">
        <ele>449.70</ele>
        <time>2014-04-06T09:11:46Z</time>
      </trkpt>
      <trkpt lat="41.653966710" lon="2.595396800">
        <ele>449.80</ele>
        <time>2014-04-06T09:11:47Z</time>
      </trkpt>
      <trkpt lat="41.653971740" lon="2.595426810">
        <ele>449.60</ele>
        <time>2014-04-06T09:11:48Z</time>
      </trkpt>
      <trkpt lat="41.653978450" lon="2.595460000">
        <ele>449.40</ele>
        <time>2014-04-06T09:11:49Z</time>
      </trkpt>
      <trkpt lat="41.653986830" lon="2.595500070">
        <ele>449.70</ele>
        <time>2014-04-06T09:11:50Z</time>
      </trkpt>
      <trkpt lat="41.653991690" lon="2.595550020">
        <ele>449.90</ele>
        <time>2014-04-06T09:11:51Z</time>
      </trkpt>
      <trkpt lat="41.653985150" lon="2.595596790">
        <ele>449.40</ele>
        <time>2014-04-06T09:11:52Z</time>
      </trkpt>
      <trkpt lat="41.653968390" lon="2.595638370">
        <ele>449.10</ele>
        <time>2014-04-06T09:11:53Z</time>
      </trkpt>
      <trkpt lat="41.653950120" lon="2.595663350">
        <ele>448.90</ele>
        <time>2014-04-06T09:11:54Z</time>
      </trkpt>
      <trkpt lat="41.653935030" lon="2.595681790">
        <ele>449.10</ele>
        <time>2014-04-06T09:11:55Z</time>
      </trkpt>
      <trkpt lat="41.653920110" lon="2.595693350">
        <ele>449.30</ele>
        <time>2014-04-06T09:11:56Z</time>
      </trkpt>
      <trkpt lat="41.653908370" lon="2.595701730">
        <ele>449.20</ele>
        <time>2014-04-06T09:11:57Z</time>
      </trkpt>
      <trkpt lat="41.653898480" lon="2.595705090">
        <ele>449.10</ele>
        <time>2014-04-06T09:11:58Z</time>
      </trkpt>
      <trkpt lat="41.653886750" lon="2.595710120">
        <ele>449.00</ele>
        <time>2014-04-06T09:11:59Z</time>
      </trkpt>
      <trkpt lat="41.653875010" lon="2.595718330">
        <ele>448.90</ele>
        <time>2014-04-06T09:12:00Z</time>
      </trkpt>
      <trkpt lat="41.653865120" lon="2.595726710">
        <ele>448.90</ele>
        <time>2014-04-06T09:12:01Z</time>
      </trkpt>
      <trkpt lat="41.653856740" lon="2.595740120">
        <ele>449.00</ele>
        <time>2014-04-06T09:12:02Z</time>
      </trkpt>
      <trkpt lat="41.653846680" lon="2.595753370">
        <ele>449.10</ele>
        <time>2014-04-06T09:12:03Z</time>
      </trkpt>
      <trkpt lat="41.653840150" lon="2.595768450">
        <ele>449.50</ele>
        <time>2014-04-06T09:12:04Z</time>
      </trkpt>
      <trkpt lat="41.653836790" lon="2.595783370">
        <ele>449.90</ele>
        <time>2014-04-06T09:12:05Z</time>
      </trkpt>
      <trkpt lat="41.653833440" lon="2.595800140">
        <ele>450.10</ele>
        <time>2014-04-06T09:12:06Z</time>
      </trkpt>
      <trkpt lat="41.653830090" lon="2.595818410">
        <ele>449.80</ele>
        <time>2014-04-06T09:12:07Z</time>
      </trkpt>
      <trkpt lat="41.653826730" lon="2.595838360">
        <ele>449.60</ele>
        <time>2014-04-06T09:12:08Z</time>
      </trkpt>
      <trkpt lat="41.653826730" lon="2.595856800">
        <ele>449.80</ele>
        <time>2014-04-06T09:12:09Z</time>
      </trkpt>
      <trkpt lat="41.653828410" lon="2.595875070">
        <ele>450.00</ele>
        <time>2014-04-06T09:12:10Z</time>
      </trkpt>
      <trkpt lat="41.653828410" lon="2.595896700">
        <ele>450.10</ele>
        <time>2014-04-06T09:12:11Z</time>
      </trkpt>
      <trkpt lat="41.653825060" lon="2.595916810">
        <ele>450.10</ele>
        <time>2014-04-06T09:12:12Z</time>
      </trkpt>
      <trkpt lat="41.653825060" lon="2.595935090">
        <ele>450.10</ele>
        <time>2014-04-06T09:12:13Z</time>
      </trkpt>
      <trkpt lat="41.653826730" lon="2.595955040">
        <ele>449.80</ele>
        <time>2014-04-06T09:12:14Z</time>
      </trkpt>
      <trkpt lat="41.653826730" lon="2.595975150">
        <ele>449.60</ele>
        <time>2014-04-06T09:12:15Z</time>
      </trkpt>
      <trkpt lat="41.653826730" lon="2.595993420">
        <ele>449.70</ele>
        <time>2014-04-06T09:12:16Z</time>
      </trkpt>
      <trkpt lat="41.653826730" lon="2.596013370">
        <ele>449.80</ele>
        <time>2014-04-06T09:12:17Z</time>
      </trkpt>
      <trkpt lat="41.653825060" lon="2.596036680">
        <ele>449.90</ele>
        <time>2014-04-06T09:12:18Z</time>
      </trkpt>
      <trkpt lat="41.653821710" lon="2.596060140">
        <ele>449.80</ele>
        <time>2014-04-06T09:12:19Z</time>
      </trkpt>
      <trkpt lat="41.653820030" lon="2.596085120">
        <ele>449.70</ele>
        <time>2014-04-06T09:12:20Z</time>
      </trkpt>
      <trkpt lat="41.653818350" lon="2.596106750">
        <ele>450.10</ele>
        <time>2014-04-06T09:12:21Z</time>
      </trkpt>
      <trkpt lat="41.653815000" lon="2.596130050">
        <ele>450.40</ele>
        <time>2014-04-06T09:12:22Z</time>
      </trkpt>
      <trkpt lat="41.653813490" lon="2.596151670">
        <ele>450.20</ele>
        <time>2014-04-06T09:12:23Z</time>
      </trkpt>
      <trkpt lat="41.653813490" lon="2.596173470">
        <ele>450.10</ele>
        <time>2014-04-06T09:12:24Z</time>
      </trkpt>
      <trkpt lat="41.653815000" lon="2.596195090">
        <ele>449.90</ele>
        <time>2014-04-06T09:12:25Z</time>
      </trkpt>
      <trkpt lat="41.653816680" lon="2.596213370">
        <ele>450.20</ele>
        <time>2014-04-06T09:12:26Z</time>
      </trkpt>
      <trkpt lat="41.653816680" lon="2.596231810">
        <ele>450.30</ele>
        <time>2014-04-06T09:12:27Z</time>
      </trkpt>
      <trkpt lat="41.653818350" lon="2.596253430">
        <ele>450.30</ele>
        <time>2014-04-06T09:12:28Z</time>
      </trkpt>
      <trkpt lat="41.653820030" lon="2.596271700">
        <ele>450.20</ele>
        <time>2014-04-06T09:12:29Z</time>
      </trkpt>
      <trkpt lat="41.653821710" lon="2.596291820">
        <ele>450.20</ele>
        <time>2014-04-06T09:12:30Z</time>
      </trkpt>
      <trkpt lat="41.653821710" lon="2.596313450">
        <ele>450.50</ele>
        <time>2014-04-06T09:12:31Z</time>
      </trkpt>
      <trkpt lat="41.653820030" lon="2.596333390">
        <ele>450.80</ele>
        <time>2014-04-06T09:12:32Z</time>
      </trkpt>
      <trkpt lat="41.653820030" lon="2.596353340">
        <ele>451.20</ele>
        <time>2014-04-06T09:12:33Z</time>
      </trkpt>
      <trkpt lat="41.653820030" lon="2.596373460">
        <ele>451.40</ele>
        <time>2014-04-06T09:12:34Z</time>
      </trkpt>
      <trkpt lat="41.653821710" lon="2.596393410">
        <ele>451.30</ele>
        <time>2014-04-06T09:12:35Z</time>
      </trkpt>
      <trkpt lat="41.653823380" lon="2.596416710">
        <ele>451.30</ele>
        <time>2014-04-06T09:12:36Z</time>
      </trkpt>
      <trkpt lat="41.653823380" lon="2.596440010">
        <ele>451.20</ele>
        <time>2014-04-06T09:12:37Z</time>
      </trkpt>
      <trkpt lat="41.653825060" lon="2.596461810">
        <ele>451.20</ele>
        <time>2014-04-06T09:12:38Z</time>
      </trkpt>
      <trkpt lat="41.653826730" lon="2.596483430">
        <ele>451.10</ele>
        <time>2014-04-06T09:12:39Z</time>
      </trkpt>
      <trkpt lat="41.653830090" lon="2.596503380">
        <ele>451.20</ele>
        <time>2014-04-06T09:12:40Z</time>
      </trkpt>
      <trkpt lat="41.653833440" lon="2.596525000">
        <ele>451.30</ele>
        <time>2014-04-06T09:12:41Z</time>
      </trkpt>
      <trkpt lat="41.653838470" lon="2.596543440">
        <ele>451.20</ele>
        <time>2014-04-06T09:12:42Z</time>
      </trkpt>
      <trkpt lat="41.653843330" lon="2.596561720">
        <ele>451.20</ele>
        <time>2014-04-06T09:12:43Z</time>
      </trkpt>
      <trkpt lat="41.653850040" lon="2.596580160">
        <ele>451.20</ele>
        <time>2014-04-06T09:12:44Z</time>
      </trkpt>
      <trkpt lat="41.653855070" lon="2.596598430">
        <ele>451.50</ele>
        <time>2014-04-06T09:12:45Z</time>
      </trkpt>
      <trkpt lat="41.653861770" lon="2.596616700">
        <ele>451.70</ele>
        <time>2014-04-06T09:12:46Z</time>
      </trkpt>
      <trkpt lat="41.653868480" lon="2.596638500">
        <ele>452.10</ele>
        <time>2014-04-06T09:12:47Z</time>
      </trkpt>
      <trkpt lat="41.653875010" lon="2.596661800">
        <ele>452.40</ele>
        <time>2014-04-06T09:12:48Z</time>
      </trkpt>
      <trkpt lat="41.653881720" lon="2.596683420">
        <ele>452.40</ele>
        <time>2014-04-06T09:12:49Z</time>
      </trkpt>
      <trkpt lat="41.653888430" lon="2.596703370">
        <ele>452.40</ele>
        <time>2014-04-06T09:12:50Z</time>
      </trkpt>
      <trkpt lat="41.653895130" lon="2.596720140">
        <ele>452.40</ele>
        <time>2014-04-06T09:12:51Z</time>
      </trkpt>
      <trkpt lat="41.653903350" lon="2.596736730">
        <ele>452.70</ele>
        <time>2014-04-06T09:12:52Z</time>
      </trkpt>
      <trkpt lat="41.653910050" lon="2.596751820">
        <ele>452.80</ele>
        <time>2014-04-06T09:12:53Z</time>
      </trkpt>
      <trkpt lat="41.653918430" lon="2.596768420">
        <ele>453.00</ele>
        <time>2014-04-06T09:12:54Z</time>
      </trkpt>
      <trkpt lat="41.653926810" lon="2.596785010">
        <ele>453.10</ele>
        <time>2014-04-06T09:12:55Z</time>
      </trkpt>
      <trkpt lat="41.653935030" lon="2.596800100">
        <ele>453.20</ele>
        <time>2014-04-06T09:12:56Z</time>
      </trkpt>
      <trkpt lat="41.653945090" lon="2.596813340">
        <ele>453.30</ele>
        <time>2014-04-06T09:12:57Z</time>
      </trkpt>
      <trkpt lat="41.653953470" lon="2.596823400">
        <ele>453.40</ele>
        <time>2014-04-06T09:12:58Z</time>
      </trkpt>
      <trkpt lat="41.653963360" lon="2.596836810">
        <ele>453.50</ele>
        <time>2014-04-06T09:12:59Z</time>
      </trkpt>
      <trkpt lat="41.653973420" lon="2.596848380">
        <ele>453.60</ele>
        <time>2014-04-06T09:13:00Z</time>
      </trkpt>
      <trkpt lat="41.653985150" lon="2.596860110">
        <ele>453.50</ele>
        <time>2014-04-06T09:13:01Z</time>
      </trkpt>
      <trkpt lat="41.653996720" lon="2.596875030">
        <ele>453.50</ele>
        <time>2014-04-06T09:13:02Z</time>
      </trkpt>
      <trkpt lat="41.654006780" lon="2.596888440">
        <ele>453.40</ele>
        <time>2014-04-06T09:13:03Z</time>
      </trkpt>
      <trkpt lat="41.654016670" lon="2.596901690">
        <ele>453.50</ele>
        <time>2014-04-06T09:13:04Z</time>
      </trkpt>
      <trkpt lat="41.654028400" lon="2.596916770">
        <ele>453.50</ele>
        <time>2014-04-06T09:13:05Z</time>
      </trkpt>
      <trkpt lat="41.654038460" lon="2.596933370">
        <ele>454.10</ele>
        <time>2014-04-06T09:13:06Z</time>
      </trkpt>
      <trkpt lat="41.654050030" lon="2.596946780">
        <ele>454.50</ele>
        <time>2014-04-06T09:13:07Z</time>
      </trkpt>
      <trkpt lat="41.654061760" lon="2.596968410">
        <ele>454.60</ele>
        <time>2014-04-06T09:13:08Z</time>
      </trkpt>
      <trkpt lat="41.654065120" lon="2.596996740">
        <ele>454.70</ele>
        <time>2014-04-06T09:13:09Z</time>
      </trkpt>
      <trkpt lat="41.654061760" lon="2.597031770">
        <ele>454.70</ele>
        <time>2014-04-06T09:13:10Z</time>
      </trkpt>
      <trkpt lat="41.654050030" lon="2.597061780">
        <ele>455.20</ele>
        <time>2014-04-06T09:13:11Z</time>
      </trkpt>
      <trkpt lat="41.654036790" lon="2.597085080">
        <ele>455.50</ele>
        <time>2014-04-06T09:13:12Z</time>
      </trkpt>
      <trkpt lat="41.654025050" lon="2.597106710">
        <ele>455.20</ele>
        <time>2014-04-06T09:13:13Z</time>
      </trkpt>
      <trkpt lat="41.654013480" lon="2.597125150">
        <ele>454.90</ele>
        <time>2014-04-06T09:13:14Z</time>
      </trkpt>
      <trkpt lat="41.654001750" lon="2.597146770">
        <ele>454.70</ele>
        <time>2014-04-06T09:13:15Z</time>
      </trkpt>
      <trkpt lat="41.653988340" lon="2.597173430">
        <ele>454.60</ele>
        <time>2014-04-06T09:13:16Z</time>
      </trkpt>
      <trkpt lat="41.653971740" lon="2.597206790">
        <ele>454.60</ele>
        <time>2014-04-06T09:13:17Z</time>
      </trkpt>
      <trkpt lat="41.653950120" lon="2.597241830">
        <ele>454.70</ele>
        <time>2014-04-06T09:13:18Z</time>
      </trkpt>
      <trkpt lat="41.653923460" lon="2.597273340">
        <ele>454.90</ele>
        <time>2014-04-06T09:13:19Z</time>
      </trkpt>
      <trkpt lat="41.653901670" lon="2.597290100">
        <ele>454.50</ele>
        <time>2014-04-06T09:13:20Z</time>
      </trkpt>
      <trkpt lat="41.653885070" lon="2.597303350">
        <ele>454.30</ele>
        <time>2014-04-06T09:13:21Z</time>
      </trkpt>
      <trkpt lat="41.653870150" lon="2.597316760">
        <ele>454.10</ele>
        <time>2014-04-06T09:13:22Z</time>
      </trkpt>
      <trkpt lat="41.653858420" lon="2.597328490">
        <ele>454.30</ele>
        <time>2014-04-06T09:13:23Z</time>
      </trkpt>
      <trkpt lat="41.653850040" lon="2.597348440">
        <ele>454.40</ele>
        <time>2014-04-06T09:13:24Z</time>
      </trkpt>
      <trkpt lat="41.653841820" lon="2.597366720">
        <ele>454.40</ele>
        <time>2014-04-06T09:13:25Z</time>
      </trkpt>
      <trkpt lat="41.653831760" lon="2.597385160">
        <ele>454.50</ele>
        <time>2014-04-06T09:13:26Z</time>
      </trkpt>
      <trkpt lat="41.653825060" lon="2.597403430">
        <ele>454.40</ele>
        <time>2014-04-06T09:13:27Z</time>
      </trkpt>
      <trkpt lat="41.653823380" lon="2.597426730">
        <ele>454.40</ele>
        <time>2014-04-06T09:13:28Z</time>
      </trkpt>
      <trkpt lat="41.653825060" lon="2.597453380">
        <ele>454.40</ele>
        <time>2014-04-06T09:13:29Z</time>
      </trkpt>
      <trkpt lat="41.653826730" lon="2.597480040">
        <ele>454.40</ele>
        <time>2014-04-06T09:13:30Z</time>
      </trkpt>
      <trkpt lat="41.653831760" lon="2.597506690">
        <ele>454.40</ele>
        <time>2014-04-06T09:13:31Z</time>
      </trkpt>
      <trkpt lat="41.653840150" lon="2.597531670">
        <ele>454.60</ele>
        <time>2014-04-06T09:13:32Z</time>
      </trkpt>
      <trkpt lat="41.653850040" lon="2.597553460">
        <ele>454.80</ele>
        <time>2014-04-06T09:13:33Z</time>
      </trkpt>
      <trkpt lat="41.653858420" lon="2.597576770">
        <ele>454.90</ele>
        <time>2014-04-06T09:13:34Z</time>
      </trkpt>
      <trkpt lat="41.653865120" lon="2.597598390">
        <ele>455.00</ele>
        <time>2014-04-06T09:13:35Z</time>
      </trkpt>
      <trkpt lat="41.653870150" lon="2.597620020">
        <ele>455.00</ele>
        <time>2014-04-06T09:13:36Z</time>
      </trkpt>
      <trkpt lat="41.653875010" lon="2.597641810">
        <ele>455.00</ele>
        <time>2014-04-06T09:13:37Z</time>
      </trkpt>
      <trkpt lat="41.653878370" lon="2.597666790">
        <ele>454.90</ele>
        <time>2014-04-06T09:13:38Z</time>
      </trkpt>
      <trkpt lat="41.653878370" lon="2.597691770">
        <ele>455.00</ele>
        <time>2014-04-06T09:13:39Z</time>
      </trkpt>
      <trkpt lat="41.653883400" lon="2.597715070">
        <ele>455.10</ele>
        <time>2014-04-06T09:13:40Z</time>
      </trkpt>
      <trkpt lat="41.653885070" lon="2.597738370">
        <ele>455.10</ele>
        <time>2014-04-06T09:13:41Z</time>
      </trkpt>
      <trkpt lat="41.653888430" lon="2.597760160">
        <ele>455.30</ele>
        <time>2014-04-06T09:13:42Z</time>
      </trkpt>
      <trkpt lat="41.653891780" lon="2.597783460">
        <ele>455.40</ele>
        <time>2014-04-06T09:13:43Z</time>
      </trkpt>
      <trkpt lat="41.653895130" lon="2.597805090">
        <ele>455.60</ele>
        <time>2014-04-06T09:13:44Z</time>
      </trkpt>
      <trkpt lat="41.653896810" lon="2.597825040">
        <ele>455.80</ele>
        <time>2014-04-06T09:13:45Z</time>
      </trkpt>
      <trkpt lat="41.653898480" lon="2.597845150">
        <ele>456.00</ele>
        <time>2014-04-06T09:13:46Z</time>
      </trkpt>
      <trkpt lat="41.653898480" lon="2.597865100">
        <ele>456.10</ele>
        <time>2014-04-06T09:13:47Z</time>
      </trkpt>
      <trkpt lat="41.653900160" lon="2.597886730">
        <ele>456.20</ele>
        <time>2014-04-06T09:13:48Z</time>
      </trkpt>
      <trkpt lat="41.653900160" lon="2.597906680">
        <ele>456.00</ele>
        <time>2014-04-06T09:13:49Z</time>
      </trkpt>
      <trkpt lat="41.653900160" lon="2.597926790">
        <ele>455.90</ele>
        <time>2014-04-06T09:13:50Z</time>
      </trkpt>
      <trkpt lat="41.653903350" lon="2.597943390">
        <ele>455.80</ele>
        <time>2014-04-06T09:13:51Z</time>
      </trkpt>
      <trkpt lat="41.653905020" lon="2.597961660">
        <ele>455.70</ele>
        <time>2014-04-06T09:13:52Z</time>
      </trkpt>
      <trkpt lat="41.653906700" lon="2.597978430">
        <ele>455.70</ele>
        <time>2014-04-06T09:13:53Z</time>
      </trkpt>
      <trkpt lat="41.653908370" lon="2.597998380">
        <ele>455.60</ele>
        <time>2014-04-06T09:13:54Z</time>
      </trkpt>
      <trkpt lat="41.653906700" lon="2.598018490">
        <ele>455.60</ele>
        <time>2014-04-06T09:13:55Z</time>
      </trkpt>
      <trkpt lat="41.653906700" lon="2.598036760">
        <ele>456.10</ele>
        <time>2014-04-06T09:13:56Z</time>
      </trkpt>
      <trkpt lat="41.653908370" lon="2.598055040">
        <ele>456.50</ele>
        <time>2014-04-06T09:13:57Z</time>
      </trkpt>
      <trkpt lat="41.653910050" lon="2.598075150">
        <ele>456.80</ele>
        <time>2014-04-06T09:13:58Z</time>
      </trkpt>
      <trkpt lat="41.653911730" lon="2.598096780">
        <ele>457.00</ele>
        <time>2014-04-06T09:13:59Z</time>
      </trkpt>
      <trkpt lat="41.653913400" lon="2.598116730">
        <ele>457.20</ele>
        <time>2014-04-06T09:14:00Z</time>
      </trkpt>
      <trkpt lat="41.653918430" lon="2.598133490">
        <ele>457.10</ele>
        <time>2014-04-06T09:14:01Z</time>
      </trkpt>
      <trkpt lat="41.653920110" lon="2.598153440">
        <ele>457.00</ele>
        <time>2014-04-06T09:14:02Z</time>
      </trkpt>
      <trkpt lat="41.653923460" lon="2.598171710">
        <ele>457.00</ele>
        <time>2014-04-06T09:14:03Z</time>
      </trkpt>
      <trkpt lat="41.653925140" lon="2.598193340">
        <ele>457.00</ele>
        <time>2014-04-06T09:14:04Z</time>
      </trkpt>
      <trkpt lat="41.653926810" lon="2.598216810">
        <ele>457.30</ele>
        <time>2014-04-06T09:14:05Z</time>
      </trkpt>
      <trkpt lat="41.653928490" lon="2.598240110">
        <ele>457.50</ele>
        <time>2014-04-06T09:14:06Z</time>
      </trkpt>
      <trkpt lat="41.653931680" lon="2.598265090">
        <ele>457.70</ele>
        <time>2014-04-06T09:14:07Z</time>
      </trkpt>
      <trkpt lat="41.653931680" lon="2.598291740">
        <ele>457.60</ele>
        <time>2014-04-06T09:14:08Z</time>
      </trkpt>
      <trkpt lat="41.653933350" lon="2.598321750">
        <ele>457.50</ele>
        <time>2014-04-06T09:14:09Z</time>
      </trkpt>
      <trkpt lat="41.653936710" lon="2.598351760">
        <ele>457.80</ele>
        <time>2014-04-06T09:14:10Z</time>
      </trkpt>
      <trkpt lat="41.653940060" lon="2.598378410">
        <ele>457.90</ele>
        <time>2014-04-06T09:14:11Z</time>
      </trkpt>
      <trkpt lat="41.653945090" lon="2.598403390">
        <ele>458.00</ele>
        <time>2014-04-06T09:14:12Z</time>
      </trkpt>
      <trkpt lat="41.653950120" lon="2.598425010">
        <ele>458.10</ele>
        <time>2014-04-06T09:14:13Z</time>
      </trkpt>
      <trkpt lat="41.653955150" lon="2.598448480">
        <ele>458.20</ele>
        <time>2014-04-06T09:14:14Z</time>
      </trkpt>
      <trkpt lat="41.653958330" lon="2.598471790">
        <ele>458.40</ele>
        <time>2014-04-06T09:14:15Z</time>
      </trkpt>
      <trkpt lat="41.653961680" lon="2.598495090">
        <ele>458.50</ele>
        <time>2014-04-06T09:14:16Z</time>
      </trkpt>
      <trkpt lat="41.653968390" lon="2.598516710">
        <ele>458.90</ele>
        <time>2014-04-06T09:14:17Z</time>
      </trkpt>
      <trkpt lat="41.653978450" lon="2.598536830">
        <ele>459.20</ele>
        <time>2014-04-06T09:14:18Z</time>
      </trkpt>
      <trkpt lat="41.653985150" lon="2.598560130">
        <ele>459.50</ele>
        <time>2014-04-06T09:14:19Z</time>
      </trkpt>
      <trkpt lat="41.653991690" lon="2.598581760">
        <ele>459.50</ele>
        <time>2014-04-06T09:14:20Z</time>
      </trkpt>
      <trkpt lat="41.654000070" lon="2.598603380">
        <ele>459.60</ele>
        <time>2014-04-06T09:14:21Z</time>
      </trkpt>
      <trkpt lat="41.654008450" lon="2.598623330">
        <ele>459.30</ele>
        <time>2014-04-06T09:14:22Z</time>
      </trkpt>
      <trkpt lat="41.654016670" lon="2.598641770">
        <ele>459.00</ele>
        <time>2014-04-06T09:14:23Z</time>
      </trkpt>
      <trkpt lat="41.654025050" lon="2.598661720">
        <ele>459.20</ele>
        <time>2014-04-06T09:14:24Z</time>
      </trkpt>
      <trkpt lat="41.654031760" lon="2.598681670">
        <ele>459.40</ele>
        <time>2014-04-06T09:14:25Z</time>
      </trkpt>
      <trkpt lat="41.654040140" lon="2.598700110">
        <ele>459.50</ele>
        <time>2014-04-06T09:14:26Z</time>
      </trkpt>
      <trkpt lat="41.654048350" lon="2.598716700">
        <ele>459.90</ele>
        <time>2014-04-06T09:14:27Z</time>
      </trkpt>
      <trkpt lat="41.654056730" lon="2.598735140">
        <ele>460.20</ele>
        <time>2014-04-06T09:14:28Z</time>
      </trkpt>
      <trkpt lat="41.654065120" lon="2.598750060">
        <ele>460.00</ele>
        <time>2014-04-06T09:14:29Z</time>
      </trkpt>
      <trkpt lat="41.654076680" lon="2.598765150">
        <ele>459.80</ele>
        <time>2014-04-06T09:14:30Z</time>
      </trkpt>
      <trkpt lat="41.654086740" lon="2.598781750">
        <ele>459.70</ele>
        <time>2014-04-06T09:14:31Z</time>
      </trkpt>
      <trkpt lat="41.654100150" lon="2.598798340">
        <ele>459.60</ele>
        <time>2014-04-06T09:14:32Z</time>
      </trkpt>
      <trkpt lat="41.654110040" lon="2.598815110">
        <ele>459.50</ele>
        <time>2014-04-06T09:14:33Z</time>
      </trkpt>
      <trkpt lat="41.654120100" lon="2.598831700">
        <ele>459.60</ele>
        <time>2014-04-06T09:14:34Z</time>
      </trkpt>
      <trkpt lat="41.654131670" lon="2.598845120">
        <ele>459.70</ele>
        <time>2014-04-06T09:14:35Z</time>
      </trkpt>
      <trkpt lat="41.654141730" lon="2.598861710">
        <ele>460.20</ele>
        <time>2014-04-06T09:14:36Z</time>
      </trkpt>
      <trkpt lat="41.654151780" lon="2.598876800">
        <ele>460.50</ele>
        <time>2014-04-06T09:14:37Z</time>
      </trkpt>
      <trkpt lat="41.654160000" lon="2.598891720">
        <ele>460.80</ele>
        <time>2014-04-06T09:14:38Z</time>
      </trkpt>
      <trkpt lat="41.654170060" lon="2.598905130">
        <ele>460.70</ele>
        <time>2014-04-06T09:14:39Z</time>
      </trkpt>
      <trkpt lat="41.654181790" lon="2.598918370">
        <ele>460.60</ele>
        <time>2014-04-06T09:14:40Z</time>
      </trkpt>
      <trkpt lat="41.654195040" lon="2.598931780">
        <ele>461.10</ele>
        <time>2014-04-06T09:14:41Z</time>
      </trkpt>
      <trkpt lat="41.654205090" lon="2.598943350">
        <ele>461.50</ele>
        <time>2014-04-06T09:14:42Z</time>
      </trkpt>
      <trkpt lat="41.654215150" lon="2.598953410">
        <ele>461.60</ele>
        <time>2014-04-06T09:14:43Z</time>
      </trkpt>
      <trkpt lat="41.654228400" lon="2.598961790">
        <ele>461.60</ele>
        <time>2014-04-06T09:14:44Z</time>
      </trkpt>
      <trkpt lat="41.654240130" lon="2.598970010">
        <ele>461.70</ele>
        <time>2014-04-06T09:14:45Z</time>
      </trkpt>
      <trkpt lat="41.654253370" lon="2.598973360">
        <ele>461.70</ele>
        <time>2014-04-06T09:14:46Z</time>
      </trkpt>
      <trkpt lat="41.654268460" lon="2.598981740">
        <ele>461.80</ele>
        <time>2014-04-06T09:14:47Z</time>
      </trkpt>
      <trkpt lat="41.654281700" lon="2.598986770">
        <ele>462.00</ele>
        <time>2014-04-06T09:14:48Z</time>
      </trkpt>
      <trkpt lat="41.654298470" lon="2.598990120">
        <ele>462.20</ele>
        <time>2014-04-06T09:14:49Z</time>
      </trkpt>
      <trkpt lat="41.654313390" lon="2.598993480">
        <ele>462.30</ele>
        <time>2014-04-06T09:14:50Z</time>
      </trkpt>
      <trkpt lat="41.654325120" lon="2.599000010">
        <ele>462.50</ele>
        <time>2014-04-06T09:14:51Z</time>
      </trkpt>
      <trkpt lat="41.654338370" lon="2.599003370">
        <ele>462.60</ele>
        <time>2014-04-06T09:14:52Z</time>
      </trkpt>
      <trkpt lat="41.654353450" lon="2.599006720">
        <ele>462.90</ele>
        <time>2014-04-06T09:14:53Z</time>
      </trkpt>
      <trkpt lat="41.654366700" lon="2.599011750">
        <ele>463.20</ele>
        <time>2014-04-06T09:14:54Z</time>
      </trkpt>
      <trkpt lat="41.654380110" lon="2.599015100">
        <ele>463.20</ele>
        <time>2014-04-06T09:14:55Z</time>
      </trkpt>
      <trkpt lat="41.654395030" lon="2.599023480">
        <ele>463.20</ele>
        <time>2014-04-06T09:14:56Z</time>
      </trkpt>
      <trkpt lat="41.654408440" lon="2.599030020">
        <ele>463.20</ele>
        <time>2014-04-06T09:14:57Z</time>
      </trkpt>
      <trkpt lat="41.654421680" lon="2.599036730">
        <ele>463.40</ele>
        <time>2014-04-06T09:14:58Z</time>
      </trkpt>
      <trkpt lat="41.654433420" lon="2.599046780">
        <ele>463.60</ele>
        <time>2014-04-06T09:14:59Z</time>
      </trkpt>
      <trkpt lat="41.654446830" lon="2.599053490">
        <ele>463.80</ele>
        <time>2014-04-06T09:15:00Z</time>
      </trkpt>
      <trkpt lat="41.654456720" lon="2.599063380">
        <ele>464.00</ele>
        <time>2014-04-06T09:15:01Z</time>
      </trkpt>
      <trkpt lat="41.654470130" lon="2.599070090">
        <ele>463.80</ele>
        <time>2014-04-06T09:15:02Z</time>
      </trkpt>
      <trkpt lat="41.654481700" lon="2.599078470">
        <ele>463.60</ele>
        <time>2014-04-06T09:15:03Z</time>
      </trkpt>
      <trkpt lat="41.654498460" lon="2.599086680">
        <ele>463.50</ele>
        <time>2014-04-06T09:15:04Z</time>
      </trkpt>
      <trkpt lat="41.654511700" lon="2.599095060">
        <ele>463.90</ele>
        <time>2014-04-06T09:15:05Z</time>
      </trkpt>
      <trkpt lat="41.654525110" lon="2.599105120">
        <ele>464.20</ele>
        <time>2014-04-06T09:15:06Z</time>
      </trkpt>
      <trkpt lat="41.654540030" lon="2.599113340">
        <ele>464.40</ele>
        <time>2014-04-06T09:15:07Z</time>
      </trkpt>
      <trkpt lat="41.654555120" lon="2.599123390">
        <ele>464.60</ele>
        <time>2014-04-06T09:15:08Z</time>
      </trkpt>
      <trkpt lat="41.654570040" lon="2.599133450">
        <ele>464.90</ele>
        <time>2014-04-06T09:15:09Z</time>
      </trkpt>
      <trkpt lat="41.654585130" lon="2.599141670">
        <ele>465.10</ele>
        <time>2014-04-06T09:15:10Z</time>
      </trkpt>
      <trkpt lat="41.654600050" lon="2.599153400">
        <ele>465.30</ele>
        <time>2014-04-06T09:15:11Z</time>
      </trkpt>
      <trkpt lat="41.654611780" lon="2.599166810">
        <ele>465.20</ele>
        <time>2014-04-06T09:15:12Z</time>
      </trkpt>
      <trkpt lat="41.654628380" lon="2.599178380">
        <ele>465.10</ele>
        <time>2014-04-06T09:15:13Z</time>
      </trkpt>
      <trkpt lat="41.654641790" lon="2.599191790">
        <ele>465.20</ele>
        <time>2014-04-06T09:15:14Z</time>
      </trkpt>
      <trkpt lat="41.654656710" lon="2.599206710">
        <ele>465.20</ele>
        <time>2014-04-06T09:15:15Z</time>
      </trkpt>
      <trkpt lat="41.654670120" lon="2.599223470">
        <ele>465.20</ele>
        <time>2014-04-06T09:15:16Z</time>
      </trkpt>
      <trkpt lat="41.654685040" lon="2.599238390">
        <ele>465.50</ele>
        <time>2014-04-06T09:15:17Z</time>
      </trkpt>
      <trkpt lat="41.654698450" lon="2.599260020">
        <ele>465.70</ele>
        <time>2014-04-06T09:15:18Z</time>
      </trkpt>
      <trkpt lat="41.654708340" lon="2.599285000">
        <ele>465.80</ele>
        <time>2014-04-06T09:15:19Z</time>
      </trkpt>
      <trkpt lat="41.654715050" lon="2.599310140">
        <ele>465.80</ele>
        <time>2014-04-06T09:15:20Z</time>
      </trkpt>
      <trkpt lat="41.654720080" lon="2.599333450">
        <ele>465.60</ele>
        <time>2014-04-06T09:15:21Z</time>
      </trkpt>
      <trkpt lat="41.654723430" lon="2.599353390">
        <ele>465.50</ele>
        <time>2014-04-06T09:15:22Z</time>
      </trkpt>
      <trkpt lat="41.654721750" lon="2.599370160">
        <ele>465.30</ele>
        <time>2014-04-06T09:15:23Z</time>
      </trkpt>
      <trkpt lat="41.654708340" lon="2.599385080">
        <ele>465.60</ele>
        <time>2014-04-06T09:15:24Z</time>
      </trkpt>
      <trkpt lat="41.654693420" lon="2.599390110">
        <ele>465.70</ele>
        <time>2014-04-06T09:15:25Z</time>
      </trkpt>
      <trkpt lat="41.654676830" lon="2.599390110">
        <ele>465.90</ele>
        <time>2014-04-06T09:15:26Z</time>
      </trkpt>
      <trkpt lat="41.654658390" lon="2.599391780">
        <ele>466.10</ele>
        <time>2014-04-06T09:15:27Z</time>
      </trkpt>
      <trkpt lat="41.654643470" lon="2.599395140">
        <ele>466.30</ele>
        <time>2014-04-06T09:15:28Z</time>
      </trkpt>
      <trkpt lat="41.654630060" lon="2.599398490">
        <ele>466.40</ele>
        <time>2014-04-06T09:15:29Z</time>
      </trkpt>
      <trkpt lat="41.654618490" lon="2.599406700">
        <ele>466.50</ele>
        <time>2014-04-06T09:15:30Z</time>
      </trkpt>
      <trkpt lat="41.654605080" lon="2.599411730">
        <ele>466.50</ele>
        <time>2014-04-06T09:15:31Z</time>
      </trkpt>
      <trkpt lat="41.654593340" lon="2.599420110">
        <ele>466.40</ele>
        <time>2014-04-06T09:15:32Z</time>
      </trkpt>
      <trkpt lat="41.654580100" lon="2.599426820">
        <ele>466.70</ele>
        <time>2014-04-06T09:15:33Z</time>
      </trkpt>
      <trkpt lat="41.654565010" lon="2.599436710">
        <ele>466.90</ele>
        <time>2014-04-06T09:15:34Z</time>
      </trkpt>
      <trkpt lat="41.654553450" lon="2.599443420">
        <ele>467.00</ele>
        <time>2014-04-06T09:15:35Z</time>
      </trkpt>
      <trkpt lat="41.654541710" lon="2.599455150">
        <ele>467.10</ele>
        <time>2014-04-06T09:15:36Z</time>
      </trkpt>
      <trkpt lat="41.654531820" lon="2.599466720">
        <ele>467.20</ele>
        <time>2014-04-06T09:15:37Z</time>
      </trkpt>
      <trkpt lat="41.654526790" lon="2.599478450">
        <ele>467.50</ele>
        <time>2014-04-06T09:15:38Z</time>
      </trkpt>
      <trkpt lat="41.654516730" lon="2.599493370">
        <ele>467.60</ele>
        <time>2014-04-06T09:15:39Z</time>
      </trkpt>
      <trkpt lat="41.654510030" lon="2.599511810">
        <ele>467.30</ele>
        <time>2014-04-06T09:15:40Z</time>
      </trkpt>
      <trkpt lat="41.654503490" lon="2.599530080">
        <ele>467.00</ele>
        <time>2014-04-06T09:15:41Z</time>
      </trkpt>
      <trkpt lat="41.654496780" lon="2.599546680">
        <ele>466.80</ele>
        <time>2014-04-06T09:15:42Z</time>
      </trkpt>
      <trkpt lat="41.654490080" lon="2.599566800">
        <ele>467.10</ele>
        <time>2014-04-06T09:15:43Z</time>
      </trkpt>
      <trkpt lat="41.654483370" lon="2.599588420">
        <ele>467.40</ele>
        <time>2014-04-06T09:15:44Z</time>
      </trkpt>
      <trkpt lat="41.654476670" lon="2.599610050">
        <ele>467.40</ele>
        <time>2014-04-06T09:15:45Z</time>
      </trkpt>
      <trkpt lat="41.654466780" lon="2.599630000">
        <ele>467.50</ele>
        <time>2014-04-06T09:15:46Z</time>
      </trkpt>
      <trkpt lat="41.654456720" lon="2.599648440">
        <ele>467.80</ele>
        <time>2014-04-06T09:15:47Z</time>
      </trkpt>
      <trkpt lat="41.654445150" lon="2.599665030">
        <ele>468.00</ele>
        <time>2014-04-06T09:15:48Z</time>
      </trkpt>
      <trkpt lat="41.654436770" lon="2.599675090">
        <ele>468.20</ele>
        <time>2014-04-06T09:15:49Z</time>
      </trkpt>
      <trkpt lat="41.654425030" lon="2.599683470">
        <ele>468.20</ele>
        <time>2014-04-06T09:15:50Z</time>
      </trkpt>
      <trkpt lat="41.654411790" lon="2.599690010">
        <ele>468.30</ele>
        <time>2014-04-06T09:15:51Z</time>
      </trkpt>
      <trkpt lat="41.654400060" lon="2.599696720">
        <ele>468.30</ele>
        <time>2014-04-06T09:15:52Z</time>
      </trkpt>
      <trkpt lat="41.654386810" lon="2.599701750">
        <ele>468.20</ele>
        <time>2014-04-06T09:15:53Z</time>
      </trkpt>
      <trkpt lat="41.654373400" lon="2.599710130">
        <ele>468.20</ele>
        <time>2014-04-06T09:15:54Z</time>
      </trkpt>
      <trkpt lat="41.654360160" lon="2.599716670">
        <ele>468.70</ele>
        <time>2014-04-06T09:15:55Z</time>
      </trkpt>
      <trkpt lat="41.654345070" lon="2.599723370">
        <ele>469.00</ele>
        <time>2014-04-06T09:15:56Z</time>
      </trkpt>
      <trkpt lat="41.654333340" lon="2.599731750">
        <ele>469.20</ele>
        <time>2014-04-06T09:15:57Z</time>
      </trkpt>
      <trkpt lat="41.654320090" lon="2.599740140">
        <ele>469.40</ele>
        <time>2014-04-06T09:15:58Z</time>
      </trkpt>
      <trkpt lat="41.654306680" lon="2.599748350">
        <ele>469.70</ele>
        <time>2014-04-06T09:15:59Z</time>
      </trkpt>
      <trkpt lat="41.654290090" lon="2.599751700">
        <ele>469.90</ele>
        <time>2014-04-06T09:16:00Z</time>
      </trkpt>
      <trkpt lat="41.654273490" lon="2.599756730">
        <ele>470.00</ele>
        <time>2014-04-06T09:16:01Z</time>
      </trkpt>
      <trkpt lat="41.654258400" lon="2.599765110">
        <ele>470.00</ele>
        <time>2014-04-06T09:16:02Z</time>
      </trkpt>
      <trkpt lat="41.654241810" lon="2.599775000">
        <ele>469.90</ele>
        <time>2014-04-06T09:16:03Z</time>
      </trkpt>
      <trkpt lat="41.654226720" lon="2.599781710">
        <ele>470.00</ele>
        <time>2014-04-06T09:16:04Z</time>
      </trkpt>
      <trkpt lat="41.654211800" lon="2.599791770">
        <ele>470.10</ele>
        <time>2014-04-06T09:16:05Z</time>
      </trkpt>
      <trkpt lat="41.654198390" lon="2.599805010">
        <ele>470.20</ele>
        <time>2014-04-06T09:16:06Z</time>
      </trkpt>
      <trkpt lat="41.654188330" lon="2.599823450">
        <ele>470.30</ele>
        <time>2014-04-06T09:16:07Z</time>
      </trkpt>
      <trkpt lat="41.654181790" lon="2.599843400">
        <ele>470.30</ele>
        <time>2014-04-06T09:16:08Z</time>
      </trkpt>
      <trkpt lat="41.654181790" lon="2.599865030">
        <ele>470.30</ele>
        <time>2014-04-06T09:16:09Z</time>
      </trkpt>
      <trkpt lat="41.654185140" lon="2.599886820">
        <ele>470.30</ele>
        <time>2014-04-06T09:16:10Z</time>
      </trkpt>
      <trkpt lat="41.654188330" lon="2.599908440">
        <ele>470.10</ele>
        <time>2014-04-06T09:16:11Z</time>
      </trkpt>
      <trkpt lat="41.654191680" lon="2.599928390">
        <ele>470.00</ele>
        <time>2014-04-06T09:16:12Z</time>
      </trkpt>
      <trkpt lat="41.654198390" lon="2.599946670">
        <ele>469.90</ele>
        <time>2014-04-06T09:16:13Z</time>
      </trkpt>
      <trkpt lat="41.654201740" lon="2.599966780">
        <ele>470.10</ele>
        <time>2014-04-06T09:16:14Z</time>
      </trkpt>
      <trkpt lat="41.654205090" lon="2.599986730">
        <ele>470.20</ele>
        <time>2014-04-06T09:16:15Z</time>
      </trkpt>
      <trkpt lat="41.654211800" lon="2.600005000">
        <ele>470.10</ele>
        <time>2014-04-06T09:16:16Z</time>
      </trkpt>
      <trkpt lat="41.654216830" lon="2.600021770">
        <ele>470.10</ele>
        <time>2014-04-06T09:16:17Z</time>
      </trkpt>
      <trkpt lat="41.654221690" lon="2.600038360">
        <ele>470.10</ele>
        <time>2014-04-06T09:16:18Z</time>
      </trkpt>
      <trkpt lat="41.654226720" lon="2.600055130">
        <ele>470.10</ele>
        <time>2014-04-06T09:16:19Z</time>
      </trkpt>
      <trkpt lat="41.654233420" lon="2.600070050">
        <ele>470.10</ele>
        <time>2014-04-06T09:16:20Z</time>
      </trkpt>
      <trkpt lat="41.654240130" lon="2.600085130">
        <ele>470.50</ele>
        <time>2014-04-06T09:16:21Z</time>
      </trkpt>
      <trkpt lat="41.654243480" lon="2.600105080">
        <ele>470.80</ele>
        <time>2014-04-06T09:16:22Z</time>
      </trkpt>
      <trkpt lat="41.654248340" lon="2.600126710">
        <ele>471.20</ele>
        <time>2014-04-06T09:16:23Z</time>
      </trkpt>
      <trkpt lat="41.654253370" lon="2.600145150">
        <ele>471.40</ele>
        <time>2014-04-06T09:16:24Z</time>
      </trkpt>
      <trkpt lat="41.654261760" lon="2.600161740">
        <ele>471.60</ele>
        <time>2014-04-06T09:16:25Z</time>
      </trkpt>
      <trkpt lat="41.654268460" lon="2.600178340">
        <ele>471.70</ele>
        <time>2014-04-06T09:16:26Z</time>
      </trkpt>
      <trkpt lat="41.654276680" lon="2.600193430">
        <ele>471.80</ele>
        <time>2014-04-06T09:16:27Z</time>
      </trkpt>
      <trkpt lat="41.654285060" lon="2.600210020">
        <ele>471.90</ele>
        <time>2014-04-06T09:16:28Z</time>
      </trkpt>
      <trkpt lat="41.654293440" lon="2.600225110">
        <ele>472.00</ele>
        <time>2014-04-06T09:16:29Z</time>
      </trkpt>
      <trkpt lat="41.654301820" lon="2.600240030">
        <ele>471.90</ele>
        <time>2014-04-06T09:16:30Z</time>
      </trkpt>
      <trkpt lat="41.654311710" lon="2.600255120">
        <ele>471.80</ele>
        <time>2014-04-06T09:16:31Z</time>
      </trkpt>
      <trkpt lat="41.654321770" lon="2.600270040">
        <ele>471.70</ele>
        <time>2014-04-06T09:16:32Z</time>
      </trkpt>
      <trkpt lat="41.654331830" lon="2.600286800">
        <ele>471.70</ele>
        <time>2014-04-06T09:16:33Z</time>
      </trkpt>
      <trkpt lat="41.654341720" lon="2.600300050">
        <ele>471.70</ele>
        <time>2014-04-06T09:16:34Z</time>
      </trkpt>
      <trkpt lat="41.654351780" lon="2.600315130">
        <ele>472.00</ele>
        <time>2014-04-06T09:16:35Z</time>
      </trkpt>
      <trkpt lat="41.654363340" lon="2.600326700">
        <ele>472.20</ele>
        <time>2014-04-06T09:16:36Z</time>
      </trkpt>
      <trkpt lat="41.654373400" lon="2.600338440">
        <ele>472.80</ele>
        <time>2014-04-06T09:16:37Z</time>
      </trkpt>
      <trkpt lat="41.654383460" lon="2.600350000">
        <ele>473.20</ele>
        <time>2014-04-06T09:16:38Z</time>
      </trkpt>
      <trkpt lat="41.654391670" lon="2.600363410">
        <ele>473.50</ele>
        <time>2014-04-06T09:16:39Z</time>
      </trkpt>
      <trkpt lat="41.654401730" lon="2.600375150">
        <ele>473.70</ele>
        <time>2014-04-06T09:16:40Z</time>
      </trkpt>
      <trkpt lat="41.654411790" lon="2.600385040">
        <ele>473.80</ele>
        <time>2014-04-06T09:16:41Z</time>
      </trkpt>
      <trkpt lat="41.654421680" lon="2.600395100">
        <ele>474.10</ele>
        <time>2014-04-06T09:16:42Z</time>
      </trkpt>
      <trkpt lat="41.654431740" lon="2.600405160">
        <ele>474.30</ele>
        <time>2014-04-06T09:16:43Z</time>
      </trkpt>
      <trkpt lat="41.654441800" lon="2.600415050">
        <ele>474.90</ele>
        <time>2014-04-06T09:16:44Z</time>
      </trkpt>
      <trkpt lat="41.654451690" lon="2.600421750">
        <ele>475.30</ele>
        <time>2014-04-06T09:16:45Z</time>
      </trkpt>
      <trkpt lat="41.654461750" lon="2.600430130">
        <ele>475.60</ele>
        <time>2014-04-06T09:16:46Z</time>
      </trkpt>
      <trkpt lat="41.654471810" lon="2.600438350">
        <ele>475.50</ele>
        <time>2014-04-06T09:16:47Z</time>
      </trkpt>
      <trkpt lat="41.654483370" lon="2.600446730">
        <ele>475.40</ele>
        <time>2014-04-06T09:16:48Z</time>
      </trkpt>
      <trkpt lat="41.654491750" lon="2.600456790">
        <ele>475.70</ele>
        <time>2014-04-06T09:16:49Z</time>
      </trkpt>
      <trkpt lat="41.654500140" lon="2.600465000">
        <ele>475.90</ele>
        <time>2014-04-06T09:16:50Z</time>
      </trkpt>
      <trkpt lat="41.654510030" lon="2.600471710">
        <ele>476.00</ele>
        <time>2014-04-06T09:16:51Z</time>
      </trkpt>
      <trkpt lat="41.654520090" lon="2.600475060">
        <ele>476.20</ele>
        <time>2014-04-06T09:16:52Z</time>
      </trkpt>
      <trkpt lat="41.654531820" lon="2.600478410">
        <ele>476.40</ele>
        <time>2014-04-06T09:16:53Z</time>
      </trkpt>
      <trkpt lat="41.654543390" lon="2.600485120">
        <ele>476.80</ele>
        <time>2014-04-06T09:16:54Z</time>
      </trkpt>
      <trkpt lat="41.654555120" lon="2.600493330">
        <ele>477.00</ele>
        <time>2014-04-06T09:16:55Z</time>
      </trkpt>
      <trkpt lat="41.654568370" lon="2.600503390">
        <ele>477.60</ele>
        <time>2014-04-06T09:16:56Z</time>
      </trkpt>
      <trkpt lat="41.654578420" lon="2.600513450">
        <ele>478.00</ele>
        <time>2014-04-06T09:16:57Z</time>
      </trkpt>
      <trkpt lat="41.654588480" lon="2.600525020">
        <ele>478.30</ele>
        <time>2014-04-06T09:16:58Z</time>
      </trkpt>
      <trkpt lat="41.654596700" lon="2.600536750">
        <ele>478.30</ele>
        <time>2014-04-06T09:16:59Z</time>
      </trkpt>
      <trkpt lat="41.654610110" lon="2.600546810">
        <ele>478.20</ele>
        <time>2014-04-06T09:17:00Z</time>
      </trkpt>
      <trkpt lat="41.654618490" lon="2.600558380">
        <ele>478.40</ele>
        <time>2014-04-06T09:17:01Z</time>
      </trkpt>
      <trkpt lat="41.654628380" lon="2.600568430">
        <ele>478.50</ele>
        <time>2014-04-06T09:17:02Z</time>
      </trkpt>
      <trkpt lat="41.654636760" lon="2.600578490">
        <ele>478.60</ele>
        <time>2014-04-06T09:17:03Z</time>
      </trkpt>
      <trkpt lat="41.654646820" lon="2.600588380">
        <ele>478.60</ele>
        <time>2014-04-06T09:17:04Z</time>
      </trkpt>
      <trkpt lat="41.654656710" lon="2.600600120">
        <ele>478.70</ele>
        <time>2014-04-06T09:17:05Z</time>
      </trkpt>
      <trkpt lat="41.654668450" lon="2.600608330">
        <ele>478.50</ele>
        <time>2014-04-06T09:17:06Z</time>
      </trkpt>
      <trkpt lat="41.654678340" lon="2.600618390">
        <ele>478.40</ele>
        <time>2014-04-06T09:17:07Z</time>
      </trkpt>
      <trkpt lat="41.654688390" lon="2.600631800">
        <ele>478.90</ele>
        <time>2014-04-06T09:17:08Z</time>
      </trkpt>
      <trkpt lat="41.654700130" lon="2.600643370">
        <ele>479.20</ele>
        <time>2014-04-06T09:17:09Z</time>
      </trkpt>
      <trkpt lat="41.654711700" lon="2.600655100">
        <ele>479.50</ele>
        <time>2014-04-06T09:17:10Z</time>
      </trkpt>
      <trkpt lat="41.654723430" lon="2.600666670">
        <ele>479.60</ele>
        <time>2014-04-06T09:17:11Z</time>
      </trkpt>
      <trkpt lat="41.654733490" lon="2.600681760">
        <ele>479.80</ele>
        <time>2014-04-06T09:17:12Z</time>
      </trkpt>
      <trkpt lat="41.654743380" lon="2.600696680">
        <ele>480.00</ele>
        <time>2014-04-06T09:17:13Z</time>
      </trkpt>
      <trkpt lat="41.654750090" lon="2.600713440">
        <ele>480.20</ele>
        <time>2014-04-06T09:17:14Z</time>
      </trkpt>
      <trkpt lat="41.654758470" lon="2.600728360">
        <ele>480.40</ele>
        <time>2014-04-06T09:17:15Z</time>
      </trkpt>
      <trkpt lat="41.654763330" lon="2.600748480">
        <ele>480.50</ele>
        <time>2014-04-06T09:17:16Z</time>
      </trkpt>
      <trkpt lat="41.654766680" lon="2.600771780">
        <ele>480.50</ele>
        <time>2014-04-06T09:17:17Z</time>
      </trkpt>
      <trkpt lat="41.654768360" lon="2.600795080">
        <ele>480.60</ele>
        <time>2014-04-06T09:17:18Z</time>
      </trkpt>
      <trkpt lat="41.654765000" lon="2.600816710">
        <ele>480.60</ele>
        <time>2014-04-06T09:17:19Z</time>
      </trkpt>
      <trkpt lat="41.654758470" lon="2.600835150">
        <ele>480.60</ele>
        <time>2014-04-06T09:17:20Z</time>
      </trkpt>
      <trkpt lat="41.654751760" lon="2.600853420">
        <ele>480.50</ele>
        <time>2014-04-06T09:17:21Z</time>
      </trkpt>
      <trkpt lat="41.654740030" lon="2.600870020">
        <ele>480.90</ele>
        <time>2014-04-06T09:17:22Z</time>
      </trkpt>
      <trkpt lat="41.654728460" lon="2.600883430">
        <ele>481.20</ele>
        <time>2014-04-06T09:17:23Z</time>
      </trkpt>
      <trkpt lat="41.654716730" lon="2.600896670">
        <ele>481.40</ele>
        <time>2014-04-06T09:17:24Z</time>
      </trkpt>
      <trkpt lat="41.654705160" lon="2.600911760">
        <ele>481.20</ele>
        <time>2014-04-06T09:17:25Z</time>
      </trkpt>
      <trkpt lat="41.654690070" lon="2.600921820">
        <ele>481.00</ele>
        <time>2014-04-06T09:17:26Z</time>
      </trkpt>
      <trkpt lat="41.654673470" lon="2.600935060">
        <ele>481.30</ele>
        <time>2014-04-06T09:17:27Z</time>
      </trkpt>
      <trkpt lat="41.654660060" lon="2.600941760">
        <ele>481.60</ele>
        <time>2014-04-06T09:17:28Z</time>
      </trkpt>
      <trkpt lat="41.654648330" lon="2.600951820">
        <ele>481.90</ele>
        <time>2014-04-06T09:17:29Z</time>
      </trkpt>
      <trkpt lat="41.654638440" lon="2.600961710">
        <ele>482.10</ele>
        <time>2014-04-06T09:17:30Z</time>
      </trkpt>
      <trkpt lat="41.654626700" lon="2.600975120">
        <ele>482.20</ele>
        <time>2014-04-06T09:17:31Z</time>
      </trkpt>
      <trkpt lat="41.654616810" lon="2.600983340">
        <ele>482.50</ele>
        <time>2014-04-06T09:17:32Z</time>
      </trkpt>
      <trkpt lat="41.654603400" lon="2.600990040">
        <ele>482.60</ele>
        <time>2014-04-06T09:17:33Z</time>
      </trkpt>
      <trkpt lat="41.654593340" lon="2.601001780">
        <ele>482.50</ele>
        <time>2014-04-06T09:17:34Z</time>
      </trkpt>
      <trkpt lat="41.654585130" lon="2.601013350">
        <ele>482.40</ele>
        <time>2014-04-06T09:17:35Z</time>
      </trkpt>
      <trkpt lat="41.654573390" lon="2.601025080">
        <ele>482.40</ele>
        <time>2014-04-06T09:17:36Z</time>
      </trkpt>
      <trkpt lat="41.654563340" lon="2.601035140">
        <ele>483.00</ele>
        <time>2014-04-06T09:17:37Z</time>
      </trkpt>
      <trkpt lat="41.654551770" lon="2.601043350">
        <ele>483.40</ele>
        <time>2014-04-06T09:17:38Z</time>
      </trkpt>
      <trkpt lat="41.654541710" lon="2.601053410">
        <ele>483.90</ele>
        <time>2014-04-06T09:17:39Z</time>
      </trkpt>
      <trkpt lat="41.654531820" lon="2.601061790">
        <ele>484.20</ele>
        <time>2014-04-06T09:17:40Z</time>
      </trkpt>
      <trkpt lat="41.654523440" lon="2.601071680">
        <ele>484.20</ele>
        <time>2014-04-06T09:17:41Z</time>
      </trkpt>
      <trkpt lat="41.654513380" lon="2.601083420">
        <ele>484.20</ele>
        <time>2014-04-06T09:17:42Z</time>
      </trkpt>
      <trkpt lat="41.654505000" lon="2.601096660">
        <ele>484.20</ele>
        <time>2014-04-06T09:17:43Z</time>
      </trkpt>
      <trkpt lat="41.654495110" lon="2.601108400">
        <ele>484.50</ele>
        <time>2014-04-06T09:17:44Z</time>
      </trkpt>
      <trkpt lat="41.654485050" lon="2.601120130">
        <ele>484.70</ele>
        <time>2014-04-06T09:17:45Z</time>
      </trkpt>
      <trkpt lat="41.654476670" lon="2.601130020">
        <ele>485.20</ele>
        <time>2014-04-06T09:17:46Z</time>
      </trkpt>
      <trkpt lat="41.654466780" lon="2.601143430">
        <ele>485.50</ele>
        <time>2014-04-06T09:17:47Z</time>
      </trkpt>
      <trkpt lat="41.654460070" lon="2.601156680">
        <ele>485.50</ele>
        <time>2014-04-06T09:17:48Z</time>
      </trkpt>
      <trkpt lat="41.654451690" lon="2.601170090">
        <ele>485.50</ele>
        <time>2014-04-06T09:17:49Z</time>
      </trkpt>
      <trkpt lat="41.654443480" lon="2.601185010">
        <ele>485.50</ele>
        <time>2014-04-06T09:17:50Z</time>
      </trkpt>
      <trkpt lat="41.654435090" lon="2.601198420">
        <ele>485.50</ele>
        <time>2014-04-06T09:17:51Z</time>
      </trkpt>
      <trkpt lat="41.654425030" lon="2.601211660">
        <ele>485.50</ele>
        <time>2014-04-06T09:17:52Z</time>
      </trkpt>
      <trkpt lat="41.654416820" lon="2.601225070">
        <ele>485.70</ele>
        <time>2014-04-06T09:17:53Z</time>
      </trkpt>
      <trkpt lat="41.654408440" lon="2.601238480">
        <ele>485.90</ele>
        <time>2014-04-06T09:17:54Z</time>
      </trkpt>
      <trkpt lat="41.654401730" lon="2.601253400">
        <ele>486.00</ele>
        <time>2014-04-06T09:17:55Z</time>
      </trkpt>
      <trkpt lat="41.654393350" lon="2.601268490">
        <ele>485.90</ele>
        <time>2014-04-06T09:17:56Z</time>
      </trkpt>
      <trkpt lat="41.654386810" lon="2.601285090">
        <ele>485.80</ele>
        <time>2014-04-06T09:17:57Z</time>
      </trkpt>
      <trkpt lat="41.654378430" lon="2.601301680">
        <ele>486.00</ele>
        <time>2014-04-06T09:17:58Z</time>
      </trkpt>
      <trkpt lat="41.654370050" lon="2.601318450">
        <ele>486.20</ele>
        <time>2014-04-06T09:17:59Z</time>
      </trkpt>
      <trkpt lat="41.654363340" lon="2.601336720">
        <ele>486.50</ele>
        <time>2014-04-06T09:18:00Z</time>
      </trkpt>
      <trkpt lat="41.654356810" lon="2.601353480">
        <ele>486.80</ele>
        <time>2014-04-06T09:18:01Z</time>
      </trkpt>
      <trkpt lat="41.654351780" lon="2.601373430">
        <ele>487.00</ele>
        <time>2014-04-06T09:18:02Z</time>
      </trkpt>
      <trkpt lat="41.654345070" lon="2.601393380">
        <ele>486.80</ele>
        <time>2014-04-06T09:18:03Z</time>
      </trkpt>
      <trkpt lat="41.654340040" lon="2.601411820">
        <ele>486.70</ele>
        <time>2014-04-06T09:18:04Z</time>
      </trkpt>
      <trkpt lat="41.654333340" lon="2.601430090">
        <ele>486.70</ele>
        <time>2014-04-06T09:18:05Z</time>
      </trkpt>
      <trkpt lat="41.654328480" lon="2.601448370">
        <ele>486.60</ele>
        <time>2014-04-06T09:18:06Z</time>
      </trkpt>
      <trkpt lat="41.654323450" lon="2.601466810">
        <ele>487.10</ele>
        <time>2014-04-06T09:18:07Z</time>
      </trkpt>
      <trkpt lat="41.654316740" lon="2.601485080">
        <ele>487.50</ele>
        <time>2014-04-06T09:18:08Z</time>
      </trkpt>
      <trkpt lat="41.654306680" lon="2.601503350">
        <ele>487.70</ele>
        <time>2014-04-06T09:18:09Z</time>
      </trkpt>
      <trkpt lat="41.654298470" lon="2.601520120">
        <ele>487.50</ele>
        <time>2014-04-06T09:18:10Z</time>
      </trkpt>
      <trkpt lat="41.654291760" lon="2.601535040">
        <ele>487.40</ele>
        <time>2014-04-06T09:18:11Z</time>
      </trkpt>
      <trkpt lat="41.654286730" lon="2.601553480">
        <ele>487.50</ele>
        <time>2014-04-06T09:18:12Z</time>
      </trkpt>
      <trkpt lat="41.654283380" lon="2.601571750">
        <ele>487.50</ele>
        <time>2014-04-06T09:18:13Z</time>
      </trkpt>
      <trkpt lat="41.654276680" lon="2.601590020">
        <ele>487.60</ele>
        <time>2014-04-06T09:18:14Z</time>
      </trkpt>
      <trkpt lat="41.654270140" lon="2.601606780">
        <ele>487.50</ele>
        <time>2014-04-06T09:18:15Z</time>
      </trkpt>
      <trkpt lat="41.654263430" lon="2.601623380">
        <ele>487.40</ele>
        <time>2014-04-06T09:18:16Z</time>
      </trkpt>
      <trkpt lat="41.654255050" lon="2.601638470">
        <ele>487.80</ele>
        <time>2014-04-06T09:18:17Z</time>
      </trkpt>
      <trkpt lat="41.654250020" lon="2.601655060">
        <ele>488.00</ele>
        <time>2014-04-06T09:18:18Z</time>
      </trkpt>
      <trkpt lat="41.654243480" lon="2.601671830">
        <ele>488.30</ele>
        <time>2014-04-06T09:18:19Z</time>
      </trkpt>
      <trkpt lat="41.654236780" lon="2.601690100">
        <ele>488.40</ele>
        <time>2014-04-06T09:18:20Z</time>
      </trkpt>
      <trkpt lat="41.654230070" lon="2.601706700">
        <ele>488.50</ele>
        <time>2014-04-06T09:18:21Z</time>
      </trkpt>
      <trkpt lat="41.654225040" lon="2.601721780">
        <ele>489.00</ele>
        <time>2014-04-06T09:18:22Z</time>
      </trkpt>
      <trkpt lat="41.654216830" lon="2.601738380">
        <ele>489.30</ele>
        <time>2014-04-06T09:18:23Z</time>
      </trkpt>
      <trkpt lat="41.654210120" lon="2.601751790">
        <ele>489.50</ele>
        <time>2014-04-06T09:18:24Z</time>
      </trkpt>
      <trkpt lat="41.654205090" lon="2.601765040">
        <ele>489.60</ele>
        <time>2014-04-06T09:18:25Z</time>
      </trkpt>
      <trkpt lat="41.654198390" lon="2.601780120">
        <ele>489.80</ele>
        <time>2014-04-06T09:18:26Z</time>
      </trkpt>
      <trkpt lat="41.654193360" lon="2.601795040">
        <ele>490.00</ele>
        <time>2014-04-06T09:18:27Z</time>
      </trkpt>
      <trkpt lat="41.654188330" lon="2.601810130">
        <ele>490.10</ele>
        <time>2014-04-06T09:18:28Z</time>
      </trkpt>
      <trkpt lat="41.654178440" lon="2.601830080">
        <ele>490.10</ele>
        <time>2014-04-06T09:18:29Z</time>
      </trkpt>
      <trkpt lat="41.654170060" lon="2.601848350">
        <ele>490.00</ele>
        <time>2014-04-06T09:18:30Z</time>
      </trkpt>
      <trkpt lat="41.654161680" lon="2.601866790">
        <ele>490.00</ele>
        <time>2014-04-06T09:18:31Z</time>
      </trkpt>
      <trkpt lat="41.654155140" lon="2.601886740">
        <ele>490.10</ele>
        <time>2014-04-06T09:18:32Z</time>
      </trkpt>
      <trkpt lat="41.654151780" lon="2.601906690">
        <ele>490.10</ele>
        <time>2014-04-06T09:18:33Z</time>
      </trkpt>
      <trkpt lat="41.654145080" lon="2.601925130">
        <ele>490.10</ele>
        <time>2014-04-06T09:18:34Z</time>
      </trkpt>
      <trkpt lat="41.654138370" lon="2.601940050">
        <ele>490.00</ele>
        <time>2014-04-06T09:18:35Z</time>
      </trkpt>
      <trkpt lat="41.654130160" lon="2.601956810">
        <ele>490.00</ele>
        <time>2014-04-06T09:18:36Z</time>
      </trkpt>
      <trkpt lat="41.654123450" lon="2.601971730">
        <ele>490.00</ele>
        <time>2014-04-06T09:18:37Z</time>
      </trkpt>
      <trkpt lat="41.654118420" lon="2.601988330">
        <ele>490.30</ele>
        <time>2014-04-06T09:18:38Z</time>
      </trkpt>
      <trkpt lat="41.654113400" lon="2.602005090">
        <ele>490.50</ele>
        <time>2014-04-06T09:18:39Z</time>
      </trkpt>
      <trkpt lat="41.654106690" lon="2.602021690">
        <ele>490.70</ele>
        <time>2014-04-06T09:18:40Z</time>
      </trkpt>
      <trkpt lat="41.654098480" lon="2.602040130">
        <ele>491.60</ele>
        <time>2014-04-06T09:18:41Z</time>
      </trkpt>
      <trkpt lat="41.654093450" lon="2.602058400">
        <ele>492.30</ele>
        <time>2014-04-06T09:18:42Z</time>
      </trkpt>
      <trkpt lat="41.654086740" lon="2.602075000">
        <ele>492.20</ele>
        <time>2014-04-06T09:18:43Z</time>
      </trkpt>
      <trkpt lat="41.654080040" lon="2.602091760">
        <ele>492.10</ele>
        <time>2014-04-06T09:18:44Z</time>
      </trkpt>
      <trkpt lat="41.654071820" lon="2.602108360">
        <ele>492.50</ele>
        <time>2014-04-06T09:18:45Z</time>
      </trkpt>
      <trkpt lat="41.654065120" lon="2.602125120">
        <ele>492.80</ele>
        <time>2014-04-06T09:18:46Z</time>
      </trkpt>
      <trkpt lat="41.654058410" lon="2.602141720">
        <ele>493.00</ele>
        <time>2014-04-06T09:18:47Z</time>
      </trkpt>
      <trkpt lat="41.654053380" lon="2.602156810">
        <ele>492.90</ele>
        <time>2014-04-06T09:18:48Z</time>
      </trkpt>
      <trkpt lat="41.654045000" lon="2.602171730">
        <ele>492.70</ele>
        <time>2014-04-06T09:18:49Z</time>
      </trkpt>
      <trkpt lat="41.654043490" lon="2.602185140">
        <ele>493.00</ele>
        <time>2014-04-06T09:18:50Z</time>
      </trkpt>
      <trkpt lat="41.654040140" lon="2.602200060">
        <ele>493.20</ele>
        <time>2014-04-06T09:18:51Z</time>
      </trkpt>
      <trkpt lat="41.654035110" lon="2.602216820">
        <ele>493.40</ele>
        <time>2014-04-06T09:18:52Z</time>
      </trkpt>
      <trkpt lat="41.654028400" lon="2.602233420">
        <ele>493.40</ele>
        <time>2014-04-06T09:18:53Z</time>
      </trkpt>
      <trkpt lat="41.654021700" lon="2.602253360">
        <ele>493.50</ele>
        <time>2014-04-06T09:18:54Z</time>
      </trkpt>
      <trkpt lat="41.654013480" lon="2.602273480">
        <ele>494.00</ele>
        <time>2014-04-06T09:18:55Z</time>
      </trkpt>
      <trkpt lat="41.654008450" lon="2.602293430">
        <ele>494.30</ele>
        <time>2014-04-06T09:18:56Z</time>
      </trkpt>
      <trkpt lat="41.654003430" lon="2.602315060">
        <ele>494.50</ele>
        <time>2014-04-06T09:18:57Z</time>
      </trkpt>
      <trkpt lat="41.654000070" lon="2.602336680">
        <ele>494.70</ele>
        <time>2014-04-06T09:18:58Z</time>
      </trkpt>
      <trkpt lat="41.653991690" lon="2.602355120">
        <ele>494.80</ele>
        <time>2014-04-06T09:18:59Z</time>
      </trkpt>
      <trkpt lat="41.653988340" lon="2.602373390">
        <ele>495.10</ele>
        <time>2014-04-06T09:19:00Z</time>
      </trkpt>
      <trkpt lat="41.653985150" lon="2.602393340">
        <ele>495.30</ele>
        <time>2014-04-06T09:19:01Z</time>
      </trkpt>
      <trkpt lat="41.653981800" lon="2.602413460">
        <ele>494.80</ele>
        <time>2014-04-06T09:19:02Z</time>
      </trkpt>
      <trkpt lat="41.653978450" lon="2.602433410">
        <ele>494.40</ele>
        <time>2014-04-06T09:19:03Z</time>
      </trkpt>
      <trkpt lat="41.653975090" lon="2.602451680">
        <ele>494.50</ele>
        <time>2014-04-06T09:19:04Z</time>
      </trkpt>
      <trkpt lat="41.653973420" lon="2.602471800">
        <ele>494.70</ele>
        <time>2014-04-06T09:19:05Z</time>
      </trkpt>
      <trkpt lat="41.653971740" lon="2.602491750">
        <ele>494.80</ele>
        <time>2014-04-06T09:19:06Z</time>
      </trkpt>
      <trkpt lat="41.653970070" lon="2.602510020">
        <ele>495.00</ele>
        <time>2014-04-06T09:19:07Z</time>
      </trkpt>
      <trkpt lat="41.653968390" lon="2.602530140">
        <ele>495.20</ele>
        <time>2014-04-06T09:19:08Z</time>
      </trkpt>
      <trkpt lat="41.653966710" lon="2.602550080">
        <ele>495.40</ele>
        <time>2014-04-06T09:19:09Z</time>
      </trkpt>
      <trkpt lat="41.653966710" lon="2.602570030">
        <ele>495.60</ele>
        <time>2014-04-06T09:19:10Z</time>
      </trkpt>
      <trkpt lat="41.653966710" lon="2.602590150">
        <ele>495.70</ele>
        <time>2014-04-06T09:19:11Z</time>
      </trkpt>
      <trkpt lat="41.653965040" lon="2.602610100">
        <ele>495.90</ele>
        <time>2014-04-06T09:19:12Z</time>
      </trkpt>
      <trkpt lat="41.653965040" lon="2.602631720">
        <ele>496.00</ele>
        <time>2014-04-06T09:19:13Z</time>
      </trkpt>
      <trkpt lat="41.653966710" lon="2.602653350">
        <ele>496.10</ele>
        <time>2014-04-06T09:19:14Z</time>
      </trkpt>
      <trkpt lat="41.653968390" lon="2.602673470">
        <ele>496.20</ele>
        <time>2014-04-06T09:19:15Z</time>
      </trkpt>
      <trkpt lat="41.653971740" lon="2.602693410">
        <ele>496.10</ele>
        <time>2014-04-06T09:19:16Z</time>
      </trkpt>
      <trkpt lat="41.653978450" lon="2.602711690">
        <ele>496.00</ele>
        <time>2014-04-06T09:19:17Z</time>
      </trkpt>
      <trkpt lat="41.653983480" lon="2.602731800">
        <ele>495.90</ele>
        <time>2014-04-06T09:19:18Z</time>
      </trkpt>
      <trkpt lat="41.653988340" lon="2.602746720">
        <ele>496.30</ele>
        <time>2014-04-06T09:19:19Z</time>
      </trkpt>
      <trkpt lat="41.653993370" lon="2.602763490">
        <ele>496.70</ele>
        <time>2014-04-06T09:19:20Z</time>
      </trkpt>
      <trkpt lat="41.654000070" lon="2.602778410">
        <ele>497.00</ele>
        <time>2014-04-06T09:19:21Z</time>
      </trkpt>
      <trkpt lat="41.654010130" lon="2.602793490">
        <ele>497.20</ele>
        <time>2014-04-06T09:19:22Z</time>
      </trkpt>
      <trkpt lat="41.654020020" lon="2.602810090">
        <ele>496.90</ele>
        <time>2014-04-06T09:19:23Z</time>
      </trkpt>
      <trkpt lat="41.654033430" lon="2.602821830">
        <ele>496.70</ele>
        <time>2014-04-06T09:19:24Z</time>
      </trkpt>
      <trkpt lat="41.654043490" lon="2.602831720">
        <ele>496.50</ele>
        <time>2014-04-06T09:19:25Z</time>
      </trkpt>
      <trkpt lat="41.654053380" lon="2.602841770">
        <ele>496.80</ele>
        <time>2014-04-06T09:19:26Z</time>
      </trkpt>
      <trkpt lat="41.654061760" lon="2.602853340">
        <ele>497.10</ele>
        <time>2014-04-06T09:19:27Z</time>
      </trkpt>
      <trkpt lat="41.654073330" lon="2.602863400">
        <ele>497.10</ele>
        <time>2014-04-06T09:19:28Z</time>
      </trkpt>
      <trkpt lat="41.654085060" lon="2.602870110">
        <ele>497.20</ele>
        <time>2014-04-06T09:19:29Z</time>
      </trkpt>
      <trkpt lat="41.654096800" lon="2.602876810">
        <ele>497.60</ele>
        <time>2014-04-06T09:19:30Z</time>
      </trkpt>
      <trkpt lat="41.654108370" lon="2.602885030">
        <ele>497.90</ele>
        <time>2014-04-06T09:19:31Z</time>
      </trkpt>
      <trkpt lat="41.654120100" lon="2.602891730">
        <ele>498.10</ele>
        <time>2014-04-06T09:19:32Z</time>
      </trkpt>
      <trkpt lat="41.654133340" lon="2.602896760">
        <ele>498.40</ele>
        <time>2014-04-06T09:19:33Z</time>
      </trkpt>
      <trkpt lat="41.654146760" lon="2.602901790">
        <ele>498.70</ele>
        <time>2014-04-06T09:19:34Z</time>
      </trkpt>
      <trkpt lat="41.654158490" lon="2.602910000">
        <ele>498.80</ele>
        <time>2014-04-06T09:19:35Z</time>
      </trkpt>
      <trkpt lat="41.654171730" lon="2.602920060">
        <ele>498.90</ele>
        <time>2014-04-06T09:19:36Z</time>
      </trkpt>
      <trkpt lat="41.654185140" lon="2.602930120">
        <ele>499.00</ele>
        <time>2014-04-06T09:19:37Z</time>
      </trkpt>
      <trkpt lat="41.654196710" lon="2.602941690">
        <ele>498.80</ele>
        <time>2014-04-06T09:19:38Z</time>
      </trkpt>
      <trkpt lat="41.654210120" lon="2.602955100">
        <ele>498.70</ele>
        <time>2014-04-06T09:19:39Z</time>
      </trkpt>
      <trkpt lat="41.654221690" lon="2.602971690">
        <ele>498.70</ele>
        <time>2014-04-06T09:19:40Z</time>
      </trkpt>
      <trkpt lat="41.654238450" lon="2.602990130">
        <ele>498.70</ele>
        <time>2014-04-06T09:19:41Z</time>
      </trkpt>
      <trkpt lat="41.654255050" lon="2.603003380">
        <ele>498.80</ele>
        <time>2014-04-06T09:19:42Z</time>
      </trkpt>
      <trkpt lat="41.654266780" lon="2.603018470">
        <ele>499.00</ele>
        <time>2014-04-06T09:19:43Z</time>
      </trkpt>
      <trkpt lat="41.654280030" lon="2.603030030">
        <ele>499.10</ele>
        <time>2014-04-06T09:19:44Z</time>
      </trkpt>
      <trkpt lat="41.654291760" lon="2.603043440">
        <ele>499.50</ele>
        <time>2014-04-06T09:19:45Z</time>
      </trkpt>
      <trkpt lat="41.654305010" lon="2.603055010">
        <ele>499.90</ele>
        <time>2014-04-06T09:19:46Z</time>
      </trkpt>
      <trkpt lat="41.654318420" lon="2.603068420">
        <ele>499.60</ele>
        <time>2014-04-06T09:19:47Z</time>
      </trkpt>
      <trkpt lat="41.654328480" lon="2.603081660">
        <ele>499.40</ele>
        <time>2014-04-06T09:19:48Z</time>
      </trkpt>
      <trkpt lat="41.654338370" lon="2.603095080">
        <ele>499.20</ele>
        <time>2014-04-06T09:19:49Z</time>
      </trkpt>
      <trkpt lat="41.654346750" lon="2.603108490">
        <ele>499.80</ele>
        <time>2014-04-06T09:19:50Z</time>
      </trkpt>
      <trkpt lat="41.654358480" lon="2.603123410">
        <ele>500.20</ele>
        <time>2014-04-06T09:19:51Z</time>
      </trkpt>
      <trkpt lat="41.654368370" lon="2.603138490">
        <ele>500.20</ele>
        <time>2014-04-06T09:19:52Z</time>
      </trkpt>
      <trkpt lat="41.654380110" lon="2.603153410">
        <ele>500.10</ele>
        <time>2014-04-06T09:19:53Z</time>
      </trkpt>
      <trkpt lat="41.654393350" lon="2.603166820">
        <ele>500.50</ele>
        <time>2014-04-06T09:19:54Z</time>
      </trkpt>
      <trkpt lat="41.654406760" lon="2.603178390">
        <ele>500.70</ele>
        <time>2014-04-06T09:19:55Z</time>
      </trkpt>
      <trkpt lat="41.654416820" lon="2.603191800">
        <ele>500.90</ele>
        <time>2014-04-06T09:19:56Z</time>
      </trkpt>
      <trkpt lat="41.654428390" lon="2.603206720">
        <ele>500.70</ele>
        <time>2014-04-06T09:19:57Z</time>
      </trkpt>
      <trkpt lat="41.654440120" lon="2.603218460">
        <ele>500.60</ele>
        <time>2014-04-06T09:19:58Z</time>
      </trkpt>
      <trkpt lat="41.654451690" lon="2.603228350">
        <ele>500.70</ele>
        <time>2014-04-06T09:19:59Z</time>
      </trkpt>
      <trkpt lat="41.654461750" lon="2.603240080">
        <ele>500.80</ele>
        <time>2014-04-06T09:20:00Z</time>
      </trkpt>
      <trkpt lat="41.654471810" lon="2.603253490">
        <ele>501.30</ele>
        <time>2014-04-06T09:20:01Z</time>
      </trkpt>
      <trkpt lat="41.654480020" lon="2.603268410">
        <ele>501.80</ele>
        <time>2014-04-06T09:20:02Z</time>
      </trkpt>
      <trkpt lat="41.654488400" lon="2.603283330">
        <ele>502.10</ele>
        <time>2014-04-06T09:20:03Z</time>
      </trkpt>
      <trkpt lat="41.654495110" lon="2.603300100">
        <ele>502.20</ele>
        <time>2014-04-06T09:20:04Z</time>
      </trkpt>
      <trkpt lat="41.654503490" lon="2.603318370">
        <ele>502.20</ele>
        <time>2014-04-06T09:20:05Z</time>
      </trkpt>
      <trkpt lat="41.654510030" lon="2.603336810">
        <ele>502.40</ele>
        <time>2014-04-06T09:20:06Z</time>
      </trkpt>
      <trkpt lat="41.654518410" lon="2.603353410">
        <ele>502.60</ele>
        <time>2014-04-06T09:20:07Z</time>
      </trkpt>
      <trkpt lat="41.654528470" lon="2.603368490">
        <ele>502.60</ele>
        <time>2014-04-06T09:20:08Z</time>
      </trkpt>
      <trkpt lat="41.654538360" lon="2.603385090">
        <ele>502.70</ele>
        <time>2014-04-06T09:20:09Z</time>
      </trkpt>
      <trkpt lat="41.654548420" lon="2.603401690">
        <ele>502.70</ele>
        <time>2014-04-06T09:20:10Z</time>
      </trkpt>
      <trkpt lat="41.654555120" lon="2.603420130">
        <ele>502.80</ele>
        <time>2014-04-06T09:20:11Z</time>
      </trkpt>
      <trkpt lat="41.654563340" lon="2.603438400">
        <ele>502.90</ele>
        <time>2014-04-06T09:20:12Z</time>
      </trkpt>
      <trkpt lat="41.654570040" lon="2.603458350">
        <ele>503.30</ele>
        <time>2014-04-06T09:20:13Z</time>
      </trkpt>
      <trkpt lat="41.654576750" lon="2.603478460">
        <ele>503.50</ele>
        <time>2014-04-06T09:20:14Z</time>
      </trkpt>
      <trkpt lat="41.654583450" lon="2.603498410">
        <ele>503.80</ele>
        <time>2014-04-06T09:20:15Z</time>
      </trkpt>
      <trkpt lat="41.654591670" lon="2.603515010">
        <ele>503.80</ele>
        <time>2014-04-06T09:20:16Z</time>
      </trkpt>
      <trkpt lat="41.654600050" lon="2.603535130">
        <ele>503.90</ele>
        <time>2014-04-06T09:20:17Z</time>
      </trkpt>
      <trkpt lat="41.654606750" lon="2.603553400">
        <ele>504.00</ele>
        <time>2014-04-06T09:20:18Z</time>
      </trkpt>
      <trkpt lat="41.654615140" lon="2.603570160">
        <ele>504.20</ele>
        <time>2014-04-06T09:20:19Z</time>
      </trkpt>
      <trkpt lat="41.654623350" lon="2.603586760">
        <ele>504.40</ele>
        <time>2014-04-06T09:20:20Z</time>
      </trkpt>
      <trkpt lat="41.654630060" lon="2.603601680">
        <ele>504.60</ele>
        <time>2014-04-06T09:20:21Z</time>
      </trkpt>
      <trkpt lat="41.654640110" lon="2.603616770">
        <ele>504.80</ele>
        <time>2014-04-06T09:20:22Z</time>
      </trkpt>
      <trkpt lat="41.654650010" lon="2.603638390">
        <ele>504.90</ele>
        <time>2014-04-06T09:20:23Z</time>
      </trkpt>
      <trkpt lat="41.654661740" lon="2.603658340">
        <ele>505.10</ele>
        <time>2014-04-06T09:20:24Z</time>
      </trkpt>
      <trkpt lat="41.654671800" lon="2.603675100">
        <ele>505.30</ele>
        <time>2014-04-06T09:20:25Z</time>
      </trkpt>
      <trkpt lat="41.654683370" lon="2.603693380">
        <ele>505.50</ele>
        <time>2014-04-06T09:20:26Z</time>
      </trkpt>
      <trkpt lat="41.654693420" lon="2.603708460">
        <ele>505.60</ele>
        <time>2014-04-06T09:20:27Z</time>
      </trkpt>
      <trkpt lat="41.654705160" lon="2.603725060">
        <ele>505.60</ele>
        <time>2014-04-06T09:20:28Z</time>
      </trkpt>
      <trkpt lat="41.654716730" lon="2.603740150">
        <ele>505.70</ele>
        <time>2014-04-06T09:20:29Z</time>
      </trkpt>
      <trkpt lat="41.654728460" lon="2.603756740">
        <ele>506.00</ele>
        <time>2014-04-06T09:20:30Z</time>
      </trkpt>
      <trkpt lat="41.654740030" lon="2.603771660">
        <ele>506.20</ele>
        <time>2014-04-06T09:20:31Z</time>
      </trkpt>
      <trkpt lat="41.654751760" lon="2.603788430">
        <ele>506.20</ele>
        <time>2014-04-06T09:20:32Z</time>
      </trkpt>
      <trkpt lat="41.654763330" lon="2.603805020">
        <ele>506.30</ele>
        <time>2014-04-06T09:20:33Z</time>
      </trkpt>
      <trkpt lat="41.654775060" lon="2.603818430">
        <ele>506.30</ele>
        <time>2014-04-06T09:20:34Z</time>
      </trkpt>
      <trkpt lat="41.654788470" lon="2.603833350">
        <ele>506.10</ele>
        <time>2014-04-06T09:20:35Z</time>
      </trkpt>
      <trkpt lat="41.654803390" lon="2.603846760">
        <ele>505.90</ele>
        <time>2014-04-06T09:20:36Z</time>
      </trkpt>
      <trkpt lat="41.654820160" lon="2.603856820">
        <ele>506.40</ele>
        <time>2014-04-06T09:20:37Z</time>
      </trkpt>
      <trkpt lat="41.654836750" lon="2.603868390">
        <ele>506.70</ele>
        <time>2014-04-06T09:20:38Z</time>
      </trkpt>
      <trkpt lat="41.654851670" lon="2.603880120">
        <ele>506.90</ele>
        <time>2014-04-06T09:20:39Z</time>
      </trkpt>
      <trkpt lat="41.654866760" lon="2.603893370">
        <ele>507.10</ele>
        <time>2014-04-06T09:20:40Z</time>
      </trkpt>
      <trkpt lat="41.654878500" lon="2.603910130">
        <ele>507.20</ele>
        <time>2014-04-06T09:20:41Z</time>
      </trkpt>
      <trkpt lat="41.654890060" lon="2.603925050">
        <ele>507.00</ele>
        <time>2014-04-06T09:20:42Z</time>
      </trkpt>
      <trkpt lat="41.654905150" lon="2.603936790">
        <ele>506.80</ele>
        <time>2014-04-06T09:20:43Z</time>
      </trkpt>
      <trkpt lat="41.654920070" lon="2.603948350">
        <ele>507.00</ele>
        <time>2014-04-06T09:20:44Z</time>
      </trkpt>
      <trkpt lat="41.654933480" lon="2.603958410">
        <ele>507.10</ele>
        <time>2014-04-06T09:20:45Z</time>
      </trkpt>
      <trkpt lat="41.654946720" lon="2.603971820">
        <ele>507.00</ele>
        <time>2014-04-06T09:20:46Z</time>
      </trkpt>
      <trkpt lat="41.654960140" lon="2.603981710">
        <ele>507.00</ele>
        <time>2014-04-06T09:20:47Z</time>
      </trkpt>
      <trkpt lat="41.654971700" lon="2.603993450">
        <ele>507.00</ele>
        <time>2014-04-06T09:20:48Z</time>
      </trkpt>
      <trkpt lat="41.654981760" lon="2.604006690">
        <ele>507.40</ele>
        <time>2014-04-06T09:20:49Z</time>
      </trkpt>
      <trkpt lat="41.654988470" lon="2.604021780">
        <ele>507.80</ele>
        <time>2014-04-06T09:20:50Z</time>
      </trkpt>
      <trkpt lat="41.655000030" lon="2.604031670">
        <ele>507.70</ele>
        <time>2014-04-06T09:20:51Z</time>
      </trkpt>
      <trkpt lat="41.655010090" lon="2.604043400">
        <ele>507.60</ele>
        <time>2014-04-06T09:20:52Z</time>
      </trkpt>
      <trkpt lat="41.655020150" lon="2.604053460">
        <ele>507.60</ele>
        <time>2014-04-06T09:20:53Z</time>
      </trkpt>
      <trkpt lat="41.655031720" lon="2.604060000">
        <ele>508.30</ele>
        <time>2014-04-06T09:20:54Z</time>
      </trkpt>
      <trkpt lat="41.655038420" lon="2.604071740">
        <ele>508.80</ele>
        <time>2014-04-06T09:20:55Z</time>
      </trkpt>
      <trkpt lat="41.655043450" lon="2.604088330">
        <ele>509.00</ele>
        <time>2014-04-06T09:20:56Z</time>
      </trkpt>
      <trkpt lat="41.655050160" lon="2.604106770">
        <ele>509.10</ele>
        <time>2014-04-06T09:20:57Z</time>
      </trkpt>
      <trkpt lat="41.655050160" lon="2.604128400">
        <ele>508.90</ele>
        <time>2014-04-06T09:20:58Z</time>
      </trkpt>
      <trkpt lat="41.655048480" lon="2.604145160">
        <ele>508.70</ele>
        <time>2014-04-06T09:20:59Z</time>
      </trkpt>
      <trkpt lat="41.655045130" lon="2.604163430">
        <ele>508.50</ele>
        <time>2014-04-06T09:21:00Z</time>
      </trkpt>
      <trkpt lat="41.655038420" lon="2.604178350">
        <ele>509.10</ele>
        <time>2014-04-06T09:21:01Z</time>
      </trkpt>
      <trkpt lat="41.655028360" lon="2.604193440">
        <ele>509.50</ele>
        <time>2014-04-06T09:21:02Z</time>
      </trkpt>
      <trkpt lat="41.655020150" lon="2.604208360">
        <ele>509.70</ele>
        <time>2014-04-06T09:21:03Z</time>
      </trkpt>
      <trkpt lat="41.655008420" lon="2.604220090">
        <ele>509.80</ele>
        <time>2014-04-06T09:21:04Z</time>
      </trkpt>
      <trkpt lat="41.654996680" lon="2.604231660">
        <ele>510.40</ele>
        <time>2014-04-06T09:21:05Z</time>
      </trkpt>
      <trkpt lat="41.654986790" lon="2.604243400">
        <ele>510.90</ele>
        <time>2014-04-06T09:21:06Z</time>
      </trkpt>
      <trkpt lat="41.654980080" lon="2.604250100">
        <ele>511.20</ele>
        <time>2014-04-06T09:21:07Z</time>
      </trkpt>
      <trkpt lat="41.654970030" lon="2.604256810">
        <ele>511.20</ele>
        <time>2014-04-06T09:21:08Z</time>
      </trkpt>
      <trkpt lat="41.654960140" lon="2.604266700">
        <ele>511.20</ele>
        <time>2014-04-06T09:21:09Z</time>
      </trkpt>
      <trkpt lat="41.654950080" lon="2.604275080">
        <ele>511.30</ele>
        <time>2014-04-06T09:21:10Z</time>
      </trkpt>
      <trkpt lat="41.654941700" lon="2.604288490">
        <ele>511.30</ele>
        <time>2014-04-06T09:21:11Z</time>
      </trkpt>
      <trkpt lat="41.654931800" lon="2.604296710">
        <ele>511.40</ele>
        <time>2014-04-06T09:21:12Z</time>
      </trkpt>
      <trkpt lat="41.654923420" lon="2.604308440">
        <ele>511.40</ele>
        <time>2014-04-06T09:21:13Z</time>
      </trkpt>
      <trkpt lat="41.654913360" lon="2.604320010">
        <ele>511.50</ele>
        <time>2014-04-06T09:21:14Z</time>
      </trkpt>
      <trkpt lat="41.654906830" lon="2.604331740">
        <ele>511.90</ele>
        <time>2014-04-06T09:21:15Z</time>
      </trkpt>
      <trkpt lat="41.654898440" lon="2.604345150">
        <ele>512.20</ele>
        <time>2014-04-06T09:21:16Z</time>
      </trkpt>
      <trkpt lat="41.654895090" lon="2.604355040">
        <ele>512.60</ele>
        <time>2014-04-06T09:21:17Z</time>
      </trkpt>
      <trkpt lat="41.654890060" lon="2.604371810">
        <ele>512.90</ele>
        <time>2014-04-06T09:21:18Z</time>
      </trkpt>
      <trkpt lat="41.654883360" lon="2.604386730">
        <ele>513.20</ele>
        <time>2014-04-06T09:21:19Z</time>
      </trkpt>
      <trkpt lat="41.654878500" lon="2.604401810">
        <ele>513.50</ele>
        <time>2014-04-06T09:21:20Z</time>
      </trkpt>
      <trkpt lat="41.654873470" lon="2.604418410">
        <ele>513.70</ele>
        <time>2014-04-06T09:21:21Z</time>
      </trkpt>
      <trkpt lat="41.654866760" lon="2.604433330">
        <ele>514.00</ele>
        <time>2014-04-06T09:21:22Z</time>
      </trkpt>
      <trkpt lat="41.654861730" lon="2.604448420">
        <ele>514.20</ele>
        <time>2014-04-06T09:21:23Z</time>
      </trkpt>
      <trkpt lat="41.654856700" lon="2.604465010">
        <ele>514.30</ele>
        <time>2014-04-06T09:21:24Z</time>
      </trkpt>
      <trkpt lat="41.654850000" lon="2.604480100">
        <ele>514.40</ele>
        <time>2014-04-06T09:21:25Z</time>
      </trkpt>
      <trkpt lat="41.654843460" lon="2.604496700">
        <ele>514.40</ele>
        <time>2014-04-06T09:21:26Z</time>
      </trkpt>
      <trkpt lat="41.654835080" lon="2.604511780">
        <ele>514.40</ele>
        <time>2014-04-06T09:21:27Z</time>
      </trkpt>
      <trkpt lat="41.654826700" lon="2.604526700">
        <ele>514.30</ele>
        <time>2014-04-06T09:21:28Z</time>
      </trkpt>
      <trkpt lat="41.654818480" lon="2.604543470">
        <ele>514.50</ele>
        <time>2014-04-06T09:21:29Z</time>
      </trkpt>
      <trkpt lat="41.654811780" lon="2.604558390">
        <ele>514.70</ele>
        <time>2014-04-06T09:21:30Z</time>
      </trkpt>
      <trkpt lat="41.654806750" lon="2.604573480">
        <ele>514.80</ele>
        <time>2014-04-06T09:21:31Z</time>
      </trkpt>
      <trkpt lat="41.654801720" lon="2.604588400">
        <ele>514.70</ele>
        <time>2014-04-06T09:21:32Z</time>
      </trkpt>
      <trkpt lat="41.654795010" lon="2.604603480">
        <ele>514.70</ele>
        <time>2014-04-06T09:21:33Z</time>
      </trkpt>
      <trkpt lat="41.654786800" lon="2.604618400">
        <ele>514.90</ele>
        <time>2014-04-06T09:21:34Z</time>
      </trkpt>
      <trkpt lat="41.654781770" lon="2.604635000">
        <ele>515.00</ele>
        <time>2014-04-06T09:21:35Z</time>
      </trkpt>
      <trkpt lat="41.654775060" lon="2.604653440">
        <ele>515.40</ele>
        <time>2014-04-06T09:21:36Z</time>
      </trkpt>
      <trkpt lat="41.654770030" lon="2.604670040">
        <ele>515.70</ele>
        <time>2014-04-06T09:21:37Z</time>
      </trkpt>
      <trkpt lat="41.654765000" lon="2.604686800">
        <ele>516.00</ele>
        <time>2014-04-06T09:21:38Z</time>
      </trkpt>
      <trkpt lat="41.654761820" lon="2.604705070">
        <ele>516.00</ele>
        <time>2014-04-06T09:21:39Z</time>
      </trkpt>
      <trkpt lat="41.654758470" lon="2.604721670">
        <ele>516.10</ele>
        <time>2014-04-06T09:21:40Z</time>
      </trkpt>
      <trkpt lat="41.654755110" lon="2.604740110">
        <ele>516.20</ele>
        <time>2014-04-06T09:21:41Z</time>
      </trkpt>
      <trkpt lat="41.654751760" lon="2.604755030">
        <ele>516.20</ele>
        <time>2014-04-06T09:21:42Z</time>
      </trkpt>
      <trkpt lat="41.654748410" lon="2.604773470">
        <ele>516.40</ele>
        <time>2014-04-06T09:21:43Z</time>
      </trkpt>
      <trkpt lat="41.654743380" lon="2.604790060">
        <ele>516.50</ele>
        <time>2014-04-06T09:21:44Z</time>
      </trkpt>
      <trkpt lat="41.654741700" lon="2.604806830">
        <ele>516.60</ele>
        <time>2014-04-06T09:21:45Z</time>
      </trkpt>
      <trkpt lat="41.654738350" lon="2.604825100">
        <ele>516.70</ele>
        <time>2014-04-06T09:21:46Z</time>
      </trkpt>
      <trkpt lat="41.654735000" lon="2.604841700">
        <ele>516.80</ele>
        <time>2014-04-06T09:21:47Z</time>
      </trkpt>
      <trkpt lat="41.654735000" lon="2.604856780">
        <ele>517.00</ele>
        <time>2014-04-06T09:21:48Z</time>
      </trkpt>
      <trkpt lat="41.654735000" lon="2.604875060">
        <ele>517.20</ele>
        <time>2014-04-06T09:21:49Z</time>
      </trkpt>
      <trkpt lat="41.654736670" lon="2.604893330">
        <ele>517.30</ele>
        <time>2014-04-06T09:21:50Z</time>
      </trkpt>
      <trkpt lat="41.654738350" lon="2.604910090">
        <ele>517.40</ele>
        <time>2014-04-06T09:21:51Z</time>
      </trkpt>
      <trkpt lat="41.654740030" lon="2.604925010">
        <ele>517.50</ele>
        <time>2014-04-06T09:21:52Z</time>
      </trkpt>
      <trkpt lat="41.654743380" lon="2.604940100">
        <ele>517.80</ele>
        <time>2014-04-06T09:21:53Z</time>
      </trkpt>
      <trkpt lat="41.654748410" lon="2.604955020">
        <ele>518.00</ele>
        <time>2014-04-06T09:21:54Z</time>
      </trkpt>
      <trkpt lat="41.654753440" lon="2.604970110">
        <ele>518.50</ele>
        <time>2014-04-06T09:21:55Z</time>
      </trkpt>
      <trkpt lat="41.654760140" lon="2.604985030">
        <ele>518.80</ele>
        <time>2014-04-06T09:21:56Z</time>
      </trkpt>
      <trkpt lat="41.654763330" lon="2.605005140">
        <ele>519.00</ele>
        <time>2014-04-06T09:21:57Z</time>
      </trkpt>
      <trkpt lat="41.654763330" lon="2.605020060">
        <ele>519.10</ele>
        <time>2014-04-06T09:21:58Z</time>
      </trkpt>
      <trkpt lat="41.654765000" lon="2.605038340">
        <ele>519.10</ele>
        <time>2014-04-06T09:21:59Z</time>
      </trkpt>
      <trkpt lat="41.654766680" lon="2.605056780">
        <ele>519.00</ele>
        <time>2014-04-06T09:22:00Z</time>
      </trkpt>
      <trkpt lat="41.654770030" lon="2.605075050">
        <ele>518.90</ele>
        <time>2014-04-06T09:22:01Z</time>
      </trkpt>
      <trkpt lat="41.654770030" lon="2.605093490">
        <ele>519.20</ele>
        <time>2014-04-06T09:22:02Z</time>
      </trkpt>
      <trkpt lat="41.654770030" lon="2.605111760">
        <ele>519.40</ele>
        <time>2014-04-06T09:22:03Z</time>
      </trkpt>
      <trkpt lat="41.654770030" lon="2.605130030">
        <ele>519.60</ele>
        <time>2014-04-06T09:22:04Z</time>
      </trkpt>
      <trkpt lat="41.654768360" lon="2.605150150">
        <ele>520.00</ele>
        <time>2014-04-06T09:22:05Z</time>
      </trkpt>
      <trkpt lat="41.654770030" lon="2.605168420">
        <ele>520.30</ele>
        <time>2014-04-06T09:22:06Z</time>
      </trkpt>
      <trkpt lat="41.654771710" lon="2.605188370">
        <ele>520.30</ele>
        <time>2014-04-06T09:22:07Z</time>
      </trkpt>
      <trkpt lat="41.654775060" lon="2.605205140">
        <ele>520.30</ele>
        <time>2014-04-06T09:22:08Z</time>
      </trkpt>
      <trkpt lat="41.654776740" lon="2.605220060">
        <ele>520.30</ele>
        <time>2014-04-06T09:22:09Z</time>
      </trkpt>
      <trkpt lat="41.654778420" lon="2.605238330">
        <ele>520.50</ele>
        <time>2014-04-06T09:22:10Z</time>
      </trkpt>
      <trkpt lat="41.654780090" lon="2.605255090">
        <ele>520.70</ele>
        <time>2014-04-06T09:22:11Z</time>
      </trkpt>
      <trkpt lat="41.654778420" lon="2.605271690">
        <ele>520.70</ele>
        <time>2014-04-06T09:22:12Z</time>
      </trkpt>
      <trkpt lat="41.654778420" lon="2.605286780">
        <ele>520.80</ele>
        <time>2014-04-06T09:22:13Z</time>
      </trkpt>
      <trkpt lat="41.654778420" lon="2.605303370">
        <ele>520.90</ele>
        <time>2014-04-06T09:22:14Z</time>
      </trkpt>
      <trkpt lat="41.654780090" lon="2.605320140">
        <ele>521.00</ele>
        <time>2014-04-06T09:22:15Z</time>
      </trkpt>
      <trkpt lat="41.654778420" lon="2.605336730">
        <ele>521.10</ele>
        <time>2014-04-06T09:22:16Z</time>
      </trkpt>
      <trkpt lat="41.654778420" lon="2.605353500">
        <ele>521.60</ele>
        <time>2014-04-06T09:22:17Z</time>
      </trkpt>
      <trkpt lat="41.654776740" lon="2.605366740">
        <ele>521.90</ele>
        <time>2014-04-06T09:22:18Z</time>
      </trkpt>
      <trkpt lat="41.654776740" lon="2.605381830">
        <ele>522.00</ele>
        <time>2014-04-06T09:22:19Z</time>
      </trkpt>
      <trkpt lat="41.654776740" lon="2.605396750">
        <ele>522.10</ele>
        <time>2014-04-06T09:22:20Z</time>
      </trkpt>
      <trkpt lat="41.654775060" lon="2.605413340">
        <ele>522.40</ele>
        <time>2014-04-06T09:22:21Z</time>
      </trkpt>
      <trkpt lat="41.654773390" lon="2.605428430">
        <ele>522.50</ele>
        <time>2014-04-06T09:22:22Z</time>
      </trkpt>
      <trkpt lat="41.654771710" lon="2.605445030">
        <ele>522.60</ele>
        <time>2014-04-06T09:22:23Z</time>
      </trkpt>
      <trkpt lat="41.654771710" lon="2.605460110">
        <ele>522.80</ele>
        <time>2014-04-06T09:22:24Z</time>
      </trkpt>
      <trkpt lat="41.654768360" lon="2.605475030">
        <ele>522.90</ele>
        <time>2014-04-06T09:22:25Z</time>
      </trkpt>
      <trkpt lat="41.654765000" lon="2.605490120">
        <ele>523.30</ele>
        <time>2014-04-06T09:22:26Z</time>
      </trkpt>
      <trkpt lat="41.654763330" lon="2.605503360">
        <ele>523.50</ele>
        <time>2014-04-06T09:22:27Z</time>
      </trkpt>
      <trkpt lat="41.654763330" lon="2.605518450">
        <ele>523.70</ele>
        <time>2014-04-06T09:22:28Z</time>
      </trkpt>
      <trkpt lat="41.654761820" lon="2.605533370">
        <ele>524.00</ele>
        <time>2014-04-06T09:22:29Z</time>
      </trkpt>
      <trkpt lat="41.654760140" lon="2.605548460">
        <ele>524.20</ele>
        <time>2014-04-06T09:22:30Z</time>
      </trkpt>
      <trkpt lat="41.654756790" lon="2.605565050">
        <ele>524.60</ele>
        <time>2014-04-06T09:22:31Z</time>
      </trkpt>
      <trkpt lat="41.654753440" lon="2.605581820">
        <ele>524.90</ele>
        <time>2014-04-06T09:22:32Z</time>
      </trkpt>
      <trkpt lat="41.654746730" lon="2.605596740">
        <ele>525.20</ele>
        <time>2014-04-06T09:22:33Z</time>
      </trkpt>
      <trkpt lat="41.654741700" lon="2.605611830">
        <ele>525.40</ele>
        <time>2014-04-06T09:22:34Z</time>
      </trkpt>
      <trkpt lat="41.654738350" lon="2.605630100">
        <ele>525.50</ele>
        <time>2014-04-06T09:22:35Z</time>
      </trkpt>
      <trkpt lat="41.654733490" lon="2.605646690">
        <ele>525.90</ele>
        <time>2014-04-06T09:22:36Z</time>
      </trkpt>
      <trkpt lat="41.654726780" lon="2.605663460">
        <ele>526.20</ele>
        <time>2014-04-06T09:22:37Z</time>
      </trkpt>
      <trkpt lat="41.654721750" lon="2.605681730">
        <ele>526.40</ele>
        <time>2014-04-06T09:22:38Z</time>
      </trkpt>
      <trkpt lat="41.654718400" lon="2.605698490">
        <ele>526.50</ele>
        <time>2014-04-06T09:22:39Z</time>
      </trkpt>
      <trkpt lat="41.654715050" lon="2.605720120">
        <ele>526.80</ele>
        <time>2014-04-06T09:22:40Z</time>
      </trkpt>
      <trkpt lat="41.654711700" lon="2.605740070">
        <ele>527.00</ele>
        <time>2014-04-06T09:22:41Z</time>
      </trkpt>
      <trkpt lat="41.654706670" lon="2.605758340">
        <ele>527.10</ele>
        <time>2014-04-06T09:22:42Z</time>
      </trkpt>
      <trkpt lat="41.654703480" lon="2.605775110">
        <ele>527.50</ele>
        <time>2014-04-06T09:22:43Z</time>
      </trkpt>
      <trkpt lat="41.654698450" lon="2.605795050">
        <ele>527.80</ele>
        <time>2014-04-06T09:22:44Z</time>
      </trkpt>
      <trkpt lat="41.654693420" lon="2.605815000">
        <ele>528.00</ele>
        <time>2014-04-06T09:22:45Z</time>
      </trkpt>
      <trkpt lat="41.654686720" lon="2.605833440">
        <ele>528.20</ele>
        <time>2014-04-06T09:22:46Z</time>
      </trkpt>
      <trkpt lat="41.654680010" lon="2.605851720">
        <ele>528.30</ele>
        <time>2014-04-06T09:22:47Z</time>
      </trkpt>
      <trkpt lat="41.654673470" lon="2.605870160">
        <ele>528.30</ele>
        <time>2014-04-06T09:22:48Z</time>
      </trkpt>
      <trkpt lat="41.654668450" lon="2.605888430">
        <ele>528.40</ele>
        <time>2014-04-06T09:22:49Z</time>
      </trkpt>
      <trkpt lat="41.654661740" lon="2.605906700">
        <ele>528.60</ele>
        <time>2014-04-06T09:22:50Z</time>
      </trkpt>
      <trkpt lat="41.654653360" lon="2.605925140">
        <ele>528.90</ele>
        <time>2014-04-06T09:22:51Z</time>
      </trkpt>
      <trkpt lat="41.654645140" lon="2.605941740">
        <ele>529.00</ele>
        <time>2014-04-06T09:22:52Z</time>
      </trkpt>
      <trkpt lat="41.654636760" lon="2.605960010">
        <ele>529.10</ele>
        <time>2014-04-06T09:22:53Z</time>
      </trkpt>
      <trkpt lat="41.654626700" lon="2.605975100">
        <ele>529.10</ele>
        <time>2014-04-06T09:22:54Z</time>
      </trkpt>
      <trkpt lat="41.654620000" lon="2.605993370">
        <ele>528.80</ele>
        <time>2014-04-06T09:22:55Z</time>
      </trkpt>
      <trkpt lat="41.654615140" lon="2.606015000">
        <ele>528.60</ele>
        <time>2014-04-06T09:22:56Z</time>
      </trkpt>
      <trkpt lat="41.654613460" lon="2.606038460">
        <ele>529.00</ele>
        <time>2014-04-06T09:22:57Z</time>
      </trkpt>
      <trkpt lat="41.654613460" lon="2.606060090">
        <ele>529.30</ele>
        <time>2014-04-06T09:22:58Z</time>
      </trkpt>
      <trkpt lat="41.654613460" lon="2.606080040">
        <ele>529.30</ele>
        <time>2014-04-06T09:22:59Z</time>
      </trkpt>
      <trkpt lat="41.654620000" lon="2.606100160">
        <ele>529.20</ele>
        <time>2014-04-06T09:23:00Z</time>
      </trkpt>
      <trkpt lat="41.654628380" lon="2.606116750">
        <ele>529.20</ele>
        <time>2014-04-06T09:23:01Z</time>
      </trkpt>
      <trkpt lat="41.654638440" lon="2.606128490">
        <ele>529.50</ele>
        <time>2014-04-06T09:23:02Z</time>
      </trkpt>
      <trkpt lat="41.654646820" lon="2.606136700">
        <ele>529.70</ele>
        <time>2014-04-06T09:23:03Z</time>
      </trkpt>
      <trkpt lat="41.654656710" lon="2.606138380">
        <ele>529.70</ele>
        <time>2014-04-06T09:23:04Z</time>
      </trkpt>
      <trkpt lat="41.654666770" lon="2.606140050">
        <ele>529.70</ele>
        <time>2014-04-06T09:23:05Z</time>
      </trkpt>
      <trkpt lat="41.654675150" lon="2.606136700">
        <ele>529.70</ele>
        <time>2014-04-06T09:23:06Z</time>
      </trkpt>
      <trkpt lat="41.654685040" lon="2.606126810">
        <ele>530.10</ele>
        <time>2014-04-06T09:23:07Z</time>
      </trkpt>
      <trkpt lat="41.654695100" lon="2.606118430">
        <ele>530.40</ele>
        <time>2014-04-06T09:23:08Z</time>
      </trkpt>
      <trkpt lat="41.654705160" lon="2.606110050">
        <ele>530.60</ele>
        <time>2014-04-06T09:23:09Z</time>
      </trkpt>
      <trkpt lat="41.654708340" lon="2.606103340">
        <ele>530.80</ele>
        <time>2014-04-06T09:23:10Z</time>
      </trkpt>
      <trkpt lat="41.654711700" lon="2.606095130">
        <ele>531.10</ele>
        <time>2014-04-06T09:23:11Z</time>
      </trkpt>
      <trkpt lat="41.654718400" lon="2.606085070">
        <ele>531.40</ele>
        <time>2014-04-06T09:23:12Z</time>
      </trkpt>
      <trkpt lat="41.654725110" lon="2.606076690">
        <ele>531.60</ele>
        <time>2014-04-06T09:23:13Z</time>
      </trkpt>
      <trkpt lat="41.654730140" lon="2.606068470">
        <ele>531.90</ele>
        <time>2014-04-06T09:23:14Z</time>
      </trkpt>
      <trkpt lat="41.654736670" lon="2.606058410">
        <ele>532.10</ele>
        <time>2014-04-06T09:23:15Z</time>
      </trkpt>
      <trkpt lat="41.654743380" lon="2.606048360">
        <ele>532.70</ele>
        <time>2014-04-06T09:23:16Z</time>
      </trkpt>
      <trkpt lat="41.654750090" lon="2.606040140">
        <ele>533.10</ele>
        <time>2014-04-06T09:23:17Z</time>
      </trkpt>
      <trkpt lat="41.654756790" lon="2.606028410">
        <ele>533.20</ele>
        <time>2014-04-06T09:23:18Z</time>
      </trkpt>
      <trkpt lat="41.654760140" lon="2.606016670">
        <ele>533.30</ele>
        <time>2014-04-06T09:23:19Z</time>
      </trkpt>
      <trkpt lat="41.654765000" lon="2.606006780">
        <ele>533.40</ele>
        <time>2014-04-06T09:23:20Z</time>
      </trkpt>
      <trkpt lat="41.654771710" lon="2.605998400">
        <ele>533.70</ele>
        <time>2014-04-06T09:23:21Z</time>
      </trkpt>
      <trkpt lat="41.654775060" lon="2.605990020">
        <ele>533.90</ele>
        <time>2014-04-06T09:23:22Z</time>
      </trkpt>
      <trkpt lat="41.654781770" lon="2.605976770">
        <ele>534.40</ele>
        <time>2014-04-06T09:23:23Z</time>
      </trkpt>
      <trkpt lat="41.654786800" lon="2.605966720">
        <ele>534.70</ele>
        <time>2014-04-06T09:23:24Z</time>
      </trkpt>
      <trkpt lat="41.654790150" lon="2.605955150">
        <ele>535.00</ele>
        <time>2014-04-06T09:23:25Z</time>
      </trkpt>
      <trkpt lat="41.654796690" lon="2.605946770">
        <ele>534.90</ele>
        <time>2014-04-06T09:23:26Z</time>
      </trkpt>
      <trkpt lat="41.654805070" lon="2.605938380">
        <ele>534.90</ele>
        <time>2014-04-06T09:23:27Z</time>
      </trkpt>
      <trkpt lat="41.654815130" lon="2.605930000">
        <ele>535.10</ele>
        <time>2014-04-06T09:23:28Z</time>
      </trkpt>
      <trkpt lat="41.654821670" lon="2.605921790">
        <ele>535.30</ele>
        <time>2014-04-06T09:23:29Z</time>
      </trkpt>
      <trkpt lat="41.654828370" lon="2.605911730">
        <ele>536.00</ele>
        <time>2014-04-06T09:23:30Z</time>
      </trkpt>
      <trkpt lat="41.654835080" lon="2.605901670">
        <ele>536.50</ele>
        <time>2014-04-06T09:23:31Z</time>
      </trkpt>
      <trkpt lat="41.654843460" lon="2.605891780">
        <ele>536.80</ele>
        <time>2014-04-06T09:23:32Z</time>
      </trkpt>
      <trkpt lat="41.654851670" lon="2.605881720">
        <ele>536.90</ele>
        <time>2014-04-06T09:23:33Z</time>
      </trkpt>
      <trkpt lat="41.654856700" lon="2.605870160">
        <ele>536.90</ele>
        <time>2014-04-06T09:23:34Z</time>
      </trkpt>
      <trkpt lat="41.654865080" lon="2.605861770">
        <ele>537.60</ele>
        <time>2014-04-06T09:23:35Z</time>
      </trkpt>
      <trkpt lat="41.654871790" lon="2.605855070">
        <ele>538.20</ele>
        <time>2014-04-06T09:23:36Z</time>
      </trkpt>
      <trkpt lat="41.654878500" lon="2.605846690">
        <ele>538.30</ele>
        <time>2014-04-06T09:23:37Z</time>
      </trkpt>
      <trkpt lat="41.654883360" lon="2.605838470">
        <ele>538.30</ele>
        <time>2014-04-06T09:23:38Z</time>
      </trkpt>
      <trkpt lat="41.654888390" lon="2.605826740">
        <ele>538.30</ele>
        <time>2014-04-06T09:23:39Z</time>
      </trkpt>
      <trkpt lat="41.654895090" lon="2.605813490">
        <ele>538.30</ele>
        <time>2014-04-06T09:23:40Z</time>
      </trkpt>
      <trkpt lat="41.654901800" lon="2.605801760">
        <ele>538.30</ele>
        <time>2014-04-06T09:23:41Z</time>
      </trkpt>
      <trkpt lat="41.654910010" lon="2.605790030">
        <ele>538.90</ele>
        <time>2014-04-06T09:23:42Z</time>
      </trkpt>
      <trkpt lat="41.654916720" lon="2.605781810">
        <ele>539.30</ele>
        <time>2014-04-06T09:23:43Z</time>
      </trkpt>
      <trkpt lat="41.654926780" lon="2.605775110">
        <ele>539.40</ele>
        <time>2014-04-06T09:23:44Z</time>
      </trkpt>
      <trkpt lat="41.654933480" lon="2.605768400">
        <ele>539.50</ele>
        <time>2014-04-06T09:23:45Z</time>
      </trkpt>
      <trkpt lat="41.654940020" lon="2.605761690">
        <ele>539.50</ele>
        <time>2014-04-06T09:23:46Z</time>
      </trkpt>
      <trkpt lat="41.654948400" lon="2.605753480">
        <ele>539.60</ele>
        <time>2014-04-06T09:23:47Z</time>
      </trkpt>
      <trkpt lat="41.654956780" lon="2.605743420">
        <ele>539.60</ele>
        <time>2014-04-06T09:23:48Z</time>
      </trkpt>
      <trkpt lat="41.654965000" lon="2.605736720">
        <ele>540.30</ele>
        <time>2014-04-06T09:23:49Z</time>
      </trkpt>
      <trkpt lat="41.654975060" lon="2.605728330">
        <ele>540.80</ele>
        <time>2014-04-06T09:23:50Z</time>
      </trkpt>
      <trkpt lat="41.654981760" lon="2.605720120">
        <ele>541.20</ele>
        <time>2014-04-06T09:23:51Z</time>
      </trkpt>
      <trkpt lat="41.654990140" lon="2.605713410">
        <ele>541.60</ele>
        <time>2014-04-06T09:23:52Z</time>
      </trkpt>
      <trkpt lat="41.654996680" lon="2.605706710">
        <ele>541.90</ele>
        <time>2014-04-06T09:23:53Z</time>
      </trkpt>
      <trkpt lat="41.655005060" lon="2.605698490">
        <ele>542.20</ele>
        <time>2014-04-06T09:23:54Z</time>
      </trkpt>
      <trkpt lat="41.655011770" lon="2.605690110">
        <ele>542.40</ele>
        <time>2014-04-06T09:23:55Z</time>
      </trkpt>
      <trkpt lat="41.655018470" lon="2.605680050">
        <ele>542.70</ele>
        <time>2014-04-06T09:23:56Z</time>
      </trkpt>
      <trkpt lat="41.655025010" lon="2.605670000">
        <ele>543.00</ele>
        <time>2014-04-06T09:23:57Z</time>
      </trkpt>
      <trkpt lat="41.655031720" lon="2.605663460">
        <ele>543.10</ele>
        <time>2014-04-06T09:23:58Z</time>
      </trkpt>
      <trkpt lat="41.655038420" lon="2.605655080">
        <ele>543.10</ele>
        <time>2014-04-06T09:23:59Z</time>
      </trkpt>
      <trkpt lat="41.655046800" lon="2.605650050">
        <ele>543.10</ele>
        <time>2014-04-06T09:24:00Z</time>
      </trkpt>
      <trkpt lat="41.655053340" lon="2.605643340">
        <ele>543.20</ele>
        <time>2014-04-06T09:24:01Z</time>
      </trkpt>
      <trkpt lat="41.655060050" lon="2.605635130">
        <ele>543.30</ele>
        <time>2014-04-06T09:24:02Z</time>
      </trkpt>
      <trkpt lat="41.655068430" lon="2.605626750">
        <ele>543.50</ele>
        <time>2014-04-06T09:24:03Z</time>
      </trkpt>
      <trkpt lat="41.655075140" lon="2.605618360">
        <ele>543.70</ele>
        <time>2014-04-06T09:24:04Z</time>
      </trkpt>
      <trkpt lat="41.655078490" lon="2.605608470">
        <ele>543.80</ele>
        <time>2014-04-06T09:24:05Z</time>
      </trkpt>
      <trkpt lat="41.655086700" lon="2.605601770">
        <ele>544.10</ele>
        <time>2014-04-06T09:24:06Z</time>
      </trkpt>
      <trkpt lat="41.655093410" lon="2.605591710">
        <ele>544.40</ele>
        <time>2014-04-06T09:24:07Z</time>
      </trkpt>
      <trkpt lat="41.655100110" lon="2.605581820">
        <ele>544.60</ele>
        <time>2014-04-06T09:24:08Z</time>
      </trkpt>
      <trkpt lat="41.655106820" lon="2.605573440">
        <ele>544.70</ele>
        <time>2014-04-06T09:24:09Z</time>
      </trkpt>
      <trkpt lat="41.655113360" lon="2.605563380">
        <ele>544.80</ele>
        <time>2014-04-06T09:24:10Z</time>
      </trkpt>
      <trkpt lat="41.655120060" lon="2.605553490">
        <ele>545.00</ele>
        <time>2014-04-06T09:24:11Z</time>
      </trkpt>
      <trkpt lat="41.655126770" lon="2.605540080">
        <ele>545.20</ele>
        <time>2014-04-06T09:24:12Z</time>
      </trkpt>
      <trkpt lat="41.655133470" lon="2.605531690">
        <ele>545.60</ele>
        <time>2014-04-06T09:24:13Z</time>
      </trkpt>
      <trkpt lat="41.655141690" lon="2.605520130">
        <ele>545.90</ele>
        <time>2014-04-06T09:24:14Z</time>
      </trkpt>
      <trkpt lat="41.655146720" lon="2.605508390">
        <ele>546.10</ele>
        <time>2014-04-06T09:24:15Z</time>
      </trkpt>
      <trkpt lat="41.655153420" lon="2.605495150">
        <ele>546.30</ele>
        <time>2014-04-06T09:24:16Z</time>
      </trkpt>
      <trkpt lat="41.655160130" lon="2.605485090">
        <ele>546.50</ele>
        <time>2014-04-06T09:24:17Z</time>
      </trkpt>
      <trkpt lat="41.655166670" lon="2.605473360">
        <ele>546.50</ele>
        <time>2014-04-06T09:24:18Z</time>
      </trkpt>
      <trkpt lat="41.655173370" lon="2.605460110">
        <ele>546.50</ele>
        <time>2014-04-06T09:24:19Z</time>
      </trkpt>
      <trkpt lat="41.655180080" lon="2.605446700">
        <ele>547.00</ele>
        <time>2014-04-06T09:24:20Z</time>
      </trkpt>
      <trkpt lat="41.655183430" lon="2.605430110">
        <ele>547.40</ele>
        <time>2014-04-06T09:24:21Z</time>
      </trkpt>
      <trkpt lat="41.655186780" lon="2.605416700">
        <ele>547.80</ele>
        <time>2014-04-06T09:24:22Z</time>
      </trkpt>
      <trkpt lat="41.655191810" lon="2.605403450">
        <ele>548.00</ele>
        <time>2014-04-06T09:24:23Z</time>
      </trkpt>
      <trkpt lat="41.655196670" lon="2.605393390">
        <ele>548.20</ele>
        <time>2014-04-06T09:24:24Z</time>
      </trkpt>
      <trkpt lat="41.655201700" lon="2.605380150">
        <ele>548.10</ele>
        <time>2014-04-06T09:24:25Z</time>
      </trkpt>
      <trkpt lat="41.655208410" lon="2.605366740">
        <ele>548.00</ele>
        <time>2014-04-06T09:24:26Z</time>
      </trkpt>
      <trkpt lat="41.655213440" lon="2.605350140">
        <ele>548.20</ele>
        <time>2014-04-06T09:24:27Z</time>
      </trkpt>
      <trkpt lat="41.655218470" lon="2.605335060">
        <ele>548.40</ele>
        <time>2014-04-06T09:24:28Z</time>
      </trkpt>
      <trkpt lat="41.655220140" lon="2.605318460">
        <ele>548.50</ele>
        <time>2014-04-06T09:24:29Z</time>
      </trkpt>
      <trkpt lat="41.655223490" lon="2.605301700">
        <ele>549.00</ele>
        <time>2014-04-06T09:24:30Z</time>
      </trkpt>
      <trkpt lat="41.655226680" lon="2.605288450">
        <ele>549.30</ele>
        <time>2014-04-06T09:24:31Z</time>
      </trkpt>
      <trkpt lat="41.655231710" lon="2.605273360">
        <ele>549.70</ele>
        <time>2014-04-06T09:24:32Z</time>
      </trkpt>
      <trkpt lat="41.655236740" lon="2.605260120">
        <ele>550.10</ele>
        <time>2014-04-06T09:24:33Z</time>
      </trkpt>
      <trkpt lat="41.655240090" lon="2.605246710">
        <ele>550.60</ele>
        <time>2014-04-06T09:24:34Z</time>
      </trkpt>
      <trkpt lat="41.655245120" lon="2.605233470">
        <ele>550.90</ele>
        <time>2014-04-06T09:24:35Z</time>
      </trkpt>
      <trkpt lat="41.655250150" lon="2.605221730">
        <ele>551.20</ele>
        <time>2014-04-06T09:24:36Z</time>
      </trkpt>
      <trkpt lat="41.655256690" lon="2.605210000">
        <ele>551.10</ele>
        <time>2014-04-06T09:24:37Z</time>
      </trkpt>
      <trkpt lat="41.655263390" lon="2.605198430">
        <ele>551.10</ele>
        <time>2014-04-06T09:24:38Z</time>
      </trkpt>
      <trkpt lat="41.655271770" lon="2.605186700">
        <ele>551.40</ele>
        <time>2014-04-06T09:24:39Z</time>
      </trkpt>
      <trkpt lat="41.655280160" lon="2.605176810">
        <ele>551.70</ele>
        <time>2014-04-06T09:24:40Z</time>
      </trkpt>
      <trkpt lat="41.655285020" lon="2.605163390">
        <ele>551.70</ele>
        <time>2014-04-06T09:24:41Z</time>
      </trkpt>
      <trkpt lat="41.655290050" lon="2.605151830">
        <ele>551.80</ele>
        <time>2014-04-06T09:24:42Z</time>
      </trkpt>
      <trkpt lat="41.655296750" lon="2.605141770">
        <ele>551.80</ele>
        <time>2014-04-06T09:24:43Z</time>
      </trkpt>
      <trkpt lat="41.655303460" lon="2.605130030">
        <ele>551.90</ele>
        <time>2014-04-06T09:24:44Z</time>
      </trkpt>
      <trkpt lat="41.655310000" lon="2.605118470">
        <ele>552.00</ele>
        <time>2014-04-06T09:24:45Z</time>
      </trkpt>
      <trkpt lat="41.655316700" lon="2.605106730">
        <ele>552.40</ele>
        <time>2014-04-06T09:24:46Z</time>
      </trkpt>
      <trkpt lat="41.655321730" lon="2.605096670">
        <ele>552.80</ele>
        <time>2014-04-06T09:24:47Z</time>
      </trkpt>
      <trkpt lat="41.655328440" lon="2.605086780">
        <ele>553.00</ele>
        <time>2014-04-06T09:24:48Z</time>
      </trkpt>
      <trkpt lat="41.655335140" lon="2.605075050">
        <ele>552.90</ele>
        <time>2014-04-06T09:24:49Z</time>
      </trkpt>
      <trkpt lat="41.655343360" lon="2.605063480">
        <ele>552.80</ele>
        <time>2014-04-06T09:24:50Z</time>
      </trkpt>
      <trkpt lat="41.655353410" lon="2.605055100">
        <ele>553.20</ele>
        <time>2014-04-06T09:24:51Z</time>
      </trkpt>
      <trkpt lat="41.655363470" lon="2.605046720">
        <ele>553.50</ele>
        <time>2014-04-06T09:24:52Z</time>
      </trkpt>
      <trkpt lat="41.655371690" lon="2.605040010">
        <ele>554.10</ele>
        <time>2014-04-06T09:24:53Z</time>
      </trkpt>
      <trkpt lat="41.655383420" lon="2.605030120">
        <ele>554.50</ele>
        <time>2014-04-06T09:24:54Z</time>
      </trkpt>
      <trkpt lat="41.655391800" lon="2.605023420">
        <ele>554.80</ele>
        <time>2014-04-06T09:24:55Z</time>
      </trkpt>
      <trkpt lat="41.655400020" lon="2.605013360">
        <ele>554.60</ele>
        <time>2014-04-06T09:24:56Z</time>
      </trkpt>
      <trkpt lat="41.655408400" lon="2.605003470">
        <ele>554.50</ele>
        <time>2014-04-06T09:24:57Z</time>
      </trkpt>
      <trkpt lat="41.655416780" lon="2.604995090">
        <ele>554.90</ele>
        <time>2014-04-06T09:24:58Z</time>
      </trkpt>
      <trkpt lat="41.655425000" lon="2.604985030">
        <ele>555.30</ele>
        <time>2014-04-06T09:24:59Z</time>
      </trkpt>
      <trkpt lat="41.655433380" lon="2.604973460">
        <ele>555.30</ele>
        <time>2014-04-06T09:25:00Z</time>
      </trkpt>
      <trkpt lat="41.655443440" lon="2.604968430">
        <ele>555.40</ele>
        <time>2014-04-06T09:25:01Z</time>
      </trkpt>
      <trkpt lat="41.655453490" lon="2.604960050">
        <ele>555.40</ele>
        <time>2014-04-06T09:25:02Z</time>
      </trkpt>
      <trkpt lat="41.655463390" lon="2.604951670">
        <ele>555.80</ele>
        <time>2014-04-06T09:25:03Z</time>
      </trkpt>
      <trkpt lat="41.655473440" lon="2.604943450">
        <ele>556.10</ele>
        <time>2014-04-06T09:25:04Z</time>
      </trkpt>
      <trkpt lat="41.655483330" lon="2.604935070">
        <ele>556.00</ele>
        <time>2014-04-06T09:25:05Z</time>
      </trkpt>
      <trkpt lat="41.655491720" lon="2.604925010">
        <ele>556.00</ele>
        <time>2014-04-06T09:25:06Z</time>
      </trkpt>
      <trkpt lat="41.655500100" lon="2.604916800">
        <ele>556.20</ele>
        <time>2014-04-06T09:25:07Z</time>
      </trkpt>
      <trkpt lat="41.655510160" lon="2.604906740">
        <ele>556.40</ele>
        <time>2014-04-06T09:25:08Z</time>
      </trkpt>
      <trkpt lat="41.655520050" lon="2.604895010">
        <ele>556.50</ele>
        <time>2014-04-06T09:25:09Z</time>
      </trkpt>
      <trkpt lat="41.655530110" lon="2.604885110">
        <ele>556.80</ele>
        <time>2014-04-06T09:25:10Z</time>
      </trkpt>
      <trkpt lat="41.655540000" lon="2.604875060">
        <ele>557.10</ele>
        <time>2014-04-06T09:25:11Z</time>
      </trkpt>
      <trkpt lat="41.655551730" lon="2.604868350">
        <ele>557.40</ele>
        <time>2014-04-06T09:25:12Z</time>
      </trkpt>
      <trkpt lat="41.655560110" lon="2.604863490">
        <ele>557.60</ele>
        <time>2014-04-06T09:25:13Z</time>
      </trkpt>
      <trkpt lat="41.655570000" lon="2.604858460">
        <ele>557.70</ele>
        <time>2014-04-06T09:25:14Z</time>
      </trkpt>
      <trkpt lat="41.655581740" lon="2.604855110">
        <ele>557.80</ele>
        <time>2014-04-06T09:25:15Z</time>
      </trkpt>
      <trkpt lat="41.655593470" lon="2.604843370">
        <ele>557.80</ele>
        <time>2014-04-06T09:25:16Z</time>
      </trkpt>
      <trkpt lat="41.655606720" lon="2.604833480">
        <ele>557.60</ele>
        <time>2014-04-06T09:25:17Z</time>
      </trkpt>
      <trkpt lat="41.655647620" lon="2.604785540">
        <ele>557.00</ele>
        <time>2014-04-06T09:25:20Z</time>
      </trkpt>
      <trkpt lat="41.655670080" lon="2.604778330">
        <ele>558.50</ele>
        <time>2014-04-06T09:25:22Z</time>
      </trkpt>
      <trkpt lat="41.655765640" lon="2.604757040">
        <ele>559.00</ele>
        <time>2014-04-06T09:25:28Z</time>
      </trkpt>
      <trkpt lat="41.655835040" lon="2.604756700">
        <ele>559.00</ele>
        <time>2014-04-06T09:25:32Z</time>
      </trkpt>
      <trkpt lat="41.655906790" lon="2.604743960">
        <ele>560.00</ele>
        <time>2014-04-06T09:25:36Z</time>
      </trkpt>
      <trkpt lat="41.655961100" lon="2.604690990">
        <ele>559.00</ele>
        <time>2014-04-06T09:25:40Z</time>
      </trkpt>
      <trkpt lat="41.655993620" lon="2.604605830">
        <ele>560.00</ele>
        <time>2014-04-06T09:25:44Z</time>
      </trkpt>
      <trkpt lat="41.656055320" lon="2.604565930">
        <ele>561.00</ele>
        <time>2014-04-06T09:25:48Z</time>
      </trkpt>
      <trkpt lat="41.656129750" lon="2.604553530">
        <ele>561.00</ele>
        <time>2014-04-06T09:25:52Z</time>
      </trkpt>
      <trkpt lat="41.656179370" lon="2.604527040">
        <ele>561.00</ele>
        <time>2014-04-06T09:25:56Z</time>
      </trkpt>
      <trkpt lat="41.656226640" lon="2.604507260">
        <ele>562.00</ele>
        <time>2014-04-06T09:26:00Z</time>
      </trkpt>
      <trkpt lat="41.656260500" lon="2.604461330">
        <ele>563.00</ele>
        <time>2014-04-06T09:26:04Z</time>
      </trkpt>
      <trkpt lat="41.656290340" lon="2.604425790">
        <ele>563.00</ele>
        <time>2014-04-06T09:26:08Z</time>
      </trkpt>
      <trkpt lat="41.656302410" lon="2.604389910">
        <ele>564.00</ele>
        <time>2014-04-06T09:26:12Z</time>
      </trkpt>
      <trkpt lat="41.656286320" lon="2.604306430">
        <ele>564.00</ele>
        <time>2014-04-06T09:26:16Z</time>
      </trkpt>
      <trkpt lat="41.656259830" lon="2.604224620">
        <ele>565.00</ele>
        <time>2014-04-06T09:26:20Z</time>
      </trkpt>
      <trkpt lat="41.656220940" lon="2.604154550">
        <ele>566.00</ele>
        <time>2014-04-06T09:26:24Z</time>
      </trkpt>
      <trkpt lat="41.656205020" lon="2.604128400">
        <ele>566.80</ele>
        <time>2014-04-06T09:26:26Z</time>
      </trkpt>
      <trkpt lat="41.656175010" lon="2.604091680">
        <ele>566.30</ele>
        <time>2014-04-06T09:26:30Z</time>
      </trkpt>
      <trkpt lat="41.656091690" lon="2.603963440">
        <ele>566.90</ele>
        <time>2014-04-06T09:26:31Z</time>
      </trkpt>
      <trkpt lat="41.656081800" lon="2.603946680">
        <ele>567.30</ele>
        <time>2014-04-06T09:26:32Z</time>
      </trkpt>
      <trkpt lat="41.656073420" lon="2.603926730">
        <ele>567.30</ele>
        <time>2014-04-06T09:26:33Z</time>
      </trkpt>
      <trkpt lat="41.656066710" lon="2.603911810">
        <ele>567.30</ele>
        <time>2014-04-06T09:26:34Z</time>
      </trkpt>
      <trkpt lat="41.656058330" lon="2.603893370">
        <ele>567.60</ele>
        <time>2014-04-06T09:26:35Z</time>
      </trkpt>
      <trkpt lat="41.656050120" lon="2.603873420">
        <ele>567.80</ele>
        <time>2014-04-06T09:26:36Z</time>
      </trkpt>
      <trkpt lat="41.656041740" lon="2.603853470">
        <ele>568.00</ele>
        <time>2014-04-06T09:26:37Z</time>
      </trkpt>
      <trkpt lat="41.656031680" lon="2.603833350">
        <ele>568.20</ele>
        <time>2014-04-06T09:26:38Z</time>
      </trkpt>
      <trkpt lat="41.656011730" lon="2.603765130">
        <ele>568.40</ele>
        <time>2014-04-06T09:26:39Z</time>
      </trkpt>
      <trkpt lat="41.656006700" lon="2.603746680">
        <ele>568.80</ele>
        <time>2014-04-06T09:26:40Z</time>
      </trkpt>
      <trkpt lat="41.655996810" lon="2.603730090">
        <ele>569.00</ele>
        <time>2014-04-06T09:26:41Z</time>
      </trkpt>
      <trkpt lat="41.655983400" lon="2.603716680">
        <ele>569.20</ele>
        <time>2014-04-06T09:26:42Z</time>
      </trkpt>
      <trkpt lat="41.655970150" lon="2.603703430">
        <ele>569.30</ele>
        <time>2014-04-06T09:26:43Z</time>
      </trkpt>
      <trkpt lat="41.655960100" lon="2.603686670">
        <ele>569.40</ele>
        <time>2014-04-06T09:26:44Z</time>
      </trkpt>
      <trkpt lat="41.655951710" lon="2.603670070">
        <ele>569.60</ele>
        <time>2014-04-06T09:26:45Z</time>
      </trkpt>
      <trkpt lat="41.655943330" lon="2.603655150">
        <ele>569.80</ele>
        <time>2014-04-06T09:26:46Z</time>
      </trkpt>
      <trkpt lat="41.655935120" lon="2.603635040">
        <ele>570.00</ele>
        <time>2014-04-06T09:26:47Z</time>
      </trkpt>
      <trkpt lat="41.655928410" lon="2.603613410">
        <ele>570.10</ele>
        <time>2014-04-06T09:26:48Z</time>
      </trkpt>
      <trkpt lat="41.655921710" lon="2.603595140">
        <ele>570.20</ele>
        <time>2014-04-06T09:26:49Z</time>
      </trkpt>
      <trkpt lat="41.655915000" lon="2.603578380">
        <ele>570.50</ele>
        <time>2014-04-06T09:26:50Z</time>
      </trkpt>
      <trkpt lat="41.655903430" lon="2.603563460">
        <ele>570.60</ele>
        <time>2014-04-06T09:26:51Z</time>
      </trkpt>
      <trkpt lat="41.655893380" lon="2.603546690">
        <ele>570.90</ele>
        <time>2014-04-06T09:26:52Z</time>
      </trkpt>
      <trkpt lat="41.655885160" lon="2.603530100">
        <ele>571.10</ele>
        <time>2014-04-06T09:26:53Z</time>
      </trkpt>
      <trkpt lat="41.655880130" lon="2.603515010">
        <ele>571.40</ele>
        <time>2014-04-06T09:26:54Z</time>
      </trkpt>
      <trkpt lat="41.655873430" lon="2.603498410">
        <ele>571.70</ele>
        <time>2014-04-06T09:26:55Z</time>
      </trkpt>
      <trkpt lat="41.655870070" lon="2.603480140">
        <ele>571.90</ele>
        <time>2014-04-06T09:26:56Z</time>
      </trkpt>
      <trkpt lat="41.655865050" lon="2.603461700">
        <ele>571.60</ele>
        <time>2014-04-06T09:26:57Z</time>
      </trkpt>
      <trkpt lat="41.655860020" lon="2.603445100">
        <ele>571.40</ele>
        <time>2014-04-06T09:26:58Z</time>
      </trkpt>
      <trkpt lat="41.655858340" lon="2.603428340">
        <ele>571.70</ele>
        <time>2014-04-06T09:26:59Z</time>
      </trkpt>
      <trkpt lat="41.655855160" lon="2.603411740">
        <ele>571.90</ele>
        <time>2014-04-06T09:27:00Z</time>
      </trkpt>
      <trkpt lat="41.655851800" lon="2.603393470">
        <ele>572.40</ele>
        <time>2014-04-06T09:27:01Z</time>
      </trkpt>
      <trkpt lat="41.655848450" lon="2.603376710">
        <ele>572.80</ele>
        <time>2014-04-06T09:27:02Z</time>
      </trkpt>
      <trkpt lat="41.655845100" lon="2.603360110">
        <ele>573.00</ele>
        <time>2014-04-06T09:27:03Z</time>
      </trkpt>
      <trkpt lat="41.655838390" lon="2.603343350">
        <ele>573.10</ele>
        <time>2014-04-06T09:27:04Z</time>
      </trkpt>
      <trkpt lat="41.655836720" lon="2.603326750">
        <ele>573.20</ele>
        <time>2014-04-06T09:27:05Z</time>
      </trkpt>
      <trkpt lat="41.655833360" lon="2.603308480">
        <ele>573.10</ele>
        <time>2014-04-06T09:27:06Z</time>
      </trkpt>
      <trkpt lat="41.655831690" lon="2.603291720">
        <ele>573.00</ele>
        <time>2014-04-06T09:27:07Z</time>
      </trkpt>
      <trkpt lat="41.655833360" lon="2.603275120">
        <ele>572.90</ele>
        <time>2014-04-06T09:27:08Z</time>
      </trkpt>
      <trkpt lat="41.655831690" lon="2.603256680">
        <ele>573.30</ele>
        <time>2014-04-06T09:27:09Z</time>
      </trkpt>
      <trkpt lat="41.655828330" lon="2.603238410">
        <ele>573.60</ele>
        <time>2014-04-06T09:27:10Z</time>
      </trkpt>
      <trkpt lat="41.655830010" lon="2.603220130">
        <ele>573.50</ele>
        <time>2014-04-06T09:27:11Z</time>
      </trkpt>
      <trkpt lat="41.655826820" lon="2.603201690">
        <ele>573.50</ele>
        <time>2014-04-06T09:27:12Z</time>
      </trkpt>
      <trkpt lat="41.655821800" lon="2.603186770">
        <ele>573.70</ele>
        <time>2014-04-06T09:27:13Z</time>
      </trkpt>
      <trkpt lat="41.655818440" lon="2.603170010">
        <ele>573.80</ele>
        <time>2014-04-06T09:27:14Z</time>
      </trkpt>
      <trkpt lat="41.655810060" lon="2.603153410">
        <ele>573.90</ele>
        <time>2014-04-06T09:27:15Z</time>
      </trkpt>
      <trkpt lat="41.655806710" lon="2.603138490">
        <ele>574.10</ele>
        <time>2014-04-06T09:27:16Z</time>
      </trkpt>
      <trkpt lat="41.655805030" lon="2.603121730">
        <ele>574.30</ele>
        <time>2014-04-06T09:27:17Z</time>
      </trkpt>
      <trkpt lat="41.655800000" lon="2.603103460">
        <ele>574.30</ele>
        <time>2014-04-06T09:27:18Z</time>
      </trkpt>
      <trkpt lat="41.655791790" lon="2.603085020">
        <ele>574.30</ele>
        <time>2014-04-06T09:27:19Z</time>
      </trkpt>
      <trkpt lat="41.655785080" lon="2.603066740">
        <ele>574.30</ele>
        <time>2014-04-06T09:27:20Z</time>
      </trkpt>
      <trkpt lat="41.655778380" lon="2.603046800">
        <ele>574.50</ele>
        <time>2014-04-06T09:27:21Z</time>
      </trkpt>
      <trkpt lat="41.655770000" lon="2.603028360">
        <ele>574.60</ele>
        <time>2014-04-06T09:27:22Z</time>
      </trkpt>
      <trkpt lat="41.655760100" lon="2.603010080">
        <ele>574.60</ele>
        <time>2014-04-06T09:27:23Z</time>
      </trkpt>
      <trkpt lat="41.655748370" lon="2.602991810">
        <ele>574.60</ele>
        <time>2014-04-06T09:27:24Z</time>
      </trkpt>
      <trkpt lat="41.655740160" lon="2.602973370">
        <ele>575.00</ele>
        <time>2014-04-06T09:27:25Z</time>
      </trkpt>
      <trkpt lat="41.655731770" lon="2.602955100">
        <ele>575.30</ele>
        <time>2014-04-06T09:27:26Z</time>
      </trkpt>
      <trkpt lat="41.655725070" lon="2.602936830">
        <ele>575.50</ele>
        <time>2014-04-06T09:27:27Z</time>
      </trkpt>
      <trkpt lat="41.655718360" lon="2.602916710">
        <ele>575.40</ele>
        <time>2014-04-06T09:27:28Z</time>
      </trkpt>
      <trkpt lat="41.655711820" lon="2.602895080">
        <ele>575.30</ele>
        <time>2014-04-06T09:27:29Z</time>
      </trkpt>
      <trkpt lat="41.655705120" lon="2.602873460">
        <ele>575.50</ele>
        <time>2014-04-06T09:27:30Z</time>
      </trkpt>
      <trkpt lat="41.655700090" lon="2.602853340">
        <ele>575.60</ele>
        <time>2014-04-06T09:27:31Z</time>
      </trkpt>
      <trkpt lat="41.655695060" lon="2.602831720">
        <ele>575.50</ele>
        <time>2014-04-06T09:27:32Z</time>
      </trkpt>
      <trkpt lat="41.655691710" lon="2.602811770">
        <ele>575.40</ele>
        <time>2014-04-06T09:27:33Z</time>
      </trkpt>
      <trkpt lat="41.655688360" lon="2.602790140">
        <ele>575.30</ele>
        <time>2014-04-06T09:27:34Z</time>
      </trkpt>
      <trkpt lat="41.655685000" lon="2.602766670">
        <ele>575.80</ele>
        <time>2014-04-06T09:27:35Z</time>
      </trkpt>
      <trkpt lat="41.655683490" lon="2.602743370">
        <ele>576.10</ele>
        <time>2014-04-06T09:27:36Z</time>
      </trkpt>
      <trkpt lat="41.655681820" lon="2.602718390">
        <ele>576.20</ele>
        <time>2014-04-06T09:27:37Z</time>
      </trkpt>
      <trkpt lat="41.655683490" lon="2.602695090">
        <ele>576.30</ele>
        <time>2014-04-06T09:27:38Z</time>
      </trkpt>
      <trkpt lat="41.655685000" lon="2.602671790">
        <ele>576.40</ele>
        <time>2014-04-06T09:27:39Z</time>
      </trkpt>
      <trkpt lat="41.655688360" lon="2.602648490">
        <ele>576.40</ele>
        <time>2014-04-06T09:27:40Z</time>
      </trkpt>
      <trkpt lat="41.655693380" lon="2.602626690">
        <ele>576.40</ele>
        <time>2014-04-06T09:27:41Z</time>
      </trkpt>
      <trkpt lat="41.655701770" lon="2.602606750">
        <ele>576.60</ele>
        <time>2014-04-06T09:27:42Z</time>
      </trkpt>
      <trkpt lat="41.655711820" lon="2.602588470">
        <ele>576.70</ele>
        <time>2014-04-06T09:27:43Z</time>
      </trkpt>
      <trkpt lat="41.655723390" lon="2.602568360">
        <ele>576.50</ele>
        <time>2014-04-06T09:27:44Z</time>
      </trkpt>
      <trkpt lat="41.655735130" lon="2.602550080">
        <ele>576.40</ele>
        <time>2014-04-06T09:27:45Z</time>
      </trkpt>
      <trkpt lat="41.655745020" lon="2.602531810">
        <ele>576.30</ele>
        <time>2014-04-06T09:27:46Z</time>
      </trkpt>
      <trkpt lat="41.655756750" lon="2.602515050">
        <ele>576.60</ele>
        <time>2014-04-06T09:27:47Z</time>
      </trkpt>
      <trkpt lat="41.655771670" lon="2.602500130">
        <ele>576.90</ele>
        <time>2014-04-06T09:27:48Z</time>
      </trkpt>
      <trkpt lat="41.655785080" lon="2.602485040">
        <ele>577.00</ele>
        <time>2014-04-06T09:27:49Z</time>
      </trkpt>
      <trkpt lat="41.655798490" lon="2.602470120">
        <ele>577.10</ele>
        <time>2014-04-06T09:27:50Z</time>
      </trkpt>
      <trkpt lat="41.655811740" lon="2.602456710">
        <ele>577.30</ele>
        <time>2014-04-06T09:27:51Z</time>
      </trkpt>
      <trkpt lat="41.655825150" lon="2.602443470">
        <ele>577.50</ele>
        <time>2014-04-06T09:27:52Z</time>
      </trkpt>
      <trkpt lat="41.655836720" lon="2.602433410">
        <ele>577.60</ele>
        <time>2014-04-06T09:27:53Z</time>
      </trkpt>
      <trkpt lat="41.655846770" lon="2.602421670">
        <ele>577.70</ele>
        <time>2014-04-06T09:27:54Z</time>
      </trkpt>
      <trkpt lat="41.655860020" lon="2.602408430">
        <ele>577.80</ele>
        <time>2014-04-06T09:27:55Z</time>
      </trkpt>
      <trkpt lat="41.655873430" lon="2.602395020">
        <ele>577.80</ele>
        <time>2014-04-06T09:27:56Z</time>
      </trkpt>
      <trkpt lat="41.655886670" lon="2.602381780">
        <ele>577.70</ele>
        <time>2014-04-06T09:27:57Z</time>
      </trkpt>
      <trkpt lat="41.655898410" lon="2.602371720">
        <ele>578.10</ele>
        <time>2014-04-06T09:27:58Z</time>
      </trkpt>
      <trkpt lat="41.655910140" lon="2.602360150">
        <ele>578.40</ele>
        <time>2014-04-06T09:27:59Z</time>
      </trkpt>
      <trkpt lat="41.655920030" lon="2.602348420">
        <ele>578.60</ele>
        <time>2014-04-06T09:28:00Z</time>
      </trkpt>
      <trkpt lat="41.655931770" lon="2.602338360">
        <ele>578.80</ele>
        <time>2014-04-06T09:28:01Z</time>
      </trkpt>
      <trkpt lat="41.655940150" lon="2.602325110">
        <ele>578.90</ele>
        <time>2014-04-06T09:28:02Z</time>
      </trkpt>
      <trkpt lat="41.655953390" lon="2.602310030">
        <ele>579.00</ele>
        <time>2014-04-06T09:28:03Z</time>
      </trkpt>
      <trkpt lat="41.655968480" lon="2.602296780">
        <ele>579.10</ele>
        <time>2014-04-06T09:28:04Z</time>
      </trkpt>
      <trkpt lat="41.655983400" lon="2.602285050">
        <ele>579.20</ele>
        <time>2014-04-06T09:28:05Z</time>
      </trkpt>
      <trkpt lat="41.655996810" lon="2.602273480">
        <ele>579.50</ele>
        <time>2014-04-06T09:28:06Z</time>
      </trkpt>
      <trkpt lat="41.656008380" lon="2.602263420">
        <ele>579.80</ele>
        <time>2014-04-06T09:28:07Z</time>
      </trkpt>
      <trkpt lat="41.656020110" lon="2.602253360">
        <ele>580.00</ele>
        <time>2014-04-06T09:28:08Z</time>
      </trkpt>
      <trkpt lat="41.656031680" lon="2.602243470">
        <ele>580.10</ele>
        <time>2014-04-06T09:28:09Z</time>
      </trkpt>
      <trkpt lat="41.656041740" lon="2.602233420">
        <ele>579.90</ele>
        <time>2014-04-06T09:28:10Z</time>
      </trkpt>
      <trkpt lat="41.656053470" lon="2.602220010">
        <ele>579.70</ele>
        <time>2014-04-06T09:28:11Z</time>
      </trkpt>
      <trkpt lat="41.656066710" lon="2.602208440">
        <ele>579.60</ele>
        <time>2014-04-06T09:28:12Z</time>
      </trkpt>
      <trkpt lat="41.656078450" lon="2.602198380">
        <ele>580.20</ele>
        <time>2014-04-06T09:28:13Z</time>
      </trkpt>
      <trkpt lat="41.656090020" lon="2.602186810">
        <ele>580.60</ele>
        <time>2014-04-06T09:28:14Z</time>
      </trkpt>
      <trkpt lat="41.656101750" lon="2.602176750">
        <ele>580.60</ele>
        <time>2014-04-06T09:28:15Z</time>
      </trkpt>
      <trkpt lat="41.656113490" lon="2.602166700">
        <ele>580.50</ele>
        <time>2014-04-06T09:28:16Z</time>
      </trkpt>
      <trkpt lat="41.656126730" lon="2.602155130">
        <ele>580.60</ele>
        <time>2014-04-06T09:28:17Z</time>
      </trkpt>
      <trkpt lat="41.656140140" lon="2.602146750">
        <ele>580.60</ele>
        <time>2014-04-06T09:28:18Z</time>
      </trkpt>
      <trkpt lat="41.656153380" lon="2.602141720">
        <ele>580.60</ele>
        <time>2014-04-06T09:28:19Z</time>
      </trkpt>
      <trkpt lat="41.656168470" lon="2.602135010">
        <ele>581.10</ele>
        <time>2014-04-06T09:28:20Z</time>
      </trkpt>
      <trkpt lat="41.656181710" lon="2.602126800">
        <ele>581.40</ele>
        <time>2014-04-06T09:28:21Z</time>
      </trkpt>
      <trkpt lat="41.656196800" lon="2.602120090">
        <ele>581.50</ele>
        <time>2014-04-06T09:28:22Z</time>
      </trkpt>
      <trkpt lat="41.656208370" lon="2.602111710">
        <ele>581.60</ele>
        <time>2014-04-06T09:28:23Z</time>
      </trkpt>
      <trkpt lat="41.656220100" lon="2.602103330">
        <ele>581.70</ele>
        <time>2014-04-06T09:28:24Z</time>
      </trkpt>
      <trkpt lat="41.656230160" lon="2.602095110">
        <ele>581.70</ele>
        <time>2014-04-06T09:28:25Z</time>
      </trkpt>
      <trkpt lat="41.656241730" lon="2.602088410">
        <ele>581.80</ele>
        <time>2014-04-06T09:28:26Z</time>
      </trkpt>
      <trkpt lat="41.656250110" lon="2.602076670">
        <ele>581.80</ele>
        <time>2014-04-06T09:28:27Z</time>
      </trkpt>
      <trkpt lat="41.656260000" lon="2.602065110">
        <ele>581.80</ele>
        <time>2014-04-06T09:28:28Z</time>
      </trkpt>
      <trkpt lat="41.656270060" lon="2.602051700">
        <ele>582.10</ele>
        <time>2014-04-06T09:28:29Z</time>
      </trkpt>
      <trkpt lat="41.656281790" lon="2.602035100">
        <ele>582.30</ele>
        <time>2014-04-06T09:28:30Z</time>
      </trkpt>
      <trkpt lat="41.656290010" lon="2.602018340">
        <ele>582.40</ele>
        <time>2014-04-06T09:28:31Z</time>
      </trkpt>
      <trkpt lat="41.656296710" lon="2.602001740">
        <ele>582.80</ele>
        <time>2014-04-06T09:28:32Z</time>
      </trkpt>
      <trkpt lat="41.656301740" lon="2.601981790">
        <ele>583.10</ele>
        <time>2014-04-06T09:28:33Z</time>
      </trkpt>
      <trkpt lat="41.656308450" lon="2.601966700">
        <ele>583.10</ele>
        <time>2014-04-06T09:28:34Z</time>
      </trkpt>
      <trkpt lat="41.656315150" lon="2.601948430">
        <ele>583.10</ele>
        <time>2014-04-06T09:28:35Z</time>
      </trkpt>
      <trkpt lat="41.656321690" lon="2.601928480">
        <ele>583.40</ele>
        <time>2014-04-06T09:28:36Z</time>
      </trkpt>
      <trkpt lat="41.656328400" lon="2.601911720">
        <ele>583.60</ele>
        <time>2014-04-06T09:28:37Z</time>
      </trkpt>
      <trkpt lat="41.656336780" lon="2.601895120">
        <ele>583.80</ele>
        <time>2014-04-06T09:28:38Z</time>
      </trkpt>
      <trkpt lat="41.656345160" lon="2.601880040">
        <ele>584.00</ele>
        <time>2014-04-06T09:28:39Z</time>
      </trkpt>
      <trkpt lat="41.656353380" lon="2.601868470">
        <ele>584.10</ele>
        <time>2014-04-06T09:28:40Z</time>
      </trkpt>
      <trkpt lat="41.656361760" lon="2.601855060">
        <ele>584.30</ele>
        <time>2014-04-06T09:28:41Z</time>
      </trkpt>
      <trkpt lat="41.656370140" lon="2.601840140">
        <ele>584.50</ele>
        <time>2014-04-06T09:28:42Z</time>
      </trkpt>
      <trkpt lat="41.656378350" lon="2.601826730">
        <ele>584.60</ele>
        <time>2014-04-06T09:28:43Z</time>
      </trkpt>
      <trkpt lat="41.656385060" lon="2.601811810">
        <ele>584.80</ele>
        <time>2014-04-06T09:28:44Z</time>
      </trkpt>
      <trkpt lat="41.656393440" lon="2.601800070">
        <ele>584.90</ele>
        <time>2014-04-06T09:28:45Z</time>
      </trkpt>
      <trkpt lat="41.656405010" lon="2.601788340">
        <ele>585.00</ele>
        <time>2014-04-06T09:28:46Z</time>
      </trkpt>
      <trkpt lat="41.656413390" lon="2.601770060">
        <ele>585.10</ele>
        <time>2014-04-06T09:28:47Z</time>
      </trkpt>
      <trkpt lat="41.656423450" lon="2.601755140">
        <ele>585.40</ele>
        <time>2014-04-06T09:28:48Z</time>
      </trkpt>
      <trkpt lat="41.656430150" lon="2.601738380">
        <ele>585.60</ele>
        <time>2014-04-06T09:28:49Z</time>
      </trkpt>
      <trkpt lat="41.656435020" lon="2.601720110">
        <ele>585.80</ele>
        <time>2014-04-06T09:28:50Z</time>
      </trkpt>
      <trkpt lat="41.656445070" lon="2.601706700">
        <ele>586.20</ele>
        <time>2014-04-06T09:28:51Z</time>
      </trkpt>
      <trkpt lat="41.656455130" lon="2.601693450">
        <ele>586.60</ele>
        <time>2014-04-06T09:28:52Z</time>
      </trkpt>
      <trkpt lat="41.656465020" lon="2.601678370">
        <ele>586.40</ele>
        <time>2014-04-06T09:28:53Z</time>
      </trkpt>
      <trkpt lat="41.656473400" lon="2.601663450">
        <ele>586.40</ele>
        <time>2014-04-06T09:28:54Z</time>
      </trkpt>
      <trkpt lat="41.656483460" lon="2.601648360">
        <ele>586.40</ele>
        <time>2014-04-06T09:28:55Z</time>
      </trkpt>
      <trkpt lat="41.656493350" lon="2.601635120">
        <ele>586.40</ele>
        <time>2014-04-06T09:28:56Z</time>
      </trkpt>
      <trkpt lat="41.656508440" lon="2.601623380">
        <ele>586.40</ele>
        <time>2014-04-06T09:28:57Z</time>
      </trkpt>
      <trkpt lat="41.656523360" lon="2.601616680">
        <ele>586.70</ele>
        <time>2014-04-06T09:28:58Z</time>
      </trkpt>
      <trkpt lat="41.656538450" lon="2.601616680">
        <ele>586.90</ele>
        <time>2014-04-06T09:28:59Z</time>
      </trkpt>
      <trkpt lat="41.656550010" lon="2.601618350">
        <ele>587.20</ele>
        <time>2014-04-06T09:29:00Z</time>
      </trkpt>
      <trkpt lat="41.656560070" lon="2.601626730">
        <ele>587.40</ele>
        <time>2014-04-06T09:29:01Z</time>
      </trkpt>
      <trkpt lat="41.656566780" lon="2.601636790">
        <ele>587.60</ele>
        <time>2014-04-06T09:29:02Z</time>
      </trkpt>
      <trkpt lat="41.656566780" lon="2.601650040">
        <ele>587.80</ele>
        <time>2014-04-06T09:29:03Z</time>
      </trkpt>
      <trkpt lat="41.656565100" lon="2.601665120">
        <ele>588.00</ele>
        <time>2014-04-06T09:29:04Z</time>
      </trkpt>
      <trkpt lat="41.656565100" lon="2.601681720">
        <ele>588.20</ele>
        <time>2014-04-06T09:29:05Z</time>
      </trkpt>
      <trkpt lat="41.656561750" lon="2.601696810">
        <ele>588.40</ele>
        <time>2014-04-06T09:29:06Z</time>
      </trkpt>
      <trkpt lat="41.656555040" lon="2.601708370">
        <ele>588.50</ele>
        <time>2014-04-06T09:29:07Z</time>
      </trkpt>
      <trkpt lat="41.656550010" lon="2.601720110">
        <ele>588.50</ele>
        <time>2014-04-06T09:29:08Z</time>
      </trkpt>
      <trkpt lat="41.656543480" lon="2.601728490">
        <ele>588.50</ele>
        <time>2014-04-06T09:29:09Z</time>
      </trkpt>
      <trkpt lat="41.656535100" lon="2.601731680">
        <ele>588.70</ele>
        <time>2014-04-06T09:29:10Z</time>
      </trkpt>
      <trkpt lat="41.656526710" lon="2.601736700">
        <ele>588.80</ele>
        <time>2014-04-06T09:29:11Z</time>
      </trkpt>
      <trkpt lat="41.656521680" lon="2.601741730">
        <ele>589.10</ele>
        <time>2014-04-06T09:29:12Z</time>
      </trkpt>
      <trkpt lat="41.656516820" lon="2.601753470">
        <ele>589.30</ele>
        <time>2014-04-06T09:29:13Z</time>
      </trkpt>
      <trkpt lat="41.656515150" lon="2.601768390">
        <ele>589.60</ele>
        <time>2014-04-06T09:29:14Z</time>
      </trkpt>
      <trkpt lat="41.656513470" lon="2.601785150">
        <ele>589.90</ele>
        <time>2014-04-06T09:29:15Z</time>
      </trkpt>
      <trkpt lat="41.656508440" lon="2.601800070">
        <ele>590.10</ele>
        <time>2014-04-06T09:29:16Z</time>
      </trkpt>
      <trkpt lat="41.656503410" lon="2.601816670">
        <ele>590.30</ele>
        <time>2014-04-06T09:29:17Z</time>
      </trkpt>
      <trkpt lat="41.656500060" lon="2.601835110">
        <ele>590.50</ele>
        <time>2014-04-06T09:29:18Z</time>
      </trkpt>
      <trkpt lat="41.656496710" lon="2.601851700">
        <ele>590.60</ele>
        <time>2014-04-06T09:29:19Z</time>
      </trkpt>
      <trkpt lat="41.656495030" lon="2.601870140">
        <ele>590.70</ele>
        <time>2014-04-06T09:29:20Z</time>
      </trkpt>
      <trkpt lat="41.656495030" lon="2.601888420">
        <ele>590.70</ele>
        <time>2014-04-06T09:29:21Z</time>
      </trkpt>
      <trkpt lat="41.656495030" lon="2.601905010">
        <ele>591.20</ele>
        <time>2014-04-06T09:29:22Z</time>
      </trkpt>
      <trkpt lat="41.656491680" lon="2.601921780">
        <ele>591.60</ele>
        <time>2014-04-06T09:29:23Z</time>
      </trkpt>
      <trkpt lat="41.656491680" lon="2.601941730">
        <ele>591.60</ele>
        <time>2014-04-06T09:29:24Z</time>
      </trkpt>
      <trkpt lat="41.656493350" lon="2.601960000">
        <ele>591.60</ele>
        <time>2014-04-06T09:29:25Z</time>
      </trkpt>
      <trkpt lat="41.656490000" lon="2.601976760">
        <ele>591.40</ele>
        <time>2014-04-06T09:29:26Z</time>
      </trkpt>
      <trkpt lat="41.656486820" lon="2.601991680">
        <ele>591.20</ele>
        <time>2014-04-06T09:29:27Z</time>
      </trkpt>
      <trkpt lat="41.656481790" lon="2.602006770">
        <ele>591.10</ele>
        <time>2014-04-06T09:29:28Z</time>
      </trkpt>
      <trkpt lat="41.656478430" lon="2.602021690">
        <ele>591.60</ele>
        <time>2014-04-06T09:29:29Z</time>
      </trkpt>
      <trkpt lat="41.656473400" lon="2.602030070">
        <ele>592.00</ele>
        <time>2014-04-06T09:29:30Z</time>
      </trkpt>
      <trkpt lat="41.656465020" lon="2.602035100">
        <ele>592.20</ele>
        <time>2014-04-06T09:29:31Z</time>
      </trkpt>
      <trkpt lat="41.656455130" lon="2.602041810">
        <ele>592.30</ele>
        <time>2014-04-06T09:29:32Z</time>
      </trkpt>
      <trkpt lat="41.656455130" lon="2.602065110">
        <ele>592.60</ele>
        <time>2014-04-06T09:29:33Z</time>
      </trkpt>
      <trkpt lat="41.656448430" lon="2.602080030">
        <ele>592.90</ele>
        <time>2014-04-06T09:29:34Z</time>
      </trkpt>
      <trkpt lat="41.656440040" lon="2.602095110">
        <ele>593.00</ele>
        <time>2014-04-06T09:29:35Z</time>
      </trkpt>
      <trkpt lat="41.656433340" lon="2.602110030">
        <ele>593.30</ele>
        <time>2014-04-06T09:29:36Z</time>
      </trkpt>
      <trkpt lat="41.656428480" lon="2.602126800">
        <ele>593.50</ele>
        <time>2014-04-06T09:29:37Z</time>
      </trkpt>
      <trkpt lat="41.656420100" lon="2.602145070">
        <ele>593.60</ele>
        <time>2014-04-06T09:29:38Z</time>
      </trkpt>
      <trkpt lat="41.656411710" lon="2.602165020">
        <ele>593.70</ele>
        <time>2014-04-06T09:29:39Z</time>
      </trkpt>
      <trkpt lat="41.656401820" lon="2.602180110">
        <ele>594.00</ele>
        <time>2014-04-06T09:29:40Z</time>
      </trkpt>
      <trkpt lat="41.656390090" lon="2.602196700">
        <ele>594.20</ele>
        <time>2014-04-06T09:29:41Z</time>
      </trkpt>
      <trkpt lat="41.656378350" lon="2.602215140">
        <ele>594.30</ele>
        <time>2014-04-06T09:29:42Z</time>
      </trkpt>
      <trkpt lat="41.656368460" lon="2.602231740">
        <ele>594.10</ele>
        <time>2014-04-06T09:29:43Z</time>
      </trkpt>
      <trkpt lat="41.656356730" lon="2.602246830">
        <ele>594.00</ele>
        <time>2014-04-06T09:29:44Z</time>
      </trkpt>
      <trkpt lat="41.656348350" lon="2.602260070">
        <ele>594.50</ele>
        <time>2014-04-06T09:29:45Z</time>
      </trkpt>
      <trkpt lat="41.656336780" lon="2.602271810">
        <ele>594.90</ele>
        <time>2014-04-06T09:29:46Z</time>
      </trkpt>
      <trkpt lat="41.656325040" lon="2.602283370">
        <ele>595.20</ele>
        <time>2014-04-06T09:29:47Z</time>
      </trkpt>
      <trkpt lat="41.656315150" lon="2.602295110">
        <ele>595.20</ele>
        <time>2014-04-06T09:29:48Z</time>
      </trkpt>
      <trkpt lat="41.656305100" lon="2.602308350">
        <ele>595.20</ele>
        <time>2014-04-06T09:29:49Z</time>
      </trkpt>
      <trkpt lat="41.656293360" lon="2.602323440">
        <ele>595.20</ele>
        <time>2014-04-06T09:29:50Z</time>
      </trkpt>
      <trkpt lat="41.656281790" lon="2.602338360">
        <ele>595.30</ele>
        <time>2014-04-06T09:29:51Z</time>
      </trkpt>
      <trkpt lat="41.656275090" lon="2.602348420">
        <ele>595.30</ele>
        <time>2014-04-06T09:29:52Z</time>
      </trkpt>
      <trkpt lat="41.656270060" lon="2.602361830">
        <ele>595.30</ele>
        <time>2014-04-06T09:29:53Z</time>
      </trkpt>
      <trkpt lat="41.656263350" lon="2.602380100">
        <ele>595.30</ele>
        <time>2014-04-06T09:29:54Z</time>
      </trkpt>
      <trkpt lat="41.656256820" lon="2.602396700">
        <ele>595.50</ele>
        <time>2014-04-06T09:29:55Z</time>
      </trkpt>
      <trkpt lat="41.656251790" lon="2.602415140">
        <ele>595.60</ele>
        <time>2014-04-06T09:29:56Z</time>
      </trkpt>
      <trkpt lat="41.656248430" lon="2.602435080">
        <ele>596.00</ele>
        <time>2014-04-06T09:29:57Z</time>
      </trkpt>
      <trkpt lat="41.656243400" lon="2.602456710">
        <ele>596.30</ele>
        <time>2014-04-06T09:29:58Z</time>
      </trkpt>
      <trkpt lat="41.656240050" lon="2.602476830">
        <ele>596.50</ele>
        <time>2014-04-06T09:29:59Z</time>
      </trkpt>
      <trkpt lat="41.656235020" lon="2.602498450">
        <ele>596.70</ele>
        <time>2014-04-06T09:30:00Z</time>
      </trkpt>
      <trkpt lat="41.656233350" lon="2.602520080">
        <ele>596.90</ele>
        <time>2014-04-06T09:30:01Z</time>
      </trkpt>
      <trkpt lat="41.656230160" lon="2.602541700">
        <ele>596.70</ele>
        <time>2014-04-06T09:30:02Z</time>
      </trkpt>
      <trkpt lat="41.656226810" lon="2.602561820">
        <ele>596.60</ele>
        <time>2014-04-06T09:30:03Z</time>
      </trkpt>
      <trkpt lat="41.656226810" lon="2.602580090">
        <ele>596.50</ele>
        <time>2014-04-06T09:30:04Z</time>
      </trkpt>
      <trkpt lat="41.656228490" lon="2.602601720">
        <ele>596.50</ele>
        <time>2014-04-06T09:30:05Z</time>
      </trkpt>
      <trkpt lat="41.656226810" lon="2.602626690">
        <ele>596.50</ele>
        <time>2014-04-06T09:30:06Z</time>
      </trkpt>
      <trkpt lat="41.656226810" lon="2.602646810">
        <ele>596.60</ele>
        <time>2014-04-06T09:30:07Z</time>
      </trkpt>
      <trkpt lat="41.656228490" lon="2.602668440">
        <ele>596.60</ele>
        <time>2014-04-06T09:30:08Z</time>
      </trkpt>
      <trkpt lat="41.656230160" lon="2.602688390">
        <ele>596.80</ele>
        <time>2014-04-06T09:30:09Z</time>
      </trkpt>
      <trkpt lat="41.656233350" lon="2.602710010">
        <ele>597.00</ele>
        <time>2014-04-06T09:30:10Z</time>
      </trkpt>
      <trkpt lat="41.656236700" lon="2.602731800">
        <ele>597.30</ele>
        <time>2014-04-06T09:30:11Z</time>
      </trkpt>
      <trkpt lat="41.656240050" lon="2.602753430">
        <ele>597.50</ele>
        <time>2014-04-06T09:30:12Z</time>
      </trkpt>
      <trkpt lat="41.656243400" lon="2.602773380">
        <ele>597.70</ele>
        <time>2014-04-06T09:30:13Z</time>
      </trkpt>
      <trkpt lat="41.656245080" lon="2.602795000">
        <ele>597.70</ele>
        <time>2014-04-06T09:30:14Z</time>
      </trkpt>
      <trkpt lat="41.656246760" lon="2.602815120">
        <ele>597.70</ele>
        <time>2014-04-06T09:30:15Z</time>
      </trkpt>
      <trkpt lat="41.656251790" lon="2.602835070">
        <ele>598.00</ele>
        <time>2014-04-06T09:30:16Z</time>
      </trkpt>
      <trkpt lat="41.656253460" lon="2.602856690">
        <ele>598.20</ele>
        <time>2014-04-06T09:30:17Z</time>
      </trkpt>
      <trkpt lat="41.656258490" lon="2.602876810">
        <ele>598.20</ele>
        <time>2014-04-06T09:30:18Z</time>
      </trkpt>
      <trkpt lat="41.656263350" lon="2.602898440">
        <ele>598.20</ele>
        <time>2014-04-06T09:30:19Z</time>
      </trkpt>
      <trkpt lat="41.656266710" lon="2.602916710">
        <ele>598.20</ele>
        <time>2014-04-06T09:30:20Z</time>
      </trkpt>
      <trkpt lat="41.656273410" lon="2.602935150">
        <ele>598.10</ele>
        <time>2014-04-06T09:30:21Z</time>
      </trkpt>
      <trkpt lat="41.656281790" lon="2.602955100">
        <ele>598.00</ele>
        <time>2014-04-06T09:30:22Z</time>
      </trkpt>
      <trkpt lat="41.656290010" lon="2.602976720">
        <ele>598.00</ele>
        <time>2014-04-06T09:30:23Z</time>
      </trkpt>
      <trkpt lat="41.656298390" lon="2.602995000">
        <ele>598.00</ele>
        <time>2014-04-06T09:30:24Z</time>
      </trkpt>
      <trkpt lat="41.656308450" lon="2.603015110">
        <ele>598.00</ele>
        <time>2014-04-06T09:30:25Z</time>
      </trkpt>
      <trkpt lat="41.656316660" lon="2.603033380">
        <ele>598.10</ele>
        <time>2014-04-06T09:30:26Z</time>
      </trkpt>
      <trkpt lat="41.656326720" lon="2.603048470">
        <ele>598.20</ele>
        <time>2014-04-06T09:30:27Z</time>
      </trkpt>
      <trkpt lat="41.656333430" lon="2.603066740">
        <ele>598.50</ele>
        <time>2014-04-06T09:30:28Z</time>
      </trkpt>
      <trkpt lat="41.656341810" lon="2.603086690">
        <ele>598.70</ele>
        <time>2014-04-06T09:30:29Z</time>
      </trkpt>
      <trkpt lat="41.656350020" lon="2.603103460">
        <ele>598.70</ele>
        <time>2014-04-06T09:30:30Z</time>
      </trkpt>
      <trkpt lat="41.656360080" lon="2.603123410">
        <ele>598.70</ele>
        <time>2014-04-06T09:30:31Z</time>
      </trkpt>
      <trkpt lat="41.656371820" lon="2.603141680">
        <ele>598.70</ele>
        <time>2014-04-06T09:30:32Z</time>
      </trkpt>
      <trkpt lat="41.656381710" lon="2.603161800">
        <ele>598.50</ele>
        <time>2014-04-06T09:30:33Z</time>
      </trkpt>
      <trkpt lat="41.656395120" lon="2.603180070">
        <ele>598.40</ele>
        <time>2014-04-06T09:30:34Z</time>
      </trkpt>
      <trkpt lat="41.656405010" lon="2.603196660">
        <ele>598.80</ele>
        <time>2014-04-06T09:30:35Z</time>
      </trkpt>
      <trkpt lat="41.656415070" lon="2.603213430">
        <ele>599.20</ele>
        <time>2014-04-06T09:30:36Z</time>
      </trkpt>
      <trkpt lat="41.656425120" lon="2.603228350">
        <ele>599.20</ele>
        <time>2014-04-06T09:30:37Z</time>
      </trkpt>
      <trkpt lat="41.656436690" lon="2.603245110">
        <ele>599.10</ele>
        <time>2014-04-06T09:30:38Z</time>
      </trkpt>
      <trkpt lat="41.656448430" lon="2.603266740">
        <ele>599.10</ele>
        <time>2014-04-06T09:30:39Z</time>
      </trkpt>
      <trkpt lat="41.656465020" lon="2.603285010">
        <ele>599.00</ele>
        <time>2014-04-06T09:30:40Z</time>
      </trkpt>
      <trkpt lat="41.656476760" lon="2.603301770">
        <ele>599.00</ele>
        <time>2014-04-06T09:30:41Z</time>
      </trkpt>
      <trkpt lat="41.656491680" lon="2.603316690">
        <ele>598.80</ele>
        <time>2014-04-06T09:30:42Z</time>
      </trkpt>
      <trkpt lat="41.656505090" lon="2.603330100">
        <ele>598.60</ele>
        <time>2014-04-06T09:30:43Z</time>
      </trkpt>
      <trkpt lat="41.656518330" lon="2.603346700">
        <ele>598.50</ele>
        <time>2014-04-06T09:30:44Z</time>
      </trkpt>
      <trkpt lat="41.656530070" lon="2.603361790">
        <ele>598.70</ele>
        <time>2014-04-06T09:30:45Z</time>
      </trkpt>
      <trkpt lat="41.656543480" lon="2.603373350">
        <ele>598.80</ele>
        <time>2014-04-06T09:30:46Z</time>
      </trkpt>
      <trkpt lat="41.656556720" lon="2.603385090">
        <ele>599.00</ele>
        <time>2014-04-06T09:30:47Z</time>
      </trkpt>
      <trkpt lat="41.656566780" lon="2.603400010">
        <ele>599.10</ele>
        <time>2014-04-06T09:30:48Z</time>
      </trkpt>
      <trkpt lat="41.656576670" lon="2.603418450">
        <ele>599.40</ele>
        <time>2014-04-06T09:30:49Z</time>
      </trkpt>
      <trkpt lat="41.656590080" lon="2.603433370">
        <ele>599.60</ele>
        <time>2014-04-06T09:30:50Z</time>
      </trkpt>
      <trkpt lat="41.656603490" lon="2.603446780">
        <ele>599.70</ele>
        <time>2014-04-06T09:30:51Z</time>
      </trkpt>
      <trkpt lat="41.656615060" lon="2.603463380">
        <ele>599.40</ele>
        <time>2014-04-06T09:30:52Z</time>
      </trkpt>
      <trkpt lat="41.656628470" lon="2.603481820">
        <ele>599.20</ele>
        <time>2014-04-06T09:30:53Z</time>
      </trkpt>
      <trkpt lat="41.656641710" lon="2.603498410">
        <ele>599.30</ele>
        <time>2014-04-06T09:30:54Z</time>
      </trkpt>
      <trkpt lat="41.656650090" lon="2.603515010">
        <ele>599.30</ele>
        <time>2014-04-06T09:30:55Z</time>
      </trkpt>
      <trkpt lat="41.656663340" lon="2.603533450">
        <ele>599.70</ele>
        <time>2014-04-06T09:30:56Z</time>
      </trkpt>
      <trkpt lat="41.656675070" lon="2.603553400">
        <ele>600.00</ele>
        <time>2014-04-06T09:30:57Z</time>
      </trkpt>
      <trkpt lat="41.656686810" lon="2.603573350">
        <ele>600.20</ele>
        <time>2014-04-06T09:30:58Z</time>
      </trkpt>
      <trkpt lat="41.656696700" lon="2.603593460">
        <ele>600.00</ele>
        <time>2014-04-06T09:30:59Z</time>
      </trkpt>
      <trkpt lat="41.656708430" lon="2.603613410">
        <ele>599.80</ele>
        <time>2014-04-06T09:31:00Z</time>
      </trkpt>
      <trkpt lat="41.656718490" lon="2.603631690">
        <ele>600.00</ele>
        <time>2014-04-06T09:31:01Z</time>
      </trkpt>
      <trkpt lat="41.656731730" lon="2.603650130">
        <ele>600.00</ele>
        <time>2014-04-06T09:31:02Z</time>
      </trkpt>
      <trkpt lat="41.656743470" lon="2.603673430">
        <ele>600.10</ele>
        <time>2014-04-06T09:31:03Z</time>
      </trkpt>
      <trkpt lat="41.656756710" lon="2.603693380">
        <ele>600.40</ele>
        <time>2014-04-06T09:31:04Z</time>
      </trkpt>
      <trkpt lat="41.656768450" lon="2.603718350">
        <ele>600.70</ele>
        <time>2014-04-06T09:31:05Z</time>
      </trkpt>
      <trkpt lat="41.656778340" lon="2.603741820">
        <ele>600.50</ele>
        <time>2014-04-06T09:31:06Z</time>
      </trkpt>
      <trkpt lat="41.656791750" lon="2.603766800">
        <ele>600.40</ele>
        <time>2014-04-06T09:31:07Z</time>
      </trkpt>
      <trkpt lat="41.656805160" lon="2.603788430">
        <ele>600.40</ele>
        <time>2014-04-06T09:31:08Z</time>
      </trkpt>
      <trkpt lat="41.656818400" lon="2.603813400">
        <ele>600.50</ele>
        <time>2014-04-06T09:31:09Z</time>
      </trkpt>
      <trkpt lat="41.656831810" lon="2.603840060">
        <ele>600.50</ele>
        <time>2014-04-06T09:31:10Z</time>
      </trkpt>
      <trkpt lat="41.656845060" lon="2.603868390">
        <ele>600.70</ele>
        <time>2014-04-06T09:31:11Z</time>
      </trkpt>
      <trkpt lat="41.656855120" lon="2.603896720">
        <ele>600.90</ele>
        <time>2014-04-06T09:31:12Z</time>
      </trkpt>
      <trkpt lat="41.656865010" lon="2.603926730">
        <ele>600.70</ele>
        <time>2014-04-06T09:31:13Z</time>
      </trkpt>
      <trkpt lat="41.656875070" lon="2.603955060">
        <ele>600.70</ele>
        <time>2014-04-06T09:31:14Z</time>
      </trkpt>
      <trkpt lat="41.656880090" lon="2.603983390">
        <ele>600.40</ele>
        <time>2014-04-06T09:31:15Z</time>
      </trkpt>
      <trkpt lat="41.656885120" lon="2.604010040">
        <ele>600.30</ele>
        <time>2014-04-06T09:31:16Z</time>
      </trkpt>
      <trkpt lat="41.656886800" lon="2.604035020">
        <ele>600.20</ele>
        <time>2014-04-06T09:31:17Z</time>
      </trkpt>
      <trkpt lat="41.656886800" lon="2.604061680">
        <ele>600.20</ele>
        <time>2014-04-06T09:31:18Z</time>
      </trkpt>
      <trkpt lat="41.656885120" lon="2.604085150">
        <ele>600.20</ele>
        <time>2014-04-06T09:31:19Z</time>
      </trkpt>
      <trkpt lat="41.656880090" lon="2.604108450">
        <ele>600.20</ele>
        <time>2014-04-06T09:31:20Z</time>
      </trkpt>
      <trkpt lat="41.656873390" lon="2.604133430">
        <ele>600.20</ele>
        <time>2014-04-06T09:31:21Z</time>
      </trkpt>
      <trkpt lat="41.656868360" lon="2.604156730">
        <ele>600.20</ele>
        <time>2014-04-06T09:31:22Z</time>
      </trkpt>
      <trkpt lat="41.656861820" lon="2.604181710">
        <ele>600.50</ele>
        <time>2014-04-06T09:31:23Z</time>
      </trkpt>
      <trkpt lat="41.656855120" lon="2.604206680">
        <ele>600.80</ele>
        <time>2014-04-06T09:31:24Z</time>
      </trkpt>
      <trkpt lat="41.656846730" lon="2.604231660">
        <ele>601.10</ele>
        <time>2014-04-06T09:31:25Z</time>
      </trkpt>
      <trkpt lat="41.656840030" lon="2.604258480">
        <ele>601.30</ele>
        <time>2014-04-06T09:31:26Z</time>
      </trkpt>
      <trkpt lat="41.656835000" lon="2.604276760">
        <ele>601.50</ele>
        <time>2014-04-06T09:31:27Z</time>
      </trkpt>
      <trkpt lat="41.656828460" lon="2.604293350">
        <ele>601.60</ele>
        <time>2014-04-06T09:31:28Z</time>
      </trkpt>
      <trkpt lat="41.656821760" lon="2.604306760">
        <ele>601.70</ele>
        <time>2014-04-06T09:31:29Z</time>
      </trkpt>
      <trkpt lat="41.656816730" lon="2.604326710">
        <ele>601.70</ele>
        <time>2014-04-06T09:31:30Z</time>
      </trkpt>
      <trkpt lat="41.656815050" lon="2.604351690">
        <ele>601.70</ele>
        <time>2014-04-06T09:31:31Z</time>
      </trkpt>
      <trkpt lat="41.656808350" lon="2.604380020">
        <ele>601.70</ele>
        <time>2014-04-06T09:31:32Z</time>
      </trkpt>
      <trkpt lat="41.656800130" lon="2.604408350">
        <ele>601.70</ele>
        <time>2014-04-06T09:31:33Z</time>
      </trkpt>
      <trkpt lat="41.656790070" lon="2.604431820">
        <ele>601.80</ele>
        <time>2014-04-06T09:31:34Z</time>
      </trkpt>
      <trkpt lat="41.656786720" lon="2.604450090">
        <ele>601.80</ele>
        <time>2014-04-06T09:31:35Z</time>
      </trkpt>
      <trkpt lat="41.656778340" lon="2.604470040">
        <ele>601.90</ele>
        <time>2014-04-06T09:31:36Z</time>
      </trkpt>
      <trkpt lat="41.656771800" lon="2.604493340">
        <ele>601.80</ele>
        <time>2014-04-06T09:31:37Z</time>
      </trkpt>
      <trkpt lat="41.656765090" lon="2.604515140">
        <ele>601.80</ele>
        <time>2014-04-06T09:31:38Z</time>
      </trkpt>
      <trkpt lat="41.656756710" lon="2.604538440">
        <ele>601.80</ele>
        <time>2014-04-06T09:31:39Z</time>
      </trkpt>
      <trkpt lat="41.656748330" lon="2.604560060">
        <ele>601.70</ele>
        <time>2014-04-06T09:31:40Z</time>
      </trkpt>
      <trkpt lat="41.656736760" lon="2.604581690">
        <ele>601.70</ele>
        <time>2014-04-06T09:31:41Z</time>
      </trkpt>
      <trkpt lat="41.656728380" lon="2.604603480">
        <ele>601.90</ele>
        <time>2014-04-06T09:31:42Z</time>
      </trkpt>
      <trkpt lat="41.656716810" lon="2.604626780">
        <ele>602.10</ele>
        <time>2014-04-06T09:31:43Z</time>
      </trkpt>
      <trkpt lat="41.656705080" lon="2.604650090">
        <ele>602.30</ele>
        <time>2014-04-06T09:31:44Z</time>
      </trkpt>
      <trkpt lat="41.656696700" lon="2.604671710">
        <ele>602.50</ele>
        <time>2014-04-06T09:31:45Z</time>
      </trkpt>
      <trkpt lat="41.656686810" lon="2.604693340">
        <ele>602.50</ele>
        <time>2014-04-06T09:31:46Z</time>
      </trkpt>
      <trkpt lat="41.656676750" lon="2.604713450">
        <ele>602.60</ele>
        <time>2014-04-06T09:31:47Z</time>
      </trkpt>
      <trkpt lat="41.656666690" lon="2.604733400">
        <ele>602.60</ele>
        <time>2014-04-06T09:31:48Z</time>
      </trkpt>
      <trkpt lat="41.656655120" lon="2.604753350">
        <ele>602.40</ele>
        <time>2014-04-06T09:31:49Z</time>
      </trkpt>
      <trkpt lat="41.656646740" lon="2.604775140">
        <ele>602.40</ele>
        <time>2014-04-06T09:31:50Z</time>
      </trkpt>
      <trkpt lat="41.656640040" lon="2.604791740">
        <ele>602.80</ele>
        <time>2014-04-06T09:31:51Z</time>
      </trkpt>
      <trkpt lat="41.656633330" lon="2.604810010">
        <ele>603.10</ele>
        <time>2014-04-06T09:31:52Z</time>
      </trkpt>
      <trkpt lat="41.656628470" lon="2.604828450">
        <ele>603.10</ele>
        <time>2014-04-06T09:31:53Z</time>
      </trkpt>
      <trkpt lat="41.656618410" lon="2.604851750">
        <ele>603.10</ele>
        <time>2014-04-06T09:31:54Z</time>
      </trkpt>
      <trkpt lat="41.656608350" lon="2.604873380">
        <ele>603.10</ele>
        <time>2014-04-06T09:31:55Z</time>
      </trkpt>
      <trkpt lat="41.656598460" lon="2.604895010">
        <ele>603.20</ele>
        <time>2014-04-06T09:31:56Z</time>
      </trkpt>
      <trkpt lat="41.656590080" lon="2.604918470">
        <ele>603.30</ele>
        <time>2014-04-06T09:31:57Z</time>
      </trkpt>
      <trkpt lat="41.656581700" lon="2.604940100">
        <ele>603.70</ele>
        <time>2014-04-06T09:31:58Z</time>
      </trkpt>
      <trkpt lat="41.656570130" lon="2.604961730">
        <ele>603.90</ele>
        <time>2014-04-06T09:31:59Z</time>
      </trkpt>
      <trkpt lat="41.656561750" lon="2.604986700">
        <ele>604.10</ele>
        <time>2014-04-06T09:32:00Z</time>
      </trkpt>
      <trkpt lat="41.656551690" lon="2.605011680">
        <ele>604.50</ele>
        <time>2014-04-06T09:32:01Z</time>
      </trkpt>
      <trkpt lat="41.656541800" lon="2.605036830">
        <ele>604.80</ele>
        <time>2014-04-06T09:32:02Z</time>
      </trkpt>
      <trkpt lat="41.656531740" lon="2.605060130">
        <ele>604.90</ele>
        <time>2014-04-06T09:32:03Z</time>
      </trkpt>
      <trkpt lat="41.656521680" lon="2.605083430">
        <ele>605.00</ele>
        <time>2014-04-06T09:32:04Z</time>
      </trkpt>
      <trkpt lat="41.656511790" lon="2.605101700">
        <ele>605.10</ele>
        <time>2014-04-06T09:32:05Z</time>
      </trkpt>
      <trkpt lat="41.656506760" lon="2.605116790">
        <ele>605.20</ele>
        <time>2014-04-06T09:32:06Z</time>
      </trkpt>
      <trkpt lat="41.656503410" lon="2.605133390">
        <ele>605.20</ele>
        <time>2014-04-06T09:32:07Z</time>
      </trkpt>
      <trkpt lat="41.656496710" lon="2.605158360">
        <ele>605.30</ele>
        <time>2014-04-06T09:32:08Z</time>
      </trkpt>
      <trkpt lat="41.656485140" lon="2.605180160">
        <ele>605.40</ele>
        <time>2014-04-06T09:32:09Z</time>
      </trkpt>
      <trkpt lat="41.656475080" lon="2.605205140">
        <ele>605.80</ele>
        <time>2014-04-06T09:32:10Z</time>
      </trkpt>
      <trkpt lat="41.656465020" lon="2.605225080">
        <ele>606.00</ele>
        <time>2014-04-06T09:32:11Z</time>
      </trkpt>
      <trkpt lat="41.656453460" lon="2.605245030">
        <ele>606.20</ele>
        <time>2014-04-06T09:32:12Z</time>
      </trkpt>
      <trkpt lat="41.656443400" lon="2.605263470">
        <ele>606.30</ele>
        <time>2014-04-06T09:32:13Z</time>
      </trkpt>
      <trkpt lat="41.656433340" lon="2.605280070">
        <ele>606.40</ele>
        <time>2014-04-06T09:32:14Z</time>
      </trkpt>
      <trkpt lat="41.656421770" lon="2.605300020">
        <ele>606.60</ele>
        <time>2014-04-06T09:32:15Z</time>
      </trkpt>
      <trkpt lat="41.656408360" lon="2.605316780">
        <ele>606.70</ele>
        <time>2014-04-06T09:32:16Z</time>
      </trkpt>
      <trkpt lat="41.656395120" lon="2.605336730">
        <ele>607.20</ele>
        <time>2014-04-06T09:32:17Z</time>
      </trkpt>
      <trkpt lat="41.656381710" lon="2.605356680">
        <ele>607.60</ele>
        <time>2014-04-06T09:32:18Z</time>
      </trkpt>
      <trkpt lat="41.656365110" lon="2.605376800">
        <ele>607.70</ele>
        <time>2014-04-06T09:32:19Z</time>
      </trkpt>
      <trkpt lat="41.656351700" lon="2.605395070">
        <ele>607.80</ele>
        <time>2014-04-06T09:32:20Z</time>
      </trkpt>
      <trkpt lat="41.656340130" lon="2.605411670">
        <ele>607.90</ele>
        <time>2014-04-06T09:32:21Z</time>
      </trkpt>
      <trkpt lat="41.656325040" lon="2.605430110">
        <ele>608.10</ele>
        <time>2014-04-06T09:32:22Z</time>
      </trkpt>
      <trkpt lat="41.656310120" lon="2.605445030">
        <ele>608.20</ele>
        <time>2014-04-06T09:32:23Z</time>
      </trkpt>
      <trkpt lat="41.656295040" lon="2.605460110">
        <ele>608.40</ele>
        <time>2014-04-06T09:32:24Z</time>
      </trkpt>
      <trkpt lat="41.656281790" lon="2.605476710">
        <ele>608.50</ele>
        <time>2014-04-06T09:32:25Z</time>
      </trkpt>
      <trkpt lat="41.656268380" lon="2.605495150">
        <ele>608.60</ele>
        <time>2014-04-06T09:32:26Z</time>
      </trkpt>
      <trkpt lat="41.656256820" lon="2.605515100">
        <ele>608.90</ele>
        <time>2014-04-06T09:32:27Z</time>
      </trkpt>
      <trkpt lat="41.656243400" lon="2.605533370">
        <ele>609.20</ele>
        <time>2014-04-06T09:32:28Z</time>
      </trkpt>
      <trkpt lat="41.656230160" lon="2.605551810">
        <ele>609.30</ele>
        <time>2014-04-06T09:32:29Z</time>
      </trkpt>
      <trkpt lat="41.656216750" lon="2.605568410">
        <ele>609.40</ele>
        <time>2014-04-06T09:32:30Z</time>
      </trkpt>
      <trkpt lat="41.656205020" lon="2.605588360">
        <ele>609.80</ele>
        <time>2014-04-06T09:32:31Z</time>
      </trkpt>
      <trkpt lat="41.656195130" lon="2.605606800">
        <ele>610.20</ele>
        <time>2014-04-06T09:32:32Z</time>
      </trkpt>
      <trkpt lat="41.656185070" lon="2.605626750">
        <ele>610.50</ele>
        <time>2014-04-06T09:32:33Z</time>
      </trkpt>
      <trkpt lat="41.656178360" lon="2.605648370">
        <ele>610.60</ele>
        <time>2014-04-06T09:32:34Z</time>
      </trkpt>
      <trkpt lat="41.656171820" lon="2.605670000">
        <ele>610.60</ele>
        <time>2014-04-06T09:32:35Z</time>
      </trkpt>
      <trkpt lat="41.656163440" lon="2.605693470">
        <ele>610.80</ele>
        <time>2014-04-06T09:32:36Z</time>
      </trkpt>
      <trkpt lat="41.656158410" lon="2.605718440">
        <ele>610.90</ele>
        <time>2014-04-06T09:32:37Z</time>
      </trkpt>
      <trkpt lat="41.656155060" lon="2.605741750">
        <ele>611.00</ele>
        <time>2014-04-06T09:32:38Z</time>
      </trkpt>
      <trkpt lat="41.656153380" lon="2.605765050">
        <ele>611.20</ele>
        <time>2014-04-06T09:32:39Z</time>
      </trkpt>
      <trkpt lat="41.656151710" lon="2.605790030">
        <ele>611.40</ele>
        <time>2014-04-06T09:32:40Z</time>
      </trkpt>
      <trkpt lat="41.656151710" lon="2.605813490">
        <ele>611.80</ele>
        <time>2014-04-06T09:32:41Z</time>
      </trkpt>
      <trkpt lat="41.656153380" lon="2.605836800">
        <ele>612.10</ele>
        <time>2014-04-06T09:32:42Z</time>
      </trkpt>
      <trkpt lat="41.656153380" lon="2.605858420">
        <ele>611.90</ele>
        <time>2014-04-06T09:32:43Z</time>
      </trkpt>
      <trkpt lat="41.656151710" lon="2.605880050">
        <ele>611.80</ele>
        <time>2014-04-06T09:32:44Z</time>
      </trkpt>
      <trkpt lat="41.656153380" lon="2.605903350">
        <ele>611.70</ele>
        <time>2014-04-06T09:32:45Z</time>
      </trkpt>
      <trkpt lat="41.656153380" lon="2.605928490">
        <ele>611.60</ele>
        <time>2014-04-06T09:32:46Z</time>
      </trkpt>
      <trkpt lat="41.656155060" lon="2.605953470">
        <ele>611.50</ele>
        <time>2014-04-06T09:32:47Z</time>
      </trkpt>
      <trkpt lat="41.656156740" lon="2.605976770">
        <ele>611.80</ele>
        <time>2014-04-06T09:32:48Z</time>
      </trkpt>
      <trkpt lat="41.656155060" lon="2.606001750">
        <ele>612.00</ele>
        <time>2014-04-06T09:32:49Z</time>
      </trkpt>
      <trkpt lat="41.656158410" lon="2.606025050">
        <ele>612.20</ele>
        <time>2014-04-06T09:32:50Z</time>
      </trkpt>
      <trkpt lat="41.656160090" lon="2.606045000">
        <ele>612.30</ele>
        <time>2014-04-06T09:32:51Z</time>
      </trkpt>
      <trkpt lat="41.656158410" lon="2.606065120">
        <ele>612.40</ele>
        <time>2014-04-06T09:32:52Z</time>
      </trkpt>
      <trkpt lat="41.656160090" lon="2.606083390">
        <ele>612.40</ele>
        <time>2014-04-06T09:32:53Z</time>
      </trkpt>
      <trkpt lat="41.656160090" lon="2.606106690">
        <ele>612.40</ele>
        <time>2014-04-06T09:32:54Z</time>
      </trkpt>
      <trkpt lat="41.656160090" lon="2.606126810">
        <ele>612.60</ele>
        <time>2014-04-06T09:32:55Z</time>
      </trkpt>
      <trkpt lat="41.656160090" lon="2.606148440">
        <ele>612.80</ele>
        <time>2014-04-06T09:32:56Z</time>
      </trkpt>
      <trkpt lat="41.656156740" lon="2.606170060">
        <ele>612.90</ele>
        <time>2014-04-06T09:32:57Z</time>
      </trkpt>
      <trkpt lat="41.656151710" lon="2.606190010">
        <ele>613.00</ele>
        <time>2014-04-06T09:32:58Z</time>
      </trkpt>
      <trkpt lat="41.656146680" lon="2.606211800">
        <ele>613.20</ele>
        <time>2014-04-06T09:32:59Z</time>
      </trkpt>
      <trkpt lat="41.656138460" lon="2.606231750">
        <ele>613.20</ele>
        <time>2014-04-06T09:33:00Z</time>
      </trkpt>
      <trkpt lat="41.656133430" lon="2.606253380">
        <ele>613.30</ele>
        <time>2014-04-06T09:33:01Z</time>
      </trkpt>
      <trkpt lat="41.656126730" lon="2.606271820">
        <ele>613.60</ele>
        <time>2014-04-06T09:33:02Z</time>
      </trkpt>
      <trkpt lat="41.656116670" lon="2.606290090">
        <ele>613.90</ele>
        <time>2014-04-06T09:33:03Z</time>
      </trkpt>
      <trkpt lat="41.656108460" lon="2.606306690">
        <ele>614.10</ele>
        <time>2014-04-06T09:33:04Z</time>
      </trkpt>
      <trkpt lat="41.656101750" lon="2.606326800">
        <ele>614.20</ele>
        <time>2014-04-06T09:33:05Z</time>
      </trkpt>
      <trkpt lat="41.656091690" lon="2.606345070">
        <ele>614.20</ele>
        <time>2014-04-06T09:33:06Z</time>
      </trkpt>
      <trkpt lat="41.656083480" lon="2.606365020">
        <ele>614.60</ele>
        <time>2014-04-06T09:33:07Z</time>
      </trkpt>
      <trkpt lat="41.656076770" lon="2.606383460">
        <ele>614.80</ele>
        <time>2014-04-06T09:33:08Z</time>
      </trkpt>
      <trkpt lat="41.656058330" lon="2.606436770">
        <ele>614.90</ele>
        <time>2014-04-06T09:33:09Z</time>
      </trkpt>
      <trkpt lat="41.656048440" lon="2.606451690">
        <ele>614.90</ele>
        <time>2014-04-06T09:33:10Z</time>
      </trkpt>
      <trkpt lat="41.656038380" lon="2.606466780">
        <ele>614.90</ele>
        <time>2014-04-06T09:33:11Z</time>
      </trkpt>
      <trkpt lat="41.656030000" lon="2.606480020">
        <ele>615.00</ele>
        <time>2014-04-06T09:33:12Z</time>
      </trkpt>
      <trkpt lat="41.656025140" lon="2.606500140">
        <ele>615.00</ele>
        <time>2014-04-06T09:33:13Z</time>
      </trkpt>
      <trkpt lat="41.656018430" lon="2.606520090">
        <ele>615.50</ele>
        <time>2014-04-06T09:33:14Z</time>
      </trkpt>
      <trkpt lat="41.656008380" lon="2.606538360">
        <ele>615.90</ele>
        <time>2014-04-06T09:33:15Z</time>
      </trkpt>
      <trkpt lat="41.656001670" lon="2.606560150">
        <ele>616.10</ele>
        <time>2014-04-06T09:33:16Z</time>
      </trkpt>
      <trkpt lat="41.655990100" lon="2.606578430">
        <ele>616.10</ele>
        <time>2014-04-06T09:33:17Z</time>
      </trkpt>
      <trkpt lat="41.655980050" lon="2.606596700">
        <ele>616.10</ele>
        <time>2014-04-06T09:33:18Z</time>
      </trkpt>
      <trkpt lat="41.655971660" lon="2.606618490">
        <ele>616.30</ele>
        <time>2014-04-06T09:33:19Z</time>
      </trkpt>
      <trkpt lat="41.655965130" lon="2.606638440">
        <ele>616.50</ele>
        <time>2014-04-06T09:33:20Z</time>
      </trkpt>
      <trkpt lat="41.655958420" lon="2.606660070">
        <ele>616.40</ele>
        <time>2014-04-06T09:33:21Z</time>
      </trkpt>
      <trkpt lat="41.655956740" lon="2.606683370">
        <ele>616.40</ele>
        <time>2014-04-06T09:33:22Z</time>
      </trkpt>
      <trkpt lat="41.655958420" lon="2.606706670">
        <ele>616.40</ele>
        <time>2014-04-06T09:33:23Z</time>
      </trkpt>
      <trkpt lat="41.655965130" lon="2.606725110">
        <ele>616.10</ele>
        <time>2014-04-06T09:33:24Z</time>
      </trkpt>
      <trkpt lat="41.655971660" lon="2.606738350">
        <ele>615.90</ele>
        <time>2014-04-06T09:33:25Z</time>
      </trkpt>
      <trkpt lat="41.655981720" lon="2.606745060">
        <ele>616.30</ele>
        <time>2014-04-06T09:33:26Z</time>
      </trkpt>
      <trkpt lat="41.655993460" lon="2.606745060">
        <ele>616.60</ele>
        <time>2014-04-06T09:33:27Z</time>
      </trkpt>
      <trkpt lat="41.656005020" lon="2.606738350">
        <ele>616.90</ele>
        <time>2014-04-06T09:33:28Z</time>
      </trkpt>
      <trkpt lat="41.656016760" lon="2.606730140">
        <ele>617.10</ele>
        <time>2014-04-06T09:33:29Z</time>
      </trkpt>
      <trkpt lat="41.656026820" lon="2.606718400">
        <ele>617.30</ele>
        <time>2014-04-06T09:33:30Z</time>
      </trkpt>
      <trkpt lat="41.656035030" lon="2.606705160">
        <ele>617.40</ele>
        <time>2014-04-06T09:33:31Z</time>
      </trkpt>
      <trkpt lat="41.656043410" lon="2.606691750">
        <ele>617.60</ele>
        <time>2014-04-06T09:33:32Z</time>
      </trkpt>
      <trkpt lat="41.656050120" lon="2.606676660">
        <ele>617.80</ele>
        <time>2014-04-06T09:33:33Z</time>
      </trkpt>
      <trkpt lat="41.656056820" lon="2.606658390">
        <ele>617.90</ele>
        <time>2014-04-06T09:33:34Z</time>
      </trkpt>
      <trkpt lat="41.656063360" lon="2.606641790">
        <ele>618.20</ele>
        <time>2014-04-06T09:33:35Z</time>
      </trkpt>
      <trkpt lat="41.656068390" lon="2.606623350">
        <ele>618.40</ele>
        <time>2014-04-06T09:33:36Z</time>
      </trkpt>
      <trkpt lat="41.656076770" lon="2.606606760">
        <ele>618.60</ele>
        <time>2014-04-06T09:33:37Z</time>
      </trkpt>
      <trkpt lat="41.656085150" lon="2.606591670">
        <ele>618.90</ele>
        <time>2014-04-06T09:33:38Z</time>
      </trkpt>
      <trkpt lat="41.656093370" lon="2.606578430">
        <ele>619.20</ele>
        <time>2014-04-06T09:33:39Z</time>
      </trkpt>
      <trkpt lat="41.656105100" lon="2.606568370">
        <ele>619.60</ele>
        <time>2014-04-06T09:33:40Z</time>
      </trkpt>
      <trkpt lat="41.656111810" lon="2.606555130">
        <ele>619.80</ele>
        <time>2014-04-06T09:33:41Z</time>
      </trkpt>
      <trkpt lat="41.656120020" lon="2.606545070">
        <ele>620.00</ele>
        <time>2014-04-06T09:33:42Z</time>
      </trkpt>
      <trkpt lat="41.656126730" lon="2.606531820">
        <ele>620.30</ele>
        <time>2014-04-06T09:33:43Z</time>
      </trkpt>
      <trkpt lat="41.656136790" lon="2.606518410">
        <ele>620.60</ele>
        <time>2014-04-06T09:33:44Z</time>
      </trkpt>
      <trkpt lat="41.656145000" lon="2.606508350">
        <ele>621.00</ele>
        <time>2014-04-06T09:33:45Z</time>
      </trkpt>
      <trkpt lat="41.656155060" lon="2.606496790">
        <ele>621.30</ele>
        <time>2014-04-06T09:33:46Z</time>
      </trkpt>
      <trkpt lat="41.656163440" lon="2.606485050">
        <ele>621.20</ele>
        <time>2014-04-06T09:33:47Z</time>
      </trkpt>
      <trkpt lat="41.656171820" lon="2.606473490">
        <ele>621.10</ele>
        <time>2014-04-06T09:33:48Z</time>
      </trkpt>
      <trkpt lat="41.656180040" lon="2.606461750">
        <ele>621.10</ele>
        <time>2014-04-06T09:33:49Z</time>
      </trkpt>
      <trkpt lat="41.656188420" lon="2.606451690">
        <ele>621.60</ele>
        <time>2014-04-06T09:33:50Z</time>
      </trkpt>
      <trkpt lat="41.656196800" lon="2.606441800">
        <ele>622.00</ele>
        <time>2014-04-06T09:33:51Z</time>
      </trkpt>
      <trkpt lat="41.656206690" lon="2.606438450">
        <ele>622.30</ele>
        <time>2014-04-06T09:33:52Z</time>
      </trkpt>
      <trkpt lat="41.656216750" lon="2.606425040">
        <ele>622.50</ele>
        <time>2014-04-06T09:33:53Z</time>
      </trkpt>
      <trkpt lat="41.656223460" lon="2.606410120">
        <ele>622.40</ele>
        <time>2014-04-06T09:33:54Z</time>
      </trkpt>
      <trkpt lat="41.656231670" lon="2.606398380">
        <ele>622.30</ele>
        <time>2014-04-06T09:33:55Z</time>
      </trkpt>
      <trkpt lat="41.656243400" lon="2.606385140">
        <ele>622.30</ele>
        <time>2014-04-06T09:33:56Z</time>
      </trkpt>
      <trkpt lat="41.656253460" lon="2.606371730">
        <ele>622.50</ele>
        <time>2014-04-06T09:33:57Z</time>
      </trkpt>
      <trkpt lat="41.656261680" lon="2.606358490">
        <ele>622.70</ele>
        <time>2014-04-06T09:33:58Z</time>
      </trkpt>
      <trkpt lat="41.656270060" lon="2.606345070">
        <ele>622.90</ele>
        <time>2014-04-06T09:33:59Z</time>
      </trkpt>
      <trkpt lat="41.656275090" lon="2.606331660">
        <ele>623.00</ele>
        <time>2014-04-06T09:34:00Z</time>
      </trkpt>
      <trkpt lat="41.656281790" lon="2.606320100">
        <ele>623.10</ele>
        <time>2014-04-06T09:34:01Z</time>
      </trkpt>
      <trkpt lat="41.656288330" lon="2.606305010">
        <ele>623.30</ele>
        <time>2014-04-06T09:34:02Z</time>
      </trkpt>
      <trkpt lat="41.656293360" lon="2.606290090">
        <ele>623.50</ele>
        <time>2014-04-06T09:34:03Z</time>
      </trkpt>
      <trkpt lat="41.656296710" lon="2.606275000">
        <ele>623.50</ele>
        <time>2014-04-06T09:34:04Z</time>
      </trkpt>
      <trkpt lat="41.656303420" lon="2.606261760">
        <ele>623.50</ele>
        <time>2014-04-06T09:34:05Z</time>
      </trkpt>
      <trkpt lat="41.656306770" lon="2.606246670">
        <ele>624.20</ele>
        <time>2014-04-06T09:34:06Z</time>
      </trkpt>
      <trkpt lat="41.656311800" lon="2.606231750">
        <ele>624.70</ele>
        <time>2014-04-06T09:34:07Z</time>
      </trkpt>
      <trkpt lat="41.656315150" lon="2.606216660">
        <ele>625.10</ele>
        <time>2014-04-06T09:34:08Z</time>
      </trkpt>
      <trkpt lat="41.656316660" lon="2.606201740">
        <ele>625.20</ele>
        <time>2014-04-06T09:34:09Z</time>
      </trkpt>
      <trkpt lat="41.656318340" lon="2.606186820">
        <ele>625.30</ele>
        <time>2014-04-06T09:34:10Z</time>
      </trkpt>
      <trkpt lat="41.656321690" lon="2.606173410">
        <ele>625.10</ele>
        <time>2014-04-06T09:34:11Z</time>
      </trkpt>
      <trkpt lat="41.656326720" lon="2.606160000">
        <ele>624.90</ele>
        <time>2014-04-06T09:34:12Z</time>
      </trkpt>
      <trkpt lat="41.656330070" lon="2.606145080">
        <ele>625.20</ele>
        <time>2014-04-06T09:34:13Z</time>
      </trkpt>
      <trkpt lat="41.656336780" lon="2.606128490">
        <ele>625.40</ele>
        <time>2014-04-06T09:34:14Z</time>
      </trkpt>
      <trkpt lat="41.656343480" lon="2.606116750">
        <ele>625.60</ele>
        <time>2014-04-06T09:34:15Z</time>
      </trkpt>
      <trkpt lat="41.656351700" lon="2.606101660">
        <ele>625.40</ele>
        <time>2014-04-06T09:34:16Z</time>
      </trkpt>
      <trkpt lat="41.656356730" lon="2.606086740">
        <ele>625.30</ele>
        <time>2014-04-06T09:34:17Z</time>
      </trkpt>
      <trkpt lat="41.656365110" lon="2.606073330">
        <ele>625.40</ele>
        <time>2014-04-06T09:34:18Z</time>
      </trkpt>
      <trkpt lat="41.656371820" lon="2.606058410">
        <ele>625.50</ele>
        <time>2014-04-06T09:34:19Z</time>
      </trkpt>
      <trkpt lat="41.656380030" lon="2.606045000">
        <ele>625.60</ele>
        <time>2014-04-06T09:34:20Z</time>
      </trkpt>
      <trkpt lat="41.656390090" lon="2.606031760">
        <ele>626.00</ele>
        <time>2014-04-06T09:34:21Z</time>
      </trkpt>
      <trkpt lat="41.656398470" lon="2.606018350">
        <ele>626.20</ele>
        <time>2014-04-06T09:34:22Z</time>
      </trkpt>
      <trkpt lat="41.656406680" lon="2.606006780">
        <ele>626.50</ele>
        <time>2014-04-06T09:34:23Z</time>
      </trkpt>
      <trkpt lat="41.656416740" lon="2.605991690">
        <ele>626.70</ele>
        <time>2014-04-06T09:34:24Z</time>
      </trkpt>
      <trkpt lat="41.656428480" lon="2.605975100">
        <ele>626.60</ele>
        <time>2014-04-06T09:34:25Z</time>
      </trkpt>
      <trkpt lat="41.656441720" lon="2.605958330">
        <ele>626.60</ele>
        <time>2014-04-06T09:34:26Z</time>
      </trkpt>
      <trkpt lat="41.656453460" lon="2.605945090">
        <ele>626.50</ele>
        <time>2014-04-06T09:34:27Z</time>
      </trkpt>
      <trkpt lat="41.656465020" lon="2.605935030">
        <ele>626.60</ele>
        <time>2014-04-06T09:34:28Z</time>
      </trkpt>
      <trkpt lat="41.656476760" lon="2.605925140">
        <ele>626.60</ele>
        <time>2014-04-06T09:34:29Z</time>
      </trkpt>
      <trkpt lat="41.656488490" lon="2.605915080">
        <ele>626.60</ele>
        <time>2014-04-06T09:34:30Z</time>
      </trkpt>
      <trkpt lat="41.656500060" lon="2.605906700">
        <ele>626.60</ele>
        <time>2014-04-06T09:34:31Z</time>
      </trkpt>
      <trkpt lat="41.656510120" lon="2.605895130">
        <ele>627.10</ele>
        <time>2014-04-06T09:34:32Z</time>
      </trkpt>
      <trkpt lat="41.656521680" lon="2.605883400">
        <ele>627.50</ele>
        <time>2014-04-06T09:34:33Z</time>
      </trkpt>
      <trkpt lat="41.656536770" lon="2.605870160">
        <ele>627.70</ele>
        <time>2014-04-06T09:34:34Z</time>
      </trkpt>
      <trkpt lat="41.656550010" lon="2.605855070">
        <ele>627.80</ele>
        <time>2014-04-06T09:34:35Z</time>
      </trkpt>
      <trkpt lat="41.656561750" lon="2.605840150">
        <ele>627.90</ele>
        <time>2014-04-06T09:34:36Z</time>
      </trkpt>
      <trkpt lat="41.656573480" lon="2.605828410">
        <ele>628.20</ele>
        <time>2014-04-06T09:34:37Z</time>
      </trkpt>
      <trkpt lat="41.656585050" lon="2.605815000">
        <ele>628.50</ele>
        <time>2014-04-06T09:34:38Z</time>
      </trkpt>
      <trkpt lat="41.656596790" lon="2.605798410">
        <ele>628.40</ele>
        <time>2014-04-06T09:34:39Z</time>
      </trkpt>
      <trkpt lat="41.656606680" lon="2.605780130">
        <ele>628.40</ele>
        <time>2014-04-06T09:34:40Z</time>
      </trkpt>
      <trkpt lat="41.656618410" lon="2.605765050">
        <ele>628.40</ele>
        <time>2014-04-06T09:34:41Z</time>
      </trkpt>
      <trkpt lat="41.656631820" lon="2.605750130">
        <ele>628.90</ele>
        <time>2014-04-06T09:34:42Z</time>
      </trkpt>
      <trkpt lat="41.656643390" lon="2.605735040">
        <ele>629.20</ele>
        <time>2014-04-06T09:34:43Z</time>
      </trkpt>
      <trkpt lat="41.656655120" lon="2.605720120">
        <ele>629.40</ele>
        <time>2014-04-06T09:34:44Z</time>
      </trkpt>
      <trkpt lat="41.656665010" lon="2.605703360">
        <ele>629.40</ele>
        <time>2014-04-06T09:34:45Z</time>
      </trkpt>
      <trkpt lat="41.656675070" lon="2.605686760">
        <ele>629.50</ele>
        <time>2014-04-06T09:34:46Z</time>
      </trkpt>
      <trkpt lat="41.656685130" lon="2.605670000">
        <ele>629.60</ele>
        <time>2014-04-06T09:34:47Z</time>
      </trkpt>
      <trkpt lat="41.656695020" lon="2.605653400">
        <ele>629.70</ele>
        <time>2014-04-06T09:34:48Z</time>
      </trkpt>
      <trkpt lat="41.656706760" lon="2.605636800">
        <ele>629.90</ele>
        <time>2014-04-06T09:34:49Z</time>
      </trkpt>
      <trkpt lat="41.656716810" lon="2.605621720">
        <ele>630.10</ele>
        <time>2014-04-06T09:34:50Z</time>
      </trkpt>
      <trkpt lat="41.656726710" lon="2.605603440">
        <ele>630.10</ele>
        <time>2014-04-06T09:34:51Z</time>
      </trkpt>
      <trkpt lat="41.656738440" lon="2.605588360">
        <ele>630.10</ele>
        <time>2014-04-06T09:34:52Z</time>
      </trkpt>
      <trkpt lat="41.656750010" lon="2.605570080">
        <ele>630.10</ele>
        <time>2014-04-06T09:34:53Z</time>
      </trkpt>
      <trkpt lat="41.656760070" lon="2.605556670">
        <ele>630.80</ele>
        <time>2014-04-06T09:34:54Z</time>
      </trkpt>
      <trkpt lat="41.656771800" lon="2.605545110">
        <ele>631.20</ele>
        <time>2014-04-06T09:34:55Z</time>
      </trkpt>
      <trkpt lat="41.656780010" lon="2.605531690">
        <ele>631.40</ele>
        <time>2014-04-06T09:34:56Z</time>
      </trkpt>
      <trkpt lat="41.656791750" lon="2.605520130">
        <ele>631.60</ele>
        <time>2014-04-06T09:34:57Z</time>
      </trkpt>
      <trkpt lat="41.656801810" lon="2.605510070">
        <ele>631.70</ele>
        <time>2014-04-06T09:34:58Z</time>
      </trkpt>
      <trkpt lat="41.656811700" lon="2.605496830">
        <ele>631.70</ele>
        <time>2014-04-06T09:34:59Z</time>
      </trkpt>
      <trkpt lat="41.656825110" lon="2.605486770">
        <ele>631.70</ele>
        <time>2014-04-06T09:35:00Z</time>
      </trkpt>
      <trkpt lat="41.656836680" lon="2.605473360">
        <ele>631.80</ele>
        <time>2014-04-06T09:35:01Z</time>
      </trkpt>
      <trkpt lat="41.656846730" lon="2.605465140">
        <ele>631.90</ele>
        <time>2014-04-06T09:35:02Z</time>
      </trkpt>
      <trkpt lat="41.656858470" lon="2.605455080">
        <ele>632.10</ele>
        <time>2014-04-06T09:35:03Z</time>
      </trkpt>
      <trkpt lat="41.656871710" lon="2.605441670">
        <ele>632.20</ele>
        <time>2014-04-06T09:35:04Z</time>
      </trkpt>
      <trkpt lat="41.656883450" lon="2.605428430">
        <ele>632.30</ele>
        <time>2014-04-06T09:35:05Z</time>
      </trkpt>
      <trkpt lat="41.656898370" lon="2.605415020">
        <ele>632.80</ele>
        <time>2014-04-06T09:35:06Z</time>
      </trkpt>
      <trkpt lat="41.656911780" lon="2.605400100">
        <ele>633.20</ele>
        <time>2014-04-06T09:35:07Z</time>
      </trkpt>
      <trkpt lat="41.656921670" lon="2.605383340">
        <ele>633.20</ele>
        <time>2014-04-06T09:35:08Z</time>
      </trkpt>
      <trkpt lat="41.656935080" lon="2.605368420">
        <ele>633.20</ele>
        <time>2014-04-06T09:35:09Z</time>
      </trkpt>
      <trkpt lat="41.656946810" lon="2.605353500">
        <ele>633.30</ele>
        <time>2014-04-06T09:35:10Z</time>
      </trkpt>
      <trkpt lat="41.656956700" lon="2.605336730">
        <ele>633.40</ele>
        <time>2014-04-06T09:35:11Z</time>
      </trkpt>
      <trkpt lat="41.656966760" lon="2.605321810">
        <ele>633.50</ele>
        <time>2014-04-06T09:35:12Z</time>
      </trkpt>
      <trkpt lat="41.656976820" lon="2.605308400">
        <ele>634.30</ele>
        <time>2014-04-06T09:35:13Z</time>
      </trkpt>
      <trkpt lat="41.656988390" lon="2.605293480">
        <ele>634.80</ele>
        <time>2014-04-06T09:35:14Z</time>
      </trkpt>
      <trkpt lat="41.656998450" lon="2.605278390">
        <ele>634.80</ele>
        <time>2014-04-06T09:35:15Z</time>
      </trkpt>
      <trkpt lat="41.657008340" lon="2.605261800">
        <ele>634.90</ele>
        <time>2014-04-06T09:35:16Z</time>
      </trkpt>
      <trkpt lat="41.657020070" lon="2.605245030">
        <ele>634.90</ele>
        <time>2014-04-06T09:35:17Z</time>
      </trkpt>
      <trkpt lat="41.657031810" lon="2.605231790">
        <ele>635.00</ele>
        <time>2014-04-06T09:35:18Z</time>
      </trkpt>
      <trkpt lat="41.657043370" lon="2.605218380">
        <ele>635.10</ele>
        <time>2014-04-06T09:35:19Z</time>
      </trkpt>
      <trkpt lat="41.657051760" lon="2.605201780">
        <ele>635.20</ele>
        <time>2014-04-06T09:35:20Z</time>
      </trkpt>
      <trkpt lat="41.657060140" lon="2.605188370">
        <ele>635.30</ele>
        <time>2014-04-06T09:35:21Z</time>
      </trkpt>
      <trkpt lat="41.657068350" lon="2.605175130">
        <ele>635.40</ele>
        <time>2014-04-06T09:35:22Z</time>
      </trkpt>
      <trkpt lat="41.657078410" lon="2.605163390">
        <ele>635.50</ele>
        <time>2014-04-06T09:35:23Z</time>
      </trkpt>
      <trkpt lat="41.657086790" lon="2.605150150">
        <ele>635.50</ele>
        <time>2014-04-06T09:35:24Z</time>
      </trkpt>
      <trkpt lat="41.657098360" lon="2.605136740">
        <ele>635.30</ele>
        <time>2014-04-06T09:35:25Z</time>
      </trkpt>
      <trkpt lat="41.657108420" lon="2.605120140">
        <ele>635.10</ele>
        <time>2014-04-06T09:35:26Z</time>
      </trkpt>
      <trkpt lat="41.657118480" lon="2.605103380">
        <ele>635.30</ele>
        <time>2014-04-06T09:35:27Z</time>
      </trkpt>
      <trkpt lat="41.657128370" lon="2.605090140">
        <ele>635.50</ele>
        <time>2014-04-06T09:35:28Z</time>
      </trkpt>
      <trkpt lat="41.657138420" lon="2.605076730">
        <ele>635.60</ele>
        <time>2014-04-06T09:35:29Z</time>
      </trkpt>
      <trkpt lat="41.657148480" lon="2.605063480">
        <ele>635.70</ele>
        <time>2014-04-06T09:35:30Z</time>
      </trkpt>
      <trkpt lat="41.657160050" lon="2.605053420">
        <ele>635.80</ele>
        <time>2014-04-06T09:35:31Z</time>
      </trkpt>
      <trkpt lat="41.657170110" lon="2.605041690">
        <ele>636.30</ele>
        <time>2014-04-06T09:35:32Z</time>
      </trkpt>
      <trkpt lat="41.657180000" lon="2.605031800">
        <ele>636.60</ele>
        <time>2014-04-06T09:35:33Z</time>
      </trkpt>
      <trkpt lat="41.657190060" lon="2.605020060">
        <ele>636.90</ele>
        <time>2014-04-06T09:35:34Z</time>
      </trkpt>
      <trkpt lat="41.657200120" lon="2.605006820">
        <ele>637.00</ele>
        <time>2014-04-06T09:35:35Z</time>
      </trkpt>
      <trkpt lat="41.657210010" lon="2.604995090">
        <ele>637.10</ele>
        <time>2014-04-06T09:35:36Z</time>
      </trkpt>
      <trkpt lat="41.657221740" lon="2.604983350">
        <ele>637.20</ele>
        <time>2014-04-06T09:35:37Z</time>
      </trkpt>
      <trkpt lat="41.657231800" lon="2.604968430">
        <ele>637.20</ele>
        <time>2014-04-06T09:35:38Z</time>
      </trkpt>
      <trkpt lat="41.657240010" lon="2.604955020">
        <ele>637.50</ele>
        <time>2014-04-06T09:35:39Z</time>
      </trkpt>
      <trkpt lat="41.657250070" lon="2.604940100">
        <ele>637.80</ele>
        <time>2014-04-06T09:35:40Z</time>
      </trkpt>
      <trkpt lat="41.657260130" lon="2.604926690">
        <ele>638.30</ele>
        <time>2014-04-06T09:35:41Z</time>
      </trkpt>
      <trkpt lat="41.657268340" lon="2.604911770">
        <ele>638.60</ele>
        <time>2014-04-06T09:35:42Z</time>
      </trkpt>
      <trkpt lat="41.657280080" lon="2.604898360">
        <ele>638.90</ele>
        <time>2014-04-06T09:35:43Z</time>
      </trkpt>
      <trkpt lat="41.657293490" lon="2.604885110">
        <ele>639.20</ele>
        <time>2014-04-06T09:35:44Z</time>
      </trkpt>
      <trkpt lat="41.657303380" lon="2.604870030">
        <ele>639.30</ele>
        <time>2014-04-06T09:35:45Z</time>
      </trkpt>
      <trkpt lat="41.657313440" lon="2.604855110">
        <ele>639.40</ele>
        <time>2014-04-06T09:35:46Z</time>
      </trkpt>
      <trkpt lat="41.657325010" lon="2.604841700">
        <ele>639.40</ele>
        <time>2014-04-06T09:35:47Z</time>
      </trkpt>
      <trkpt lat="41.657338420" lon="2.604831810">
        <ele>639.50</ele>
        <time>2014-04-06T09:35:48Z</time>
      </trkpt>
      <trkpt lat="41.657348480" lon="2.604820070">
        <ele>639.60</ele>
        <time>2014-04-06T09:35:49Z</time>
      </trkpt>
      <trkpt lat="41.657358370" lon="2.604808340">
        <ele>639.60</ele>
        <time>2014-04-06T09:35:50Z</time>
      </trkpt>
      <trkpt lat="41.657368420" lon="2.604795090">
        <ele>639.80</ele>
        <time>2014-04-06T09:35:51Z</time>
      </trkpt>
      <trkpt lat="41.657375130" lon="2.604778330">
        <ele>640.00</ele>
        <time>2014-04-06T09:35:52Z</time>
      </trkpt>
      <trkpt lat="41.657385020" lon="2.604765090">
        <ele>640.20</ele>
        <time>2014-04-06T09:35:53Z</time>
      </trkpt>
      <trkpt lat="41.657395080" lon="2.604753350">
        <ele>640.30</ele>
        <time>2014-04-06T09:35:54Z</time>
      </trkpt>
      <trkpt lat="41.657405140" lon="2.604738430">
        <ele>640.30</ele>
        <time>2014-04-06T09:35:55Z</time>
      </trkpt>
      <trkpt lat="41.657415030" lon="2.604723340">
        <ele>640.40</ele>
        <time>2014-04-06T09:35:56Z</time>
      </trkpt>
      <trkpt lat="41.657425090" lon="2.604706750">
        <ele>640.50</ele>
        <time>2014-04-06T09:35:57Z</time>
      </trkpt>
      <trkpt lat="41.657436820" lon="2.604695010">
        <ele>640.70</ele>
        <time>2014-04-06T09:35:58Z</time>
      </trkpt>
      <trkpt lat="41.657446710" lon="2.604680090">
        <ele>640.90</ele>
        <time>2014-04-06T09:35:59Z</time>
      </trkpt>
      <trkpt lat="41.657456770" lon="2.604665010">
        <ele>641.70</ele>
        <time>2014-04-06T09:36:00Z</time>
      </trkpt>
      <trkpt lat="41.657465150" lon="2.604650090">
        <ele>642.30</ele>
        <time>2014-04-06T09:36:01Z</time>
      </trkpt>
      <trkpt lat="41.657473370" lon="2.604635000">
        <ele>642.70</ele>
        <time>2014-04-06T09:36:02Z</time>
      </trkpt>
      <trkpt lat="41.657483420" lon="2.604621760">
        <ele>642.80</ele>
        <time>2014-04-06T09:36:03Z</time>
      </trkpt>
      <trkpt lat="41.657491810" lon="2.604606670">
        <ele>642.90</ele>
        <time>2014-04-06T09:36:04Z</time>
      </trkpt>
      <trkpt lat="41.657500020" lon="2.604593420">
        <ele>642.70</ele>
        <time>2014-04-06T09:36:05Z</time>
      </trkpt>
      <trkpt lat="41.657508400" lon="2.604580010">
        <ele>642.50</ele>
        <time>2014-04-06T09:36:06Z</time>
      </trkpt>
      <trkpt lat="41.657518460" lon="2.604566770">
        <ele>642.70</ele>
        <time>2014-04-06T09:36:07Z</time>
      </trkpt>
      <trkpt lat="41.657528350" lon="2.604553360">
        <ele>642.90</ele>
        <time>2014-04-06T09:36:08Z</time>
      </trkpt>
      <trkpt lat="41.657540090" lon="2.604540120">
        <ele>643.00</ele>
        <time>2014-04-06T09:36:09Z</time>
      </trkpt>
      <trkpt lat="41.657546790" lon="2.604526700">
        <ele>643.10</ele>
        <time>2014-04-06T09:36:10Z</time>
      </trkpt>
      <trkpt lat="41.657553330" lon="2.604511780">
        <ele>643.10</ele>
        <time>2014-04-06T09:36:11Z</time>
      </trkpt>
      <trkpt lat="41.657561710" lon="2.604496700">
        <ele>642.90</ele>
        <time>2014-04-06T09:36:12Z</time>
      </trkpt>
      <trkpt lat="41.657571770" lon="2.604481780">
        <ele>642.80</ele>
        <time>2014-04-06T09:36:13Z</time>
      </trkpt>
      <trkpt lat="41.657578470" lon="2.604468370">
        <ele>643.10</ele>
        <time>2014-04-06T09:36:14Z</time>
      </trkpt>
      <trkpt lat="41.657585010" lon="2.604453450">
        <ele>643.30</ele>
        <time>2014-04-06T09:36:15Z</time>
      </trkpt>
      <trkpt lat="41.657590040" lon="2.604438360">
        <ele>643.50</ele>
        <time>2014-04-06T09:36:16Z</time>
      </trkpt>
      <trkpt lat="41.657595070" lon="2.604425120">
        <ele>643.60</ele>
        <time>2014-04-06T09:36:17Z</time>
      </trkpt>
      <trkpt lat="41.657605130" lon="2.604410030">
        <ele>643.60</ele>
        <time>2014-04-06T09:36:18Z</time>
      </trkpt>
      <trkpt lat="41.657613340" lon="2.604395110">
        <ele>644.00</ele>
        <time>2014-04-06T09:36:19Z</time>
      </trkpt>
      <trkpt lat="41.657621730" lon="2.604380020">
        <ele>644.30</ele>
        <time>2014-04-06T09:36:20Z</time>
      </trkpt>
      <trkpt lat="41.657628430" lon="2.604365100">
        <ele>644.50</ele>
        <time>2014-04-06T09:36:21Z</time>
      </trkpt>
      <trkpt lat="41.657636810" lon="2.604351690">
        <ele>644.60</ele>
        <time>2014-04-06T09:36:22Z</time>
      </trkpt>
      <trkpt lat="41.657643350" lon="2.604338450">
        <ele>644.60</ele>
        <time>2014-04-06T09:36:23Z</time>
      </trkpt>
      <trkpt lat="41.657650060" lon="2.604321680">
        <ele>644.50</ele>
        <time>2014-04-06T09:36:24Z</time>
      </trkpt>
      <trkpt lat="41.657658440" lon="2.604306760">
        <ele>644.50</ele>
        <time>2014-04-06T09:36:25Z</time>
      </trkpt>
      <trkpt lat="41.657663470" lon="2.604290000">
        <ele>645.10</ele>
        <time>2014-04-06T09:36:26Z</time>
      </trkpt>
      <trkpt lat="41.657670000" lon="2.604271730">
        <ele>645.60</ele>
        <time>2014-04-06T09:36:27Z</time>
      </trkpt>
      <trkpt lat="41.657673360" lon="2.604253450">
        <ele>645.90</ele>
        <time>2014-04-06T09:36:28Z</time>
      </trkpt>
      <trkpt lat="41.657678390" lon="2.604236690">
        <ele>645.70</ele>
        <time>2014-04-06T09:36:29Z</time>
      </trkpt>
      <trkpt lat="41.657685090" lon="2.604220090">
        <ele>645.50</ele>
        <time>2014-04-06T09:36:30Z</time>
      </trkpt>
      <trkpt lat="41.657691800" lon="2.604201820">
        <ele>645.60</ele>
        <time>2014-04-06T09:36:31Z</time>
      </trkpt>
      <trkpt lat="41.657696830" lon="2.604186730">
        <ele>645.60</ele>
        <time>2014-04-06T09:36:32Z</time>
      </trkpt>
      <trkpt lat="41.657701690" lon="2.604168460">
        <ele>645.70</ele>
        <time>2014-04-06T09:36:33Z</time>
      </trkpt>
      <trkpt lat="41.657706720" lon="2.604153370">
        <ele>645.70</ele>
        <time>2014-04-06T09:36:34Z</time>
      </trkpt>
      <trkpt lat="41.657713420" lon="2.604136780">
        <ele>645.80</ele>
        <time>2014-04-06T09:36:35Z</time>
      </trkpt>
      <trkpt lat="41.657720130" lon="2.604118340">
        <ele>645.90</ele>
        <time>2014-04-06T09:36:36Z</time>
      </trkpt>
      <trkpt lat="41.657726670" lon="2.604103420">
        <ele>646.10</ele>
        <time>2014-04-06T09:36:37Z</time>
      </trkpt>
      <trkpt lat="41.657736720" lon="2.604088330">
        <ele>646.70</ele>
        <time>2014-04-06T09:36:38Z</time>
      </trkpt>
      <trkpt lat="41.657748460" lon="2.604075090">
        <ele>647.10</ele>
        <time>2014-04-06T09:36:39Z</time>
      </trkpt>
      <trkpt lat="41.657756670" lon="2.604060000">
        <ele>647.40</ele>
        <time>2014-04-06T09:36:40Z</time>
      </trkpt>
      <trkpt lat="41.657765060" lon="2.604045080">
        <ele>647.60</ele>
        <time>2014-04-06T09:36:41Z</time>
      </trkpt>
      <trkpt lat="41.657773440" lon="2.604031670">
        <ele>647.80</ele>
        <time>2014-04-06T09:36:42Z</time>
      </trkpt>
      <trkpt lat="41.657781820" lon="2.604018430">
        <ele>647.80</ele>
        <time>2014-04-06T09:36:43Z</time>
      </trkpt>
      <trkpt lat="41.657790030" lon="2.604006690">
        <ele>647.80</ele>
        <time>2014-04-06T09:36:44Z</time>
      </trkpt>
      <trkpt lat="41.657800090" lon="2.603998480">
        <ele>648.10</ele>
        <time>2014-04-06T09:36:45Z</time>
      </trkpt>
      <trkpt lat="41.657811830" lon="2.603991770">
        <ele>648.40</ele>
        <time>2014-04-06T09:36:46Z</time>
      </trkpt>
      <trkpt lat="41.657821720" lon="2.603981710">
        <ele>648.50</ele>
        <time>2014-04-06T09:36:47Z</time>
      </trkpt>
      <trkpt lat="41.657831780" lon="2.603975010">
        <ele>648.70</ele>
        <time>2014-04-06T09:36:48Z</time>
      </trkpt>
      <trkpt lat="41.657841670" lon="2.603966790">
        <ele>648.80</ele>
        <time>2014-04-06T09:36:49Z</time>
      </trkpt>
      <trkpt lat="41.657851720" lon="2.603955060">
        <ele>648.90</ele>
        <time>2014-04-06T09:36:50Z</time>
      </trkpt>
      <trkpt lat="41.657861780" lon="2.603946680">
        <ele>648.90</ele>
        <time>2014-04-06T09:36:51Z</time>
      </trkpt>
      <trkpt lat="41.657875030" lon="2.603938460">
        <ele>649.20</ele>
        <time>2014-04-06T09:36:52Z</time>
      </trkpt>
      <trkpt lat="41.657888440" lon="2.603933430">
        <ele>649.40</ele>
        <time>2014-04-06T09:36:53Z</time>
      </trkpt>
      <trkpt lat="41.657900000" lon="2.603928400">
        <ele>649.60</ele>
        <time>2014-04-06T09:36:54Z</time>
      </trkpt>
      <trkpt lat="41.657911740" lon="2.603923380">
        <ele>649.50</ele>
        <time>2014-04-06T09:36:55Z</time>
      </trkpt>
      <trkpt lat="41.657923470" lon="2.603918350">
        <ele>649.40</ele>
        <time>2014-04-06T09:36:56Z</time>
      </trkpt>
      <trkpt lat="41.657936720" lon="2.603913480">
        <ele>649.40</ele>
        <time>2014-04-06T09:36:57Z</time>
      </trkpt>
      <trkpt lat="41.657948450" lon="2.603911810">
        <ele>649.30</ele>
        <time>2014-04-06T09:36:58Z</time>
      </trkpt>
      <trkpt lat="41.657960020" lon="2.603910130">
        <ele>649.30</ele>
        <time>2014-04-06T09:36:59Z</time>
      </trkpt>
      <trkpt lat="41.657973430" lon="2.603906780">
        <ele>649.30</ele>
        <time>2014-04-06T09:37:00Z</time>
      </trkpt>
      <trkpt lat="41.657983490" lon="2.603903430">
        <ele>649.30</ele>
        <time>2014-04-06T09:37:01Z</time>
      </trkpt>
      <trkpt lat="41.657995060" lon="2.603903430">
        <ele>649.10</ele>
        <time>2014-04-06T09:37:02Z</time>
      </trkpt>
      <trkpt lat="41.658005110" lon="2.603903430">
        <ele>649.00</ele>
        <time>2014-04-06T09:37:03Z</time>
      </trkpt>
      <trkpt lat="41.658016680" lon="2.603903430">
        <ele>649.70</ele>
        <time>2014-04-06T09:37:04Z</time>
      </trkpt>
      <trkpt lat="41.658028420" lon="2.603901750">
        <ele>650.20</ele>
        <time>2014-04-06T09:37:05Z</time>
      </trkpt>
      <trkpt lat="41.658036800" lon="2.603900070">
        <ele>650.60</ele>
        <time>2014-04-06T09:37:06Z</time>
      </trkpt>
      <trkpt lat="41.658045010" lon="2.603900070">
        <ele>650.50</ele>
        <time>2014-04-06T09:37:07Z</time>
      </trkpt>
      <trkpt lat="41.658051720" lon="2.603895040">
        <ele>650.50</ele>
        <time>2014-04-06T09:37:08Z</time>
      </trkpt>
      <trkpt lat="41.658063450" lon="2.603890020">
        <ele>650.20</ele>
        <time>2014-04-06T09:37:09Z</time>
      </trkpt>
      <trkpt lat="41.658075020" lon="2.603880120">
        <ele>650.00</ele>
        <time>2014-04-06T09:37:10Z</time>
      </trkpt>
      <trkpt lat="41.658083400" lon="2.603873420">
        <ele>649.90</ele>
        <time>2014-04-06T09:37:11Z</time>
      </trkpt>
      <trkpt lat="41.658090110" lon="2.603866710">
        <ele>649.70</ele>
        <time>2014-04-06T09:37:12Z</time>
      </trkpt>
      <trkpt lat="41.658095140" lon="2.603858330">
        <ele>649.60</ele>
        <time>2014-04-06T09:37:13Z</time>
      </trkpt>
      <trkpt lat="41.658103350" lon="2.603851790">
        <ele>649.80</ele>
        <time>2014-04-06T09:37:14Z</time>
      </trkpt>
      <trkpt lat="41.658116760" lon="2.603840060">
        <ele>650.00</ele>
        <time>2014-04-06T09:37:15Z</time>
      </trkpt>
      <trkpt lat="41.658133360" lon="2.603825140">
        <ele>650.10</ele>
        <time>2014-04-06T09:37:16Z</time>
      </trkpt>
      <trkpt lat="41.658145090" lon="2.603815080">
        <ele>650.20</ele>
        <time>2014-04-06T09:37:17Z</time>
      </trkpt>
      <trkpt lat="41.658153470" lon="2.603801670">
        <ele>650.30</ele>
        <time>2014-04-06T09:37:18Z</time>
      </trkpt>
      <trkpt lat="41.658158330" lon="2.603791780">
        <ele>650.30</ele>
        <time>2014-04-06T09:37:19Z</time>
      </trkpt>
      <trkpt lat="41.658166720" lon="2.603778370">
        <ele>650.40</ele>
        <time>2014-04-06T09:37:20Z</time>
      </trkpt>
      <trkpt lat="41.658173420" lon="2.603766800">
        <ele>650.30</ele>
        <time>2014-04-06T09:37:21Z</time>
      </trkpt>
      <trkpt lat="41.658176770" lon="2.603758420">
        <ele>650.20</ele>
        <time>2014-04-06T09:37:22Z</time>
      </trkpt>
      <trkpt lat="41.658176770" lon="2.603756740">
        <ele>650.50</ele>
        <time>2014-04-06T09:37:23Z</time>
      </trkpt>
      <trkpt lat="41.658178450" lon="2.603755070">
        <ele>650.70</ele>
        <time>2014-04-06T09:37:24Z</time>
      </trkpt>
      <trkpt lat="41.658178450" lon="2.603755070">
        <ele>650.80</ele>
        <time>2014-04-06T09:37:25Z</time>
      </trkpt>
      <trkpt lat="41.658178450" lon="2.603753390">
        <ele>651.00</ele>
        <time>2014-04-06T09:37:26Z</time>
      </trkpt>
      <trkpt lat="41.658178450" lon="2.603751710">
        <ele>651.10</ele>
        <time>2014-04-06T09:37:27Z</time>
      </trkpt>
      <trkpt lat="41.658180130" lon="2.603751710">
        <ele>651.10</ele>
        <time>2014-04-06T09:37:28Z</time>
      </trkpt>
      <trkpt lat="41.658180130" lon="2.603751710">
        <ele>651.00</ele>
        <time>2014-04-06T09:37:29Z</time>
      </trkpt>
      <trkpt lat="41.658180130" lon="2.603750040">
        <ele>650.70</ele>
        <time>2014-04-06T09:37:30Z</time>
      </trkpt>
      <trkpt lat="41.658181800" lon="2.603750040">
        <ele>650.40</ele>
        <time>2014-04-06T09:37:31Z</time>
      </trkpt>
      <trkpt lat="41.658181800" lon="2.603750040">
        <ele>650.20</ele>
        <time>2014-04-06T09:37:32Z</time>
      </trkpt>
      <trkpt lat="41.658181800" lon="2.603750040">
        <ele>650.10</ele>
        <time>2014-04-06T09:37:33Z</time>
      </trkpt>
      <trkpt lat="41.658181800" lon="2.603750040">
        <ele>650.00</ele>
        <time>2014-04-06T09:37:34Z</time>
      </trkpt>
      <trkpt lat="41.658183480" lon="2.603750040">
        <ele>650.10</ele>
        <time>2014-04-06T09:37:35Z</time>
      </trkpt>
      <trkpt lat="41.658183480" lon="2.603751710">
        <ele>650.20</ele>
        <time>2014-04-06T09:37:36Z</time>
      </trkpt>
      <trkpt lat="41.658183480" lon="2.603751710">
        <ele>650.20</ele>
        <time>2014-04-06T09:37:37Z</time>
      </trkpt>
      <trkpt lat="41.658181800" lon="2.603750040">
        <ele>650.20</ele>
        <time>2014-04-06T09:37:38Z</time>
      </trkpt>
      <trkpt lat="41.658181800" lon="2.603748360">
        <ele>650.20</ele>
        <time>2014-04-06T09:37:39Z</time>
      </trkpt>
      <trkpt lat="41.658180130" lon="2.603746680">
        <ele>650.50</ele>
        <time>2014-04-06T09:37:40Z</time>
      </trkpt>
      <trkpt lat="41.658180130" lon="2.603746680">
        <ele>650.70</ele>
        <time>2014-04-06T09:37:41Z</time>
      </trkpt>
      <trkpt lat="41.658181800" lon="2.603746680">
        <ele>650.40</ele>
        <time>2014-04-06T09:37:42Z</time>
      </trkpt>
      <trkpt lat="41.658185160" lon="2.603746680">
        <ele>650.20</ele>
        <time>2014-04-06T09:37:43Z</time>
      </trkpt>
      <trkpt lat="41.658186670" lon="2.603745010">
        <ele>650.00</ele>
        <time>2014-04-06T09:37:44Z</time>
      </trkpt>
      <trkpt lat="41.658190020" lon="2.603745010">
        <ele>650.20</ele>
        <time>2014-04-06T09:37:45Z</time>
      </trkpt>
      <trkpt lat="41.658191690" lon="2.603743330">
        <ele>650.40</ele>
        <time>2014-04-06T09:37:46Z</time>
      </trkpt>
      <trkpt lat="41.658191690" lon="2.603741820">
        <ele>650.00</ele>
        <time>2014-04-06T09:37:47Z</time>
      </trkpt>
      <trkpt lat="41.658191690" lon="2.603740150">
        <ele>649.70</ele>
        <time>2014-04-06T09:37:48Z</time>
      </trkpt>
      <trkpt lat="41.658191690" lon="2.603738470">
        <ele>649.70</ele>
        <time>2014-04-06T09:37:49Z</time>
      </trkpt>
      <trkpt lat="41.658191690" lon="2.603738470">
        <ele>649.70</ele>
        <time>2014-04-06T09:37:50Z</time>
      </trkpt>
      <trkpt lat="41.658191690" lon="2.603735120">
        <ele>649.70</ele>
        <time>2014-04-06T09:37:51Z</time>
      </trkpt>
      <trkpt lat="41.658193370" lon="2.603733440">
        <ele>649.80</ele>
        <time>2014-04-06T09:37:52Z</time>
      </trkpt>
      <trkpt lat="41.658195050" lon="2.603731770">
        <ele>649.90</ele>
        <time>2014-04-06T09:37:53Z</time>
      </trkpt>
      <trkpt lat="41.658195050" lon="2.603730090">
        <ele>649.80</ele>
        <time>2014-04-06T09:37:54Z</time>
      </trkpt>
      <trkpt lat="41.658196720" lon="2.603728410">
        <ele>649.80</ele>
        <time>2014-04-06T09:37:55Z</time>
      </trkpt>
      <trkpt lat="41.658196720" lon="2.603726740">
        <ele>649.70</ele>
        <time>2014-04-06T09:37:56Z</time>
      </trkpt>
      <trkpt lat="41.658198400" lon="2.603725060">
        <ele>650.00</ele>
        <time>2014-04-06T09:37:57Z</time>
      </trkpt>
      <trkpt lat="41.658198400" lon="2.603721710">
        <ele>650.20</ele>
        <time>2014-04-06T09:37:58Z</time>
      </trkpt>
      <trkpt lat="41.658200080" lon="2.603720030">
        <ele>650.20</ele>
        <time>2014-04-06T09:37:59Z</time>
      </trkpt>
      <trkpt lat="41.658200080" lon="2.603716680">
        <ele>650.20</ele>
        <time>2014-04-06T09:38:00Z</time>
      </trkpt>
      <trkpt lat="41.658200080" lon="2.603713490">
        <ele>650.10</ele>
        <time>2014-04-06T09:38:01Z</time>
      </trkpt>
      <trkpt lat="41.658200080" lon="2.603708460">
        <ele>650.00</ele>
        <time>2014-04-06T09:38:02Z</time>
      </trkpt>
      <trkpt lat="41.658200080" lon="2.603705110">
        <ele>650.00</ele>
        <time>2014-04-06T09:38:03Z</time>
      </trkpt>
      <trkpt lat="41.658200080" lon="2.603701760">
        <ele>649.90</ele>
        <time>2014-04-06T09:38:04Z</time>
      </trkpt>
      <trkpt lat="41.658200080" lon="2.603696730">
        <ele>649.90</ele>
        <time>2014-04-06T09:38:05Z</time>
      </trkpt>
      <trkpt lat="41.658200080" lon="2.603691700">
        <ele>650.00</ele>
        <time>2014-04-06T09:38:06Z</time>
      </trkpt>
      <trkpt lat="41.658200080" lon="2.603688350">
        <ele>650.20</ele>
        <time>2014-04-06T09:38:07Z</time>
      </trkpt>
      <trkpt lat="41.658200080" lon="2.603683490">
        <ele>650.10</ele>
        <time>2014-04-06T09:38:08Z</time>
      </trkpt>
      <trkpt lat="41.658200080" lon="2.603678460">
        <ele>650.00</ele>
        <time>2014-04-06T09:38:09Z</time>
      </trkpt>
      <trkpt lat="41.658200080" lon="2.603673430">
        <ele>649.90</ele>
        <time>2014-04-06T09:38:10Z</time>
      </trkpt>
      <trkpt lat="41.658198400" lon="2.603668400">
        <ele>650.20</ele>
        <time>2014-04-06T09:38:11Z</time>
      </trkpt>
      <trkpt lat="41.658198400" lon="2.603665050">
        <ele>650.40</ele>
        <time>2014-04-06T09:38:12Z</time>
      </trkpt>
      <trkpt lat="41.658198400" lon="2.603660020">
        <ele>650.10</ele>
        <time>2014-04-06T09:38:13Z</time>
      </trkpt>
      <trkpt lat="41.658198400" lon="2.603655150">
        <ele>649.90</ele>
        <time>2014-04-06T09:38:14Z</time>
      </trkpt>
      <trkpt lat="41.658198400" lon="2.603650130">
        <ele>649.70</ele>
        <time>2014-04-06T09:38:15Z</time>
      </trkpt>
      <trkpt lat="41.658198400" lon="2.603646770">
        <ele>650.10</ele>
        <time>2014-04-06T09:38:16Z</time>
      </trkpt>
      <trkpt lat="41.658198400" lon="2.603643420">
        <ele>650.30</ele>
        <time>2014-04-06T09:38:17Z</time>
      </trkpt>
      <trkpt lat="41.658198400" lon="2.603640070">
        <ele>650.10</ele>
        <time>2014-04-06T09:38:18Z</time>
      </trkpt>
      <trkpt lat="41.658198400" lon="2.603636710">
        <ele>650.00</ele>
        <time>2014-04-06T09:38:19Z</time>
      </trkpt>
      <trkpt lat="41.658198400" lon="2.603635040">
        <ele>649.80</ele>
        <time>2014-04-06T09:38:20Z</time>
      </trkpt>
      <trkpt lat="41.658198400" lon="2.603633360">
        <ele>649.60</ele>
        <time>2014-04-06T09:38:21Z</time>
      </trkpt>
      <trkpt lat="41.658198400" lon="2.603630010">
        <ele>649.40</ele>
        <time>2014-04-06T09:38:22Z</time>
      </trkpt>
      <trkpt lat="41.658198400" lon="2.603628330">
        <ele>649.30</ele>
        <time>2014-04-06T09:38:23Z</time>
      </trkpt>
      <trkpt lat="41.658196720" lon="2.603626820">
        <ele>649.20</ele>
        <time>2014-04-06T09:38:24Z</time>
      </trkpt>
      <trkpt lat="41.658196720" lon="2.603625150">
        <ele>649.20</ele>
        <time>2014-04-06T09:38:25Z</time>
      </trkpt>
      <trkpt lat="41.658196720" lon="2.603625150">
        <ele>649.20</ele>
        <time>2014-04-06T09:38:26Z</time>
      </trkpt>
      <trkpt lat="41.658196720" lon="2.603623470">
        <ele>649.40</ele>
        <time>2014-04-06T09:38:27Z</time>
      </trkpt>
      <trkpt lat="41.658196720" lon="2.603621790">
        <ele>649.60</ele>
        <time>2014-04-06T09:38:28Z</time>
      </trkpt>
      <trkpt lat="41.658196720" lon="2.603621790">
        <ele>649.70</ele>
        <time>2014-04-06T09:38:29Z</time>
      </trkpt>
      <trkpt lat="41.658196720" lon="2.603620120">
        <ele>649.50</ele>
        <time>2014-04-06T09:38:30Z</time>
      </trkpt>
      <trkpt lat="41.658196720" lon="2.603620120">
        <ele>649.40</ele>
        <time>2014-04-06T09:38:31Z</time>
      </trkpt>
      <trkpt lat="41.658196720" lon="2.603618440">
        <ele>649.50</ele>
        <time>2014-04-06T09:38:32Z</time>
      </trkpt>
      <trkpt lat="41.658198400" lon="2.603618440">
        <ele>649.50</ele>
        <time>2014-04-06T09:38:33Z</time>
      </trkpt>
      <trkpt lat="41.658200080" lon="2.603618440">
        <ele>649.70</ele>
        <time>2014-04-06T09:38:34Z</time>
      </trkpt>
      <trkpt lat="41.658203430" lon="2.603616770">
        <ele>649.80</ele>
        <time>2014-04-06T09:38:35Z</time>
      </trkpt>
      <trkpt lat="41.658205110" lon="2.603616770">
        <ele>649.90</ele>
        <time>2014-04-06T09:38:36Z</time>
      </trkpt>
      <trkpt lat="41.658206780" lon="2.603616770">
        <ele>650.10</ele>
        <time>2014-04-06T09:38:37Z</time>
      </trkpt>
      <trkpt lat="41.658208460" lon="2.603616770">
        <ele>650.30</ele>
        <time>2014-04-06T09:38:38Z</time>
      </trkpt>
      <trkpt lat="41.658208460" lon="2.603616770">
        <ele>650.20</ele>
        <time>2014-04-06T09:38:39Z</time>
      </trkpt>
      <trkpt lat="41.658210130" lon="2.603616770">
        <ele>650.10</ele>
        <time>2014-04-06T09:38:40Z</time>
      </trkpt>
      <trkpt lat="41.658213490" lon="2.603616770">
        <ele>650.00</ele>
        <time>2014-04-06T09:38:41Z</time>
      </trkpt>
      <trkpt lat="41.658213490" lon="2.603618440">
        <ele>650.10</ele>
        <time>2014-04-06T09:38:42Z</time>
      </trkpt>
      <trkpt lat="41.658215000" lon="2.603618440">
        <ele>650.10</ele>
        <time>2014-04-06T09:38:43Z</time>
      </trkpt>
      <trkpt lat="41.658215000" lon="2.603618440">
        <ele>649.90</ele>
        <time>2014-04-06T09:38:44Z</time>
      </trkpt>
      <trkpt lat="41.658216670" lon="2.603620120">
        <ele>649.70</ele>
        <time>2014-04-06T09:38:45Z</time>
      </trkpt>
      <trkpt lat="41.658216670" lon="2.603620120">
        <ele>649.80</ele>
        <time>2014-04-06T09:38:46Z</time>
      </trkpt>
      <trkpt lat="41.658218350" lon="2.603621790">
        <ele>649.80</ele>
        <time>2014-04-06T09:38:47Z</time>
      </trkpt>
      <trkpt lat="41.658218350" lon="2.603621790">
        <ele>649.80</ele>
        <time>2014-04-06T09:38:48Z</time>
      </trkpt>
      <trkpt lat="41.658220030" lon="2.603623470">
        <ele>649.50</ele>
        <time>2014-04-06T09:38:49Z</time>
      </trkpt>
      <trkpt lat="41.658220030" lon="2.603623470">
        <ele>649.20</ele>
        <time>2014-04-06T09:38:50Z</time>
      </trkpt>
      <trkpt lat="41.658221700" lon="2.603625150">
        <ele>649.00</ele>
        <time>2014-04-06T09:38:51Z</time>
      </trkpt>
      <trkpt lat="41.658221700" lon="2.603626820">
        <ele>648.90</ele>
        <time>2014-04-06T09:38:52Z</time>
      </trkpt>
      <trkpt lat="41.658223380" lon="2.603626820">
        <ele>648.90</ele>
        <time>2014-04-06T09:38:53Z</time>
      </trkpt>
      <trkpt lat="41.658223380" lon="2.603628330">
        <ele>649.00</ele>
        <time>2014-04-06T09:38:54Z</time>
      </trkpt>
      <trkpt lat="41.658223380" lon="2.603630010">
        <ele>649.00</ele>
        <time>2014-04-06T09:38:55Z</time>
      </trkpt>
      <trkpt lat="41.658225050" lon="2.603631690">
        <ele>649.80</ele>
        <time>2014-04-06T09:38:56Z</time>
      </trkpt>
      <trkpt lat="41.658225050" lon="2.603633360">
        <ele>650.40</ele>
        <time>2014-04-06T09:38:57Z</time>
      </trkpt>
      <trkpt lat="41.658225050" lon="2.603633360">
        <ele>650.30</ele>
        <time>2014-04-06T09:38:58Z</time>
      </trkpt>
      <trkpt lat="41.658226730" lon="2.603635040">
        <ele>650.20</ele>
        <time>2014-04-06T09:38:59Z</time>
      </trkpt>
      <trkpt lat="41.658226730" lon="2.603636710">
        <ele>650.10</ele>
        <time>2014-04-06T09:39:00Z</time>
      </trkpt>
      <trkpt lat="41.658226730" lon="2.603638390">
        <ele>650.20</ele>
        <time>2014-04-06T09:39:01Z</time>
      </trkpt>
      <trkpt lat="41.658226730" lon="2.603640070">
        <ele>650.20</ele>
        <time>2014-04-06T09:39:02Z</time>
      </trkpt>
      <trkpt lat="41.658226730" lon="2.603641740">
        <ele>649.90</ele>
        <time>2014-04-06T09:39:03Z</time>
      </trkpt>
      <trkpt lat="41.658228410" lon="2.603643420">
        <ele>649.70</ele>
        <time>2014-04-06T09:39:04Z</time>
      </trkpt>
      <trkpt lat="41.658228410" lon="2.603645100">
        <ele>649.60</ele>
        <time>2014-04-06T09:39:05Z</time>
      </trkpt>
      <trkpt lat="41.658228410" lon="2.603646770">
        <ele>649.60</ele>
        <time>2014-04-06T09:39:06Z</time>
      </trkpt>
      <trkpt lat="41.658228410" lon="2.603648450">
        <ele>649.60</ele>
        <time>2014-04-06T09:39:07Z</time>
      </trkpt>
      <trkpt lat="41.658228410" lon="2.603650130">
        <ele>650.10</ele>
        <time>2014-04-06T09:39:08Z</time>
      </trkpt>
      <trkpt lat="41.658230080" lon="2.603651800">
        <ele>650.40</ele>
        <time>2014-04-06T09:39:09Z</time>
      </trkpt>
      <trkpt lat="41.658230080" lon="2.603653480">
        <ele>650.20</ele>
        <time>2014-04-06T09:39:10Z</time>
      </trkpt>
      <trkpt lat="41.658230080" lon="2.603655150">
        <ele>650.00</ele>
        <time>2014-04-06T09:39:11Z</time>
      </trkpt>
      <trkpt lat="41.658230080" lon="2.603656660">
        <ele>650.10</ele>
        <time>2014-04-06T09:39:12Z</time>
      </trkpt>
      <trkpt lat="41.658230080" lon="2.603658340">
        <ele>650.30</ele>
        <time>2014-04-06T09:39:13Z</time>
      </trkpt>
      <trkpt lat="41.658230080" lon="2.603660020">
        <ele>650.30</ele>
        <time>2014-04-06T09:39:14Z</time>
      </trkpt>
      <trkpt lat="41.658230080" lon="2.603663370">
        <ele>650.40</ele>
        <time>2014-04-06T09:39:15Z</time>
      </trkpt>
      <trkpt lat="41.658231760" lon="2.603665050">
        <ele>650.40</ele>
        <time>2014-04-06T09:39:16Z</time>
      </trkpt>
      <trkpt lat="41.658231760" lon="2.603666720">
        <ele>650.80</ele>
        <time>2014-04-06T09:39:17Z</time>
      </trkpt>
      <trkpt lat="41.658231760" lon="2.603668400">
        <ele>651.10</ele>
        <time>2014-04-06T09:39:18Z</time>
      </trkpt>
      <trkpt lat="41.658233440" lon="2.603670070">
        <ele>651.30</ele>
        <time>2014-04-06T09:39:19Z</time>
      </trkpt>
      <trkpt lat="41.658233440" lon="2.603671750">
        <ele>650.80</ele>
        <time>2014-04-06T09:39:20Z</time>
      </trkpt>
      <trkpt lat="41.658233440" lon="2.603673430">
        <ele>650.40</ele>
        <time>2014-04-06T09:39:21Z</time>
      </trkpt>
      <trkpt lat="41.658233440" lon="2.603675100">
        <ele>650.30</ele>
        <time>2014-04-06T09:39:22Z</time>
      </trkpt>
      <trkpt lat="41.658235110" lon="2.603675100">
        <ele>650.20</ele>
        <time>2014-04-06T09:39:23Z</time>
      </trkpt>
      <trkpt lat="41.658235110" lon="2.603676780">
        <ele>650.10</ele>
        <time>2014-04-06T09:39:24Z</time>
      </trkpt>
      <trkpt lat="41.658235110" lon="2.603678460">
        <ele>650.00</ele>
        <time>2014-04-06T09:39:25Z</time>
      </trkpt>
      <trkpt lat="41.658236790" lon="2.603680130">
        <ele>649.90</ele>
        <time>2014-04-06T09:39:26Z</time>
      </trkpt>
      <trkpt lat="41.658236790" lon="2.603681810">
        <ele>650.00</ele>
        <time>2014-04-06T09:39:27Z</time>
      </trkpt>
      <trkpt lat="41.658236790" lon="2.603683490">
        <ele>650.00</ele>
        <time>2014-04-06T09:39:28Z</time>
      </trkpt>
      <trkpt lat="41.658238470" lon="2.603685160">
        <ele>649.90</ele>
        <time>2014-04-06T09:39:29Z</time>
      </trkpt>
      <trkpt lat="41.658238470" lon="2.603685160">
        <ele>649.80</ele>
        <time>2014-04-06T09:39:30Z</time>
      </trkpt>
      <trkpt lat="41.658238470" lon="2.603686670">
        <ele>649.80</ele>
        <time>2014-04-06T09:39:31Z</time>
      </trkpt>
      <trkpt lat="41.658240140" lon="2.603686670">
        <ele>649.90</ele>
        <time>2014-04-06T09:39:32Z</time>
      </trkpt>
      <trkpt lat="41.658240140" lon="2.603686670">
        <ele>649.90</ele>
        <time>2014-04-06T09:39:33Z</time>
      </trkpt>
      <trkpt lat="41.658240140" lon="2.603686670">
        <ele>649.90</ele>
        <time>2014-04-06T09:39:34Z</time>
      </trkpt>
      <trkpt lat="41.658241820" lon="2.603686670">
        <ele>649.90</ele>
        <time>2014-04-06T09:39:35Z</time>
      </trkpt>
      <trkpt lat="41.658241820" lon="2.603685160">
        <ele>650.20</ele>
        <time>2014-04-06T09:39:36Z</time>
      </trkpt>
      <trkpt lat="41.658243490" lon="2.603683490">
        <ele>650.50</ele>
        <time>2014-04-06T09:39:37Z</time>
      </trkpt>
      <trkpt lat="41.658243490" lon="2.603683490">
        <ele>650.60</ele>
        <time>2014-04-06T09:39:38Z</time>
      </trkpt>
      <trkpt lat="41.658243490" lon="2.603681810">
        <ele>650.90</ele>
        <time>2014-04-06T09:39:39Z</time>
      </trkpt>
      <trkpt lat="41.658245000" lon="2.603681810">
        <ele>651.00</ele>
        <time>2014-04-06T09:39:40Z</time>
      </trkpt>
      <trkpt lat="41.658245000" lon="2.603681810">
        <ele>651.00</ele>
        <time>2014-04-06T09:39:41Z</time>
      </trkpt>
      <trkpt lat="41.658246680" lon="2.603681810">
        <ele>650.90</ele>
        <time>2014-04-06T09:39:42Z</time>
      </trkpt>
      <trkpt lat="41.658246680" lon="2.603681810">
        <ele>650.30</ele>
        <time>2014-04-06T09:39:43Z</time>
      </trkpt>
      <trkpt lat="41.658246680" lon="2.603680130">
        <ele>649.90</ele>
        <time>2014-04-06T09:39:44Z</time>
      </trkpt>
      <trkpt lat="41.658246680" lon="2.603680130">
        <ele>649.60</ele>
        <time>2014-04-06T09:39:45Z</time>
      </trkpt>
      <trkpt lat="41.658246680" lon="2.603680130">
        <ele>649.60</ele>
        <time>2014-04-06T09:39:46Z</time>
      </trkpt>
      <trkpt lat="41.658248360" lon="2.603678460">
        <ele>649.70</ele>
        <time>2014-04-06T09:39:47Z</time>
      </trkpt>
      <trkpt lat="41.658248360" lon="2.603676780">
        <ele>650.10</ele>
        <time>2014-04-06T09:39:48Z</time>
      </trkpt>
      <trkpt lat="41.658250030" lon="2.603676780">
        <ele>650.50</ele>
        <time>2014-04-06T09:39:49Z</time>
      </trkpt>
      <trkpt lat="41.658250030" lon="2.603675100">
        <ele>650.50</ele>
        <time>2014-04-06T09:39:50Z</time>
      </trkpt>
      <trkpt lat="41.658250030" lon="2.603673430">
        <ele>650.60</ele>
        <time>2014-04-06T09:39:51Z</time>
      </trkpt>
      <trkpt lat="41.658251710" lon="2.603671750">
        <ele>650.60</ele>
        <time>2014-04-06T09:39:52Z</time>
      </trkpt>
      <trkpt lat="41.658251710" lon="2.603670070">
        <ele>650.60</ele>
        <time>2014-04-06T09:39:53Z</time>
      </trkpt>
      <trkpt lat="41.658251710" lon="2.603668400">
        <ele>650.70</ele>
        <time>2014-04-06T09:39:54Z</time>
      </trkpt>
      <trkpt lat="41.658251710" lon="2.603665050">
        <ele>650.70</ele>
        <time>2014-04-06T09:39:55Z</time>
      </trkpt>
      <trkpt lat="41.658251710" lon="2.603663370">
        <ele>650.70</ele>
        <time>2014-04-06T09:39:56Z</time>
      </trkpt>
      <trkpt lat="41.658251710" lon="2.603661690">
        <ele>650.80</ele>
        <time>2014-04-06T09:39:57Z</time>
      </trkpt>
      <trkpt lat="41.658253390" lon="2.603660020">
        <ele>650.80</ele>
        <time>2014-04-06T09:39:58Z</time>
      </trkpt>
      <trkpt lat="41.658253390" lon="2.603656660">
        <ele>650.90</ele>
        <time>2014-04-06T09:39:59Z</time>
      </trkpt>
      <trkpt lat="41.658248360" lon="2.603656660">
        <ele>650.40</ele>
        <time>2014-04-06T09:40:00Z</time>
      </trkpt>
      <trkpt lat="41.658243490" lon="2.603651800">
        <ele>650.10</ele>
        <time>2014-04-06T09:40:01Z</time>
      </trkpt>
      <trkpt lat="41.658241820" lon="2.603650130">
        <ele>650.30</ele>
        <time>2014-04-06T09:40:02Z</time>
      </trkpt>
      <trkpt lat="41.658241820" lon="2.603650130">
        <ele>650.40</ele>
        <time>2014-04-06T09:40:03Z</time>
      </trkpt>
      <trkpt lat="41.658241820" lon="2.603648450">
        <ele>650.50</ele>
        <time>2014-04-06T09:40:04Z</time>
      </trkpt>
      <trkpt lat="41.658241820" lon="2.603645100">
        <ele>650.60</ele>
        <time>2014-04-06T09:40:05Z</time>
      </trkpt>
      <trkpt lat="41.658243490" lon="2.603631690">
        <ele>650.60</ele>
        <time>2014-04-06T09:40:06Z</time>
      </trkpt>
      <trkpt lat="41.658243490" lon="2.603621790">
        <ele>650.60</ele>
        <time>2014-04-06T09:40:07Z</time>
      </trkpt>
      <trkpt lat="41.658241820" lon="2.603611740">
        <ele>650.60</ele>
        <time>2014-04-06T09:40:08Z</time>
      </trkpt>
      <trkpt lat="41.658241820" lon="2.603600000">
        <ele>650.70</ele>
        <time>2014-04-06T09:40:09Z</time>
      </trkpt>
      <trkpt lat="41.658240140" lon="2.603588430">
        <ele>650.70</ele>
        <time>2014-04-06T09:40:10Z</time>
      </trkpt>
      <trkpt lat="41.658241820" lon="2.603575020">
        <ele>650.70</ele>
        <time>2014-04-06T09:40:11Z</time>
      </trkpt>
      <trkpt lat="41.658246680" lon="2.603561780">
        <ele>650.80</ele>
        <time>2014-04-06T09:40:12Z</time>
      </trkpt>
      <trkpt lat="41.658251710" lon="2.603546690">
        <ele>650.90</ele>
        <time>2014-04-06T09:40:13Z</time>
      </trkpt>
      <trkpt lat="41.658255060" lon="2.603538480">
        <ele>650.60</ele>
        <time>2014-04-06T09:40:14Z</time>
      </trkpt>
      <trkpt lat="41.658256740" lon="2.603526740">
        <ele>650.40</ele>
        <time>2014-04-06T09:40:15Z</time>
      </trkpt>
      <trkpt lat="41.658260090" lon="2.603516690">
        <ele>650.30</ele>
        <time>2014-04-06T09:40:16Z</time>
      </trkpt>
      <trkpt lat="41.658261770" lon="2.603503440">
        <ele>650.50</ele>
        <time>2014-04-06T09:40:17Z</time>
      </trkpt>
      <trkpt lat="41.658265120" lon="2.603491710">
        <ele>650.60</ele>
        <time>2014-04-06T09:40:18Z</time>
      </trkpt>
      <trkpt lat="41.658265120" lon="2.603480140">
        <ele>650.70</ele>
        <time>2014-04-06T09:40:19Z</time>
      </trkpt>
      <trkpt lat="41.658266800" lon="2.603468410">
        <ele>650.70</ele>
        <time>2014-04-06T09:40:20Z</time>
      </trkpt>
      <trkpt lat="41.658266800" lon="2.603453490">
        <ele>651.00</ele>
        <time>2014-04-06T09:40:21Z</time>
      </trkpt>
      <trkpt lat="41.658268470" lon="2.603440070">
        <ele>651.20</ele>
        <time>2014-04-06T09:40:22Z</time>
      </trkpt>
      <trkpt lat="41.658268470" lon="2.603425160">
        <ele>651.40</ele>
        <time>2014-04-06T09:40:23Z</time>
      </trkpt>
      <trkpt lat="41.658268470" lon="2.603408390">
        <ele>651.50</ele>
        <time>2014-04-06T09:40:24Z</time>
      </trkpt>
      <trkpt lat="41.658270150" lon="2.603395150">
        <ele>651.50</ele>
        <time>2014-04-06T09:40:25Z</time>
      </trkpt>
      <trkpt lat="41.658271830" lon="2.603378380">
        <ele>651.30</ele>
        <time>2014-04-06T09:40:26Z</time>
      </trkpt>
      <trkpt lat="41.658273330" lon="2.603365140">
        <ele>651.20</ele>
        <time>2014-04-06T09:40:27Z</time>
      </trkpt>
      <trkpt lat="41.658273330" lon="2.603351730">
        <ele>651.90</ele>
        <time>2014-04-06T09:40:28Z</time>
      </trkpt>
      <trkpt lat="41.658273330" lon="2.603338490">
        <ele>652.40</ele>
        <time>2014-04-06T09:40:29Z</time>
      </trkpt>
      <trkpt lat="41.658271830" lon="2.603325080">
        <ele>652.80</ele>
        <time>2014-04-06T09:40:30Z</time>
      </trkpt>
      <trkpt lat="41.658271830" lon="2.603311660">
        <ele>652.70</ele>
        <time>2014-04-06T09:40:31Z</time>
      </trkpt>
      <trkpt lat="41.658271830" lon="2.603298420">
        <ele>652.70</ele>
        <time>2014-04-06T09:40:32Z</time>
      </trkpt>
      <trkpt lat="41.658271830" lon="2.603283330">
        <ele>652.40</ele>
        <time>2014-04-06T09:40:33Z</time>
      </trkpt>
      <trkpt lat="41.658275010" lon="2.603270090">
        <ele>652.10</ele>
        <time>2014-04-06T09:40:34Z</time>
      </trkpt>
      <trkpt lat="41.658278360" lon="2.603256680">
        <ele>651.90</ele>
        <time>2014-04-06T09:40:35Z</time>
      </trkpt>
      <trkpt lat="41.658280040" lon="2.603240080">
        <ele>652.00</ele>
        <time>2014-04-06T09:40:36Z</time>
      </trkpt>
      <trkpt lat="41.658281720" lon="2.603223490">
        <ele>652.00</ele>
        <time>2014-04-06T09:40:37Z</time>
      </trkpt>
      <trkpt lat="41.658283390" lon="2.603208400">
        <ele>652.10</ele>
        <time>2014-04-06T09:40:38Z</time>
      </trkpt>
      <trkpt lat="41.658285070" lon="2.603195160">
        <ele>652.10</ele>
        <time>2014-04-06T09:40:39Z</time>
      </trkpt>
      <trkpt lat="41.658286750" lon="2.603178390">
        <ele>652.40</ele>
        <time>2014-04-06T09:40:40Z</time>
      </trkpt>
      <trkpt lat="41.658288420" lon="2.603161800">
        <ele>652.60</ele>
        <time>2014-04-06T09:40:41Z</time>
      </trkpt>
      <trkpt lat="41.658291770" lon="2.603145030">
        <ele>652.80</ele>
        <time>2014-04-06T09:40:42Z</time>
      </trkpt>
      <trkpt lat="41.658293450" lon="2.603128440">
        <ele>653.00</ele>
        <time>2014-04-06T09:40:43Z</time>
      </trkpt>
      <trkpt lat="41.658295130" lon="2.603108490">
        <ele>653.20</ele>
        <time>2014-04-06T09:40:44Z</time>
      </trkpt>
      <trkpt lat="41.658296800" lon="2.603091720">
        <ele>653.40</ele>
        <time>2014-04-06T09:40:45Z</time>
      </trkpt>
      <trkpt lat="41.658300160" lon="2.603076800">
        <ele>653.60</ele>
        <time>2014-04-06T09:40:46Z</time>
      </trkpt>
      <trkpt lat="41.658300160" lon="2.603058360">
        <ele>653.80</ele>
        <time>2014-04-06T09:40:47Z</time>
      </trkpt>
      <trkpt lat="41.658303340" lon="2.603038410">
        <ele>654.00</ele>
        <time>2014-04-06T09:40:48Z</time>
      </trkpt>
      <trkpt lat="41.658305020" lon="2.603018470">
        <ele>654.10</ele>
        <time>2014-04-06T09:40:49Z</time>
      </trkpt>
      <trkpt lat="41.658308370" lon="2.602998350">
        <ele>654.20</ele>
        <time>2014-04-06T09:40:50Z</time>
      </trkpt>
      <trkpt lat="41.658310050" lon="2.602976720">
        <ele>654.20</ele>
        <time>2014-04-06T09:40:51Z</time>
      </trkpt>
      <trkpt lat="41.658311720" lon="2.602955100">
        <ele>654.30</ele>
        <time>2014-04-06T09:40:52Z</time>
      </trkpt>
      <trkpt lat="41.658313400" lon="2.602936830">
        <ele>654.40</ele>
        <time>2014-04-06T09:40:53Z</time>
      </trkpt>
      <trkpt lat="41.658316750" lon="2.602916710">
        <ele>654.50</ele>
        <time>2014-04-06T09:40:54Z</time>
      </trkpt>
      <trkpt lat="41.658318430" lon="2.602895080">
        <ele>654.50</ele>
        <time>2014-04-06T09:40:55Z</time>
      </trkpt>
      <trkpt lat="41.658320110" lon="2.602873460">
        <ele>654.60</ele>
        <time>2014-04-06T09:40:56Z</time>
      </trkpt>
      <trkpt lat="41.658321780" lon="2.602853340">
        <ele>654.90</ele>
        <time>2014-04-06T09:40:57Z</time>
      </trkpt>
      <trkpt lat="41.658321780" lon="2.602831720">
        <ele>655.20</ele>
        <time>2014-04-06T09:40:58Z</time>
      </trkpt>
      <trkpt lat="41.658321780" lon="2.602811770">
        <ele>655.50</ele>
        <time>2014-04-06T09:40:59Z</time>
      </trkpt>
      <trkpt lat="41.658321780" lon="2.602790140">
        <ele>655.80</ele>
        <time>2014-04-06T09:41:00Z</time>
      </trkpt>
      <trkpt lat="41.658320110" lon="2.602768350">
        <ele>656.00</ele>
        <time>2014-04-06T09:41:01Z</time>
      </trkpt>
      <trkpt lat="41.658320110" lon="2.602743370">
        <ele>656.00</ele>
        <time>2014-04-06T09:41:02Z</time>
      </trkpt>
      <trkpt lat="41.658320110" lon="2.602720070">
        <ele>656.00</ele>
        <time>2014-04-06T09:41:03Z</time>
      </trkpt>
      <trkpt lat="41.658321780" lon="2.602696770">
        <ele>656.10</ele>
        <time>2014-04-06T09:41:04Z</time>
      </trkpt>
      <trkpt lat="41.658321780" lon="2.602675140">
        <ele>656.20</ele>
        <time>2014-04-06T09:41:05Z</time>
      </trkpt>
      <trkpt lat="41.658320110" lon="2.602653350">
        <ele>655.80</ele>
        <time>2014-04-06T09:41:06Z</time>
      </trkpt>
      <trkpt lat="41.658318430" lon="2.602630050">
        <ele>655.40</ele>
        <time>2014-04-06T09:41:07Z</time>
      </trkpt>
      <trkpt lat="41.658318430" lon="2.602606750">
        <ele>655.20</ele>
        <time>2014-04-06T09:41:08Z</time>
      </trkpt>
      <trkpt lat="41.658318430" lon="2.602581770">
        <ele>655.40</ele>
        <time>2014-04-06T09:41:09Z</time>
      </trkpt>
      <trkpt lat="41.658316750" lon="2.602555110">
        <ele>655.50</ele>
        <time>2014-04-06T09:41:10Z</time>
      </trkpt>
      <trkpt lat="41.658315080" lon="2.602530140">
        <ele>655.50</ele>
        <time>2014-04-06T09:41:11Z</time>
      </trkpt>
      <trkpt lat="41.658311720" lon="2.602503480">
        <ele>655.50</ele>
        <time>2014-04-06T09:41:12Z</time>
      </trkpt>
      <trkpt lat="41.658308370" lon="2.602480010">
        <ele>655.50</ele>
        <time>2014-04-06T09:41:13Z</time>
      </trkpt>
      <trkpt lat="41.658306690" lon="2.602455030">
        <ele>655.60</ele>
        <time>2014-04-06T09:41:14Z</time>
      </trkpt>
      <trkpt lat="41.658305020" lon="2.602428380">
        <ele>655.70</ele>
        <time>2014-04-06T09:41:15Z</time>
      </trkpt>
      <trkpt lat="41.658301670" lon="2.602401720">
        <ele>655.70</ele>
        <time>2014-04-06T09:41:16Z</time>
      </trkpt>
      <trkpt lat="41.658296800" lon="2.602373390">
        <ele>655.70</ele>
        <time>2014-04-06T09:41:17Z</time>
      </trkpt>
      <trkpt lat="41.658293450" lon="2.602346740">
        <ele>655.30</ele>
        <time>2014-04-06T09:41:18Z</time>
      </trkpt>
      <trkpt lat="41.658288420" lon="2.602318410">
        <ele>655.00</ele>
        <time>2014-04-06T09:41:19Z</time>
      </trkpt>
      <trkpt lat="41.658283390" lon="2.602288400">
        <ele>654.70</ele>
        <time>2014-04-06T09:41:20Z</time>
      </trkpt>
      <trkpt lat="41.658278360" lon="2.602260070">
        <ele>655.10</ele>
        <time>2014-04-06T09:41:21Z</time>
      </trkpt>
      <trkpt lat="41.658273330" lon="2.602233420">
        <ele>655.40</ele>
        <time>2014-04-06T09:41:22Z</time>
      </trkpt>
      <trkpt lat="41.658270150" lon="2.602205090">
        <ele>655.50</ele>
        <time>2014-04-06T09:41:23Z</time>
      </trkpt>
      <trkpt lat="41.658265120" lon="2.602176750">
        <ele>655.60</ele>
        <time>2014-04-06T09:41:24Z</time>
      </trkpt>
      <trkpt lat="41.658258410" lon="2.602150100">
        <ele>655.50</ele>
        <time>2014-04-06T09:41:25Z</time>
      </trkpt>
      <trkpt lat="41.658253390" lon="2.602120090">
        <ele>655.40</ele>
        <time>2014-04-06T09:41:26Z</time>
      </trkpt>
      <trkpt lat="41.658246680" lon="2.602093440">
        <ele>655.40</ele>
        <time>2014-04-06T09:41:27Z</time>
      </trkpt>
      <trkpt lat="41.658236790" lon="2.602060080">
        <ele>655.60</ele>
        <time>2014-04-06T09:41:28Z</time>
      </trkpt>
      <trkpt lat="41.658226730" lon="2.602028390">
        <ele>655.80</ele>
        <time>2014-04-06T09:41:29Z</time>
      </trkpt>
      <trkpt lat="41.658216670" lon="2.601996710">
        <ele>655.70</ele>
        <time>2014-04-06T09:41:30Z</time>
      </trkpt>
      <trkpt lat="41.658213490" lon="2.601966700">
        <ele>655.70</ele>
        <time>2014-04-06T09:41:31Z</time>
      </trkpt>
      <trkpt lat="41.658206780" lon="2.601933340">
        <ele>656.10</ele>
        <time>2014-04-06T09:41:32Z</time>
      </trkpt>
      <trkpt lat="41.658200080" lon="2.601896800">
        <ele>656.40</ele>
        <time>2014-04-06T09:41:33Z</time>
      </trkpt>
      <trkpt lat="41.658190020" lon="2.601858410">
        <ele>656.60</ele>
        <time>2014-04-06T09:41:34Z</time>
      </trkpt>
      <trkpt lat="41.658180130" lon="2.601820020">
        <ele>656.30</ele>
        <time>2014-04-06T09:41:35Z</time>
      </trkpt>
      <trkpt lat="41.658170070" lon="2.601778450">
        <ele>656.00</ele>
        <time>2014-04-06T09:41:36Z</time>
      </trkpt>
      <trkpt lat="41.658158330" lon="2.601731680">
        <ele>655.70</ele>
        <time>2014-04-06T09:41:37Z</time>
      </trkpt>
      <trkpt lat="41.658148440" lon="2.601690100">
        <ele>655.50</ele>
        <time>2014-04-06T09:41:38Z</time>
      </trkpt>
      <trkpt lat="41.658138390" lon="2.601648360">
        <ele>655.40</ele>
        <time>2014-04-06T09:41:39Z</time>
      </trkpt>
      <trkpt lat="41.658128490" lon="2.601608460">
        <ele>655.00</ele>
        <time>2014-04-06T09:41:40Z</time>
      </trkpt>
      <trkpt lat="41.658118440" lon="2.601561690">
        <ele>654.80</ele>
        <time>2014-04-06T09:41:41Z</time>
      </trkpt>
      <trkpt lat="41.658106700" lon="2.601515090">
        <ele>654.50</ele>
        <time>2014-04-06T09:41:42Z</time>
      </trkpt>
      <trkpt lat="41.658098490" lon="2.601468480">
        <ele>654.20</ele>
        <time>2014-04-06T09:41:43Z</time>
      </trkpt>
      <trkpt lat="41.658090110" lon="2.601418360">
        <ele>654.00</ele>
        <time>2014-04-06T09:41:44Z</time>
      </trkpt>
      <trkpt lat="41.658090110" lon="2.601373430">
        <ele>653.80</ele>
        <time>2014-04-06T09:41:45Z</time>
      </trkpt>
      <trkpt lat="41.658085080" lon="2.601323480">
        <ele>653.70</ele>
        <time>2014-04-06T09:41:46Z</time>
      </trkpt>
      <trkpt lat="41.658080050" lon="2.601273350">
        <ele>653.20</ele>
        <time>2014-04-06T09:41:47Z</time>
      </trkpt>
      <trkpt lat="41.658076690" lon="2.601221720">
        <ele>652.80</ele>
        <time>2014-04-06T09:41:48Z</time>
      </trkpt>
      <trkpt lat="41.658073340" lon="2.601175120">
        <ele>652.70</ele>
        <time>2014-04-06T09:41:49Z</time>
      </trkpt>
      <trkpt lat="41.658070160" lon="2.601131700">
        <ele>652.60</ele>
        <time>2014-04-06T09:41:50Z</time>
      </trkpt>
      <trkpt lat="41.658066800" lon="2.601086770">
        <ele>652.90</ele>
        <time>2014-04-06T09:41:51Z</time>
      </trkpt>
      <trkpt lat="41.658068480" lon="2.601041680">
        <ele>653.10</ele>
        <time>2014-04-06T09:41:52Z</time>
      </trkpt>
      <trkpt lat="41.658066800" lon="2.600996750">
        <ele>653.30</ele>
        <time>2014-04-06T09:41:53Z</time>
      </trkpt>
      <trkpt lat="41.658065130" lon="2.600948470">
        <ele>652.80</ele>
        <time>2014-04-06T09:41:54Z</time>
      </trkpt>
      <trkpt lat="41.658063450" lon="2.600901700">
        <ele>652.40</ele>
        <time>2014-04-06T09:41:55Z</time>
      </trkpt>
      <trkpt lat="41.658060100" lon="2.600858450">
        <ele>652.50</ele>
        <time>2014-04-06T09:41:56Z</time>
      </trkpt>
      <trkpt lat="41.658058420" lon="2.600816710">
        <ele>652.50</ele>
        <time>2014-04-06T09:41:57Z</time>
      </trkpt>
      <trkpt lat="41.658056750" lon="2.600776810">
        <ele>652.60</ele>
        <time>2014-04-06T09:41:58Z</time>
      </trkpt>
      <trkpt lat="41.658058420" lon="2.600736740">
        <ele>652.20</ele>
        <time>2014-04-06T09:41:59Z</time>
      </trkpt>
      <trkpt lat="41.658058420" lon="2.600693490">
        <ele>652.00</ele>
        <time>2014-04-06T09:42:00Z</time>
      </trkpt>
      <trkpt lat="41.658056750" lon="2.600650070">
        <ele>652.10</ele>
        <time>2014-04-06T09:42:01Z</time>
      </trkpt>
      <trkpt lat="41.658055070" lon="2.600605150">
        <ele>652.10</ele>
        <time>2014-04-06T09:42:02Z</time>
      </trkpt>
      <trkpt lat="41.658050040" lon="2.600560050">
        <ele>651.90</ele>
        <time>2014-04-06T09:42:03Z</time>
      </trkpt>
      <trkpt lat="41.658043330" lon="2.600511770">
        <ele>651.70</ele>
        <time>2014-04-06T09:42:04Z</time>
      </trkpt>
      <trkpt lat="41.658033440" lon="2.600465000">
        <ele>651.60</ele>
        <time>2014-04-06T09:42:05Z</time>
      </trkpt>
      <trkpt lat="41.658025060" lon="2.600415050">
        <ele>651.80</ele>
        <time>2014-04-06T09:42:06Z</time>
      </trkpt>
      <trkpt lat="41.658020030" lon="2.600360060">
        <ele>651.90</ele>
        <time>2014-04-06T09:42:07Z</time>
      </trkpt>
      <trkpt lat="41.658011820" lon="2.600301720">
        <ele>651.70</ele>
        <time>2014-04-06T09:42:08Z</time>
      </trkpt>
      <trkpt lat="41.658003440" lon="2.600245060">
        <ele>651.40</ele>
        <time>2014-04-06T09:42:09Z</time>
      </trkpt>
      <trkpt lat="41.657998410" lon="2.600191750">
        <ele>651.40</ele>
        <time>2014-04-06T09:42:10Z</time>
      </trkpt>
      <trkpt lat="41.657998410" lon="2.600141800">
        <ele>651.30</ele>
        <time>2014-04-06T09:42:11Z</time>
      </trkpt>
      <trkpt lat="41.658000080" lon="2.600098380">
        <ele>651.30</ele>
        <time>2014-04-06T09:42:12Z</time>
      </trkpt>
      <trkpt lat="41.658000080" lon="2.600056800">
        <ele>651.30</ele>
        <time>2014-04-06T09:42:13Z</time>
      </trkpt>
      <trkpt lat="41.658006790" lon="2.600021770">
        <ele>651.20</ele>
        <time>2014-04-06T09:42:14Z</time>
      </trkpt>
      <trkpt lat="41.658010140" lon="2.599988410">
        <ele>651.30</ele>
        <time>2014-04-06T09:42:15Z</time>
      </trkpt>
      <trkpt lat="41.658013500" lon="2.599956720">
        <ele>651.30</ele>
        <time>2014-04-06T09:42:16Z</time>
      </trkpt>
      <trkpt lat="41.658015000" lon="2.599921690">
        <ele>651.30</ele>
        <time>2014-04-06T09:42:17Z</time>
      </trkpt>
      <trkpt lat="41.658016680" lon="2.599890000">
        <ele>651.10</ele>
        <time>2014-04-06T09:42:18Z</time>
      </trkpt>
      <trkpt lat="41.658018360" lon="2.599856810">
        <ele>651.00</ele>
        <time>2014-04-06T09:42:19Z</time>
      </trkpt>
      <trkpt lat="41.658021710" lon="2.599826800">
        <ele>651.00</ele>
        <time>2014-04-06T09:42:20Z</time>
      </trkpt>
      <trkpt lat="41.658025060" lon="2.599798470">
        <ele>651.00</ele>
        <time>2014-04-06T09:42:21Z</time>
      </trkpt>
      <trkpt lat="41.658028420" lon="2.599768470">
        <ele>650.90</ele>
        <time>2014-04-06T09:42:22Z</time>
      </trkpt>
      <trkpt lat="41.658033440" lon="2.599738460">
        <ele>650.80</ele>
        <time>2014-04-06T09:42:23Z</time>
      </trkpt>
      <trkpt lat="41.658036800" lon="2.599708450">
        <ele>650.70</ele>
        <time>2014-04-06T09:42:24Z</time>
      </trkpt>
      <trkpt lat="41.658038470" lon="2.599678440">
        <ele>651.10</ele>
        <time>2014-04-06T09:42:25Z</time>
      </trkpt>
      <trkpt lat="41.658040150" lon="2.599646760">
        <ele>651.40</ele>
        <time>2014-04-06T09:42:26Z</time>
      </trkpt>
      <trkpt lat="41.658041830" lon="2.599615080">
        <ele>651.60</ele>
        <time>2014-04-06T09:42:27Z</time>
      </trkpt>
      <trkpt lat="41.658043330" lon="2.599583390">
        <ele>651.80</ele>
        <time>2014-04-06T09:42:28Z</time>
      </trkpt>
      <trkpt lat="41.658045010" lon="2.599550030">
        <ele>651.90</ele>
        <time>2014-04-06T09:42:29Z</time>
      </trkpt>
      <trkpt lat="41.658046690" lon="2.599515000">
        <ele>651.80</ele>
        <time>2014-04-06T09:42:30Z</time>
      </trkpt>
      <trkpt lat="41.658048360" lon="2.599475100">
        <ele>651.70</ele>
        <time>2014-04-06T09:42:31Z</time>
      </trkpt>
      <trkpt lat="41.658050040" lon="2.599433360">
        <ele>652.00</ele>
        <time>2014-04-06T09:42:32Z</time>
      </trkpt>
      <trkpt lat="41.658050040" lon="2.599391780">
        <ele>652.20</ele>
        <time>2014-04-06T09:42:33Z</time>
      </trkpt>
      <trkpt lat="41.658050040" lon="2.599353390">
        <ele>652.20</ele>
        <time>2014-04-06T09:42:34Z</time>
      </trkpt>
      <trkpt lat="41.658053390" lon="2.599316680">
        <ele>652.20</ele>
        <time>2014-04-06T09:42:35Z</time>
      </trkpt>
      <trkpt lat="41.658058420" lon="2.599278460">
        <ele>652.20</ele>
        <time>2014-04-06T09:42:36Z</time>
      </trkpt>
      <trkpt lat="41.658058420" lon="2.599236720">
        <ele>652.10</ele>
        <time>2014-04-06T09:42:37Z</time>
      </trkpt>
      <trkpt lat="41.658061780" lon="2.599196820">
        <ele>652.10</ele>
        <time>2014-04-06T09:42:38Z</time>
      </trkpt>
      <trkpt lat="41.658060100" lon="2.599153400">
        <ele>651.90</ele>
        <time>2014-04-06T09:42:39Z</time>
      </trkpt>
      <trkpt lat="41.658061780" lon="2.599110150">
        <ele>651.70</ele>
        <time>2014-04-06T09:42:40Z</time>
      </trkpt>
      <trkpt lat="41.658063450" lon="2.599063380">
        <ele>651.90</ele>
        <time>2014-04-06T09:42:41Z</time>
      </trkpt>
      <trkpt lat="41.658063450" lon="2.599015100">
        <ele>652.10</ele>
        <time>2014-04-06T09:42:42Z</time>
      </trkpt>
      <trkpt lat="41.658065130" lon="2.598965140">
        <ele>652.20</ele>
        <time>2014-04-06T09:42:43Z</time>
      </trkpt>
      <trkpt lat="41.658063450" lon="2.598913340">
        <ele>651.40</ele>
        <time>2014-04-06T09:42:44Z</time>
      </trkpt>
      <trkpt lat="41.658063450" lon="2.598863390">
        <ele>650.70</ele>
        <time>2014-04-06T09:42:45Z</time>
      </trkpt>
      <trkpt lat="41.658065130" lon="2.598816780">
        <ele>650.60</ele>
        <time>2014-04-06T09:42:46Z</time>
      </trkpt>
      <trkpt lat="41.658065130" lon="2.598773370">
        <ele>650.50</ele>
        <time>2014-04-06T09:42:47Z</time>
      </trkpt>
      <trkpt lat="41.658065130" lon="2.598730120">
        <ele>650.60</ele>
        <time>2014-04-06T09:42:48Z</time>
      </trkpt>
      <trkpt lat="41.658063450" lon="2.598691730">
        <ele>650.60</ele>
        <time>2014-04-06T09:42:49Z</time>
      </trkpt>
      <trkpt lat="41.658063450" lon="2.598650150">
        <ele>650.60</ele>
        <time>2014-04-06T09:42:50Z</time>
      </trkpt>
      <trkpt lat="41.658060100" lon="2.598611760">
        <ele>650.50</ele>
        <time>2014-04-06T09:42:51Z</time>
      </trkpt>
      <trkpt lat="41.658060100" lon="2.598575050">
        <ele>650.50</ele>
        <time>2014-04-06T09:42:52Z</time>
      </trkpt>
      <trkpt lat="41.658056750" lon="2.598540010">
        <ele>650.40</ele>
        <time>2014-04-06T09:42:53Z</time>
      </trkpt>
      <trkpt lat="41.658051720" lon="2.598508330">
        <ele>650.40</ele>
        <time>2014-04-06T09:42:54Z</time>
      </trkpt>
      <trkpt lat="41.658051720" lon="2.598480000">
        <ele>650.30</ele>
        <time>2014-04-06T09:42:55Z</time>
      </trkpt>
      <trkpt lat="41.658053390" lon="2.598451670">
        <ele>650.30</ele>
        <time>2014-04-06T09:42:56Z</time>
      </trkpt>
      <trkpt lat="41.658056750" lon="2.598423340">
        <ele>650.40</ele>
        <time>2014-04-06T09:42:57Z</time>
      </trkpt>
      <trkpt lat="41.658060100" lon="2.598396680">
        <ele>650.50</ele>
        <time>2014-04-06T09:42:58Z</time>
      </trkpt>
      <trkpt lat="41.658058420" lon="2.598365000">
        <ele>650.70</ele>
        <time>2014-04-06T09:42:59Z</time>
      </trkpt>
      <trkpt lat="41.658058420" lon="2.598335160">
        <ele>650.60</ele>
        <time>2014-04-06T09:43:00Z</time>
      </trkpt>
      <trkpt lat="41.658061780" lon="2.598300120">
        <ele>650.50</ele>
        <time>2014-04-06T09:43:01Z</time>
      </trkpt>
      <trkpt lat="41.658065130" lon="2.598270120">
        <ele>650.50</ele>
        <time>2014-04-06T09:43:02Z</time>
      </trkpt>
      <trkpt lat="41.658070160" lon="2.598240110">
        <ele>650.90</ele>
        <time>2014-04-06T09:43:03Z</time>
      </trkpt>
      <trkpt lat="41.658075020" lon="2.598208430">
        <ele>651.20</ele>
        <time>2014-04-06T09:43:04Z</time>
      </trkpt>
      <trkpt lat="41.658078370" lon="2.598173390">
        <ele>651.00</ele>
        <time>2014-04-06T09:43:05Z</time>
      </trkpt>
      <trkpt lat="41.658085080" lon="2.598136680">
        <ele>650.80</ele>
        <time>2014-04-06T09:43:06Z</time>
      </trkpt>
      <trkpt lat="41.658096810" lon="2.598103480">
        <ele>650.70</ele>
        <time>2014-04-06T09:43:07Z</time>
      </trkpt>
      <trkpt lat="41.658108380" lon="2.598071800">
        <ele>650.60</ele>
        <time>2014-04-06T09:43:08Z</time>
      </trkpt>
      <trkpt lat="41.658121790" lon="2.598045150">
        <ele>650.50</ele>
        <time>2014-04-06T09:43:09Z</time>
      </trkpt>
      <trkpt lat="41.658136710" lon="2.598021680">
        <ele>650.30</ele>
        <time>2014-04-06T09:43:10Z</time>
      </trkpt>
      <trkpt lat="41.658153470" lon="2.598000050">
        <ele>650.20</ele>
        <time>2014-04-06T09:43:11Z</time>
      </trkpt>
      <trkpt lat="41.658168390" lon="2.597978430">
        <ele>650.30</ele>
        <time>2014-04-06T09:43:12Z</time>
      </trkpt>
      <trkpt lat="41.658186670" lon="2.597958480">
        <ele>650.40</ele>
        <time>2014-04-06T09:43:13Z</time>
      </trkpt>
      <trkpt lat="41.658203430" lon="2.597938360">
        <ele>650.40</ele>
        <time>2014-04-06T09:43:14Z</time>
      </trkpt>
      <trkpt lat="41.658218350" lon="2.597916740">
        <ele>650.30</ele>
        <time>2014-04-06T09:43:15Z</time>
      </trkpt>
      <trkpt lat="41.658235110" lon="2.597895110">
        <ele>650.30</ele>
        <time>2014-04-06T09:43:16Z</time>
      </trkpt>
      <trkpt lat="41.658250030" lon="2.597871810">
        <ele>650.70</ele>
        <time>2014-04-06T09:43:17Z</time>
      </trkpt>
      <trkpt lat="41.658263440" lon="2.597848340">
        <ele>651.00</ele>
        <time>2014-04-06T09:43:18Z</time>
      </trkpt>
      <trkpt lat="41.658276690" lon="2.597823360">
        <ele>651.40</ele>
        <time>2014-04-06T09:43:19Z</time>
      </trkpt>
      <trkpt lat="41.658290100" lon="2.597798380">
        <ele>651.70</ele>
        <time>2014-04-06T09:43:20Z</time>
      </trkpt>
      <trkpt lat="41.658303340" lon="2.597773410">
        <ele>651.90</ele>
        <time>2014-04-06T09:43:21Z</time>
      </trkpt>
      <trkpt lat="41.658318430" lon="2.597748430">
        <ele>651.50</ele>
        <time>2014-04-06T09:43:22Z</time>
      </trkpt>
      <trkpt lat="41.658333350" lon="2.597721770">
        <ele>651.20</ele>
        <time>2014-04-06T09:43:23Z</time>
      </trkpt>
      <trkpt lat="41.658350110" lon="2.597700150">
        <ele>651.50</ele>
        <time>2014-04-06T09:43:24Z</time>
      </trkpt>
      <trkpt lat="41.658363360" lon="2.597673490">
        <ele>651.80</ele>
        <time>2014-04-06T09:43:25Z</time>
      </trkpt>
      <trkpt lat="41.658378440" lon="2.597648350">
        <ele>651.50</ele>
        <time>2014-04-06T09:43:26Z</time>
      </trkpt>
      <trkpt lat="41.658393360" lon="2.597623370">
        <ele>651.30</ele>
        <time>2014-04-06T09:43:27Z</time>
      </trkpt>
      <trkpt lat="41.658408450" lon="2.597596710">
        <ele>651.20</ele>
        <time>2014-04-06T09:43:28Z</time>
      </trkpt>
      <trkpt lat="41.658421690" lon="2.597570060">
        <ele>651.30</ele>
        <time>2014-04-06T09:43:29Z</time>
      </trkpt>
      <trkpt lat="41.658435110" lon="2.597543410">
        <ele>651.50</ele>
        <time>2014-04-06T09:43:30Z</time>
      </trkpt>
      <trkpt lat="41.658450020" lon="2.597521780">
        <ele>651.70</ele>
        <time>2014-04-06T09:43:31Z</time>
      </trkpt>
      <trkpt lat="41.658461760" lon="2.597496800">
        <ele>651.90</ele>
        <time>2014-04-06T09:43:32Z</time>
      </trkpt>
      <trkpt lat="41.658475000" lon="2.597473330">
        <ele>652.10</ele>
        <time>2014-04-06T09:43:33Z</time>
      </trkpt>
      <trkpt lat="41.658486740" lon="2.597448360">
        <ele>652.40</ele>
        <time>2014-04-06T09:43:34Z</time>
      </trkpt>
      <trkpt lat="41.658500150" lon="2.597423380">
        <ele>652.60</ele>
        <time>2014-04-06T09:43:35Z</time>
      </trkpt>
      <trkpt lat="41.658510040" lon="2.597396720">
        <ele>652.60</ele>
        <time>2014-04-06T09:43:36Z</time>
      </trkpt>
      <trkpt lat="41.658521770" lon="2.597370070">
        <ele>652.60</ele>
        <time>2014-04-06T09:43:37Z</time>
      </trkpt>
      <trkpt lat="41.658535020" lon="2.597345090">
        <ele>653.00</ele>
        <time>2014-04-06T09:43:38Z</time>
      </trkpt>
      <trkpt lat="41.658548430" lon="2.597320110">
        <ele>653.30</ele>
        <time>2014-04-06T09:43:39Z</time>
      </trkpt>
      <trkpt lat="41.658560000" lon="2.597295130">
        <ele>653.60</ele>
        <time>2014-04-06T09:43:40Z</time>
      </trkpt>
      <trkpt lat="41.658575080" lon="2.597271660">
        <ele>653.30</ele>
        <time>2014-04-06T09:43:41Z</time>
      </trkpt>
      <trkpt lat="41.658586820" lon="2.597248360">
        <ele>653.00</ele>
        <time>2014-04-06T09:43:42Z</time>
      </trkpt>
      <trkpt lat="41.658600060" lon="2.597225060">
        <ele>653.10</ele>
        <time>2014-04-06T09:43:43Z</time>
      </trkpt>
      <trkpt lat="41.658615150" lon="2.597200080">
        <ele>653.20</ele>
        <time>2014-04-06T09:43:44Z</time>
      </trkpt>
      <trkpt lat="41.658626720" lon="2.597178460">
        <ele>653.20</ele>
        <time>2014-04-06T09:43:45Z</time>
      </trkpt>
      <trkpt lat="41.658635100" lon="2.597156660">
        <ele>653.20</ele>
        <time>2014-04-06T09:43:46Z</time>
      </trkpt>
      <trkpt lat="41.658650020" lon="2.597133360">
        <ele>653.20</ele>
        <time>2014-04-06T09:43:47Z</time>
      </trkpt>
      <trkpt lat="41.658661750" lon="2.597115090">
        <ele>653.40</ele>
        <time>2014-04-06T09:43:48Z</time>
      </trkpt>
      <trkpt lat="41.658675000" lon="2.597096820">
        <ele>653.60</ele>
        <time>2014-04-06T09:43:49Z</time>
      </trkpt>
      <trkpt lat="41.658688410" lon="2.597081730">
        <ele>653.70</ele>
        <time>2014-04-06T09:43:50Z</time>
      </trkpt>
      <trkpt lat="41.658698460" lon="2.597068490">
        <ele>653.80</ele>
        <time>2014-04-06T09:43:51Z</time>
      </trkpt>
      <trkpt lat="41.658706680" lon="2.597055080">
        <ele>653.90</ele>
        <time>2014-04-06T09:43:52Z</time>
      </trkpt>
      <trkpt lat="41.658720090" lon="2.597048370">
        <ele>654.30</ele>
        <time>2014-04-06T09:43:53Z</time>
      </trkpt>
      <trkpt lat="41.658733330" lon="2.597041670">
        <ele>654.70</ele>
        <time>2014-04-06T09:43:54Z</time>
      </trkpt>
      <trkpt lat="41.658748420" lon="2.597031770">
        <ele>654.50</ele>
        <time>2014-04-06T09:43:55Z</time>
      </trkpt>
      <trkpt lat="41.658760160" lon="2.597025070">
        <ele>654.30</ele>
        <time>2014-04-06T09:43:56Z</time>
      </trkpt>
      <trkpt lat="41.658776750" lon="2.597021720">
        <ele>654.30</ele>
        <time>2014-04-06T09:43:57Z</time>
      </trkpt>
      <trkpt lat="41.658796700" lon="2.597016690">
        <ele>654.30</ele>
        <time>2014-04-06T09:43:58Z</time>
      </trkpt>
      <trkpt lat="41.658813460" lon="2.597013330">
        <ele>654.30</ele>
        <time>2014-04-06T09:43:59Z</time>
      </trkpt>
      <trkpt lat="41.658828380" lon="2.597011830">
        <ele>654.30</ele>
        <time>2014-04-06T09:44:00Z</time>
      </trkpt>
      <trkpt lat="41.658850010" lon="2.597006800">
        <ele>654.30</ele>
        <time>2014-04-06T09:44:01Z</time>
      </trkpt>
      <trkpt lat="41.658871800" lon="2.597000090">
        <ele>654.50</ele>
        <time>2014-04-06T09:44:02Z</time>
      </trkpt>
      <trkpt lat="41.658895100" lon="2.596993390">
        <ele>654.70</ele>
        <time>2014-04-06T09:44:03Z</time>
      </trkpt>
      <trkpt lat="41.658920080" lon="2.596983490">
        <ele>654.80</ele>
        <time>2014-04-06T09:44:04Z</time>
      </trkpt>
      <trkpt lat="41.658956790" lon="2.596963380">
        <ele>654.80</ele>
        <time>2014-04-06T09:44:05Z</time>
      </trkpt>
      <trkpt lat="41.658996690" lon="2.596948460">
        <ele>654.90</ele>
        <time>2014-04-06T09:44:06Z</time>
      </trkpt>
      <trkpt lat="41.659036760" lon="2.596930020">
        <ele>654.70</ele>
        <time>2014-04-06T09:44:07Z</time>
      </trkpt>
      <trkpt lat="41.659073470" lon="2.596913420">
        <ele>654.60</ele>
        <time>2014-04-06T09:44:08Z</time>
      </trkpt>
      <trkpt lat="41.659111690" lon="2.596893470">
        <ele>654.40</ele>
        <time>2014-04-06T09:44:09Z</time>
      </trkpt>
      <trkpt lat="41.659146730" lon="2.596870000">
        <ele>654.30</ele>
        <time>2014-04-06T09:44:10Z</time>
      </trkpt>
      <trkpt lat="41.659180090" lon="2.596843350">
        <ele>654.20</ele>
        <time>2014-04-06T09:44:11Z</time>
      </trkpt>
      <trkpt lat="41.659216800" lon="2.596811670">
        <ele>654.20</ele>
        <time>2014-04-06T09:44:12Z</time>
      </trkpt>
      <trkpt lat="41.659255020" lon="2.596776800">
        <ele>654.20</ele>
        <time>2014-04-06T09:44:13Z</time>
      </trkpt>
      <trkpt lat="41.659286710" lon="2.596738410">
        <ele>653.90</ele>
        <time>2014-04-06T09:44:14Z</time>
      </trkpt>
      <trkpt lat="41.659318390" lon="2.596695160">
        <ele>653.70</ele>
        <time>2014-04-06T09:44:15Z</time>
      </trkpt>
      <trkpt lat="41.659350070" lon="2.596651740">
        <ele>653.70</ele>
        <time>2014-04-06T09:44:16Z</time>
      </trkpt>
      <trkpt lat="41.659381760" lon="2.596606810">
        <ele>653.80</ele>
        <time>2014-04-06T09:44:17Z</time>
      </trkpt>
      <trkpt lat="41.659408410" lon="2.596565070">
        <ele>653.90</ele>
        <time>2014-04-06T09:44:18Z</time>
      </trkpt>
      <trkpt lat="41.659436740" lon="2.596528360">
        <ele>653.50</ele>
        <time>2014-04-06T09:44:19Z</time>
      </trkpt>
      <trkpt lat="41.659463400" lon="2.596495000">
        <ele>653.30</ele>
        <time>2014-04-06T09:44:20Z</time>
      </trkpt>
      <trkpt lat="41.659480160" lon="2.596463480">
        <ele>653.00</ele>
        <time>2014-04-06T09:44:21Z</time>
      </trkpt>
      <trkpt lat="41.659500110" lon="2.596431800">
        <ele>652.70</ele>
        <time>2014-04-06T09:44:22Z</time>
      </trkpt>
      <trkpt lat="41.659518380" lon="2.596401790">
        <ele>652.90</ele>
        <time>2014-04-06T09:44:23Z</time>
      </trkpt>
      <trkpt lat="41.659536820" lon="2.596368430">
        <ele>653.00</ele>
        <time>2014-04-06T09:44:24Z</time>
      </trkpt>
      <trkpt lat="41.659556770" lon="2.596333390">
        <ele>653.10</ele>
        <time>2014-04-06T09:44:25Z</time>
      </trkpt>
      <trkpt lat="41.659576720" lon="2.596301710">
        <ele>653.00</ele>
        <time>2014-04-06T09:44:26Z</time>
      </trkpt>
      <trkpt lat="41.659588450" lon="2.596265000">
        <ele>653.00</ele>
        <time>2014-04-06T09:44:27Z</time>
      </trkpt>
      <trkpt lat="41.659600020" lon="2.596230130">
        <ele>652.90</ele>
        <time>2014-04-06T09:44:28Z</time>
      </trkpt>
      <trkpt lat="41.659613430" lon="2.596195090">
        <ele>652.90</ele>
        <time>2014-04-06T09:44:29Z</time>
      </trkpt>
      <trkpt lat="41.659626680" lon="2.596161730">
        <ele>652.90</ele>
        <time>2014-04-06T09:44:30Z</time>
      </trkpt>
      <trkpt lat="41.659638410" lon="2.596126700">
        <ele>652.90</ele>
        <time>2014-04-06T09:44:31Z</time>
      </trkpt>
      <trkpt lat="41.659648470" lon="2.596093340">
        <ele>652.90</ele>
        <time>2014-04-06T09:44:32Z</time>
      </trkpt>
      <trkpt lat="41.659661710" lon="2.596058470">
        <ele>652.90</ele>
        <time>2014-04-06T09:44:33Z</time>
      </trkpt>
      <trkpt lat="41.659675120" lon="2.596023430">
        <ele>652.90</ele>
        <time>2014-04-06T09:44:34Z</time>
      </trkpt>
      <trkpt lat="41.659691720" lon="2.595986720">
        <ele>652.80</ele>
        <time>2014-04-06T09:44:35Z</time>
      </trkpt>
      <trkpt lat="41.659711670" lon="2.595946820">
        <ele>652.80</ele>
        <time>2014-04-06T09:44:36Z</time>
      </trkpt>
      <trkpt lat="41.659735140" lon="2.595903400">
        <ele>652.70</ele>
        <time>2014-04-06T09:44:37Z</time>
      </trkpt>
      <trkpt lat="41.659763470" lon="2.595860150">
        <ele>652.60</ele>
        <time>2014-04-06T09:44:38Z</time>
      </trkpt>
      <trkpt lat="41.659795150" lon="2.595821760">
        <ele>652.50</ele>
        <time>2014-04-06T09:44:39Z</time>
      </trkpt>
      <trkpt lat="41.659826670" lon="2.595778340">
        <ele>652.20</ele>
        <time>2014-04-06T09:44:40Z</time>
      </trkpt>
      <trkpt lat="41.659861700" lon="2.595738450">
        <ele>652.00</ele>
        <time>2014-04-06T09:44:41Z</time>
      </trkpt>
      <trkpt lat="41.659900090" lon="2.595701730">
        <ele>652.00</ele>
        <time>2014-04-06T09:44:42Z</time>
      </trkpt>
      <trkpt lat="41.659940160" lon="2.595661670">
        <ele>652.00</ele>
        <time>2014-04-06T09:44:43Z</time>
      </trkpt>
      <trkpt lat="41.659978380" lon="2.595618420">
        <ele>652.00</ele>
        <time>2014-04-06T09:44:44Z</time>
      </trkpt>
      <trkpt lat="41.660016770" lon="2.595570140">
        <ele>651.20</ele>
        <time>2014-04-06T09:44:45Z</time>
      </trkpt>
      <trkpt lat="41.660053480" lon="2.595515150">
        <ele>650.50</ele>
        <time>2014-04-06T09:44:46Z</time>
      </trkpt>
      <trkpt lat="41.660091700" lon="2.595453460">
        <ele>650.40</ele>
        <time>2014-04-06T09:44:47Z</time>
      </trkpt>
      <trkpt lat="41.660128420" lon="2.595386740">
        <ele>650.30</ele>
        <time>2014-04-06T09:44:48Z</time>
      </trkpt>
      <trkpt lat="41.660163450" lon="2.595315160">
        <ele>649.70</ele>
        <time>2014-04-06T09:44:49Z</time>
      </trkpt>
      <trkpt lat="41.660203350" lon="2.595235030">
        <ele>649.30</ele>
        <time>2014-04-06T09:44:50Z</time>
      </trkpt>
      <trkpt lat="41.660245090" lon="2.595148360">
        <ele>649.00</ele>
        <time>2014-04-06T09:44:51Z</time>
      </trkpt>
      <trkpt lat="41.660286670" lon="2.595060020">
        <ele>648.50</ele>
        <time>2014-04-06T09:44:52Z</time>
      </trkpt>
      <trkpt lat="41.660328410" lon="2.594973350">
        <ele>648.10</ele>
        <time>2014-04-06T09:44:53Z</time>
      </trkpt>
      <trkpt lat="41.660370150" lon="2.594885000">
        <ele>647.20</ele>
        <time>2014-04-06T09:44:54Z</time>
      </trkpt>
      <trkpt lat="41.660413400" lon="2.594793470">
        <ele>646.50</ele>
        <time>2014-04-06T09:44:55Z</time>
      </trkpt>
      <trkpt lat="41.660456820" lon="2.594703450">
        <ele>646.00</ele>
        <time>2014-04-06T09:44:56Z</time>
      </trkpt>
      <trkpt lat="41.660498390" lon="2.594616780">
        <ele>645.50</ele>
        <time>2014-04-06T09:44:57Z</time>
      </trkpt>
      <trkpt lat="41.660538460" lon="2.594526760">
        <ele>645.20</ele>
        <time>2014-04-06T09:44:58Z</time>
      </trkpt>
      <trkpt lat="41.660575000" lon="2.594435060">
        <ele>644.60</ele>
        <time>2014-04-06T09:44:59Z</time>
      </trkpt>
      <trkpt lat="41.660611720" lon="2.594343360">
        <ele>644.10</ele>
        <time>2014-04-06T09:45:00Z</time>
      </trkpt>
      <trkpt lat="41.660638370" lon="2.594245130">
        <ele>643.00</ele>
        <time>2014-04-06T09:45:01Z</time>
      </trkpt>
      <trkpt lat="41.660658490" lon="2.594150080">
        <ele>642.20</ele>
        <time>2014-04-06T09:45:02Z</time>
      </trkpt>
      <trkpt lat="41.660678440" lon="2.594051670">
        <ele>641.50</ele>
        <time>2014-04-06T09:45:03Z</time>
      </trkpt>
      <trkpt lat="41.660690000" lon="2.593950080">
        <ele>640.90</ele>
        <time>2014-04-06T09:45:04Z</time>
      </trkpt>
      <trkpt lat="41.660701740" lon="2.593848500">
        <ele>640.40</ele>
        <time>2014-04-06T09:45:05Z</time>
      </trkpt>
      <trkpt lat="41.660708440" lon="2.593748420">
        <ele>639.50</ele>
        <time>2014-04-06T09:45:06Z</time>
      </trkpt>
      <trkpt lat="41.660718340" lon="2.593660070">
        <ele>638.80</ele>
        <time>2014-04-06T09:45:07Z</time>
      </trkpt>
      <trkpt lat="41.660723360" lon="2.593578430">
        <ele>637.90</ele>
        <time>2014-04-06T09:45:08Z</time>
      </trkpt>
      <trkpt lat="41.660736780" lon="2.593503330">
        <ele>637.10</ele>
        <time>2014-04-06T09:45:09Z</time>
      </trkpt>
      <trkpt lat="41.660743480" lon="2.593435100">
        <ele>636.60</ele>
        <time>2014-04-06T09:45:10Z</time>
      </trkpt>
      <trkpt lat="41.660748340" lon="2.593371730">
        <ele>636.10</ele>
        <time>2014-04-06T09:45:11Z</time>
      </trkpt>
      <trkpt lat="41.660748340" lon="2.593311720">
        <ele>635.80</ele>
        <time>2014-04-06T09:45:12Z</time>
      </trkpt>
      <trkpt lat="41.660736780" lon="2.593256730">
        <ele>635.20</ele>
        <time>2014-04-06T09:45:13Z</time>
      </trkpt>
      <trkpt lat="41.660726720" lon="2.593210130">
        <ele>634.70</ele>
        <time>2014-04-06T09:45:14Z</time>
      </trkpt>
      <trkpt lat="41.660720010" lon="2.593170060">
        <ele>634.40</ele>
        <time>2014-04-06T09:45:15Z</time>
      </trkpt>
      <trkpt lat="41.660718340" lon="2.593133350">
        <ele>634.30</ele>
        <time>2014-04-06T09:45:16Z</time>
      </trkpt>
      <trkpt lat="41.660721690" lon="2.593110050">
        <ele>634.20</ele>
        <time>2014-04-06T09:45:17Z</time>
      </trkpt>
      <trkpt lat="41.660725040" lon="2.593093450">
        <ele>633.60</ele>
        <time>2014-04-06T09:45:18Z</time>
      </trkpt>
      <trkpt lat="41.660728390" lon="2.593083400">
        <ele>633.20</ele>
        <time>2014-04-06T09:45:19Z</time>
      </trkpt>
      <trkpt lat="41.660730070" lon="2.593076690">
        <ele>632.90</ele>
        <time>2014-04-06T09:45:20Z</time>
      </trkpt>
      <trkpt lat="41.660735100" lon="2.593073340">
        <ele>632.60</ele>
        <time>2014-04-06T09:45:21Z</time>
      </trkpt>
      <trkpt lat="41.660741800" lon="2.593070150">
        <ele>632.50</ele>
        <time>2014-04-06T09:45:22Z</time>
      </trkpt>
      <trkpt lat="41.660751700" lon="2.593065120">
        <ele>632.10</ele>
        <time>2014-04-06T09:45:23Z</time>
      </trkpt>
      <trkpt lat="41.660760080" lon="2.593055060">
        <ele>631.80</ele>
        <time>2014-04-06T09:45:24Z</time>
      </trkpt>
      <trkpt lat="41.660770140" lon="2.593048360">
        <ele>631.70</ele>
        <time>2014-04-06T09:45:25Z</time>
      </trkpt>
      <trkpt lat="41.660780030" lon="2.593045010">
        <ele>631.60</ele>
        <time>2014-04-06T09:45:26Z</time>
      </trkpt>
      <trkpt lat="41.660788410" lon="2.593041820">
        <ele>631.50</ele>
        <time>2014-04-06T09:45:27Z</time>
      </trkpt>
      <trkpt lat="41.660796790" lon="2.593040140">
        <ele>631.40</ele>
        <time>2014-04-06T09:45:28Z</time>
      </trkpt>
      <trkpt lat="41.660805000" lon="2.593036790">
        <ele>631.30</ele>
        <time>2014-04-06T09:45:29Z</time>
      </trkpt>
      <trkpt lat="41.660813390" lon="2.593035120">
        <ele>631.20</ele>
        <time>2014-04-06T09:45:30Z</time>
      </trkpt>
      <trkpt lat="41.660821770" lon="2.593033440">
        <ele>631.10</ele>
        <time>2014-04-06T09:45:31Z</time>
      </trkpt>
      <trkpt lat="41.660830150" lon="2.593031760">
        <ele>630.80</ele>
        <time>2014-04-06T09:45:32Z</time>
      </trkpt>
      <trkpt lat="41.660836690" lon="2.593031760">
        <ele>630.70</ele>
        <time>2014-04-06T09:45:33Z</time>
      </trkpt>
      <trkpt lat="41.660841720" lon="2.593030090">
        <ele>630.60</ele>
        <time>2014-04-06T09:45:34Z</time>
      </trkpt>
      <trkpt lat="41.660846750" lon="2.593030090">
        <ele>630.80</ele>
        <time>2014-04-06T09:45:35Z</time>
      </trkpt>
      <trkpt lat="41.660851780" lon="2.593030090">
        <ele>631.00</ele>
        <time>2014-04-06T09:45:36Z</time>
      </trkpt>
      <trkpt lat="41.660855130" lon="2.593030090">
        <ele>630.90</ele>
        <time>2014-04-06T09:45:37Z</time>
      </trkpt>
      <trkpt lat="41.660858480" lon="2.593030090">
        <ele>630.90</ele>
        <time>2014-04-06T09:45:38Z</time>
      </trkpt>
      <trkpt lat="41.660860160" lon="2.593030090">
        <ele>631.20</ele>
        <time>2014-04-06T09:45:39Z</time>
      </trkpt>
      <trkpt lat="41.660861670" lon="2.593030090">
        <ele>631.50</ele>
        <time>2014-04-06T09:45:40Z</time>
      </trkpt>
      <trkpt lat="41.660863340" lon="2.593030090">
        <ele>631.60</ele>
        <time>2014-04-06T09:45:41Z</time>
      </trkpt>
      <trkpt lat="41.660865020" lon="2.593030090">
        <ele>631.50</ele>
        <time>2014-04-06T09:45:42Z</time>
      </trkpt>
      <trkpt lat="41.660865020" lon="2.593030090">
        <ele>631.50</ele>
        <time>2014-04-06T09:45:43Z</time>
      </trkpt>
      <trkpt lat="41.660865020" lon="2.593030090">
        <ele>631.10</ele>
        <time>2014-04-06T09:45:44Z</time>
      </trkpt>
      <trkpt lat="41.660866700" lon="2.593030090">
        <ele>630.80</ele>
        <time>2014-04-06T09:45:45Z</time>
      </trkpt>
      <trkpt lat="41.660866700" lon="2.593030090">
        <ele>630.70</ele>
        <time>2014-04-06T09:45:46Z</time>
      </trkpt>
      <trkpt lat="41.660865020" lon="2.593030090">
        <ele>630.60</ele>
        <time>2014-04-06T09:45:47Z</time>
      </trkpt>
      <trkpt lat="41.660865020" lon="2.593030090">
        <ele>630.50</ele>
        <time>2014-04-06T09:45:48Z</time>
      </trkpt>
      <trkpt lat="41.660865020" lon="2.593028410">
        <ele>630.70</ele>
        <time>2014-04-06T09:45:49Z</time>
      </trkpt>
      <trkpt lat="41.660863340" lon="2.593028410">
        <ele>630.90</ele>
        <time>2014-04-06T09:45:50Z</time>
      </trkpt>
      <trkpt lat="41.660863340" lon="2.593028410">
        <ele>630.70</ele>
        <time>2014-04-06T09:45:51Z</time>
      </trkpt>
      <trkpt lat="41.660861670" lon="2.593028410">
        <ele>630.60</ele>
        <time>2014-04-06T09:45:52Z</time>
      </trkpt>
      <trkpt lat="41.660861670" lon="2.593028410">
        <ele>630.50</ele>
        <time>2014-04-06T09:45:53Z</time>
      </trkpt>
      <trkpt lat="41.660860160" lon="2.593028410">
        <ele>630.60</ele>
        <time>2014-04-06T09:45:54Z</time>
      </trkpt>
      <trkpt lat="41.660860160" lon="2.593028410">
        <ele>630.60</ele>
        <time>2014-04-06T09:45:55Z</time>
      </trkpt>
      <trkpt lat="41.660858480" lon="2.593028410">
        <ele>630.40</ele>
        <time>2014-04-06T09:45:56Z</time>
      </trkpt>
      <trkpt lat="41.660858480" lon="2.593028410">
        <ele>630.30</ele>
        <time>2014-04-06T09:45:57Z</time>
      </trkpt>
      <trkpt lat="41.660856800" lon="2.593028410">
        <ele>630.20</ele>
        <time>2014-04-06T09:45:58Z</time>
      </trkpt>
      <trkpt lat="41.660856800" lon="2.593028410">
        <ele>630.10</ele>
        <time>2014-04-06T09:45:59Z</time>
      </trkpt>
      <trkpt lat="41.660855130" lon="2.593028410">
        <ele>630.00</ele>
        <time>2014-04-06T09:46:00Z</time>
      </trkpt>
      <trkpt lat="41.660855130" lon="2.593028410">
        <ele>629.80</ele>
        <time>2014-04-06T09:46:01Z</time>
      </trkpt>
      <trkpt lat="41.660853450" lon="2.593028410">
        <ele>629.60</ele>
        <time>2014-04-06T09:46:02Z</time>
      </trkpt>
      <trkpt lat="41.660853450" lon="2.593028410">
        <ele>629.90</ele>
        <time>2014-04-06T09:46:03Z</time>
      </trkpt>
      <trkpt lat="41.660851780" lon="2.593028410">
        <ele>630.10</ele>
        <time>2014-04-06T09:46:04Z</time>
      </trkpt>
      <trkpt lat="41.660851780" lon="2.593028410">
        <ele>630.10</ele>
        <time>2014-04-06T09:46:05Z</time>
      </trkpt>
      <trkpt lat="41.660850100" lon="2.593030090">
        <ele>630.10</ele>
        <time>2014-04-06T09:46:06Z</time>
      </trkpt>
      <trkpt lat="41.660850100" lon="2.593030090">
        <ele>630.10</ele>
        <time>2014-04-06T09:46:07Z</time>
      </trkpt>
      <trkpt lat="41.660850100" lon="2.593030090">
        <ele>630.00</ele>
        <time>2014-04-06T09:46:08Z</time>
      </trkpt>
      <trkpt lat="41.660848420" lon="2.593030090">
        <ele>630.00</ele>
        <time>2014-04-06T09:46:09Z</time>
      </trkpt>
      <trkpt lat="41.660848420" lon="2.593030090">
        <ele>629.90</ele>
        <time>2014-04-06T09:46:10Z</time>
      </trkpt>
      <trkpt lat="41.660846750" lon="2.593030090">
        <ele>629.90</ele>
        <time>2014-04-06T09:46:11Z</time>
      </trkpt>
      <trkpt lat="41.660846750" lon="2.593030090">
        <ele>629.90</ele>
        <time>2014-04-06T09:46:12Z</time>
      </trkpt>
      <trkpt lat="41.660845070" lon="2.593030090">
        <ele>630.00</ele>
        <time>2014-04-06T09:46:13Z</time>
      </trkpt>
      <trkpt lat="41.660845070" lon="2.593030090">
        <ele>630.10</ele>
        <time>2014-04-06T09:46:14Z</time>
      </trkpt>
      <trkpt lat="41.660843390" lon="2.593030090">
        <ele>630.10</ele>
        <time>2014-04-06T09:46:15Z</time>
      </trkpt>
      <trkpt lat="41.660843390" lon="2.593030090">
        <ele>630.10</ele>
        <time>2014-04-06T09:46:16Z</time>
      </trkpt>
      <trkpt lat="41.660841720" lon="2.593030090">
        <ele>630.10</ele>
        <time>2014-04-06T09:46:17Z</time>
      </trkpt>
      <trkpt lat="41.660841720" lon="2.593028410">
        <ele>630.10</ele>
        <time>2014-04-06T09:46:18Z</time>
      </trkpt>
      <trkpt lat="41.660840040" lon="2.593028410">
        <ele>630.10</ele>
        <time>2014-04-06T09:46:19Z</time>
      </trkpt>
      <trkpt lat="41.660840040" lon="2.593028410">
        <ele>630.00</ele>
        <time>2014-04-06T09:46:20Z</time>
      </trkpt>
      <trkpt lat="41.660838360" lon="2.593028410">
        <ele>629.90</ele>
        <time>2014-04-06T09:46:21Z</time>
      </trkpt>
      <trkpt lat="41.660838360" lon="2.593028410">
        <ele>629.70</ele>
        <time>2014-04-06T09:46:22Z</time>
      </trkpt>
      <trkpt lat="41.660836690" lon="2.593028410">
        <ele>629.60</ele>
        <time>2014-04-06T09:46:23Z</time>
      </trkpt>
      <trkpt lat="41.660836690" lon="2.593028410">
        <ele>629.50</ele>
        <time>2014-04-06T09:46:24Z</time>
      </trkpt>
      <trkpt lat="41.660836690" lon="2.593028410">
        <ele>629.40</ele>
        <time>2014-04-06T09:46:25Z</time>
      </trkpt>
      <trkpt lat="41.660835010" lon="2.593028410">
        <ele>629.30</ele>
        <time>2014-04-06T09:46:26Z</time>
      </trkpt>
      <trkpt lat="41.660835010" lon="2.593028410">
        <ele>629.10</ele>
        <time>2014-04-06T09:46:27Z</time>
      </trkpt>
      <trkpt lat="41.660833340" lon="2.593028410">
        <ele>628.90</ele>
        <time>2014-04-06T09:46:28Z</time>
      </trkpt>
      <trkpt lat="41.660833340" lon="2.593028410">
        <ele>628.90</ele>
        <time>2014-04-06T09:46:29Z</time>
      </trkpt>
      <trkpt lat="41.660833340" lon="2.593028410">
        <ele>628.90</ele>
        <time>2014-04-06T09:46:30Z</time>
      </trkpt>
      <trkpt lat="41.660831830" lon="2.593028410">
        <ele>628.80</ele>
        <time>2014-04-06T09:46:31Z</time>
      </trkpt>
      <trkpt lat="41.660831830" lon="2.593028410">
        <ele>628.70</ele>
        <time>2014-04-06T09:46:32Z</time>
      </trkpt>
      <trkpt lat="41.660830150" lon="2.593026730">
        <ele>628.60</ele>
        <time>2014-04-06T09:46:33Z</time>
      </trkpt>
      <trkpt lat="41.660830150" lon="2.593026730">
        <ele>628.50</ele>
        <time>2014-04-06T09:46:34Z</time>
      </trkpt>
      <trkpt lat="41.660828470" lon="2.593026730">
        <ele>628.40</ele>
        <time>2014-04-06T09:46:35Z</time>
      </trkpt>
      <trkpt lat="41.660828470" lon="2.593026730">
        <ele>628.40</ele>
        <time>2014-04-06T09:46:36Z</time>
      </trkpt>
      <trkpt lat="41.660828470" lon="2.593023380">
        <ele>628.40</ele>
        <time>2014-04-06T09:46:37Z</time>
      </trkpt>
      <trkpt lat="41.660828470" lon="2.593023380">
        <ele>628.40</ele>
        <time>2014-04-06T09:46:38Z</time>
      </trkpt>
      <trkpt lat="41.660828470" lon="2.593023380">
        <ele>628.80</ele>
        <time>2014-04-06T09:46:39Z</time>
      </trkpt>
      <trkpt lat="41.660828470" lon="2.593023380">
        <ele>629.10</ele>
        <time>2014-04-06T09:46:40Z</time>
      </trkpt>
      <trkpt lat="41.660828470" lon="2.593023380">
        <ele>629.20</ele>
        <time>2014-04-06T09:46:41Z</time>
      </trkpt>
      <trkpt lat="41.660828470" lon="2.593023380">
        <ele>629.30</ele>
        <time>2014-04-06T09:46:42Z</time>
      </trkpt>
      <trkpt lat="41.660828470" lon="2.593023380">
        <ele>629.20</ele>
        <time>2014-04-06T09:46:43Z</time>
      </trkpt>
      <trkpt lat="41.660830150" lon="2.593023380">
        <ele>629.00</ele>
        <time>2014-04-06T09:46:44Z</time>
      </trkpt>
      <trkpt lat="41.660830150" lon="2.593023380">
        <ele>629.00</ele>
        <time>2014-04-06T09:46:45Z</time>
      </trkpt>
      <trkpt lat="41.660830150" lon="2.593025060">
        <ele>629.00</ele>
        <time>2014-04-06T09:46:46Z</time>
      </trkpt>
      <trkpt lat="41.660830150" lon="2.593025060">
        <ele>629.10</ele>
        <time>2014-04-06T09:46:47Z</time>
      </trkpt>
      <trkpt lat="41.660831830" lon="2.593025060">
        <ele>628.80</ele>
        <time>2014-04-06T09:46:48Z</time>
      </trkpt>
      <trkpt lat="41.660831830" lon="2.593025060">
        <ele>628.60</ele>
        <time>2014-04-06T09:46:49Z</time>
      </trkpt>
      <trkpt lat="41.660831830" lon="2.593025060">
        <ele>628.40</ele>
        <time>2014-04-06T09:46:50Z</time>
      </trkpt>
      <trkpt lat="41.660831830" lon="2.593025060">
        <ele>628.80</ele>
        <time>2014-04-06T09:46:51Z</time>
      </trkpt>
      <trkpt lat="41.660833340" lon="2.593025060">
        <ele>629.20</ele>
        <time>2014-04-06T09:46:52Z</time>
      </trkpt>
      <trkpt lat="41.660833340" lon="2.593025060">
        <ele>629.30</ele>
        <time>2014-04-06T09:46:53Z</time>
      </trkpt>
      <trkpt lat="41.660833340" lon="2.593026730">
        <ele>629.40</ele>
        <time>2014-04-06T09:46:54Z</time>
      </trkpt>
      <trkpt lat="41.660833340" lon="2.593026730">
        <ele>629.40</ele>
        <time>2014-04-06T09:46:55Z</time>
      </trkpt>
      <trkpt lat="41.660833340" lon="2.593026730">
        <ele>629.40</ele>
        <time>2014-04-06T09:46:56Z</time>
      </trkpt>
      <trkpt lat="41.660836690" lon="2.593028410">
        <ele>629.40</ele>
        <time>2014-04-06T09:46:57Z</time>
      </trkpt>
      <trkpt lat="41.660840040" lon="2.593030090">
        <ele>629.20</ele>
        <time>2014-04-06T09:46:58Z</time>
      </trkpt>
      <trkpt lat="41.660843390" lon="2.593030090">
        <ele>629.10</ele>
        <time>2014-04-06T09:46:59Z</time>
      </trkpt>
      <trkpt lat="41.660845070" lon="2.593031760">
        <ele>629.10</ele>
        <time>2014-04-06T09:47:00Z</time>
      </trkpt>
      <trkpt lat="41.660846750" lon="2.593033440">
        <ele>629.00</ele>
        <time>2014-04-06T09:47:01Z</time>
      </trkpt>
      <trkpt lat="41.660850100" lon="2.593033440">
        <ele>628.90</ele>
        <time>2014-04-06T09:47:02Z</time>
      </trkpt>
      <trkpt lat="41.660851780" lon="2.593035120">
        <ele>628.70</ele>
        <time>2014-04-06T09:47:03Z</time>
      </trkpt>
      <trkpt lat="41.660853450" lon="2.593036790">
        <ele>628.60</ele>
        <time>2014-04-06T09:47:04Z</time>
      </trkpt>
      <trkpt lat="41.660855130" lon="2.593036790">
        <ele>628.80</ele>
        <time>2014-04-06T09:47:05Z</time>
      </trkpt>
      <trkpt lat="41.660856800" lon="2.593036790">
        <ele>629.00</ele>
        <time>2014-04-06T09:47:06Z</time>
      </trkpt>
      <trkpt lat="41.660858480" lon="2.593038470">
        <ele>629.30</ele>
        <time>2014-04-06T09:47:07Z</time>
      </trkpt>
      <trkpt lat="41.660858480" lon="2.593038470">
        <ele>629.50</ele>
        <time>2014-04-06T09:47:08Z</time>
      </trkpt>
      <trkpt lat="41.660860160" lon="2.593040140">
        <ele>629.60</ele>
        <time>2014-04-06T09:47:09Z</time>
      </trkpt>
      <trkpt lat="41.660861670" lon="2.593040140">
        <ele>629.30</ele>
        <time>2014-04-06T09:47:10Z</time>
      </trkpt>
      <trkpt lat="41.660861670" lon="2.593040140">
        <ele>629.00</ele>
        <time>2014-04-06T09:47:11Z</time>
      </trkpt>
      <trkpt lat="41.660863340" lon="2.593041820">
        <ele>628.80</ele>
        <time>2014-04-06T09:47:12Z</time>
      </trkpt>
      <trkpt lat="41.660865020" lon="2.593041820">
        <ele>628.60</ele>
        <time>2014-04-06T09:47:13Z</time>
      </trkpt>
      <trkpt lat="41.660865020" lon="2.593041820">
        <ele>628.50</ele>
        <time>2014-04-06T09:47:14Z</time>
      </trkpt>
      <trkpt lat="41.660866700" lon="2.593043330">
        <ele>628.50</ele>
        <time>2014-04-06T09:47:15Z</time>
      </trkpt>
      <trkpt lat="41.660866700" lon="2.593043330">
        <ele>628.50</ele>
        <time>2014-04-06T09:47:16Z</time>
      </trkpt>
      <trkpt lat="41.660868370" lon="2.593043330">
        <ele>628.70</ele>
        <time>2014-04-06T09:47:17Z</time>
      </trkpt>
      <trkpt lat="41.660868370" lon="2.593043330">
        <ele>628.90</ele>
        <time>2014-04-06T09:47:18Z</time>
      </trkpt>
      <trkpt lat="41.660870050" lon="2.593043330">
        <ele>629.10</ele>
        <time>2014-04-06T09:47:19Z</time>
      </trkpt>
      <trkpt lat="41.660870050" lon="2.593045010">
        <ele>629.30</ele>
        <time>2014-04-06T09:47:20Z</time>
      </trkpt>
      <trkpt lat="41.660871720" lon="2.593045010">
        <ele>629.40</ele>
        <time>2014-04-06T09:47:21Z</time>
      </trkpt>
      <trkpt lat="41.660871720" lon="2.593045010">
        <ele>629.50</ele>
        <time>2014-04-06T09:47:22Z</time>
      </trkpt>
      <trkpt lat="41.660873400" lon="2.593045010">
        <ele>629.50</ele>
        <time>2014-04-06T09:47:23Z</time>
      </trkpt>
      <trkpt lat="41.660873400" lon="2.593045010">
        <ele>629.40</ele>
        <time>2014-04-06T09:47:24Z</time>
      </trkpt>
      <trkpt lat="41.660875080" lon="2.593046680">
        <ele>629.30</ele>
        <time>2014-04-06T09:47:25Z</time>
      </trkpt>
      <trkpt lat="41.660875080" lon="2.593046680">
        <ele>629.10</ele>
        <time>2014-04-06T09:47:26Z</time>
      </trkpt>
      <trkpt lat="41.660875080" lon="2.593046680">
        <ele>629.00</ele>
        <time>2014-04-06T09:47:27Z</time>
      </trkpt>
      <trkpt lat="41.660875080" lon="2.593046680">
        <ele>629.20</ele>
        <time>2014-04-06T09:47:28Z</time>
      </trkpt>
      <trkpt lat="41.660876750" lon="2.593046680">
        <ele>629.40</ele>
        <time>2014-04-06T09:47:29Z</time>
      </trkpt>
      <trkpt lat="41.660876750" lon="2.593046680">
        <ele>629.50</ele>
        <time>2014-04-06T09:47:30Z</time>
      </trkpt>
      <trkpt lat="41.660876750" lon="2.593046680">
        <ele>629.60</ele>
        <time>2014-04-06T09:47:31Z</time>
      </trkpt>
      <trkpt lat="41.660876750" lon="2.593046680">
        <ele>629.70</ele>
        <time>2014-04-06T09:47:32Z</time>
      </trkpt>
      <trkpt lat="41.660878430" lon="2.593046680">
        <ele>629.40</ele>
        <time>2014-04-06T09:47:33Z</time>
      </trkpt>
      <trkpt lat="41.660878430" lon="2.593048360">
        <ele>629.30</ele>
        <time>2014-04-06T09:47:34Z</time>
      </trkpt>
      <trkpt lat="41.660878430" lon="2.593048360">
        <ele>629.10</ele>
        <time>2014-04-06T09:47:35Z</time>
      </trkpt>
      <trkpt lat="41.660880110" lon="2.593048360">
        <ele>628.80</ele>
        <time>2014-04-06T09:47:36Z</time>
      </trkpt>
      <trkpt lat="41.660880110" lon="2.593048360">
        <ele>628.50</ele>
        <time>2014-04-06T09:47:37Z</time>
      </trkpt>
      <trkpt lat="41.660880110" lon="2.593048360">
        <ele>628.50</ele>
        <time>2014-04-06T09:47:38Z</time>
      </trkpt>
      <trkpt lat="41.660881780" lon="2.593048360">
        <ele>628.50</ele>
        <time>2014-04-06T09:47:39Z</time>
      </trkpt>
      <trkpt lat="41.660881780" lon="2.593048360">
        <ele>628.40</ele>
        <time>2014-04-06T09:47:40Z</time>
      </trkpt>
      <trkpt lat="41.660881780" lon="2.593050040">
        <ele>628.30</ele>
        <time>2014-04-06T09:47:41Z</time>
      </trkpt>
      <trkpt lat="41.660883460" lon="2.593050040">
        <ele>628.20</ele>
        <time>2014-04-06T09:47:42Z</time>
      </trkpt>
      <trkpt lat="41.660890000" lon="2.593051710">
        <ele>628.60</ele>
        <time>2014-04-06T09:47:43Z</time>
      </trkpt>
      <trkpt lat="41.660891670" lon="2.593051710">
        <ele>628.90</ele>
        <time>2014-04-06T09:47:44Z</time>
      </trkpt>
      <trkpt lat="41.660891670" lon="2.593053390">
        <ele>628.90</ele>
        <time>2014-04-06T09:47:45Z</time>
      </trkpt>
      <trkpt lat="41.660891670" lon="2.593053390">
        <ele>628.90</ele>
        <time>2014-04-06T09:47:46Z</time>
      </trkpt>
      <trkpt lat="41.660900060" lon="2.593055060">
        <ele>628.90</ele>
        <time>2014-04-06T09:47:47Z</time>
      </trkpt>
      <trkpt lat="41.660915140" lon="2.593061770">
        <ele>628.70</ele>
        <time>2014-04-06T09:47:48Z</time>
      </trkpt>
      <trkpt lat="41.660931740" lon="2.593066800">
        <ele>628.60</ele>
        <time>2014-04-06T09:47:49Z</time>
      </trkpt>
      <trkpt lat="41.660943470" lon="2.593070150">
        <ele>628.60</ele>
        <time>2014-04-06T09:47:50Z</time>
      </trkpt>
      <trkpt lat="41.660960070" lon="2.593075010">
        <ele>628.60</ele>
        <time>2014-04-06T09:47:51Z</time>
      </trkpt>
      <trkpt lat="41.660973480" lon="2.593080040">
        <ele>628.40</ele>
        <time>2014-04-06T09:47:52Z</time>
      </trkpt>
      <trkpt lat="41.660986720" lon="2.593085070">
        <ele>628.20</ele>
        <time>2014-04-06T09:47:53Z</time>
      </trkpt>
      <trkpt lat="41.660998460" lon="2.593088420">
        <ele>628.00</ele>
        <time>2014-04-06T09:47:54Z</time>
      </trkpt>
      <trkpt lat="41.661008350" lon="2.593091780">
        <ele>628.20</ele>
        <time>2014-04-06T09:47:55Z</time>
      </trkpt>
      <trkpt lat="41.661018410" lon="2.593095130">
        <ele>628.20</ele>
        <time>2014-04-06T09:47:56Z</time>
      </trkpt>
      <trkpt lat="41.661026790" lon="2.593098480">
        <ele>628.60</ele>
        <time>2014-04-06T09:47:57Z</time>
      </trkpt>
      <trkpt lat="41.661033490" lon="2.593100160">
        <ele>628.90</ele>
        <time>2014-04-06T09:47:58Z</time>
      </trkpt>
      <trkpt lat="41.661040030" lon="2.593103340">
        <ele>629.00</ele>
        <time>2014-04-06T09:47:59Z</time>
      </trkpt>
      <trkpt lat="41.661045060" lon="2.593103340">
        <ele>629.20</ele>
        <time>2014-04-06T09:48:00Z</time>
      </trkpt>
      <trkpt lat="41.661050090" lon="2.593105020">
        <ele>629.30</ele>
        <time>2014-04-06T09:48:01Z</time>
      </trkpt>
      <trkpt lat="41.661053440" lon="2.593106700">
        <ele>628.80</ele>
        <time>2014-04-06T09:48:02Z</time>
      </trkpt>
      <trkpt lat="41.661056800" lon="2.593108370">
        <ele>628.40</ele>
        <time>2014-04-06T09:48:03Z</time>
      </trkpt>
      <trkpt lat="41.661061830" lon="2.593108370">
        <ele>628.40</ele>
        <time>2014-04-06T09:48:04Z</time>
      </trkpt>
      <trkpt lat="41.661065010" lon="2.593110050">
        <ele>628.40</ele>
        <time>2014-04-06T09:48:05Z</time>
      </trkpt>
      <trkpt lat="41.661066690" lon="2.593110050">
        <ele>628.40</ele>
        <time>2014-04-06T09:48:06Z</time>
      </trkpt>
      <trkpt lat="41.661070040" lon="2.593111730">
        <ele>628.50</ele>
        <time>2014-04-06T09:48:07Z</time>
      </trkpt>
      <trkpt lat="41.661071720" lon="2.593111730">
        <ele>628.50</ele>
        <time>2014-04-06T09:48:08Z</time>
      </trkpt>
      <trkpt lat="41.661073390" lon="2.593111730">
        <ele>628.50</ele>
        <time>2014-04-06T09:48:09Z</time>
      </trkpt>
      <trkpt lat="41.661075070" lon="2.593111730">
        <ele>628.50</ele>
        <time>2014-04-06T09:48:10Z</time>
      </trkpt>
      <trkpt lat="41.661076750" lon="2.593113400">
        <ele>628.70</ele>
        <time>2014-04-06T09:48:11Z</time>
      </trkpt>
      <trkpt lat="41.661078420" lon="2.593113400">
        <ele>628.90</ele>
        <time>2014-04-06T09:48:12Z</time>
      </trkpt>
      <trkpt lat="41.661080100" lon="2.593113400">
        <ele>629.00</ele>
        <time>2014-04-06T09:48:13Z</time>
      </trkpt>
      <trkpt lat="41.661081770" lon="2.593113400">
        <ele>628.70</ele>
        <time>2014-04-06T09:48:14Z</time>
      </trkpt>
      <trkpt lat="41.661081770" lon="2.593113400">
        <ele>628.50</ele>
        <time>2014-04-06T09:48:15Z</time>
      </trkpt>
      <trkpt lat="41.661083450" lon="2.593113400">
        <ele>628.20</ele>
        <time>2014-04-06T09:48:16Z</time>
      </trkpt>
      <trkpt lat="41.661085130" lon="2.593113400">
        <ele>627.90</ele>
        <time>2014-04-06T09:48:17Z</time>
      </trkpt>
      <trkpt lat="41.661085130" lon="2.593113400">
        <ele>627.90</ele>
        <time>2014-04-06T09:48:18Z</time>
      </trkpt>
      <trkpt lat="41.661086800" lon="2.593113400">
        <ele>627.90</ele>
        <time>2014-04-06T09:48:19Z</time>
      </trkpt>
      <trkpt lat="41.661086800" lon="2.593113400">
        <ele>627.90</ele>
        <time>2014-04-06T09:48:20Z</time>
      </trkpt>
      <trkpt lat="41.661088480" lon="2.593113400">
        <ele>628.50</ele>
        <time>2014-04-06T09:48:21Z</time>
      </trkpt>
      <trkpt lat="41.661088480" lon="2.593113400">
        <ele>629.00</ele>
        <time>2014-04-06T09:48:22Z</time>
      </trkpt>
      <trkpt lat="41.661090160" lon="2.593113400">
        <ele>629.10</ele>
        <time>2014-04-06T09:48:23Z</time>
      </trkpt>
      <trkpt lat="41.661090160" lon="2.593113400">
        <ele>629.30</ele>
        <time>2014-04-06T09:48:24Z</time>
      </trkpt>
      <trkpt lat="41.661090160" lon="2.593113400">
        <ele>629.10</ele>
        <time>2014-04-06T09:48:25Z</time>
      </trkpt>
      <trkpt lat="41.661091670" lon="2.593113400">
        <ele>629.00</ele>
        <time>2014-04-06T09:48:26Z</time>
      </trkpt>
      <trkpt lat="41.661091670" lon="2.593113400">
        <ele>628.90</ele>
        <time>2014-04-06T09:48:27Z</time>
      </trkpt>
      <trkpt lat="41.661091670" lon="2.593113400">
        <ele>628.60</ele>
        <time>2014-04-06T09:48:28Z</time>
      </trkpt>
      <trkpt lat="41.661091670" lon="2.593113400">
        <ele>628.30</ele>
        <time>2014-04-06T09:48:29Z</time>
      </trkpt>
      <trkpt lat="41.661093340" lon="2.593113400">
        <ele>628.20</ele>
        <time>2014-04-06T09:48:30Z</time>
      </trkpt>
      <trkpt lat="41.661093340" lon="2.593113400">
        <ele>628.10</ele>
        <time>2014-04-06T09:48:31Z</time>
      </trkpt>
      <trkpt lat="41.661093340" lon="2.593113400">
        <ele>628.00</ele>
        <time>2014-04-06T09:48:32Z</time>
      </trkpt>
      <trkpt lat="41.661093340" lon="2.593113400">
        <ele>628.40</ele>
        <time>2014-04-06T09:48:33Z</time>
      </trkpt>
      <trkpt lat="41.661093340" lon="2.593113400">
        <ele>628.70</ele>
        <time>2014-04-06T09:48:34Z</time>
      </trkpt>
      <trkpt lat="41.661093340" lon="2.593113400">
        <ele>628.60</ele>
        <time>2014-04-06T09:48:35Z</time>
      </trkpt>
      <trkpt lat="41.661093340" lon="2.593113400">
        <ele>628.50</ele>
        <time>2014-04-06T09:48:36Z</time>
      </trkpt>
      <trkpt lat="41.661093340" lon="2.593113400">
        <ele>628.50</ele>
        <time>2014-04-06T09:48:37Z</time>
      </trkpt>
      <trkpt lat="41.661093340" lon="2.593111730">
        <ele>628.60</ele>
        <time>2014-04-06T09:48:38Z</time>
      </trkpt>
      <trkpt lat="41.661093340" lon="2.593111730">
        <ele>628.60</ele>
        <time>2014-04-06T09:48:39Z</time>
      </trkpt>
      <trkpt lat="41.661093340" lon="2.593111730">
        <ele>628.30</ele>
        <time>2014-04-06T09:48:40Z</time>
      </trkpt>
      <trkpt lat="41.661093340" lon="2.593110050">
        <ele>628.10</ele>
        <time>2014-04-06T09:48:41Z</time>
      </trkpt>
      <trkpt lat="41.661093340" lon="2.593110050">
        <ele>628.60</ele>
        <time>2014-04-06T09:48:42Z</time>
      </trkpt>
      <trkpt lat="41.661093340" lon="2.593110050">
        <ele>628.90</ele>
        <time>2014-04-06T09:48:43Z</time>
      </trkpt>
      <trkpt lat="41.661086800" lon="2.593108370">
        <ele>629.00</ele>
        <time>2014-04-06T09:48:44Z</time>
      </trkpt>
      <trkpt lat="41.661081770" lon="2.593106700">
        <ele>629.00</ele>
        <time>2014-04-06T09:48:45Z</time>
      </trkpt>
      <trkpt lat="41.661078420" lon="2.593106700">
        <ele>629.10</ele>
        <time>2014-04-06T09:48:46Z</time>
      </trkpt>
      <trkpt lat="41.661073390" lon="2.593105020">
        <ele>628.90</ele>
        <time>2014-04-06T09:48:47Z</time>
      </trkpt>
      <trkpt lat="41.661071720" lon="2.593105020">
        <ele>628.80</ele>
        <time>2014-04-06T09:48:48Z</time>
      </trkpt>
      <trkpt lat="41.661071720" lon="2.593105020">
        <ele>629.20</ele>
        <time>2014-04-06T09:48:49Z</time>
      </trkpt>
      <trkpt lat="41.661070040" lon="2.593103340">
        <ele>629.50</ele>
        <time>2014-04-06T09:48:50Z</time>
      </trkpt>
      <trkpt lat="41.661068360" lon="2.593103340">
        <ele>629.70</ele>
        <time>2014-04-06T09:48:51Z</time>
      </trkpt>
      <trkpt lat="41.661068360" lon="2.593103340">
        <ele>629.60</ele>
        <time>2014-04-06T09:48:52Z</time>
      </trkpt>
      <trkpt lat="41.661066690" lon="2.593103340">
        <ele>629.40</ele>
        <time>2014-04-06T09:48:53Z</time>
      </trkpt>
      <trkpt lat="41.661065010" lon="2.593103340">
        <ele>629.20</ele>
        <time>2014-04-06T09:48:54Z</time>
      </trkpt>
      <trkpt lat="41.661065010" lon="2.593101670">
        <ele>629.10</ele>
        <time>2014-04-06T09:48:55Z</time>
      </trkpt>
      <trkpt lat="41.661063330" lon="2.593101670">
        <ele>629.10</ele>
        <time>2014-04-06T09:48:56Z</time>
      </trkpt>
      <trkpt lat="41.661061830" lon="2.593101670">
        <ele>629.10</ele>
        <time>2014-04-06T09:48:57Z</time>
      </trkpt>
      <trkpt lat="41.661060150" lon="2.593101670">
        <ele>629.10</ele>
        <time>2014-04-06T09:48:58Z</time>
      </trkpt>
      <trkpt lat="41.661058470" lon="2.593100160">
        <ele>629.10</ele>
        <time>2014-04-06T09:48:59Z</time>
      </trkpt>
      <trkpt lat="41.661056800" lon="2.593100160">
        <ele>629.10</ele>
        <time>2014-04-06T09:49:00Z</time>
      </trkpt>
      <trkpt lat="41.661055120" lon="2.593098480">
        <ele>629.20</ele>
        <time>2014-04-06T09:49:01Z</time>
      </trkpt>
      <trkpt lat="41.661053440" lon="2.593098480">
        <ele>629.20</ele>
        <time>2014-04-06T09:49:02Z</time>
      </trkpt>
      <trkpt lat="41.661051770" lon="2.593098480">
        <ele>629.20</ele>
        <time>2014-04-06T09:49:03Z</time>
      </trkpt>
      <trkpt lat="41.661050090" lon="2.593096810">
        <ele>629.20</ele>
        <time>2014-04-06T09:49:04Z</time>
      </trkpt>
      <trkpt lat="41.661048410" lon="2.593096810">
        <ele>629.20</ele>
        <time>2014-04-06T09:49:05Z</time>
      </trkpt>
      <trkpt lat="41.661048410" lon="2.593096810">
        <ele>629.30</ele>
        <time>2014-04-06T09:49:06Z</time>
      </trkpt>
      <trkpt lat="41.661046740" lon="2.593096810">
        <ele>629.30</ele>
        <time>2014-04-06T09:49:07Z</time>
      </trkpt>
      <trkpt lat="41.661045060" lon="2.593096810">
        <ele>629.00</ele>
        <time>2014-04-06T09:49:08Z</time>
      </trkpt>
      <trkpt lat="41.661043390" lon="2.593095130">
        <ele>628.70</ele>
        <time>2014-04-06T09:49:09Z</time>
      </trkpt>
      <trkpt lat="41.661041710" lon="2.593095130">
        <ele>628.50</ele>
        <time>2014-04-06T09:49:10Z</time>
      </trkpt>
      <trkpt lat="41.661038360" lon="2.593093450">
        <ele>628.70</ele>
        <time>2014-04-06T09:49:11Z</time>
      </trkpt>
      <trkpt lat="41.661036680" lon="2.593091780">
        <ele>628.90</ele>
        <time>2014-04-06T09:49:12Z</time>
      </trkpt>
      <trkpt lat="41.661033490" lon="2.593091780">
        <ele>628.70</ele>
        <time>2014-04-06T09:49:13Z</time>
      </trkpt>
      <trkpt lat="41.661030140" lon="2.593090100">
        <ele>628.60</ele>
        <time>2014-04-06T09:49:14Z</time>
      </trkpt>
      <trkpt lat="41.661028470" lon="2.593090100">
        <ele>628.90</ele>
        <time>2014-04-06T09:49:15Z</time>
      </trkpt>
      <trkpt lat="41.661026790" lon="2.593088420">
        <ele>629.20</ele>
        <time>2014-04-06T09:49:16Z</time>
      </trkpt>
      <trkpt lat="41.661025110" lon="2.593088420">
        <ele>629.40</ele>
        <time>2014-04-06T09:49:17Z</time>
      </trkpt>
      <trkpt lat="41.661023440" lon="2.593086750">
        <ele>629.20</ele>
        <time>2014-04-06T09:49:18Z</time>
      </trkpt>
      <trkpt lat="41.661021760" lon="2.593086750">
        <ele>629.10</ele>
        <time>2014-04-06T09:49:19Z</time>
      </trkpt>
      <trkpt lat="41.661020080" lon="2.593086750">
        <ele>628.80</ele>
        <time>2014-04-06T09:49:20Z</time>
      </trkpt>
      <trkpt lat="41.661018410" lon="2.593085070">
        <ele>628.50</ele>
        <time>2014-04-06T09:49:21Z</time>
      </trkpt>
      <trkpt lat="41.661015050" lon="2.593085070">
        <ele>628.50</ele>
        <time>2014-04-06T09:49:22Z</time>
      </trkpt>
      <trkpt lat="41.661011700" lon="2.593083400">
        <ele>628.50</ele>
        <time>2014-04-06T09:49:23Z</time>
      </trkpt>
      <trkpt lat="41.661006670" lon="2.593081720">
        <ele>628.50</ele>
        <time>2014-04-06T09:49:24Z</time>
      </trkpt>
      <trkpt lat="41.661000140" lon="2.593080040">
        <ele>628.50</ele>
        <time>2014-04-06T09:49:25Z</time>
      </trkpt>
      <trkpt lat="41.660993430" lon="2.593078370">
        <ele>628.50</ele>
        <time>2014-04-06T09:49:26Z</time>
      </trkpt>
      <trkpt lat="41.660991750" lon="2.593076690">
        <ele>628.40</ele>
        <time>2014-04-06T09:49:27Z</time>
      </trkpt>
      <trkpt lat="41.660991750" lon="2.593076690">
        <ele>628.20</ele>
        <time>2014-04-06T09:49:28Z</time>
      </trkpt>
      <trkpt lat="41.660993430" lon="2.593078370">
        <ele>628.20</ele>
        <time>2014-04-06T09:49:29Z</time>
      </trkpt>
      <trkpt lat="41.660995110" lon="2.593078370">
        <ele>628.00</ele>
        <time>2014-04-06T09:49:30Z</time>
      </trkpt>
      <trkpt lat="41.660995110" lon="2.593078370">
        <ele>627.90</ele>
        <time>2014-04-06T09:49:31Z</time>
      </trkpt>
      <trkpt lat="41.660995110" lon="2.593078370">
        <ele>628.20</ele>
        <time>2014-04-06T09:49:32Z</time>
      </trkpt>
      <trkpt lat="41.660995110" lon="2.593078370">
        <ele>628.40</ele>
        <time>2014-04-06T09:49:33Z</time>
      </trkpt>
      <trkpt lat="41.660995110" lon="2.593078370">
        <ele>628.60</ele>
        <time>2014-04-06T09:49:34Z</time>
      </trkpt>
      <trkpt lat="41.660995110" lon="2.593078370">
        <ele>628.70</ele>
        <time>2014-04-06T09:49:35Z</time>
      </trkpt>
      <trkpt lat="41.660995110" lon="2.593078370">
        <ele>628.80</ele>
        <time>2014-04-06T09:49:36Z</time>
      </trkpt>
      <trkpt lat="41.660996780" lon="2.593078370">
        <ele>628.50</ele>
        <time>2014-04-06T09:49:37Z</time>
      </trkpt>
      <trkpt lat="41.661000140" lon="2.593080040">
        <ele>628.30</ele>
        <time>2014-04-06T09:49:38Z</time>
      </trkpt>
      <trkpt lat="41.661000140" lon="2.593080040">
        <ele>628.20</ele>
        <time>2014-04-06T09:49:39Z</time>
      </trkpt>
      <trkpt lat="41.661001810" lon="2.593080040">
        <ele>628.20</ele>
        <time>2014-04-06T09:49:40Z</time>
      </trkpt>
      <trkpt lat="41.661000140" lon="2.593080040">
        <ele>628.40</ele>
        <time>2014-04-06T09:49:41Z</time>
      </trkpt>
      <trkpt lat="41.661000140" lon="2.593080040">
        <ele>628.50</ele>
        <time>2014-04-06T09:49:42Z</time>
      </trkpt>
      <trkpt lat="41.661001810" lon="2.593080040">
        <ele>628.50</ele>
        <time>2014-04-06T09:49:43Z</time>
      </trkpt>
      <trkpt lat="41.661000140" lon="2.593080040">
        <ele>628.80</ele>
        <time>2014-04-06T09:49:44Z</time>
      </trkpt>
      <trkpt lat="41.661001810" lon="2.593080040">
        <ele>629.10</ele>
        <time>2014-04-06T09:49:45Z</time>
      </trkpt>
      <trkpt lat="41.661001810" lon="2.593080040">
        <ele>628.90</ele>
        <time>2014-04-06T09:49:46Z</time>
      </trkpt>
      <trkpt lat="41.661003490" lon="2.593080040">
        <ele>628.70</ele>
        <time>2014-04-06T09:49:47Z</time>
      </trkpt>
      <trkpt lat="41.661003490" lon="2.593080040">
        <ele>628.60</ele>
        <time>2014-04-06T09:49:48Z</time>
      </trkpt>
      <trkpt lat="41.661005000" lon="2.593081720">
        <ele>628.70</ele>
        <time>2014-04-06T09:49:49Z</time>
      </trkpt>
      <trkpt lat="41.661006670" lon="2.593081720">
        <ele>628.70</ele>
        <time>2014-04-06T09:49:50Z</time>
      </trkpt>
      <trkpt lat="41.661008350" lon="2.593083400">
        <ele>628.50</ele>
        <time>2014-04-06T09:49:51Z</time>
      </trkpt>
      <trkpt lat="41.661008350" lon="2.593083400">
        <ele>628.40</ele>
        <time>2014-04-06T09:49:52Z</time>
      </trkpt>
      <trkpt lat="41.661006670" lon="2.593083400">
        <ele>628.40</ele>
        <time>2014-04-06T09:49:53Z</time>
      </trkpt>
      <trkpt lat="41.661006670" lon="2.593081720">
        <ele>628.40</ele>
        <time>2014-04-06T09:49:54Z</time>
      </trkpt>
      <trkpt lat="41.661005000" lon="2.593081720">
        <ele>628.40</ele>
        <time>2014-04-06T09:49:55Z</time>
      </trkpt>
      <trkpt lat="41.661003490" lon="2.593081720">
        <ele>628.70</ele>
        <time>2014-04-06T09:49:56Z</time>
      </trkpt>
      <trkpt lat="41.661001810" lon="2.593080040">
        <ele>628.90</ele>
        <time>2014-04-06T09:49:57Z</time>
      </trkpt>
      <trkpt lat="41.661000140" lon="2.593080040">
        <ele>629.20</ele>
        <time>2014-04-06T09:49:58Z</time>
      </trkpt>
      <trkpt lat="41.660998460" lon="2.593080040">
        <ele>629.40</ele>
        <time>2014-04-06T09:49:59Z</time>
      </trkpt>
      <trkpt lat="41.660996780" lon="2.593078370">
        <ele>629.50</ele>
        <time>2014-04-06T09:50:00Z</time>
      </trkpt>
      <trkpt lat="41.660996780" lon="2.593078370">
        <ele>629.60</ele>
        <time>2014-04-06T09:50:01Z</time>
      </trkpt>
      <trkpt lat="41.660995110" lon="2.593076690">
        <ele>629.60</ele>
        <time>2014-04-06T09:50:02Z</time>
      </trkpt>
      <trkpt lat="41.660991750" lon="2.593076690">
        <ele>629.60</ele>
        <time>2014-04-06T09:50:03Z</time>
      </trkpt>
      <trkpt lat="41.660990080" lon="2.593075010">
        <ele>629.70</ele>
        <time>2014-04-06T09:50:04Z</time>
      </trkpt>
      <trkpt lat="41.660988400" lon="2.593075010">
        <ele>629.60</ele>
        <time>2014-04-06T09:50:05Z</time>
      </trkpt>
      <trkpt lat="41.660985050" lon="2.593073340">
        <ele>629.50</ele>
        <time>2014-04-06T09:50:06Z</time>
      </trkpt>
      <trkpt lat="41.660983370" lon="2.593073340">
        <ele>629.50</ele>
        <time>2014-04-06T09:50:07Z</time>
      </trkpt>
      <trkpt lat="41.660980020" lon="2.593071830">
        <ele>629.10</ele>
        <time>2014-04-06T09:50:08Z</time>
      </trkpt>
      <trkpt lat="41.660978340" lon="2.593071830">
        <ele>628.70</ele>
        <time>2014-04-06T09:50:09Z</time>
      </trkpt>
      <trkpt lat="41.660976670" lon="2.593070150">
        <ele>628.90</ele>
        <time>2014-04-06T09:50:10Z</time>
      </trkpt>
      <trkpt lat="41.660973480" lon="2.593070150">
        <ele>629.00</ele>
        <time>2014-04-06T09:50:11Z</time>
      </trkpt>
      <trkpt lat="41.660971800" lon="2.593068480">
        <ele>628.80</ele>
        <time>2014-04-06T09:50:12Z</time>
      </trkpt>
      <trkpt lat="41.660970130" lon="2.593068480">
        <ele>628.60</ele>
        <time>2014-04-06T09:50:13Z</time>
      </trkpt>
      <trkpt lat="41.660966780" lon="2.593066800">
        <ele>628.50</ele>
        <time>2014-04-06T09:50:14Z</time>
      </trkpt>
      <trkpt lat="41.660960070" lon="2.593063450">
        <ele>628.70</ele>
        <time>2014-04-06T09:50:15Z</time>
      </trkpt>
      <trkpt lat="41.660953360" lon="2.593061770">
        <ele>628.80</ele>
        <time>2014-04-06T09:50:16Z</time>
      </trkpt>
      <trkpt lat="41.660948330" lon="2.593058420">
        <ele>629.10</ele>
        <time>2014-04-06T09:50:17Z</time>
      </trkpt>
      <trkpt lat="41.660945150" lon="2.593056740">
        <ele>629.20</ele>
        <time>2014-04-06T09:50:18Z</time>
      </trkpt>
      <trkpt lat="41.660943470" lon="2.593056740">
        <ele>629.30</ele>
        <time>2014-04-06T09:50:19Z</time>
      </trkpt>
      <trkpt lat="41.660943470" lon="2.593056740">
        <ele>629.30</ele>
        <time>2014-04-06T09:50:20Z</time>
      </trkpt>
      <trkpt lat="41.660941800" lon="2.593056740">
        <ele>629.40</ele>
        <time>2014-04-06T09:50:21Z</time>
      </trkpt>
      <trkpt lat="41.660940120" lon="2.593056740">
        <ele>629.80</ele>
        <time>2014-04-06T09:50:22Z</time>
      </trkpt>
      <trkpt lat="41.660940120" lon="2.593055060">
        <ele>630.00</ele>
        <time>2014-04-06T09:50:23Z</time>
      </trkpt>
      <trkpt lat="41.660938440" lon="2.593055060">
        <ele>630.10</ele>
        <time>2014-04-06T09:50:24Z</time>
      </trkpt>
      <trkpt lat="41.660936770" lon="2.593055060">
        <ele>630.10</ele>
        <time>2014-04-06T09:50:25Z</time>
      </trkpt>
      <trkpt lat="41.660935090" lon="2.593053390">
        <ele>630.10</ele>
        <time>2014-04-06T09:50:26Z</time>
      </trkpt>
      <trkpt lat="41.660925030" lon="2.593050040">
        <ele>630.00</ele>
        <time>2014-04-06T09:50:27Z</time>
      </trkpt>
      <trkpt lat="41.660920000" lon="2.593048360">
        <ele>629.80</ele>
        <time>2014-04-06T09:50:28Z</time>
      </trkpt>
      <trkpt lat="41.660915140" lon="2.593046680">
        <ele>629.80</ele>
        <time>2014-04-06T09:50:29Z</time>
      </trkpt>
      <trkpt lat="41.660915140" lon="2.593046680">
        <ele>629.80</ele>
        <time>2014-04-06T09:50:30Z</time>
      </trkpt>
      <trkpt lat="41.660915140" lon="2.593046680">
        <ele>630.00</ele>
        <time>2014-04-06T09:50:31Z</time>
      </trkpt>
      <trkpt lat="41.660913470" lon="2.593045010">
        <ele>630.10</ele>
        <time>2014-04-06T09:50:32Z</time>
      </trkpt>
      <trkpt lat="41.660910110" lon="2.593043330">
        <ele>630.30</ele>
        <time>2014-04-06T09:50:33Z</time>
      </trkpt>
      <trkpt lat="41.660906760" lon="2.593043330">
        <ele>629.90</ele>
        <time>2014-04-06T09:50:34Z</time>
      </trkpt>
      <trkpt lat="41.660906760" lon="2.593043330">
        <ele>629.60</ele>
        <time>2014-04-06T09:50:35Z</time>
      </trkpt>
      <trkpt lat="41.660906760" lon="2.593043330">
        <ele>629.40</ele>
        <time>2014-04-06T09:50:36Z</time>
      </trkpt>
      <trkpt lat="41.660905080" lon="2.593041820">
        <ele>629.30</ele>
        <time>2014-04-06T09:50:37Z</time>
      </trkpt>
      <trkpt lat="41.660903410" lon="2.593041820">
        <ele>629.10</ele>
        <time>2014-04-06T09:50:38Z</time>
      </trkpt>
      <trkpt lat="41.660901730" lon="2.593041820">
        <ele>629.00</ele>
        <time>2014-04-06T09:50:39Z</time>
      </trkpt>
      <trkpt lat="41.660900060" lon="2.593040140">
        <ele>628.90</ele>
        <time>2014-04-06T09:50:40Z</time>
      </trkpt>
      <trkpt lat="41.660896700" lon="2.593040140">
        <ele>629.00</ele>
        <time>2014-04-06T09:50:41Z</time>
      </trkpt>
      <trkpt lat="41.660895030" lon="2.593038470">
        <ele>629.00</ele>
        <time>2014-04-06T09:50:42Z</time>
      </trkpt>
      <trkpt lat="41.660891670" lon="2.593036790">
        <ele>629.60</ele>
        <time>2014-04-06T09:50:43Z</time>
      </trkpt>
      <trkpt lat="41.660895030" lon="2.593038470">
        <ele>630.10</ele>
        <time>2014-04-06T09:50:44Z</time>
      </trkpt>
      <trkpt lat="41.660895030" lon="2.593038470">
        <ele>630.40</ele>
        <time>2014-04-06T09:50:45Z</time>
      </trkpt>
      <trkpt lat="41.660895030" lon="2.593038470">
        <ele>630.30</ele>
        <time>2014-04-06T09:50:46Z</time>
      </trkpt>
      <trkpt lat="41.660893350" lon="2.593038470">
        <ele>630.20</ele>
        <time>2014-04-06T09:50:47Z</time>
      </trkpt>
      <trkpt lat="41.660895030" lon="2.593038470">
        <ele>630.00</ele>
        <time>2014-04-06T09:50:48Z</time>
      </trkpt>
      <trkpt lat="41.660895030" lon="2.593038470">
        <ele>629.80</ele>
        <time>2014-04-06T09:50:49Z</time>
      </trkpt>
      <trkpt lat="41.660895030" lon="2.593038470">
        <ele>629.30</ele>
        <time>2014-04-06T09:50:50Z</time>
      </trkpt>
      <trkpt lat="41.660895030" lon="2.593040140">
        <ele>629.00</ele>
        <time>2014-04-06T09:50:51Z</time>
      </trkpt>
      <trkpt lat="41.660896700" lon="2.593040140">
        <ele>628.70</ele>
        <time>2014-04-06T09:50:52Z</time>
      </trkpt>
      <trkpt lat="41.660896700" lon="2.593040140">
        <ele>629.00</ele>
        <time>2014-04-06T09:50:53Z</time>
      </trkpt>
      <trkpt lat="41.660898380" lon="2.593040140">
        <ele>629.20</ele>
        <time>2014-04-06T09:50:54Z</time>
      </trkpt>
      <trkpt lat="41.660898380" lon="2.593040140">
        <ele>629.40</ele>
        <time>2014-04-06T09:50:55Z</time>
      </trkpt>
      <trkpt lat="41.660900060" lon="2.593041820">
        <ele>629.60</ele>
        <time>2014-04-06T09:50:56Z</time>
      </trkpt>
      <trkpt lat="41.660900060" lon="2.593041820">
        <ele>629.80</ele>
        <time>2014-04-06T09:50:57Z</time>
      </trkpt>
      <trkpt lat="41.660900060" lon="2.593041820">
        <ele>629.90</ele>
        <time>2014-04-06T09:50:58Z</time>
      </trkpt>
      <trkpt lat="41.660901730" lon="2.593041820">
        <ele>630.00</ele>
        <time>2014-04-06T09:50:59Z</time>
      </trkpt>
      <trkpt lat="41.660901730" lon="2.593041820">
        <ele>629.90</ele>
        <time>2014-04-06T09:51:00Z</time>
      </trkpt>
      <trkpt lat="41.660901730" lon="2.593041820">
        <ele>629.80</ele>
        <time>2014-04-06T09:51:01Z</time>
      </trkpt>
      <trkpt lat="41.660901730" lon="2.593041820">
        <ele>629.90</ele>
        <time>2014-04-06T09:51:02Z</time>
      </trkpt>
      <trkpt lat="41.660901730" lon="2.593041820">
        <ele>630.00</ele>
        <time>2014-04-06T09:51:03Z</time>
      </trkpt>
      <trkpt lat="41.660901730" lon="2.593043330">
        <ele>629.90</ele>
        <time>2014-04-06T09:51:04Z</time>
      </trkpt>
      <trkpt lat="41.660903410" lon="2.593043330">
        <ele>629.90</ele>
        <time>2014-04-06T09:51:05Z</time>
      </trkpt>
      <trkpt lat="41.660903410" lon="2.593043330">
        <ele>629.80</ele>
        <time>2014-04-06T09:51:06Z</time>
      </trkpt>
      <trkpt lat="41.660903410" lon="2.593043330">
        <ele>629.80</ele>
        <time>2014-04-06T09:51:07Z</time>
      </trkpt>
      <trkpt lat="41.660903410" lon="2.593043330">
        <ele>629.80</ele>
        <time>2014-04-06T09:51:08Z</time>
      </trkpt>
      <trkpt lat="41.660903410" lon="2.593043330">
        <ele>629.70</ele>
        <time>2014-04-06T09:51:09Z</time>
      </trkpt>
      <trkpt lat="41.660903410" lon="2.593043330">
        <ele>629.60</ele>
        <time>2014-04-06T09:51:10Z</time>
      </trkpt>
      <trkpt lat="41.660903410" lon="2.593043330">
        <ele>629.50</ele>
        <time>2014-04-06T09:51:11Z</time>
      </trkpt>
      <trkpt lat="41.660903410" lon="2.593043330">
        <ele>629.60</ele>
        <time>2014-04-06T09:51:12Z</time>
      </trkpt>
      <trkpt lat="41.660903410" lon="2.593043330">
        <ele>629.60</ele>
        <time>2014-04-06T09:51:13Z</time>
      </trkpt>
      <trkpt lat="41.660903410" lon="2.593045010">
        <ele>629.40</ele>
        <time>2014-04-06T09:51:14Z</time>
      </trkpt>
      <trkpt lat="41.660903410" lon="2.593045010">
        <ele>629.30</ele>
        <time>2014-04-06T09:51:15Z</time>
      </trkpt>
      <trkpt lat="41.660903410" lon="2.593045010">
        <ele>629.40</ele>
        <time>2014-04-06T09:51:16Z</time>
      </trkpt>
      <trkpt lat="41.660905080" lon="2.593045010">
        <ele>629.40</ele>
        <time>2014-04-06T09:51:17Z</time>
      </trkpt>
      <trkpt lat="41.660905080" lon="2.593045010">
        <ele>629.40</ele>
        <time>2014-04-06T09:51:18Z</time>
      </trkpt>
      <trkpt lat="41.660905080" lon="2.593046680">
        <ele>629.30</ele>
        <time>2014-04-06T09:51:19Z</time>
      </trkpt>
      <trkpt lat="41.660905080" lon="2.593046680">
        <ele>629.30</ele>
        <time>2014-04-06T09:51:20Z</time>
      </trkpt>
      <trkpt lat="41.660905080" lon="2.593046680">
        <ele>629.30</ele>
        <time>2014-04-06T09:51:21Z</time>
      </trkpt>
      <trkpt lat="41.660905080" lon="2.593046680">
        <ele>629.30</ele>
        <time>2014-04-06T09:51:22Z</time>
      </trkpt>
      <trkpt lat="41.660905080" lon="2.593046680">
        <ele>629.30</ele>
        <time>2014-04-06T09:51:23Z</time>
      </trkpt>
      <trkpt lat="41.660905080" lon="2.593046680">
        <ele>629.30</ele>
        <time>2014-04-06T09:51:24Z</time>
      </trkpt>
      <trkpt lat="41.660905080" lon="2.593046680">
        <ele>629.40</ele>
        <time>2014-04-06T09:51:25Z</time>
      </trkpt>
      <trkpt lat="41.660905080" lon="2.593048360">
        <ele>629.50</ele>
        <time>2014-04-06T09:51:26Z</time>
      </trkpt>
      <trkpt lat="41.660905080" lon="2.593048360">
        <ele>629.70</ele>
        <time>2014-04-06T09:51:27Z</time>
      </trkpt>
      <trkpt lat="41.660905080" lon="2.593048360">
        <ele>630.00</ele>
        <time>2014-04-06T09:51:28Z</time>
      </trkpt>
      <trkpt lat="41.660906760" lon="2.593048360">
        <ele>630.20</ele>
        <time>2014-04-06T09:51:29Z</time>
      </trkpt>
      <trkpt lat="41.660906760" lon="2.593050040">
        <ele>630.30</ele>
        <time>2014-04-06T09:51:30Z</time>
      </trkpt>
      <trkpt lat="41.660906760" lon="2.593050040">
        <ele>629.90</ele>
        <time>2014-04-06T09:51:31Z</time>
      </trkpt>
      <trkpt lat="41.660906760" lon="2.593050040">
        <ele>629.60</ele>
        <time>2014-04-06T09:51:32Z</time>
      </trkpt>
      <trkpt lat="41.660906760" lon="2.593050040">
        <ele>629.50</ele>
        <time>2014-04-06T09:51:33Z</time>
      </trkpt>
      <trkpt lat="41.660906760" lon="2.593050040">
        <ele>629.40</ele>
        <time>2014-04-06T09:51:34Z</time>
      </trkpt>
      <trkpt lat="41.660906760" lon="2.593051710">
        <ele>629.40</ele>
        <time>2014-04-06T09:51:35Z</time>
      </trkpt>
      <trkpt lat="41.660906760" lon="2.593051710">
        <ele>629.40</ele>
        <time>2014-04-06T09:51:36Z</time>
      </trkpt>
      <trkpt lat="41.660906760" lon="2.593051710">
        <ele>629.30</ele>
        <time>2014-04-06T09:51:37Z</time>
      </trkpt>
      <trkpt lat="41.660906760" lon="2.593051710">
        <ele>629.30</ele>
        <time>2014-04-06T09:51:38Z</time>
      </trkpt>
      <trkpt lat="41.660906760" lon="2.593051710">
        <ele>629.20</ele>
        <time>2014-04-06T09:51:39Z</time>
      </trkpt>
      <trkpt lat="41.660908440" lon="2.593053390">
        <ele>629.60</ele>
        <time>2014-04-06T09:51:40Z</time>
      </trkpt>
      <trkpt lat="41.660908440" lon="2.593053390">
        <ele>629.80</ele>
        <time>2014-04-06T09:51:41Z</time>
      </trkpt>
      <trkpt lat="41.660908440" lon="2.593053390">
        <ele>629.90</ele>
        <time>2014-04-06T09:51:42Z</time>
      </trkpt>
      <trkpt lat="41.660908440" lon="2.593053390">
        <ele>630.00</ele>
        <time>2014-04-06T09:51:43Z</time>
      </trkpt>
      <trkpt lat="41.660908440" lon="2.593053390">
        <ele>630.10</ele>
        <time>2014-04-06T09:51:44Z</time>
      </trkpt>
      <trkpt lat="41.660908440" lon="2.593055060">
        <ele>630.10</ele>
        <time>2014-04-06T09:51:45Z</time>
      </trkpt>
      <trkpt lat="41.660908440" lon="2.593055060">
        <ele>630.00</ele>
        <time>2014-04-06T09:51:46Z</time>
      </trkpt>
      <trkpt lat="41.660908440" lon="2.593055060">
        <ele>630.00</ele>
        <time>2014-04-06T09:51:47Z</time>
      </trkpt>
      <trkpt lat="41.660908440" lon="2.593055060">
        <ele>630.00</ele>
        <time>2014-04-06T09:51:48Z</time>
      </trkpt>
      <trkpt lat="41.660908440" lon="2.593055060">
        <ele>630.00</ele>
        <time>2014-04-06T09:51:49Z</time>
      </trkpt>
      <trkpt lat="41.660908440" lon="2.593055060">
        <ele>630.30</ele>
        <time>2014-04-06T09:51:50Z</time>
      </trkpt>
      <trkpt lat="41.660910110" lon="2.593056740">
        <ele>630.60</ele>
        <time>2014-04-06T09:51:51Z</time>
      </trkpt>
      <trkpt lat="41.660910110" lon="2.593056740">
        <ele>630.60</ele>
        <time>2014-04-06T09:51:52Z</time>
      </trkpt>
      <trkpt lat="41.660910110" lon="2.593056740">
        <ele>630.60</ele>
        <time>2014-04-06T09:51:53Z</time>
      </trkpt>
      <trkpt lat="41.660910110" lon="2.593056740">
        <ele>630.60</ele>
        <time>2014-04-06T09:51:54Z</time>
      </trkpt>
      <trkpt lat="41.660910110" lon="2.593056740">
        <ele>630.70</ele>
        <time>2014-04-06T09:51:55Z</time>
      </trkpt>
      <trkpt lat="41.660910110" lon="2.593056740">
        <ele>630.70</ele>
        <time>2014-04-06T09:51:56Z</time>
      </trkpt>
      <trkpt lat="41.660911790" lon="2.593056740">
        <ele>630.60</ele>
        <time>2014-04-06T09:51:57Z</time>
      </trkpt>
      <trkpt lat="41.660911790" lon="2.593058420">
        <ele>630.50</ele>
        <time>2014-04-06T09:51:58Z</time>
      </trkpt>
      <trkpt lat="41.660911790" lon="2.593058420">
        <ele>630.30</ele>
        <time>2014-04-06T09:51:59Z</time>
      </trkpt>
      <trkpt lat="41.660911790" lon="2.593058420">
        <ele>630.20</ele>
        <time>2014-04-06T09:52:00Z</time>
      </trkpt>
      <trkpt lat="41.660911790" lon="2.593058420">
        <ele>630.40</ele>
        <time>2014-04-06T09:52:01Z</time>
      </trkpt>
      <trkpt lat="41.660911790" lon="2.593058420">
        <ele>630.50</ele>
        <time>2014-04-06T09:52:02Z</time>
      </trkpt>
      <trkpt lat="41.660911790" lon="2.593058420">
        <ele>630.70</ele>
        <time>2014-04-06T09:52:03Z</time>
      </trkpt>
      <trkpt lat="41.660911790" lon="2.593058420">
        <ele>630.70</ele>
        <time>2014-04-06T09:52:04Z</time>
      </trkpt>
      <trkpt lat="41.660913470" lon="2.593058420">
        <ele>630.80</ele>
        <time>2014-04-06T09:52:05Z</time>
      </trkpt>
      <trkpt lat="41.660913470" lon="2.593058420">
        <ele>630.40</ele>
        <time>2014-04-06T09:52:06Z</time>
      </trkpt>
      <trkpt lat="41.660913470" lon="2.593060090">
        <ele>630.10</ele>
        <time>2014-04-06T09:52:07Z</time>
      </trkpt>
      <trkpt lat="41.660913470" lon="2.593060090">
        <ele>629.90</ele>
        <time>2014-04-06T09:52:08Z</time>
      </trkpt>
      <trkpt lat="41.660913470" lon="2.593060090">
        <ele>630.10</ele>
        <time>2014-04-06T09:52:09Z</time>
      </trkpt>
      <trkpt lat="41.660913470" lon="2.593060090">
        <ele>630.20</ele>
        <time>2014-04-06T09:52:10Z</time>
      </trkpt>
      <trkpt lat="41.660915140" lon="2.593060090">
        <ele>630.10</ele>
        <time>2014-04-06T09:52:11Z</time>
      </trkpt>
      <trkpt lat="41.660915140" lon="2.593060090">
        <ele>630.10</ele>
        <time>2014-04-06T09:52:12Z</time>
      </trkpt>
      <trkpt lat="41.660915140" lon="2.593060090">
        <ele>630.00</ele>
        <time>2014-04-06T09:52:13Z</time>
      </trkpt>
      <trkpt lat="41.660915140" lon="2.593060090">
        <ele>629.90</ele>
        <time>2014-04-06T09:52:14Z</time>
      </trkpt>
      <trkpt lat="41.660915140" lon="2.593060090">
        <ele>629.80</ele>
        <time>2014-04-06T09:52:15Z</time>
      </trkpt>
      <trkpt lat="41.660915140" lon="2.593060090">
        <ele>630.00</ele>
        <time>2014-04-06T09:52:16Z</time>
      </trkpt>
      <trkpt lat="41.660915140" lon="2.593060090">
        <ele>630.20</ele>
        <time>2014-04-06T09:52:17Z</time>
      </trkpt>
      <trkpt lat="41.660915140" lon="2.593060090">
        <ele>630.70</ele>
        <time>2014-04-06T09:52:18Z</time>
      </trkpt>
      <trkpt lat="41.660915140" lon="2.593060090">
        <ele>631.10</ele>
        <time>2014-04-06T09:52:19Z</time>
      </trkpt>
      <trkpt lat="41.660915140" lon="2.593060090">
        <ele>630.80</ele>
        <time>2014-04-06T09:52:20Z</time>
      </trkpt>
      <trkpt lat="41.660915140" lon="2.593058420">
        <ele>630.70</ele>
        <time>2014-04-06T09:52:21Z</time>
      </trkpt>
      <trkpt lat="41.660915140" lon="2.593058420">
        <ele>630.60</ele>
        <time>2014-04-06T09:52:22Z</time>
      </trkpt>
      <trkpt lat="41.660915140" lon="2.593058420">
        <ele>630.30</ele>
        <time>2014-04-06T09:52:23Z</time>
      </trkpt>
      <trkpt lat="41.660915140" lon="2.593058420">
        <ele>630.10</ele>
        <time>2014-04-06T09:52:24Z</time>
      </trkpt>
      <trkpt lat="41.660915140" lon="2.593058420">
        <ele>630.50</ele>
        <time>2014-04-06T09:52:25Z</time>
      </trkpt>
      <trkpt lat="41.660915140" lon="2.593058420">
        <ele>630.80</ele>
        <time>2014-04-06T09:52:26Z</time>
      </trkpt>
      <trkpt lat="41.660915140" lon="2.593056740">
        <ele>631.00</ele>
        <time>2014-04-06T09:52:27Z</time>
      </trkpt>
      <trkpt lat="41.660913470" lon="2.593056740">
        <ele>630.70</ele>
        <time>2014-04-06T09:52:28Z</time>
      </trkpt>
      <trkpt lat="41.660913470" lon="2.593056740">
        <ele>630.40</ele>
        <time>2014-04-06T09:52:29Z</time>
      </trkpt>
      <trkpt lat="41.660913470" lon="2.593056740">
        <ele>630.40</ele>
        <time>2014-04-06T09:52:30Z</time>
      </trkpt>
      <trkpt lat="41.660913470" lon="2.593056740">
        <ele>630.40</ele>
        <time>2014-04-06T09:52:31Z</time>
      </trkpt>
      <trkpt lat="41.660913470" lon="2.593056740">
        <ele>630.20</ele>
        <time>2014-04-06T09:52:32Z</time>
      </trkpt>
      <trkpt lat="41.660911790" lon="2.593056740">
        <ele>630.00</ele>
        <time>2014-04-06T09:52:33Z</time>
      </trkpt>
      <trkpt lat="41.660911790" lon="2.593056740">
        <ele>629.90</ele>
        <time>2014-04-06T09:52:34Z</time>
      </trkpt>
      <trkpt lat="41.660911790" lon="2.593056740">
        <ele>630.30</ele>
        <time>2014-04-06T09:52:35Z</time>
      </trkpt>
      <trkpt lat="41.660911790" lon="2.593056740">
        <ele>630.50</ele>
        <time>2014-04-06T09:52:36Z</time>
      </trkpt>
      <trkpt lat="41.660910110" lon="2.593056740">
        <ele>630.50</ele>
        <time>2014-04-06T09:52:37Z</time>
      </trkpt>
      <trkpt lat="41.660910110" lon="2.593055060">
        <ele>630.50</ele>
        <time>2014-04-06T09:52:38Z</time>
      </trkpt>
      <trkpt lat="41.660910110" lon="2.593055060">
        <ele>630.50</ele>
        <time>2014-04-06T09:52:39Z</time>
      </trkpt>
      <trkpt lat="41.660910110" lon="2.593055060">
        <ele>630.40</ele>
        <time>2014-04-06T09:52:40Z</time>
      </trkpt>
      <trkpt lat="41.660908440" lon="2.593055060">
        <ele>630.30</ele>
        <time>2014-04-06T09:52:41Z</time>
      </trkpt>
      <trkpt lat="41.660908440" lon="2.593055060">
        <ele>630.60</ele>
        <time>2014-04-06T09:52:42Z</time>
      </trkpt>
      <trkpt lat="41.660908440" lon="2.593053390">
        <ele>630.70</ele>
        <time>2014-04-06T09:52:43Z</time>
      </trkpt>
      <trkpt lat="41.660908440" lon="2.593053390">
        <ele>630.70</ele>
        <time>2014-04-06T09:52:44Z</time>
      </trkpt>
      <trkpt lat="41.660908440" lon="2.593053390">
        <ele>630.80</ele>
        <time>2014-04-06T09:52:45Z</time>
      </trkpt>
      <trkpt lat="41.660908440" lon="2.593053390">
        <ele>630.80</ele>
        <time>2014-04-06T09:52:46Z</time>
      </trkpt>
      <trkpt lat="41.660906760" lon="2.593053390">
        <ele>630.90</ele>
        <time>2014-04-06T09:52:47Z</time>
      </trkpt>
      <trkpt lat="41.660906760" lon="2.593053390">
        <ele>630.90</ele>
        <time>2014-04-06T09:52:48Z</time>
      </trkpt>
      <trkpt lat="41.660906760" lon="2.593053390">
        <ele>630.70</ele>
        <time>2014-04-06T09:52:49Z</time>
      </trkpt>
      <trkpt lat="41.660906760" lon="2.593053390">
        <ele>630.60</ele>
        <time>2014-04-06T09:52:50Z</time>
      </trkpt>
      <trkpt lat="41.660906760" lon="2.593053390">
        <ele>630.30</ele>
        <time>2014-04-06T09:52:51Z</time>
      </trkpt>
      <trkpt lat="41.660906760" lon="2.593053390">
        <ele>630.10</ele>
        <time>2014-04-06T09:52:52Z</time>
      </trkpt>
      <trkpt lat="41.660906760" lon="2.593051710">
        <ele>630.00</ele>
        <time>2014-04-06T09:52:53Z</time>
      </trkpt>
      <trkpt lat="41.660906760" lon="2.593051710">
        <ele>630.20</ele>
        <time>2014-04-06T09:52:54Z</time>
      </trkpt>
      <trkpt lat="41.660906760" lon="2.593051710">
        <ele>630.40</ele>
        <time>2014-04-06T09:52:55Z</time>
      </trkpt>
      <trkpt lat="41.660906760" lon="2.593051710">
        <ele>630.80</ele>
        <time>2014-04-06T09:52:56Z</time>
      </trkpt>
      <trkpt lat="41.660906760" lon="2.593051710">
        <ele>631.00</ele>
        <time>2014-04-06T09:52:57Z</time>
      </trkpt>
      <trkpt lat="41.660906760" lon="2.593051710">
        <ele>631.00</ele>
        <time>2014-04-06T09:52:58Z</time>
      </trkpt>
      <trkpt lat="41.660908440" lon="2.593051710">
        <ele>631.00</ele>
        <time>2014-04-06T09:52:59Z</time>
      </trkpt>
      <trkpt lat="41.660908440" lon="2.593051710">
        <ele>630.90</ele>
        <time>2014-04-06T09:53:00Z</time>
      </trkpt>
      <trkpt lat="41.660908440" lon="2.593051710">
        <ele>630.70</ele>
        <time>2014-04-06T09:53:01Z</time>
      </trkpt>
      <trkpt lat="41.660908440" lon="2.593051710">
        <ele>630.60</ele>
        <time>2014-04-06T09:53:02Z</time>
      </trkpt>
      <trkpt lat="41.660908440" lon="2.593051710">
        <ele>630.20</ele>
        <time>2014-04-06T09:53:03Z</time>
      </trkpt>
      <trkpt lat="41.660908440" lon="2.593051710">
        <ele>630.00</ele>
        <time>2014-04-06T09:53:04Z</time>
      </trkpt>
      <trkpt lat="41.660908440" lon="2.593051710">
        <ele>629.80</ele>
        <time>2014-04-06T09:53:05Z</time>
      </trkpt>
      <trkpt lat="41.660908440" lon="2.593050040">
        <ele>629.80</ele>
        <time>2014-04-06T09:53:06Z</time>
      </trkpt>
      <trkpt lat="41.660908440" lon="2.593050040">
        <ele>629.70</ele>
        <time>2014-04-06T09:53:07Z</time>
      </trkpt>
      <trkpt lat="41.660908440" lon="2.593050040">
        <ele>630.20</ele>
        <time>2014-04-06T09:53:08Z</time>
      </trkpt>
      <trkpt lat="41.660908440" lon="2.593050040">
        <ele>630.60</ele>
        <time>2014-04-06T09:53:09Z</time>
      </trkpt>
      <trkpt lat="41.660908440" lon="2.593050040">
        <ele>630.90</ele>
        <time>2014-04-06T09:53:10Z</time>
      </trkpt>
      <trkpt lat="41.660906760" lon="2.593050040">
        <ele>631.20</ele>
        <time>2014-04-06T09:53:11Z</time>
      </trkpt>
      <trkpt lat="41.660903410" lon="2.593048360">
        <ele>631.40</ele>
        <time>2014-04-06T09:53:12Z</time>
      </trkpt>
      <trkpt lat="41.660901730" lon="2.593048360">
        <ele>631.20</ele>
        <time>2014-04-06T09:53:13Z</time>
      </trkpt>
      <trkpt lat="41.660903410" lon="2.593048360">
        <ele>631.00</ele>
        <time>2014-04-06T09:53:14Z</time>
      </trkpt>
      <trkpt lat="41.660901730" lon="2.593048360">
        <ele>631.00</ele>
        <time>2014-04-06T09:53:15Z</time>
      </trkpt>
      <trkpt lat="41.660900060" lon="2.593046680">
        <ele>630.90</ele>
        <time>2014-04-06T09:53:16Z</time>
      </trkpt>
      <trkpt lat="41.660896700" lon="2.593045010">
        <ele>630.60</ele>
        <time>2014-04-06T09:53:17Z</time>
      </trkpt>
      <trkpt lat="41.660895030" lon="2.593045010">
        <ele>630.30</ele>
        <time>2014-04-06T09:53:18Z</time>
      </trkpt>
      <trkpt lat="41.660891670" lon="2.593043330">
        <ele>630.10</ele>
        <time>2014-04-06T09:53:19Z</time>
      </trkpt>
      <trkpt lat="41.660888490" lon="2.593041820">
        <ele>630.40</ele>
        <time>2014-04-06T09:53:20Z</time>
      </trkpt>
      <trkpt lat="41.660888490" lon="2.593041820">
        <ele>630.70</ele>
        <time>2014-04-06T09:53:21Z</time>
      </trkpt>
      <trkpt lat="41.660883460" lon="2.593040140">
        <ele>630.60</ele>
        <time>2014-04-06T09:53:22Z</time>
      </trkpt>
      <trkpt lat="41.660880110" lon="2.593038470">
        <ele>630.50</ele>
        <time>2014-04-06T09:53:23Z</time>
      </trkpt>
      <trkpt lat="41.660878430" lon="2.593038470">
        <ele>630.40</ele>
        <time>2014-04-06T09:53:24Z</time>
      </trkpt>
      <trkpt lat="41.660878430" lon="2.593038470">
        <ele>630.30</ele>
        <time>2014-04-06T09:53:25Z</time>
      </trkpt>
      <trkpt lat="41.660876750" lon="2.593036790">
        <ele>630.20</ele>
        <time>2014-04-06T09:53:26Z</time>
      </trkpt>
      <trkpt lat="41.660876750" lon="2.593036790">
        <ele>629.90</ele>
        <time>2014-04-06T09:53:27Z</time>
      </trkpt>
      <trkpt lat="41.660876750" lon="2.593036790">
        <ele>629.70</ele>
        <time>2014-04-06T09:53:28Z</time>
      </trkpt>
      <trkpt lat="41.660875080" lon="2.593036790">
        <ele>629.90</ele>
        <time>2014-04-06T09:53:29Z</time>
      </trkpt>
      <trkpt lat="41.660875080" lon="2.593036790">
        <ele>630.10</ele>
        <time>2014-04-06T09:53:30Z</time>
      </trkpt>
      <trkpt lat="41.660875080" lon="2.593036790">
        <ele>630.20</ele>
        <time>2014-04-06T09:53:31Z</time>
      </trkpt>
      <trkpt lat="41.660873400" lon="2.593036790">
        <ele>629.90</ele>
        <time>2014-04-06T09:53:32Z</time>
      </trkpt>
      <trkpt lat="41.660873400" lon="2.593036790">
        <ele>629.80</ele>
        <time>2014-04-06T09:53:33Z</time>
      </trkpt>
      <trkpt lat="41.660873400" lon="2.593036790">
        <ele>630.00</ele>
        <time>2014-04-06T09:53:34Z</time>
      </trkpt>
      <trkpt lat="41.660871720" lon="2.593036790">
        <ele>630.20</ele>
        <time>2014-04-06T09:53:35Z</time>
      </trkpt>
      <trkpt lat="41.660871720" lon="2.593036790">
        <ele>630.40</ele>
        <time>2014-04-06T09:53:36Z</time>
      </trkpt>
      <trkpt lat="41.660871720" lon="2.593036790">
        <ele>630.50</ele>
        <time>2014-04-06T09:53:37Z</time>
      </trkpt>
      <trkpt lat="41.660870050" lon="2.593036790">
        <ele>630.60</ele>
        <time>2014-04-06T09:53:38Z</time>
      </trkpt>
      <trkpt lat="41.660870050" lon="2.593035120">
        <ele>630.40</ele>
        <time>2014-04-06T09:53:39Z</time>
      </trkpt>
      <trkpt lat="41.660870050" lon="2.593035120">
        <ele>630.30</ele>
        <time>2014-04-06T09:53:40Z</time>
      </trkpt>
      <trkpt lat="41.660870050" lon="2.593035120">
        <ele>630.30</ele>
        <time>2014-04-06T09:53:41Z</time>
      </trkpt>
      <trkpt lat="41.660868370" lon="2.593036790">
        <ele>630.20</ele>
        <time>2014-04-06T09:53:42Z</time>
      </trkpt>
      <trkpt lat="41.660868370" lon="2.593036790">
        <ele>630.20</ele>
        <time>2014-04-06T09:53:43Z</time>
      </trkpt>
      <trkpt lat="41.660868370" lon="2.593036790">
        <ele>630.50</ele>
        <time>2014-04-06T09:53:44Z</time>
      </trkpt>
      <trkpt lat="41.660866700" lon="2.593036790">
        <ele>630.80</ele>
        <time>2014-04-06T09:53:45Z</time>
      </trkpt>
      <trkpt lat="41.660866700" lon="2.593036790">
        <ele>630.70</ele>
        <time>2014-04-06T09:53:46Z</time>
      </trkpt>
      <trkpt lat="41.660866700" lon="2.593036790">
        <ele>630.60</ele>
        <time>2014-04-06T09:53:47Z</time>
      </trkpt>
      <trkpt lat="41.660865020" lon="2.593036790">
        <ele>630.50</ele>
        <time>2014-04-06T09:53:48Z</time>
      </trkpt>
      <trkpt lat="41.660865020" lon="2.593035120">
        <ele>630.40</ele>
        <time>2014-04-06T09:53:49Z</time>
      </trkpt>
      <trkpt lat="41.660863340" lon="2.593035120">
        <ele>630.40</ele>
        <time>2014-04-06T09:53:50Z</time>
      </trkpt>
      <trkpt lat="41.660863340" lon="2.593035120">
        <ele>630.40</ele>
        <time>2014-04-06T09:53:51Z</time>
      </trkpt>
      <trkpt lat="41.660861670" lon="2.593035120">
        <ele>630.40</ele>
        <time>2014-04-06T09:53:52Z</time>
      </trkpt>
      <trkpt lat="41.660861670" lon="2.593035120">
        <ele>630.40</ele>
        <time>2014-04-06T09:53:53Z</time>
      </trkpt>
      <trkpt lat="41.660860160" lon="2.593035120">
        <ele>630.40</ele>
        <time>2014-04-06T09:53:54Z</time>
      </trkpt>
      <trkpt lat="41.660860160" lon="2.593035120">
        <ele>630.40</ele>
        <time>2014-04-06T09:53:55Z</time>
      </trkpt>
      <trkpt lat="41.660858480" lon="2.593035120">
        <ele>630.50</ele>
        <time>2014-04-06T09:53:56Z</time>
      </trkpt>
      <trkpt lat="41.660856800" lon="2.593035120">
        <ele>630.50</ele>
        <time>2014-04-06T09:53:57Z</time>
      </trkpt>
      <trkpt lat="41.660855130" lon="2.593035120">
        <ele>630.40</ele>
        <time>2014-04-06T09:53:58Z</time>
      </trkpt>
      <trkpt lat="41.660855130" lon="2.593033440">
        <ele>630.30</ele>
        <time>2014-04-06T09:53:59Z</time>
      </trkpt>
      <trkpt lat="41.660853450" lon="2.593033440">
        <ele>630.20</ele>
        <time>2014-04-06T09:54:00Z</time>
      </trkpt>
      <trkpt lat="41.660851780" lon="2.593033440">
        <ele>630.20</ele>
        <time>2014-04-06T09:54:01Z</time>
      </trkpt>
      <trkpt lat="41.660850100" lon="2.593031760">
        <ele>630.20</ele>
        <time>2014-04-06T09:54:02Z</time>
      </trkpt>
      <trkpt lat="41.660848420" lon="2.593031760">
        <ele>630.20</ele>
        <time>2014-04-06T09:54:03Z</time>
      </trkpt>
      <trkpt lat="41.660846750" lon="2.593031760">
        <ele>630.20</ele>
        <time>2014-04-06T09:54:04Z</time>
      </trkpt>
      <trkpt lat="41.660846750" lon="2.593030090">
        <ele>630.40</ele>
        <time>2014-04-06T09:54:05Z</time>
      </trkpt>
      <trkpt lat="41.660845070" lon="2.593030090">
        <ele>630.50</ele>
        <time>2014-04-06T09:54:06Z</time>
      </trkpt>
      <trkpt lat="41.660843390" lon="2.593030090">
        <ele>630.70</ele>
        <time>2014-04-06T09:54:07Z</time>
      </trkpt>
      <trkpt lat="41.660841720" lon="2.593028410">
        <ele>630.80</ele>
        <time>2014-04-06T09:54:08Z</time>
      </trkpt>
      <trkpt lat="41.660840040" lon="2.593028410">
        <ele>630.80</ele>
        <time>2014-04-06T09:54:09Z</time>
      </trkpt>
      <trkpt lat="41.660838360" lon="2.593028410">
        <ele>631.00</ele>
        <time>2014-04-06T09:54:10Z</time>
      </trkpt>
      <trkpt lat="41.660836690" lon="2.593026730">
        <ele>631.20</ele>
        <time>2014-04-06T09:54:11Z</time>
      </trkpt>
      <trkpt lat="41.660836690" lon="2.593026730">
        <ele>631.50</ele>
        <time>2014-04-06T09:54:12Z</time>
      </trkpt>
      <trkpt lat="41.660835010" lon="2.593026730">
        <ele>631.70</ele>
        <time>2014-04-06T09:54:13Z</time>
      </trkpt>
      <trkpt lat="41.660833340" lon="2.593025060">
        <ele>631.80</ele>
        <time>2014-04-06T09:54:14Z</time>
      </trkpt>
      <trkpt lat="41.660831830" lon="2.593025060">
        <ele>631.70</ele>
        <time>2014-04-06T09:54:15Z</time>
      </trkpt>
      <trkpt lat="41.660830150" lon="2.593023380">
        <ele>631.60</ele>
        <time>2014-04-06T09:54:16Z</time>
      </trkpt>
      <trkpt lat="41.660828470" lon="2.593023380">
        <ele>631.50</ele>
        <time>2014-04-06T09:54:17Z</time>
      </trkpt>
      <trkpt lat="41.660826800" lon="2.593023380">
        <ele>631.50</ele>
        <time>2014-04-06T09:54:18Z</time>
      </trkpt>
      <trkpt lat="41.660825120" lon="2.593021700">
        <ele>631.40</ele>
        <time>2014-04-06T09:54:19Z</time>
      </trkpt>
      <trkpt lat="41.660823440" lon="2.593021700">
        <ele>631.30</ele>
        <time>2014-04-06T09:54:20Z</time>
      </trkpt>
      <trkpt lat="41.660823440" lon="2.593020030">
        <ele>631.40</ele>
        <time>2014-04-06T09:54:21Z</time>
      </trkpt>
      <trkpt lat="41.660821770" lon="2.593020030">
        <ele>631.50</ele>
        <time>2014-04-06T09:54:22Z</time>
      </trkpt>
      <trkpt lat="41.660820090" lon="2.593018350">
        <ele>631.60</ele>
        <time>2014-04-06T09:54:23Z</time>
      </trkpt>
      <trkpt lat="41.660821770" lon="2.593020030">
        <ele>631.30</ele>
        <time>2014-04-06T09:54:24Z</time>
      </trkpt>
      <trkpt lat="41.660820090" lon="2.593018350">
        <ele>631.10</ele>
        <time>2014-04-06T09:54:25Z</time>
      </trkpt>
      <trkpt lat="41.660818420" lon="2.593018350">
        <ele>631.10</ele>
        <time>2014-04-06T09:54:26Z</time>
      </trkpt>
      <trkpt lat="41.660816740" lon="2.593018350">
        <ele>631.00</ele>
        <time>2014-04-06T09:54:27Z</time>
      </trkpt>
      <trkpt lat="41.660815060" lon="2.593016680">
        <ele>630.90</ele>
        <time>2014-04-06T09:54:28Z</time>
      </trkpt>
      <trkpt lat="41.660813390" lon="2.593016680">
        <ele>631.00</ele>
        <time>2014-04-06T09:54:29Z</time>
      </trkpt>
      <trkpt lat="41.660815060" lon="2.593016680">
        <ele>631.10</ele>
        <time>2014-04-06T09:54:30Z</time>
      </trkpt>
      <trkpt lat="41.660825120" lon="2.593020030">
        <ele>631.00</ele>
        <time>2014-04-06T09:54:31Z</time>
      </trkpt>
      <trkpt lat="41.660830150" lon="2.593021700">
        <ele>631.00</ele>
        <time>2014-04-06T09:54:32Z</time>
      </trkpt>
      <trkpt lat="41.660831830" lon="2.593023380">
        <ele>630.80</ele>
        <time>2014-04-06T09:54:33Z</time>
      </trkpt>
      <trkpt lat="41.660833340" lon="2.593023380">
        <ele>630.70</ele>
        <time>2014-04-06T09:54:34Z</time>
      </trkpt>
      <trkpt lat="41.660830150" lon="2.593021700">
        <ele>630.60</ele>
        <time>2014-04-06T09:54:35Z</time>
      </trkpt>
      <trkpt lat="41.660830150" lon="2.593021700">
        <ele>630.90</ele>
        <time>2014-04-06T09:54:36Z</time>
      </trkpt>
      <trkpt lat="41.660828470" lon="2.593020030">
        <ele>631.10</ele>
        <time>2014-04-06T09:54:37Z</time>
      </trkpt>
      <trkpt lat="41.660831830" lon="2.593021700">
        <ele>631.10</ele>
        <time>2014-04-06T09:54:38Z</time>
      </trkpt>
      <trkpt lat="41.660835010" lon="2.593023380">
        <ele>631.20</ele>
        <time>2014-04-06T09:54:39Z</time>
      </trkpt>
      <trkpt lat="41.660835010" lon="2.593023380">
        <ele>631.20</ele>
        <time>2014-04-06T09:54:40Z</time>
      </trkpt>
      <trkpt lat="41.660835010" lon="2.593023380">
        <ele>631.10</ele>
        <time>2014-04-06T09:54:41Z</time>
      </trkpt>
      <trkpt lat="41.660835010" lon="2.593023380">
        <ele>631.10</ele>
        <time>2014-04-06T09:54:42Z</time>
      </trkpt>
      <trkpt lat="41.660836690" lon="2.593023380">
        <ele>630.90</ele>
        <time>2014-04-06T09:54:43Z</time>
      </trkpt>
      <trkpt lat="41.660836690" lon="2.593023380">
        <ele>630.80</ele>
        <time>2014-04-06T09:54:44Z</time>
      </trkpt>
      <trkpt lat="41.660836690" lon="2.593023380">
        <ele>630.80</ele>
        <time>2014-04-06T09:54:45Z</time>
      </trkpt>
      <trkpt lat="41.660836690" lon="2.593023380">
        <ele>630.80</ele>
        <time>2014-04-06T09:54:46Z</time>
      </trkpt>
      <trkpt lat="41.660836690" lon="2.593023380">
        <ele>630.80</ele>
        <time>2014-04-06T09:54:47Z</time>
      </trkpt>
      <trkpt lat="41.660836690" lon="2.593023380">
        <ele>630.90</ele>
        <time>2014-04-06T09:54:48Z</time>
      </trkpt>
      <trkpt lat="41.660836690" lon="2.593023380">
        <ele>630.90</ele>
        <time>2014-04-06T09:54:49Z</time>
      </trkpt>
      <trkpt lat="41.660836690" lon="2.593021700">
        <ele>631.10</ele>
        <time>2014-04-06T09:54:50Z</time>
      </trkpt>
      <trkpt lat="41.660838360" lon="2.593021700">
        <ele>631.30</ele>
        <time>2014-04-06T09:54:51Z</time>
      </trkpt>
      <trkpt lat="41.660838360" lon="2.593021700">
        <ele>631.30</ele>
        <time>2014-04-06T09:54:52Z</time>
      </trkpt>
      <trkpt lat="41.660838360" lon="2.593021700">
        <ele>631.40</ele>
        <time>2014-04-06T09:54:53Z</time>
      </trkpt>
      <trkpt lat="41.660838360" lon="2.593021700">
        <ele>631.40</ele>
        <time>2014-04-06T09:54:54Z</time>
      </trkpt>
      <trkpt lat="41.660838360" lon="2.593021700">
        <ele>631.30</ele>
        <time>2014-04-06T09:54:55Z</time>
      </trkpt>
      <trkpt lat="41.660838360" lon="2.593021700">
        <ele>631.20</ele>
        <time>2014-04-06T09:54:56Z</time>
      </trkpt>
      <trkpt lat="41.660838360" lon="2.593021700">
        <ele>631.30</ele>
        <time>2014-04-06T09:54:57Z</time>
      </trkpt>
      <trkpt lat="41.660838360" lon="2.593021700">
        <ele>631.30</ele>
        <time>2014-04-06T09:54:58Z</time>
      </trkpt>
      <trkpt lat="41.660838360" lon="2.593020030">
        <ele>631.30</ele>
        <time>2014-04-06T09:54:59Z</time>
      </trkpt>
      <trkpt lat="41.660838360" lon="2.593020030">
        <ele>631.30</ele>
        <time>2014-04-06T09:55:00Z</time>
      </trkpt>
      <trkpt lat="41.660838360" lon="2.593020030">
        <ele>631.30</ele>
        <time>2014-04-06T09:55:01Z</time>
      </trkpt>
      <trkpt lat="41.660838360" lon="2.593020030">
        <ele>631.20</ele>
        <time>2014-04-06T09:55:02Z</time>
      </trkpt>
      <trkpt lat="41.660838360" lon="2.593020030">
        <ele>631.10</ele>
        <time>2014-04-06T09:55:03Z</time>
      </trkpt>
      <trkpt lat="41.660838360" lon="2.593020030">
        <ele>631.40</ele>
        <time>2014-04-06T09:55:04Z</time>
      </trkpt>
      <trkpt lat="41.660838360" lon="2.593020030">
        <ele>631.60</ele>
        <time>2014-04-06T09:55:05Z</time>
      </trkpt>
      <trkpt lat="41.660838360" lon="2.593020030">
        <ele>631.70</ele>
        <time>2014-04-06T09:55:06Z</time>
      </trkpt>
      <trkpt lat="41.660836690" lon="2.593020030">
        <ele>631.50</ele>
        <time>2014-04-06T09:55:07Z</time>
      </trkpt>
      <trkpt lat="41.660836690" lon="2.593018350">
        <ele>631.40</ele>
        <time>2014-04-06T09:55:08Z</time>
      </trkpt>
      <trkpt lat="41.660836690" lon="2.593018350">
        <ele>631.30</ele>
        <time>2014-04-06T09:55:09Z</time>
      </trkpt>
      <trkpt lat="41.660836690" lon="2.593018350">
        <ele>631.20</ele>
        <time>2014-04-06T09:55:10Z</time>
      </trkpt>
      <trkpt lat="41.660836690" lon="2.593018350">
        <ele>631.70</ele>
        <time>2014-04-06T09:55:11Z</time>
      </trkpt>
      <trkpt lat="41.660836690" lon="2.593018350">
        <ele>632.10</ele>
        <time>2014-04-06T09:55:12Z</time>
      </trkpt>
      <trkpt lat="41.660835010" lon="2.593018350">
        <ele>632.40</ele>
        <time>2014-04-06T09:55:13Z</time>
      </trkpt>
      <trkpt lat="41.660835010" lon="2.593016680">
        <ele>632.10</ele>
        <time>2014-04-06T09:55:14Z</time>
      </trkpt>
      <trkpt lat="41.660835010" lon="2.593016680">
        <ele>631.80</ele>
        <time>2014-04-06T09:55:15Z</time>
      </trkpt>
      <trkpt lat="41.660835010" lon="2.593016680">
        <ele>631.60</ele>
        <time>2014-04-06T09:55:16Z</time>
      </trkpt>
      <trkpt lat="41.660835010" lon="2.593016680">
        <ele>631.50</ele>
        <time>2014-04-06T09:55:17Z</time>
      </trkpt>
      <trkpt lat="41.660835010" lon="2.593015000">
        <ele>631.50</ele>
        <time>2014-04-06T09:55:18Z</time>
      </trkpt>
      <trkpt lat="41.660833340" lon="2.593015000">
        <ele>631.50</ele>
        <time>2014-04-06T09:55:19Z</time>
      </trkpt>
      <trkpt lat="41.660833340" lon="2.593015000">
        <ele>631.50</ele>
        <time>2014-04-06T09:55:20Z</time>
      </trkpt>
      <trkpt lat="41.660833340" lon="2.593015000">
        <ele>631.40</ele>
        <time>2014-04-06T09:55:21Z</time>
      </trkpt>
      <trkpt lat="41.660833340" lon="2.593015000">
        <ele>631.30</ele>
        <time>2014-04-06T09:55:22Z</time>
      </trkpt>
      <trkpt lat="41.660833340" lon="2.593015000">
        <ele>631.30</ele>
        <time>2014-04-06T09:55:23Z</time>
      </trkpt>
      <trkpt lat="41.660833340" lon="2.593015000">
        <ele>631.30</ele>
        <time>2014-04-06T09:55:24Z</time>
      </trkpt>
      <trkpt lat="41.660833340" lon="2.593015000">
        <ele>631.30</ele>
        <time>2014-04-06T09:55:25Z</time>
      </trkpt>
      <trkpt lat="41.660833340" lon="2.593015000">
        <ele>631.30</ele>
        <time>2014-04-06T09:55:26Z</time>
      </trkpt>
      <trkpt lat="41.660833340" lon="2.593015000">
        <ele>631.30</ele>
        <time>2014-04-06T09:55:27Z</time>
      </trkpt>
      <trkpt lat="41.660833340" lon="2.593015000">
        <ele>631.50</ele>
        <time>2014-04-06T09:55:28Z</time>
      </trkpt>
      <trkpt lat="41.660831830" lon="2.593015000">
        <ele>631.70</ele>
        <time>2014-04-06T09:55:29Z</time>
      </trkpt>
      <trkpt lat="41.660831830" lon="2.593015000">
        <ele>631.50</ele>
        <time>2014-04-06T09:55:30Z</time>
      </trkpt>
      <trkpt lat="41.660831830" lon="2.593015000">
        <ele>631.30</ele>
        <time>2014-04-06T09:55:31Z</time>
      </trkpt>
      <trkpt lat="41.660833340" lon="2.593015000">
        <ele>631.20</ele>
        <time>2014-04-06T09:55:32Z</time>
      </trkpt>
      <trkpt lat="41.660833340" lon="2.593015000">
        <ele>631.60</ele>
        <time>2014-04-06T09:55:33Z</time>
      </trkpt>
      <trkpt lat="41.660833340" lon="2.593015000">
        <ele>631.80</ele>
        <time>2014-04-06T09:55:34Z</time>
      </trkpt>
      <trkpt lat="41.660831830" lon="2.593015000">
        <ele>631.80</ele>
        <time>2014-04-06T09:55:35Z</time>
      </trkpt>
      <trkpt lat="41.660831830" lon="2.593015000">
        <ele>631.90</ele>
        <time>2014-04-06T09:55:36Z</time>
      </trkpt>
      <trkpt lat="41.660831830" lon="2.593015000">
        <ele>631.90</ele>
        <time>2014-04-06T09:55:37Z</time>
      </trkpt>
      <trkpt lat="41.660831830" lon="2.593015000">
        <ele>631.90</ele>
        <time>2014-04-06T09:55:38Z</time>
      </trkpt>
      <trkpt lat="41.660831830" lon="2.593015000">
        <ele>631.90</ele>
        <time>2014-04-06T09:55:39Z</time>
      </trkpt>
      <trkpt lat="41.660831830" lon="2.593015000">
        <ele>631.90</ele>
        <time>2014-04-06T09:55:40Z</time>
      </trkpt>
      <trkpt lat="41.660831830" lon="2.593015000">
        <ele>631.90</ele>
        <time>2014-04-06T09:55:41Z</time>
      </trkpt>
      <trkpt lat="41.660831830" lon="2.593015000">
        <ele>631.70</ele>
        <time>2014-04-06T09:55:42Z</time>
      </trkpt>
      <trkpt lat="41.660831830" lon="2.593015000">
        <ele>631.60</ele>
        <time>2014-04-06T09:55:43Z</time>
      </trkpt>
      <trkpt lat="41.660831830" lon="2.593015000">
        <ele>631.60</ele>
        <time>2014-04-06T09:55:44Z</time>
      </trkpt>
      <trkpt lat="41.660831830" lon="2.593015000">
        <ele>631.60</ele>
        <time>2014-04-06T09:55:45Z</time>
      </trkpt>
      <trkpt lat="41.660831830" lon="2.593015000">
        <ele>631.60</ele>
        <time>2014-04-06T09:55:46Z</time>
      </trkpt>
      <trkpt lat="41.660831830" lon="2.593015000">
        <ele>631.70</ele>
        <time>2014-04-06T09:55:47Z</time>
      </trkpt>
      <trkpt lat="41.660830150" lon="2.593015000">
        <ele>631.80</ele>
        <time>2014-04-06T09:55:48Z</time>
      </trkpt>
      <trkpt lat="41.660830150" lon="2.593015000">
        <ele>631.70</ele>
        <time>2014-04-06T09:55:49Z</time>
      </trkpt>
      <trkpt lat="41.660830150" lon="2.593015000">
        <ele>631.70</ele>
        <time>2014-04-06T09:55:50Z</time>
      </trkpt>
      <trkpt lat="41.660830150" lon="2.593015000">
        <ele>631.70</ele>
        <time>2014-04-06T09:55:51Z</time>
      </trkpt>
      <trkpt lat="41.660830150" lon="2.593015000">
        <ele>631.70</ele>
        <time>2014-04-06T09:55:52Z</time>
      </trkpt>
      <trkpt lat="41.660830150" lon="2.593015000">
        <ele>631.60</ele>
        <time>2014-04-06T09:55:53Z</time>
      </trkpt>
      <trkpt lat="41.660828470" lon="2.593015000">
        <ele>631.60</ele>
        <time>2014-04-06T09:55:54Z</time>
      </trkpt>
      <trkpt lat="41.660828470" lon="2.593015000">
        <ele>631.50</ele>
        <time>2014-04-06T09:55:55Z</time>
      </trkpt>
      <trkpt lat="41.660828470" lon="2.593015000">
        <ele>631.50</ele>
        <time>2014-04-06T09:55:56Z</time>
      </trkpt>
      <trkpt lat="41.660828470" lon="2.593015000">
        <ele>631.60</ele>
        <time>2014-04-06T09:55:57Z</time>
      </trkpt>
      <trkpt lat="41.660828470" lon="2.593015000">
        <ele>631.80</ele>
        <time>2014-04-06T09:55:58Z</time>
      </trkpt>
      <trkpt lat="41.660828470" lon="2.593015000">
        <ele>631.70</ele>
        <time>2014-04-06T09:55:59Z</time>
      </trkpt>
      <trkpt lat="41.660826800" lon="2.593015000">
        <ele>631.70</ele>
        <time>2014-04-06T09:56:00Z</time>
      </trkpt>
      <trkpt lat="41.660826800" lon="2.593015000">
        <ele>631.50</ele>
        <time>2014-04-06T09:56:01Z</time>
      </trkpt>
      <trkpt lat="41.660826800" lon="2.593015000">
        <ele>631.40</ele>
        <time>2014-04-06T09:56:02Z</time>
      </trkpt>
      <trkpt lat="41.660826800" lon="2.593015000">
        <ele>631.30</ele>
        <time>2014-04-06T09:56:03Z</time>
      </trkpt>
      <trkpt lat="41.660826800" lon="2.593015000">
        <ele>631.50</ele>
        <time>2014-04-06T09:56:04Z</time>
      </trkpt>
      <trkpt lat="41.660826800" lon="2.593015000">
        <ele>631.60</ele>
        <time>2014-04-06T09:56:05Z</time>
      </trkpt>
      <trkpt lat="41.660826800" lon="2.593015000">
        <ele>631.30</ele>
        <time>2014-04-06T09:56:06Z</time>
      </trkpt>
      <trkpt lat="41.660826800" lon="2.593015000">
        <ele>631.10</ele>
        <time>2014-04-06T09:56:07Z</time>
      </trkpt>
      <trkpt lat="41.660826800" lon="2.593015000">
        <ele>631.20</ele>
        <time>2014-04-06T09:56:08Z</time>
      </trkpt>
      <trkpt lat="41.660825120" lon="2.593015000">
        <ele>631.20</ele>
        <time>2014-04-06T09:56:09Z</time>
      </trkpt>
      <trkpt lat="41.660825120" lon="2.593015000">
        <ele>631.30</ele>
        <time>2014-04-06T09:56:10Z</time>
      </trkpt>
      <trkpt lat="41.660825120" lon="2.593015000">
        <ele>631.30</ele>
        <time>2014-04-06T09:56:11Z</time>
      </trkpt>
      <trkpt lat="41.660825120" lon="2.593015000">
        <ele>631.30</ele>
        <time>2014-04-06T09:56:12Z</time>
      </trkpt>
      <trkpt lat="41.660825120" lon="2.593015000">
        <ele>631.30</ele>
        <time>2014-04-06T09:56:13Z</time>
      </trkpt>
      <trkpt lat="41.660825120" lon="2.593015000">
        <ele>631.30</ele>
        <time>2014-04-06T09:56:14Z</time>
      </trkpt>
      <trkpt lat="41.660825120" lon="2.593015000">
        <ele>631.30</ele>
        <time>2014-04-06T09:56:15Z</time>
      </trkpt>
      <trkpt lat="41.660823440" lon="2.593015000">
        <ele>631.30</ele>
        <time>2014-04-06T09:56:16Z</time>
      </trkpt>
      <trkpt lat="41.660823440" lon="2.593015000">
        <ele>631.20</ele>
        <time>2014-04-06T09:56:17Z</time>
      </trkpt>
      <trkpt lat="41.660823440" lon="2.593015000">
        <ele>631.30</ele>
        <time>2014-04-06T09:56:18Z</time>
      </trkpt>
      <trkpt lat="41.660823440" lon="2.593015000">
        <ele>631.30</ele>
        <time>2014-04-06T09:56:19Z</time>
      </trkpt>
      <trkpt lat="41.660823440" lon="2.593015000">
        <ele>631.90</ele>
        <time>2014-04-06T09:56:20Z</time>
      </trkpt>
      <trkpt lat="41.660823440" lon="2.593015000">
        <ele>632.40</ele>
        <time>2014-04-06T09:56:21Z</time>
      </trkpt>
      <trkpt lat="41.660821770" lon="2.593015000">
        <ele>632.70</ele>
        <time>2014-04-06T09:56:22Z</time>
      </trkpt>
      <trkpt lat="41.660821770" lon="2.593013490">
        <ele>632.20</ele>
        <time>2014-04-06T09:56:23Z</time>
      </trkpt>
      <trkpt lat="41.660821770" lon="2.593013490">
        <ele>631.80</ele>
        <time>2014-04-06T09:56:24Z</time>
      </trkpt>
      <trkpt lat="41.660820090" lon="2.593013490">
        <ele>631.80</ele>
        <time>2014-04-06T09:56:25Z</time>
      </trkpt>
      <trkpt lat="41.660820090" lon="2.593013490">
        <ele>631.80</ele>
        <time>2014-04-06T09:56:26Z</time>
      </trkpt>
      <trkpt lat="41.660818420" lon="2.593011810">
        <ele>631.70</ele>
        <time>2014-04-06T09:56:27Z</time>
      </trkpt>
      <trkpt lat="41.660818420" lon="2.593011810">
        <ele>631.60</ele>
        <time>2014-04-06T09:56:28Z</time>
      </trkpt>
      <trkpt lat="41.660816740" lon="2.593010140">
        <ele>631.50</ele>
        <time>2014-04-06T09:56:29Z</time>
      </trkpt>
      <trkpt lat="41.660815060" lon="2.593010140">
        <ele>631.60</ele>
        <time>2014-04-06T09:56:30Z</time>
      </trkpt>
      <trkpt lat="41.660815060" lon="2.593008460">
        <ele>631.60</ele>
        <time>2014-04-06T09:56:31Z</time>
      </trkpt>
      <trkpt lat="41.660813390" lon="2.593008460">
        <ele>631.70</ele>
        <time>2014-04-06T09:56:32Z</time>
      </trkpt>
      <trkpt lat="41.660811710" lon="2.593006780">
        <ele>631.70</ele>
        <time>2014-04-06T09:56:33Z</time>
      </trkpt>
      <trkpt lat="41.660811710" lon="2.593006780">
        <ele>631.50</ele>
        <time>2014-04-06T09:56:34Z</time>
      </trkpt>
      <trkpt lat="41.660810030" lon="2.593005110">
        <ele>631.30</ele>
        <time>2014-04-06T09:56:35Z</time>
      </trkpt>
      <trkpt lat="41.660808360" lon="2.593003430">
        <ele>631.10</ele>
        <time>2014-04-06T09:56:36Z</time>
      </trkpt>
      <trkpt lat="41.660806680" lon="2.593003430">
        <ele>631.20</ele>
        <time>2014-04-06T09:56:37Z</time>
      </trkpt>
      <trkpt lat="41.660806680" lon="2.593001760">
        <ele>631.20</ele>
        <time>2014-04-06T09:56:38Z</time>
      </trkpt>
      <trkpt lat="41.660805000" lon="2.593001760">
        <ele>631.30</ele>
        <time>2014-04-06T09:56:39Z</time>
      </trkpt>
      <trkpt lat="41.660803500" lon="2.593000080">
        <ele>631.40</ele>
        <time>2014-04-06T09:56:40Z</time>
      </trkpt>
      <trkpt lat="41.660803500" lon="2.593000080">
        <ele>631.40</ele>
        <time>2014-04-06T09:56:41Z</time>
      </trkpt>
      <trkpt lat="41.660801820" lon="2.592998400">
        <ele>631.40</ele>
        <time>2014-04-06T09:56:42Z</time>
      </trkpt>
      <trkpt lat="41.660801820" lon="2.592998400">
        <ele>631.40</ele>
        <time>2014-04-06T09:56:43Z</time>
      </trkpt>
      <trkpt lat="41.660800140" lon="2.592996730">
        <ele>631.30</ele>
        <time>2014-04-06T09:56:44Z</time>
      </trkpt>
      <trkpt lat="41.660800140" lon="2.592996730">
        <ele>631.20</ele>
        <time>2014-04-06T09:56:45Z</time>
      </trkpt>
      <trkpt lat="41.660798470" lon="2.592995050">
        <ele>631.40</ele>
        <time>2014-04-06T09:56:46Z</time>
      </trkpt>
      <trkpt lat="41.660798470" lon="2.592993370">
        <ele>631.50</ele>
        <time>2014-04-06T09:56:47Z</time>
      </trkpt>
      <trkpt lat="41.660796790" lon="2.592993370">
        <ele>631.60</ele>
        <time>2014-04-06T09:56:48Z</time>
      </trkpt>
      <trkpt lat="41.660796790" lon="2.592991700">
        <ele>631.40</ele>
        <time>2014-04-06T09:56:49Z</time>
      </trkpt>
      <trkpt lat="41.660795110" lon="2.592991700">
        <ele>631.20</ele>
        <time>2014-04-06T09:56:50Z</time>
      </trkpt>
      <trkpt lat="41.660795110" lon="2.592990020">
        <ele>630.70</ele>
        <time>2014-04-06T09:56:51Z</time>
      </trkpt>
      <trkpt lat="41.660795110" lon="2.592990020">
        <ele>630.40</ele>
        <time>2014-04-06T09:56:52Z</time>
      </trkpt>
      <trkpt lat="41.660796790" lon="2.592991700">
        <ele>630.10</ele>
        <time>2014-04-06T09:56:53Z</time>
      </trkpt>
      <trkpt lat="41.660800140" lon="2.592993370">
        <ele>630.40</ele>
        <time>2014-04-06T09:56:54Z</time>
      </trkpt>
      <trkpt lat="41.660803500" lon="2.592995050">
        <ele>630.60</ele>
        <time>2014-04-06T09:56:55Z</time>
      </trkpt>
      <trkpt lat="41.660808360" lon="2.592998400">
        <ele>630.60</ele>
        <time>2014-04-06T09:56:56Z</time>
      </trkpt>
      <trkpt lat="41.660810030" lon="2.593000080">
        <ele>630.70</ele>
        <time>2014-04-06T09:56:57Z</time>
      </trkpt>
      <trkpt lat="41.660811710" lon="2.593000080">
        <ele>630.80</ele>
        <time>2014-04-06T09:56:58Z</time>
      </trkpt>
      <trkpt lat="41.660813390" lon="2.593001760">
        <ele>630.90</ele>
        <time>2014-04-06T09:56:59Z</time>
      </trkpt>
      <trkpt lat="41.660815060" lon="2.593001760">
        <ele>631.00</ele>
        <time>2014-04-06T09:57:00Z</time>
      </trkpt>
      <trkpt lat="41.660816740" lon="2.593003430">
        <ele>631.20</ele>
        <time>2014-04-06T09:57:01Z</time>
      </trkpt>
      <trkpt lat="41.660816740" lon="2.593003430">
        <ele>631.30</ele>
        <time>2014-04-06T09:57:02Z</time>
      </trkpt>
      <trkpt lat="41.660816740" lon="2.593001760">
        <ele>631.70</ele>
        <time>2014-04-06T09:57:03Z</time>
      </trkpt>
      <trkpt lat="41.660813390" lon="2.593000080">
        <ele>631.90</ele>
        <time>2014-04-06T09:57:04Z</time>
      </trkpt>
      <trkpt lat="41.660811710" lon="2.592998400">
        <ele>631.90</ele>
        <time>2014-04-06T09:57:05Z</time>
      </trkpt>
      <trkpt lat="41.660810030" lon="2.592996730">
        <ele>631.80</ele>
        <time>2014-04-06T09:57:06Z</time>
      </trkpt>
      <trkpt lat="41.660808360" lon="2.592995050">
        <ele>631.80</ele>
        <time>2014-04-06T09:57:07Z</time>
      </trkpt>
      <trkpt lat="41.660806680" lon="2.592993370">
        <ele>631.80</ele>
        <time>2014-04-06T09:57:08Z</time>
      </trkpt>
      <trkpt lat="41.660805000" lon="2.592991700">
        <ele>631.70</ele>
        <time>2014-04-06T09:57:09Z</time>
      </trkpt>
      <trkpt lat="41.660803500" lon="2.592988340">
        <ele>631.70</ele>
        <time>2014-04-06T09:57:10Z</time>
      </trkpt>
      <trkpt lat="41.660800140" lon="2.592986670">
        <ele>631.60</ele>
        <time>2014-04-06T09:57:11Z</time>
      </trkpt>
      <trkpt lat="41.660798470" lon="2.592985160">
        <ele>631.50</ele>
        <time>2014-04-06T09:57:12Z</time>
      </trkpt>
      <trkpt lat="41.660796790" lon="2.592981810">
        <ele>631.40</ele>
        <time>2014-04-06T09:57:13Z</time>
      </trkpt>
      <trkpt lat="41.660793440" lon="2.592980130">
        <ele>631.40</ele>
        <time>2014-04-06T09:57:14Z</time>
      </trkpt>
      <trkpt lat="41.660791760" lon="2.592978450">
        <ele>631.30</ele>
        <time>2014-04-06T09:57:15Z</time>
      </trkpt>
      <trkpt lat="41.660790080" lon="2.592975100">
        <ele>631.20</ele>
        <time>2014-04-06T09:57:16Z</time>
      </trkpt>
      <trkpt lat="41.660786730" lon="2.592973420">
        <ele>631.50</ele>
        <time>2014-04-06T09:57:17Z</time>
      </trkpt>
      <trkpt lat="41.660785060" lon="2.592970070">
        <ele>631.70</ele>
        <time>2014-04-06T09:57:18Z</time>
      </trkpt>
      <trkpt lat="41.660781700" lon="2.592966720">
        <ele>631.90</ele>
        <time>2014-04-06T09:57:19Z</time>
      </trkpt>
      <trkpt lat="41.660776670" lon="2.592963370">
        <ele>631.70</ele>
        <time>2014-04-06T09:57:20Z</time>
      </trkpt>
      <trkpt lat="41.660773490" lon="2.592958340">
        <ele>631.60</ele>
        <time>2014-04-06T09:57:21Z</time>
      </trkpt>
      <trkpt lat="41.660771810" lon="2.592955150">
        <ele>631.80</ele>
        <time>2014-04-06T09:57:22Z</time>
      </trkpt>
      <trkpt lat="41.660768460" lon="2.592951800">
        <ele>632.00</ele>
        <time>2014-04-06T09:57:23Z</time>
      </trkpt>
      <trkpt lat="41.660766780" lon="2.592948450">
        <ele>631.60</ele>
        <time>2014-04-06T09:57:24Z</time>
      </trkpt>
      <trkpt lat="41.660763430" lon="2.592946770">
        <ele>631.30</ele>
        <time>2014-04-06T09:57:25Z</time>
      </trkpt>
      <trkpt lat="41.660761750" lon="2.592943420">
        <ele>631.00</ele>
        <time>2014-04-06T09:57:26Z</time>
      </trkpt>
      <trkpt lat="41.660760080" lon="2.592940060">
        <ele>630.90</ele>
        <time>2014-04-06T09:57:27Z</time>
      </trkpt>
      <trkpt lat="41.660758400" lon="2.592938390">
        <ele>630.80</ele>
        <time>2014-04-06T09:57:28Z</time>
      </trkpt>
      <trkpt lat="41.660756720" lon="2.592936710">
        <ele>630.80</ele>
        <time>2014-04-06T09:57:29Z</time>
      </trkpt>
      <trkpt lat="41.660755050" lon="2.592935040">
        <ele>630.90</ele>
        <time>2014-04-06T09:57:30Z</time>
      </trkpt>
      <trkpt lat="41.660753370" lon="2.592933360">
        <ele>631.10</ele>
        <time>2014-04-06T09:57:31Z</time>
      </trkpt>
      <trkpt lat="41.660753370" lon="2.592931680">
        <ele>631.30</ele>
        <time>2014-04-06T09:57:32Z</time>
      </trkpt>
      <trkpt lat="41.660751700" lon="2.592930010">
        <ele>631.40</ele>
        <time>2014-04-06T09:57:33Z</time>
      </trkpt>
      <trkpt lat="41.660751700" lon="2.592928330">
        <ele>631.30</ele>
        <time>2014-04-06T09:57:34Z</time>
      </trkpt>
      <trkpt lat="41.660750020" lon="2.592926820">
        <ele>631.20</ele>
        <time>2014-04-06T09:57:35Z</time>
      </trkpt>
      <trkpt lat="41.660750020" lon="2.592925140">
        <ele>631.10</ele>
        <time>2014-04-06T09:57:36Z</time>
      </trkpt>
      <trkpt lat="41.660750020" lon="2.592925140">
        <ele>631.10</ele>
        <time>2014-04-06T09:57:37Z</time>
      </trkpt>
      <trkpt lat="41.660748340" lon="2.592923470">
        <ele>631.00</ele>
        <time>2014-04-06T09:57:38Z</time>
      </trkpt>
      <trkpt lat="41.660748340" lon="2.592921790">
        <ele>631.10</ele>
        <time>2014-04-06T09:57:39Z</time>
      </trkpt>
      <trkpt lat="41.660748340" lon="2.592920120">
        <ele>631.20</ele>
        <time>2014-04-06T09:57:40Z</time>
      </trkpt>
      <trkpt lat="41.660748340" lon="2.592920120">
        <ele>631.00</ele>
        <time>2014-04-06T09:57:41Z</time>
      </trkpt>
      <trkpt lat="41.660748340" lon="2.592918440">
        <ele>630.80</ele>
        <time>2014-04-06T09:57:42Z</time>
      </trkpt>
      <trkpt lat="41.660748340" lon="2.592918440">
        <ele>630.80</ele>
        <time>2014-04-06T09:57:43Z</time>
      </trkpt>
      <trkpt lat="41.660748340" lon="2.592916760">
        <ele>630.80</ele>
        <time>2014-04-06T09:57:44Z</time>
      </trkpt>
      <trkpt lat="41.660748340" lon="2.592915090">
        <ele>630.80</ele>
        <time>2014-04-06T09:57:45Z</time>
      </trkpt>
      <trkpt lat="41.660748340" lon="2.592915090">
        <ele>630.60</ele>
        <time>2014-04-06T09:57:46Z</time>
      </trkpt>
      <trkpt lat="41.660748340" lon="2.592915090">
        <ele>630.50</ele>
        <time>2014-04-06T09:57:47Z</time>
      </trkpt>
      <trkpt lat="41.660748340" lon="2.592913410">
        <ele>630.40</ele>
        <time>2014-04-06T09:57:48Z</time>
      </trkpt>
      <trkpt lat="41.660748340" lon="2.592913410">
        <ele>630.30</ele>
        <time>2014-04-06T09:57:49Z</time>
      </trkpt>
      <trkpt lat="41.660750020" lon="2.592913410">
        <ele>630.50</ele>
        <time>2014-04-06T09:57:50Z</time>
      </trkpt>
      <trkpt lat="41.660750020" lon="2.592913410">
        <ele>630.70</ele>
        <time>2014-04-06T09:57:51Z</time>
      </trkpt>
      <trkpt lat="41.660750020" lon="2.592911730">
        <ele>630.80</ele>
        <time>2014-04-06T09:57:52Z</time>
      </trkpt>
      <trkpt lat="41.660751700" lon="2.592911730">
        <ele>630.90</ele>
        <time>2014-04-06T09:57:53Z</time>
      </trkpt>
      <trkpt lat="41.660751700" lon="2.592911730">
        <ele>630.90</ele>
        <time>2014-04-06T09:57:54Z</time>
      </trkpt>
      <trkpt lat="41.660751700" lon="2.592911730">
        <ele>631.10</ele>
        <time>2014-04-06T09:57:55Z</time>
      </trkpt>
      <trkpt lat="41.660753370" lon="2.592911730">
        <ele>631.20</ele>
        <time>2014-04-06T09:57:56Z</time>
      </trkpt>
      <trkpt lat="41.660753370" lon="2.592910060">
        <ele>631.30</ele>
        <time>2014-04-06T09:57:57Z</time>
      </trkpt>
      <trkpt lat="41.660753370" lon="2.592910060">
        <ele>631.30</ele>
        <time>2014-04-06T09:57:58Z</time>
      </trkpt>
      <trkpt lat="41.660753370" lon="2.592910060">
        <ele>631.30</ele>
        <time>2014-04-06T09:57:59Z</time>
      </trkpt>
      <trkpt lat="41.660753370" lon="2.592910060">
        <ele>631.30</ele>
        <time>2014-04-06T09:58:00Z</time>
      </trkpt>
      <trkpt lat="41.660755050" lon="2.592910060">
        <ele>631.30</ele>
        <time>2014-04-06T09:58:01Z</time>
      </trkpt>
      <trkpt lat="41.660755050" lon="2.592910060">
        <ele>631.40</ele>
        <time>2014-04-06T09:58:02Z</time>
      </trkpt>
      <trkpt lat="41.660755050" lon="2.592910060">
        <ele>631.60</ele>
        <time>2014-04-06T09:58:03Z</time>
      </trkpt>
      <trkpt lat="41.660755050" lon="2.592910060">
        <ele>631.60</ele>
        <time>2014-04-06T09:58:04Z</time>
      </trkpt>
      <trkpt lat="41.660756720" lon="2.592910060">
        <ele>631.60</ele>
        <time>2014-04-06T09:58:05Z</time>
      </trkpt>
      <trkpt lat="41.660756720" lon="2.592910060">
        <ele>631.60</ele>
        <time>2014-04-06T09:58:06Z</time>
      </trkpt>
      <trkpt lat="41.660756720" lon="2.592910060">
        <ele>631.70</ele>
        <time>2014-04-06T09:58:07Z</time>
      </trkpt>
      <trkpt lat="41.660756720" lon="2.592910060">
        <ele>631.70</ele>
        <time>2014-04-06T09:58:08Z</time>
      </trkpt>
      <trkpt lat="41.660756720" lon="2.592910060">
        <ele>631.50</ele>
        <time>2014-04-06T09:58:09Z</time>
      </trkpt>
      <trkpt lat="41.660758400" lon="2.592910060">
        <ele>631.40</ele>
        <time>2014-04-06T09:58:10Z</time>
      </trkpt>
      <trkpt lat="41.660758400" lon="2.592910060">
        <ele>631.30</ele>
        <time>2014-04-06T09:58:11Z</time>
      </trkpt>
      <trkpt lat="41.660758400" lon="2.592910060">
        <ele>631.10</ele>
        <time>2014-04-06T09:58:12Z</time>
      </trkpt>
      <trkpt lat="41.660758400" lon="2.592910060">
        <ele>631.10</ele>
        <time>2014-04-06T09:58:13Z</time>
      </trkpt>
      <trkpt lat="41.660758400" lon="2.592910060">
        <ele>631.30</ele>
        <time>2014-04-06T09:58:14Z</time>
      </trkpt>
      <trkpt lat="41.660758400" lon="2.592910060">
        <ele>631.40</ele>
        <time>2014-04-06T09:58:15Z</time>
      </trkpt>
      <trkpt lat="41.660758400" lon="2.592910060">
        <ele>631.50</ele>
        <time>2014-04-06T09:58:16Z</time>
      </trkpt>
      <trkpt lat="41.660760080" lon="2.592910060">
        <ele>631.50</ele>
        <time>2014-04-06T09:58:17Z</time>
      </trkpt>
      <trkpt lat="41.660760080" lon="2.592910060">
        <ele>631.50</ele>
        <time>2014-04-06T09:58:18Z</time>
      </trkpt>
      <trkpt lat="41.660760080" lon="2.592910060">
        <ele>631.50</ele>
        <time>2014-04-06T09:58:19Z</time>
      </trkpt>
      <trkpt lat="41.660760080" lon="2.592910060">
        <ele>631.50</ele>
        <time>2014-04-06T09:58:20Z</time>
      </trkpt>
      <trkpt lat="41.660760080" lon="2.592910060">
        <ele>631.60</ele>
        <time>2014-04-06T09:58:21Z</time>
      </trkpt>
      <trkpt lat="41.660760080" lon="2.592910060">
        <ele>631.60</ele>
        <time>2014-04-06T09:58:22Z</time>
      </trkpt>
      <trkpt lat="41.660760080" lon="2.592910060">
        <ele>631.70</ele>
        <time>2014-04-06T09:58:23Z</time>
      </trkpt>
      <trkpt lat="41.660761750" lon="2.592910060">
        <ele>631.30</ele>
        <time>2014-04-06T09:58:24Z</time>
      </trkpt>
      <trkpt lat="41.660761750" lon="2.592910060">
        <ele>631.10</ele>
        <time>2014-04-06T09:58:25Z</time>
      </trkpt>
      <trkpt lat="41.660761750" lon="2.592910060">
        <ele>631.30</ele>
        <time>2014-04-06T09:58:26Z</time>
      </trkpt>
      <trkpt lat="41.660761750" lon="2.592910060">
        <ele>631.40</ele>
        <time>2014-04-06T09:58:27Z</time>
      </trkpt>
      <trkpt lat="41.660761750" lon="2.592911730">
        <ele>631.60</ele>
        <time>2014-04-06T09:58:28Z</time>
      </trkpt>
      <trkpt lat="41.660763430" lon="2.592911730">
        <ele>631.70</ele>
        <time>2014-04-06T09:58:29Z</time>
      </trkpt>
      <trkpt lat="41.660763430" lon="2.592911730">
        <ele>631.80</ele>
        <time>2014-04-06T09:58:30Z</time>
      </trkpt>
      <trkpt lat="41.660763430" lon="2.592911730">
        <ele>631.70</ele>
        <time>2014-04-06T09:58:31Z</time>
      </trkpt>
      <trkpt lat="41.660765110" lon="2.592911730">
        <ele>631.60</ele>
        <time>2014-04-06T09:58:32Z</time>
      </trkpt>
      <trkpt lat="41.660765110" lon="2.592911730">
        <ele>632.10</ele>
        <time>2014-04-06T09:58:33Z</time>
      </trkpt>
      <trkpt lat="41.660765110" lon="2.592911730">
        <ele>632.50</ele>
        <time>2014-04-06T09:58:34Z</time>
      </trkpt>
      <trkpt lat="41.660765110" lon="2.592913410">
        <ele>632.80</ele>
        <time>2014-04-06T09:58:35Z</time>
      </trkpt>
      <trkpt lat="41.660766780" lon="2.592913410">
        <ele>632.30</ele>
        <time>2014-04-06T09:58:36Z</time>
      </trkpt>
      <trkpt lat="41.660766780" lon="2.592913410">
        <ele>631.90</ele>
        <time>2014-04-06T09:58:37Z</time>
      </trkpt>
      <trkpt lat="41.660766780" lon="2.592913410">
        <ele>631.90</ele>
        <time>2014-04-06T09:58:38Z</time>
      </trkpt>
      <trkpt lat="41.660766780" lon="2.592913410">
        <ele>631.90</ele>
        <time>2014-04-06T09:58:39Z</time>
      </trkpt>
      <trkpt lat="41.660768460" lon="2.592913410">
        <ele>631.80</ele>
        <time>2014-04-06T09:58:40Z</time>
      </trkpt>
      <trkpt lat="41.660768460" lon="2.592915090">
        <ele>631.60</ele>
        <time>2014-04-06T09:58:41Z</time>
      </trkpt>
      <trkpt lat="41.660768460" lon="2.592915090">
        <ele>631.50</ele>
        <time>2014-04-06T09:58:42Z</time>
      </trkpt>
      <trkpt lat="41.660768460" lon="2.592915090">
        <ele>631.50</ele>
        <time>2014-04-06T09:58:43Z</time>
      </trkpt>
      <trkpt lat="41.660768460" lon="2.592916760">
        <ele>631.50</ele>
        <time>2014-04-06T09:58:44Z</time>
      </trkpt>
      <trkpt lat="41.660768460" lon="2.592916760">
        <ele>631.50</ele>
        <time>2014-04-06T09:58:45Z</time>
      </trkpt>
      <trkpt lat="41.660768460" lon="2.592916760">
        <ele>631.50</ele>
        <time>2014-04-06T09:58:46Z</time>
      </trkpt>
      <trkpt lat="41.660768460" lon="2.592916760">
        <ele>631.50</ele>
        <time>2014-04-06T09:58:47Z</time>
      </trkpt>
      <trkpt lat="41.660768460" lon="2.592916760">
        <ele>631.40</ele>
        <time>2014-04-06T09:58:48Z</time>
      </trkpt>
      <trkpt lat="41.660768460" lon="2.592918440">
        <ele>631.40</ele>
        <time>2014-04-06T09:58:49Z</time>
      </trkpt>
      <trkpt lat="41.660768460" lon="2.592918440">
        <ele>631.50</ele>
        <time>2014-04-06T09:58:50Z</time>
      </trkpt>
      <trkpt lat="41.660768460" lon="2.592918440">
        <ele>631.60</ele>
        <time>2014-04-06T09:58:51Z</time>
      </trkpt>
      <trkpt lat="41.660768460" lon="2.592918440">
        <ele>631.50</ele>
        <time>2014-04-06T09:58:52Z</time>
      </trkpt>
      <trkpt lat="41.660768460" lon="2.592918440">
        <ele>631.50</ele>
        <time>2014-04-06T09:58:53Z</time>
      </trkpt>
      <trkpt lat="41.660768460" lon="2.592918440">
        <ele>631.40</ele>
        <time>2014-04-06T09:58:54Z</time>
      </trkpt>
      <trkpt lat="41.660768460" lon="2.592920120">
        <ele>631.40</ele>
        <time>2014-04-06T09:58:55Z</time>
      </trkpt>
      <trkpt lat="41.660768460" lon="2.592920120">
        <ele>631.40</ele>
        <time>2014-04-06T09:58:56Z</time>
      </trkpt>
      <trkpt lat="41.660768460" lon="2.592920120">
        <ele>630.90</ele>
        <time>2014-04-06T09:58:57Z</time>
      </trkpt>
      <trkpt lat="41.660768460" lon="2.592920120">
        <ele>630.50</ele>
        <time>2014-04-06T09:58:58Z</time>
      </trkpt>
      <trkpt lat="41.660768460" lon="2.592921790">
        <ele>631.00</ele>
        <time>2014-04-06T09:58:59Z</time>
      </trkpt>
      <trkpt lat="41.660768460" lon="2.592921790">
        <ele>631.30</ele>
        <time>2014-04-06T09:59:00Z</time>
      </trkpt>
      <trkpt lat="41.660768460" lon="2.592921790">
        <ele>631.60</ele>
        <time>2014-04-06T09:59:01Z</time>
      </trkpt>
      <trkpt lat="41.660768460" lon="2.592921790">
        <ele>631.60</ele>
        <time>2014-04-06T09:59:02Z</time>
      </trkpt>
      <trkpt lat="41.660768460" lon="2.592923470">
        <ele>631.60</ele>
        <time>2014-04-06T09:59:03Z</time>
      </trkpt>
      <trkpt lat="41.660766780" lon="2.592923470">
        <ele>631.80</ele>
        <time>2014-04-06T09:59:04Z</time>
      </trkpt>
      <trkpt lat="41.660766780" lon="2.592923470">
        <ele>631.90</ele>
        <time>2014-04-06T09:59:05Z</time>
      </trkpt>
      <trkpt lat="41.660766780" lon="2.592923470">
        <ele>631.70</ele>
        <time>2014-04-06T09:59:06Z</time>
      </trkpt>
      <trkpt lat="41.660766780" lon="2.592923470">
        <ele>631.60</ele>
        <time>2014-04-06T09:59:07Z</time>
      </trkpt>
      <trkpt lat="41.660766780" lon="2.592925140">
        <ele>631.50</ele>
        <time>2014-04-06T09:59:08Z</time>
      </trkpt>
      <trkpt lat="41.660766780" lon="2.592925140">
        <ele>631.70</ele>
        <time>2014-04-06T09:59:09Z</time>
      </trkpt>
      <trkpt lat="41.660768460" lon="2.592925140">
        <ele>631.80</ele>
        <time>2014-04-06T09:59:10Z</time>
      </trkpt>
      <trkpt lat="41.660768460" lon="2.592926820">
        <ele>631.90</ele>
        <time>2014-04-06T09:59:11Z</time>
      </trkpt>
      <trkpt lat="41.660768460" lon="2.592926820">
        <ele>632.00</ele>
        <time>2014-04-06T09:59:12Z</time>
      </trkpt>
      <trkpt lat="41.660768460" lon="2.592926820">
        <ele>632.10</ele>
        <time>2014-04-06T09:59:13Z</time>
      </trkpt>
      <trkpt lat="41.660768460" lon="2.592928330">
        <ele>632.10</ele>
        <time>2014-04-06T09:59:14Z</time>
      </trkpt>
      <trkpt lat="41.660768460" lon="2.592928330">
        <ele>632.00</ele>
        <time>2014-04-06T09:59:15Z</time>
      </trkpt>
      <trkpt lat="41.660768460" lon="2.592928330">
        <ele>631.90</ele>
        <time>2014-04-06T09:59:16Z</time>
      </trkpt>
      <trkpt lat="41.660768460" lon="2.592930010">
        <ele>631.80</ele>
        <time>2014-04-06T09:59:17Z</time>
      </trkpt>
      <trkpt lat="41.660768460" lon="2.592930010">
        <ele>631.80</ele>
        <time>2014-04-06T09:59:18Z</time>
      </trkpt>
      <trkpt lat="41.660768460" lon="2.592930010">
        <ele>631.70</ele>
        <time>2014-04-06T09:59:19Z</time>
      </trkpt>
      <trkpt lat="41.660768460" lon="2.592930010">
        <ele>631.70</ele>
        <time>2014-04-06T09:59:20Z</time>
      </trkpt>
      <trkpt lat="41.660770140" lon="2.592931680">
        <ele>631.70</ele>
        <time>2014-04-06T09:59:21Z</time>
      </trkpt>
      <trkpt lat="41.660770140" lon="2.592931680">
        <ele>631.80</ele>
        <time>2014-04-06T09:59:22Z</time>
      </trkpt>
      <trkpt lat="41.660770140" lon="2.592933360">
        <ele>631.60</ele>
        <time>2014-04-06T09:59:23Z</time>
      </trkpt>
      <trkpt lat="41.660770140" lon="2.592933360">
        <ele>631.50</ele>
        <time>2014-04-06T09:59:24Z</time>
      </trkpt>
      <trkpt lat="41.660770140" lon="2.592933360">
        <ele>631.30</ele>
        <time>2014-04-06T09:59:25Z</time>
      </trkpt>
      <trkpt lat="41.660771810" lon="2.592935040">
        <ele>631.20</ele>
        <time>2014-04-06T09:59:26Z</time>
      </trkpt>
      <trkpt lat="41.660771810" lon="2.592935040">
        <ele>631.10</ele>
        <time>2014-04-06T09:59:27Z</time>
      </trkpt>
      <trkpt lat="41.660771810" lon="2.592935040">
        <ele>631.40</ele>
        <time>2014-04-06T09:59:28Z</time>
      </trkpt>
      <trkpt lat="41.660773490" lon="2.592936710">
        <ele>631.60</ele>
        <time>2014-04-06T09:59:29Z</time>
      </trkpt>
      <trkpt lat="41.660773490" lon="2.592936710">
        <ele>631.70</ele>
        <time>2014-04-06T09:59:30Z</time>
      </trkpt>
      <trkpt lat="41.660773490" lon="2.592936710">
        <ele>631.70</ele>
        <time>2014-04-06T09:59:31Z</time>
      </trkpt>
      <trkpt lat="41.660775000" lon="2.592938390">
        <ele>631.60</ele>
        <time>2014-04-06T09:59:32Z</time>
      </trkpt>
      <trkpt lat="41.660775000" lon="2.592938390">
        <ele>631.40</ele>
        <time>2014-04-06T09:59:33Z</time>
      </trkpt>
      <trkpt lat="41.660776670" lon="2.592940060">
        <ele>631.40</ele>
        <time>2014-04-06T09:59:34Z</time>
      </trkpt>
      <trkpt lat="41.660776670" lon="2.592940060">
        <ele>631.60</ele>
        <time>2014-04-06T09:59:35Z</time>
      </trkpt>
      <trkpt lat="41.660776670" lon="2.592941740">
        <ele>631.80</ele>
        <time>2014-04-06T09:59:36Z</time>
      </trkpt>
      <trkpt lat="41.660778350" lon="2.592941740">
        <ele>631.50</ele>
        <time>2014-04-06T09:59:37Z</time>
      </trkpt>
      <trkpt lat="41.660778350" lon="2.592943420">
        <ele>631.30</ele>
        <time>2014-04-06T09:59:38Z</time>
      </trkpt>
      <trkpt lat="41.660780030" lon="2.592943420">
        <ele>631.20</ele>
        <time>2014-04-06T09:59:39Z</time>
      </trkpt>
      <trkpt lat="41.660780030" lon="2.592945090">
        <ele>631.30</ele>
        <time>2014-04-06T09:59:40Z</time>
      </trkpt>
      <trkpt lat="41.660781700" lon="2.592945090">
        <ele>631.30</ele>
        <time>2014-04-06T09:59:41Z</time>
      </trkpt>
      <trkpt lat="41.660783380" lon="2.592946770">
        <ele>631.60</ele>
        <time>2014-04-06T09:59:42Z</time>
      </trkpt>
      <trkpt lat="41.660783380" lon="2.592948450">
        <ele>631.90</ele>
        <time>2014-04-06T09:59:43Z</time>
      </trkpt>
      <trkpt lat="41.660785060" lon="2.592950120">
        <ele>631.70</ele>
        <time>2014-04-06T09:59:44Z</time>
      </trkpt>
      <trkpt lat="41.660786730" lon="2.592950120">
        <ele>631.60</ele>
        <time>2014-04-06T09:59:45Z</time>
      </trkpt>
      <trkpt lat="41.660786730" lon="2.592951800">
        <ele>631.60</ele>
        <time>2014-04-06T09:59:46Z</time>
      </trkpt>
      <trkpt lat="41.660788410" lon="2.592953480">
        <ele>632.00</ele>
        <time>2014-04-06T09:59:47Z</time>
      </trkpt>
      <trkpt lat="41.660790080" lon="2.592953480">
        <ele>632.30</ele>
        <time>2014-04-06T09:59:48Z</time>
      </trkpt>
      <trkpt lat="41.660791760" lon="2.592955150">
        <ele>632.40</ele>
        <time>2014-04-06T09:59:49Z</time>
      </trkpt>
      <trkpt lat="41.660791760" lon="2.592956830">
        <ele>632.50</ele>
        <time>2014-04-06T09:59:50Z</time>
      </trkpt>
      <trkpt lat="41.660793440" lon="2.592956830">
        <ele>632.60</ele>
        <time>2014-04-06T09:59:51Z</time>
      </trkpt>
      <trkpt lat="41.660795110" lon="2.592958340">
        <ele>632.00</ele>
        <time>2014-04-06T09:59:52Z</time>
      </trkpt>
      <trkpt lat="41.660796790" lon="2.592960010">
        <ele>631.50</ele>
        <time>2014-04-06T09:59:53Z</time>
      </trkpt>
      <trkpt lat="41.660796790" lon="2.592961690">
        <ele>631.90</ele>
        <time>2014-04-06T09:59:54Z</time>
      </trkpt>
      <trkpt lat="41.660798470" lon="2.592963370">
        <ele>632.20</ele>
        <time>2014-04-06T09:59:55Z</time>
      </trkpt>
      <trkpt lat="41.660800140" lon="2.592965040">
        <ele>632.20</ele>
        <time>2014-04-06T09:59:56Z</time>
      </trkpt>
      <trkpt lat="41.660801820" lon="2.592966720">
        <ele>632.20</ele>
        <time>2014-04-06T09:59:57Z</time>
      </trkpt>
      <trkpt lat="41.660803500" lon="2.592968400">
        <ele>632.20</ele>
        <time>2014-04-06T09:59:58Z</time>
      </trkpt>
      <trkpt lat="41.660805000" lon="2.592970070">
        <ele>632.30</ele>
        <time>2014-04-06T09:59:59Z</time>
      </trkpt>
      <trkpt lat="41.660806680" lon="2.592970070">
        <ele>632.40</ele>
        <time>2014-04-06T10:00:00Z</time>
      </trkpt>
      <trkpt lat="41.660806680" lon="2.592971750">
        <ele>632.10</ele>
        <time>2014-04-06T10:00:01Z</time>
      </trkpt>
      <trkpt lat="41.660808360" lon="2.592973420">
        <ele>632.00</ele>
        <time>2014-04-06T10:00:02Z</time>
      </trkpt>
      <trkpt lat="41.660808360" lon="2.592973420">
        <ele>631.90</ele>
        <time>2014-04-06T10:00:03Z</time>
      </trkpt>
      <trkpt lat="41.660810030" lon="2.592975100">
        <ele>631.90</ele>
        <time>2014-04-06T10:00:04Z</time>
      </trkpt>
      <trkpt lat="41.660810030" lon="2.592976780">
        <ele>631.90</ele>
        <time>2014-04-06T10:00:05Z</time>
      </trkpt>
      <trkpt lat="41.660811710" lon="2.592976780">
        <ele>631.70</ele>
        <time>2014-04-06T10:00:06Z</time>
      </trkpt>
      <trkpt lat="41.660811710" lon="2.592978450">
        <ele>631.60</ele>
        <time>2014-04-06T10:00:07Z</time>
      </trkpt>
      <trkpt lat="41.660813390" lon="2.592980130">
        <ele>631.50</ele>
        <time>2014-04-06T10:00:08Z</time>
      </trkpt>
      <trkpt lat="41.660813390" lon="2.592981810">
        <ele>631.50</ele>
        <time>2014-04-06T10:00:09Z</time>
      </trkpt>
      <trkpt lat="41.660815060" lon="2.592981810">
        <ele>631.40</ele>
        <time>2014-04-06T10:00:10Z</time>
      </trkpt>
      <trkpt lat="41.660815060" lon="2.592983480">
        <ele>631.20</ele>
        <time>2014-04-06T10:00:11Z</time>
      </trkpt>
      <trkpt lat="41.660815060" lon="2.592983480">
        <ele>631.10</ele>
        <time>2014-04-06T10:00:12Z</time>
      </trkpt>
      <trkpt lat="41.660816740" lon="2.592985160">
        <ele>631.40</ele>
        <time>2014-04-06T10:00:13Z</time>
      </trkpt>
      <trkpt lat="41.660816740" lon="2.592985160">
        <ele>631.60</ele>
        <time>2014-04-06T10:00:14Z</time>
      </trkpt>
      <trkpt lat="41.660816740" lon="2.592986670">
        <ele>631.70</ele>
        <time>2014-04-06T10:00:15Z</time>
      </trkpt>
      <trkpt lat="41.660818420" lon="2.592986670">
        <ele>631.90</ele>
        <time>2014-04-06T10:00:16Z</time>
      </trkpt>
      <trkpt lat="41.660818420" lon="2.592988340">
        <ele>632.00</ele>
        <time>2014-04-06T10:00:17Z</time>
      </trkpt>
      <trkpt lat="41.660818420" lon="2.592988340">
        <ele>631.60</ele>
        <time>2014-04-06T10:00:18Z</time>
      </trkpt>
      <trkpt lat="41.660818420" lon="2.592990020">
        <ele>631.20</ele>
        <time>2014-04-06T10:00:19Z</time>
      </trkpt>
      <trkpt lat="41.660818420" lon="2.592991700">
        <ele>631.10</ele>
        <time>2014-04-06T10:00:20Z</time>
      </trkpt>
      <trkpt lat="41.660818420" lon="2.592991700">
        <ele>630.90</ele>
        <time>2014-04-06T10:00:21Z</time>
      </trkpt>
      <trkpt lat="41.660818420" lon="2.592991700">
        <ele>630.90</ele>
        <time>2014-04-06T10:00:22Z</time>
      </trkpt>
      <trkpt lat="41.660820090" lon="2.592993370">
        <ele>631.00</ele>
        <time>2014-04-06T10:00:23Z</time>
      </trkpt>
      <trkpt lat="41.660820090" lon="2.592993370">
        <ele>631.00</ele>
        <time>2014-04-06T10:00:24Z</time>
      </trkpt>
      <trkpt lat="41.660820090" lon="2.592993370">
        <ele>631.00</ele>
        <time>2014-04-06T10:00:25Z</time>
      </trkpt>
      <trkpt lat="41.660820090" lon="2.592993370">
        <ele>631.10</ele>
        <time>2014-04-06T10:00:26Z</time>
      </trkpt>
      <trkpt lat="41.660818420" lon="2.592995050">
        <ele>631.10</ele>
        <time>2014-04-06T10:00:27Z</time>
      </trkpt>
      <trkpt lat="41.660818420" lon="2.592995050">
        <ele>631.20</ele>
        <time>2014-04-06T10:00:28Z</time>
      </trkpt>
      <trkpt lat="41.660818420" lon="2.592995050">
        <ele>631.20</ele>
        <time>2014-04-06T10:00:29Z</time>
      </trkpt>
      <trkpt lat="41.660818420" lon="2.592996730">
        <ele>631.30</ele>
        <time>2014-04-06T10:00:30Z</time>
      </trkpt>
      <trkpt lat="41.660818420" lon="2.592996730">
        <ele>631.30</ele>
        <time>2014-04-06T10:00:31Z</time>
      </trkpt>
      <trkpt lat="41.660818420" lon="2.592996730">
        <ele>631.50</ele>
        <time>2014-04-06T10:00:32Z</time>
      </trkpt>
      <trkpt lat="41.660818420" lon="2.592996730">
        <ele>631.70</ele>
        <time>2014-04-06T10:00:33Z</time>
      </trkpt>
      <trkpt lat="41.660818420" lon="2.592998400">
        <ele>631.60</ele>
        <time>2014-04-06T10:00:34Z</time>
      </trkpt>
      <trkpt lat="41.660816740" lon="2.592998400">
        <ele>631.50</ele>
        <time>2014-04-06T10:00:35Z</time>
      </trkpt>
      <trkpt lat="41.660816740" lon="2.592998400">
        <ele>631.40</ele>
        <time>2014-04-06T10:00:36Z</time>
      </trkpt>
      <trkpt lat="41.660816740" lon="2.592998400">
        <ele>631.40</ele>
        <time>2014-04-06T10:00:37Z</time>
      </trkpt>
      <trkpt lat="41.660815060" lon="2.593000080">
        <ele>631.30</ele>
        <time>2014-04-06T10:00:38Z</time>
      </trkpt>
      <trkpt lat="41.660815060" lon="2.593000080">
        <ele>631.40</ele>
        <time>2014-04-06T10:00:39Z</time>
      </trkpt>
      <trkpt lat="41.660813390" lon="2.593000080">
        <ele>631.40</ele>
        <time>2014-04-06T10:00:40Z</time>
      </trkpt>
      <trkpt lat="41.660813390" lon="2.593001760">
        <ele>631.10</ele>
        <time>2014-04-06T10:00:41Z</time>
      </trkpt>
      <trkpt lat="41.660813390" lon="2.593001760">
        <ele>630.90</ele>
        <time>2014-04-06T10:00:42Z</time>
      </trkpt>
      <trkpt lat="41.660811710" lon="2.593001760">
        <ele>630.70</ele>
        <time>2014-04-06T10:00:43Z</time>
      </trkpt>
      <trkpt lat="41.660811710" lon="2.593001760">
        <ele>630.90</ele>
        <time>2014-04-06T10:00:44Z</time>
      </trkpt>
      <trkpt lat="41.660811710" lon="2.593001760">
        <ele>631.10</ele>
        <time>2014-04-06T10:00:45Z</time>
      </trkpt>
      <trkpt lat="41.660810030" lon="2.593001760">
        <ele>631.30</ele>
        <time>2014-04-06T10:00:46Z</time>
      </trkpt>
      <trkpt lat="41.660810030" lon="2.593003430">
        <ele>631.40</ele>
        <time>2014-04-06T10:00:47Z</time>
      </trkpt>
      <trkpt lat="41.660810030" lon="2.593003430">
        <ele>631.40</ele>
        <time>2014-04-06T10:00:48Z</time>
      </trkpt>
      <trkpt lat="41.660808360" lon="2.593003430">
        <ele>631.30</ele>
        <time>2014-04-06T10:00:49Z</time>
      </trkpt>
      <trkpt lat="41.660808360" lon="2.593003430">
        <ele>631.30</ele>
        <time>2014-04-06T10:00:50Z</time>
      </trkpt>
      <trkpt lat="41.660808360" lon="2.593003430">
        <ele>631.20</ele>
        <time>2014-04-06T10:00:51Z</time>
      </trkpt>
      <trkpt lat="41.660808360" lon="2.593005110">
        <ele>631.20</ele>
        <time>2014-04-06T10:00:52Z</time>
      </trkpt>
      <trkpt lat="41.660806680" lon="2.593005110">
        <ele>631.10</ele>
        <time>2014-04-06T10:00:53Z</time>
      </trkpt>
      <trkpt lat="41.660805000" lon="2.593005110">
        <ele>631.00</ele>
        <time>2014-04-06T10:00:54Z</time>
      </trkpt>
      <trkpt lat="41.660801820" lon="2.593005110">
        <ele>630.90</ele>
        <time>2014-04-06T10:00:55Z</time>
      </trkpt>
      <trkpt lat="41.660800140" lon="2.593005110">
        <ele>631.20</ele>
        <time>2014-04-06T10:00:56Z</time>
      </trkpt>
      <trkpt lat="41.660798470" lon="2.593005110">
        <ele>631.40</ele>
        <time>2014-04-06T10:00:57Z</time>
      </trkpt>
      <trkpt lat="41.660796790" lon="2.593005110">
        <ele>631.40</ele>
        <time>2014-04-06T10:00:58Z</time>
      </trkpt>
      <trkpt lat="41.660795110" lon="2.593005110">
        <ele>631.50</ele>
        <time>2014-04-06T10:00:59Z</time>
      </trkpt>
      <trkpt lat="41.660793440" lon="2.593005110">
        <ele>631.20</ele>
        <time>2014-04-06T10:01:00Z</time>
      </trkpt>
      <trkpt lat="41.660790080" lon="2.593003430">
        <ele>630.90</ele>
        <time>2014-04-06T10:01:01Z</time>
      </trkpt>
      <trkpt lat="41.660788410" lon="2.593003430">
        <ele>630.70</ele>
        <time>2014-04-06T10:01:02Z</time>
      </trkpt>
      <trkpt lat="41.660786730" lon="2.593005110">
        <ele>630.90</ele>
        <time>2014-04-06T10:01:03Z</time>
      </trkpt>
      <trkpt lat="41.660786730" lon="2.593005110">
        <ele>631.10</ele>
        <time>2014-04-06T10:01:04Z</time>
      </trkpt>
      <trkpt lat="41.660785060" lon="2.593005110">
        <ele>631.10</ele>
        <time>2014-04-06T10:01:05Z</time>
      </trkpt>
      <trkpt lat="41.660785060" lon="2.593005110">
        <ele>631.10</ele>
        <time>2014-04-06T10:01:06Z</time>
      </trkpt>
      <trkpt lat="41.660785060" lon="2.593005110">
        <ele>631.00</ele>
        <time>2014-04-06T10:01:07Z</time>
      </trkpt>
      <trkpt lat="41.660783380" lon="2.593005110">
        <ele>630.90</ele>
        <time>2014-04-06T10:01:08Z</time>
      </trkpt>
      <trkpt lat="41.660783380" lon="2.593006780">
        <ele>630.90</ele>
        <time>2014-04-06T10:01:09Z</time>
      </trkpt>
      <trkpt lat="41.660781700" lon="2.593006780">
        <ele>631.20</ele>
        <time>2014-04-06T10:01:10Z</time>
      </trkpt>
      <trkpt lat="41.660781700" lon="2.593006780">
        <ele>631.50</ele>
        <time>2014-04-06T10:01:11Z</time>
      </trkpt>
      <trkpt lat="41.660781700" lon="2.593008460">
        <ele>631.20</ele>
        <time>2014-04-06T10:01:12Z</time>
      </trkpt>
      <trkpt lat="41.660781700" lon="2.593008460">
        <ele>631.10</ele>
        <time>2014-04-06T10:01:13Z</time>
      </trkpt>
      <trkpt lat="41.660781700" lon="2.593010140">
        <ele>630.90</ele>
        <time>2014-04-06T10:01:14Z</time>
      </trkpt>
      <trkpt lat="41.660781700" lon="2.593010140">
        <ele>631.00</ele>
        <time>2014-04-06T10:01:15Z</time>
      </trkpt>
      <trkpt lat="41.660781700" lon="2.593011810">
        <ele>631.10</ele>
        <time>2014-04-06T10:01:16Z</time>
      </trkpt>
      <trkpt lat="41.660781700" lon="2.593011810">
        <ele>630.80</ele>
        <time>2014-04-06T10:01:17Z</time>
      </trkpt>
      <trkpt lat="41.660781700" lon="2.593011810">
        <ele>630.60</ele>
        <time>2014-04-06T10:01:18Z</time>
      </trkpt>
      <trkpt lat="41.660781700" lon="2.593013490">
        <ele>631.10</ele>
        <time>2014-04-06T10:01:19Z</time>
      </trkpt>
      <trkpt lat="41.660781700" lon="2.593013490">
        <ele>631.40</ele>
        <time>2014-04-06T10:01:20Z</time>
      </trkpt>
      <trkpt lat="41.660781700" lon="2.593015000">
        <ele>631.60</ele>
        <time>2014-04-06T10:01:21Z</time>
      </trkpt>
      <trkpt lat="41.660781700" lon="2.593015000">
        <ele>631.60</ele>
        <time>2014-04-06T10:01:22Z</time>
      </trkpt>
      <trkpt lat="41.660783380" lon="2.593016680">
        <ele>631.60</ele>
        <time>2014-04-06T10:01:23Z</time>
      </trkpt>
      <trkpt lat="41.660783380" lon="2.593016680">
        <ele>631.40</ele>
        <time>2014-04-06T10:01:24Z</time>
      </trkpt>
      <trkpt lat="41.660783380" lon="2.593018350">
        <ele>631.30</ele>
        <time>2014-04-06T10:01:25Z</time>
      </trkpt>
      <trkpt lat="41.660785060" lon="2.593018350">
        <ele>631.30</ele>
        <time>2014-04-06T10:01:26Z</time>
      </trkpt>
      <trkpt lat="41.660785060" lon="2.593020030">
        <ele>631.30</ele>
        <time>2014-04-06T10:01:27Z</time>
      </trkpt>
      <trkpt lat="41.660785060" lon="2.593020030">
        <ele>631.30</ele>
        <time>2014-04-06T10:01:28Z</time>
      </trkpt>
      <trkpt lat="41.660786730" lon="2.593021700">
        <ele>631.50</ele>
        <time>2014-04-06T10:01:29Z</time>
      </trkpt>
      <trkpt lat="41.660786730" lon="2.593021700">
        <ele>631.50</ele>
        <time>2014-04-06T10:01:30Z</time>
      </trkpt>
      <trkpt lat="41.660788410" lon="2.593023380">
        <ele>631.20</ele>
        <time>2014-04-06T10:01:31Z</time>
      </trkpt>
      <trkpt lat="41.660788410" lon="2.593023380">
        <ele>631.00</ele>
        <time>2014-04-06T10:01:32Z</time>
      </trkpt>
      <trkpt lat="41.660790080" lon="2.593025060">
        <ele>630.80</ele>
        <time>2014-04-06T10:01:33Z</time>
      </trkpt>
      <trkpt lat="41.660790080" lon="2.593025060">
        <ele>631.20</ele>
        <time>2014-04-06T10:01:34Z</time>
      </trkpt>
      <trkpt lat="41.660791760" lon="2.593026730">
        <ele>631.40</ele>
        <time>2014-04-06T10:01:35Z</time>
      </trkpt>
      <trkpt lat="41.660791760" lon="2.593026730">
        <ele>631.60</ele>
        <time>2014-04-06T10:01:36Z</time>
      </trkpt>
      <trkpt lat="41.660791760" lon="2.593028410">
        <ele>631.70</ele>
        <time>2014-04-06T10:01:37Z</time>
      </trkpt>
      <trkpt lat="41.660793440" lon="2.593028410">
        <ele>631.70</ele>
        <time>2014-04-06T10:01:38Z</time>
      </trkpt>
      <trkpt lat="41.660793440" lon="2.593030090">
        <ele>631.70</ele>
        <time>2014-04-06T10:01:39Z</time>
      </trkpt>
      <trkpt lat="41.660795110" lon="2.593030090">
        <ele>631.70</ele>
        <time>2014-04-06T10:01:40Z</time>
      </trkpt>
      <trkpt lat="41.660795110" lon="2.593031760">
        <ele>631.90</ele>
        <time>2014-04-06T10:01:41Z</time>
      </trkpt>
      <trkpt lat="41.660796790" lon="2.593031760">
        <ele>632.00</ele>
        <time>2014-04-06T10:01:42Z</time>
      </trkpt>
      <trkpt lat="41.660796790" lon="2.593033440">
        <ele>631.70</ele>
        <time>2014-04-06T10:01:43Z</time>
      </trkpt>
      <trkpt lat="41.660796790" lon="2.593035120">
        <ele>631.50</ele>
        <time>2014-04-06T10:01:44Z</time>
      </trkpt>
      <trkpt lat="41.660798470" lon="2.593035120">
        <ele>631.60</ele>
        <time>2014-04-06T10:01:45Z</time>
      </trkpt>
      <trkpt lat="41.660798470" lon="2.593035120">
        <ele>631.70</ele>
        <time>2014-04-06T10:01:46Z</time>
      </trkpt>
      <trkpt lat="41.660798470" lon="2.593036790">
        <ele>631.80</ele>
        <time>2014-04-06T10:01:47Z</time>
      </trkpt>
      <trkpt lat="41.660800140" lon="2.593036790">
        <ele>631.60</ele>
        <time>2014-04-06T10:01:48Z</time>
      </trkpt>
      <trkpt lat="41.660800140" lon="2.593036790">
        <ele>631.40</ele>
        <time>2014-04-06T10:01:49Z</time>
      </trkpt>
      <trkpt lat="41.660800140" lon="2.593038470">
        <ele>631.50</ele>
        <time>2014-04-06T10:01:50Z</time>
      </trkpt>
      <trkpt lat="41.660800140" lon="2.593038470">
        <ele>631.50</ele>
        <time>2014-04-06T10:01:51Z</time>
      </trkpt>
      <trkpt lat="41.660801820" lon="2.593040140">
        <ele>631.40</ele>
        <time>2014-04-06T10:01:52Z</time>
      </trkpt>
      <trkpt lat="41.660801820" lon="2.593040140">
        <ele>631.20</ele>
        <time>2014-04-06T10:01:53Z</time>
      </trkpt>
      <trkpt lat="41.660801820" lon="2.593040140">
        <ele>631.10</ele>
        <time>2014-04-06T10:01:54Z</time>
      </trkpt>
      <trkpt lat="41.660801820" lon="2.593041820">
        <ele>631.20</ele>
        <time>2014-04-06T10:01:55Z</time>
      </trkpt>
      <trkpt lat="41.660801820" lon="2.593041820">
        <ele>631.20</ele>
        <time>2014-04-06T10:01:56Z</time>
      </trkpt>
      <trkpt lat="41.660801820" lon="2.593041820">
        <ele>631.00</ele>
        <time>2014-04-06T10:01:57Z</time>
      </trkpt>
      <trkpt lat="41.660801820" lon="2.593043330">
        <ele>630.90</ele>
        <time>2014-04-06T10:01:58Z</time>
      </trkpt>
      <trkpt lat="41.660803500" lon="2.593043330">
        <ele>630.80</ele>
        <time>2014-04-06T10:01:59Z</time>
      </trkpt>
      <trkpt lat="41.660803500" lon="2.593043330">
        <ele>630.60</ele>
        <time>2014-04-06T10:02:00Z</time>
      </trkpt>
      <trkpt lat="41.660803500" lon="2.593043330">
        <ele>630.50</ele>
        <time>2014-04-06T10:02:01Z</time>
      </trkpt>
      <trkpt lat="41.660803500" lon="2.593045010">
        <ele>630.70</ele>
        <time>2014-04-06T10:02:02Z</time>
      </trkpt>
      <trkpt lat="41.660803500" lon="2.593045010">
        <ele>630.70</ele>
        <time>2014-04-06T10:02:03Z</time>
      </trkpt>
      <trkpt lat="41.660803500" lon="2.593045010">
        <ele>630.80</ele>
        <time>2014-04-06T10:02:04Z</time>
      </trkpt>
      <trkpt lat="41.660803500" lon="2.593046680">
        <ele>630.90</ele>
        <time>2014-04-06T10:02:05Z</time>
      </trkpt>
      <trkpt lat="41.660803500" lon="2.593046680">
        <ele>630.90</ele>
        <time>2014-04-06T10:02:06Z</time>
      </trkpt>
      <trkpt lat="41.660803500" lon="2.593046680">
        <ele>631.00</ele>
        <time>2014-04-06T10:02:07Z</time>
      </trkpt>
      <trkpt lat="41.660803500" lon="2.593046680">
        <ele>631.10</ele>
        <time>2014-04-06T10:02:08Z</time>
      </trkpt>
      <trkpt lat="41.660803500" lon="2.593048360">
        <ele>631.40</ele>
        <time>2014-04-06T10:02:09Z</time>
      </trkpt>
      <trkpt lat="41.660803500" lon="2.593048360">
        <ele>631.70</ele>
        <time>2014-04-06T10:02:10Z</time>
      </trkpt>
      <trkpt lat="41.660803500" lon="2.593048360">
        <ele>631.80</ele>
        <time>2014-04-06T10:02:11Z</time>
      </trkpt>
      <trkpt lat="41.660805000" lon="2.593048360">
        <ele>631.60</ele>
        <time>2014-04-06T10:02:12Z</time>
      </trkpt>
      <trkpt lat="41.660805000" lon="2.593050040">
        <ele>631.50</ele>
        <time>2014-04-06T10:02:13Z</time>
      </trkpt>
      <trkpt lat="41.660805000" lon="2.593050040">
        <ele>631.20</ele>
        <time>2014-04-06T10:02:14Z</time>
      </trkpt>
      <trkpt lat="41.660805000" lon="2.593050040">
        <ele>631.00</ele>
        <time>2014-04-06T10:02:15Z</time>
      </trkpt>
      <trkpt lat="41.660805000" lon="2.593050040">
        <ele>631.10</ele>
        <time>2014-04-06T10:02:16Z</time>
      </trkpt>
      <trkpt lat="41.660805000" lon="2.593051710">
        <ele>631.10</ele>
        <time>2014-04-06T10:02:17Z</time>
      </trkpt>
      <trkpt lat="41.660805000" lon="2.593051710">
        <ele>631.20</ele>
        <time>2014-04-06T10:02:18Z</time>
      </trkpt>
      <trkpt lat="41.660805000" lon="2.593051710">
        <ele>631.10</ele>
        <time>2014-04-06T10:02:19Z</time>
      </trkpt>
      <trkpt lat="41.660805000" lon="2.593051710">
        <ele>631.00</ele>
        <time>2014-04-06T10:02:20Z</time>
      </trkpt>
      <trkpt lat="41.660806680" lon="2.593053390">
        <ele>630.90</ele>
        <time>2014-04-06T10:02:21Z</time>
      </trkpt>
      <trkpt lat="41.660806680" lon="2.593053390">
        <ele>630.90</ele>
        <time>2014-04-06T10:02:22Z</time>
      </trkpt>
      <trkpt lat="41.660806680" lon="2.593053390">
        <ele>631.00</ele>
        <time>2014-04-06T10:02:23Z</time>
      </trkpt>
      <trkpt lat="41.660806680" lon="2.593053390">
        <ele>631.00</ele>
        <time>2014-04-06T10:02:24Z</time>
      </trkpt>
      <trkpt lat="41.660808360" lon="2.593055060">
        <ele>631.00</ele>
        <time>2014-04-06T10:02:25Z</time>
      </trkpt>
      <trkpt lat="41.660808360" lon="2.593055060">
        <ele>631.10</ele>
        <time>2014-04-06T10:02:26Z</time>
      </trkpt>
      <trkpt lat="41.660810030" lon="2.593055060">
        <ele>631.20</ele>
        <time>2014-04-06T10:02:27Z</time>
      </trkpt>
      <trkpt lat="41.660810030" lon="2.593055060">
        <ele>631.40</ele>
        <time>2014-04-06T10:02:28Z</time>
      </trkpt>
      <trkpt lat="41.660811710" lon="2.593056740">
        <ele>631.50</ele>
        <time>2014-04-06T10:02:29Z</time>
      </trkpt>
      <trkpt lat="41.660811710" lon="2.593056740">
        <ele>631.60</ele>
        <time>2014-04-06T10:02:30Z</time>
      </trkpt>
      <trkpt lat="41.660811710" lon="2.593056740">
        <ele>631.40</ele>
        <time>2014-04-06T10:02:31Z</time>
      </trkpt>
      <trkpt lat="41.660813390" lon="2.593056740">
        <ele>631.30</ele>
        <time>2014-04-06T10:02:32Z</time>
      </trkpt>
      <trkpt lat="41.660813390" lon="2.593058420">
        <ele>631.30</ele>
        <time>2014-04-06T10:02:33Z</time>
      </trkpt>
      <trkpt lat="41.660815060" lon="2.593058420">
        <ele>631.30</ele>
        <time>2014-04-06T10:02:34Z</time>
      </trkpt>
      <trkpt lat="41.660815060" lon="2.593058420">
        <ele>631.30</ele>
        <time>2014-04-06T10:02:35Z</time>
      </trkpt>
      <trkpt lat="41.660815060" lon="2.593058420">
        <ele>631.30</ele>
        <time>2014-04-06T10:02:36Z</time>
      </trkpt>
      <trkpt lat="41.660816740" lon="2.593058420">
        <ele>631.30</ele>
        <time>2014-04-06T10:02:37Z</time>
      </trkpt>
      <trkpt lat="41.660816740" lon="2.593060090">
        <ele>631.70</ele>
        <time>2014-04-06T10:02:38Z</time>
      </trkpt>
      <trkpt lat="41.660816740" lon="2.593060090">
        <ele>632.00</ele>
        <time>2014-04-06T10:02:39Z</time>
      </trkpt>
      <trkpt lat="41.660816740" lon="2.593060090">
        <ele>631.50</ele>
        <time>2014-04-06T10:02:40Z</time>
      </trkpt>
      <trkpt lat="41.660816740" lon="2.593060090">
        <ele>631.10</ele>
        <time>2014-04-06T10:02:41Z</time>
      </trkpt>
      <trkpt lat="41.660816740" lon="2.593060090">
        <ele>630.90</ele>
        <time>2014-04-06T10:02:42Z</time>
      </trkpt>
      <trkpt lat="41.660816740" lon="2.593060090">
        <ele>630.80</ele>
        <time>2014-04-06T10:02:43Z</time>
      </trkpt>
      <trkpt lat="41.660818420" lon="2.593061770">
        <ele>630.70</ele>
        <time>2014-04-06T10:02:44Z</time>
      </trkpt>
      <trkpt lat="41.660818420" lon="2.593061770">
        <ele>631.00</ele>
        <time>2014-04-06T10:02:45Z</time>
      </trkpt>
      <trkpt lat="41.660818420" lon="2.593061770">
        <ele>631.10</ele>
        <time>2014-04-06T10:02:46Z</time>
      </trkpt>
      <trkpt lat="41.660820090" lon="2.593061770">
        <ele>631.10</ele>
        <time>2014-04-06T10:02:47Z</time>
      </trkpt>
      <trkpt lat="41.660820090" lon="2.593061770">
        <ele>631.00</ele>
        <time>2014-04-06T10:02:48Z</time>
      </trkpt>
      <trkpt lat="41.660820090" lon="2.593061770">
        <ele>631.00</ele>
        <time>2014-04-06T10:02:49Z</time>
      </trkpt>
      <trkpt lat="41.660820090" lon="2.593061770">
        <ele>631.50</ele>
        <time>2014-04-06T10:02:50Z</time>
      </trkpt>
      <trkpt lat="41.660820090" lon="2.593063450">
        <ele>631.80</ele>
        <time>2014-04-06T10:02:51Z</time>
      </trkpt>
      <trkpt lat="41.660821770" lon="2.593063450">
        <ele>631.80</ele>
        <time>2014-04-06T10:02:52Z</time>
      </trkpt>
      <trkpt lat="41.660821770" lon="2.593063450">
        <ele>631.80</ele>
        <time>2014-04-06T10:02:53Z</time>
      </trkpt>
      <trkpt lat="41.660821770" lon="2.593063450">
        <ele>631.70</ele>
        <time>2014-04-06T10:02:54Z</time>
      </trkpt>
      <trkpt lat="41.660821770" lon="2.593063450">
        <ele>631.70</ele>
        <time>2014-04-06T10:02:55Z</time>
      </trkpt>
      <trkpt lat="41.660821770" lon="2.593063450">
        <ele>631.70</ele>
        <time>2014-04-06T10:02:56Z</time>
      </trkpt>
      <trkpt lat="41.660821770" lon="2.593063450">
        <ele>631.50</ele>
        <time>2014-04-06T10:02:57Z</time>
      </trkpt>
      <trkpt lat="41.660823440" lon="2.593065120">
        <ele>631.40</ele>
        <time>2014-04-06T10:02:58Z</time>
      </trkpt>
      <trkpt lat="41.660823440" lon="2.593065120">
        <ele>631.50</ele>
        <time>2014-04-06T10:02:59Z</time>
      </trkpt>
      <trkpt lat="41.660823440" lon="2.593065120">
        <ele>631.50</ele>
        <time>2014-04-06T10:03:00Z</time>
      </trkpt>
      <trkpt lat="41.660825120" lon="2.593066800">
        <ele>631.40</ele>
        <time>2014-04-06T10:03:01Z</time>
      </trkpt>
      <trkpt lat="41.660825120" lon="2.593066800">
        <ele>631.20</ele>
        <time>2014-04-06T10:03:02Z</time>
      </trkpt>
      <trkpt lat="41.660825120" lon="2.593066800">
        <ele>631.20</ele>
        <time>2014-04-06T10:03:03Z</time>
      </trkpt>
      <trkpt lat="41.660825120" lon="2.593066800">
        <ele>631.20</ele>
        <time>2014-04-06T10:03:04Z</time>
      </trkpt>
      <trkpt lat="41.660825120" lon="2.593066800">
        <ele>631.20</ele>
        <time>2014-04-06T10:03:05Z</time>
      </trkpt>
      <trkpt lat="41.660825120" lon="2.593066800">
        <ele>631.10</ele>
        <time>2014-04-06T10:03:06Z</time>
      </trkpt>
      <trkpt lat="41.660825120" lon="2.593066800">
        <ele>631.00</ele>
        <time>2014-04-06T10:03:07Z</time>
      </trkpt>
      <trkpt lat="41.660826800" lon="2.593066800">
        <ele>631.00</ele>
        <time>2014-04-06T10:03:08Z</time>
      </trkpt>
      <trkpt lat="41.660826800" lon="2.593068480">
        <ele>630.90</ele>
        <time>2014-04-06T10:03:09Z</time>
      </trkpt>
      <trkpt lat="41.660826800" lon="2.593068480">
        <ele>630.90</ele>
        <time>2014-04-06T10:03:10Z</time>
      </trkpt>
      <trkpt lat="41.660828470" lon="2.593068480">
        <ele>631.10</ele>
        <time>2014-04-06T10:03:11Z</time>
      </trkpt>
      <trkpt lat="41.660828470" lon="2.593068480">
        <ele>631.20</ele>
        <time>2014-04-06T10:03:12Z</time>
      </trkpt>
      <trkpt lat="41.660828470" lon="2.593070150">
        <ele>631.00</ele>
        <time>2014-04-06T10:03:13Z</time>
      </trkpt>
      <trkpt lat="41.660828470" lon="2.593070150">
        <ele>630.80</ele>
        <time>2014-04-06T10:03:14Z</time>
      </trkpt>
      <trkpt lat="41.660830150" lon="2.593070150">
        <ele>630.60</ele>
        <time>2014-04-06T10:03:15Z</time>
      </trkpt>
      <trkpt lat="41.660830150" lon="2.593071830">
        <ele>630.80</ele>
        <time>2014-04-06T10:03:16Z</time>
      </trkpt>
      <trkpt lat="41.660830150" lon="2.593071830">
        <ele>631.00</ele>
        <time>2014-04-06T10:03:17Z</time>
      </trkpt>
      <trkpt lat="41.660831830" lon="2.593071830">
        <ele>630.80</ele>
        <time>2014-04-06T10:03:18Z</time>
      </trkpt>
      <trkpt lat="41.660831830" lon="2.593071830">
        <ele>630.70</ele>
        <time>2014-04-06T10:03:19Z</time>
      </trkpt>
      <trkpt lat="41.660831830" lon="2.593071830">
        <ele>631.20</ele>
        <time>2014-04-06T10:03:20Z</time>
      </trkpt>
      <trkpt lat="41.660833340" lon="2.593073340">
        <ele>631.50</ele>
        <time>2014-04-06T10:03:21Z</time>
      </trkpt>
      <trkpt lat="41.660833340" lon="2.593073340">
        <ele>631.70</ele>
        <time>2014-04-06T10:03:22Z</time>
      </trkpt>
      <trkpt lat="41.660833340" lon="2.593073340">
        <ele>631.70</ele>
        <time>2014-04-06T10:03:23Z</time>
      </trkpt>
      <trkpt lat="41.660835010" lon="2.593073340">
        <ele>631.70</ele>
        <time>2014-04-06T10:03:24Z</time>
      </trkpt>
      <trkpt lat="41.660835010" lon="2.593073340">
        <ele>631.50</ele>
        <time>2014-04-06T10:03:25Z</time>
      </trkpt>
      <trkpt lat="41.660836690" lon="2.593075010">
        <ele>631.30</ele>
        <time>2014-04-06T10:03:26Z</time>
      </trkpt>
      <trkpt lat="41.660836690" lon="2.593075010">
        <ele>631.40</ele>
        <time>2014-04-06T10:03:27Z</time>
      </trkpt>
      <trkpt lat="41.660836690" lon="2.593075010">
        <ele>631.50</ele>
        <time>2014-04-06T10:03:28Z</time>
      </trkpt>
      <trkpt lat="41.660838360" lon="2.593075010">
        <ele>631.50</ele>
        <time>2014-04-06T10:03:29Z</time>
      </trkpt>
      <trkpt lat="41.660838360" lon="2.593075010">
        <ele>631.20</ele>
        <time>2014-04-06T10:03:30Z</time>
      </trkpt>
      <trkpt lat="41.660838360" lon="2.593075010">
        <ele>631.00</ele>
        <time>2014-04-06T10:03:31Z</time>
      </trkpt>
      <trkpt lat="41.660838360" lon="2.593075010">
        <ele>631.30</ele>
        <time>2014-04-06T10:03:32Z</time>
      </trkpt>
      <trkpt lat="41.660840040" lon="2.593075010">
        <ele>631.60</ele>
        <time>2014-04-06T10:03:33Z</time>
      </trkpt>
      <trkpt lat="41.660840040" lon="2.593075010">
        <ele>631.80</ele>
        <time>2014-04-06T10:03:34Z</time>
      </trkpt>
      <trkpt lat="41.660841720" lon="2.593075010">
        <ele>631.80</ele>
        <time>2014-04-06T10:03:35Z</time>
      </trkpt>
      <trkpt lat="41.660841720" lon="2.593075010">
        <ele>631.80</ele>
        <time>2014-04-06T10:03:36Z</time>
      </trkpt>
      <trkpt lat="41.660843390" lon="2.593075010">
        <ele>631.60</ele>
        <time>2014-04-06T10:03:37Z</time>
      </trkpt>
      <trkpt lat="41.660843390" lon="2.593075010">
        <ele>631.60</ele>
        <time>2014-04-06T10:03:38Z</time>
      </trkpt>
      <trkpt lat="41.660843390" lon="2.593075010">
        <ele>631.30</ele>
        <time>2014-04-06T10:03:39Z</time>
      </trkpt>
      <trkpt lat="41.660845070" lon="2.593073340">
        <ele>631.20</ele>
        <time>2014-04-06T10:03:40Z</time>
      </trkpt>
      <trkpt lat="41.660845070" lon="2.593073340">
        <ele>631.00</ele>
        <time>2014-04-06T10:03:41Z</time>
      </trkpt>
      <trkpt lat="41.660845070" lon="2.593073340">
        <ele>631.30</ele>
        <time>2014-04-06T10:03:42Z</time>
      </trkpt>
      <trkpt lat="41.660846750" lon="2.593073340">
        <ele>631.40</ele>
        <time>2014-04-06T10:03:43Z</time>
      </trkpt>
      <trkpt lat="41.660846750" lon="2.593073340">
        <ele>631.60</ele>
        <time>2014-04-06T10:03:44Z</time>
      </trkpt>
      <trkpt lat="41.660846750" lon="2.593075010">
        <ele>631.70</ele>
        <time>2014-04-06T10:03:45Z</time>
      </trkpt>
      <trkpt lat="41.660846750" lon="2.593075010">
        <ele>631.30</ele>
        <time>2014-04-06T10:03:46Z</time>
      </trkpt>
      <trkpt lat="41.660848420" lon="2.593075010">
        <ele>630.90</ele>
        <time>2014-04-06T10:03:47Z</time>
      </trkpt>
      <trkpt lat="41.660848420" lon="2.593075010">
        <ele>630.70</ele>
        <time>2014-04-06T10:03:48Z</time>
      </trkpt>
      <trkpt lat="41.660848420" lon="2.593075010">
        <ele>630.90</ele>
        <time>2014-04-06T10:03:49Z</time>
      </trkpt>
      <trkpt lat="41.660848420" lon="2.593075010">
        <ele>631.10</ele>
        <time>2014-04-06T10:03:50Z</time>
      </trkpt>
      <trkpt lat="41.660848420" lon="2.593075010">
        <ele>631.20</ele>
        <time>2014-04-06T10:03:51Z</time>
      </trkpt>
      <trkpt lat="41.660850100" lon="2.593075010">
        <ele>631.30</ele>
        <time>2014-04-06T10:03:52Z</time>
      </trkpt>
      <trkpt lat="41.660850100" lon="2.593075010">
        <ele>631.40</ele>
        <time>2014-04-06T10:03:53Z</time>
      </trkpt>
      <trkpt lat="41.660850100" lon="2.593075010">
        <ele>631.00</ele>
        <time>2014-04-06T10:03:54Z</time>
      </trkpt>
      <trkpt lat="41.660850100" lon="2.593075010">
        <ele>630.70</ele>
        <time>2014-04-06T10:03:55Z</time>
      </trkpt>
      <trkpt lat="41.660850100" lon="2.593075010">
        <ele>631.00</ele>
        <time>2014-04-06T10:03:56Z</time>
      </trkpt>
      <trkpt lat="41.660850100" lon="2.593073340">
        <ele>631.20</ele>
        <time>2014-04-06T10:03:57Z</time>
      </trkpt>
      <trkpt lat="41.660850100" lon="2.593073340">
        <ele>631.10</ele>
        <time>2014-04-06T10:03:58Z</time>
      </trkpt>
      <trkpt lat="41.660850100" lon="2.593073340">
        <ele>631.00</ele>
        <time>2014-04-06T10:03:59Z</time>
      </trkpt>
      <trkpt lat="41.660850100" lon="2.593073340">
        <ele>631.00</ele>
        <time>2014-04-06T10:04:00Z</time>
      </trkpt>
      <trkpt lat="41.660850100" lon="2.593073340">
        <ele>631.00</ele>
        <time>2014-04-06T10:04:01Z</time>
      </trkpt>
      <trkpt lat="41.660850100" lon="2.593073340">
        <ele>631.00</ele>
        <time>2014-04-06T10:04:02Z</time>
      </trkpt>
      <trkpt lat="41.660850100" lon="2.593073340">
        <ele>630.90</ele>
        <time>2014-04-06T10:04:03Z</time>
      </trkpt>
      <trkpt lat="41.660850100" lon="2.593073340">
        <ele>630.90</ele>
        <time>2014-04-06T10:04:04Z</time>
      </trkpt>
      <trkpt lat="41.660850100" lon="2.593073340">
        <ele>631.00</ele>
        <time>2014-04-06T10:04:05Z</time>
      </trkpt>
      <trkpt lat="41.660850100" lon="2.593073340">
        <ele>631.10</ele>
        <time>2014-04-06T10:04:06Z</time>
      </trkpt>
      <trkpt lat="41.660850100" lon="2.593071830">
        <ele>631.10</ele>
        <time>2014-04-06T10:04:07Z</time>
      </trkpt>
      <trkpt lat="41.660850100" lon="2.593071830">
        <ele>631.60</ele>
        <time>2014-04-06T10:04:08Z</time>
      </trkpt>
      <trkpt lat="41.660850100" lon="2.593071830">
        <ele>631.90</ele>
        <time>2014-04-06T10:04:09Z</time>
      </trkpt>
      <trkpt lat="41.660850100" lon="2.593071830">
        <ele>631.80</ele>
        <time>2014-04-06T10:04:10Z</time>
      </trkpt>
      <trkpt lat="41.660850100" lon="2.593071830">
        <ele>631.70</ele>
        <time>2014-04-06T10:04:11Z</time>
      </trkpt>
      <trkpt lat="41.660850100" lon="2.593071830">
        <ele>631.70</ele>
        <time>2014-04-06T10:04:12Z</time>
      </trkpt>
      <trkpt lat="41.660850100" lon="2.593071830">
        <ele>631.80</ele>
        <time>2014-04-06T10:04:13Z</time>
      </trkpt>
      <trkpt lat="41.660850100" lon="2.593071830">
        <ele>631.80</ele>
        <time>2014-04-06T10:04:14Z</time>
      </trkpt>
      <trkpt lat="41.660850100" lon="2.593071830">
        <ele>631.70</ele>
        <time>2014-04-06T10:04:15Z</time>
      </trkpt>
      <trkpt lat="41.660850100" lon="2.593071830">
        <ele>631.50</ele>
        <time>2014-04-06T10:04:16Z</time>
      </trkpt>
      <trkpt lat="41.660850100" lon="2.593071830">
        <ele>631.80</ele>
        <time>2014-04-06T10:04:17Z</time>
      </trkpt>
      <trkpt lat="41.660850100" lon="2.593071830">
        <ele>632.00</ele>
        <time>2014-04-06T10:04:18Z</time>
      </trkpt>
      <trkpt lat="41.660850100" lon="2.593071830">
        <ele>632.10</ele>
        <time>2014-04-06T10:04:19Z</time>
      </trkpt>
      <trkpt lat="41.660850100" lon="2.593071830">
        <ele>632.20</ele>
        <time>2014-04-06T10:04:20Z</time>
      </trkpt>
      <trkpt lat="41.660850100" lon="2.593070150">
        <ele>632.30</ele>
        <time>2014-04-06T10:04:21Z</time>
      </trkpt>
      <trkpt lat="41.660850100" lon="2.593068480">
        <ele>632.20</ele>
        <time>2014-04-06T10:04:22Z</time>
      </trkpt>
      <trkpt lat="41.660850100" lon="2.593068480">
        <ele>632.10</ele>
        <time>2014-04-06T10:04:23Z</time>
      </trkpt>
      <trkpt lat="41.660850100" lon="2.593068480">
        <ele>632.60</ele>
        <time>2014-04-06T10:04:24Z</time>
      </trkpt>
      <trkpt lat="41.660850100" lon="2.593068480">
        <ele>633.00</ele>
        <time>2014-04-06T10:04:25Z</time>
      </trkpt>
      <trkpt lat="41.660850100" lon="2.593068480">
        <ele>633.30</ele>
        <time>2014-04-06T10:04:26Z</time>
      </trkpt>
      <trkpt lat="41.660850100" lon="2.593068480">
        <ele>633.00</ele>
        <time>2014-04-06T10:04:27Z</time>
      </trkpt>
      <trkpt lat="41.660850100" lon="2.593068480">
        <ele>632.80</ele>
        <time>2014-04-06T10:04:28Z</time>
      </trkpt>
      <trkpt lat="41.660850100" lon="2.593066800">
        <ele>632.60</ele>
        <time>2014-04-06T10:04:29Z</time>
      </trkpt>
      <trkpt lat="41.660850100" lon="2.593066800">
        <ele>632.50</ele>
        <time>2014-04-06T10:04:30Z</time>
      </trkpt>
      <trkpt lat="41.660850100" lon="2.593066800">
        <ele>632.50</ele>
        <time>2014-04-06T10:04:31Z</time>
      </trkpt>
      <trkpt lat="41.660848420" lon="2.593066800">
        <ele>632.40</ele>
        <time>2014-04-06T10:04:32Z</time>
      </trkpt>
      <trkpt lat="41.660848420" lon="2.593066800">
        <ele>632.40</ele>
        <time>2014-04-06T10:04:33Z</time>
      </trkpt>
      <trkpt lat="41.660848420" lon="2.593066800">
        <ele>632.80</ele>
        <time>2014-04-06T10:04:34Z</time>
      </trkpt>
      <trkpt lat="41.660848420" lon="2.593066800">
        <ele>633.10</ele>
        <time>2014-04-06T10:04:35Z</time>
      </trkpt>
      <trkpt lat="41.660848420" lon="2.593066800">
        <ele>632.90</ele>
        <time>2014-04-06T10:04:36Z</time>
      </trkpt>
      <trkpt lat="41.660848420" lon="2.593066800">
        <ele>632.70</ele>
        <time>2014-04-06T10:04:37Z</time>
      </trkpt>
      <trkpt lat="41.660848420" lon="2.593066800">
        <ele>632.60</ele>
        <time>2014-04-06T10:04:38Z</time>
      </trkpt>
      <trkpt lat="41.660848420" lon="2.593066800">
        <ele>633.00</ele>
        <time>2014-04-06T10:04:39Z</time>
      </trkpt>
      <trkpt lat="41.660848420" lon="2.593066800">
        <ele>633.30</ele>
        <time>2014-04-06T10:04:40Z</time>
      </trkpt>
      <trkpt lat="41.660848420" lon="2.593066800">
        <ele>633.20</ele>
        <time>2014-04-06T10:04:41Z</time>
      </trkpt>
      <trkpt lat="41.660848420" lon="2.593068480">
        <ele>633.20</ele>
        <time>2014-04-06T10:04:42Z</time>
      </trkpt>
      <trkpt lat="41.660848420" lon="2.593068480">
        <ele>633.00</ele>
        <time>2014-04-06T10:04:43Z</time>
      </trkpt>
      <trkpt lat="41.660848420" lon="2.593068480">
        <ele>632.90</ele>
        <time>2014-04-06T10:04:44Z</time>
      </trkpt>
      <trkpt lat="41.660848420" lon="2.593068480">
        <ele>632.80</ele>
        <time>2014-04-06T10:04:45Z</time>
      </trkpt>
      <trkpt lat="41.660848420" lon="2.593068480">
        <ele>632.90</ele>
        <time>2014-04-06T10:04:46Z</time>
      </trkpt>
      <trkpt lat="41.660848420" lon="2.593068480">
        <ele>633.00</ele>
        <time>2014-04-06T10:04:47Z</time>
      </trkpt>
      <trkpt lat="41.660848420" lon="2.593068480">
        <ele>633.10</ele>
        <time>2014-04-06T10:04:48Z</time>
      </trkpt>
      <trkpt lat="41.660846750" lon="2.593068480">
        <ele>633.30</ele>
        <time>2014-04-06T10:04:49Z</time>
      </trkpt>
      <trkpt lat="41.660846750" lon="2.593068480">
        <ele>633.30</ele>
        <time>2014-04-06T10:04:50Z</time>
      </trkpt>
      <trkpt lat="41.660846750" lon="2.593068480">
        <ele>633.30</ele>
        <time>2014-04-06T10:04:51Z</time>
      </trkpt>
      <trkpt lat="41.660846750" lon="2.593068480">
        <ele>633.30</ele>
        <time>2014-04-06T10:04:52Z</time>
      </trkpt>
      <trkpt lat="41.660846750" lon="2.593068480">
        <ele>633.30</ele>
        <time>2014-04-06T10:04:53Z</time>
      </trkpt>
      <trkpt lat="41.660846750" lon="2.593070150">
        <ele>633.20</ele>
        <time>2014-04-06T10:04:54Z</time>
      </trkpt>
      <trkpt lat="41.660846750" lon="2.593070150">
        <ele>633.40</ele>
        <time>2014-04-06T10:04:55Z</time>
      </trkpt>
      <trkpt lat="41.660846750" lon="2.593068480">
        <ele>633.60</ele>
        <time>2014-04-06T10:04:56Z</time>
      </trkpt>
      <trkpt lat="41.660846750" lon="2.593068480">
        <ele>633.70</ele>
        <time>2014-04-06T10:04:57Z</time>
      </trkpt>
      <trkpt lat="41.660846750" lon="2.593068480">
        <ele>633.60</ele>
        <time>2014-04-06T10:04:58Z</time>
      </trkpt>
      <trkpt lat="41.660848420" lon="2.593068480">
        <ele>633.50</ele>
        <time>2014-04-06T10:04:59Z</time>
      </trkpt>
      <trkpt lat="41.660848420" lon="2.593068480">
        <ele>633.50</ele>
        <time>2014-04-06T10:05:00Z</time>
      </trkpt>
      <trkpt lat="41.660848420" lon="2.593068480">
        <ele>633.50</ele>
        <time>2014-04-06T10:05:01Z</time>
      </trkpt>
      <trkpt lat="41.660848420" lon="2.593068480">
        <ele>633.60</ele>
        <time>2014-04-06T10:05:02Z</time>
      </trkpt>
      <trkpt lat="41.660848420" lon="2.593068480">
        <ele>633.70</ele>
        <time>2014-04-06T10:05:03Z</time>
      </trkpt>
      <trkpt lat="41.660850100" lon="2.593068480">
        <ele>633.70</ele>
        <time>2014-04-06T10:05:04Z</time>
      </trkpt>
      <trkpt lat="41.660850100" lon="2.593068480">
        <ele>633.60</ele>
        <time>2014-04-06T10:05:05Z</time>
      </trkpt>
      <trkpt lat="41.660850100" lon="2.593068480">
        <ele>633.50</ele>
        <time>2014-04-06T10:05:06Z</time>
      </trkpt>
      <trkpt lat="41.660850100" lon="2.593068480">
        <ele>633.40</ele>
        <time>2014-04-06T10:05:07Z</time>
      </trkpt>
      <trkpt lat="41.660850100" lon="2.593066800">
        <ele>633.30</ele>
        <time>2014-04-06T10:05:08Z</time>
      </trkpt>
      <trkpt lat="41.660850100" lon="2.593066800">
        <ele>633.30</ele>
        <time>2014-04-06T10:05:09Z</time>
      </trkpt>
      <trkpt lat="41.660850100" lon="2.593066800">
        <ele>633.50</ele>
        <time>2014-04-06T10:05:10Z</time>
      </trkpt>
      <trkpt lat="41.660850100" lon="2.593066800">
        <ele>633.70</ele>
        <time>2014-04-06T10:05:11Z</time>
      </trkpt>
      <trkpt lat="41.660850100" lon="2.593066800">
        <ele>633.80</ele>
        <time>2014-04-06T10:05:12Z</time>
      </trkpt>
      <trkpt lat="41.660850100" lon="2.593066800">
        <ele>633.80</ele>
        <time>2014-04-06T10:05:13Z</time>
      </trkpt>
      <trkpt lat="41.660850100" lon="2.593066800">
        <ele>633.70</ele>
        <time>2014-04-06T10:05:14Z</time>
      </trkpt>
      <trkpt lat="41.660850100" lon="2.593068480">
        <ele>633.60</ele>
        <time>2014-04-06T10:05:15Z</time>
      </trkpt>
      <trkpt lat="41.660848420" lon="2.593068480">
        <ele>633.50</ele>
        <time>2014-04-06T10:05:16Z</time>
      </trkpt>
      <trkpt lat="41.660848420" lon="2.593068480">
        <ele>633.40</ele>
        <time>2014-04-06T10:05:17Z</time>
      </trkpt>
      <trkpt lat="41.660848420" lon="2.593068480">
        <ele>633.30</ele>
        <time>2014-04-06T10:05:18Z</time>
      </trkpt>
      <trkpt lat="41.660851780" lon="2.593070150">
        <ele>633.50</ele>
        <time>2014-04-06T10:05:19Z</time>
      </trkpt>
      <trkpt lat="41.660851780" lon="2.593068480">
        <ele>633.60</ele>
        <time>2014-04-06T10:05:20Z</time>
      </trkpt>
      <trkpt lat="41.660853450" lon="2.593068480">
        <ele>633.10</ele>
        <time>2014-04-06T10:05:21Z</time>
      </trkpt>
      <trkpt lat="41.660855130" lon="2.593068480">
        <ele>632.70</ele>
        <time>2014-04-06T10:05:22Z</time>
      </trkpt>
      <trkpt lat="41.660855130" lon="2.593066800">
        <ele>632.40</ele>
        <time>2014-04-06T10:05:23Z</time>
      </trkpt>
      <trkpt lat="41.660855130" lon="2.593066800">
        <ele>632.50</ele>
        <time>2014-04-06T10:05:24Z</time>
      </trkpt>
      <trkpt lat="41.660856800" lon="2.593065120">
        <ele>632.60</ele>
        <time>2014-04-06T10:05:25Z</time>
      </trkpt>
      <trkpt lat="41.660856800" lon="2.593063450">
        <ele>632.70</ele>
        <time>2014-04-06T10:05:26Z</time>
      </trkpt>
      <trkpt lat="41.660858480" lon="2.593061770">
        <ele>632.80</ele>
        <time>2014-04-06T10:05:27Z</time>
      </trkpt>
      <trkpt lat="41.660858480" lon="2.593060090">
        <ele>632.90</ele>
        <time>2014-04-06T10:05:28Z</time>
      </trkpt>
      <trkpt lat="41.660860160" lon="2.593058420">
        <ele>633.00</ele>
        <time>2014-04-06T10:05:29Z</time>
      </trkpt>
      <trkpt lat="41.660860160" lon="2.593056740">
        <ele>633.00</ele>
        <time>2014-04-06T10:05:30Z</time>
      </trkpt>
      <trkpt lat="41.660861670" lon="2.593055060">
        <ele>633.30</ele>
        <time>2014-04-06T10:05:31Z</time>
      </trkpt>
      <trkpt lat="41.660861670" lon="2.593053390">
        <ele>633.40</ele>
        <time>2014-04-06T10:05:32Z</time>
      </trkpt>
      <trkpt lat="41.660863340" lon="2.593051710">
        <ele>633.30</ele>
        <time>2014-04-06T10:05:33Z</time>
      </trkpt>
      <trkpt lat="41.660863340" lon="2.593050040">
        <ele>633.20</ele>
        <time>2014-04-06T10:05:34Z</time>
      </trkpt>
      <trkpt lat="41.660865020" lon="2.593050040">
        <ele>633.10</ele>
        <time>2014-04-06T10:05:35Z</time>
      </trkpt>
      <trkpt lat="41.660865020" lon="2.593048360">
        <ele>633.00</ele>
        <time>2014-04-06T10:05:36Z</time>
      </trkpt>
      <trkpt lat="41.660866700" lon="2.593046680">
        <ele>633.00</ele>
        <time>2014-04-06T10:05:37Z</time>
      </trkpt>
      <trkpt lat="41.660866700" lon="2.593045010">
        <ele>633.20</ele>
        <time>2014-04-06T10:05:38Z</time>
      </trkpt>
      <trkpt lat="41.660866700" lon="2.593043330">
        <ele>633.30</ele>
        <time>2014-04-06T10:05:39Z</time>
      </trkpt>
      <trkpt lat="41.660868370" lon="2.593043330">
        <ele>633.40</ele>
        <time>2014-04-06T10:05:40Z</time>
      </trkpt>
      <trkpt lat="41.660868370" lon="2.593041820">
        <ele>633.40</ele>
        <time>2014-04-06T10:05:41Z</time>
      </trkpt>
      <trkpt lat="41.660870050" lon="2.593040140">
        <ele>633.50</ele>
        <time>2014-04-06T10:05:42Z</time>
      </trkpt>
      <trkpt lat="41.660870050" lon="2.593038470">
        <ele>633.60</ele>
        <time>2014-04-06T10:05:43Z</time>
      </trkpt>
      <trkpt lat="41.660871720" lon="2.593036790">
        <ele>633.70</ele>
        <time>2014-04-06T10:05:44Z</time>
      </trkpt>
      <trkpt lat="41.660870050" lon="2.593036790">
        <ele>633.70</ele>
        <time>2014-04-06T10:05:45Z</time>
      </trkpt>
      <trkpt lat="41.660870050" lon="2.593036790">
        <ele>633.70</ele>
        <time>2014-04-06T10:05:46Z</time>
      </trkpt>
      <trkpt lat="41.660868370" lon="2.593035120">
        <ele>633.80</ele>
        <time>2014-04-06T10:05:47Z</time>
      </trkpt>
      <trkpt lat="41.660868370" lon="2.593033440">
        <ele>634.10</ele>
        <time>2014-04-06T10:05:48Z</time>
      </trkpt>
      <trkpt lat="41.660868370" lon="2.593031760">
        <ele>634.30</ele>
        <time>2014-04-06T10:05:49Z</time>
      </trkpt>
      <trkpt lat="41.660868370" lon="2.593028410">
        <ele>634.30</ele>
        <time>2014-04-06T10:05:50Z</time>
      </trkpt>
      <trkpt lat="41.660868370" lon="2.593026730">
        <ele>634.40</ele>
        <time>2014-04-06T10:05:51Z</time>
      </trkpt>
      <trkpt lat="41.660866700" lon="2.593025060">
        <ele>634.20</ele>
        <time>2014-04-06T10:05:52Z</time>
      </trkpt>
      <trkpt lat="41.660865020" lon="2.593023380">
        <ele>634.20</ele>
        <time>2014-04-06T10:05:53Z</time>
      </trkpt>
      <trkpt lat="41.660863340" lon="2.593020030">
        <ele>634.10</ele>
        <time>2014-04-06T10:05:54Z</time>
      </trkpt>
      <trkpt lat="41.660863340" lon="2.593021700">
        <ele>633.90</ele>
        <time>2014-04-06T10:05:55Z</time>
      </trkpt>
      <trkpt lat="41.660863340" lon="2.593020030">
        <ele>633.70</ele>
        <time>2014-04-06T10:05:56Z</time>
      </trkpt>
      <trkpt lat="41.660863340" lon="2.593020030">
        <ele>633.50</ele>
        <time>2014-04-06T10:05:57Z</time>
      </trkpt>
      <trkpt lat="41.660863340" lon="2.593018350">
        <ele>633.30</ele>
        <time>2014-04-06T10:05:58Z</time>
      </trkpt>
      <trkpt lat="41.660861670" lon="2.593016680">
        <ele>633.40</ele>
        <time>2014-04-06T10:05:59Z</time>
      </trkpt>
      <trkpt lat="41.660861670" lon="2.593015000">
        <ele>633.40</ele>
        <time>2014-04-06T10:06:00Z</time>
      </trkpt>
      <trkpt lat="41.660860160" lon="2.593013490">
        <ele>633.40</ele>
        <time>2014-04-06T10:06:01Z</time>
      </trkpt>
      <trkpt lat="41.660860160" lon="2.593013490">
        <ele>633.20</ele>
        <time>2014-04-06T10:06:02Z</time>
      </trkpt>
      <trkpt lat="41.660860160" lon="2.593013490">
        <ele>633.10</ele>
        <time>2014-04-06T10:06:03Z</time>
      </trkpt>
      <trkpt lat="41.660860160" lon="2.593011810">
        <ele>633.40</ele>
        <time>2014-04-06T10:06:04Z</time>
      </trkpt>
      <trkpt lat="41.660858480" lon="2.593011810">
        <ele>633.60</ele>
        <time>2014-04-06T10:06:05Z</time>
      </trkpt>
      <trkpt lat="41.660858480" lon="2.593011810">
        <ele>633.50</ele>
        <time>2014-04-06T10:06:06Z</time>
      </trkpt>
      <trkpt lat="41.660858480" lon="2.593010140">
        <ele>633.40</ele>
        <time>2014-04-06T10:06:07Z</time>
      </trkpt>
      <trkpt lat="41.660858480" lon="2.593010140">
        <ele>633.30</ele>
        <time>2014-04-06T10:06:08Z</time>
      </trkpt>
      <trkpt lat="41.660858480" lon="2.593010140">
        <ele>633.60</ele>
        <time>2014-04-06T10:06:09Z</time>
      </trkpt>
      <trkpt lat="41.660858480" lon="2.593010140">
        <ele>633.80</ele>
        <time>2014-04-06T10:06:10Z</time>
      </trkpt>
      <trkpt lat="41.660858480" lon="2.593008460">
        <ele>633.60</ele>
        <time>2014-04-06T10:06:11Z</time>
      </trkpt>
      <trkpt lat="41.660858480" lon="2.593008460">
        <ele>633.50</ele>
        <time>2014-04-06T10:06:12Z</time>
      </trkpt>
      <trkpt lat="41.660858480" lon="2.593006780">
        <ele>633.40</ele>
        <time>2014-04-06T10:06:13Z</time>
      </trkpt>
      <trkpt lat="41.660858480" lon="2.593006780">
        <ele>633.90</ele>
        <time>2014-04-06T10:06:14Z</time>
      </trkpt>
      <trkpt lat="41.660856800" lon="2.593005110">
        <ele>634.20</ele>
        <time>2014-04-06T10:06:15Z</time>
      </trkpt>
      <trkpt lat="41.660856800" lon="2.593005110">
        <ele>634.10</ele>
        <time>2014-04-06T10:06:16Z</time>
      </trkpt>
      <trkpt lat="41.660856800" lon="2.593005110">
        <ele>634.10</ele>
        <time>2014-04-06T10:06:17Z</time>
      </trkpt>
      <trkpt lat="41.660856800" lon="2.593005110">
        <ele>633.80</ele>
        <time>2014-04-06T10:06:18Z</time>
      </trkpt>
      <trkpt lat="41.660858480" lon="2.593005110">
        <ele>633.60</ele>
        <time>2014-04-06T10:06:19Z</time>
      </trkpt>
      <trkpt lat="41.660858480" lon="2.593005110">
        <ele>633.40</ele>
        <time>2014-04-06T10:06:20Z</time>
      </trkpt>
      <trkpt lat="41.660860160" lon="2.593006780">
        <ele>633.30</ele>
        <time>2014-04-06T10:06:21Z</time>
      </trkpt>
      <trkpt lat="41.660860160" lon="2.593006780">
        <ele>633.20</ele>
        <time>2014-04-06T10:06:22Z</time>
      </trkpt>
      <trkpt lat="41.660860160" lon="2.593006780">
        <ele>633.00</ele>
        <time>2014-04-06T10:06:23Z</time>
      </trkpt>
      <trkpt lat="41.660861670" lon="2.593006780">
        <ele>632.90</ele>
        <time>2014-04-06T10:06:24Z</time>
      </trkpt>
      <trkpt lat="41.660861670" lon="2.593006780">
        <ele>632.90</ele>
        <time>2014-04-06T10:06:25Z</time>
      </trkpt>
      <trkpt lat="41.660861670" lon="2.593006780">
        <ele>632.90</ele>
        <time>2014-04-06T10:06:26Z</time>
      </trkpt>
      <trkpt lat="41.660860160" lon="2.593006780">
        <ele>632.90</ele>
        <time>2014-04-06T10:06:27Z</time>
      </trkpt>
      <trkpt lat="41.660860160" lon="2.593006780">
        <ele>632.90</ele>
        <time>2014-04-06T10:06:28Z</time>
      </trkpt>
      <trkpt lat="41.660860160" lon="2.593006780">
        <ele>632.80</ele>
        <time>2014-04-06T10:06:29Z</time>
      </trkpt>
      <trkpt lat="41.660860160" lon="2.593008460">
        <ele>632.90</ele>
        <time>2014-04-06T10:06:30Z</time>
      </trkpt>
      <trkpt lat="41.660860160" lon="2.593008460">
        <ele>633.00</ele>
        <time>2014-04-06T10:06:31Z</time>
      </trkpt>
      <trkpt lat="41.660860160" lon="2.593008460">
        <ele>633.10</ele>
        <time>2014-04-06T10:06:32Z</time>
      </trkpt>
      <trkpt lat="41.660860160" lon="2.593008460">
        <ele>633.00</ele>
        <time>2014-04-06T10:06:33Z</time>
      </trkpt>
      <trkpt lat="41.660860160" lon="2.593008460">
        <ele>633.00</ele>
        <time>2014-04-06T10:06:34Z</time>
      </trkpt>
      <trkpt lat="41.660860160" lon="2.593008460">
        <ele>633.10</ele>
        <time>2014-04-06T10:06:35Z</time>
      </trkpt>
      <trkpt lat="41.660860160" lon="2.593010140">
        <ele>633.10</ele>
        <time>2014-04-06T10:06:36Z</time>
      </trkpt>
      <trkpt lat="41.660860160" lon="2.593010140">
        <ele>633.00</ele>
        <time>2014-04-06T10:06:37Z</time>
      </trkpt>
      <trkpt lat="41.660860160" lon="2.593010140">
        <ele>633.00</ele>
        <time>2014-04-06T10:06:38Z</time>
      </trkpt>
      <trkpt lat="41.660860160" lon="2.593010140">
        <ele>632.90</ele>
        <time>2014-04-06T10:06:39Z</time>
      </trkpt>
      <trkpt lat="41.660860160" lon="2.593008460">
        <ele>632.50</ele>
        <time>2014-04-06T10:06:40Z</time>
      </trkpt>
      <trkpt lat="41.660860160" lon="2.593008460">
        <ele>632.20</ele>
        <time>2014-04-06T10:06:41Z</time>
      </trkpt>
      <trkpt lat="41.660860160" lon="2.593008460">
        <ele>632.50</ele>
        <time>2014-04-06T10:06:42Z</time>
      </trkpt>
      <trkpt lat="41.660860160" lon="2.593008460">
        <ele>632.70</ele>
        <time>2014-04-06T10:06:43Z</time>
      </trkpt>
      <trkpt lat="41.660860160" lon="2.593008460">
        <ele>632.80</ele>
        <time>2014-04-06T10:06:44Z</time>
      </trkpt>
      <trkpt lat="41.660860160" lon="2.593008460">
        <ele>632.90</ele>
        <time>2014-04-06T10:06:45Z</time>
      </trkpt>
      <trkpt lat="41.660860160" lon="2.593008460">
        <ele>633.00</ele>
        <time>2014-04-06T10:06:46Z</time>
      </trkpt>
      <trkpt lat="41.660860160" lon="2.593008460">
        <ele>632.90</ele>
        <time>2014-04-06T10:06:47Z</time>
      </trkpt>
      <trkpt lat="41.660858480" lon="2.593008460">
        <ele>632.90</ele>
        <time>2014-04-06T10:06:48Z</time>
      </trkpt>
      <trkpt lat="41.660858480" lon="2.593008460">
        <ele>632.90</ele>
        <time>2014-04-06T10:06:49Z</time>
      </trkpt>
      <trkpt lat="41.660858480" lon="2.593008460">
        <ele>633.00</ele>
        <time>2014-04-06T10:06:50Z</time>
      </trkpt>
      <trkpt lat="41.660860160" lon="2.593008460">
        <ele>633.00</ele>
        <time>2014-04-06T10:06:51Z</time>
      </trkpt>
      <trkpt lat="41.660860160" lon="2.593008460">
        <ele>632.80</ele>
        <time>2014-04-06T10:06:52Z</time>
      </trkpt>
      <trkpt lat="41.660860160" lon="2.593008460">
        <ele>632.60</ele>
        <time>2014-04-06T10:06:53Z</time>
      </trkpt>
      <trkpt lat="41.660860160" lon="2.593008460">
        <ele>632.80</ele>
        <time>2014-04-06T10:06:54Z</time>
      </trkpt>
      <trkpt lat="41.660860160" lon="2.593008460">
        <ele>633.00</ele>
        <time>2014-04-06T10:06:55Z</time>
      </trkpt>
      <trkpt lat="41.660860160" lon="2.593008460">
        <ele>633.00</ele>
        <time>2014-04-06T10:06:56Z</time>
      </trkpt>
      <trkpt lat="41.660860160" lon="2.593008460">
        <ele>633.00</ele>
        <time>2014-04-06T10:06:57Z</time>
      </trkpt>
      <trkpt lat="41.660860160" lon="2.593008460">
        <ele>633.00</ele>
        <time>2014-04-06T10:06:58Z</time>
      </trkpt>
      <trkpt lat="41.660860160" lon="2.593008460">
        <ele>632.70</ele>
        <time>2014-04-06T10:06:59Z</time>
      </trkpt>
      <trkpt lat="41.660860160" lon="2.593008460">
        <ele>632.50</ele>
        <time>2014-04-06T10:07:00Z</time>
      </trkpt>
      <trkpt lat="41.660860160" lon="2.593006780">
        <ele>632.80</ele>
        <time>2014-04-06T10:07:01Z</time>
      </trkpt>
      <trkpt lat="41.660860160" lon="2.593006780">
        <ele>632.90</ele>
        <time>2014-04-06T10:07:02Z</time>
      </trkpt>
      <trkpt lat="41.660861670" lon="2.593006780">
        <ele>632.60</ele>
        <time>2014-04-06T10:07:03Z</time>
      </trkpt>
      <trkpt lat="41.660861670" lon="2.593006780">
        <ele>632.30</ele>
        <time>2014-04-06T10:07:04Z</time>
      </trkpt>
      <trkpt lat="41.660861670" lon="2.593006780">
        <ele>632.10</ele>
        <time>2014-04-06T10:07:05Z</time>
      </trkpt>
      <trkpt lat="41.660861670" lon="2.593006780">
        <ele>632.10</ele>
        <time>2014-04-06T10:07:06Z</time>
      </trkpt>
      <trkpt lat="41.660861670" lon="2.593006780">
        <ele>632.10</ele>
        <time>2014-04-06T10:07:07Z</time>
      </trkpt>
      <trkpt lat="41.660861670" lon="2.593006780">
        <ele>632.00</ele>
        <time>2014-04-06T10:07:08Z</time>
      </trkpt>
      <trkpt lat="41.660861670" lon="2.593006780">
        <ele>632.00</ele>
        <time>2014-04-06T10:07:09Z</time>
      </trkpt>
      <trkpt lat="41.660861670" lon="2.593006780">
        <ele>632.00</ele>
        <time>2014-04-06T10:07:10Z</time>
      </trkpt>
      <trkpt lat="41.660861670" lon="2.593006780">
        <ele>632.00</ele>
        <time>2014-04-06T10:07:11Z</time>
      </trkpt>
      <trkpt lat="41.660861670" lon="2.593006780">
        <ele>632.00</ele>
        <time>2014-04-06T10:07:12Z</time>
      </trkpt>
      <trkpt lat="41.660861670" lon="2.593006780">
        <ele>631.90</ele>
        <time>2014-04-06T10:07:13Z</time>
      </trkpt>
      <trkpt lat="41.660861670" lon="2.593006780">
        <ele>631.80</ele>
        <time>2014-04-06T10:07:14Z</time>
      </trkpt>
      <trkpt lat="41.660861670" lon="2.593006780">
        <ele>632.10</ele>
        <time>2014-04-06T10:07:15Z</time>
      </trkpt>
      <trkpt lat="41.660861670" lon="2.593006780">
        <ele>632.40</ele>
        <time>2014-04-06T10:07:16Z</time>
      </trkpt>
      <trkpt lat="41.660861670" lon="2.593006780">
        <ele>632.60</ele>
        <time>2014-04-06T10:07:17Z</time>
      </trkpt>
      <trkpt lat="41.660861670" lon="2.593006780">
        <ele>632.50</ele>
        <time>2014-04-06T10:07:18Z</time>
      </trkpt>
      <trkpt lat="41.660861670" lon="2.593006780">
        <ele>632.40</ele>
        <time>2014-04-06T10:07:19Z</time>
      </trkpt>
      <trkpt lat="41.660861670" lon="2.593006780">
        <ele>632.40</ele>
        <time>2014-04-06T10:07:20Z</time>
      </trkpt>
      <trkpt lat="41.660861670" lon="2.593006780">
        <ele>632.30</ele>
        <time>2014-04-06T10:07:21Z</time>
      </trkpt>
      <trkpt lat="41.660861670" lon="2.593006780">
        <ele>632.10</ele>
        <time>2014-04-06T10:07:22Z</time>
      </trkpt>
      <trkpt lat="41.660861670" lon="2.593006780">
        <ele>632.00</ele>
        <time>2014-04-06T10:07:23Z</time>
      </trkpt>
      <trkpt lat="41.660861670" lon="2.593006780">
        <ele>631.90</ele>
        <time>2014-04-06T10:07:24Z</time>
      </trkpt>
      <trkpt lat="41.660861670" lon="2.593006780">
        <ele>632.00</ele>
        <time>2014-04-06T10:07:25Z</time>
      </trkpt>
      <trkpt lat="41.660861670" lon="2.593006780">
        <ele>632.00</ele>
        <time>2014-04-06T10:07:26Z</time>
      </trkpt>
      <trkpt lat="41.660860160" lon="2.593006780">
        <ele>631.90</ele>
        <time>2014-04-06T10:07:27Z</time>
      </trkpt>
      <trkpt lat="41.660860160" lon="2.593006780">
        <ele>631.70</ele>
        <time>2014-04-06T10:07:28Z</time>
      </trkpt>
      <trkpt lat="41.660860160" lon="2.593008460">
        <ele>631.60</ele>
        <time>2014-04-06T10:07:29Z</time>
      </trkpt>
      <trkpt lat="41.660860160" lon="2.593008460">
        <ele>631.30</ele>
        <time>2014-04-06T10:07:30Z</time>
      </trkpt>
      <trkpt lat="41.660860160" lon="2.593008460">
        <ele>631.10</ele>
        <time>2014-04-06T10:07:31Z</time>
      </trkpt>
      <trkpt lat="41.660860160" lon="2.593008460">
        <ele>631.40</ele>
        <time>2014-04-06T10:07:32Z</time>
      </trkpt>
      <trkpt lat="41.660860160" lon="2.593008460">
        <ele>631.70</ele>
        <time>2014-04-06T10:07:33Z</time>
      </trkpt>
      <trkpt lat="41.660860160" lon="2.593008460">
        <ele>631.60</ele>
        <time>2014-04-06T10:07:34Z</time>
      </trkpt>
      <trkpt lat="41.660861670" lon="2.593008460">
        <ele>631.60</ele>
        <time>2014-04-06T10:07:35Z</time>
      </trkpt>
      <trkpt lat="41.660861670" lon="2.593010140">
        <ele>631.50</ele>
        <time>2014-04-06T10:07:36Z</time>
      </trkpt>
      <trkpt lat="41.660861670" lon="2.593010140">
        <ele>631.70</ele>
        <time>2014-04-06T10:07:37Z</time>
      </trkpt>
      <trkpt lat="41.660860160" lon="2.593010140">
        <ele>631.80</ele>
        <time>2014-04-06T10:07:38Z</time>
      </trkpt>
      <trkpt lat="41.660860160" lon="2.593010140">
        <ele>631.70</ele>
        <time>2014-04-06T10:07:39Z</time>
      </trkpt>
      <trkpt lat="41.660860160" lon="2.593010140">
        <ele>631.70</ele>
        <time>2014-04-06T10:07:40Z</time>
      </trkpt>
      <trkpt lat="41.660860160" lon="2.593010140">
        <ele>631.60</ele>
        <time>2014-04-06T10:07:41Z</time>
      </trkpt>
      <trkpt lat="41.660860160" lon="2.593010140">
        <ele>631.40</ele>
        <time>2014-04-06T10:07:42Z</time>
      </trkpt>
      <trkpt lat="41.660860160" lon="2.593010140">
        <ele>631.30</ele>
        <time>2014-04-06T10:07:43Z</time>
      </trkpt>
      <trkpt lat="41.660860160" lon="2.593010140">
        <ele>631.40</ele>
        <time>2014-04-06T10:07:44Z</time>
      </trkpt>
      <trkpt lat="41.660860160" lon="2.593010140">
        <ele>631.50</ele>
        <time>2014-04-06T10:07:45Z</time>
      </trkpt>
      <trkpt lat="41.660860160" lon="2.593010140">
        <ele>631.70</ele>
        <time>2014-04-06T10:07:46Z</time>
      </trkpt>
      <trkpt lat="41.660860160" lon="2.593010140">
        <ele>631.90</ele>
        <time>2014-04-06T10:07:47Z</time>
      </trkpt>
      <trkpt lat="41.660860160" lon="2.593010140">
        <ele>632.00</ele>
        <time>2014-04-06T10:07:48Z</time>
      </trkpt>
      <trkpt lat="41.660860160" lon="2.593011810">
        <ele>632.00</ele>
        <time>2014-04-06T10:07:49Z</time>
      </trkpt>
      <trkpt lat="41.660860160" lon="2.593011810">
        <ele>632.00</ele>
        <time>2014-04-06T10:07:50Z</time>
      </trkpt>
      <trkpt lat="41.660858480" lon="2.593011810">
        <ele>632.10</ele>
        <time>2014-04-06T10:07:51Z</time>
      </trkpt>
      <trkpt lat="41.660858480" lon="2.593011810">
        <ele>632.20</ele>
        <time>2014-04-06T10:07:52Z</time>
      </trkpt>
      <trkpt lat="41.660855130" lon="2.593008460">
        <ele>631.90</ele>
        <time>2014-04-06T10:07:53Z</time>
      </trkpt>
      <trkpt lat="41.660846750" lon="2.593000080">
        <ele>631.60</ele>
        <time>2014-04-06T10:07:54Z</time>
      </trkpt>
      <trkpt lat="41.660836690" lon="2.592991700">
        <ele>631.40</ele>
        <time>2014-04-06T10:07:55Z</time>
      </trkpt>
      <trkpt lat="41.660825120" lon="2.592981810">
        <ele>631.20</ele>
        <time>2014-04-06T10:07:56Z</time>
      </trkpt>
      <trkpt lat="41.660815060" lon="2.592971750">
        <ele>631.10</ele>
        <time>2014-04-06T10:07:57Z</time>
      </trkpt>
      <trkpt lat="41.660808360" lon="2.592958340">
        <ele>631.10</ele>
        <time>2014-04-06T10:07:58Z</time>
      </trkpt>
      <trkpt lat="41.660800140" lon="2.592943420">
        <ele>631.10</ele>
        <time>2014-04-06T10:07:59Z</time>
      </trkpt>
      <trkpt lat="41.660793440" lon="2.592921790">
        <ele>631.00</ele>
        <time>2014-04-06T10:08:00Z</time>
      </trkpt>
      <trkpt lat="41.660786730" lon="2.592898490">
        <ele>631.00</ele>
        <time>2014-04-06T10:08:01Z</time>
      </trkpt>
      <trkpt lat="41.660783380" lon="2.592876700">
        <ele>630.90</ele>
        <time>2014-04-06T10:08:02Z</time>
      </trkpt>
      <trkpt lat="41.660780030" lon="2.592856750">
        <ele>631.20</ele>
        <time>2014-04-06T10:08:03Z</time>
      </trkpt>
      <trkpt lat="41.660778350" lon="2.592836800">
        <ele>631.40</ele>
        <time>2014-04-06T10:08:04Z</time>
      </trkpt>
      <trkpt lat="41.660776670" lon="2.592818360">
        <ele>631.60</ele>
        <time>2014-04-06T10:08:05Z</time>
      </trkpt>
      <trkpt lat="41.660780030" lon="2.592801760">
        <ele>631.70</ele>
        <time>2014-04-06T10:08:06Z</time>
      </trkpt>
      <trkpt lat="41.660783380" lon="2.592785000">
        <ele>631.80</ele>
        <time>2014-04-06T10:08:07Z</time>
      </trkpt>
      <trkpt lat="41.660783380" lon="2.592766730">
        <ele>632.10</ele>
        <time>2014-04-06T10:08:08Z</time>
      </trkpt>
      <trkpt lat="41.660781700" lon="2.592748450">
        <ele>632.30</ele>
        <time>2014-04-06T10:08:09Z</time>
      </trkpt>
      <trkpt lat="41.660781700" lon="2.592733370">
        <ele>632.70</ele>
        <time>2014-04-06T10:08:10Z</time>
      </trkpt>
      <trkpt lat="41.660783380" lon="2.592723480">
        <ele>633.10</ele>
        <time>2014-04-06T10:08:11Z</time>
      </trkpt>
      <trkpt lat="41.660783380" lon="2.592711740">
        <ele>633.60</ele>
        <time>2014-04-06T10:08:12Z</time>
      </trkpt>
      <trkpt lat="41.660783380" lon="2.592700010">
        <ele>634.00</ele>
        <time>2014-04-06T10:08:13Z</time>
      </trkpt>
      <trkpt lat="41.660780030" lon="2.592686760">
        <ele>634.30</ele>
        <time>2014-04-06T10:08:14Z</time>
      </trkpt>
      <trkpt lat="41.660775000" lon="2.592673350">
        <ele>634.70</ele>
        <time>2014-04-06T10:08:15Z</time>
      </trkpt>
      <trkpt lat="41.660770140" lon="2.592660110">
        <ele>635.00</ele>
        <time>2014-04-06T10:08:16Z</time>
      </trkpt>
      <trkpt lat="41.660768460" lon="2.592646700">
        <ele>635.60</ele>
        <time>2014-04-06T10:08:17Z</time>
      </trkpt>
      <trkpt lat="41.660763430" lon="2.592636810">
        <ele>636.00</ele>
        <time>2014-04-06T10:08:18Z</time>
      </trkpt>
      <trkpt lat="41.660761750" lon="2.592625070">
        <ele>636.20</ele>
        <time>2014-04-06T10:08:19Z</time>
      </trkpt>
      <trkpt lat="41.660758400" lon="2.592615010">
        <ele>636.40</ele>
        <time>2014-04-06T10:08:20Z</time>
      </trkpt>
      <trkpt lat="41.660755050" lon="2.592601770">
        <ele>636.50</ele>
        <time>2014-04-06T10:08:21Z</time>
      </trkpt>
      <trkpt lat="41.660755050" lon="2.592590040">
        <ele>637.10</ele>
        <time>2014-04-06T10:08:22Z</time>
      </trkpt>
      <trkpt lat="41.660751700" lon="2.592576790">
        <ele>637.50</ele>
        <time>2014-04-06T10:08:23Z</time>
      </trkpt>
      <trkpt lat="41.660745160" lon="2.592565060">
        <ele>637.70</ele>
        <time>2014-04-06T10:08:24Z</time>
      </trkpt>
      <trkpt lat="41.660741800" lon="2.592551810">
        <ele>637.80</ele>
        <time>2014-04-06T10:08:25Z</time>
      </trkpt>
      <trkpt lat="41.660735100" lon="2.592541760">
        <ele>638.20</ele>
        <time>2014-04-06T10:08:26Z</time>
      </trkpt>
      <trkpt lat="41.660730070" lon="2.592528350">
        <ele>638.50</ele>
        <time>2014-04-06T10:08:27Z</time>
      </trkpt>
      <trkpt lat="41.660726720" lon="2.592513430">
        <ele>638.70</ele>
        <time>2014-04-06T10:08:28Z</time>
      </trkpt>
      <trkpt lat="41.660721690" lon="2.592498340">
        <ele>638.60</ele>
        <time>2014-04-06T10:08:29Z</time>
      </trkpt>
      <trkpt lat="41.660718340" lon="2.592485100">
        <ele>638.50</ele>
        <time>2014-04-06T10:08:30Z</time>
      </trkpt>
      <trkpt lat="41.660715150" lon="2.592470010">
        <ele>639.10</ele>
        <time>2014-04-06T10:08:31Z</time>
      </trkpt>
      <trkpt lat="41.660711800" lon="2.592456760">
        <ele>639.60</ele>
        <time>2014-04-06T10:08:32Z</time>
      </trkpt>
      <trkpt lat="41.660705090" lon="2.592443350">
        <ele>640.00</ele>
        <time>2014-04-06T10:08:33Z</time>
      </trkpt>
      <trkpt lat="41.660698390" lon="2.592430110">
        <ele>640.30</ele>
        <time>2014-04-06T10:08:34Z</time>
      </trkpt>
      <trkpt lat="41.660693360" lon="2.592416700">
        <ele>640.60</ele>
        <time>2014-04-06T10:08:35Z</time>
      </trkpt>
      <trkpt lat="41.660685140" lon="2.592405130">
        <ele>640.40</ele>
        <time>2014-04-06T10:08:36Z</time>
      </trkpt>
      <trkpt lat="41.660678440" lon="2.592391720">
        <ele>640.20</ele>
        <time>2014-04-06T10:08:37Z</time>
      </trkpt>
      <trkpt lat="41.660673410" lon="2.592378480">
        <ele>640.50</ele>
        <time>2014-04-06T10:08:38Z</time>
      </trkpt>
      <trkpt lat="41.660668380" lon="2.592365070">
        <ele>640.60</ele>
        <time>2014-04-06T10:08:39Z</time>
      </trkpt>
      <trkpt lat="41.660663350" lon="2.592353330">
        <ele>640.80</ele>
        <time>2014-04-06T10:08:40Z</time>
      </trkpt>
      <trkpt lat="41.660658490" lon="2.592343440">
        <ele>641.10</ele>
        <time>2014-04-06T10:08:41Z</time>
      </trkpt>
      <trkpt lat="41.660651780" lon="2.592331710">
        <ele>641.30</ele>
        <time>2014-04-06T10:08:42Z</time>
      </trkpt>
      <trkpt lat="41.660645080" lon="2.592318460">
        <ele>641.70</ele>
        <time>2014-04-06T10:08:43Z</time>
      </trkpt>
      <trkpt lat="41.660636700" lon="2.592306730">
        <ele>642.00</ele>
        <time>2014-04-06T10:08:44Z</time>
      </trkpt>
      <trkpt lat="41.660630160" lon="2.592295160">
        <ele>642.20</ele>
        <time>2014-04-06T10:08:45Z</time>
      </trkpt>
      <trkpt lat="41.660623450" lon="2.592280070">
        <ele>642.30</ele>
        <time>2014-04-06T10:08:46Z</time>
      </trkpt>
      <trkpt lat="41.660616750" lon="2.592268340">
        <ele>642.30</ele>
        <time>2014-04-06T10:08:47Z</time>
      </trkpt>
      <trkpt lat="41.660608360" lon="2.592255100">
        <ele>642.70</ele>
        <time>2014-04-06T10:08:48Z</time>
      </trkpt>
      <trkpt lat="41.660603340" lon="2.592241680">
        <ele>643.00</ele>
        <time>2014-04-06T10:08:49Z</time>
      </trkpt>
      <trkpt lat="41.660598470" lon="2.592230120">
        <ele>643.10</ele>
        <time>2014-04-06T10:08:50Z</time>
      </trkpt>
      <trkpt lat="41.660595120" lon="2.592216710">
        <ele>643.20</ele>
        <time>2014-04-06T10:08:51Z</time>
      </trkpt>
      <trkpt lat="41.660591770" lon="2.592205140">
        <ele>643.30</ele>
        <time>2014-04-06T10:08:52Z</time>
      </trkpt>
      <trkpt lat="41.660585060" lon="2.592186700">
        <ele>643.50</ele>
        <time>2014-04-06T10:08:53Z</time>
      </trkpt>
      <trkpt lat="41.660576680" lon="2.592173460">
        <ele>643.70</ele>
        <time>2014-04-06T10:08:54Z</time>
      </trkpt>
      <trkpt lat="41.660571820" lon="2.592160040">
        <ele>643.30</ele>
        <time>2014-04-06T10:08:55Z</time>
      </trkpt>
      <trkpt lat="41.660563440" lon="2.592148480">
        <ele>643.10</ele>
        <time>2014-04-06T10:08:56Z</time>
      </trkpt>
      <trkpt lat="41.660556730" lon="2.592135070">
        <ele>643.40</ele>
        <time>2014-04-06T10:08:57Z</time>
      </trkpt>
      <trkpt lat="41.660551700" lon="2.592121820">
        <ele>643.60</ele>
        <time>2014-04-06T10:08:58Z</time>
      </trkpt>
      <trkpt lat="41.660548350" lon="2.592110090">
        <ele>643.80</ele>
        <time>2014-04-06T10:08:59Z</time>
      </trkpt>
      <trkpt lat="41.660541810" lon="2.592096680">
        <ele>644.10</ele>
        <time>2014-04-06T10:09:00Z</time>
      </trkpt>
      <trkpt lat="41.660536780" lon="2.592083430">
        <ele>644.30</ele>
        <time>2014-04-06T10:09:01Z</time>
      </trkpt>
      <trkpt lat="41.660533430" lon="2.592068350">
        <ele>645.00</ele>
        <time>2014-04-06T10:09:02Z</time>
      </trkpt>
      <trkpt lat="41.660526730" lon="2.592053430">
        <ele>645.60</ele>
        <time>2014-04-06T10:09:03Z</time>
      </trkpt>
      <trkpt lat="41.660520020" lon="2.592036660">
        <ele>645.50</ele>
        <time>2014-04-06T10:09:04Z</time>
      </trkpt>
      <trkpt lat="41.660515160" lon="2.592021740">
        <ele>645.40</ele>
        <time>2014-04-06T10:09:05Z</time>
      </trkpt>
      <trkpt lat="41.660510130" lon="2.592006820">
        <ele>645.40</ele>
        <time>2014-04-06T10:09:06Z</time>
      </trkpt>
      <trkpt lat="41.660505100" lon="2.591991740">
        <ele>645.40</ele>
        <time>2014-04-06T10:09:07Z</time>
      </trkpt>
      <trkpt lat="41.660500070" lon="2.591976820">
        <ele>645.30</ele>
        <time>2014-04-06T10:09:08Z</time>
      </trkpt>
      <trkpt lat="41.660498390" lon="2.591961730">
        <ele>645.70</ele>
        <time>2014-04-06T10:09:09Z</time>
      </trkpt>
      <trkpt lat="41.660493370" lon="2.591945130">
        <ele>645.90</ele>
        <time>2014-04-06T10:09:10Z</time>
      </trkpt>
      <trkpt lat="41.660488340" lon="2.591928370">
        <ele>646.10</ele>
        <time>2014-04-06T10:09:11Z</time>
      </trkpt>
      <trkpt lat="41.660483470" lon="2.591915130">
        <ele>646.60</ele>
        <time>2014-04-06T10:09:12Z</time>
      </trkpt>
      <trkpt lat="41.660480120" lon="2.591903390">
        <ele>646.90</ele>
        <time>2014-04-06T10:09:13Z</time>
      </trkpt>
      <trkpt lat="41.660483470" lon="2.591891820">
        <ele>647.10</ele>
        <time>2014-04-06T10:09:14Z</time>
      </trkpt>
      <trkpt lat="41.660486830" lon="2.591880090">
        <ele>647.20</ele>
        <time>2014-04-06T10:09:15Z</time>
      </trkpt>
      <trkpt lat="41.660485150" lon="2.591865000">
        <ele>648.00</ele>
        <time>2014-04-06T10:09:16Z</time>
      </trkpt>
      <trkpt lat="41.660485150" lon="2.591848410">
        <ele>648.50</ele>
        <time>2014-04-06T10:09:17Z</time>
      </trkpt>
      <trkpt lat="41.660481800" lon="2.591831810">
        <ele>648.90</ele>
        <time>2014-04-06T10:09:18Z</time>
      </trkpt>
      <trkpt lat="41.660480120" lon="2.591813370">
        <ele>648.80</ele>
        <time>2014-04-06T10:09:19Z</time>
      </trkpt>
      <trkpt lat="41.660480120" lon="2.591796770">
        <ele>648.80</ele>
        <time>2014-04-06T10:09:20Z</time>
      </trkpt>
      <trkpt lat="41.660478450" lon="2.591780010">
        <ele>648.70</ele>
        <time>2014-04-06T10:09:21Z</time>
      </trkpt>
      <trkpt lat="41.660475090" lon="2.591763410">
        <ele>648.70</ele>
        <time>2014-04-06T10:09:22Z</time>
      </trkpt>
      <trkpt lat="41.660471740" lon="2.591748490">
        <ele>648.90</ele>
        <time>2014-04-06T10:09:23Z</time>
      </trkpt>
      <trkpt lat="41.660465030" lon="2.591731730">
        <ele>649.10</ele>
        <time>2014-04-06T10:09:24Z</time>
      </trkpt>
      <trkpt lat="41.660463360" lon="2.591715130">
        <ele>649.30</ele>
        <time>2014-04-06T10:09:25Z</time>
      </trkpt>
      <trkpt lat="41.660461680" lon="2.591700050">
        <ele>648.90</ele>
        <time>2014-04-06T10:09:26Z</time>
      </trkpt>
      <trkpt lat="41.660458330" lon="2.591681770">
        <ele>648.70</ele>
        <time>2014-04-06T10:09:27Z</time>
      </trkpt>
      <trkpt lat="41.660455140" lon="2.591665010">
        <ele>649.20</ele>
        <time>2014-04-06T10:09:28Z</time>
      </trkpt>
      <trkpt lat="41.660453470" lon="2.591648410">
        <ele>649.60</ele>
        <time>2014-04-06T10:09:29Z</time>
      </trkpt>
      <trkpt lat="41.660455140" lon="2.591631820">
        <ele>649.90</ele>
        <time>2014-04-06T10:09:30Z</time>
      </trkpt>
      <trkpt lat="41.660456820" lon="2.591613380">
        <ele>649.80</ele>
        <time>2014-04-06T10:09:31Z</time>
      </trkpt>
      <trkpt lat="41.660460010" lon="2.591598460">
        <ele>649.80</ele>
        <time>2014-04-06T10:09:32Z</time>
      </trkpt>
      <trkpt lat="41.660460010" lon="2.591583370">
        <ele>649.80</ele>
        <time>2014-04-06T10:09:33Z</time>
      </trkpt>
      <trkpt lat="41.660461680" lon="2.591568450">
        <ele>649.80</ele>
        <time>2014-04-06T10:09:34Z</time>
      </trkpt>
      <trkpt lat="41.660463360" lon="2.591553360">
        <ele>650.20</ele>
        <time>2014-04-06T10:09:35Z</time>
      </trkpt>
      <trkpt lat="41.660465030" lon="2.591536770">
        <ele>650.50</ele>
        <time>2014-04-06T10:09:36Z</time>
      </trkpt>
      <trkpt lat="41.660463360" lon="2.591520000">
        <ele>650.70</ele>
        <time>2014-04-06T10:09:37Z</time>
      </trkpt>
      <trkpt lat="41.660465030" lon="2.591506760">
        <ele>650.60</ele>
        <time>2014-04-06T10:09:38Z</time>
      </trkpt>
      <trkpt lat="41.660466710" lon="2.591491670">
        <ele>650.50</ele>
        <time>2014-04-06T10:09:39Z</time>
      </trkpt>
      <trkpt lat="41.660466710" lon="2.591476750">
        <ele>650.80</ele>
        <time>2014-04-06T10:09:40Z</time>
      </trkpt>
      <trkpt lat="41.660465030" lon="2.591463340">
        <ele>651.00</ele>
        <time>2014-04-06T10:09:41Z</time>
      </trkpt>
      <trkpt lat="41.660465030" lon="2.591446740">
        <ele>650.80</ele>
        <time>2014-04-06T10:09:42Z</time>
      </trkpt>
      <trkpt lat="41.660463360" lon="2.591431830">
        <ele>650.80</ele>
        <time>2014-04-06T10:09:43Z</time>
      </trkpt>
      <trkpt lat="41.660466710" lon="2.591420090">
        <ele>650.70</ele>
        <time>2014-04-06T10:09:44Z</time>
      </trkpt>
      <trkpt lat="41.660468390" lon="2.591405000">
        <ele>650.80</ele>
        <time>2014-04-06T10:09:45Z</time>
      </trkpt>
      <trkpt lat="41.660466710" lon="2.591386730">
        <ele>651.00</ele>
        <time>2014-04-06T10:09:46Z</time>
      </trkpt>
      <trkpt lat="41.660468390" lon="2.591370130">
        <ele>651.30</ele>
        <time>2014-04-06T10:09:47Z</time>
      </trkpt>
      <trkpt lat="41.660466710" lon="2.591356720">
        <ele>651.50</ele>
        <time>2014-04-06T10:09:48Z</time>
      </trkpt>
      <trkpt lat="41.660461680" lon="2.591341800">
        <ele>651.70</ele>
        <time>2014-04-06T10:09:49Z</time>
      </trkpt>
      <trkpt lat="41.660463360" lon="2.591326720">
        <ele>652.20</ele>
        <time>2014-04-06T10:09:50Z</time>
      </trkpt>
      <trkpt lat="41.660463360" lon="2.591313470">
        <ele>652.60</ele>
        <time>2014-04-06T10:09:51Z</time>
      </trkpt>
      <trkpt lat="41.660465030" lon="2.591296710">
        <ele>652.30</ele>
        <time>2014-04-06T10:09:52Z</time>
      </trkpt>
      <trkpt lat="41.660466710" lon="2.591280110">
        <ele>652.10</ele>
        <time>2014-04-06T10:09:53Z</time>
      </trkpt>
      <trkpt lat="41.660466710" lon="2.591263350">
        <ele>652.50</ele>
        <time>2014-04-06T10:09:54Z</time>
      </trkpt>
      <trkpt lat="41.660473420" lon="2.591246750">
        <ele>652.80</ele>
        <time>2014-04-06T10:09:55Z</time>
      </trkpt>
      <trkpt lat="41.660475090" lon="2.591228480">
        <ele>653.00</ele>
        <time>2014-04-06T10:09:56Z</time>
      </trkpt>
      <trkpt lat="41.660476770" lon="2.591211720">
        <ele>653.50</ele>
        <time>2014-04-06T10:09:57Z</time>
      </trkpt>
      <trkpt lat="41.660480120" lon="2.591195120">
        <ele>653.90</ele>
        <time>2014-04-06T10:09:58Z</time>
      </trkpt>
      <trkpt lat="41.660483470" lon="2.591176680">
        <ele>654.40</ele>
        <time>2014-04-06T10:09:59Z</time>
      </trkpt>
      <trkpt lat="41.660491690" lon="2.591161760">
        <ele>654.80</ele>
        <time>2014-04-06T10:10:00Z</time>
      </trkpt>
      <trkpt lat="41.660495040" lon="2.591150030">
        <ele>654.80</ele>
        <time>2014-04-06T10:10:01Z</time>
      </trkpt>
      <trkpt lat="41.660500070" lon="2.591136780">
        <ele>654.80</ele>
        <time>2014-04-06T10:10:02Z</time>
      </trkpt>
      <trkpt lat="41.660503420" lon="2.591121690">
        <ele>654.80</ele>
        <time>2014-04-06T10:10:03Z</time>
      </trkpt>
      <trkpt lat="41.660506780" lon="2.591108450">
        <ele>655.00</ele>
        <time>2014-04-06T10:10:04Z</time>
      </trkpt>
      <trkpt lat="41.660510130" lon="2.591093360">
        <ele>655.20</ele>
        <time>2014-04-06T10:10:05Z</time>
      </trkpt>
      <trkpt lat="41.660513480" lon="2.591078440">
        <ele>655.70</ele>
        <time>2014-04-06T10:10:06Z</time>
      </trkpt>
      <trkpt lat="41.660518340" lon="2.591065030">
        <ele>656.00</ele>
        <time>2014-04-06T10:10:07Z</time>
      </trkpt>
      <trkpt lat="41.660526730" lon="2.591051790">
        <ele>655.60</ele>
        <time>2014-04-06T10:10:08Z</time>
      </trkpt>
      <trkpt lat="41.660528400" lon="2.591035030">
        <ele>655.30</ele>
        <time>2014-04-06T10:10:09Z</time>
      </trkpt>
      <trkpt lat="41.660531750" lon="2.591020110">
        <ele>655.10</ele>
        <time>2014-04-06T10:10:10Z</time>
      </trkpt>
      <trkpt lat="41.660538460" lon="2.591003340">
        <ele>655.60</ele>
        <time>2014-04-06T10:10:11Z</time>
      </trkpt>
      <trkpt lat="41.660540140" lon="2.590988420">
        <ele>656.00</ele>
        <time>2014-04-06T10:10:12Z</time>
      </trkpt>
      <trkpt lat="41.660541810" lon="2.590970150">
        <ele>656.00</ele>
        <time>2014-04-06T10:10:13Z</time>
      </trkpt>
      <trkpt lat="41.660541810" lon="2.590950030">
        <ele>655.90</ele>
        <time>2014-04-06T10:10:14Z</time>
      </trkpt>
      <trkpt lat="41.660541810" lon="2.590928410">
        <ele>655.90</ele>
        <time>2014-04-06T10:10:15Z</time>
      </trkpt>
      <trkpt lat="41.660540140" lon="2.590908460">
        <ele>656.20</ele>
        <time>2014-04-06T10:10:16Z</time>
      </trkpt>
      <trkpt lat="41.660535110" lon="2.590893370">
        <ele>656.40</ele>
        <time>2014-04-06T10:10:17Z</time>
      </trkpt>
      <trkpt lat="41.660530080" lon="2.590876780">
        <ele>656.70</ele>
        <time>2014-04-06T10:10:18Z</time>
      </trkpt>
      <trkpt lat="41.660525050" lon="2.590860010">
        <ele>656.90</ele>
        <time>2014-04-06T10:10:19Z</time>
      </trkpt>
      <trkpt lat="41.660520020" lon="2.590845090">
        <ele>657.00</ele>
        <time>2014-04-06T10:10:20Z</time>
      </trkpt>
      <trkpt lat="41.660516670" lon="2.590830000">
        <ele>657.00</ele>
        <time>2014-04-06T10:10:21Z</time>
      </trkpt>
      <trkpt lat="41.660511810" lon="2.590815080">
        <ele>657.10</ele>
        <time>2014-04-06T10:10:22Z</time>
      </trkpt>
      <trkpt lat="41.660511810" lon="2.590805030">
        <ele>657.60</ele>
        <time>2014-04-06T10:10:23Z</time>
      </trkpt>
      <trkpt lat="41.660513480" lon="2.590800000">
        <ele>658.00</ele>
        <time>2014-04-06T10:10:24Z</time>
      </trkpt>
      <trkpt lat="41.660515160" lon="2.590795140">
        <ele>658.50</ele>
        <time>2014-04-06T10:10:25Z</time>
      </trkpt>
      <trkpt lat="41.660515160" lon="2.590785080">
        <ele>658.90</ele>
        <time>2014-04-06T10:10:26Z</time>
      </trkpt>
      <trkpt lat="41.660511810" lon="2.590773340">
        <ele>659.10</ele>
        <time>2014-04-06T10:10:27Z</time>
      </trkpt>
      <trkpt lat="41.660511810" lon="2.590758420">
        <ele>659.20</ele>
        <time>2014-04-06T10:10:28Z</time>
      </trkpt>
      <trkpt lat="41.660510130" lon="2.590743340">
        <ele>659.30</ele>
        <time>2014-04-06T10:10:29Z</time>
      </trkpt>
      <trkpt lat="41.660510130" lon="2.590728420">
        <ele>660.00</ele>
        <time>2014-04-06T10:10:30Z</time>
      </trkpt>
      <trkpt lat="41.660508450" lon="2.590713330">
        <ele>660.40</ele>
        <time>2014-04-06T10:10:31Z</time>
      </trkpt>
      <trkpt lat="41.660505100" lon="2.590696730">
        <ele>660.60</ele>
        <time>2014-04-06T10:10:32Z</time>
      </trkpt>
      <trkpt lat="41.660498390" lon="2.590686670">
        <ele>660.80</ele>
        <time>2014-04-06T10:10:33Z</time>
      </trkpt>
      <trkpt lat="41.660496720" lon="2.590673430">
        <ele>660.90</ele>
        <time>2014-04-06T10:10:34Z</time>
      </trkpt>
      <trkpt lat="41.660495040" lon="2.590660020">
        <ele>660.90</ele>
        <time>2014-04-06T10:10:35Z</time>
      </trkpt>
      <trkpt lat="41.660493370" lon="2.590645100">
        <ele>660.90</ele>
        <time>2014-04-06T10:10:36Z</time>
      </trkpt>
      <trkpt lat="41.660488340" lon="2.590633360">
        <ele>660.90</ele>
        <time>2014-04-06T10:10:37Z</time>
      </trkpt>
      <trkpt lat="41.660491690" lon="2.590623470">
        <ele>660.80</ele>
        <time>2014-04-06T10:10:38Z</time>
      </trkpt>
      <trkpt lat="41.660496720" lon="2.590610060">
        <ele>661.20</ele>
        <time>2014-04-06T10:10:39Z</time>
      </trkpt>
      <trkpt lat="41.660500070" lon="2.590598330">
        <ele>661.40</ele>
        <time>2014-04-06T10:10:40Z</time>
      </trkpt>
      <trkpt lat="41.660498390" lon="2.590586760">
        <ele>661.60</ele>
        <time>2014-04-06T10:10:41Z</time>
      </trkpt>
      <trkpt lat="41.660500070" lon="2.590573350">
        <ele>661.80</ele>
        <time>2014-04-06T10:10:42Z</time>
      </trkpt>
      <trkpt lat="41.660501750" lon="2.590560110">
        <ele>661.90</ele>
        <time>2014-04-06T10:10:43Z</time>
      </trkpt>
      <trkpt lat="41.660501750" lon="2.590546700">
        <ele>662.20</ele>
        <time>2014-04-06T10:10:44Z</time>
      </trkpt>
      <trkpt lat="41.660505100" lon="2.590535130">
        <ele>662.30</ele>
        <time>2014-04-06T10:10:45Z</time>
      </trkpt>
      <trkpt lat="41.660506780" lon="2.590521720">
        <ele>662.50</ele>
        <time>2014-04-06T10:10:46Z</time>
      </trkpt>
      <trkpt lat="41.660508450" lon="2.590506800">
        <ele>663.00</ele>
        <time>2014-04-06T10:10:47Z</time>
      </trkpt>
      <trkpt lat="41.660506780" lon="2.590495060">
        <ele>663.40</ele>
        <time>2014-04-06T10:10:48Z</time>
      </trkpt>
      <trkpt lat="41.660505100" lon="2.590481820">
        <ele>663.60</ele>
        <time>2014-04-06T10:10:49Z</time>
      </trkpt>
      <trkpt lat="41.660505100" lon="2.590470090">
        <ele>663.80</ele>
        <time>2014-04-06T10:10:50Z</time>
      </trkpt>
      <trkpt lat="41.660501750" lon="2.590460030">
        <ele>663.90</ele>
        <time>2014-04-06T10:10:51Z</time>
      </trkpt>
      <trkpt lat="41.660500070" lon="2.590448460">
        <ele>664.00</ele>
        <time>2014-04-06T10:10:52Z</time>
      </trkpt>
      <trkpt lat="41.660500070" lon="2.590436730">
        <ele>664.10</ele>
        <time>2014-04-06T10:10:53Z</time>
      </trkpt>
      <trkpt lat="41.660500070" lon="2.590425160">
        <ele>664.40</ele>
        <time>2014-04-06T10:10:54Z</time>
      </trkpt>
      <trkpt lat="41.660503420" lon="2.590415100">
        <ele>664.70</ele>
        <time>2014-04-06T10:10:55Z</time>
      </trkpt>
      <trkpt lat="41.660501750" lon="2.590401690">
        <ele>664.80</ele>
        <time>2014-04-06T10:10:56Z</time>
      </trkpt>
      <trkpt lat="41.660501750" lon="2.590395150">
        <ele>664.80</ele>
        <time>2014-04-06T10:10:57Z</time>
      </trkpt>
      <trkpt lat="41.660500070" lon="2.590388450">
        <ele>665.10</ele>
        <time>2014-04-06T10:10:58Z</time>
      </trkpt>
      <trkpt lat="41.660501750" lon="2.590385090">
        <ele>665.30</ele>
        <time>2014-04-06T10:10:59Z</time>
      </trkpt>
      <trkpt lat="41.660500070" lon="2.590378390">
        <ele>665.40</ele>
        <time>2014-04-06T10:11:00Z</time>
      </trkpt>
      <trkpt lat="41.660496720" lon="2.590373360">
        <ele>665.40</ele>
        <time>2014-04-06T10:11:01Z</time>
      </trkpt>
      <trkpt lat="41.660495040" lon="2.590368330">
        <ele>665.50</ele>
        <time>2014-04-06T10:11:02Z</time>
      </trkpt>
      <trkpt lat="41.660491690" lon="2.590363470">
        <ele>665.60</ele>
        <time>2014-04-06T10:11:03Z</time>
      </trkpt>
      <trkpt lat="41.660488340" lon="2.590358440">
        <ele>665.70</ele>
        <time>2014-04-06T10:11:04Z</time>
      </trkpt>
      <trkpt lat="41.660486830" lon="2.590353410">
        <ele>666.10</ele>
        <time>2014-04-06T10:11:05Z</time>
      </trkpt>
      <trkpt lat="41.660483470" lon="2.590346700">
        <ele>666.40</ele>
        <time>2014-04-06T10:11:06Z</time>
      </trkpt>
      <trkpt lat="41.660485150" lon="2.590338490">
        <ele>666.60</ele>
        <time>2014-04-06T10:11:07Z</time>
      </trkpt>
      <trkpt lat="41.660485150" lon="2.590323400">
        <ele>666.70</ele>
        <time>2014-04-06T10:11:08Z</time>
      </trkpt>
      <trkpt lat="41.660488340" lon="2.590303450">
        <ele>666.90</ele>
        <time>2014-04-06T10:11:09Z</time>
      </trkpt>
      <trkpt lat="41.660495040" lon="2.590283340">
        <ele>666.70</ele>
        <time>2014-04-06T10:11:10Z</time>
      </trkpt>
      <trkpt lat="41.660498390" lon="2.590270090">
        <ele>666.70</ele>
        <time>2014-04-06T10:11:11Z</time>
      </trkpt>
      <trkpt lat="41.660501750" lon="2.590253330">
        <ele>666.60</ele>
        <time>2014-04-06T10:11:12Z</time>
      </trkpt>
      <trkpt lat="41.660508450" lon="2.590236730">
        <ele>666.70</ele>
        <time>2014-04-06T10:11:13Z</time>
      </trkpt>
      <trkpt lat="41.660513480" lon="2.590221810">
        <ele>666.80</ele>
        <time>2014-04-06T10:11:14Z</time>
      </trkpt>
      <trkpt lat="41.660516670" lon="2.590206730">
        <ele>666.70</ele>
        <time>2014-04-06T10:11:15Z</time>
      </trkpt>
      <trkpt lat="41.660521700" lon="2.590191810">
        <ele>666.70</ele>
        <time>2014-04-06T10:11:16Z</time>
      </trkpt>
      <trkpt lat="41.660528400" lon="2.590176720">
        <ele>666.60</ele>
        <time>2014-04-06T10:11:17Z</time>
      </trkpt>
      <trkpt lat="41.660533430" lon="2.590161800">
        <ele>666.50</ele>
        <time>2014-04-06T10:11:18Z</time>
      </trkpt>
      <trkpt lat="41.660540140" lon="2.590146710">
        <ele>666.50</ele>
        <time>2014-04-06T10:11:19Z</time>
      </trkpt>
      <trkpt lat="41.660545000" lon="2.590131790">
        <ele>666.30</ele>
        <time>2014-04-06T10:11:20Z</time>
      </trkpt>
      <trkpt lat="41.660551700" lon="2.590115030">
        <ele>666.20</ele>
        <time>2014-04-06T10:11:21Z</time>
      </trkpt>
      <trkpt lat="41.660558410" lon="2.590100110">
        <ele>666.80</ele>
        <time>2014-04-06T10:11:22Z</time>
      </trkpt>
      <trkpt lat="41.660563440" lon="2.590083340">
        <ele>667.20</ele>
        <time>2014-04-06T10:11:23Z</time>
      </trkpt>
      <trkpt lat="41.660568470" lon="2.590068420">
        <ele>667.60</ele>
        <time>2014-04-06T10:11:24Z</time>
      </trkpt>
      <trkpt lat="41.660573330" lon="2.590051830">
        <ele>667.70</ele>
        <time>2014-04-06T10:11:25Z</time>
      </trkpt>
      <trkpt lat="41.660578360" lon="2.590035060">
        <ele>667.90</ele>
        <time>2014-04-06T10:11:26Z</time>
      </trkpt>
      <trkpt lat="41.660580030" lon="2.590016790">
        <ele>667.60</ele>
        <time>2014-04-06T10:11:27Z</time>
      </trkpt>
      <trkpt lat="41.660580030" lon="2.589998350">
        <ele>667.40</ele>
        <time>2014-04-06T10:11:28Z</time>
      </trkpt>
      <trkpt lat="41.660585060" lon="2.589983430">
        <ele>667.60</ele>
        <time>2014-04-06T10:11:29Z</time>
      </trkpt>
      <trkpt lat="41.660588420" lon="2.589966670">
        <ele>667.80</ele>
        <time>2014-04-06T10:11:30Z</time>
      </trkpt>
      <trkpt lat="41.660588420" lon="2.589948400">
        <ele>668.00</ele>
        <time>2014-04-06T10:11:31Z</time>
      </trkpt>
      <trkpt lat="41.660591770" lon="2.589930120">
        <ele>668.10</ele>
        <time>2014-04-06T10:11:32Z</time>
      </trkpt>
      <trkpt lat="41.660595120" lon="2.589913360">
        <ele>668.20</ele>
        <time>2014-04-06T10:11:33Z</time>
      </trkpt>
      <trkpt lat="41.660598470" lon="2.589898440">
        <ele>668.70</ele>
        <time>2014-04-06T10:11:34Z</time>
      </trkpt>
      <trkpt lat="41.660605010" lon="2.589885030">
        <ele>669.00</ele>
        <time>2014-04-06T10:11:35Z</time>
      </trkpt>
      <trkpt lat="41.660610040" lon="2.589871790">
        <ele>669.20</ele>
        <time>2014-04-06T10:11:36Z</time>
      </trkpt>
      <trkpt lat="41.660613390" lon="2.589853350">
        <ele>669.30</ele>
        <time>2014-04-06T10:11:37Z</time>
      </trkpt>
      <trkpt lat="41.660615070" lon="2.589836750">
        <ele>669.40</ele>
        <time>2014-04-06T10:11:38Z</time>
      </trkpt>
      <trkpt lat="41.660616750" lon="2.589820150">
        <ele>669.60</ele>
        <time>2014-04-06T10:11:39Z</time>
      </trkpt>
      <trkpt lat="41.660618420" lon="2.589805070">
        <ele>669.70</ele>
        <time>2014-04-06T10:11:40Z</time>
      </trkpt>
      <trkpt lat="41.660621780" lon="2.589791820">
        <ele>670.00</ele>
        <time>2014-04-06T10:11:41Z</time>
      </trkpt>
      <trkpt lat="41.660620100" lon="2.589778410">
        <ele>670.20</ele>
        <time>2014-04-06T10:11:42Z</time>
      </trkpt>
      <trkpt lat="41.660621780" lon="2.589765000">
        <ele>670.30</ele>
        <time>2014-04-06T10:11:43Z</time>
      </trkpt>
      <trkpt lat="41.660625130" lon="2.589750080">
        <ele>670.50</ele>
        <time>2014-04-06T10:11:44Z</time>
      </trkpt>
      <trkpt lat="41.660623450" lon="2.589736670">
        <ele>670.60</ele>
        <time>2014-04-06T10:11:45Z</time>
      </trkpt>
      <trkpt lat="41.660620100" lon="2.589723430">
        <ele>671.00</ele>
        <time>2014-04-06T10:11:46Z</time>
      </trkpt>
      <trkpt lat="41.660620100" lon="2.589710010">
        <ele>671.20</ele>
        <time>2014-04-06T10:11:47Z</time>
      </trkpt>
      <trkpt lat="41.660618420" lon="2.589696770">
        <ele>671.50</ele>
        <time>2014-04-06T10:11:48Z</time>
      </trkpt>
      <trkpt lat="41.660616750" lon="2.589683360">
        <ele>671.70</ele>
        <time>2014-04-06T10:11:49Z</time>
      </trkpt>
      <trkpt lat="41.660618420" lon="2.589671790">
        <ele>671.90</ele>
        <time>2014-04-06T10:11:50Z</time>
      </trkpt>
      <trkpt lat="41.660621780" lon="2.589660060">
        <ele>671.90</ele>
        <time>2014-04-06T10:11:51Z</time>
      </trkpt>
      <trkpt lat="41.660626810" lon="2.589648490">
        <ele>672.00</ele>
        <time>2014-04-06T10:11:52Z</time>
      </trkpt>
      <trkpt lat="41.660628480" lon="2.589631730">
        <ele>672.50</ele>
        <time>2014-04-06T10:11:53Z</time>
      </trkpt>
      <trkpt lat="41.660628480" lon="2.589618480">
        <ele>672.80</ele>
        <time>2014-04-06T10:11:54Z</time>
      </trkpt>
      <trkpt lat="41.660628480" lon="2.589605070">
        <ele>673.00</ele>
        <time>2014-04-06T10:11:55Z</time>
      </trkpt>
      <trkpt lat="41.660625130" lon="2.589593340">
        <ele>673.20</ele>
        <time>2014-04-06T10:11:56Z</time>
      </trkpt>
      <trkpt lat="41.660625130" lon="2.589580100">
        <ele>673.30</ele>
        <time>2014-04-06T10:11:57Z</time>
      </trkpt>
      <trkpt lat="41.660623450" lon="2.589565010">
        <ele>673.40</ele>
        <time>2014-04-06T10:11:58Z</time>
      </trkpt>
      <trkpt lat="41.660621780" lon="2.589553440">
        <ele>673.50</ele>
        <time>2014-04-06T10:11:59Z</time>
      </trkpt>
      <trkpt lat="41.660623450" lon="2.589536680">
        <ele>673.80</ele>
        <time>2014-04-06T10:12:00Z</time>
      </trkpt>
      <trkpt lat="41.660625130" lon="2.589518400">
        <ele>674.10</ele>
        <time>2014-04-06T10:12:01Z</time>
      </trkpt>
      <trkpt lat="41.660625130" lon="2.589500130">
        <ele>674.40</ele>
        <time>2014-04-06T10:12:02Z</time>
      </trkpt>
      <trkpt lat="41.660623450" lon="2.589480020">
        <ele>674.60</ele>
        <time>2014-04-06T10:12:03Z</time>
      </trkpt>
      <trkpt lat="41.660620100" lon="2.589463420">
        <ele>674.70</ele>
        <time>2014-04-06T10:12:04Z</time>
      </trkpt>
      <trkpt lat="41.660620100" lon="2.589446820">
        <ele>675.20</ele>
        <time>2014-04-06T10:12:05Z</time>
      </trkpt>
      <trkpt lat="41.660620100" lon="2.589435090">
        <ele>675.60</ele>
        <time>2014-04-06T10:12:06Z</time>
      </trkpt>
      <trkpt lat="41.660620100" lon="2.589420000">
        <ele>675.60</ele>
        <time>2014-04-06T10:12:07Z</time>
      </trkpt>
      <trkpt lat="41.660618420" lon="2.589403400">
        <ele>675.50</ele>
        <time>2014-04-06T10:12:08Z</time>
      </trkpt>
      <trkpt lat="41.660618420" lon="2.589388480">
        <ele>675.50</ele>
        <time>2014-04-06T10:12:09Z</time>
      </trkpt>
      <trkpt lat="41.660616750" lon="2.589375070">
        <ele>675.70</ele>
        <time>2014-04-06T10:12:10Z</time>
      </trkpt>
      <trkpt lat="41.660615070" lon="2.589360150">
        <ele>675.90</ele>
        <time>2014-04-06T10:12:11Z</time>
      </trkpt>
      <trkpt lat="41.660616750" lon="2.589351770">
        <ele>676.40</ele>
        <time>2014-04-06T10:12:12Z</time>
      </trkpt>
      <trkpt lat="41.660616750" lon="2.589338360">
        <ele>676.70</ele>
        <time>2014-04-06T10:12:13Z</time>
      </trkpt>
      <trkpt lat="41.660616750" lon="2.589326790">
        <ele>677.20</ele>
        <time>2014-04-06T10:12:14Z</time>
      </trkpt>
      <trkpt lat="41.660615070" lon="2.589311710">
        <ele>677.60</ele>
        <time>2014-04-06T10:12:15Z</time>
      </trkpt>
      <trkpt lat="41.660615070" lon="2.589298460">
        <ele>677.90</ele>
        <time>2014-04-06T10:12:16Z</time>
      </trkpt>
      <trkpt lat="41.660613390" lon="2.589285050">
        <ele>678.40</ele>
        <time>2014-04-06T10:12:17Z</time>
      </trkpt>
      <trkpt lat="41.660613390" lon="2.589270130">
        <ele>678.70</ele>
        <time>2014-04-06T10:12:18Z</time>
      </trkpt>
      <trkpt lat="41.660610040" lon="2.589258400">
        <ele>679.20</ele>
        <time>2014-04-06T10:12:19Z</time>
      </trkpt>
      <trkpt lat="41.660608360" lon="2.589243480">
        <ele>679.50</ele>
        <time>2014-04-06T10:12:20Z</time>
      </trkpt>
      <trkpt lat="41.660611720" lon="2.589226710">
        <ele>679.30</ele>
        <time>2014-04-06T10:12:21Z</time>
      </trkpt>
      <trkpt lat="41.660613390" lon="2.589211790">
        <ele>679.10</ele>
        <time>2014-04-06T10:12:22Z</time>
      </trkpt>
      <trkpt lat="41.660613390" lon="2.589195030">
        <ele>678.90</ele>
        <time>2014-04-06T10:12:23Z</time>
      </trkpt>
      <trkpt lat="41.660615070" lon="2.589178430">
        <ele>679.30</ele>
        <time>2014-04-06T10:12:24Z</time>
      </trkpt>
      <trkpt lat="41.660618420" lon="2.589160160">
        <ele>679.60</ele>
        <time>2014-04-06T10:12:25Z</time>
      </trkpt>
      <trkpt lat="41.660618420" lon="2.589148430">
        <ele>679.80</ele>
        <time>2014-04-06T10:12:26Z</time>
      </trkpt>
      <trkpt lat="41.660618420" lon="2.589135020">
        <ele>680.00</ele>
        <time>2014-04-06T10:12:27Z</time>
      </trkpt>
      <trkpt lat="41.660615070" lon="2.589118420">
        <ele>680.10</ele>
        <time>2014-04-06T10:12:28Z</time>
      </trkpt>
      <trkpt lat="41.660611720" lon="2.589101820">
        <ele>680.70</ele>
        <time>2014-04-06T10:12:29Z</time>
      </trkpt>
      <trkpt lat="41.660610040" lon="2.589085060">
        <ele>681.10</ele>
        <time>2014-04-06T10:12:30Z</time>
      </trkpt>
      <trkpt lat="41.660610040" lon="2.589071820">
        <ele>681.50</ele>
        <time>2014-04-06T10:12:31Z</time>
      </trkpt>
      <trkpt lat="41.660611720" lon="2.589058410">
        <ele>681.80</ele>
        <time>2014-04-06T10:12:32Z</time>
      </trkpt>
      <trkpt lat="41.660611720" lon="2.589043490">
        <ele>682.10</ele>
        <time>2014-04-06T10:12:33Z</time>
      </trkpt>
      <trkpt lat="41.660610040" lon="2.589030070">
        <ele>682.40</ele>
        <time>2014-04-06T10:12:34Z</time>
      </trkpt>
      <trkpt lat="41.660606690" lon="2.589013480">
        <ele>682.50</ele>
        <time>2014-04-06T10:12:35Z</time>
      </trkpt>
      <trkpt lat="41.660605010" lon="2.589008450">
        <ele>682.50</ele>
        <time>2014-04-06T10:12:36Z</time>
      </trkpt>
      <trkpt lat="41.660605010" lon="2.589003420">
        <ele>682.50</ele>
        <time>2014-04-06T10:12:37Z</time>
      </trkpt>
      <trkpt lat="41.660605010" lon="2.588996710">
        <ele>682.70</ele>
        <time>2014-04-06T10:12:38Z</time>
      </trkpt>
      <trkpt lat="41.660603340" lon="2.588983470">
        <ele>682.90</ele>
        <time>2014-04-06T10:12:39Z</time>
      </trkpt>
      <trkpt lat="41.660600150" lon="2.588970060">
        <ele>683.40</ele>
        <time>2014-04-06T10:12:40Z</time>
      </trkpt>
      <trkpt lat="41.660596800" lon="2.588956820">
        <ele>683.70</ele>
        <time>2014-04-06T10:12:41Z</time>
      </trkpt>
      <trkpt lat="41.660593450" lon="2.588943410">
        <ele>684.00</ele>
        <time>2014-04-06T10:12:42Z</time>
      </trkpt>
      <trkpt lat="41.660593450" lon="2.588931670">
        <ele>684.20</ele>
        <time>2014-04-06T10:12:43Z</time>
      </trkpt>
      <trkpt lat="41.660591770" lon="2.588920100">
        <ele>684.40</ele>
        <time>2014-04-06T10:12:44Z</time>
      </trkpt>
      <trkpt lat="41.660588420" lon="2.588908370">
        <ele>684.20</ele>
        <time>2014-04-06T10:12:45Z</time>
      </trkpt>
      <trkpt lat="41.660586740" lon="2.588896800">
        <ele>684.10</ele>
        <time>2014-04-06T10:12:46Z</time>
      </trkpt>
      <trkpt lat="41.660585060" lon="2.588886740">
        <ele>684.50</ele>
        <time>2014-04-06T10:12:47Z</time>
      </trkpt>
      <trkpt lat="41.660580030" lon="2.588878360">
        <ele>684.80</ele>
        <time>2014-04-06T10:12:48Z</time>
      </trkpt>
      <trkpt lat="41.660580030" lon="2.588866800">
        <ele>685.00</ele>
        <time>2014-04-06T10:12:49Z</time>
      </trkpt>
      <trkpt lat="41.660578360" lon="2.588855060">
        <ele>685.10</ele>
        <time>2014-04-06T10:12:50Z</time>
      </trkpt>
      <trkpt lat="41.660576680" lon="2.588843490">
        <ele>685.20</ele>
        <time>2014-04-06T10:12:51Z</time>
      </trkpt>
      <trkpt lat="41.660575000" lon="2.588830080">
        <ele>685.20</ele>
        <time>2014-04-06T10:12:52Z</time>
      </trkpt>
      <trkpt lat="41.660573330" lon="2.588818350">
        <ele>685.30</ele>
        <time>2014-04-06T10:12:53Z</time>
      </trkpt>
      <trkpt lat="41.660571820" lon="2.588806780">
        <ele>685.30</ele>
        <time>2014-04-06T10:12:54Z</time>
      </trkpt>
      <trkpt lat="41.660570140" lon="2.588793370">
        <ele>685.60</ele>
        <time>2014-04-06T10:12:55Z</time>
      </trkpt>
      <trkpt lat="41.660570140" lon="2.588783480">
        <ele>685.90</ele>
        <time>2014-04-06T10:12:56Z</time>
      </trkpt>
      <trkpt lat="41.660570140" lon="2.588778450">
        <ele>686.10</ele>
        <time>2014-04-06T10:12:57Z</time>
      </trkpt>
      <trkpt lat="41.660570140" lon="2.588771740">
        <ele>686.30</ele>
        <time>2014-04-06T10:12:58Z</time>
      </trkpt>
      <trkpt lat="41.660570140" lon="2.588768390">
        <ele>686.60</ele>
        <time>2014-04-06T10:12:59Z</time>
      </trkpt>
      <trkpt lat="41.660570140" lon="2.588766720">
        <ele>686.80</ele>
        <time>2014-04-06T10:13:00Z</time>
      </trkpt>
      <trkpt lat="41.660570140" lon="2.588763360">
        <ele>687.00</ele>
        <time>2014-04-06T10:13:01Z</time>
      </trkpt>
      <trkpt lat="41.660570140" lon="2.588760010">
        <ele>687.20</ele>
        <time>2014-04-06T10:13:02Z</time>
      </trkpt>
      <trkpt lat="41.660570140" lon="2.588758330">
        <ele>687.30</ele>
        <time>2014-04-06T10:13:03Z</time>
      </trkpt>
      <trkpt lat="41.660568470" lon="2.588755150">
        <ele>687.50</ele>
        <time>2014-04-06T10:13:04Z</time>
      </trkpt>
      <trkpt lat="41.660566790" lon="2.588751800">
        <ele>687.70</ele>
        <time>2014-04-06T10:13:05Z</time>
      </trkpt>
      <trkpt lat="41.660566790" lon="2.588748440">
        <ele>687.80</ele>
        <time>2014-04-06T10:13:06Z</time>
      </trkpt>
      <trkpt lat="41.660566790" lon="2.588745090">
        <ele>687.50</ele>
        <time>2014-04-06T10:13:07Z</time>
      </trkpt>
      <trkpt lat="41.660566790" lon="2.588741740">
        <ele>687.20</ele>
        <time>2014-04-06T10:13:08Z</time>
      </trkpt>
      <trkpt lat="41.660565110" lon="2.588733360">
        <ele>687.70</ele>
        <time>2014-04-06T10:13:09Z</time>
      </trkpt>
      <trkpt lat="41.660561760" lon="2.588721790">
        <ele>688.10</ele>
        <time>2014-04-06T10:13:10Z</time>
      </trkpt>
      <trkpt lat="41.660556730" lon="2.588710050">
        <ele>687.70</ele>
        <time>2014-04-06T10:13:11Z</time>
      </trkpt>
      <trkpt lat="41.660551700" lon="2.588696810">
        <ele>687.40</ele>
        <time>2014-04-06T10:13:12Z</time>
      </trkpt>
      <trkpt lat="41.660548350" lon="2.588681720">
        <ele>687.20</ele>
        <time>2014-04-06T10:13:13Z</time>
      </trkpt>
      <trkpt lat="41.660543490" lon="2.588666800">
        <ele>687.30</ele>
        <time>2014-04-06T10:13:14Z</time>
      </trkpt>
      <trkpt lat="41.660540140" lon="2.588651720">
        <ele>687.30</ele>
        <time>2014-04-06T10:13:15Z</time>
      </trkpt>
      <trkpt lat="41.660538460" lon="2.588636800">
        <ele>687.50</ele>
        <time>2014-04-06T10:13:16Z</time>
      </trkpt>
      <trkpt lat="41.660533430" lon="2.588626740">
        <ele>687.70</ele>
        <time>2014-04-06T10:13:17Z</time>
      </trkpt>
      <trkpt lat="41.660525050" lon="2.588616680">
        <ele>687.90</ele>
        <time>2014-04-06T10:13:18Z</time>
      </trkpt>
      <trkpt lat="41.660516670" lon="2.588606790">
        <ele>688.00</ele>
        <time>2014-04-06T10:13:19Z</time>
      </trkpt>
      <trkpt lat="41.660505100" lon="2.588596730">
        <ele>688.10</ele>
        <time>2014-04-06T10:13:20Z</time>
      </trkpt>
      <trkpt lat="41.660495040" lon="2.588586670">
        <ele>688.40</ele>
        <time>2014-04-06T10:13:21Z</time>
      </trkpt>
      <trkpt lat="41.660488340" lon="2.588580130">
        <ele>688.50</ele>
        <time>2014-04-06T10:13:22Z</time>
      </trkpt>
      <trkpt lat="41.660480120" lon="2.588571750">
        <ele>689.10</ele>
        <time>2014-04-06T10:13:23Z</time>
      </trkpt>
      <trkpt lat="41.660473420" lon="2.588563370">
        <ele>689.50</ele>
        <time>2014-04-06T10:13:24Z</time>
      </trkpt>
      <trkpt lat="41.660463360" lon="2.588555160">
        <ele>689.80</ele>
        <time>2014-04-06T10:13:25Z</time>
      </trkpt>
      <trkpt lat="41.660453470" lon="2.588551800">
        <ele>690.00</ele>
        <time>2014-04-06T10:13:26Z</time>
      </trkpt>
      <trkpt lat="41.660443410" lon="2.588543420">
        <ele>690.10</ele>
        <time>2014-04-06T10:13:27Z</time>
      </trkpt>
      <trkpt lat="41.660435030" lon="2.588538390">
        <ele>690.20</ele>
        <time>2014-04-06T10:13:28Z</time>
      </trkpt>
      <trkpt lat="41.660426810" lon="2.588530010">
        <ele>690.20</ele>
        <time>2014-04-06T10:13:29Z</time>
      </trkpt>
      <trkpt lat="41.660420110" lon="2.588521800">
        <ele>690.50</ele>
        <time>2014-04-06T10:13:30Z</time>
      </trkpt>
      <trkpt lat="41.660415080" lon="2.588515090">
        <ele>690.70</ele>
        <time>2014-04-06T10:13:31Z</time>
      </trkpt>
      <trkpt lat="41.660410050" lon="2.588515090">
        <ele>690.90</ele>
        <time>2014-04-06T10:13:32Z</time>
      </trkpt>
      <trkpt lat="41.660405020" lon="2.588511740">
        <ele>691.20</ele>
        <time>2014-04-06T10:13:33Z</time>
      </trkpt>
      <trkpt lat="41.660398480" lon="2.588510060">
        <ele>691.50</ele>
        <time>2014-04-06T10:13:34Z</time>
      </trkpt>
      <trkpt lat="41.660390100" lon="2.588506710">
        <ele>691.70</ele>
        <time>2014-04-06T10:13:35Z</time>
      </trkpt>
      <trkpt lat="41.660383390" lon="2.588501680">
        <ele>691.80</ele>
        <time>2014-04-06T10:13:36Z</time>
      </trkpt>
      <trkpt lat="41.660375010" lon="2.588498490">
        <ele>691.90</ele>
        <time>2014-04-06T10:13:37Z</time>
      </trkpt>
      <trkpt lat="41.660368470" lon="2.588493470">
        <ele>691.90</ele>
        <time>2014-04-06T10:13:38Z</time>
      </trkpt>
      <trkpt lat="41.660360090" lon="2.588488440">
        <ele>692.00</ele>
        <time>2014-04-06T10:13:39Z</time>
      </trkpt>
      <trkpt lat="41.660351710" lon="2.588486760">
        <ele>692.40</ele>
        <time>2014-04-06T10:13:40Z</time>
      </trkpt>
      <trkpt lat="41.660343330" lon="2.588485080">
        <ele>692.70</ele>
        <time>2014-04-06T10:13:41Z</time>
      </trkpt>
      <trkpt lat="41.660336790" lon="2.588481730">
        <ele>693.00</ele>
        <time>2014-04-06T10:13:42Z</time>
      </trkpt>
      <trkpt lat="41.660328410" lon="2.588473350">
        <ele>693.20</ele>
        <time>2014-04-06T10:13:43Z</time>
      </trkpt>
      <trkpt lat="41.660321700" lon="2.588466810">
        <ele>693.30</ele>
        <time>2014-04-06T10:13:44Z</time>
      </trkpt>
      <trkpt lat="41.660315000" lon="2.588460110">
        <ele>693.50</ele>
        <time>2014-04-06T10:13:45Z</time>
      </trkpt>
      <trkpt lat="41.660306780" lon="2.588450050">
        <ele>693.60</ele>
        <time>2014-04-06T10:13:46Z</time>
      </trkpt>
      <trkpt lat="41.660300080" lon="2.588443340">
        <ele>694.00</ele>
        <time>2014-04-06T10:13:47Z</time>
      </trkpt>
      <trkpt lat="41.660291700" lon="2.588431770">
        <ele>694.20</ele>
        <time>2014-04-06T10:13:48Z</time>
      </trkpt>
      <trkpt lat="41.660281810" lon="2.588418360">
        <ele>694.50</ele>
        <time>2014-04-06T10:13:49Z</time>
      </trkpt>
      <trkpt lat="41.660275100" lon="2.588410150">
        <ele>694.80</ele>
        <time>2014-04-06T10:13:50Z</time>
      </trkpt>
      <trkpt lat="41.660270070" lon="2.588398410">
        <ele>694.90</ele>
        <time>2014-04-06T10:13:51Z</time>
      </trkpt>
      <trkpt lat="41.660266720" lon="2.588386680">
        <ele>695.10</ele>
        <time>2014-04-06T10:13:52Z</time>
      </trkpt>
      <trkpt lat="41.660263370" lon="2.588375110">
        <ele>695.20</ele>
        <time>2014-04-06T10:13:53Z</time>
      </trkpt>
      <trkpt lat="41.660260010" lon="2.588363380">
        <ele>695.40</ele>
        <time>2014-04-06T10:13:54Z</time>
      </trkpt>
      <trkpt lat="41.660258340" lon="2.588351810">
        <ele>695.60</ele>
        <time>2014-04-06T10:13:55Z</time>
      </trkpt>
      <trkpt lat="41.660260010" lon="2.588338400">
        <ele>695.40</ele>
        <time>2014-04-06T10:13:56Z</time>
      </trkpt>
      <trkpt lat="41.660261690" lon="2.588326670">
        <ele>695.30</ele>
        <time>2014-04-06T10:13:57Z</time>
      </trkpt>
      <trkpt lat="41.660261690" lon="2.588311750">
        <ele>695.20</ele>
        <time>2014-04-06T10:13:58Z</time>
      </trkpt>
      <trkpt lat="41.660261690" lon="2.588301690">
        <ele>695.60</ele>
        <time>2014-04-06T10:13:59Z</time>
      </trkpt>
      <trkpt lat="41.660260010" lon="2.588288440">
        <ele>696.00</ele>
        <time>2014-04-06T10:14:00Z</time>
      </trkpt>
      <trkpt lat="41.660261690" lon="2.588273360">
        <ele>696.30</ele>
        <time>2014-04-06T10:14:01Z</time>
      </trkpt>
      <trkpt lat="41.660263370" lon="2.588260110">
        <ele>696.50</ele>
        <time>2014-04-06T10:14:02Z</time>
      </trkpt>
      <trkpt lat="41.660266720" lon="2.588246700">
        <ele>696.80</ele>
        <time>2014-04-06T10:14:03Z</time>
      </trkpt>
      <trkpt lat="41.660270070" lon="2.588233460">
        <ele>696.90</ele>
        <time>2014-04-06T10:14:04Z</time>
      </trkpt>
      <trkpt lat="41.660271750" lon="2.588216690">
        <ele>697.10</ele>
        <time>2014-04-06T10:14:05Z</time>
      </trkpt>
      <trkpt lat="41.660275100" lon="2.588201770">
        <ele>697.30</ele>
        <time>2014-04-06T10:14:06Z</time>
      </trkpt>
      <trkpt lat="41.660280130" lon="2.588188360">
        <ele>697.50</ele>
        <time>2014-04-06T10:14:07Z</time>
      </trkpt>
      <trkpt lat="41.660285160" lon="2.588173440">
        <ele>697.10</ele>
        <time>2014-04-06T10:14:08Z</time>
      </trkpt>
      <trkpt lat="41.660290020" lon="2.588156680">
        <ele>696.80</ele>
        <time>2014-04-06T10:14:09Z</time>
      </trkpt>
      <trkpt lat="41.660295050" lon="2.588143440">
        <ele>696.60</ele>
        <time>2014-04-06T10:14:10Z</time>
      </trkpt>
      <trkpt lat="41.660300080" lon="2.588128350">
        <ele>696.60</ele>
        <time>2014-04-06T10:14:11Z</time>
      </trkpt>
      <trkpt lat="41.660301750" lon="2.588113430">
        <ele>696.70</ele>
        <time>2014-04-06T10:14:12Z</time>
      </trkpt>
      <trkpt lat="41.660303430" lon="2.588100020">
        <ele>697.30</ele>
        <time>2014-04-06T10:14:13Z</time>
      </trkpt>
      <trkpt lat="41.660305110" lon="2.588085100">
        <ele>697.80</ele>
        <time>2014-04-06T10:14:14Z</time>
      </trkpt>
      <trkpt lat="41.660308460" lon="2.588071690">
        <ele>697.60</ele>
        <time>2014-04-06T10:14:15Z</time>
      </trkpt>
      <trkpt lat="41.660311810" lon="2.588060120">
        <ele>697.50</ele>
        <time>2014-04-06T10:14:16Z</time>
      </trkpt>
      <trkpt lat="41.660316670" lon="2.588051740">
        <ele>697.40</ele>
        <time>2014-04-06T10:14:17Z</time>
      </trkpt>
      <trkpt lat="41.660318350" lon="2.588038500">
        <ele>697.70</ele>
        <time>2014-04-06T10:14:18Z</time>
      </trkpt>
      <trkpt lat="41.660320030" lon="2.588028440">
        <ele>698.00</ele>
        <time>2014-04-06T10:14:19Z</time>
      </trkpt>
      <trkpt lat="41.660325060" lon="2.588016700">
        <ele>697.90</ele>
        <time>2014-04-06T10:14:20Z</time>
      </trkpt>
      <trkpt lat="41.660325060" lon="2.588006810">
        <ele>697.80</ele>
        <time>2014-04-06T10:14:21Z</time>
      </trkpt>
      <trkpt lat="41.660325060" lon="2.587995080">
        <ele>697.80</ele>
        <time>2014-04-06T10:14:22Z</time>
      </trkpt>
      <trkpt lat="41.660325060" lon="2.587978480">
        <ele>697.70</ele>
        <time>2014-04-06T10:14:23Z</time>
      </trkpt>
      <trkpt lat="41.660326730" lon="2.587961720">
        <ele>697.60</ele>
        <time>2014-04-06T10:14:24Z</time>
      </trkpt>
      <trkpt lat="41.660326730" lon="2.587945120">
        <ele>697.60</ele>
        <time>2014-04-06T10:14:25Z</time>
      </trkpt>
      <trkpt lat="41.660325060" lon="2.587930030">
        <ele>697.60</ele>
        <time>2014-04-06T10:14:26Z</time>
      </trkpt>
      <trkpt lat="41.660321700" lon="2.587913440">
        <ele>697.90</ele>
        <time>2014-04-06T10:14:27Z</time>
      </trkpt>
      <trkpt lat="41.660318350" lon="2.587900030">
        <ele>698.10</ele>
        <time>2014-04-06T10:14:28Z</time>
      </trkpt>
      <trkpt lat="41.660316670" lon="2.587885110">
        <ele>698.20</ele>
        <time>2014-04-06T10:14:29Z</time>
      </trkpt>
      <trkpt lat="41.660313490" lon="2.587875050">
        <ele>698.10</ele>
        <time>2014-04-06T10:14:30Z</time>
      </trkpt>
      <trkpt lat="41.660308460" lon="2.587861800">
        <ele>698.10</ele>
        <time>2014-04-06T10:14:31Z</time>
      </trkpt>
      <trkpt lat="41.660301750" lon="2.587846720">
        <ele>698.00</ele>
        <time>2014-04-06T10:14:32Z</time>
      </trkpt>
      <trkpt lat="41.660295050" lon="2.587835150">
        <ele>698.00</ele>
        <time>2014-04-06T10:14:33Z</time>
      </trkpt>
      <trkpt lat="41.660290020" lon="2.587821740">
        <ele>698.30</ele>
        <time>2014-04-06T10:14:34Z</time>
      </trkpt>
      <trkpt lat="41.660286670" lon="2.587808330">
        <ele>698.50</ele>
        <time>2014-04-06T10:14:35Z</time>
      </trkpt>
      <trkpt lat="41.660283480" lon="2.587795080">
        <ele>698.60</ele>
        <time>2014-04-06T10:14:36Z</time>
      </trkpt>
      <trkpt lat="41.660281810" lon="2.587778490">
        <ele>698.30</ele>
        <time>2014-04-06T10:14:37Z</time>
      </trkpt>
      <trkpt lat="41.660281810" lon="2.587763400">
        <ele>698.10</ele>
        <time>2014-04-06T10:14:38Z</time>
      </trkpt>
      <trkpt lat="41.660281810" lon="2.587750160">
        <ele>698.20</ele>
        <time>2014-04-06T10:14:39Z</time>
      </trkpt>
      <trkpt lat="41.660283480" lon="2.587736750">
        <ele>698.20</ele>
        <time>2014-04-06T10:14:40Z</time>
      </trkpt>
      <trkpt lat="41.660285160" lon="2.587721830">
        <ele>698.20</ele>
        <time>2014-04-06T10:14:41Z</time>
      </trkpt>
      <trkpt lat="41.660285160" lon="2.587710090">
        <ele>698.20</ele>
        <time>2014-04-06T10:14:42Z</time>
      </trkpt>
      <trkpt lat="41.660286670" lon="2.587698360">
        <ele>698.20</ele>
        <time>2014-04-06T10:14:43Z</time>
      </trkpt>
      <trkpt lat="41.660290020" lon="2.587686790">
        <ele>698.00</ele>
        <time>2014-04-06T10:14:44Z</time>
      </trkpt>
      <trkpt lat="41.660291700" lon="2.587676730">
        <ele>697.80</ele>
        <time>2014-04-06T10:14:45Z</time>
      </trkpt>
      <trkpt lat="41.660293370" lon="2.587663490">
        <ele>697.90</ele>
        <time>2014-04-06T10:14:46Z</time>
      </trkpt>
      <trkpt lat="41.660293370" lon="2.587651750">
        <ele>698.00</ele>
        <time>2014-04-06T10:14:47Z</time>
      </trkpt>
      <trkpt lat="41.660296730" lon="2.587638340">
        <ele>698.00</ele>
        <time>2014-04-06T10:14:48Z</time>
      </trkpt>
      <trkpt lat="41.660298400" lon="2.587625100">
        <ele>698.00</ele>
        <time>2014-04-06T10:14:49Z</time>
      </trkpt>
      <trkpt lat="41.660298400" lon="2.587611690">
        <ele>697.90</ele>
        <time>2014-04-06T10:14:50Z</time>
      </trkpt>
      <trkpt lat="41.660301750" lon="2.587598450">
        <ele>698.00</ele>
        <time>2014-04-06T10:14:51Z</time>
      </trkpt>
      <trkpt lat="41.660305110" lon="2.587586710">
        <ele>698.10</ele>
        <time>2014-04-06T10:14:52Z</time>
      </trkpt>
      <trkpt lat="41.660310140" lon="2.587575140">
        <ele>698.30</ele>
        <time>2014-04-06T10:14:53Z</time>
      </trkpt>
      <trkpt lat="41.660313490" lon="2.587563410">
        <ele>698.50</ele>
        <time>2014-04-06T10:14:54Z</time>
      </trkpt>
      <trkpt lat="41.660315000" lon="2.587553350">
        <ele>698.70</ele>
        <time>2014-04-06T10:14:55Z</time>
      </trkpt>
      <trkpt lat="41.660318350" lon="2.587543460">
        <ele>698.50</ele>
        <time>2014-04-06T10:14:56Z</time>
      </trkpt>
      <trkpt lat="41.660321700" lon="2.587533400">
        <ele>698.30</ele>
        <time>2014-04-06T10:14:57Z</time>
      </trkpt>
      <trkpt lat="41.660326730" lon="2.587521670">
        <ele>698.60</ele>
        <time>2014-04-06T10:14:58Z</time>
      </trkpt>
      <trkpt lat="41.660330090" lon="2.587511780">
        <ele>698.80</ele>
        <time>2014-04-06T10:14:59Z</time>
      </trkpt>
      <trkpt lat="41.660335110" lon="2.587498370">
        <ele>699.10</ele>
        <time>2014-04-06T10:15:00Z</time>
      </trkpt>
      <trkpt lat="41.660338470" lon="2.587485120">
        <ele>699.40</ele>
        <time>2014-04-06T10:15:01Z</time>
      </trkpt>
      <trkpt lat="41.660340140" lon="2.587473390">
        <ele>699.60</ele>
        <time>2014-04-06T10:15:02Z</time>
      </trkpt>
      <trkpt lat="41.660341820" lon="2.587461820">
        <ele>699.60</ele>
        <time>2014-04-06T10:15:03Z</time>
      </trkpt>
      <trkpt lat="41.660345010" lon="2.587448410">
        <ele>699.60</ele>
        <time>2014-04-06T10:15:04Z</time>
      </trkpt>
      <trkpt lat="41.660346680" lon="2.587433490">
        <ele>700.00</ele>
        <time>2014-04-06T10:15:05Z</time>
      </trkpt>
      <trkpt lat="41.660348360" lon="2.587420080">
        <ele>700.30</ele>
        <time>2014-04-06T10:15:06Z</time>
      </trkpt>
      <trkpt lat="41.660350030" lon="2.587406670">
        <ele>700.60</ele>
        <time>2014-04-06T10:15:07Z</time>
      </trkpt>
      <trkpt lat="41.660351710" lon="2.587391750">
        <ele>700.40</ele>
        <time>2014-04-06T10:15:08Z</time>
      </trkpt>
      <trkpt lat="41.660356740" lon="2.587376830">
        <ele>700.30</ele>
        <time>2014-04-06T10:15:09Z</time>
      </trkpt>
      <trkpt lat="41.660361770" lon="2.587363420">
        <ele>700.10</ele>
        <time>2014-04-06T10:15:10Z</time>
      </trkpt>
      <trkpt lat="41.660366800" lon="2.587345140">
        <ele>700.00</ele>
        <time>2014-04-06T10:15:11Z</time>
      </trkpt>
      <trkpt lat="41.660368470" lon="2.587326700">
        <ele>700.10</ele>
        <time>2014-04-06T10:15:12Z</time>
      </trkpt>
      <trkpt lat="41.660370150" lon="2.587311780">
        <ele>700.20</ele>
        <time>2014-04-06T10:15:13Z</time>
      </trkpt>
      <trkpt lat="41.660373340" lon="2.587296700">
        <ele>700.30</ele>
        <time>2014-04-06T10:15:14Z</time>
      </trkpt>
      <trkpt lat="41.660373340" lon="2.587285130">
        <ele>700.20</ele>
        <time>2014-04-06T10:15:15Z</time>
      </trkpt>
      <trkpt lat="41.660375010" lon="2.587271720">
        <ele>700.10</ele>
        <time>2014-04-06T10:15:16Z</time>
      </trkpt>
      <trkpt lat="41.660376690" lon="2.587260150">
        <ele>700.50</ele>
        <time>2014-04-06T10:15:17Z</time>
      </trkpt>
      <trkpt lat="41.660376690" lon="2.587248420">
        <ele>700.80</ele>
        <time>2014-04-06T10:15:18Z</time>
      </trkpt>
      <trkpt lat="41.660376690" lon="2.587235010">
        <ele>701.10</ele>
        <time>2014-04-06T10:15:19Z</time>
      </trkpt>
      <trkpt lat="41.660378370" lon="2.587223440">
        <ele>701.20</ele>
        <time>2014-04-06T10:15:20Z</time>
      </trkpt>
      <trkpt lat="41.660378370" lon="2.587213380">
        <ele>701.40</ele>
        <time>2014-04-06T10:15:21Z</time>
      </trkpt>
      <trkpt lat="41.660380040" lon="2.587201810">
        <ele>701.20</ele>
        <time>2014-04-06T10:15:22Z</time>
      </trkpt>
      <trkpt lat="41.660381720" lon="2.587190080">
        <ele>701.20</ele>
        <time>2014-04-06T10:15:23Z</time>
      </trkpt>
      <trkpt lat="41.660381720" lon="2.587176670">
        <ele>701.40</ele>
        <time>2014-04-06T10:15:24Z</time>
      </trkpt>
      <trkpt lat="41.660380040" lon="2.587161750">
        <ele>701.60</ele>
        <time>2014-04-06T10:15:25Z</time>
      </trkpt>
      <trkpt lat="41.660380040" lon="2.587148340">
        <ele>701.80</ele>
        <time>2014-04-06T10:15:26Z</time>
      </trkpt>
      <trkpt lat="41.660380040" lon="2.587138450">
        <ele>701.90</ele>
        <time>2014-04-06T10:15:27Z</time>
      </trkpt>
      <trkpt lat="41.660380040" lon="2.587126710">
        <ele>701.90</ele>
        <time>2014-04-06T10:15:28Z</time>
      </trkpt>
      <trkpt lat="41.660380040" lon="2.587111790">
        <ele>702.40</ele>
        <time>2014-04-06T10:15:29Z</time>
      </trkpt>
      <trkpt lat="41.660381720" lon="2.587096700">
        <ele>702.80</ele>
        <time>2014-04-06T10:15:30Z</time>
      </trkpt>
      <trkpt lat="41.660381720" lon="2.587081780">
        <ele>703.00</ele>
        <time>2014-04-06T10:15:31Z</time>
      </trkpt>
      <trkpt lat="41.660381720" lon="2.587068370">
        <ele>703.20</ele>
        <time>2014-04-06T10:15:32Z</time>
      </trkpt>
      <trkpt lat="41.660383390" lon="2.587053450">
        <ele>703.30</ele>
        <time>2014-04-06T10:15:33Z</time>
      </trkpt>
      <trkpt lat="41.660381720" lon="2.587040040">
        <ele>703.10</ele>
        <time>2014-04-06T10:15:34Z</time>
      </trkpt>
      <trkpt lat="41.660380040" lon="2.587025120">
        <ele>702.90</ele>
        <time>2014-04-06T10:15:35Z</time>
      </trkpt>
      <trkpt lat="41.660378370" lon="2.587008360">
        <ele>702.80</ele>
        <time>2014-04-06T10:15:36Z</time>
      </trkpt>
      <trkpt lat="41.660378370" lon="2.586993440">
        <ele>702.60</ele>
        <time>2014-04-06T10:15:37Z</time>
      </trkpt>
      <trkpt lat="41.660376690" lon="2.586976680">
        <ele>703.00</ele>
        <time>2014-04-06T10:15:38Z</time>
      </trkpt>
      <trkpt lat="41.660375010" lon="2.586960080">
        <ele>703.30</ele>
        <time>2014-04-06T10:15:39Z</time>
      </trkpt>
      <trkpt lat="41.660373340" lon="2.586943480">
        <ele>703.50</ele>
        <time>2014-04-06T10:15:40Z</time>
      </trkpt>
      <trkpt lat="41.660371830" lon="2.586928400">
        <ele>703.70</ele>
        <time>2014-04-06T10:15:41Z</time>
      </trkpt>
      <trkpt lat="41.660373340" lon="2.586911800">
        <ele>703.90</ele>
        <time>2014-04-06T10:15:42Z</time>
      </trkpt>
      <trkpt lat="41.660373340" lon="2.586900070">
        <ele>703.80</ele>
        <time>2014-04-06T10:15:43Z</time>
      </trkpt>
      <trkpt lat="41.660373340" lon="2.586885150">
        <ele>703.80</ele>
        <time>2014-04-06T10:15:44Z</time>
      </trkpt>
      <trkpt lat="41.660375010" lon="2.586870060">
        <ele>703.80</ele>
        <time>2014-04-06T10:15:45Z</time>
      </trkpt>
      <trkpt lat="41.660375010" lon="2.586856810">
        <ele>703.90</ele>
        <time>2014-04-06T10:15:46Z</time>
      </trkpt>
      <trkpt lat="41.660376690" lon="2.586841730">
        <ele>704.00</ele>
        <time>2014-04-06T10:15:47Z</time>
      </trkpt>
      <trkpt lat="41.660376690" lon="2.586826810">
        <ele>704.10</ele>
        <time>2014-04-06T10:15:48Z</time>
      </trkpt>
      <trkpt lat="41.660376690" lon="2.586813400">
        <ele>704.20</ele>
        <time>2014-04-06T10:15:49Z</time>
      </trkpt>
      <trkpt lat="41.660378370" lon="2.586798480">
        <ele>704.20</ele>
        <time>2014-04-06T10:15:50Z</time>
      </trkpt>
      <trkpt lat="41.660380040" lon="2.586785070">
        <ele>704.20</ele>
        <time>2014-04-06T10:15:51Z</time>
      </trkpt>
      <trkpt lat="41.660383390" lon="2.586770150">
        <ele>704.20</ele>
        <time>2014-04-06T10:15:52Z</time>
      </trkpt>
      <trkpt lat="41.660385070" lon="2.586755060">
        <ele>704.20</ele>
        <time>2014-04-06T10:15:53Z</time>
      </trkpt>
      <trkpt lat="41.660385070" lon="2.586741810">
        <ele>704.20</ele>
        <time>2014-04-06T10:15:54Z</time>
      </trkpt>
      <trkpt lat="41.660386750" lon="2.586725050">
        <ele>704.00</ele>
        <time>2014-04-06T10:15:55Z</time>
      </trkpt>
      <trkpt lat="41.660386750" lon="2.586710130">
        <ele>703.90</ele>
        <time>2014-04-06T10:15:56Z</time>
      </trkpt>
      <trkpt lat="41.660388420" lon="2.586698400">
        <ele>704.30</ele>
        <time>2014-04-06T10:15:57Z</time>
      </trkpt>
      <trkpt lat="41.660390100" lon="2.586681800">
        <ele>704.70</ele>
        <time>2014-04-06T10:15:58Z</time>
      </trkpt>
      <trkpt lat="41.660391780" lon="2.586666710">
        <ele>704.90</ele>
        <time>2014-04-06T10:15:59Z</time>
      </trkpt>
      <trkpt lat="41.660393450" lon="2.586648440">
        <ele>705.00</ele>
        <time>2014-04-06T10:16:00Z</time>
      </trkpt>
      <trkpt lat="41.660393450" lon="2.586628490">
        <ele>705.10</ele>
        <time>2014-04-06T10:16:01Z</time>
      </trkpt>
      <trkpt lat="41.660393450" lon="2.586608380">
        <ele>705.60</ele>
        <time>2014-04-06T10:16:02Z</time>
      </trkpt>
      <trkpt lat="41.660391780" lon="2.586590100">
        <ele>706.00</ele>
        <time>2014-04-06T10:16:03Z</time>
      </trkpt>
      <trkpt lat="41.660391780" lon="2.586575020">
        <ele>705.90</ele>
        <time>2014-04-06T10:16:04Z</time>
      </trkpt>
      <trkpt lat="41.660390100" lon="2.586560100">
        <ele>705.90</ele>
        <time>2014-04-06T10:16:05Z</time>
      </trkpt>
      <trkpt lat="41.660388420" lon="2.586543330">
        <ele>705.90</ele>
        <time>2014-04-06T10:16:06Z</time>
      </trkpt>
      <trkpt lat="41.660386750" lon="2.586521710">
        <ele>706.10</ele>
        <time>2014-04-06T10:16:07Z</time>
      </trkpt>
      <trkpt lat="41.660386750" lon="2.586501760">
        <ele>706.20</ele>
        <time>2014-04-06T10:16:08Z</time>
      </trkpt>
      <trkpt lat="41.660388420" lon="2.586483480">
        <ele>706.00</ele>
        <time>2014-04-06T10:16:09Z</time>
      </trkpt>
      <trkpt lat="41.660386750" lon="2.586465040">
        <ele>705.80</ele>
        <time>2014-04-06T10:16:10Z</time>
      </trkpt>
      <trkpt lat="41.660386750" lon="2.586446770">
        <ele>705.70</ele>
        <time>2014-04-06T10:16:11Z</time>
      </trkpt>
      <trkpt lat="41.660386750" lon="2.586428330">
        <ele>706.10</ele>
        <time>2014-04-06T10:16:12Z</time>
      </trkpt>
      <trkpt lat="41.660388420" lon="2.586408380">
        <ele>706.40</ele>
        <time>2014-04-06T10:16:13Z</time>
      </trkpt>
      <trkpt lat="41.660388420" lon="2.586391790">
        <ele>706.40</ele>
        <time>2014-04-06T10:16:14Z</time>
      </trkpt>
      <trkpt lat="41.660390100" lon="2.586370160">
        <ele>706.40</ele>
        <time>2014-04-06T10:16:15Z</time>
      </trkpt>
      <trkpt lat="41.660393450" lon="2.586348370">
        <ele>706.60</ele>
        <time>2014-04-06T10:16:16Z</time>
      </trkpt>
      <trkpt lat="41.660396810" lon="2.586331770">
        <ele>706.70</ele>
        <time>2014-04-06T10:16:17Z</time>
      </trkpt>
      <trkpt lat="41.660400160" lon="2.586315010">
        <ele>706.80</ele>
        <time>2014-04-06T10:16:18Z</time>
      </trkpt>
      <trkpt lat="41.660401670" lon="2.586298410">
        <ele>707.00</ele>
        <time>2014-04-06T10:16:19Z</time>
      </trkpt>
      <trkpt lat="41.660406700" lon="2.586278460">
        <ele>707.20</ele>
        <time>2014-04-06T10:16:20Z</time>
      </trkpt>
      <trkpt lat="41.660408370" lon="2.586258350">
        <ele>707.20</ele>
        <time>2014-04-06T10:16:21Z</time>
      </trkpt>
      <trkpt lat="41.660406700" lon="2.586240070">
        <ele>707.20</ele>
        <time>2014-04-06T10:16:22Z</time>
      </trkpt>
      <trkpt lat="41.660405020" lon="2.586221800">
        <ele>707.30</ele>
        <time>2014-04-06T10:16:23Z</time>
      </trkpt>
      <trkpt lat="41.660405020" lon="2.586201690">
        <ele>707.00</ele>
        <time>2014-04-06T10:16:24Z</time>
      </trkpt>
      <trkpt lat="41.660403340" lon="2.586183410">
        <ele>706.90</ele>
        <time>2014-04-06T10:16:25Z</time>
      </trkpt>
      <trkpt lat="41.660403340" lon="2.586168490">
        <ele>707.60</ele>
        <time>2014-04-06T10:16:26Z</time>
      </trkpt>
      <trkpt lat="41.660403340" lon="2.586150050">
        <ele>708.10</ele>
        <time>2014-04-06T10:16:27Z</time>
      </trkpt>
      <trkpt lat="41.660405020" lon="2.586135130">
        <ele>708.50</ele>
        <time>2014-04-06T10:16:28Z</time>
      </trkpt>
      <trkpt lat="41.660406700" lon="2.586118370">
        <ele>708.70</ele>
        <time>2014-04-06T10:16:29Z</time>
      </trkpt>
      <trkpt lat="41.660405020" lon="2.586098420">
        <ele>708.70</ele>
        <time>2014-04-06T10:16:30Z</time>
      </trkpt>
      <trkpt lat="41.660405020" lon="2.586081820">
        <ele>708.70</ele>
        <time>2014-04-06T10:16:31Z</time>
      </trkpt>
      <trkpt lat="41.660401670" lon="2.586065060">
        <ele>708.60</ele>
        <time>2014-04-06T10:16:32Z</time>
      </trkpt>
      <trkpt lat="41.660400160" lon="2.586048460">
        <ele>709.00</ele>
        <time>2014-04-06T10:16:33Z</time>
      </trkpt>
      <trkpt lat="41.660396810" lon="2.586030020">
        <ele>709.20</ele>
        <time>2014-04-06T10:16:34Z</time>
      </trkpt>
      <trkpt lat="41.660395130" lon="2.586013430">
        <ele>709.50</ele>
        <time>2014-04-06T10:16:35Z</time>
      </trkpt>
      <trkpt lat="41.660395130" lon="2.585996660">
        <ele>709.70</ele>
        <time>2014-04-06T10:16:36Z</time>
      </trkpt>
      <trkpt lat="41.660396810" lon="2.585980070">
        <ele>709.90</ele>
        <time>2014-04-06T10:16:37Z</time>
      </trkpt>
      <trkpt lat="41.660396810" lon="2.585965150">
        <ele>710.20</ele>
        <time>2014-04-06T10:16:38Z</time>
      </trkpt>
      <trkpt lat="41.660395130" lon="2.585950060">
        <ele>710.40</ele>
        <time>2014-04-06T10:16:39Z</time>
      </trkpt>
      <trkpt lat="41.660395130" lon="2.585935140">
        <ele>710.60</ele>
        <time>2014-04-06T10:16:40Z</time>
      </trkpt>
      <trkpt lat="41.660395130" lon="2.585921730">
        <ele>710.80</ele>
        <time>2014-04-06T10:16:41Z</time>
      </trkpt>
      <trkpt lat="41.660395130" lon="2.585906810">
        <ele>711.00</ele>
        <time>2014-04-06T10:16:42Z</time>
      </trkpt>
      <trkpt lat="41.660391780" lon="2.585890050">
        <ele>710.80</ele>
        <time>2014-04-06T10:16:43Z</time>
      </trkpt>
      <trkpt lat="41.660388420" lon="2.585875130">
        <ele>710.70</ele>
        <time>2014-04-06T10:16:44Z</time>
      </trkpt>
      <trkpt lat="41.660385070" lon="2.585860040">
        <ele>710.80</ele>
        <time>2014-04-06T10:16:45Z</time>
      </trkpt>
      <trkpt lat="41.660383390" lon="2.585843440">
        <ele>710.80</ele>
        <time>2014-04-06T10:16:46Z</time>
      </trkpt>
      <trkpt lat="41.660381720" lon="2.585826680">
        <ele>710.40</ele>
        <time>2014-04-06T10:16:47Z</time>
      </trkpt>
      <trkpt lat="41.660380040" lon="2.585813440">
        <ele>710.10</ele>
        <time>2014-04-06T10:16:48Z</time>
      </trkpt>
      <trkpt lat="41.660373340" lon="2.585798350">
        <ele>709.90</ele>
        <time>2014-04-06T10:16:49Z</time>
      </trkpt>
      <trkpt lat="41.660370150" lon="2.585783430">
        <ele>710.40</ele>
        <time>2014-04-06T10:16:50Z</time>
      </trkpt>
      <trkpt lat="41.660366800" lon="2.585765160">
        <ele>710.80</ele>
        <time>2014-04-06T10:16:51Z</time>
      </trkpt>
      <trkpt lat="41.660365120" lon="2.585748390">
        <ele>711.20</ele>
        <time>2014-04-06T10:16:52Z</time>
      </trkpt>
      <trkpt lat="41.660363450" lon="2.585730120">
        <ele>711.50</ele>
        <time>2014-04-06T10:16:53Z</time>
      </trkpt>
      <trkpt lat="41.660360090" lon="2.585713360">
        <ele>711.70</ele>
        <time>2014-04-06T10:16:54Z</time>
      </trkpt>
      <trkpt lat="41.660355060" lon="2.585698440">
        <ele>711.90</ele>
        <time>2014-04-06T10:16:55Z</time>
      </trkpt>
      <trkpt lat="41.660350030" lon="2.585685020">
        <ele>712.00</ele>
        <time>2014-04-06T10:16:56Z</time>
      </trkpt>
      <trkpt lat="41.660346680" lon="2.585668430">
        <ele>712.20</ele>
        <time>2014-04-06T10:16:57Z</time>
      </trkpt>
      <trkpt lat="41.660341820" lon="2.585653340">
        <ele>712.40</ele>
        <time>2014-04-06T10:16:58Z</time>
      </trkpt>
      <trkpt lat="41.660338470" lon="2.585636740">
        <ele>712.30</ele>
        <time>2014-04-06T10:16:59Z</time>
      </trkpt>
      <trkpt lat="41.660335110" lon="2.585620150">
        <ele>712.20</ele>
        <time>2014-04-06T10:17:00Z</time>
      </trkpt>
      <trkpt lat="41.660333440" lon="2.585601710">
        <ele>712.10</ele>
        <time>2014-04-06T10:17:01Z</time>
      </trkpt>
      <trkpt lat="41.660331760" lon="2.585581760">
        <ele>712.60</ele>
        <time>2014-04-06T10:17:02Z</time>
      </trkpt>
      <trkpt lat="41.660330090" lon="2.585561810">
        <ele>713.00</ele>
        <time>2014-04-06T10:17:03Z</time>
      </trkpt>
      <trkpt lat="41.660325060" lon="2.585545050">
        <ele>713.20</ele>
        <time>2014-04-06T10:17:04Z</time>
      </trkpt>
      <trkpt lat="41.660323380" lon="2.585523420">
        <ele>713.30</ele>
        <time>2014-04-06T10:17:05Z</time>
      </trkpt>
      <trkpt lat="41.660320030" lon="2.585506830">
        <ele>713.50</ele>
        <time>2014-04-06T10:17:06Z</time>
      </trkpt>
      <trkpt lat="41.660320030" lon="2.585491740">
        <ele>713.70</ele>
        <time>2014-04-06T10:17:07Z</time>
      </trkpt>
      <trkpt lat="41.660318350" lon="2.585473470">
        <ele>713.80</ele>
        <time>2014-04-06T10:17:08Z</time>
      </trkpt>
      <trkpt lat="41.660318350" lon="2.585453350">
        <ele>714.30</ele>
        <time>2014-04-06T10:17:09Z</time>
      </trkpt>
      <trkpt lat="41.660320030" lon="2.585431720">
        <ele>714.70</ele>
        <time>2014-04-06T10:17:10Z</time>
      </trkpt>
      <trkpt lat="41.660321700" lon="2.585413450">
        <ele>714.90</ele>
        <time>2014-04-06T10:17:11Z</time>
      </trkpt>
      <trkpt lat="41.660325060" lon="2.585395010">
        <ele>715.00</ele>
        <time>2014-04-06T10:17:12Z</time>
      </trkpt>
      <trkpt lat="41.660325060" lon="2.585378410">
        <ele>715.10</ele>
        <time>2014-04-06T10:17:13Z</time>
      </trkpt>
      <trkpt lat="41.660323380" lon="2.585360140">
        <ele>715.10</ele>
        <time>2014-04-06T10:17:14Z</time>
      </trkpt>
      <trkpt lat="41.660321700" lon="2.585343380">
        <ele>715.10</ele>
        <time>2014-04-06T10:17:15Z</time>
      </trkpt>
      <trkpt lat="41.660320030" lon="2.585325110">
        <ele>715.20</ele>
        <time>2014-04-06T10:17:16Z</time>
      </trkpt>
      <trkpt lat="41.660320030" lon="2.585308340">
        <ele>715.20</ele>
        <time>2014-04-06T10:17:17Z</time>
      </trkpt>
      <trkpt lat="41.660320030" lon="2.585291750">
        <ele>715.80</ele>
        <time>2014-04-06T10:17:18Z</time>
      </trkpt>
      <trkpt lat="41.660318350" lon="2.585271800">
        <ele>716.30</ele>
        <time>2014-04-06T10:17:19Z</time>
      </trkpt>
      <trkpt lat="41.660318350" lon="2.585251680">
        <ele>716.30</ele>
        <time>2014-04-06T10:17:20Z</time>
      </trkpt>
      <trkpt lat="41.660318350" lon="2.585231730">
        <ele>716.40</ele>
        <time>2014-04-06T10:17:21Z</time>
      </trkpt>
      <trkpt lat="41.660316670" lon="2.585213460">
        <ele>716.40</ele>
        <time>2014-04-06T10:17:22Z</time>
      </trkpt>
      <trkpt lat="41.660316670" lon="2.585195020">
        <ele>716.70</ele>
        <time>2014-04-06T10:17:23Z</time>
      </trkpt>
      <trkpt lat="41.660313490" lon="2.585175070">
        <ele>716.90</ele>
        <time>2014-04-06T10:17:24Z</time>
      </trkpt>
      <trkpt lat="41.660310140" lon="2.585156800">
        <ele>716.70</ele>
        <time>2014-04-06T10:17:25Z</time>
      </trkpt>
      <trkpt lat="41.660306780" lon="2.585136680">
        <ele>716.70</ele>
        <time>2014-04-06T10:17:26Z</time>
      </trkpt>
      <trkpt lat="41.660303430" lon="2.585118410">
        <ele>716.60</ele>
        <time>2014-04-06T10:17:27Z</time>
      </trkpt>
      <trkpt lat="41.660296730" lon="2.585101810">
        <ele>717.00</ele>
        <time>2014-04-06T10:17:28Z</time>
      </trkpt>
      <trkpt lat="41.660291700" lon="2.585083370">
        <ele>717.20</ele>
        <time>2014-04-06T10:17:29Z</time>
      </trkpt>
      <trkpt lat="41.660285160" lon="2.585063420">
        <ele>717.80</ele>
        <time>2014-04-06T10:17:30Z</time>
      </trkpt>
      <trkpt lat="41.660280130" lon="2.585045150">
        <ele>718.20</ele>
        <time>2014-04-06T10:17:31Z</time>
      </trkpt>
      <trkpt lat="41.660276780" lon="2.585026710">
        <ele>718.40</ele>
        <time>2014-04-06T10:17:32Z</time>
      </trkpt>
      <trkpt lat="41.660270070" lon="2.585010110">
        <ele>718.60</ele>
        <time>2014-04-06T10:17:33Z</time>
      </trkpt>
      <trkpt lat="41.660261690" lon="2.584995030">
        <ele>718.70</ele>
        <time>2014-04-06T10:17:34Z</time>
      </trkpt>
      <trkpt lat="41.660253480" lon="2.584980110">
        <ele>718.90</ele>
        <time>2014-04-06T10:17:35Z</time>
      </trkpt>
      <trkpt lat="41.660246770" lon="2.584963340">
        <ele>719.00</ele>
        <time>2014-04-06T10:17:36Z</time>
      </trkpt>
      <trkpt lat="41.660238390" lon="2.584948420">
        <ele>718.70</ele>
        <time>2014-04-06T10:17:37Z</time>
      </trkpt>
      <trkpt lat="41.660231680" lon="2.584931830">
        <ele>718.50</ele>
        <time>2014-04-06T10:17:38Z</time>
      </trkpt>
      <trkpt lat="41.660226820" lon="2.584913390">
        <ele>718.70</ele>
        <time>2014-04-06T10:17:39Z</time>
      </trkpt>
      <trkpt lat="41.660221790" lon="2.584896790">
        <ele>718.90</ele>
        <time>2014-04-06T10:17:40Z</time>
      </trkpt>
      <trkpt lat="41.660216760" lon="2.584878350">
        <ele>719.00</ele>
        <time>2014-04-06T10:17:41Z</time>
      </trkpt>
      <trkpt lat="41.660211730" lon="2.584866780">
        <ele>719.00</ele>
        <time>2014-04-06T10:17:42Z</time>
      </trkpt>
      <trkpt lat="41.660206700" lon="2.584850020">
        <ele>718.90</ele>
        <time>2014-04-06T10:17:43Z</time>
      </trkpt>
      <trkpt lat="41.660201670" lon="2.584831750">
        <ele>719.30</ele>
        <time>2014-04-06T10:17:44Z</time>
      </trkpt>
      <trkpt lat="41.660195140" lon="2.584813470">
        <ele>719.60</ele>
        <time>2014-04-06T10:17:45Z</time>
      </trkpt>
      <trkpt lat="41.660190110" lon="2.584798390">
        <ele>719.80</ele>
        <time>2014-04-06T10:17:46Z</time>
      </trkpt>
      <trkpt lat="41.660183400" lon="2.584781790">
        <ele>720.00</ele>
        <time>2014-04-06T10:17:47Z</time>
      </trkpt>
      <trkpt lat="41.660178370" lon="2.584765030">
        <ele>720.10</ele>
        <time>2014-04-06T10:17:48Z</time>
      </trkpt>
      <trkpt lat="41.660175020" lon="2.584745080">
        <ele>720.50</ele>
        <time>2014-04-06T10:17:49Z</time>
      </trkpt>
      <trkpt lat="41.660173340" lon="2.584728480">
        <ele>720.90</ele>
        <time>2014-04-06T10:17:50Z</time>
      </trkpt>
      <trkpt lat="41.660171670" lon="2.584711720">
        <ele>720.60</ele>
        <time>2014-04-06T10:17:51Z</time>
      </trkpt>
      <trkpt lat="41.660168480" lon="2.584696800">
        <ele>720.30</ele>
        <time>2014-04-06T10:17:52Z</time>
      </trkpt>
      <trkpt lat="41.660168480" lon="2.584681710">
        <ele>720.20</ele>
        <time>2014-04-06T10:17:53Z</time>
      </trkpt>
      <trkpt lat="41.660168480" lon="2.584663440">
        <ele>720.10</ele>
        <time>2014-04-06T10:17:54Z</time>
      </trkpt>
      <trkpt lat="41.660166810" lon="2.584646670">
        <ele>720.10</ele>
        <time>2014-04-06T10:17:55Z</time>
      </trkpt>
      <trkpt lat="41.660166810" lon="2.584630080">
        <ele>720.50</ele>
        <time>2014-04-06T10:17:56Z</time>
      </trkpt>
      <trkpt lat="41.660166810" lon="2.584611810">
        <ele>720.80</ele>
        <time>2014-04-06T10:17:57Z</time>
      </trkpt>
      <trkpt lat="41.660163450" lon="2.584596720">
        <ele>720.80</ele>
        <time>2014-04-06T10:17:58Z</time>
      </trkpt>
      <trkpt lat="41.660163450" lon="2.584581800">
        <ele>720.80</ele>
        <time>2014-04-06T10:17:59Z</time>
      </trkpt>
      <trkpt lat="41.660163450" lon="2.584566710">
        <ele>720.80</ele>
        <time>2014-04-06T10:18:00Z</time>
      </trkpt>
      <trkpt lat="41.660163450" lon="2.584556820">
        <ele>721.30</ele>
        <time>2014-04-06T10:18:01Z</time>
      </trkpt>
      <trkpt lat="41.660163450" lon="2.584546760">
        <ele>721.60</ele>
        <time>2014-04-06T10:18:02Z</time>
      </trkpt>
      <trkpt lat="41.660163450" lon="2.584535030">
        <ele>721.50</ele>
        <time>2014-04-06T10:18:03Z</time>
      </trkpt>
      <trkpt lat="41.660161780" lon="2.584520110">
        <ele>721.50</ele>
        <time>2014-04-06T10:18:04Z</time>
      </trkpt>
      <trkpt lat="41.660160100" lon="2.584505020">
        <ele>721.40</ele>
        <time>2014-04-06T10:18:05Z</time>
      </trkpt>
      <trkpt lat="41.660160100" lon="2.584491780">
        <ele>721.80</ele>
        <time>2014-04-06T10:18:06Z</time>
      </trkpt>
      <trkpt lat="41.660158420" lon="2.584476690">
        <ele>722.10</ele>
        <time>2014-04-06T10:18:07Z</time>
      </trkpt>
      <trkpt lat="41.660153400" lon="2.584458420">
        <ele>721.90</ele>
        <time>2014-04-06T10:18:08Z</time>
      </trkpt>
      <trkpt lat="41.660145010" lon="2.584438470">
        <ele>721.70</ele>
        <time>2014-04-06T10:18:09Z</time>
      </trkpt>
      <trkpt lat="41.660141830" lon="2.584418350">
        <ele>721.60</ele>
        <time>2014-04-06T10:18:10Z</time>
      </trkpt>
      <trkpt lat="41.660140150" lon="2.584398400">
        <ele>721.50</ele>
        <time>2014-04-06T10:18:11Z</time>
      </trkpt>
      <trkpt lat="41.660140150" lon="2.584376780">
        <ele>721.40</ele>
        <time>2014-04-06T10:18:12Z</time>
      </trkpt>
      <trkpt lat="41.660140150" lon="2.584355150">
        <ele>721.20</ele>
        <time>2014-04-06T10:18:13Z</time>
      </trkpt>
      <trkpt lat="41.660138480" lon="2.584336710">
        <ele>721.10</ele>
        <time>2014-04-06T10:18:14Z</time>
      </trkpt>
      <trkpt lat="41.660138480" lon="2.584316760">
        <ele>721.00</ele>
        <time>2014-04-06T10:18:15Z</time>
      </trkpt>
      <trkpt lat="41.660138480" lon="2.584295140">
        <ele>720.90</ele>
        <time>2014-04-06T10:18:16Z</time>
      </trkpt>
      <trkpt lat="41.660136800" lon="2.584276700">
        <ele>720.90</ele>
        <time>2014-04-06T10:18:17Z</time>
      </trkpt>
      <trkpt lat="41.660133450" lon="2.584261780">
        <ele>720.90</ele>
        <time>2014-04-06T10:18:18Z</time>
      </trkpt>
      <trkpt lat="41.660128420" lon="2.584245010">
        <ele>720.90</ele>
        <time>2014-04-06T10:18:19Z</time>
      </trkpt>
      <trkpt lat="41.660123390" lon="2.584226740">
        <ele>721.20</ele>
        <time>2014-04-06T10:18:20Z</time>
      </trkpt>
      <trkpt lat="41.660121710" lon="2.584206790">
        <ele>721.50</ele>
        <time>2014-04-06T10:18:21Z</time>
      </trkpt>
      <trkpt lat="41.660116680" lon="2.584188350">
        <ele>721.70</ele>
        <time>2014-04-06T10:18:22Z</time>
      </trkpt>
      <trkpt lat="41.660110140" lon="2.584173430">
        <ele>721.80</ele>
        <time>2014-04-06T10:18:23Z</time>
      </trkpt>
      <trkpt lat="41.660101760" lon="2.584160020">
        <ele>722.20</ele>
        <time>2014-04-06T10:18:24Z</time>
      </trkpt>
      <trkpt lat="41.660090030" lon="2.584151810">
        <ele>722.40</ele>
        <time>2014-04-06T10:18:25Z</time>
      </trkpt>
      <trkpt lat="41.660076780" lon="2.584150130">
        <ele>722.60</ele>
        <time>2014-04-06T10:18:26Z</time>
      </trkpt>
      <trkpt lat="41.660068400" lon="2.584155160">
        <ele>722.50</ele>
        <time>2014-04-06T10:18:27Z</time>
      </trkpt>
      <trkpt lat="41.660061700" lon="2.584163370">
        <ele>722.40</ele>
        <time>2014-04-06T10:18:28Z</time>
      </trkpt>
      <trkpt lat="41.660055160" lon="2.584173430">
        <ele>722.50</ele>
        <time>2014-04-06T10:18:29Z</time>
      </trkpt>
      <trkpt lat="41.660051810" lon="2.584186680">
        <ele>722.50</ele>
        <time>2014-04-06T10:18:30Z</time>
      </trkpt>
      <trkpt lat="41.660048450" lon="2.584201760">
        <ele>722.60</ele>
        <time>2014-04-06T10:18:31Z</time>
      </trkpt>
      <trkpt lat="41.660045100" lon="2.584216680">
        <ele>722.40</ele>
        <time>2014-04-06T10:18:32Z</time>
      </trkpt>
      <trkpt lat="41.660040070" lon="2.584231770">
        <ele>722.20</ele>
        <time>2014-04-06T10:18:33Z</time>
      </trkpt>
      <trkpt lat="41.660038400" lon="2.584243340">
        <ele>722.30</ele>
        <time>2014-04-06T10:18:34Z</time>
      </trkpt>
      <trkpt lat="41.660033370" lon="2.584255070">
        <ele>722.30</ele>
        <time>2014-04-06T10:18:35Z</time>
      </trkpt>
      <trkpt lat="41.660028340" lon="2.584268480">
        <ele>722.40</ele>
        <time>2014-04-06T10:18:36Z</time>
      </trkpt>
      <trkpt lat="41.660023480" lon="2.584281730">
        <ele>722.50</ele>
        <time>2014-04-06T10:18:37Z</time>
      </trkpt>
      <trkpt lat="41.660020120" lon="2.584295140">
        <ele>722.50</ele>
        <time>2014-04-06T10:18:38Z</time>
      </trkpt>
      <trkpt lat="41.660013420" lon="2.584306700">
        <ele>722.90</ele>
        <time>2014-04-06T10:18:39Z</time>
      </trkpt>
      <trkpt lat="41.660008390" lon="2.584320120">
        <ele>723.20</ele>
        <time>2014-04-06T10:18:40Z</time>
      </trkpt>
      <trkpt lat="41.660001680" lon="2.584333360">
        <ele>723.30</ele>
        <time>2014-04-06T10:18:41Z</time>
      </trkpt>
      <trkpt lat="41.659996820" lon="2.584348450">
        <ele>723.40</ele>
        <time>2014-04-06T10:18:42Z</time>
      </trkpt>
      <trkpt lat="41.659993470" lon="2.584361690">
        <ele>723.50</ele>
        <time>2014-04-06T10:18:43Z</time>
      </trkpt>
      <trkpt lat="41.659988440" lon="2.584375100">
        <ele>723.60</ele>
        <time>2014-04-06T10:18:44Z</time>
      </trkpt>
      <trkpt lat="41.659983410" lon="2.584390020">
        <ele>723.70</ele>
        <time>2014-04-06T10:18:45Z</time>
      </trkpt>
      <trkpt lat="41.659981730" lon="2.584403430">
        <ele>724.20</ele>
        <time>2014-04-06T10:18:46Z</time>
      </trkpt>
      <trkpt lat="41.659978380" lon="2.584415000">
        <ele>724.50</ele>
        <time>2014-04-06T10:18:47Z</time>
      </trkpt>
      <trkpt lat="41.659975030" lon="2.584426730">
        <ele>724.30</ele>
        <time>2014-04-06T10:18:48Z</time>
      </trkpt>
      <trkpt lat="41.659971680" lon="2.584440140">
        <ele>724.20</ele>
        <time>2014-04-06T10:18:49Z</time>
      </trkpt>
      <trkpt lat="41.659966810" lon="2.584453390">
        <ele>724.10</ele>
        <time>2014-04-06T10:18:50Z</time>
      </trkpt>
      <trkpt lat="41.659963460" lon="2.584468480">
        <ele>724.50</ele>
        <time>2014-04-06T10:18:51Z</time>
      </trkpt>
      <trkpt lat="41.659958430" lon="2.584481720">
        <ele>724.90</ele>
        <time>2014-04-06T10:18:52Z</time>
      </trkpt>
      <trkpt lat="41.659956760" lon="2.584495130">
        <ele>725.30</ele>
        <time>2014-04-06T10:18:53Z</time>
      </trkpt>
      <trkpt lat="41.659951730" lon="2.584506700">
        <ele>725.70</ele>
        <time>2014-04-06T10:18:54Z</time>
      </trkpt>
      <trkpt lat="41.659948370" lon="2.584516750">
        <ele>726.10</ele>
        <time>2014-04-06T10:18:55Z</time>
      </trkpt>
      <trkpt lat="41.659945020" lon="2.584530000">
        <ele>726.50</ele>
        <time>2014-04-06T10:18:56Z</time>
      </trkpt>
      <trkpt lat="41.659943340" lon="2.584543410">
        <ele>726.70</ele>
        <time>2014-04-06T10:18:57Z</time>
      </trkpt>
      <trkpt lat="41.659940160" lon="2.584560010">
        <ele>726.90</ele>
        <time>2014-04-06T10:18:58Z</time>
      </trkpt>
      <trkpt lat="41.659936810" lon="2.584575090">
        <ele>727.00</ele>
        <time>2014-04-06T10:18:59Z</time>
      </trkpt>
      <trkpt lat="41.659930100" lon="2.584593370">
        <ele>727.30</ele>
        <time>2014-04-06T10:19:00Z</time>
      </trkpt>
      <trkpt lat="41.659926750" lon="2.584608450">
        <ele>727.50</ele>
        <time>2014-04-06T10:19:01Z</time>
      </trkpt>
      <trkpt lat="41.659923400" lon="2.584625050">
        <ele>728.20</ele>
        <time>2014-04-06T10:19:02Z</time>
      </trkpt>
      <trkpt lat="41.659918370" lon="2.584638460">
        <ele>728.80</ele>
        <time>2014-04-06T10:19:03Z</time>
      </trkpt>
      <trkpt lat="41.659915010" lon="2.584655060">
        <ele>729.30</ele>
        <time>2014-04-06T10:19:04Z</time>
      </trkpt>
      <trkpt lat="41.659913340" lon="2.584661760">
        <ele>728.40</ele>
        <time>2014-04-06T10:19:05Z</time>
      </trkpt>
      <trkpt lat="41.659906800" lon="2.584673330">
        <ele>727.80</ele>
        <time>2014-04-06T10:19:06Z</time>
      </trkpt>
      <trkpt lat="41.659905120" lon="2.584686740">
        <ele>728.10</ele>
        <time>2014-04-06T10:19:07Z</time>
      </trkpt>
      <trkpt lat="41.659900090" lon="2.584700150">
        <ele>728.30</ele>
        <time>2014-04-06T10:19:08Z</time>
      </trkpt>
      <trkpt lat="41.659896740" lon="2.584715070">
        <ele>728.40</ele>
        <time>2014-04-06T10:19:09Z</time>
      </trkpt>
      <trkpt lat="41.659893390" lon="2.584730160">
        <ele>728.40</ele>
        <time>2014-04-06T10:19:10Z</time>
      </trkpt>
      <trkpt lat="41.659893390" lon="2.584745080">
        <ele>728.40</ele>
        <time>2014-04-06T10:19:11Z</time>
      </trkpt>
      <trkpt lat="41.659891710" lon="2.584760000">
        <ele>728.60</ele>
        <time>2014-04-06T10:19:12Z</time>
      </trkpt>
      <trkpt lat="41.659888360" lon="2.584775090">
        <ele>728.80</ele>
        <time>2014-04-06T10:19:13Z</time>
      </trkpt>
      <trkpt lat="41.659885010" lon="2.584790010">
        <ele>729.10</ele>
        <time>2014-04-06T10:19:14Z</time>
      </trkpt>
      <trkpt lat="41.659883330" lon="2.584805090">
        <ele>729.30</ele>
        <time>2014-04-06T10:19:15Z</time>
      </trkpt>
      <trkpt lat="41.659881820" lon="2.584818340">
        <ele>729.50</ele>
        <time>2014-04-06T10:19:16Z</time>
      </trkpt>
      <trkpt lat="41.659880150" lon="2.584831750">
        <ele>729.50</ele>
        <time>2014-04-06T10:19:17Z</time>
      </trkpt>
      <trkpt lat="41.659878470" lon="2.584845160">
        <ele>729.60</ele>
        <time>2014-04-06T10:19:18Z</time>
      </trkpt>
      <trkpt lat="41.659876790" lon="2.584856720">
        <ele>729.80</ele>
        <time>2014-04-06T10:19:19Z</time>
      </trkpt>
      <trkpt lat="41.659873440" lon="2.584871810">
        <ele>729.90</ele>
        <time>2014-04-06T10:19:20Z</time>
      </trkpt>
      <trkpt lat="41.659871760" lon="2.584886730">
        <ele>730.00</ele>
        <time>2014-04-06T10:19:21Z</time>
      </trkpt>
      <trkpt lat="41.659870090" lon="2.584901820">
        <ele>730.20</ele>
        <time>2014-04-06T10:19:22Z</time>
      </trkpt>
      <trkpt lat="41.659866730" lon="2.584916740">
        <ele>730.40</ele>
        <time>2014-04-06T10:19:23Z</time>
      </trkpt>
      <trkpt lat="41.659865060" lon="2.584931830">
        <ele>731.00</ele>
        <time>2014-04-06T10:19:24Z</time>
      </trkpt>
      <trkpt lat="41.659861700" lon="2.584946750">
        <ele>731.50</ele>
        <time>2014-04-06T10:19:25Z</time>
      </trkpt>
      <trkpt lat="41.659858350" lon="2.584961670">
        <ele>731.90</ele>
        <time>2014-04-06T10:19:26Z</time>
      </trkpt>
      <trkpt lat="41.659855000" lon="2.584976750">
        <ele>732.30</ele>
        <time>2014-04-06T10:19:27Z</time>
      </trkpt>
      <trkpt lat="41.659851810" lon="2.584990000">
        <ele>732.50</ele>
        <time>2014-04-06T10:19:28Z</time>
      </trkpt>
      <trkpt lat="41.659846790" lon="2.585003410">
        <ele>732.60</ele>
        <time>2014-04-06T10:19:29Z</time>
      </trkpt>
      <trkpt lat="41.659841760" lon="2.585018500">
        <ele>732.60</ele>
        <time>2014-04-06T10:19:30Z</time>
      </trkpt>
      <trkpt lat="41.659838400" lon="2.585035090">
        <ele>732.40</ele>
        <time>2014-04-06T10:19:31Z</time>
      </trkpt>
      <trkpt lat="41.659833370" lon="2.585053360">
        <ele>732.30</ele>
        <time>2014-04-06T10:19:32Z</time>
      </trkpt>
      <trkpt lat="41.659830020" lon="2.585070130">
        <ele>732.50</ele>
        <time>2014-04-06T10:19:33Z</time>
      </trkpt>
      <trkpt lat="41.659825160" lon="2.585086720">
        <ele>732.60</ele>
        <time>2014-04-06T10:19:34Z</time>
      </trkpt>
      <trkpt lat="41.659821810" lon="2.585103490">
        <ele>732.70</ele>
        <time>2014-04-06T10:19:35Z</time>
      </trkpt>
      <trkpt lat="41.659818450" lon="2.585120080">
        <ele>732.90</ele>
        <time>2014-04-06T10:19:36Z</time>
      </trkpt>
      <trkpt lat="41.659813430" lon="2.585136680">
        <ele>733.00</ele>
        <time>2014-04-06T10:19:37Z</time>
      </trkpt>
      <trkpt lat="41.659810070" lon="2.585153440">
        <ele>733.10</ele>
        <time>2014-04-06T10:19:38Z</time>
      </trkpt>
      <trkpt lat="41.659806720" lon="2.585171720">
        <ele>733.20</ele>
        <time>2014-04-06T10:19:39Z</time>
      </trkpt>
      <trkpt lat="41.659803370" lon="2.585191670">
        <ele>733.10</ele>
        <time>2014-04-06T10:19:40Z</time>
      </trkpt>
      <trkpt lat="41.659800010" lon="2.585208430">
        <ele>733.00</ele>
        <time>2014-04-06T10:19:41Z</time>
      </trkpt>
      <trkpt lat="41.659798340" lon="2.585225030">
        <ele>732.90</ele>
        <time>2014-04-06T10:19:42Z</time>
      </trkpt>
      <trkpt lat="41.659793480" lon="2.585243470">
        <ele>733.70</ele>
        <time>2014-04-06T10:19:43Z</time>
      </trkpt>
      <trkpt lat="41.659791800" lon="2.585261740">
        <ele>734.20</ele>
        <time>2014-04-06T10:19:44Z</time>
      </trkpt>
      <trkpt lat="41.659790120" lon="2.585278330">
        <ele>734.50</ele>
        <time>2014-04-06T10:19:45Z</time>
      </trkpt>
      <trkpt lat="41.659785090" lon="2.585296770">
        <ele>734.60</ele>
        <time>2014-04-06T10:19:46Z</time>
      </trkpt>
      <trkpt lat="41.659780070" lon="2.585316720">
        <ele>734.70</ele>
        <time>2014-04-06T10:19:47Z</time>
      </trkpt>
      <trkpt lat="41.659773360" lon="2.585335000">
        <ele>735.50</ele>
        <time>2014-04-06T10:19:48Z</time>
      </trkpt>
      <trkpt lat="41.659766820" lon="2.585350080">
        <ele>736.00</ele>
        <time>2014-04-06T10:19:49Z</time>
      </trkpt>
      <trkpt lat="41.659761790" lon="2.585366680">
        <ele>736.50</ele>
        <time>2014-04-06T10:19:50Z</time>
      </trkpt>
      <trkpt lat="41.659758440" lon="2.585383440">
        <ele>736.90</ele>
        <time>2014-04-06T10:19:51Z</time>
      </trkpt>
      <trkpt lat="41.659753410" lon="2.585400040">
        <ele>737.30</ele>
        <time>2014-04-06T10:19:52Z</time>
      </trkpt>
      <trkpt lat="41.659748380" lon="2.585416800">
        <ele>737.60</ele>
        <time>2014-04-06T10:19:53Z</time>
      </trkpt>
      <trkpt lat="41.659745030" lon="2.585431720">
        <ele>737.80</ele>
        <time>2014-04-06T10:19:54Z</time>
      </trkpt>
      <trkpt lat="41.659738490" lon="2.585446810">
        <ele>738.20</ele>
        <time>2014-04-06T10:19:55Z</time>
      </trkpt>
      <trkpt lat="41.659731790" lon="2.585460050">
        <ele>738.50</ele>
        <time>2014-04-06T10:19:56Z</time>
      </trkpt>
      <trkpt lat="41.659725080" lon="2.585473470">
        <ele>738.80</ele>
        <time>2014-04-06T10:19:57Z</time>
      </trkpt>
      <trkpt lat="41.659720050" lon="2.585486710">
        <ele>739.10</ele>
        <time>2014-04-06T10:19:58Z</time>
      </trkpt>
      <trkpt lat="41.659713350" lon="2.585496770">
        <ele>739.60</ele>
        <time>2014-04-06T10:19:59Z</time>
      </trkpt>
      <trkpt lat="41.659706810" lon="2.585511690">
        <ele>740.00</ele>
        <time>2014-04-06T10:20:00Z</time>
      </trkpt>
      <trkpt lat="41.659698430" lon="2.585525100">
        <ele>740.30</ele>
        <time>2014-04-06T10:20:01Z</time>
      </trkpt>
      <trkpt lat="41.659690040" lon="2.585540020">
        <ele>740.60</ele>
        <time>2014-04-06T10:20:02Z</time>
      </trkpt>
      <trkpt lat="41.659683340" lon="2.585551750">
        <ele>740.80</ele>
        <time>2014-04-06T10:20:03Z</time>
      </trkpt>
      <trkpt lat="41.659678480" lon="2.585563490">
        <ele>740.70</ele>
        <time>2014-04-06T10:20:04Z</time>
      </trkpt>
      <trkpt lat="41.659670090" lon="2.585575050">
        <ele>740.70</ele>
        <time>2014-04-06T10:20:05Z</time>
      </trkpt>
      <trkpt lat="41.659661710" lon="2.585586790">
        <ele>740.70</ele>
        <time>2014-04-06T10:20:06Z</time>
      </trkpt>
      <trkpt lat="41.659651820" lon="2.585596680">
        <ele>741.00</ele>
        <time>2014-04-06T10:20:07Z</time>
      </trkpt>
      <trkpt lat="41.659640090" lon="2.585611770">
        <ele>741.30</ele>
        <time>2014-04-06T10:20:08Z</time>
      </trkpt>
      <trkpt lat="41.659630030" lon="2.585623330">
        <ele>741.90</ele>
        <time>2014-04-06T10:20:09Z</time>
      </trkpt>
      <trkpt lat="41.659623490" lon="2.585635070">
        <ele>742.30</ele>
        <time>2014-04-06T10:20:10Z</time>
      </trkpt>
      <trkpt lat="41.659615110" lon="2.585651660">
        <ele>742.30</ele>
        <time>2014-04-06T10:20:11Z</time>
      </trkpt>
      <trkpt lat="41.659605050" lon="2.585668430">
        <ele>742.30</ele>
        <time>2014-04-06T10:20:12Z</time>
      </trkpt>
      <trkpt lat="41.659595160" lon="2.585683350">
        <ele>742.30</ele>
        <time>2014-04-06T10:20:13Z</time>
      </trkpt>
      <trkpt lat="41.659583430" lon="2.585700110">
        <ele>742.20</ele>
        <time>2014-04-06T10:20:14Z</time>
      </trkpt>
      <trkpt lat="41.659571690" lon="2.585716710">
        <ele>742.10</ele>
        <time>2014-04-06T10:20:15Z</time>
      </trkpt>
      <trkpt lat="41.659561800" lon="2.585731800">
        <ele>742.00</ele>
        <time>2014-04-06T10:20:16Z</time>
      </trkpt>
      <trkpt lat="41.659551740" lon="2.585746720">
        <ele>741.90</ele>
        <time>2014-04-06T10:20:17Z</time>
      </trkpt>
      <trkpt lat="41.659543360" lon="2.585760130">
        <ele>741.90</ele>
        <time>2014-04-06T10:20:18Z</time>
      </trkpt>
      <trkpt lat="41.659531790" lon="2.585775050">
        <ele>742.00</ele>
        <time>2014-04-06T10:20:19Z</time>
      </trkpt>
      <trkpt lat="41.659521730" lon="2.585790130">
        <ele>742.00</ele>
        <time>2014-04-06T10:20:20Z</time>
      </trkpt>
      <trkpt lat="41.659510000" lon="2.585805050">
        <ele>742.10</ele>
        <time>2014-04-06T10:20:21Z</time>
      </trkpt>
      <trkpt lat="41.659500110" lon="2.585820140">
        <ele>742.10</ele>
        <time>2014-04-06T10:20:22Z</time>
      </trkpt>
      <trkpt lat="41.659488370" lon="2.585835060">
        <ele>742.00</ele>
        <time>2014-04-06T10:20:23Z</time>
      </trkpt>
      <trkpt lat="41.659478480" lon="2.585851820">
        <ele>741.80</ele>
        <time>2014-04-06T10:20:24Z</time>
      </trkpt>
      <trkpt lat="41.659470100" lon="2.585868420">
        <ele>741.70</ele>
        <time>2014-04-06T10:20:25Z</time>
      </trkpt>
      <trkpt lat="41.659460040" lon="2.585881660">
        <ele>742.00</ele>
        <time>2014-04-06T10:20:26Z</time>
      </trkpt>
      <trkpt lat="41.659451660" lon="2.585896750">
        <ele>742.20</ele>
        <time>2014-04-06T10:20:27Z</time>
      </trkpt>
      <trkpt lat="41.659441770" lon="2.585910160">
        <ele>742.30</ele>
        <time>2014-04-06T10:20:28Z</time>
      </trkpt>
      <trkpt lat="41.659433390" lon="2.585926760">
        <ele>742.50</ele>
        <time>2014-04-06T10:20:29Z</time>
      </trkpt>
      <trkpt lat="41.659428360" lon="2.585940000">
        <ele>742.60</ele>
        <time>2014-04-06T10:20:30Z</time>
      </trkpt>
      <trkpt lat="41.659420150" lon="2.585951740">
        <ele>742.70</ele>
        <time>2014-04-06T10:20:31Z</time>
      </trkpt>
      <trkpt lat="41.659411760" lon="2.585966820">
        <ele>742.80</ele>
        <time>2014-04-06T10:20:32Z</time>
      </trkpt>
      <trkpt lat="41.659401710" lon="2.585980070">
        <ele>742.70</ele>
        <time>2014-04-06T10:20:33Z</time>
      </trkpt>
      <trkpt lat="41.659390140" lon="2.585991800">
        <ele>742.60</ele>
        <time>2014-04-06T10:20:34Z</time>
      </trkpt>
      <trkpt lat="41.659381760" lon="2.586001690">
        <ele>742.30</ele>
        <time>2014-04-06T10:20:35Z</time>
      </trkpt>
      <trkpt lat="41.659370020" lon="2.586011750">
        <ele>742.20</ele>
        <time>2014-04-06T10:20:36Z</time>
      </trkpt>
      <trkpt lat="41.659360130" lon="2.586023490">
        <ele>742.90</ele>
        <time>2014-04-06T10:20:37Z</time>
      </trkpt>
      <trkpt lat="41.659351750" lon="2.586036730">
        <ele>743.40</ele>
        <time>2014-04-06T10:20:38Z</time>
      </trkpt>
      <trkpt lat="41.659341690" lon="2.586051820">
        <ele>743.80</ele>
        <time>2014-04-06T10:20:39Z</time>
      </trkpt>
      <trkpt lat="41.659336660" lon="2.586066740">
        <ele>744.10</ele>
        <time>2014-04-06T10:20:40Z</time>
      </trkpt>
      <trkpt lat="41.659330120" lon="2.586081820">
        <ele>744.20</ele>
        <time>2014-04-06T10:20:41Z</time>
      </trkpt>
      <trkpt lat="41.659323420" lon="2.586095070">
        <ele>744.30</ele>
        <time>2014-04-06T10:20:42Z</time>
      </trkpt>
      <trkpt lat="41.659315040" lon="2.586105130">
        <ele>744.40</ele>
        <time>2014-04-06T10:20:43Z</time>
      </trkpt>
      <trkpt lat="41.659308330" lon="2.586116690">
        <ele>744.50</ele>
        <time>2014-04-06T10:20:44Z</time>
      </trkpt>
      <trkpt lat="41.659300120" lon="2.586123400">
        <ele>744.50</ele>
        <time>2014-04-06T10:20:45Z</time>
      </trkpt>
      <trkpt lat="41.659290060" lon="2.586125070">
        <ele>744.50</ele>
        <time>2014-04-06T10:20:46Z</time>
      </trkpt>
      <trkpt lat="41.659281680" lon="2.586128430">
        <ele>744.40</ele>
        <time>2014-04-06T10:20:47Z</time>
      </trkpt>
      <trkpt lat="41.659278490" lon="2.586138490">
        <ele>744.40</ele>
        <time>2014-04-06T10:20:48Z</time>
      </trkpt>
      <trkpt lat="41.659278490" lon="2.586145020">
        <ele>744.30</ele>
        <time>2014-04-06T10:20:49Z</time>
      </trkpt>
      <trkpt lat="41.659280000" lon="2.586148380">
        <ele>744.20</ele>
        <time>2014-04-06T10:20:50Z</time>
      </trkpt>
      <trkpt lat="41.659283350" lon="2.586146700">
        <ele>744.10</ele>
        <time>2014-04-06T10:20:51Z</time>
      </trkpt>
      <trkpt lat="41.659288380" lon="2.586141670">
        <ele>744.30</ele>
        <time>2014-04-06T10:20:52Z</time>
      </trkpt>
      <trkpt lat="41.659291740" lon="2.586131780">
        <ele>744.40</ele>
        <time>2014-04-06T10:20:53Z</time>
      </trkpt>
      <trkpt lat="41.659295090" lon="2.586120050">
        <ele>744.10</ele>
        <time>2014-04-06T10:20:54Z</time>
      </trkpt>
      <trkpt lat="41.659300120" lon="2.586108480">
        <ele>743.90</ele>
        <time>2014-04-06T10:20:55Z</time>
      </trkpt>
      <trkpt lat="41.659305150" lon="2.586093390">
        <ele>743.80</ele>
        <time>2014-04-06T10:20:56Z</time>
      </trkpt>
      <trkpt lat="41.659313360" lon="2.586080150">
        <ele>743.70</ele>
        <time>2014-04-06T10:20:57Z</time>
      </trkpt>
      <trkpt lat="41.659323420" lon="2.586065060">
        <ele>743.60</ele>
        <time>2014-04-06T10:20:58Z</time>
      </trkpt>
      <trkpt lat="41.659333480" lon="2.586046790">
        <ele>743.70</ele>
        <time>2014-04-06T10:20:59Z</time>
      </trkpt>
      <trkpt lat="41.659343370" lon="2.586031700">
        <ele>743.80</ele>
        <time>2014-04-06T10:21:00Z</time>
      </trkpt>
      <trkpt lat="41.659355100" lon="2.586015100">
        <ele>743.80</ele>
        <time>2014-04-06T10:21:01Z</time>
      </trkpt>
      <trkpt lat="41.659371700" lon="2.585995160">
        <ele>743.80</ele>
        <time>2014-04-06T10:21:02Z</time>
      </trkpt>
      <trkpt lat="41.659390140" lon="2.585975040">
        <ele>743.70</ele>
        <time>2014-04-06T10:21:03Z</time>
      </trkpt>
      <trkpt lat="41.659403380" lon="2.585955090">
        <ele>743.70</ele>
        <time>2014-04-06T10:21:04Z</time>
      </trkpt>
      <trkpt lat="41.659416790" lon="2.585931790">
        <ele>743.70</ele>
        <time>2014-04-06T10:21:05Z</time>
      </trkpt>
      <trkpt lat="41.659430040" lon="2.585906810">
        <ele>743.60</ele>
        <time>2014-04-06T10:21:06Z</time>
      </trkpt>
      <trkpt lat="41.659445120" lon="2.585881660">
        <ele>743.60</ele>
        <time>2014-04-06T10:21:07Z</time>
      </trkpt>
      <trkpt lat="41.659460040" lon="2.585855010">
        <ele>743.80</ele>
        <time>2014-04-06T10:21:08Z</time>
      </trkpt>
      <trkpt lat="41.659476810" lon="2.585833380">
        <ele>743.90</ele>
        <time>2014-04-06T10:21:09Z</time>
      </trkpt>
      <trkpt lat="41.659491730" lon="2.585810080">
        <ele>744.00</ele>
        <time>2014-04-06T10:21:10Z</time>
      </trkpt>
      <trkpt lat="41.659506820" lon="2.585785100">
        <ele>743.60</ele>
        <time>2014-04-06T10:21:11Z</time>
      </trkpt>
      <trkpt lat="41.659521730" lon="2.585760130">
        <ele>743.30</ele>
        <time>2014-04-06T10:21:12Z</time>
      </trkpt>
      <trkpt lat="41.659533470" lon="2.585738330">
        <ele>743.10</ele>
        <time>2014-04-06T10:21:13Z</time>
      </trkpt>
      <trkpt lat="41.659545040" lon="2.585718380">
        <ele>742.90</ele>
        <time>2014-04-06T10:21:14Z</time>
      </trkpt>
      <trkpt lat="41.659555090" lon="2.585700110">
        <ele>742.60</ele>
        <time>2014-04-06T10:21:15Z</time>
      </trkpt>
      <trkpt lat="41.659566660" lon="2.585681670">
        <ele>742.40</ele>
        <time>2014-04-06T10:21:16Z</time>
      </trkpt>
      <trkpt lat="41.659576720" lon="2.585663400">
        <ele>742.20</ele>
        <time>2014-04-06T10:21:17Z</time>
      </trkpt>
      <trkpt lat="41.659588450" lon="2.585643450">
        <ele>742.60</ele>
        <time>2014-04-06T10:21:18Z</time>
      </trkpt>
      <trkpt lat="41.659600020" lon="2.585620150">
        <ele>742.90</ele>
        <time>2014-04-06T10:21:19Z</time>
      </trkpt>
      <trkpt lat="41.659610080" lon="2.585600030">
        <ele>742.70</ele>
        <time>2014-04-06T10:21:20Z</time>
      </trkpt>
      <trkpt lat="41.659621810" lon="2.585580080">
        <ele>742.60</ele>
        <time>2014-04-06T10:21:21Z</time>
      </trkpt>
      <trkpt lat="41.659633380" lon="2.585558460">
        <ele>742.50</ele>
        <time>2014-04-06T10:21:22Z</time>
      </trkpt>
      <trkpt lat="41.659645120" lon="2.585535160">
        <ele>742.60</ele>
        <time>2014-04-06T10:21:23Z</time>
      </trkpt>
      <trkpt lat="41.659660040" lon="2.585506830">
        <ele>742.60</ele>
        <time>2014-04-06T10:21:24Z</time>
      </trkpt>
      <trkpt lat="41.659675120" lon="2.585471790">
        <ele>742.40</ele>
        <time>2014-04-06T10:21:25Z</time>
      </trkpt>
      <trkpt lat="41.659690040" lon="2.585431720">
        <ele>742.30</ele>
        <time>2014-04-06T10:21:26Z</time>
      </trkpt>
      <trkpt lat="41.659705130" lon="2.585386800">
        <ele>741.90</ele>
        <time>2014-04-06T10:21:27Z</time>
      </trkpt>
      <trkpt lat="41.659718370" lon="2.585340030">
        <ele>741.60</ele>
        <time>2014-04-06T10:21:28Z</time>
      </trkpt>
      <trkpt lat="41.659731790" lon="2.585288390">
        <ele>741.30</ele>
        <time>2014-04-06T10:21:29Z</time>
      </trkpt>
      <trkpt lat="41.659746710" lon="2.585228380">
        <ele>741.40</ele>
        <time>2014-04-06T10:21:30Z</time>
      </trkpt>
      <trkpt lat="41.659763470" lon="2.585170040">
        <ele>741.50</ele>
        <time>2014-04-06T10:21:31Z</time>
      </trkpt>
      <trkpt lat="41.659778390" lon="2.585106670">
        <ele>740.70</ele>
        <time>2014-04-06T10:21:32Z</time>
      </trkpt>
      <trkpt lat="41.659791800" lon="2.585048340">
        <ele>740.20</ele>
        <time>2014-04-06T10:21:33Z</time>
      </trkpt>
      <trkpt lat="41.659801690" lon="2.585001730">
        <ele>739.10</ele>
        <time>2014-04-06T10:21:34Z</time>
      </trkpt>
      <trkpt lat="41.659810070" lon="2.584953450">
        <ele>738.40</ele>
        <time>2014-04-06T10:21:35Z</time>
      </trkpt>
      <trkpt lat="41.659818450" lon="2.584908360">
        <ele>737.80</ele>
        <time>2014-04-06T10:21:36Z</time>
      </trkpt>
      <trkpt lat="41.659828340" lon="2.584858400">
        <ele>737.20</ele>
        <time>2014-04-06T10:21:37Z</time>
      </trkpt>
      <trkpt lat="41.659840080" lon="2.584808450">
        <ele>736.80</ele>
        <time>2014-04-06T10:21:38Z</time>
      </trkpt>
      <trkpt lat="41.659853490" lon="2.584755140">
        <ele>736.10</ele>
        <time>2014-04-06T10:21:39Z</time>
      </trkpt>
      <trkpt lat="41.659865060" lon="2.584698470">
        <ele>735.60</ele>
        <time>2014-04-06T10:21:40Z</time>
      </trkpt>
      <trkpt lat="41.659880150" lon="2.584638460">
        <ele>735.20</ele>
        <time>2014-04-06T10:21:41Z</time>
      </trkpt>
      <trkpt lat="41.659891710" lon="2.584585150">
        <ele>734.50</ele>
        <time>2014-04-06T10:21:42Z</time>
      </trkpt>
      <trkpt lat="41.659901770" lon="2.584538380">
        <ele>733.90</ele>
        <time>2014-04-06T10:21:43Z</time>
      </trkpt>
      <trkpt lat="41.659913340" lon="2.584491780">
        <ele>733.00</ele>
        <time>2014-04-06T10:21:44Z</time>
      </trkpt>
      <trkpt lat="41.659925070" lon="2.584448360">
        <ele>732.40</ele>
        <time>2014-04-06T10:21:45Z</time>
      </trkpt>
      <trkpt lat="41.659941670" lon="2.584405110">
        <ele>732.10</ele>
        <time>2014-04-06T10:21:46Z</time>
      </trkpt>
      <trkpt lat="41.659955080" lon="2.584360010">
        <ele>731.90</ele>
        <time>2014-04-06T10:21:47Z</time>
      </trkpt>
      <trkpt lat="41.659965140" lon="2.584316760">
        <ele>731.70</ele>
        <time>2014-04-06T10:21:48Z</time>
      </trkpt>
      <trkpt lat="41.659976700" lon="2.584280050">
        <ele>730.70</ele>
        <time>2014-04-06T10:21:49Z</time>
      </trkpt>
      <trkpt lat="41.659985090" lon="2.584243340">
        <ele>729.90</ele>
        <time>2014-04-06T10:21:50Z</time>
      </trkpt>
      <trkpt lat="41.659995140" lon="2.584210140">
        <ele>729.10</ele>
        <time>2014-04-06T10:21:51Z</time>
      </trkpt>
      <trkpt lat="41.660003360" lon="2.584178460">
        <ele>728.40</ele>
        <time>2014-04-06T10:21:52Z</time>
      </trkpt>
      <trkpt lat="41.660011740" lon="2.584151810">
        <ele>727.60</ele>
        <time>2014-04-06T10:21:53Z</time>
      </trkpt>
      <trkpt lat="41.660021800" lon="2.584130010">
        <ele>727.00</ele>
        <time>2014-04-06T10:21:54Z</time>
      </trkpt>
      <trkpt lat="41.660031690" lon="2.584115090">
        <ele>726.60</ele>
        <time>2014-04-06T10:21:55Z</time>
      </trkpt>
      <trkpt lat="41.660038400" lon="2.584106710">
        <ele>726.20</ele>
        <time>2014-04-06T10:21:56Z</time>
      </trkpt>
      <trkpt lat="41.660043420" lon="2.584098330">
        <ele>726.00</ele>
        <time>2014-04-06T10:21:57Z</time>
      </trkpt>
      <trkpt lat="41.660043420" lon="2.584090120">
        <ele>725.60</ele>
        <time>2014-04-06T10:21:58Z</time>
      </trkpt>
      <trkpt lat="41.660046780" lon="2.584080060">
        <ele>725.40</ele>
        <time>2014-04-06T10:21:59Z</time>
      </trkpt>
      <trkpt lat="41.660051810" lon="2.584063460">
        <ele>725.20</ele>
        <time>2014-04-06T10:22:00Z</time>
      </trkpt>
      <trkpt lat="41.660055160" lon="2.584045020">
        <ele>724.70</ele>
        <time>2014-04-06T10:22:01Z</time>
      </trkpt>
      <trkpt lat="41.660056670" lon="2.584023400">
        <ele>724.30</ele>
        <time>2014-04-06T10:22:02Z</time>
      </trkpt>
      <trkpt lat="41.660058340" lon="2.584005120">
        <ele>724.10</ele>
        <time>2014-04-06T10:22:03Z</time>
      </trkpt>
      <trkpt lat="41.660056670" lon="2.583985010">
        <ele>723.80</ele>
        <time>2014-04-06T10:22:04Z</time>
      </trkpt>
      <trkpt lat="41.660060020" lon="2.583963380">
        <ele>723.60</ele>
        <time>2014-04-06T10:22:05Z</time>
      </trkpt>
      <trkpt lat="41.660063370" lon="2.583936730">
        <ele>723.40</ele>
        <time>2014-04-06T10:22:06Z</time>
      </trkpt>
      <trkpt lat="41.660066730" lon="2.583906720">
        <ele>723.20</ele>
        <time>2014-04-06T10:22:07Z</time>
      </trkpt>
      <trkpt lat="41.660070080" lon="2.583878390">
        <ele>723.00</ele>
        <time>2014-04-06T10:22:08Z</time>
      </trkpt>
      <trkpt lat="41.660075110" lon="2.583851730">
        <ele>722.90</ele>
        <time>2014-04-06T10:22:09Z</time>
      </trkpt>
      <trkpt lat="41.660076780" lon="2.583828430">
        <ele>722.80</ele>
        <time>2014-04-06T10:22:10Z</time>
      </trkpt>
      <trkpt lat="41.660078460" lon="2.583808480">
        <ele>722.70</ele>
        <time>2014-04-06T10:22:11Z</time>
      </trkpt>
      <trkpt lat="41.660083490" lon="2.583785010">
        <ele>722.60</ele>
        <time>2014-04-06T10:22:12Z</time>
      </trkpt>
      <trkpt lat="41.660081810" lon="2.583770100">
        <ele>722.50</ele>
        <time>2014-04-06T10:22:13Z</time>
      </trkpt>
      <trkpt lat="41.660088350" lon="2.583746790">
        <ele>722.50</ele>
        <time>2014-04-06T10:22:14Z</time>
      </trkpt>
      <trkpt lat="41.660090030" lon="2.583728350">
        <ele>722.20</ele>
        <time>2014-04-06T10:22:15Z</time>
      </trkpt>
      <trkpt lat="41.660093380" lon="2.583710080">
        <ele>721.90</ele>
        <time>2014-04-06T10:22:16Z</time>
      </trkpt>
      <trkpt lat="41.660098410" lon="2.583696670">
        <ele>721.80</ele>
        <time>2014-04-06T10:22:17Z</time>
      </trkpt>
      <trkpt lat="41.660100090" lon="2.583683430">
        <ele>721.70</ele>
        <time>2014-04-06T10:22:18Z</time>
      </trkpt>
      <trkpt lat="41.660100090" lon="2.583670020">
        <ele>721.90</ele>
        <time>2014-04-06T10:22:19Z</time>
      </trkpt>
      <trkpt lat="41.660095060" lon="2.583663480">
        <ele>722.10</ele>
        <time>2014-04-06T10:22:20Z</time>
      </trkpt>
      <trkpt lat="41.660093380" lon="2.583661800">
        <ele>722.20</ele>
        <time>2014-04-06T10:22:21Z</time>
      </trkpt>
      <trkpt lat="41.660091700" lon="2.583665150">
        <ele>722.40</ele>
        <time>2014-04-06T10:22:22Z</time>
      </trkpt>
      <trkpt lat="41.660091700" lon="2.583673370">
        <ele>722.50</ele>
        <time>2014-04-06T10:22:23Z</time>
      </trkpt>
      <trkpt lat="41.660093380" lon="2.583688460">
        <ele>722.40</ele>
        <time>2014-04-06T10:22:24Z</time>
      </trkpt>
      <trkpt lat="41.660093380" lon="2.583703380">
        <ele>722.40</ele>
        <time>2014-04-06T10:22:25Z</time>
      </trkpt>
      <trkpt lat="41.660093380" lon="2.583721820">
        <ele>722.40</ele>
        <time>2014-04-06T10:22:26Z</time>
      </trkpt>
      <trkpt lat="41.660086680" lon="2.583731710">
        <ele>722.10</ele>
        <time>2014-04-06T10:22:27Z</time>
      </trkpt>
      <trkpt lat="41.660085000" lon="2.583743440">
        <ele>721.90</ele>
        <time>2014-04-06T10:22:28Z</time>
      </trkpt>
      <trkpt lat="41.660081810" lon="2.583751820">
        <ele>721.80</ele>
        <time>2014-04-06T10:22:29Z</time>
      </trkpt>
      <trkpt lat="41.660078460" lon="2.583758360">
        <ele>721.80</ele>
        <time>2014-04-06T10:22:30Z</time>
      </trkpt>
      <trkpt lat="41.660076780" lon="2.583768420">
        <ele>721.70</ele>
        <time>2014-04-06T10:22:31Z</time>
      </trkpt>
      <trkpt lat="41.660080140" lon="2.583778480">
        <ele>721.50</ele>
        <time>2014-04-06T10:22:32Z</time>
      </trkpt>
      <trkpt lat="41.660083490" lon="2.583788370">
        <ele>721.50</ele>
        <time>2014-04-06T10:22:33Z</time>
      </trkpt>
      <trkpt lat="41.660090030" lon="2.583796750">
        <ele>721.40</ele>
        <time>2014-04-06T10:22:34Z</time>
      </trkpt>
      <trkpt lat="41.660100090" lon="2.583800100">
        <ele>721.30</ele>
        <time>2014-04-06T10:22:35Z</time>
      </trkpt>
      <trkpt lat="41.660111820" lon="2.583793400">
        <ele>721.60</ele>
        <time>2014-04-06T10:22:36Z</time>
      </trkpt>
      <trkpt lat="41.660121710" lon="2.583781660">
        <ele>721.80</ele>
        <time>2014-04-06T10:22:37Z</time>
      </trkpt>
      <trkpt lat="41.660130090" lon="2.583771770">
        <ele>722.00</ele>
        <time>2014-04-06T10:22:38Z</time>
      </trkpt>
      <trkpt lat="41.660136800" lon="2.583760040">
        <ele>721.60</ele>
        <time>2014-04-06T10:22:39Z</time>
      </trkpt>
      <trkpt lat="41.660146690" lon="2.583748470">
        <ele>721.30</ele>
        <time>2014-04-06T10:22:40Z</time>
      </trkpt>
      <trkpt lat="41.660153400" lon="2.583733380">
        <ele>721.40</ele>
        <time>2014-04-06T10:22:41Z</time>
      </trkpt>
      <trkpt lat="41.660160100" lon="2.583720140">
        <ele>721.50</ele>
        <time>2014-04-06T10:22:42Z</time>
      </trkpt>
      <trkpt lat="41.660166810" lon="2.583708400">
        <ele>721.60</ele>
        <time>2014-04-06T10:22:43Z</time>
      </trkpt>
      <trkpt lat="41.660171670" lon="2.583696670">
        <ele>721.70</ele>
        <time>2014-04-06T10:22:44Z</time>
      </trkpt>
      <trkpt lat="41.660176700" lon="2.583685100">
        <ele>721.80</ele>
        <time>2014-04-06T10:22:45Z</time>
      </trkpt>
      <trkpt lat="41.660183400" lon="2.583670020">
        <ele>721.70</ele>
        <time>2014-04-06T10:22:46Z</time>
      </trkpt>
      <trkpt lat="41.660190110" lon="2.583663480">
        <ele>721.60</ele>
        <time>2014-04-06T10:22:47Z</time>
      </trkpt>
      <trkpt lat="41.660191780" lon="2.583648390">
        <ele>721.80</ele>
        <time>2014-04-06T10:22:48Z</time>
      </trkpt>
      <trkpt lat="41.660195140" lon="2.583631790">
        <ele>721.90</ele>
        <time>2014-04-06T10:22:49Z</time>
      </trkpt>
      <trkpt lat="41.660196810" lon="2.583615030">
        <ele>721.80</ele>
        <time>2014-04-06T10:22:50Z</time>
      </trkpt>
      <trkpt lat="41.660200000" lon="2.583598430">
        <ele>721.70</ele>
        <time>2014-04-06T10:22:51Z</time>
      </trkpt>
      <trkpt lat="41.660203350" lon="2.583581670">
        <ele>721.60</ele>
        <time>2014-04-06T10:22:52Z</time>
      </trkpt>
      <trkpt lat="41.660208380" lon="2.583566750">
        <ele>722.00</ele>
        <time>2014-04-06T10:22:53Z</time>
      </trkpt>
      <trkpt lat="41.660210060" lon="2.583551660">
        <ele>722.40</ele>
        <time>2014-04-06T10:22:54Z</time>
      </trkpt>
      <trkpt lat="41.660213410" lon="2.583536740">
        <ele>722.70</ele>
        <time>2014-04-06T10:22:55Z</time>
      </trkpt>
      <trkpt lat="41.660218440" lon="2.583525010">
        <ele>723.00</ele>
        <time>2014-04-06T10:22:56Z</time>
      </trkpt>
      <trkpt lat="41.660221790" lon="2.583510090">
        <ele>723.20</ele>
        <time>2014-04-06T10:22:57Z</time>
      </trkpt>
      <trkpt lat="41.660226820" lon="2.583495000">
        <ele>723.10</ele>
        <time>2014-04-06T10:22:58Z</time>
      </trkpt>
      <trkpt lat="41.660228330" lon="2.583476730">
        <ele>723.00</ele>
        <time>2014-04-06T10:22:59Z</time>
      </trkpt>
      <trkpt lat="41.660231680" lon="2.583461810">
        <ele>723.00</ele>
        <time>2014-04-06T10:23:00Z</time>
      </trkpt>
      <trkpt lat="41.660235030" lon="2.583446720">
        <ele>722.90</ele>
        <time>2014-04-06T10:23:01Z</time>
      </trkpt>
      <trkpt lat="41.660238390" lon="2.583431800">
        <ele>723.30</ele>
        <time>2014-04-06T10:23:02Z</time>
      </trkpt>
      <trkpt lat="41.660241740" lon="2.583418390">
        <ele>723.60</ele>
        <time>2014-04-06T10:23:03Z</time>
      </trkpt>
      <trkpt lat="41.660246770" lon="2.583403470">
        <ele>723.80</ele>
        <time>2014-04-06T10:23:04Z</time>
      </trkpt>
      <trkpt lat="41.660251800" lon="2.583388380">
        <ele>723.90</ele>
        <time>2014-04-06T10:23:05Z</time>
      </trkpt>
      <trkpt lat="41.660255150" lon="2.583373460">
        <ele>724.00</ele>
        <time>2014-04-06T10:23:06Z</time>
      </trkpt>
      <trkpt lat="41.660258340" lon="2.583360050">
        <ele>724.40</ele>
        <time>2014-04-06T10:23:07Z</time>
      </trkpt>
      <trkpt lat="41.660265040" lon="2.583346810">
        <ele>724.60</ele>
        <time>2014-04-06T10:23:08Z</time>
      </trkpt>
      <trkpt lat="41.660270070" lon="2.583335070">
        <ele>724.60</ele>
        <time>2014-04-06T10:23:09Z</time>
      </trkpt>
      <trkpt lat="41.660273420" lon="2.583320150">
        <ele>724.50</ele>
        <time>2014-04-06T10:23:10Z</time>
      </trkpt>
      <trkpt lat="41.660275100" lon="2.583310100">
        <ele>724.50</ele>
        <time>2014-04-06T10:23:11Z</time>
      </trkpt>
      <trkpt lat="41.660278450" lon="2.583296690">
        <ele>725.00</ele>
        <time>2014-04-06T10:23:12Z</time>
      </trkpt>
      <trkpt lat="41.660281810" lon="2.583281770">
        <ele>725.30</ele>
        <time>2014-04-06T10:23:13Z</time>
      </trkpt>
      <trkpt lat="41.660285160" lon="2.583265000">
        <ele>725.50</ele>
        <time>2014-04-06T10:23:14Z</time>
      </trkpt>
      <trkpt lat="41.660291700" lon="2.583256790">
        <ele>725.70</ele>
        <time>2014-04-06T10:23:15Z</time>
      </trkpt>
      <trkpt lat="41.660295050" lon="2.583245050">
        <ele>725.70</ele>
        <time>2014-04-06T10:23:16Z</time>
      </trkpt>
      <trkpt lat="41.660298400" lon="2.583236670">
        <ele>725.70</ele>
        <time>2014-04-06T10:23:17Z</time>
      </trkpt>
      <trkpt lat="41.660301750" lon="2.583223430">
        <ele>725.70</ele>
        <time>2014-04-06T10:23:18Z</time>
      </trkpt>
      <trkpt lat="41.660305110" lon="2.583210020">
        <ele>726.00</ele>
        <time>2014-04-06T10:23:19Z</time>
      </trkpt>
      <trkpt lat="41.660306780" lon="2.583196770">
        <ele>726.20</ele>
        <time>2014-04-06T10:23:20Z</time>
      </trkpt>
      <trkpt lat="41.660310140" lon="2.583183360">
        <ele>726.40</ele>
        <time>2014-04-06T10:23:21Z</time>
      </trkpt>
      <trkpt lat="41.660315000" lon="2.583171790">
        <ele>726.60</ele>
        <time>2014-04-06T10:23:22Z</time>
      </trkpt>
      <trkpt lat="41.660318350" lon="2.583156710">
        <ele>726.70</ele>
        <time>2014-04-06T10:23:23Z</time>
      </trkpt>
      <trkpt lat="41.660321700" lon="2.583143460">
        <ele>727.10</ele>
        <time>2014-04-06T10:23:24Z</time>
      </trkpt>
      <trkpt lat="41.660328410" lon="2.583131730">
        <ele>727.40</ele>
        <time>2014-04-06T10:23:25Z</time>
      </trkpt>
      <trkpt lat="41.660335110" lon="2.583116810">
        <ele>727.80</ele>
        <time>2014-04-06T10:23:26Z</time>
      </trkpt>
      <trkpt lat="41.660340140" lon="2.583103400">
        <ele>728.20</ele>
        <time>2014-04-06T10:23:27Z</time>
      </trkpt>
      <trkpt lat="41.660345010" lon="2.583090160">
        <ele>728.40</ele>
        <time>2014-04-06T10:23:28Z</time>
      </trkpt>
      <trkpt lat="41.660350030" lon="2.583076740">
        <ele>728.60</ele>
        <time>2014-04-06T10:23:29Z</time>
      </trkpt>
      <trkpt lat="41.660356740" lon="2.583061820">
        <ele>728.80</ele>
        <time>2014-04-06T10:23:30Z</time>
      </trkpt>
      <trkpt lat="41.660361770" lon="2.583050090">
        <ele>728.80</ele>
        <time>2014-04-06T10:23:31Z</time>
      </trkpt>
      <trkpt lat="41.660368470" lon="2.583036680">
        <ele>728.70</ele>
        <time>2014-04-06T10:23:32Z</time>
      </trkpt>
      <trkpt lat="41.660373340" lon="2.583025110">
        <ele>728.80</ele>
        <time>2014-04-06T10:23:33Z</time>
      </trkpt>
      <trkpt lat="41.660380040" lon="2.583016730">
        <ele>728.80</ele>
        <time>2014-04-06T10:23:34Z</time>
      </trkpt>
      <trkpt lat="41.660388420" lon="2.583005160">
        <ele>729.50</ele>
        <time>2014-04-06T10:23:35Z</time>
      </trkpt>
      <trkpt lat="41.660395130" lon="2.582995100">
        <ele>730.00</ele>
        <time>2014-04-06T10:23:36Z</time>
      </trkpt>
      <trkpt lat="41.660401670" lon="2.582983370">
        <ele>730.40</ele>
        <time>2014-04-06T10:23:37Z</time>
      </trkpt>
      <trkpt lat="41.660406700" lon="2.582971800">
        <ele>730.30</ele>
        <time>2014-04-06T10:23:38Z</time>
      </trkpt>
      <trkpt lat="41.660415080" lon="2.582958390">
        <ele>730.30</ele>
        <time>2014-04-06T10:23:39Z</time>
      </trkpt>
      <trkpt lat="41.660421780" lon="2.582945150">
        <ele>730.30</ele>
        <time>2014-04-06T10:23:40Z</time>
      </trkpt>
      <trkpt lat="41.660428490" lon="2.582935090">
        <ele>730.30</ele>
        <time>2014-04-06T10:23:41Z</time>
      </trkpt>
      <trkpt lat="41.660435030" lon="2.582921680">
        <ele>730.30</ele>
        <time>2014-04-06T10:23:42Z</time>
      </trkpt>
      <trkpt lat="41.660441730" lon="2.582908440">
        <ele>730.70</ele>
        <time>2014-04-06T10:23:43Z</time>
      </trkpt>
      <trkpt lat="41.660448440" lon="2.582895020">
        <ele>731.00</ele>
        <time>2014-04-06T10:23:44Z</time>
      </trkpt>
      <trkpt lat="41.660453470" lon="2.582880100">
        <ele>731.50</ele>
        <time>2014-04-06T10:23:45Z</time>
      </trkpt>
      <trkpt lat="41.660458330" lon="2.582866690">
        <ele>731.80</ele>
        <time>2014-04-06T10:23:46Z</time>
      </trkpt>
      <trkpt lat="41.660463360" lon="2.582853450">
        <ele>732.30</ele>
        <time>2014-04-06T10:23:47Z</time>
      </trkpt>
      <trkpt lat="41.660466710" lon="2.582838360">
        <ele>732.60</ele>
        <time>2014-04-06T10:23:48Z</time>
      </trkpt>
      <trkpt lat="41.660473420" lon="2.582823440">
        <ele>732.80</ele>
        <time>2014-04-06T10:23:49Z</time>
      </trkpt>
      <trkpt lat="41.660480120" lon="2.582811710">
        <ele>733.00</ele>
        <time>2014-04-06T10:23:50Z</time>
      </trkpt>
      <trkpt lat="41.660486830" lon="2.582798460">
        <ele>733.10</ele>
        <time>2014-04-06T10:23:51Z</time>
      </trkpt>
      <trkpt lat="41.660493370" lon="2.582786730">
        <ele>733.00</ele>
        <time>2014-04-06T10:23:52Z</time>
      </trkpt>
      <trkpt lat="41.660500070" lon="2.582775000">
        <ele>733.00</ele>
        <time>2014-04-06T10:23:53Z</time>
      </trkpt>
      <trkpt lat="41.660505100" lon="2.582761750">
        <ele>732.90</ele>
        <time>2014-04-06T10:23:54Z</time>
      </trkpt>
      <trkpt lat="41.660511810" lon="2.582746660">
        <ele>733.40</ele>
        <time>2014-04-06T10:23:55Z</time>
      </trkpt>
      <trkpt lat="41.660518340" lon="2.582733420">
        <ele>733.80</ele>
        <time>2014-04-06T10:23:56Z</time>
      </trkpt>
      <trkpt lat="41.660526730" lon="2.582716830">
        <ele>733.90</ele>
        <time>2014-04-06T10:23:57Z</time>
      </trkpt>
      <trkpt lat="41.660531750" lon="2.582701740">
        <ele>734.10</ele>
        <time>2014-04-06T10:23:58Z</time>
      </trkpt>
      <trkpt lat="41.660540140" lon="2.582686820">
        <ele>733.90</ele>
        <time>2014-04-06T10:23:59Z</time>
      </trkpt>
      <trkpt lat="41.660546670" lon="2.582671730">
        <ele>733.80</ele>
        <time>2014-04-06T10:24:00Z</time>
      </trkpt>
      <trkpt lat="41.660553380" lon="2.582655130">
        <ele>733.70</ele>
        <time>2014-04-06T10:24:01Z</time>
      </trkpt>
      <trkpt lat="41.660560090" lon="2.582638370">
        <ele>733.90</ele>
        <time>2014-04-06T10:24:02Z</time>
      </trkpt>
      <trkpt lat="41.660563440" lon="2.582625130">
        <ele>734.10</ele>
        <time>2014-04-06T10:24:03Z</time>
      </trkpt>
      <trkpt lat="41.660566790" lon="2.582613390">
        <ele>734.20</ele>
        <time>2014-04-06T10:24:04Z</time>
      </trkpt>
      <trkpt lat="41.660570140" lon="2.582600150">
        <ele>734.30</ele>
        <time>2014-04-06T10:24:05Z</time>
      </trkpt>
      <trkpt lat="41.660573330" lon="2.582586740">
        <ele>734.90</ele>
        <time>2014-04-06T10:24:06Z</time>
      </trkpt>
      <trkpt lat="41.660580030" lon="2.582571820">
        <ele>735.20</ele>
        <time>2014-04-06T10:24:07Z</time>
      </trkpt>
      <trkpt lat="41.660588420" lon="2.582560080">
        <ele>735.50</ele>
        <time>2014-04-06T10:24:08Z</time>
      </trkpt>
      <trkpt lat="41.660595120" lon="2.582546670">
        <ele>735.60</ele>
        <time>2014-04-06T10:24:09Z</time>
      </trkpt>
      <trkpt lat="41.660603340" lon="2.582530080">
        <ele>735.60</ele>
        <time>2014-04-06T10:24:10Z</time>
      </trkpt>
      <trkpt lat="41.660606690" lon="2.582513480">
        <ele>735.90</ele>
        <time>2014-04-06T10:24:11Z</time>
      </trkpt>
      <trkpt lat="41.660610040" lon="2.582496720">
        <ele>736.20</ele>
        <time>2014-04-06T10:24:12Z</time>
      </trkpt>
      <trkpt lat="41.660611720" lon="2.582480120">
        <ele>736.00</ele>
        <time>2014-04-06T10:24:13Z</time>
      </trkpt>
      <trkpt lat="41.660616750" lon="2.582463360">
        <ele>735.90</ele>
        <time>2014-04-06T10:24:14Z</time>
      </trkpt>
      <trkpt lat="41.660621780" lon="2.582450110">
        <ele>735.80</ele>
        <time>2014-04-06T10:24:15Z</time>
      </trkpt>
      <trkpt lat="41.660626810" lon="2.582438380">
        <ele>736.00</ele>
        <time>2014-04-06T10:24:16Z</time>
      </trkpt>
      <trkpt lat="41.660630160" lon="2.582421780">
        <ele>736.20</ele>
        <time>2014-04-06T10:24:17Z</time>
      </trkpt>
      <trkpt lat="41.660633340" lon="2.582406690">
        <ele>736.60</ele>
        <time>2014-04-06T10:24:18Z</time>
      </trkpt>
      <trkpt lat="41.660638370" lon="2.582390100">
        <ele>737.00</ele>
        <time>2014-04-06T10:24:19Z</time>
      </trkpt>
      <trkpt lat="41.660641720" lon="2.582371830">
        <ele>737.20</ele>
        <time>2014-04-06T10:24:20Z</time>
      </trkpt>
      <trkpt lat="41.660643400" lon="2.582350030">
        <ele>737.10</ele>
        <time>2014-04-06T10:24:21Z</time>
      </trkpt>
      <trkpt lat="41.660648430" lon="2.582330080">
        <ele>737.00</ele>
        <time>2014-04-06T10:24:22Z</time>
      </trkpt>
      <trkpt lat="41.660651780" lon="2.582310140">
        <ele>737.10</ele>
        <time>2014-04-06T10:24:23Z</time>
      </trkpt>
      <trkpt lat="41.660656810" lon="2.582295050">
        <ele>737.20</ele>
        <time>2014-04-06T10:24:24Z</time>
      </trkpt>
      <trkpt lat="41.660660000" lon="2.582281800">
        <ele>737.00</ele>
        <time>2014-04-06T10:24:25Z</time>
      </trkpt>
      <trkpt lat="41.660663350" lon="2.582265040">
        <ele>736.80</ele>
        <time>2014-04-06T10:24:26Z</time>
      </trkpt>
      <trkpt lat="41.660668380" lon="2.582245090">
        <ele>736.70</ele>
        <time>2014-04-06T10:24:27Z</time>
      </trkpt>
      <trkpt lat="41.660671730" lon="2.582230000">
        <ele>737.00</ele>
        <time>2014-04-06T10:24:28Z</time>
      </trkpt>
      <trkpt lat="41.660675080" lon="2.582206700">
        <ele>737.20</ele>
        <time>2014-04-06T10:24:29Z</time>
      </trkpt>
      <trkpt lat="41.660680110" lon="2.582186750">
        <ele>737.60</ele>
        <time>2014-04-06T10:24:30Z</time>
      </trkpt>
      <trkpt lat="41.660685140" lon="2.582165130">
        <ele>738.00</ele>
        <time>2014-04-06T10:24:31Z</time>
      </trkpt>
      <trkpt lat="41.660688500" lon="2.582146690">
        <ele>738.30</ele>
        <time>2014-04-06T10:24:32Z</time>
      </trkpt>
      <trkpt lat="41.660693360" lon="2.582126740">
        <ele>738.50</ele>
        <time>2014-04-06T10:24:33Z</time>
      </trkpt>
      <trkpt lat="41.660701740" lon="2.582103440">
        <ele>738.60</ele>
        <time>2014-04-06T10:24:34Z</time>
      </trkpt>
      <trkpt lat="41.660708440" lon="2.582078460">
        <ele>738.60</ele>
        <time>2014-04-06T10:24:35Z</time>
      </trkpt>
      <trkpt lat="41.660713470" lon="2.582046780">
        <ele>738.60</ele>
        <time>2014-04-06T10:24:36Z</time>
      </trkpt>
      <trkpt lat="41.660721690" lon="2.582011740">
        <ele>738.40</ele>
        <time>2014-04-06T10:24:37Z</time>
      </trkpt>
      <trkpt lat="41.660728390" lon="2.581971670">
        <ele>738.20</ele>
        <time>2014-04-06T10:24:38Z</time>
      </trkpt>
      <trkpt lat="41.660740130" lon="2.581928420">
        <ele>738.10</ele>
        <time>2014-04-06T10:24:39Z</time>
      </trkpt>
      <trkpt lat="41.660753370" lon="2.581876790">
        <ele>737.70</ele>
        <time>2014-04-06T10:24:40Z</time>
      </trkpt>
      <trkpt lat="41.660770140" lon="2.581821810">
        <ele>737.40</ele>
        <time>2014-04-06T10:24:41Z</time>
      </trkpt>
      <trkpt lat="41.660790080" lon="2.581765140">
        <ele>737.30</ele>
        <time>2014-04-06T10:24:42Z</time>
      </trkpt>
      <trkpt lat="41.660805000" lon="2.581711670">
        <ele>737.20</ele>
        <time>2014-04-06T10:24:43Z</time>
      </trkpt>
      <trkpt lat="41.660816740" lon="2.581673450">
        <ele>736.80</ele>
        <time>2014-04-06T10:24:44Z</time>
      </trkpt>
      <trkpt lat="41.660826800" lon="2.581633380">
        <ele>736.50</ele>
        <time>2014-04-06T10:24:45Z</time>
      </trkpt>
      <trkpt lat="41.660838360" lon="2.581595160">
        <ele>736.30</ele>
        <time>2014-04-06T10:24:46Z</time>
      </trkpt>
      <trkpt lat="41.660853450" lon="2.581555090">
        <ele>735.90</ele>
        <time>2014-04-06T10:24:47Z</time>
      </trkpt>
      <trkpt lat="41.660873400" lon="2.581505140">
        <ele>735.60</ele>
        <time>2014-04-06T10:24:48Z</time>
      </trkpt>
      <trkpt lat="41.660891670" lon="2.581458370">
        <ele>735.30</ele>
        <time>2014-04-06T10:24:49Z</time>
      </trkpt>
      <trkpt lat="41.660910110" lon="2.581413440">
        <ele>735.00</ele>
        <time>2014-04-06T10:24:50Z</time>
      </trkpt>
      <trkpt lat="41.660925030" lon="2.581368340">
        <ele>734.00</ele>
        <time>2014-04-06T10:24:51Z</time>
      </trkpt>
      <trkpt lat="41.660940120" lon="2.581328450">
        <ele>733.30</ele>
        <time>2014-04-06T10:24:52Z</time>
      </trkpt>
      <trkpt lat="41.660960070" lon="2.581295090">
        <ele>732.70</ele>
        <time>2014-04-06T10:24:53Z</time>
      </trkpt>
      <trkpt lat="41.660986720" lon="2.581258370">
        <ele>732.60</ele>
        <time>2014-04-06T10:24:54Z</time>
      </trkpt>
      <trkpt lat="41.661020080" lon="2.581228370">
        <ele>732.50</ele>
        <time>2014-04-06T10:24:55Z</time>
      </trkpt>
      <trkpt lat="41.661051770" lon="2.581203390">
        <ele>731.90</ele>
        <time>2014-04-06T10:24:56Z</time>
      </trkpt>
      <trkpt lat="41.661085130" lon="2.581185120">
        <ele>731.50</ele>
        <time>2014-04-06T10:24:57Z</time>
      </trkpt>
      <trkpt lat="41.661121670" lon="2.581166680">
        <ele>731.20</ele>
        <time>2014-04-06T10:24:58Z</time>
      </trkpt>
      <trkpt lat="41.661155030" lon="2.581153430">
        <ele>730.80</ele>
        <time>2014-04-06T10:24:59Z</time>
      </trkpt>
      <trkpt lat="41.661186720" lon="2.581135160">
        <ele>730.60</ele>
        <time>2014-04-06T10:25:00Z</time>
      </trkpt>
      <trkpt lat="41.661218400" lon="2.581111690">
        <ele>729.90</ele>
        <time>2014-04-06T10:25:01Z</time>
      </trkpt>
      <trkpt lat="41.661248410" lon="2.581083360">
        <ele>729.50</ele>
        <time>2014-04-06T10:25:02Z</time>
      </trkpt>
      <trkpt lat="41.661276740" lon="2.581063410">
        <ele>728.40</ele>
        <time>2014-04-06T10:25:03Z</time>
      </trkpt>
      <trkpt lat="41.661311770" lon="2.581046810">
        <ele>727.60</ele>
        <time>2014-04-06T10:25:04Z</time>
      </trkpt>
      <trkpt lat="41.661340110" lon="2.581033400">
        <ele>726.90</ele>
        <time>2014-04-06T10:25:05Z</time>
      </trkpt>
      <trkpt lat="41.661360050" lon="2.581016810">
        <ele>726.60</ele>
        <time>2014-04-06T10:25:06Z</time>
      </trkpt>
      <trkpt lat="41.661373460" lon="2.581000040">
        <ele>726.30</ele>
        <time>2014-04-06T10:25:07Z</time>
      </trkpt>
      <trkpt lat="41.661386710" lon="2.580980090">
        <ele>726.10</ele>
        <time>2014-04-06T10:25:08Z</time>
      </trkpt>
      <trkpt lat="41.661396770" lon="2.580960150">
        <ele>726.00</ele>
        <time>2014-04-06T10:25:09Z</time>
      </trkpt>
      <trkpt lat="41.661403470" lon="2.580935000">
        <ele>725.90</ele>
        <time>2014-04-06T10:25:10Z</time>
      </trkpt>
      <trkpt lat="41.661406820" lon="2.580913370">
        <ele>725.80</ele>
        <time>2014-04-06T10:25:11Z</time>
      </trkpt>
      <trkpt lat="41.661411690" lon="2.580893430">
        <ele>725.70</ele>
        <time>2014-04-06T10:25:12Z</time>
      </trkpt>
      <trkpt lat="41.661418390" lon="2.580876660">
        <ele>725.80</ele>
        <time>2014-04-06T10:25:13Z</time>
      </trkpt>
      <trkpt lat="41.661421740" lon="2.580861740">
        <ele>725.80</ele>
        <time>2014-04-06T10:25:14Z</time>
      </trkpt>
      <trkpt lat="41.661428450" lon="2.580845150">
        <ele>726.00</ele>
        <time>2014-04-06T10:25:15Z</time>
      </trkpt>
      <trkpt lat="41.661435160" lon="2.580826710">
        <ele>726.10</ele>
        <time>2014-04-06T10:25:16Z</time>
      </trkpt>
      <trkpt lat="41.661441690" lon="2.580808430">
        <ele>726.20</ele>
        <time>2014-04-06T10:25:17Z</time>
      </trkpt>
      <trkpt lat="41.661448400" lon="2.580790160">
        <ele>726.60</ele>
        <time>2014-04-06T10:25:18Z</time>
      </trkpt>
      <trkpt lat="41.661453430" lon="2.580770040">
        <ele>726.80</ele>
        <time>2014-04-06T10:25:19Z</time>
      </trkpt>
      <trkpt lat="41.661458460" lon="2.580750100">
        <ele>726.70</ele>
        <time>2014-04-06T10:25:20Z</time>
      </trkpt>
      <trkpt lat="41.661463490" lon="2.580733330">
        <ele>726.70</ele>
        <time>2014-04-06T10:25:21Z</time>
      </trkpt>
      <trkpt lat="41.661470020" lon="2.580718410">
        <ele>727.10</ele>
        <time>2014-04-06T10:25:22Z</time>
      </trkpt>
      <trkpt lat="41.661475050" lon="2.580701820">
        <ele>727.40</ele>
        <time>2014-04-06T10:25:23Z</time>
      </trkpt>
      <trkpt lat="41.661478410" lon="2.580685050">
        <ele>727.60</ele>
        <time>2014-04-06T10:25:24Z</time>
      </trkpt>
      <trkpt lat="41.661481760" lon="2.580668460">
        <ele>727.60</ele>
        <time>2014-04-06T10:25:25Z</time>
      </trkpt>
      <trkpt lat="41.661486790" lon="2.580651690">
        <ele>727.50</ele>
        <time>2014-04-06T10:25:26Z</time>
      </trkpt>
      <trkpt lat="41.661490140" lon="2.580635100">
        <ele>727.70</ele>
        <time>2014-04-06T10:25:27Z</time>
      </trkpt>
      <trkpt lat="41.661491820" lon="2.580618330">
        <ele>727.80</ele>
        <time>2014-04-06T10:25:28Z</time>
      </trkpt>
      <trkpt lat="41.661493490" lon="2.580601740">
        <ele>728.30</ele>
        <time>2014-04-06T10:25:29Z</time>
      </trkpt>
      <trkpt lat="41.661496680" lon="2.580583460">
        <ele>728.70</ele>
        <time>2014-04-06T10:25:30Z</time>
      </trkpt>
      <trkpt lat="41.661498360" lon="2.580566700">
        <ele>729.00</ele>
        <time>2014-04-06T10:25:31Z</time>
      </trkpt>
      <trkpt lat="41.661503380" lon="2.580548430">
        <ele>728.80</ele>
        <time>2014-04-06T10:25:32Z</time>
      </trkpt>
      <trkpt lat="41.661506740" lon="2.580530150">
        <ele>728.60</ele>
        <time>2014-04-06T10:25:33Z</time>
      </trkpt>
      <trkpt lat="41.661510090" lon="2.580510040">
        <ele>728.90</ele>
        <time>2014-04-06T10:25:34Z</time>
      </trkpt>
      <trkpt lat="41.661513440" lon="2.580490090">
        <ele>729.00</ele>
        <time>2014-04-06T10:25:35Z</time>
      </trkpt>
      <trkpt lat="41.661518470" lon="2.580471820">
        <ele>729.20</ele>
        <time>2014-04-06T10:25:36Z</time>
      </trkpt>
      <trkpt lat="41.661526690" lon="2.580455050">
        <ele>729.50</ele>
        <time>2014-04-06T10:25:37Z</time>
      </trkpt>
      <trkpt lat="41.661533390" lon="2.580436780">
        <ele>729.80</ele>
        <time>2014-04-06T10:25:38Z</time>
      </trkpt>
      <trkpt lat="41.661538420" lon="2.580420020">
        <ele>730.20</ele>
        <time>2014-04-06T10:25:39Z</time>
      </trkpt>
      <trkpt lat="41.661545130" lon="2.580403420">
        <ele>730.40</ele>
        <time>2014-04-06T10:25:40Z</time>
      </trkpt>
      <trkpt lat="41.661553340" lon="2.580388330">
        <ele>730.40</ele>
        <time>2014-04-06T10:25:41Z</time>
      </trkpt>
      <trkpt lat="41.661560050" lon="2.580375090">
        <ele>730.30</ele>
        <time>2014-04-06T10:25:42Z</time>
      </trkpt>
      <trkpt lat="41.661566750" lon="2.580358490">
        <ele>730.30</ele>
        <time>2014-04-06T10:25:43Z</time>
      </trkpt>
      <trkpt lat="41.661571780" lon="2.580343410">
        <ele>730.30</ele>
        <time>2014-04-06T10:25:44Z</time>
      </trkpt>
      <trkpt lat="41.661576810" lon="2.580330160">
        <ele>730.20</ele>
        <time>2014-04-06T10:25:45Z</time>
      </trkpt>
      <trkpt lat="41.661581670" lon="2.580311720">
        <ele>730.20</ele>
        <time>2014-04-06T10:25:46Z</time>
      </trkpt>
      <trkpt lat="41.661585020" lon="2.580295130">
        <ele>730.10</ele>
        <time>2014-04-06T10:25:47Z</time>
      </trkpt>
      <trkpt lat="41.661588380" lon="2.580276690">
        <ele>730.60</ele>
        <time>2014-04-06T10:25:48Z</time>
      </trkpt>
      <trkpt lat="41.661593410" lon="2.580258410">
        <ele>730.90</ele>
        <time>2014-04-06T10:25:49Z</time>
      </trkpt>
      <trkpt lat="41.661598440" lon="2.580241820">
        <ele>731.20</ele>
        <time>2014-04-06T10:25:50Z</time>
      </trkpt>
      <trkpt lat="41.661600110" lon="2.580223380">
        <ele>731.70</ele>
        <time>2014-04-06T10:25:51Z</time>
      </trkpt>
      <trkpt lat="41.661603460" lon="2.580205100">
        <ele>732.20</ele>
        <time>2014-04-06T10:25:52Z</time>
      </trkpt>
      <trkpt lat="41.661606820" lon="2.580188340">
        <ele>732.30</ele>
        <time>2014-04-06T10:25:53Z</time>
      </trkpt>
      <trkpt lat="41.661608490" lon="2.580171740">
        <ele>732.30</ele>
        <time>2014-04-06T10:25:54Z</time>
      </trkpt>
      <trkpt lat="41.661613360" lon="2.580151800">
        <ele>732.40</ele>
        <time>2014-04-06T10:25:55Z</time>
      </trkpt>
      <trkpt lat="41.661615030" lon="2.580133350">
        <ele>732.50</ele>
        <time>2014-04-06T10:25:56Z</time>
      </trkpt>
      <trkpt lat="41.661618380" lon="2.580116760">
        <ele>732.60</ele>
        <time>2014-04-06T10:25:57Z</time>
      </trkpt>
      <trkpt lat="41.661621740" lon="2.580103350">
        <ele>732.60</ele>
        <time>2014-04-06T10:25:58Z</time>
      </trkpt>
      <trkpt lat="41.661625090" lon="2.580088430">
        <ele>732.70</ele>
        <time>2014-04-06T10:25:59Z</time>
      </trkpt>
      <trkpt lat="41.661626770" lon="2.580070160">
        <ele>732.60</ele>
        <time>2014-04-06T10:26:00Z</time>
      </trkpt>
      <trkpt lat="41.661626770" lon="2.580051720">
        <ele>732.50</ele>
        <time>2014-04-06T10:26:01Z</time>
      </trkpt>
      <trkpt lat="41.661630120" lon="2.580035120">
        <ele>732.50</ele>
        <time>2014-04-06T10:26:02Z</time>
      </trkpt>
      <trkpt lat="41.661631800" lon="2.580018360">
        <ele>732.40</ele>
        <time>2014-04-06T10:26:03Z</time>
      </trkpt>
      <trkpt lat="41.661633470" lon="2.580001760">
        <ele>732.40</ele>
        <time>2014-04-06T10:26:04Z</time>
      </trkpt>
      <trkpt lat="41.661633470" lon="2.579985000">
        <ele>732.50</ele>
        <time>2014-04-06T10:26:05Z</time>
      </trkpt>
      <trkpt lat="41.661631800" lon="2.579966720">
        <ele>732.70</ele>
        <time>2014-04-06T10:26:06Z</time>
      </trkpt>
      <trkpt lat="41.661630120" lon="2.579946770">
        <ele>733.00</ele>
        <time>2014-04-06T10:26:07Z</time>
      </trkpt>
      <trkpt lat="41.661628440" lon="2.579926820">
        <ele>733.30</ele>
        <time>2014-04-06T10:26:08Z</time>
      </trkpt>
      <trkpt lat="41.661625090" lon="2.579911740">
        <ele>733.50</ele>
        <time>2014-04-06T10:26:09Z</time>
      </trkpt>
      <trkpt lat="41.661621740" lon="2.579891790">
        <ele>733.50</ele>
        <time>2014-04-06T10:26:10Z</time>
      </trkpt>
      <trkpt lat="41.661620060" lon="2.579875020">
        <ele>733.40</ele>
        <time>2014-04-06T10:26:11Z</time>
      </trkpt>
      <trkpt lat="41.661620060" lon="2.579856750">
        <ele>733.60</ele>
        <time>2014-04-06T10:26:12Z</time>
      </trkpt>
      <trkpt lat="41.661618380" lon="2.579840160">
        <ele>733.60</ele>
        <time>2014-04-06T10:26:13Z</time>
      </trkpt>
      <trkpt lat="41.661620060" lon="2.579826740">
        <ele>733.70</ele>
        <time>2014-04-06T10:26:14Z</time>
      </trkpt>
      <trkpt lat="41.661618380" lon="2.579811830">
        <ele>734.00</ele>
        <time>2014-04-06T10:26:15Z</time>
      </trkpt>
      <trkpt lat="41.661616710" lon="2.579796740">
        <ele>734.20</ele>
        <time>2014-04-06T10:26:16Z</time>
      </trkpt>
      <trkpt lat="41.661615030" lon="2.579778470">
        <ele>734.50</ele>
        <time>2014-04-06T10:26:17Z</time>
      </trkpt>
      <trkpt lat="41.661613360" lon="2.579761700">
        <ele>734.70</ele>
        <time>2014-04-06T10:26:18Z</time>
      </trkpt>
      <trkpt lat="41.661613360" lon="2.579743430">
        <ele>734.70</ele>
        <time>2014-04-06T10:26:19Z</time>
      </trkpt>
      <trkpt lat="41.661613360" lon="2.579726660">
        <ele>734.80</ele>
        <time>2014-04-06T10:26:20Z</time>
      </trkpt>
      <trkpt lat="41.661610000" lon="2.579710070">
        <ele>734.80</ele>
        <time>2014-04-06T10:26:21Z</time>
      </trkpt>
      <trkpt lat="41.661608490" lon="2.579693470">
        <ele>735.10</ele>
        <time>2014-04-06T10:26:22Z</time>
      </trkpt>
      <trkpt lat="41.661608490" lon="2.579676710">
        <ele>735.30</ele>
        <time>2014-04-06T10:26:23Z</time>
      </trkpt>
      <trkpt lat="41.661608490" lon="2.579660110">
        <ele>735.60</ele>
        <time>2014-04-06T10:26:24Z</time>
      </trkpt>
      <trkpt lat="41.661608490" lon="2.579645030">
        <ele>735.80</ele>
        <time>2014-04-06T10:26:25Z</time>
      </trkpt>
      <trkpt lat="41.661603460" lon="2.579631780">
        <ele>735.60</ele>
        <time>2014-04-06T10:26:26Z</time>
      </trkpt>
      <trkpt lat="41.661603460" lon="2.579615020">
        <ele>735.50</ele>
        <time>2014-04-06T10:26:27Z</time>
      </trkpt>
      <trkpt lat="41.661600110" lon="2.579596750">
        <ele>735.40</ele>
        <time>2014-04-06T10:26:28Z</time>
      </trkpt>
      <trkpt lat="41.661598440" lon="2.579580150">
        <ele>735.30</ele>
        <time>2014-04-06T10:26:29Z</time>
      </trkpt>
      <trkpt lat="41.661593410" lon="2.579561710">
        <ele>735.30</ele>
        <time>2014-04-06T10:26:30Z</time>
      </trkpt>
      <trkpt lat="41.661590050" lon="2.579543440">
        <ele>736.00</ele>
        <time>2014-04-06T10:26:31Z</time>
      </trkpt>
      <trkpt lat="41.661588380" lon="2.579528350">
        <ele>736.50</ele>
        <time>2014-04-06T10:26:32Z</time>
      </trkpt>
      <trkpt lat="41.661585020" lon="2.579510080">
        <ele>736.90</ele>
        <time>2014-04-06T10:26:33Z</time>
      </trkpt>
      <trkpt lat="41.661583350" lon="2.579491800">
        <ele>736.80</ele>
        <time>2014-04-06T10:26:34Z</time>
      </trkpt>
      <trkpt lat="41.661581670" lon="2.579475040">
        <ele>736.70</ele>
        <time>2014-04-06T10:26:35Z</time>
      </trkpt>
      <trkpt lat="41.661580000" lon="2.579456770">
        <ele>736.80</ele>
        <time>2014-04-06T10:26:36Z</time>
      </trkpt>
      <trkpt lat="41.661580000" lon="2.579438500">
        <ele>736.90</ele>
        <time>2014-04-06T10:26:37Z</time>
      </trkpt>
      <trkpt lat="41.661578490" lon="2.579421730">
        <ele>737.30</ele>
        <time>2014-04-06T10:26:38Z</time>
      </trkpt>
      <trkpt lat="41.661575130" lon="2.579405140">
        <ele>737.50</ele>
        <time>2014-04-06T10:26:39Z</time>
      </trkpt>
      <trkpt lat="41.661571780" lon="2.579390050">
        <ele>737.70</ele>
        <time>2014-04-06T10:26:40Z</time>
      </trkpt>
      <trkpt lat="41.661573460" lon="2.579375130">
        <ele>737.70</ele>
        <time>2014-04-06T10:26:41Z</time>
      </trkpt>
      <trkpt lat="41.661575130" lon="2.579363390">
        <ele>737.70</ele>
        <time>2014-04-06T10:26:42Z</time>
      </trkpt>
      <trkpt lat="41.661575130" lon="2.579353330">
        <ele>737.70</ele>
        <time>2014-04-06T10:26:43Z</time>
      </trkpt>
      <trkpt lat="41.661573460" lon="2.579340090">
        <ele>737.70</ele>
        <time>2014-04-06T10:26:44Z</time>
      </trkpt>
      <trkpt lat="41.661571780" lon="2.579323500">
        <ele>737.90</ele>
        <time>2014-04-06T10:26:45Z</time>
      </trkpt>
      <trkpt lat="41.661570100" lon="2.579308410">
        <ele>738.40</ele>
        <time>2014-04-06T10:26:46Z</time>
      </trkpt>
      <trkpt lat="41.661570100" lon="2.579293490">
        <ele>738.80</ele>
        <time>2014-04-06T10:26:47Z</time>
      </trkpt>
      <trkpt lat="41.661571780" lon="2.579278400">
        <ele>739.10</ele>
        <time>2014-04-06T10:26:48Z</time>
      </trkpt>
      <trkpt lat="41.661571780" lon="2.579261800">
        <ele>739.30</ele>
        <time>2014-04-06T10:26:49Z</time>
      </trkpt>
      <trkpt lat="41.661571780" lon="2.579248390">
        <ele>739.20</ele>
        <time>2014-04-06T10:26:50Z</time>
      </trkpt>
      <trkpt lat="41.661573460" lon="2.579233470">
        <ele>739.20</ele>
        <time>2014-04-06T10:26:51Z</time>
      </trkpt>
      <trkpt lat="41.661573460" lon="2.579218390">
        <ele>739.50</ele>
        <time>2014-04-06T10:26:52Z</time>
      </trkpt>
      <trkpt lat="41.661575130" lon="2.579206820">
        <ele>739.70</ele>
        <time>2014-04-06T10:26:53Z</time>
      </trkpt>
      <trkpt lat="41.661576810" lon="2.579193410">
        <ele>739.80</ele>
        <time>2014-04-06T10:26:54Z</time>
      </trkpt>
      <trkpt lat="41.661576810" lon="2.579176810">
        <ele>739.90</ele>
        <time>2014-04-06T10:26:55Z</time>
      </trkpt>
      <trkpt lat="41.661576810" lon="2.579161720">
        <ele>739.90</ele>
        <time>2014-04-06T10:26:56Z</time>
      </trkpt>
      <trkpt lat="41.661576810" lon="2.579146800">
        <ele>739.90</ele>
        <time>2014-04-06T10:26:57Z</time>
      </trkpt>
      <trkpt lat="41.661575130" lon="2.579128360">
        <ele>739.80</ele>
        <time>2014-04-06T10:26:58Z</time>
      </trkpt>
      <trkpt lat="41.661575130" lon="2.579113440">
        <ele>739.80</ele>
        <time>2014-04-06T10:26:59Z</time>
      </trkpt>
      <trkpt lat="41.661575130" lon="2.579096680">
        <ele>740.10</ele>
        <time>2014-04-06T10:27:00Z</time>
      </trkpt>
      <trkpt lat="41.661575130" lon="2.579080080">
        <ele>740.40</ele>
        <time>2014-04-06T10:27:01Z</time>
      </trkpt>
      <trkpt lat="41.661576810" lon="2.579061810">
        <ele>740.70</ele>
        <time>2014-04-06T10:27:02Z</time>
      </trkpt>
      <trkpt lat="41.661580000" lon="2.579046720">
        <ele>740.90</ele>
        <time>2014-04-06T10:27:03Z</time>
      </trkpt>
      <trkpt lat="41.661581670" lon="2.579028450">
        <ele>741.40</ele>
        <time>2014-04-06T10:27:04Z</time>
      </trkpt>
      <trkpt lat="41.661578490" lon="2.579015040">
        <ele>741.80</ele>
        <time>2014-04-06T10:27:05Z</time>
      </trkpt>
      <trkpt lat="41.661580000" lon="2.579003470">
        <ele>742.10</ele>
        <time>2014-04-06T10:27:06Z</time>
      </trkpt>
      <trkpt lat="41.661583350" lon="2.578990060">
        <ele>741.90</ele>
        <time>2014-04-06T10:27:07Z</time>
      </trkpt>
      <trkpt lat="41.661583350" lon="2.578975140">
        <ele>741.80</ele>
        <time>2014-04-06T10:27:08Z</time>
      </trkpt>
      <trkpt lat="41.661586700" lon="2.578961730">
        <ele>742.10</ele>
        <time>2014-04-06T10:27:09Z</time>
      </trkpt>
      <trkpt lat="41.661590050" lon="2.578948490">
        <ele>742.40</ele>
        <time>2014-04-06T10:27:10Z</time>
      </trkpt>
      <trkpt lat="41.661593410" lon="2.578933400">
        <ele>742.90</ele>
        <time>2014-04-06T10:27:11Z</time>
      </trkpt>
      <trkpt lat="41.661593410" lon="2.578920160">
        <ele>743.20</ele>
        <time>2014-04-06T10:27:12Z</time>
      </trkpt>
      <trkpt lat="41.661596760" lon="2.578908420">
        <ele>743.50</ele>
        <time>2014-04-06T10:27:13Z</time>
      </trkpt>
      <trkpt lat="41.661596760" lon="2.578893340">
        <ele>743.60</ele>
        <time>2014-04-06T10:27:14Z</time>
      </trkpt>
      <trkpt lat="41.661600110" lon="2.578880090">
        <ele>743.70</ele>
        <time>2014-04-06T10:27:15Z</time>
      </trkpt>
      <trkpt lat="41.661601790" lon="2.578866680">
        <ele>744.10</ele>
        <time>2014-04-06T10:27:16Z</time>
      </trkpt>
      <trkpt lat="41.661603460" lon="2.578851760">
        <ele>744.50</ele>
        <time>2014-04-06T10:27:17Z</time>
      </trkpt>
      <trkpt lat="41.661605140" lon="2.578836670">
        <ele>744.70</ele>
        <time>2014-04-06T10:27:18Z</time>
      </trkpt>
      <trkpt lat="41.661605140" lon="2.578825110">
        <ele>744.80</ele>
        <time>2014-04-06T10:27:19Z</time>
      </trkpt>
      <trkpt lat="41.661606820" lon="2.578810020">
        <ele>744.90</ele>
        <time>2014-04-06T10:27:20Z</time>
      </trkpt>
      <trkpt lat="41.661606820" lon="2.578795100">
        <ele>745.30</ele>
        <time>2014-04-06T10:27:21Z</time>
      </trkpt>
      <trkpt lat="41.661606820" lon="2.578781690">
        <ele>745.50</ele>
        <time>2014-04-06T10:27:22Z</time>
      </trkpt>
      <trkpt lat="41.661603460" lon="2.578766770">
        <ele>745.60</ele>
        <time>2014-04-06T10:27:23Z</time>
      </trkpt>
      <trkpt lat="41.661603460" lon="2.578753360">
        <ele>745.60</ele>
        <time>2014-04-06T10:27:24Z</time>
      </trkpt>
      <trkpt lat="41.661601790" lon="2.578740110">
        <ele>745.60</ele>
        <time>2014-04-06T10:27:25Z</time>
      </trkpt>
      <trkpt lat="41.661601790" lon="2.578728380">
        <ele>745.70</ele>
        <time>2014-04-06T10:27:26Z</time>
      </trkpt>
      <trkpt lat="41.661601790" lon="2.578715140">
        <ele>745.80</ele>
        <time>2014-04-06T10:27:27Z</time>
      </trkpt>
      <trkpt lat="41.661600110" lon="2.578696700">
        <ele>746.10</ele>
        <time>2014-04-06T10:27:28Z</time>
      </trkpt>
      <trkpt lat="41.661600110" lon="2.578680100">
        <ele>746.20</ele>
        <time>2014-04-06T10:27:29Z</time>
      </trkpt>
      <trkpt lat="41.661596760" lon="2.578665010">
        <ele>746.60</ele>
        <time>2014-04-06T10:27:30Z</time>
      </trkpt>
      <trkpt lat="41.661596760" lon="2.578653450">
        <ele>746.90</ele>
        <time>2014-04-06T10:27:31Z</time>
      </trkpt>
      <trkpt lat="41.661593410" lon="2.578638360">
        <ele>747.20</ele>
        <time>2014-04-06T10:27:32Z</time>
      </trkpt>
      <trkpt lat="41.661591730" lon="2.578621760">
        <ele>747.40</ele>
        <time>2014-04-06T10:27:33Z</time>
      </trkpt>
      <trkpt lat="41.661590050" lon="2.578605000">
        <ele>747.60</ele>
        <time>2014-04-06T10:27:34Z</time>
      </trkpt>
      <trkpt lat="41.661585020" lon="2.578590080">
        <ele>747.70</ele>
        <time>2014-04-06T10:27:35Z</time>
      </trkpt>
      <trkpt lat="41.661583350" lon="2.578575160">
        <ele>747.80</ele>
        <time>2014-04-06T10:27:36Z</time>
      </trkpt>
      <trkpt lat="41.661581670" lon="2.578561750">
        <ele>747.80</ele>
        <time>2014-04-06T10:27:37Z</time>
      </trkpt>
      <trkpt lat="41.661580000" lon="2.578546830">
        <ele>748.10</ele>
        <time>2014-04-06T10:27:38Z</time>
      </trkpt>
      <trkpt lat="41.661578490" lon="2.578533420">
        <ele>748.40</ele>
        <time>2014-04-06T10:27:39Z</time>
      </trkpt>
      <trkpt lat="41.661578490" lon="2.578518330">
        <ele>748.90</ele>
        <time>2014-04-06T10:27:40Z</time>
      </trkpt>
      <trkpt lat="41.661576810" lon="2.578503410">
        <ele>749.30</ele>
        <time>2014-04-06T10:27:41Z</time>
      </trkpt>
      <trkpt lat="41.661573460" lon="2.578486810">
        <ele>749.30</ele>
        <time>2014-04-06T10:27:42Z</time>
      </trkpt>
      <trkpt lat="41.661570100" lon="2.578473400">
        <ele>749.30</ele>
        <time>2014-04-06T10:27:43Z</time>
      </trkpt>
      <trkpt lat="41.661566750" lon="2.578456810">
        <ele>749.30</ele>
        <time>2014-04-06T10:27:44Z</time>
      </trkpt>
      <trkpt lat="41.661563400" lon="2.578443400">
        <ele>749.70</ele>
        <time>2014-04-06T10:27:45Z</time>
      </trkpt>
      <trkpt lat="41.661558370" lon="2.578430150">
        <ele>750.00</ele>
        <time>2014-04-06T10:27:46Z</time>
      </trkpt>
      <trkpt lat="41.661555020" lon="2.578415060">
        <ele>750.20</ele>
        <time>2014-04-06T10:27:47Z</time>
      </trkpt>
      <trkpt lat="41.661550160" lon="2.578398470">
        <ele>750.30</ele>
        <time>2014-04-06T10:27:48Z</time>
      </trkpt>
      <trkpt lat="41.661545130" lon="2.578383380">
        <ele>750.40</ele>
        <time>2014-04-06T10:27:49Z</time>
      </trkpt>
      <trkpt lat="41.661538420" lon="2.578368460">
        <ele>750.60</ele>
        <time>2014-04-06T10:27:50Z</time>
      </trkpt>
      <trkpt lat="41.661536740" lon="2.578351700">
        <ele>750.70</ele>
        <time>2014-04-06T10:27:51Z</time>
      </trkpt>
      <trkpt lat="41.661535070" lon="2.578335100">
        <ele>750.60</ele>
        <time>2014-04-06T10:27:52Z</time>
      </trkpt>
      <trkpt lat="41.661530040" lon="2.578320010">
        <ele>750.50</ele>
        <time>2014-04-06T10:27:53Z</time>
      </trkpt>
      <trkpt lat="41.661521820" lon="2.578305090">
        <ele>751.00</ele>
        <time>2014-04-06T10:27:54Z</time>
      </trkpt>
      <trkpt lat="41.661515120" lon="2.578290010">
        <ele>751.30</ele>
        <time>2014-04-06T10:27:55Z</time>
      </trkpt>
      <trkpt lat="41.661510090" lon="2.578275090">
        <ele>751.50</ele>
        <time>2014-04-06T10:27:56Z</time>
      </trkpt>
      <trkpt lat="41.661505060" lon="2.578258490">
        <ele>751.80</ele>
        <time>2014-04-06T10:27:57Z</time>
      </trkpt>
      <trkpt lat="41.661498360" lon="2.578243400">
        <ele>752.00</ele>
        <time>2014-04-06T10:27:58Z</time>
      </trkpt>
      <trkpt lat="41.661493490" lon="2.578228480">
        <ele>752.30</ele>
        <time>2014-04-06T10:27:59Z</time>
      </trkpt>
      <trkpt lat="41.661490140" lon="2.578213400">
        <ele>752.50</ele>
        <time>2014-04-06T10:28:00Z</time>
      </trkpt>
      <trkpt lat="41.661488460" lon="2.578203340">
        <ele>753.00</ele>
        <time>2014-04-06T10:28:01Z</time>
      </trkpt>
      <trkpt lat="41.661485110" lon="2.578193450">
        <ele>753.40</ele>
        <time>2014-04-06T10:28:02Z</time>
      </trkpt>
      <trkpt lat="41.661478410" lon="2.578178360">
        <ele>753.70</ele>
        <time>2014-04-06T10:28:03Z</time>
      </trkpt>
      <trkpt lat="41.661475050" lon="2.578161760">
        <ele>753.90</ele>
        <time>2014-04-06T10:28:04Z</time>
      </trkpt>
      <trkpt lat="41.661473380" lon="2.578145000">
        <ele>754.10</ele>
        <time>2014-04-06T10:28:05Z</time>
      </trkpt>
      <trkpt lat="41.661471700" lon="2.578128400">
        <ele>754.70</ele>
        <time>2014-04-06T10:28:06Z</time>
      </trkpt>
      <trkpt lat="41.661470020" lon="2.578110130">
        <ele>755.10</ele>
        <time>2014-04-06T10:28:07Z</time>
      </trkpt>
      <trkpt lat="41.661468350" lon="2.578096720">
        <ele>755.30</ele>
        <time>2014-04-06T10:28:08Z</time>
      </trkpt>
      <trkpt lat="41.661466670" lon="2.578080120">
        <ele>755.40</ele>
        <time>2014-04-06T10:28:09Z</time>
      </trkpt>
      <trkpt lat="41.661463490" lon="2.578065040">
        <ele>755.50</ele>
        <time>2014-04-06T10:28:10Z</time>
      </trkpt>
      <trkpt lat="41.661461810" lon="2.578048440">
        <ele>755.40</ele>
        <time>2014-04-06T10:28:11Z</time>
      </trkpt>
      <trkpt lat="41.661461810" lon="2.578030000">
        <ele>755.40</ele>
        <time>2014-04-06T10:28:12Z</time>
      </trkpt>
      <trkpt lat="41.661461810" lon="2.578016760">
        <ele>755.50</ele>
        <time>2014-04-06T10:28:13Z</time>
      </trkpt>
      <trkpt lat="41.661461810" lon="2.578000160">
        <ele>755.50</ele>
        <time>2014-04-06T10:28:14Z</time>
      </trkpt>
      <trkpt lat="41.661460130" lon="2.577985070">
        <ele>755.50</ele>
        <time>2014-04-06T10:28:15Z</time>
      </trkpt>
      <trkpt lat="41.661460130" lon="2.577970150">
        <ele>756.00</ele>
        <time>2014-04-06T10:28:16Z</time>
      </trkpt>
      <trkpt lat="41.661456780" lon="2.577953390">
        <ele>756.30</ele>
        <time>2014-04-06T10:28:17Z</time>
      </trkpt>
      <trkpt lat="41.661455100" lon="2.577938470">
        <ele>756.40</ele>
        <time>2014-04-06T10:28:18Z</time>
      </trkpt>
      <trkpt lat="41.661455100" lon="2.577920030">
        <ele>756.50</ele>
        <time>2014-04-06T10:28:19Z</time>
      </trkpt>
      <trkpt lat="41.661451750" lon="2.577901760">
        <ele>756.90</ele>
        <time>2014-04-06T10:28:20Z</time>
      </trkpt>
      <trkpt lat="41.661450080" lon="2.577883480">
        <ele>757.20</ele>
        <time>2014-04-06T10:28:21Z</time>
      </trkpt>
      <trkpt lat="41.661448400" lon="2.577865040">
        <ele>757.50</ele>
        <time>2014-04-06T10:28:22Z</time>
      </trkpt>
      <trkpt lat="41.661448400" lon="2.577846770">
        <ele>757.40</ele>
        <time>2014-04-06T10:28:23Z</time>
      </trkpt>
      <trkpt lat="41.661446720" lon="2.577826820">
        <ele>757.40</ele>
        <time>2014-04-06T10:28:24Z</time>
      </trkpt>
      <trkpt lat="41.661445050" lon="2.577808380">
        <ele>758.00</ele>
        <time>2014-04-06T10:28:25Z</time>
      </trkpt>
      <trkpt lat="41.661445050" lon="2.577791790">
        <ele>758.50</ele>
        <time>2014-04-06T10:28:26Z</time>
      </trkpt>
      <trkpt lat="41.661445050" lon="2.577771670">
        <ele>758.70</ele>
        <time>2014-04-06T10:28:27Z</time>
      </trkpt>
      <trkpt lat="41.661443370" lon="2.577753400">
        <ele>758.90</ele>
        <time>2014-04-06T10:28:28Z</time>
      </trkpt>
      <trkpt lat="41.661445050" lon="2.577735120">
        <ele>759.00</ele>
        <time>2014-04-06T10:28:29Z</time>
      </trkpt>
      <trkpt lat="41.661446720" lon="2.577720040">
        <ele>758.80</ele>
        <time>2014-04-06T10:28:30Z</time>
      </trkpt>
      <trkpt lat="41.661450080" lon="2.577703440">
        <ele>758.70</ele>
        <time>2014-04-06T10:28:31Z</time>
      </trkpt>
      <trkpt lat="41.661451750" lon="2.577686680">
        <ele>759.00</ele>
        <time>2014-04-06T10:28:32Z</time>
      </trkpt>
      <trkpt lat="41.661453430" lon="2.577668400">
        <ele>759.30</ele>
        <time>2014-04-06T10:28:33Z</time>
      </trkpt>
      <trkpt lat="41.661455100" lon="2.577653490">
        <ele>759.40</ele>
        <time>2014-04-06T10:28:34Z</time>
      </trkpt>
      <trkpt lat="41.661455100" lon="2.577635040">
        <ele>759.80</ele>
        <time>2014-04-06T10:28:35Z</time>
      </trkpt>
      <trkpt lat="41.661458460" lon="2.577616770">
        <ele>760.10</ele>
        <time>2014-04-06T10:28:36Z</time>
      </trkpt>
      <trkpt lat="41.661458460" lon="2.577598330">
        <ele>759.90</ele>
        <time>2014-04-06T10:28:37Z</time>
      </trkpt>
      <trkpt lat="41.661456780" lon="2.577580060">
        <ele>759.80</ele>
        <time>2014-04-06T10:28:38Z</time>
      </trkpt>
      <trkpt lat="41.661458460" lon="2.577560110">
        <ele>759.90</ele>
        <time>2014-04-06T10:28:39Z</time>
      </trkpt>
      <trkpt lat="41.661461810" lon="2.577545020">
        <ele>760.00</ele>
        <time>2014-04-06T10:28:40Z</time>
      </trkpt>
      <trkpt lat="41.661463490" lon="2.577528430">
        <ele>760.10</ele>
        <time>2014-04-06T10:28:41Z</time>
      </trkpt>
      <trkpt lat="41.661465000" lon="2.577511660">
        <ele>760.50</ele>
        <time>2014-04-06T10:28:42Z</time>
      </trkpt>
      <trkpt lat="41.661468350" lon="2.577493390">
        <ele>760.70</ele>
        <time>2014-04-06T10:28:43Z</time>
      </trkpt>
      <trkpt lat="41.661471700" lon="2.577475120">
        <ele>761.00</ele>
        <time>2014-04-06T10:28:44Z</time>
      </trkpt>
      <trkpt lat="41.661475050" lon="2.577455000">
        <ele>761.10</ele>
        <time>2014-04-06T10:28:45Z</time>
      </trkpt>
      <trkpt lat="41.661480080" lon="2.577436730">
        <ele>761.40</ele>
        <time>2014-04-06T10:28:46Z</time>
      </trkpt>
      <trkpt lat="41.661490140" lon="2.577421810">
        <ele>761.50</ele>
        <time>2014-04-06T10:28:47Z</time>
      </trkpt>
      <trkpt lat="41.661495000" lon="2.577401690">
        <ele>761.70</ele>
        <time>2014-04-06T10:28:48Z</time>
      </trkpt>
      <trkpt lat="41.661500030" lon="2.577381740">
        <ele>762.20</ele>
        <time>2014-04-06T10:28:49Z</time>
      </trkpt>
      <trkpt lat="41.661505060" lon="2.577365150">
        <ele>762.50</ele>
        <time>2014-04-06T10:28:50Z</time>
      </trkpt>
      <trkpt lat="41.661511770" lon="2.577346710">
        <ele>762.70</ele>
        <time>2014-04-06T10:28:51Z</time>
      </trkpt>
      <trkpt lat="41.661515120" lon="2.577328430">
        <ele>762.80</ele>
        <time>2014-04-06T10:28:52Z</time>
      </trkpt>
      <trkpt lat="41.661520150" lon="2.577311670">
        <ele>762.90</ele>
        <time>2014-04-06T10:28:53Z</time>
      </trkpt>
      <trkpt lat="41.661526690" lon="2.577296750">
        <ele>763.10</ele>
        <time>2014-04-06T10:28:54Z</time>
      </trkpt>
      <trkpt lat="41.661531720" lon="2.577280160">
        <ele>763.30</ele>
        <time>2014-04-06T10:28:55Z</time>
      </trkpt>
      <trkpt lat="41.661536740" lon="2.577265070">
        <ele>763.60</ele>
        <time>2014-04-06T10:28:56Z</time>
      </trkpt>
      <trkpt lat="41.661540100" lon="2.577248470">
        <ele>763.80</ele>
        <time>2014-04-06T10:28:57Z</time>
      </trkpt>
      <trkpt lat="41.661546800" lon="2.577230030">
        <ele>763.90</ele>
        <time>2014-04-06T10:28:58Z</time>
      </trkpt>
      <trkpt lat="41.661551660" lon="2.577211760">
        <ele>764.10</ele>
        <time>2014-04-06T10:28:59Z</time>
      </trkpt>
      <trkpt lat="41.661556690" lon="2.577193490">
        <ele>764.10</ele>
        <time>2014-04-06T10:29:00Z</time>
      </trkpt>
      <trkpt lat="41.661563400" lon="2.577178400">
        <ele>764.50</ele>
        <time>2014-04-06T10:29:01Z</time>
      </trkpt>
      <trkpt lat="41.661568430" lon="2.577163480">
        <ele>764.80</ele>
        <time>2014-04-06T10:29:02Z</time>
      </trkpt>
      <trkpt lat="41.661571780" lon="2.577146720">
        <ele>765.00</ele>
        <time>2014-04-06T10:29:03Z</time>
      </trkpt>
      <trkpt lat="41.661576810" lon="2.577130120">
        <ele>765.20</ele>
        <time>2014-04-06T10:29:04Z</time>
      </trkpt>
      <trkpt lat="41.661580000" lon="2.577116710">
        <ele>765.20</ele>
        <time>2014-04-06T10:29:05Z</time>
      </trkpt>
      <trkpt lat="41.661583350" lon="2.577103460">
        <ele>765.10</ele>
        <time>2014-04-06T10:29:06Z</time>
      </trkpt>
      <trkpt lat="41.661585020" lon="2.577088380">
        <ele>765.10</ele>
        <time>2014-04-06T10:29:07Z</time>
      </trkpt>
      <trkpt lat="41.661585020" lon="2.577070100">
        <ele>765.60</ele>
        <time>2014-04-06T10:29:08Z</time>
      </trkpt>
      <trkpt lat="41.661586700" lon="2.577051660">
        <ele>766.00</ele>
        <time>2014-04-06T10:29:09Z</time>
      </trkpt>
      <trkpt lat="41.661590050" lon="2.577033390">
        <ele>766.20</ele>
        <time>2014-04-06T10:29:10Z</time>
      </trkpt>
      <trkpt lat="41.661595080" lon="2.577016800">
        <ele>766.30</ele>
        <time>2014-04-06T10:29:11Z</time>
      </trkpt>
      <trkpt lat="41.661598440" lon="2.577000030">
        <ele>766.40</ele>
        <time>2014-04-06T10:29:12Z</time>
      </trkpt>
      <trkpt lat="41.661600110" lon="2.576983440">
        <ele>766.20</ele>
        <time>2014-04-06T10:29:13Z</time>
      </trkpt>
      <trkpt lat="41.661603460" lon="2.576970020">
        <ele>766.10</ele>
        <time>2014-04-06T10:29:14Z</time>
      </trkpt>
      <trkpt lat="41.661603460" lon="2.576955100">
        <ele>766.50</ele>
        <time>2014-04-06T10:29:15Z</time>
      </trkpt>
      <trkpt lat="41.661605140" lon="2.576941690">
        <ele>766.90</ele>
        <time>2014-04-06T10:29:16Z</time>
      </trkpt>
      <trkpt lat="41.661606820" lon="2.576925100">
        <ele>767.50</ele>
        <time>2014-04-06T10:29:17Z</time>
      </trkpt>
      <trkpt lat="41.661610000" lon="2.576911690">
        <ele>768.00</ele>
        <time>2014-04-06T10:29:18Z</time>
      </trkpt>
      <trkpt lat="41.661613360" lon="2.576895090">
        <ele>768.30</ele>
        <time>2014-04-06T10:29:19Z</time>
      </trkpt>
      <trkpt lat="41.661615030" lon="2.576876820">
        <ele>768.50</ele>
        <time>2014-04-06T10:29:20Z</time>
      </trkpt>
      <trkpt lat="41.661615030" lon="2.576861730">
        <ele>768.60</ele>
        <time>2014-04-06T10:29:21Z</time>
      </trkpt>
      <trkpt lat="41.661615030" lon="2.576843460">
        <ele>769.10</ele>
        <time>2014-04-06T10:29:22Z</time>
      </trkpt>
      <trkpt lat="41.661613360" lon="2.576826690">
        <ele>769.40</ele>
        <time>2014-04-06T10:29:23Z</time>
      </trkpt>
      <trkpt lat="41.661613360" lon="2.576808420">
        <ele>769.70</ele>
        <time>2014-04-06T10:29:24Z</time>
      </trkpt>
      <trkpt lat="41.661611680" lon="2.576793330">
        <ele>769.90</ele>
        <time>2014-04-06T10:29:25Z</time>
      </trkpt>
      <trkpt lat="41.661610000" lon="2.576775060">
        <ele>770.00</ele>
        <time>2014-04-06T10:29:26Z</time>
      </trkpt>
      <trkpt lat="41.661606820" lon="2.576760140">
        <ele>770.50</ele>
        <time>2014-04-06T10:29:27Z</time>
      </trkpt>
      <trkpt lat="41.661603460" lon="2.576743380">
        <ele>770.90</ele>
        <time>2014-04-06T10:29:28Z</time>
      </trkpt>
      <trkpt lat="41.661598440" lon="2.576725110">
        <ele>771.10</ele>
        <time>2014-04-06T10:29:29Z</time>
      </trkpt>
      <trkpt lat="41.661593410" lon="2.576710020">
        <ele>771.30</ele>
        <time>2014-04-06T10:29:30Z</time>
      </trkpt>
      <trkpt lat="41.661590050" lon="2.576695100">
        <ele>771.40</ele>
        <time>2014-04-06T10:29:31Z</time>
      </trkpt>
      <trkpt lat="41.661586700" lon="2.576680010">
        <ele>771.50</ele>
        <time>2014-04-06T10:29:32Z</time>
      </trkpt>
      <trkpt lat="41.661581670" lon="2.576665090">
        <ele>771.50</ele>
        <time>2014-04-06T10:29:33Z</time>
      </trkpt>
      <trkpt lat="41.661575130" lon="2.576650000">
        <ele>771.40</ele>
        <time>2014-04-06T10:29:34Z</time>
      </trkpt>
      <trkpt lat="41.661570100" lon="2.576635080">
        <ele>771.30</ele>
        <time>2014-04-06T10:29:35Z</time>
      </trkpt>
      <trkpt lat="41.661563400" lon="2.576618490">
        <ele>771.70</ele>
        <time>2014-04-06T10:29:36Z</time>
      </trkpt>
      <trkpt lat="41.661556690" lon="2.576606750">
        <ele>772.00</ele>
        <time>2014-04-06T10:29:37Z</time>
      </trkpt>
      <trkpt lat="41.661550160" lon="2.576600050">
        <ele>772.20</ele>
        <time>2014-04-06T10:29:38Z</time>
      </trkpt>
      <trkpt lat="41.661540100" lon="2.576591670">
        <ele>772.10</ele>
        <time>2014-04-06T10:29:39Z</time>
      </trkpt>
      <trkpt lat="41.661528360" lon="2.576586800">
        <ele>772.10</ele>
        <time>2014-04-06T10:29:40Z</time>
      </trkpt>
      <trkpt lat="41.661518470" lon="2.576581770">
        <ele>772.30</ele>
        <time>2014-04-06T10:29:41Z</time>
      </trkpt>
      <trkpt lat="41.661506740" lon="2.576578420">
        <ele>772.40</ele>
        <time>2014-04-06T10:29:42Z</time>
      </trkpt>
      <trkpt lat="41.661496680" lon="2.576580100">
        <ele>772.40</ele>
        <time>2014-04-06T10:29:43Z</time>
      </trkpt>
      <trkpt lat="41.661486790" lon="2.576585130">
        <ele>772.30</ele>
        <time>2014-04-06T10:29:44Z</time>
      </trkpt>
      <trkpt lat="41.661478410" lon="2.576593340">
        <ele>772.30</ele>
        <time>2014-04-06T10:29:45Z</time>
      </trkpt>
      <trkpt lat="41.661471700" lon="2.576601720">
        <ele>772.40</ele>
        <time>2014-04-06T10:29:46Z</time>
      </trkpt>
      <trkpt lat="41.661465000" lon="2.576610110">
        <ele>772.50</ele>
        <time>2014-04-06T10:29:47Z</time>
      </trkpt>
      <trkpt lat="41.661461810" lon="2.576621670">
        <ele>772.50</ele>
        <time>2014-04-06T10:29:48Z</time>
      </trkpt>
      <trkpt lat="41.661460130" lon="2.576633410">
        <ele>772.50</ele>
        <time>2014-04-06T10:29:49Z</time>
      </trkpt>
      <trkpt lat="41.661458460" lon="2.576643470">
        <ele>772.50</ele>
        <time>2014-04-06T10:29:50Z</time>
      </trkpt>
      <trkpt lat="41.661456780" lon="2.576655030">
        <ele>772.60</ele>
        <time>2014-04-06T10:29:51Z</time>
      </trkpt>
      <trkpt lat="41.661456780" lon="2.576666770">
        <ele>772.20</ele>
        <time>2014-04-06T10:29:52Z</time>
      </trkpt>
      <trkpt lat="41.661453430" lon="2.576673470">
        <ele>772.00</ele>
        <time>2014-04-06T10:29:53Z</time>
      </trkpt>
      <trkpt lat="41.661450080" lon="2.576676830">
        <ele>771.80</ele>
        <time>2014-04-06T10:29:54Z</time>
      </trkpt>
      <trkpt lat="41.661445050" lon="2.576681690">
        <ele>772.10</ele>
        <time>2014-04-06T10:29:55Z</time>
      </trkpt>
      <trkpt lat="41.661441690" lon="2.576685040">
        <ele>772.40</ele>
        <time>2014-04-06T10:29:56Z</time>
      </trkpt>
      <trkpt lat="41.661441690" lon="2.576695100">
        <ele>772.50</ele>
        <time>2014-04-06T10:29:57Z</time>
      </trkpt>
      <trkpt lat="41.661443370" lon="2.576703480">
        <ele>772.30</ele>
        <time>2014-04-06T10:29:58Z</time>
      </trkpt>
      <trkpt lat="41.661445050" lon="2.576708340">
        <ele>772.20</ele>
        <time>2014-04-06T10:29:59Z</time>
      </trkpt>
      <trkpt lat="41.661446720" lon="2.576711690">
        <ele>772.00</ele>
        <time>2014-04-06T10:30:00Z</time>
      </trkpt>
      <trkpt lat="41.661450080" lon="2.576710020">
        <ele>771.80</ele>
        <time>2014-04-06T10:30:01Z</time>
      </trkpt>
      <trkpt lat="41.661450080" lon="2.576708340">
        <ele>771.80</ele>
        <time>2014-04-06T10:30:02Z</time>
      </trkpt>
      <trkpt lat="41.661451750" lon="2.576706670">
        <ele>771.80</ele>
        <time>2014-04-06T10:30:03Z</time>
      </trkpt>
      <trkpt lat="41.661451750" lon="2.576706670">
        <ele>771.70</ele>
        <time>2014-04-06T10:30:04Z</time>
      </trkpt>
      <trkpt lat="41.661451750" lon="2.576706670">
        <ele>771.70</ele>
        <time>2014-04-06T10:30:05Z</time>
      </trkpt>
      <trkpt lat="41.661453430" lon="2.576706670">
        <ele>771.60</ele>
        <time>2014-04-06T10:30:06Z</time>
      </trkpt>
      <trkpt lat="41.661453430" lon="2.576706670">
        <ele>771.20</ele>
        <time>2014-04-06T10:30:07Z</time>
      </trkpt>
      <trkpt lat="41.661453430" lon="2.576706670">
        <ele>771.00</ele>
        <time>2014-04-06T10:30:08Z</time>
      </trkpt>
      <trkpt lat="41.661453430" lon="2.576706670">
        <ele>771.00</ele>
        <time>2014-04-06T10:30:09Z</time>
      </trkpt>
      <trkpt lat="41.661455100" lon="2.576706670">
        <ele>771.00</ele>
        <time>2014-04-06T10:30:10Z</time>
      </trkpt>
      <trkpt lat="41.661455100" lon="2.576706670">
        <ele>771.00</ele>
        <time>2014-04-06T10:30:11Z</time>
      </trkpt>
      <trkpt lat="41.661455100" lon="2.576708340">
        <ele>771.10</ele>
        <time>2014-04-06T10:30:12Z</time>
      </trkpt>
      <trkpt lat="41.661455100" lon="2.576708340">
        <ele>771.30</ele>
        <time>2014-04-06T10:30:13Z</time>
      </trkpt>
      <trkpt lat="41.661456780" lon="2.576710020">
        <ele>771.40</ele>
        <time>2014-04-06T10:30:14Z</time>
      </trkpt>
      <trkpt lat="41.661456780" lon="2.576710020">
        <ele>771.60</ele>
        <time>2014-04-06T10:30:15Z</time>
      </trkpt>
      <trkpt lat="41.661456780" lon="2.576711690">
        <ele>771.70</ele>
        <time>2014-04-06T10:30:16Z</time>
      </trkpt>
      <trkpt lat="41.661456780" lon="2.576711690">
        <ele>771.70</ele>
        <time>2014-04-06T10:30:17Z</time>
      </trkpt>
      <trkpt lat="41.661458460" lon="2.576713370">
        <ele>771.80</ele>
        <time>2014-04-06T10:30:18Z</time>
      </trkpt>
      <trkpt lat="41.661458460" lon="2.576713370">
        <ele>771.80</ele>
        <time>2014-04-06T10:30:19Z</time>
      </trkpt>
      <trkpt lat="41.661458460" lon="2.576715050">
        <ele>771.80</ele>
        <time>2014-04-06T10:30:20Z</time>
      </trkpt>
      <trkpt lat="41.661458460" lon="2.576715050">
        <ele>772.10</ele>
        <time>2014-04-06T10:30:21Z</time>
      </trkpt>
      <trkpt lat="41.661460130" lon="2.576716720">
        <ele>772.40</ele>
        <time>2014-04-06T10:30:22Z</time>
      </trkpt>
      <trkpt lat="41.661460130" lon="2.576716720">
        <ele>772.50</ele>
        <time>2014-04-06T10:30:23Z</time>
      </trkpt>
      <trkpt lat="41.661460130" lon="2.576718400">
        <ele>772.70</ele>
        <time>2014-04-06T10:30:24Z</time>
      </trkpt>
      <trkpt lat="41.661460130" lon="2.576718400">
        <ele>772.90</ele>
        <time>2014-04-06T10:30:25Z</time>
      </trkpt>
      <trkpt lat="41.661461810" lon="2.576720080">
        <ele>772.40</ele>
        <time>2014-04-06T10:30:26Z</time>
      </trkpt>
      <trkpt lat="41.661461810" lon="2.576720080">
        <ele>772.00</ele>
        <time>2014-04-06T10:30:27Z</time>
      </trkpt>
      <trkpt lat="41.661461810" lon="2.576720080">
        <ele>771.70</ele>
        <time>2014-04-06T10:30:28Z</time>
      </trkpt>
      <trkpt lat="41.661463490" lon="2.576721750">
        <ele>771.70</ele>
        <time>2014-04-06T10:30:29Z</time>
      </trkpt>
      <trkpt lat="41.661463490" lon="2.576721750">
        <ele>771.70</ele>
        <time>2014-04-06T10:30:30Z</time>
      </trkpt>
      <trkpt lat="41.661463490" lon="2.576721750">
        <ele>771.70</ele>
        <time>2014-04-06T10:30:31Z</time>
      </trkpt>
      <trkpt lat="41.661465000" lon="2.576721750">
        <ele>771.70</ele>
        <time>2014-04-06T10:30:32Z</time>
      </trkpt>
      <trkpt lat="41.661465000" lon="2.576721750">
        <ele>771.80</ele>
        <time>2014-04-06T10:30:33Z</time>
      </trkpt>
      <trkpt lat="41.661465000" lon="2.576721750">
        <ele>771.90</ele>
        <time>2014-04-06T10:30:34Z</time>
      </trkpt>
      <trkpt lat="41.661466670" lon="2.576721750">
        <ele>771.90</ele>
        <time>2014-04-06T10:30:35Z</time>
      </trkpt>
      <trkpt lat="41.661466670" lon="2.576721750">
        <ele>772.10</ele>
        <time>2014-04-06T10:30:36Z</time>
      </trkpt>
      <trkpt lat="41.661466670" lon="2.576721750">
        <ele>772.20</ele>
        <time>2014-04-06T10:30:37Z</time>
      </trkpt>
      <trkpt lat="41.661468350" lon="2.576721750">
        <ele>772.10</ele>
        <time>2014-04-06T10:30:38Z</time>
      </trkpt>
      <trkpt lat="41.661468350" lon="2.576721750">
        <ele>772.10</ele>
        <time>2014-04-06T10:30:39Z</time>
      </trkpt>
      <trkpt lat="41.661468350" lon="2.576720080">
        <ele>772.30</ele>
        <time>2014-04-06T10:30:40Z</time>
      </trkpt>
      <trkpt lat="41.661470020" lon="2.576720080">
        <ele>772.40</ele>
        <time>2014-04-06T10:30:41Z</time>
      </trkpt>
      <trkpt lat="41.661471700" lon="2.576718400">
        <ele>772.50</ele>
        <time>2014-04-06T10:30:42Z</time>
      </trkpt>
      <trkpt lat="41.661471700" lon="2.576716720">
        <ele>772.30</ele>
        <time>2014-04-06T10:30:43Z</time>
      </trkpt>
      <trkpt lat="41.661473380" lon="2.576715050">
        <ele>772.10</ele>
        <time>2014-04-06T10:30:44Z</time>
      </trkpt>
      <trkpt lat="41.661475050" lon="2.576711690">
        <ele>772.10</ele>
        <time>2014-04-06T10:30:45Z</time>
      </trkpt>
      <trkpt lat="41.661476730" lon="2.576710020">
        <ele>772.10</ele>
        <time>2014-04-06T10:30:46Z</time>
      </trkpt>
      <trkpt lat="41.661476730" lon="2.576708340">
        <ele>771.70</ele>
        <time>2014-04-06T10:30:47Z</time>
      </trkpt>
      <trkpt lat="41.661478410" lon="2.576706670">
        <ele>771.40</ele>
        <time>2014-04-06T10:30:48Z</time>
      </trkpt>
      <trkpt lat="41.661480080" lon="2.576705160">
        <ele>771.20</ele>
        <time>2014-04-06T10:30:49Z</time>
      </trkpt>
      <trkpt lat="41.661480080" lon="2.576703480">
        <ele>771.60</ele>
        <time>2014-04-06T10:30:50Z</time>
      </trkpt>
      <trkpt lat="41.661481760" lon="2.576700130">
        <ele>771.90</ele>
        <time>2014-04-06T10:30:51Z</time>
      </trkpt>
      <trkpt lat="41.661483440" lon="2.576698450">
        <ele>771.80</ele>
        <time>2014-04-06T10:30:52Z</time>
      </trkpt>
      <trkpt lat="41.661483440" lon="2.576696770">
        <ele>771.80</ele>
        <time>2014-04-06T10:30:53Z</time>
      </trkpt>
      <trkpt lat="41.661485110" lon="2.576695100">
        <ele>771.80</ele>
        <time>2014-04-06T10:30:54Z</time>
      </trkpt>
      <trkpt lat="41.661485110" lon="2.576695100">
        <ele>772.10</ele>
        <time>2014-04-06T10:30:55Z</time>
      </trkpt>
      <trkpt lat="41.661486790" lon="2.576693420">
        <ele>772.30</ele>
        <time>2014-04-06T10:30:56Z</time>
      </trkpt>
      <trkpt lat="41.661486790" lon="2.576691750">
        <ele>772.00</ele>
        <time>2014-04-06T10:30:57Z</time>
      </trkpt>
      <trkpt lat="41.661486790" lon="2.576691750">
        <ele>771.70</ele>
        <time>2014-04-06T10:30:58Z</time>
      </trkpt>
      <trkpt lat="41.661488460" lon="2.576690070">
        <ele>771.80</ele>
        <time>2014-04-06T10:30:59Z</time>
      </trkpt>
      <trkpt lat="41.661488460" lon="2.576690070">
        <ele>771.90</ele>
        <time>2014-04-06T10:31:00Z</time>
      </trkpt>
      <trkpt lat="41.661488460" lon="2.576690070">
        <ele>771.90</ele>
        <time>2014-04-06T10:31:01Z</time>
      </trkpt>
      <trkpt lat="41.661488460" lon="2.576690070">
        <ele>771.90</ele>
        <time>2014-04-06T10:31:02Z</time>
      </trkpt>
      <trkpt lat="41.661488460" lon="2.576691750">
        <ele>771.90</ele>
        <time>2014-04-06T10:31:03Z</time>
      </trkpt>
      <trkpt lat="41.661488460" lon="2.576691750">
        <ele>772.20</ele>
        <time>2014-04-06T10:31:04Z</time>
      </trkpt>
      <trkpt lat="41.661488460" lon="2.576693420">
        <ele>772.40</ele>
        <time>2014-04-06T10:31:05Z</time>
      </trkpt>
      <trkpt lat="41.661486790" lon="2.576696770">
        <ele>772.70</ele>
        <time>2014-04-06T10:31:06Z</time>
      </trkpt>
      <trkpt lat="41.661486790" lon="2.576698450">
        <ele>772.90</ele>
        <time>2014-04-06T10:31:07Z</time>
      </trkpt>
      <trkpt lat="41.661485110" lon="2.576700130">
        <ele>773.10</ele>
        <time>2014-04-06T10:31:08Z</time>
      </trkpt>
      <trkpt lat="41.661485110" lon="2.576703480">
        <ele>772.70</ele>
        <time>2014-04-06T10:31:09Z</time>
      </trkpt>
      <trkpt lat="41.661483440" lon="2.576705160">
        <ele>772.50</ele>
        <time>2014-04-06T10:31:10Z</time>
      </trkpt>
      <trkpt lat="41.661483440" lon="2.576708340">
        <ele>772.20</ele>
        <time>2014-04-06T10:31:11Z</time>
      </trkpt>
      <trkpt lat="41.661481760" lon="2.576711690">
        <ele>772.00</ele>
        <time>2014-04-06T10:31:12Z</time>
      </trkpt>
      <trkpt lat="41.661480080" lon="2.576715050">
        <ele>771.90</ele>
        <time>2014-04-06T10:31:13Z</time>
      </trkpt>
      <trkpt lat="41.661478410" lon="2.576716720">
        <ele>771.80</ele>
        <time>2014-04-06T10:31:14Z</time>
      </trkpt>
      <trkpt lat="41.661478410" lon="2.576720080">
        <ele>771.70</ele>
        <time>2014-04-06T10:31:15Z</time>
      </trkpt>
      <trkpt lat="41.661476730" lon="2.576723430">
        <ele>772.10</ele>
        <time>2014-04-06T10:31:16Z</time>
      </trkpt>
      <trkpt lat="41.661475050" lon="2.576726780">
        <ele>772.30</ele>
        <time>2014-04-06T10:31:17Z</time>
      </trkpt>
      <trkpt lat="41.661473380" lon="2.576730130">
        <ele>772.10</ele>
        <time>2014-04-06T10:31:18Z</time>
      </trkpt>
      <trkpt lat="41.661471700" lon="2.576733490">
        <ele>771.90</ele>
        <time>2014-04-06T10:31:19Z</time>
      </trkpt>
      <trkpt lat="41.661470020" lon="2.576736670">
        <ele>771.80</ele>
        <time>2014-04-06T10:31:20Z</time>
      </trkpt>
      <trkpt lat="41.661468350" lon="2.576740030">
        <ele>771.80</ele>
        <time>2014-04-06T10:31:21Z</time>
      </trkpt>
      <trkpt lat="41.661468350" lon="2.576743380">
        <ele>771.70</ele>
        <time>2014-04-06T10:31:22Z</time>
      </trkpt>
      <trkpt lat="41.661466670" lon="2.576745050">
        <ele>771.90</ele>
        <time>2014-04-06T10:31:23Z</time>
      </trkpt>
      <trkpt lat="41.661465000" lon="2.576748410">
        <ele>772.10</ele>
        <time>2014-04-06T10:31:24Z</time>
      </trkpt>
      <trkpt lat="41.661463490" lon="2.576751760">
        <ele>772.10</ele>
        <time>2014-04-06T10:31:25Z</time>
      </trkpt>
      <trkpt lat="41.661461810" lon="2.576755110">
        <ele>772.20</ele>
        <time>2014-04-06T10:31:26Z</time>
      </trkpt>
      <trkpt lat="41.661460130" lon="2.576758470">
        <ele>772.20</ele>
        <time>2014-04-06T10:31:27Z</time>
      </trkpt>
      <trkpt lat="41.661458460" lon="2.576760140">
        <ele>772.10</ele>
        <time>2014-04-06T10:31:28Z</time>
      </trkpt>
      <trkpt lat="41.661456780" lon="2.576763490">
        <ele>772.10</ele>
        <time>2014-04-06T10:31:29Z</time>
      </trkpt>
      <trkpt lat="41.661455100" lon="2.576765000">
        <ele>772.00</ele>
        <time>2014-04-06T10:31:30Z</time>
      </trkpt>
      <trkpt lat="41.661453430" lon="2.576768360">
        <ele>771.90</ele>
        <time>2014-04-06T10:31:31Z</time>
      </trkpt>
      <trkpt lat="41.661453430" lon="2.576770030">
        <ele>771.90</ele>
        <time>2014-04-06T10:31:32Z</time>
      </trkpt>
      <trkpt lat="41.661451750" lon="2.576773390">
        <ele>771.80</ele>
        <time>2014-04-06T10:31:33Z</time>
      </trkpt>
      <trkpt lat="41.661450080" lon="2.576775060">
        <ele>771.80</ele>
        <time>2014-04-06T10:31:34Z</time>
      </trkpt>
      <trkpt lat="41.661448400" lon="2.576776740">
        <ele>771.80</ele>
        <time>2014-04-06T10:31:35Z</time>
      </trkpt>
      <trkpt lat="41.661446720" lon="2.576778410">
        <ele>771.70</ele>
        <time>2014-04-06T10:31:36Z</time>
      </trkpt>
      <trkpt lat="41.661446720" lon="2.576780090">
        <ele>771.70</ele>
        <time>2014-04-06T10:31:37Z</time>
      </trkpt>
      <trkpt lat="41.661445050" lon="2.576781770">
        <ele>771.70</ele>
        <time>2014-04-06T10:31:38Z</time>
      </trkpt>
      <trkpt lat="41.661443370" lon="2.576783440">
        <ele>771.70</ele>
        <time>2014-04-06T10:31:39Z</time>
      </trkpt>
      <trkpt lat="41.661443370" lon="2.576785120">
        <ele>771.70</ele>
        <time>2014-04-06T10:31:40Z</time>
      </trkpt>
      <trkpt lat="41.661441690" lon="2.576785120">
        <ele>771.60</ele>
        <time>2014-04-06T10:31:41Z</time>
      </trkpt>
      <trkpt lat="41.661440020" lon="2.576786800">
        <ele>771.60</ele>
        <time>2014-04-06T10:31:42Z</time>
      </trkpt>
      <trkpt lat="41.661440020" lon="2.576788470">
        <ele>771.60</ele>
        <time>2014-04-06T10:31:43Z</time>
      </trkpt>
      <trkpt lat="41.661438340" lon="2.576790150">
        <ele>771.50</ele>
        <time>2014-04-06T10:31:44Z</time>
      </trkpt>
      <trkpt lat="41.661438340" lon="2.576790150">
        <ele>771.50</ele>
        <time>2014-04-06T10:31:45Z</time>
      </trkpt>
      <trkpt lat="41.661438340" lon="2.576791830">
        <ele>771.40</ele>
        <time>2014-04-06T10:31:46Z</time>
      </trkpt>
      <trkpt lat="41.661436660" lon="2.576791830">
        <ele>771.70</ele>
        <time>2014-04-06T10:31:47Z</time>
      </trkpt>
      <trkpt lat="41.661436660" lon="2.576791830">
        <ele>771.90</ele>
        <time>2014-04-06T10:31:48Z</time>
      </trkpt>
      <trkpt lat="41.661436660" lon="2.576793330">
        <ele>771.90</ele>
        <time>2014-04-06T10:31:49Z</time>
      </trkpt>
      <trkpt lat="41.661435160" lon="2.576793330">
        <ele>772.00</ele>
        <time>2014-04-06T10:31:50Z</time>
      </trkpt>
      <trkpt lat="41.661435160" lon="2.576793330">
        <ele>772.00</ele>
        <time>2014-04-06T10:31:51Z</time>
      </trkpt>
      <trkpt lat="41.661435160" lon="2.576791830">
        <ele>772.20</ele>
        <time>2014-04-06T10:31:52Z</time>
      </trkpt>
      <trkpt lat="41.661435160" lon="2.576791830">
        <ele>772.40</ele>
        <time>2014-04-06T10:31:53Z</time>
      </trkpt>
      <trkpt lat="41.661435160" lon="2.576791830">
        <ele>771.90</ele>
        <time>2014-04-06T10:31:54Z</time>
      </trkpt>
      <trkpt lat="41.661433480" lon="2.576790150">
        <ele>771.60</ele>
        <time>2014-04-06T10:31:55Z</time>
      </trkpt>
      <trkpt lat="41.661433480" lon="2.576790150">
        <ele>772.00</ele>
        <time>2014-04-06T10:31:56Z</time>
      </trkpt>
      <trkpt lat="41.661433480" lon="2.576788470">
        <ele>772.30</ele>
        <time>2014-04-06T10:31:57Z</time>
      </trkpt>
      <trkpt lat="41.661433480" lon="2.576786800">
        <ele>772.60</ele>
        <time>2014-04-06T10:31:58Z</time>
      </trkpt>
      <trkpt lat="41.661433480" lon="2.576786800">
        <ele>772.40</ele>
        <time>2014-04-06T10:31:59Z</time>
      </trkpt>
      <trkpt lat="41.661433480" lon="2.576785120">
        <ele>772.20</ele>
        <time>2014-04-06T10:32:00Z</time>
      </trkpt>
      <trkpt lat="41.661433480" lon="2.576785120">
        <ele>772.00</ele>
        <time>2014-04-06T10:32:01Z</time>
      </trkpt>
      <trkpt lat="41.661435160" lon="2.576783440">
        <ele>771.90</ele>
        <time>2014-04-06T10:32:02Z</time>
      </trkpt>
      <trkpt lat="41.661435160" lon="2.576783440">
        <ele>771.90</ele>
        <time>2014-04-06T10:32:03Z</time>
      </trkpt>
      <trkpt lat="41.661435160" lon="2.576781770">
        <ele>771.80</ele>
        <time>2014-04-06T10:32:04Z</time>
      </trkpt>
      <trkpt lat="41.661435160" lon="2.576781770">
        <ele>771.80</ele>
        <time>2014-04-06T10:32:05Z</time>
      </trkpt>
      <trkpt lat="41.661436660" lon="2.576780090">
        <ele>772.00</ele>
        <time>2014-04-06T10:32:06Z</time>
      </trkpt>
      <trkpt lat="41.661436660" lon="2.576780090">
        <ele>772.10</ele>
        <time>2014-04-06T10:32:07Z</time>
      </trkpt>
      <trkpt lat="41.661438340" lon="2.576780090">
        <ele>771.90</ele>
        <time>2014-04-06T10:32:08Z</time>
      </trkpt>
      <trkpt lat="41.661438340" lon="2.576778410">
        <ele>771.80</ele>
        <time>2014-04-06T10:32:09Z</time>
      </trkpt>
      <trkpt lat="41.661440020" lon="2.576778410">
        <ele>771.70</ele>
        <time>2014-04-06T10:32:10Z</time>
      </trkpt>
      <trkpt lat="41.661440020" lon="2.576778410">
        <ele>771.70</ele>
        <time>2014-04-06T10:32:11Z</time>
      </trkpt>
      <trkpt lat="41.661441690" lon="2.576778410">
        <ele>771.70</ele>
        <time>2014-04-06T10:32:12Z</time>
      </trkpt>
      <trkpt lat="41.661441690" lon="2.576776740">
        <ele>771.30</ele>
        <time>2014-04-06T10:32:13Z</time>
      </trkpt>
      <trkpt lat="41.661443370" lon="2.576776740">
        <ele>771.10</ele>
        <time>2014-04-06T10:32:14Z</time>
      </trkpt>
      <trkpt lat="41.661443370" lon="2.576776740">
        <ele>770.80</ele>
        <time>2014-04-06T10:32:15Z</time>
      </trkpt>
      <trkpt lat="41.661445050" lon="2.576775060">
        <ele>770.50</ele>
        <time>2014-04-06T10:32:16Z</time>
      </trkpt>
      <trkpt lat="41.661445050" lon="2.576775060">
        <ele>770.30</ele>
        <time>2014-04-06T10:32:17Z</time>
      </trkpt>
      <trkpt lat="41.661445050" lon="2.576775060">
        <ele>770.40</ele>
        <time>2014-04-06T10:32:18Z</time>
      </trkpt>
      <trkpt lat="41.661446720" lon="2.576773390">
        <ele>770.40</ele>
        <time>2014-04-06T10:32:19Z</time>
      </trkpt>
      <trkpt lat="41.661446720" lon="2.576771710">
        <ele>770.80</ele>
        <time>2014-04-06T10:32:20Z</time>
      </trkpt>
      <trkpt lat="41.661448400" lon="2.576771710">
        <ele>771.10</ele>
        <time>2014-04-06T10:32:21Z</time>
      </trkpt>
      <trkpt lat="41.661448400" lon="2.576770030">
        <ele>771.30</ele>
        <time>2014-04-06T10:32:22Z</time>
      </trkpt>
      <trkpt lat="41.661448400" lon="2.576768360">
        <ele>771.50</ele>
        <time>2014-04-06T10:32:23Z</time>
      </trkpt>
      <trkpt lat="41.661450080" lon="2.576768360">
        <ele>771.70</ele>
        <time>2014-04-06T10:32:24Z</time>
      </trkpt>
      <trkpt lat="41.661450080" lon="2.576766680">
        <ele>771.60</ele>
        <time>2014-04-06T10:32:25Z</time>
      </trkpt>
      <trkpt lat="41.661450080" lon="2.576766680">
        <ele>771.60</ele>
        <time>2014-04-06T10:32:26Z</time>
      </trkpt>
      <trkpt lat="41.661450080" lon="2.576766680">
        <ele>771.00</ele>
        <time>2014-04-06T10:32:27Z</time>
      </trkpt>
      <trkpt lat="41.661450080" lon="2.576768360">
        <ele>770.60</ele>
        <time>2014-04-06T10:32:28Z</time>
      </trkpt>
      <trkpt lat="41.661450080" lon="2.576770030">
        <ele>770.50</ele>
        <time>2014-04-06T10:32:29Z</time>
      </trkpt>
      <trkpt lat="41.661450080" lon="2.576773390">
        <ele>770.50</ele>
        <time>2014-04-06T10:32:30Z</time>
      </trkpt>
      <trkpt lat="41.661438340" lon="2.576803390">
        <ele>770.40</ele>
        <time>2014-04-06T10:32:31Z</time>
      </trkpt>
      <trkpt lat="41.661436660" lon="2.576810100">
        <ele>770.50</ele>
        <time>2014-04-06T10:32:32Z</time>
      </trkpt>
      <trkpt lat="41.661435160" lon="2.576813450">
        <ele>770.60</ele>
        <time>2014-04-06T10:32:33Z</time>
      </trkpt>
      <trkpt lat="41.661435160" lon="2.576818480">
        <ele>770.90</ele>
        <time>2014-04-06T10:32:34Z</time>
      </trkpt>
      <trkpt lat="41.661433480" lon="2.576823340">
        <ele>771.20</ele>
        <time>2014-04-06T10:32:35Z</time>
      </trkpt>
      <trkpt lat="41.661433480" lon="2.576826690">
        <ele>771.40</ele>
        <time>2014-04-06T10:32:36Z</time>
      </trkpt>
      <trkpt lat="41.661431800" lon="2.576828370">
        <ele>771.60</ele>
        <time>2014-04-06T10:32:37Z</time>
      </trkpt>
      <trkpt lat="41.661431800" lon="2.576833400">
        <ele>771.70</ele>
        <time>2014-04-06T10:32:38Z</time>
      </trkpt>
      <trkpt lat="41.661431800" lon="2.576836750">
        <ele>771.90</ele>
        <time>2014-04-06T10:32:39Z</time>
      </trkpt>
      <trkpt lat="41.661430130" lon="2.576838430">
        <ele>772.00</ele>
        <time>2014-04-06T10:32:40Z</time>
      </trkpt>
      <trkpt lat="41.661430130" lon="2.576841780">
        <ele>771.60</ele>
        <time>2014-04-06T10:32:41Z</time>
      </trkpt>
      <trkpt lat="41.661430130" lon="2.576845130">
        <ele>771.30</ele>
        <time>2014-04-06T10:32:42Z</time>
      </trkpt>
      <trkpt lat="41.661430130" lon="2.576846810">
        <ele>771.10</ele>
        <time>2014-04-06T10:32:43Z</time>
      </trkpt>
      <trkpt lat="41.661430130" lon="2.576848490">
        <ele>771.30</ele>
        <time>2014-04-06T10:32:44Z</time>
      </trkpt>
      <trkpt lat="41.661428450" lon="2.576850000">
        <ele>771.40</ele>
        <time>2014-04-06T10:32:45Z</time>
      </trkpt>
      <trkpt lat="41.661428450" lon="2.576853350">
        <ele>771.30</ele>
        <time>2014-04-06T10:32:46Z</time>
      </trkpt>
      <trkpt lat="41.661428450" lon="2.576855020">
        <ele>771.10</ele>
        <time>2014-04-06T10:32:47Z</time>
      </trkpt>
      <trkpt lat="41.661428450" lon="2.576856700">
        <ele>771.00</ele>
        <time>2014-04-06T10:32:48Z</time>
      </trkpt>
      <trkpt lat="41.661428450" lon="2.576856700">
        <ele>771.40</ele>
        <time>2014-04-06T10:32:49Z</time>
      </trkpt>
      <trkpt lat="41.661428450" lon="2.576858380">
        <ele>771.70</ele>
        <time>2014-04-06T10:32:50Z</time>
      </trkpt>
      <trkpt lat="41.661428450" lon="2.576860050">
        <ele>771.40</ele>
        <time>2014-04-06T10:32:51Z</time>
      </trkpt>
      <trkpt lat="41.661428450" lon="2.576861730">
        <ele>771.10</ele>
        <time>2014-04-06T10:32:52Z</time>
      </trkpt>
      <trkpt lat="41.661428450" lon="2.576863410">
        <ele>771.60</ele>
        <time>2014-04-06T10:32:53Z</time>
      </trkpt>
      <trkpt lat="41.661428450" lon="2.576865080">
        <ele>772.00</ele>
        <time>2014-04-06T10:32:54Z</time>
      </trkpt>
      <trkpt lat="41.661426770" lon="2.576865080">
        <ele>772.30</ele>
        <time>2014-04-06T10:32:55Z</time>
      </trkpt>
      <trkpt lat="41.661426770" lon="2.576866760">
        <ele>772.00</ele>
        <time>2014-04-06T10:32:56Z</time>
      </trkpt>
      <trkpt lat="41.661425100" lon="2.576870110">
        <ele>771.80</ele>
        <time>2014-04-06T10:32:57Z</time>
      </trkpt>
      <trkpt lat="41.661423420" lon="2.576871790">
        <ele>771.80</ele>
        <time>2014-04-06T10:32:58Z</time>
      </trkpt>
      <trkpt lat="41.661421740" lon="2.576873470">
        <ele>771.80</ele>
        <time>2014-04-06T10:32:59Z</time>
      </trkpt>
      <trkpt lat="41.661420070" lon="2.576876820">
        <ele>771.30</ele>
        <time>2014-04-06T10:33:00Z</time>
      </trkpt>
      <trkpt lat="41.661420070" lon="2.576878490">
        <ele>771.00</ele>
        <time>2014-04-06T10:33:01Z</time>
      </trkpt>
      <trkpt lat="41.661418390" lon="2.576880000">
        <ele>770.80</ele>
        <time>2014-04-06T10:33:02Z</time>
      </trkpt>
      <trkpt lat="41.661418390" lon="2.576881680">
        <ele>770.70</ele>
        <time>2014-04-06T10:33:03Z</time>
      </trkpt>
      <trkpt lat="41.661416720" lon="2.576883360">
        <ele>770.70</ele>
        <time>2014-04-06T10:33:04Z</time>
      </trkpt>
      <trkpt lat="41.661415040" lon="2.576885030">
        <ele>770.90</ele>
        <time>2014-04-06T10:33:05Z</time>
      </trkpt>
      <trkpt lat="41.661415040" lon="2.576886710">
        <ele>771.00</ele>
        <time>2014-04-06T10:33:06Z</time>
      </trkpt>
      <trkpt lat="41.661413360" lon="2.576888380">
        <ele>770.70</ele>
        <time>2014-04-06T10:33:07Z</time>
      </trkpt>
      <trkpt lat="41.661413360" lon="2.576888380">
        <ele>770.50</ele>
        <time>2014-04-06T10:33:08Z</time>
      </trkpt>
      <trkpt lat="41.661411690" lon="2.576890060">
        <ele>770.30</ele>
        <time>2014-04-06T10:33:09Z</time>
      </trkpt>
      <trkpt lat="41.661411690" lon="2.576890060">
        <ele>770.00</ele>
        <time>2014-04-06T10:33:10Z</time>
      </trkpt>
      <trkpt lat="41.661411690" lon="2.576890060">
        <ele>769.70</ele>
        <time>2014-04-06T10:33:11Z</time>
      </trkpt>
      <trkpt lat="41.661411690" lon="2.576888380">
        <ele>769.90</ele>
        <time>2014-04-06T10:33:12Z</time>
      </trkpt>
      <trkpt lat="41.661413360" lon="2.576885030">
        <ele>770.00</ele>
        <time>2014-04-06T10:33:13Z</time>
      </trkpt>
      <trkpt lat="41.661413360" lon="2.576881680">
        <ele>770.10</ele>
        <time>2014-04-06T10:33:14Z</time>
      </trkpt>
      <trkpt lat="41.661415040" lon="2.576880000">
        <ele>770.30</ele>
        <time>2014-04-06T10:33:15Z</time>
      </trkpt>
      <trkpt lat="41.661416720" lon="2.576878490">
        <ele>770.50</ele>
        <time>2014-04-06T10:33:16Z</time>
      </trkpt>
      <trkpt lat="41.661418390" lon="2.576873470">
        <ele>770.40</ele>
        <time>2014-04-06T10:33:17Z</time>
      </trkpt>
      <trkpt lat="41.661420070" lon="2.576870110">
        <ele>770.40</ele>
        <time>2014-04-06T10:33:18Z</time>
      </trkpt>
      <trkpt lat="41.661423420" lon="2.576865080">
        <ele>770.60</ele>
        <time>2014-04-06T10:33:19Z</time>
      </trkpt>
      <trkpt lat="41.661426770" lon="2.576858380">
        <ele>770.70</ele>
        <time>2014-04-06T10:33:20Z</time>
      </trkpt>
      <trkpt lat="41.661430130" lon="2.576851670">
        <ele>770.80</ele>
        <time>2014-04-06T10:33:21Z</time>
      </trkpt>
      <trkpt lat="41.661433480" lon="2.576846810">
        <ele>770.40</ele>
        <time>2014-04-06T10:33:22Z</time>
      </trkpt>
      <trkpt lat="41.661435160" lon="2.576840110">
        <ele>770.10</ele>
        <time>2014-04-06T10:33:23Z</time>
      </trkpt>
      <trkpt lat="41.661438340" lon="2.576833400">
        <ele>770.50</ele>
        <time>2014-04-06T10:33:24Z</time>
      </trkpt>
      <trkpt lat="41.661441690" lon="2.576826690">
        <ele>770.70</ele>
        <time>2014-04-06T10:33:25Z</time>
      </trkpt>
      <trkpt lat="41.661445050" lon="2.576823340">
        <ele>771.00</ele>
        <time>2014-04-06T10:33:26Z</time>
      </trkpt>
      <trkpt lat="41.661446720" lon="2.576818480">
        <ele>771.20</ele>
        <time>2014-04-06T10:33:27Z</time>
      </trkpt>
      <trkpt lat="41.661448400" lon="2.576815130">
        <ele>771.40</ele>
        <time>2014-04-06T10:33:28Z</time>
      </trkpt>
      <trkpt lat="41.661451750" lon="2.576810100">
        <ele>771.20</ele>
        <time>2014-04-06T10:33:29Z</time>
      </trkpt>
      <trkpt lat="41.661453430" lon="2.576806750">
        <ele>771.10</ele>
        <time>2014-04-06T10:33:30Z</time>
      </trkpt>
      <trkpt lat="41.661455100" lon="2.576803390">
        <ele>770.80</ele>
        <time>2014-04-06T10:33:31Z</time>
      </trkpt>
      <trkpt lat="41.661458460" lon="2.576800040">
        <ele>770.60</ele>
        <time>2014-04-06T10:33:32Z</time>
      </trkpt>
      <trkpt lat="41.661460130" lon="2.576796690">
        <ele>770.40</ele>
        <time>2014-04-06T10:33:33Z</time>
      </trkpt>
      <trkpt lat="41.661461810" lon="2.576793330">
        <ele>770.30</ele>
        <time>2014-04-06T10:33:34Z</time>
      </trkpt>
      <trkpt lat="41.661463490" lon="2.576790150">
        <ele>770.20</ele>
        <time>2014-04-06T10:33:35Z</time>
      </trkpt>
      <trkpt lat="41.661465000" lon="2.576788470">
        <ele>770.30</ele>
        <time>2014-04-06T10:33:36Z</time>
      </trkpt>
      <trkpt lat="41.661466670" lon="2.576786800">
        <ele>770.40</ele>
        <time>2014-04-06T10:33:37Z</time>
      </trkpt>
      <trkpt lat="41.661468350" lon="2.576783440">
        <ele>770.60</ele>
        <time>2014-04-06T10:33:38Z</time>
      </trkpt>
      <trkpt lat="41.661468350" lon="2.576781770">
        <ele>770.70</ele>
        <time>2014-04-06T10:33:39Z</time>
      </trkpt>
      <trkpt lat="41.661470020" lon="2.576780090">
        <ele>770.80</ele>
        <time>2014-04-06T10:33:40Z</time>
      </trkpt>
      <trkpt lat="41.661471700" lon="2.576778410">
        <ele>770.70</ele>
        <time>2014-04-06T10:33:41Z</time>
      </trkpt>
      <trkpt lat="41.661473380" lon="2.576776740">
        <ele>770.50</ele>
        <time>2014-04-06T10:33:42Z</time>
      </trkpt>
      <trkpt lat="41.661475050" lon="2.576775060">
        <ele>770.50</ele>
        <time>2014-04-06T10:33:43Z</time>
      </trkpt>
      <trkpt lat="41.661475050" lon="2.576773390">
        <ele>770.50</ele>
        <time>2014-04-06T10:33:44Z</time>
      </trkpt>
      <trkpt lat="41.661476730" lon="2.576771710">
        <ele>770.60</ele>
        <time>2014-04-06T10:33:45Z</time>
      </trkpt>
      <trkpt lat="41.661476730" lon="2.576770030">
        <ele>770.70</ele>
        <time>2014-04-06T10:33:46Z</time>
      </trkpt>
      <trkpt lat="41.661478410" lon="2.576768360">
        <ele>770.70</ele>
        <time>2014-04-06T10:33:47Z</time>
      </trkpt>
      <trkpt lat="41.661478410" lon="2.576766680">
        <ele>771.20</ele>
        <time>2014-04-06T10:33:48Z</time>
      </trkpt>
      <trkpt lat="41.661480080" lon="2.576766680">
        <ele>771.60</ele>
        <time>2014-04-06T10:33:49Z</time>
      </trkpt>
      <trkpt lat="41.661481760" lon="2.576765000">
        <ele>771.30</ele>
        <time>2014-04-06T10:33:50Z</time>
      </trkpt>
      <trkpt lat="41.661481760" lon="2.576763490">
        <ele>771.20</ele>
        <time>2014-04-06T10:33:51Z</time>
      </trkpt>
      <trkpt lat="41.661483440" lon="2.576761820">
        <ele>771.10</ele>
        <time>2014-04-06T10:33:52Z</time>
      </trkpt>
      <trkpt lat="41.661483440" lon="2.576760140">
        <ele>771.10</ele>
        <time>2014-04-06T10:33:53Z</time>
      </trkpt>
      <trkpt lat="41.661483440" lon="2.576760140">
        <ele>771.10</ele>
        <time>2014-04-06T10:33:54Z</time>
      </trkpt>
      <trkpt lat="41.661485110" lon="2.576758470">
        <ele>771.00</ele>
        <time>2014-04-06T10:33:55Z</time>
      </trkpt>
      <trkpt lat="41.661485110" lon="2.576758470">
        <ele>770.90</ele>
        <time>2014-04-06T10:33:56Z</time>
      </trkpt>
      <trkpt lat="41.661486790" lon="2.576756790">
        <ele>770.80</ele>
        <time>2014-04-06T10:33:57Z</time>
      </trkpt>
      <trkpt lat="41.661486790" lon="2.576756790">
        <ele>770.80</ele>
        <time>2014-04-06T10:33:58Z</time>
      </trkpt>
      <trkpt lat="41.661486790" lon="2.576755110">
        <ele>770.70</ele>
        <time>2014-04-06T10:33:59Z</time>
      </trkpt>
      <trkpt lat="41.661486790" lon="2.576755110">
        <ele>770.70</ele>
        <time>2014-04-06T10:34:00Z</time>
      </trkpt>
      <trkpt lat="41.661488460" lon="2.576755110">
        <ele>770.70</ele>
        <time>2014-04-06T10:34:01Z</time>
      </trkpt>
      <trkpt lat="41.661488460" lon="2.576755110">
        <ele>770.50</ele>
        <time>2014-04-06T10:34:02Z</time>
      </trkpt>
      <trkpt lat="41.661488460" lon="2.576755110">
        <ele>770.40</ele>
        <time>2014-04-06T10:34:03Z</time>
      </trkpt>
      <trkpt lat="41.661488460" lon="2.576755110">
        <ele>770.10</ele>
        <time>2014-04-06T10:34:04Z</time>
      </trkpt>
      <trkpt lat="41.661490140" lon="2.576753440">
        <ele>769.80</ele>
        <time>2014-04-06T10:34:05Z</time>
      </trkpt>
      <trkpt lat="41.661490140" lon="2.576753440">
        <ele>769.70</ele>
        <time>2014-04-06T10:34:06Z</time>
      </trkpt>
      <trkpt lat="41.661491820" lon="2.576753440">
        <ele>770.30</ele>
        <time>2014-04-06T10:34:07Z</time>
      </trkpt>
      <trkpt lat="41.661491820" lon="2.576753440">
        <ele>770.70</ele>
        <time>2014-04-06T10:34:08Z</time>
      </trkpt>
      <trkpt lat="41.661490140" lon="2.576751760">
        <ele>771.10</ele>
        <time>2014-04-06T10:34:09Z</time>
      </trkpt>
      <trkpt lat="41.661490140" lon="2.576751760">
        <ele>771.40</ele>
        <time>2014-04-06T10:34:10Z</time>
      </trkpt>
      <trkpt lat="41.661490140" lon="2.576751760">
        <ele>771.60</ele>
        <time>2014-04-06T10:34:11Z</time>
      </trkpt>
      <trkpt lat="41.661490140" lon="2.576751760">
        <ele>771.70</ele>
        <time>2014-04-06T10:34:12Z</time>
      </trkpt>
      <trkpt lat="41.661490140" lon="2.576751760">
        <ele>771.80</ele>
        <time>2014-04-06T10:34:13Z</time>
      </trkpt>
      <trkpt lat="41.661491820" lon="2.576751760">
        <ele>771.30</ele>
        <time>2014-04-06T10:34:14Z</time>
      </trkpt>
      <trkpt lat="41.661491820" lon="2.576751760">
        <ele>771.00</ele>
        <time>2014-04-06T10:34:15Z</time>
      </trkpt>
      <trkpt lat="41.661491820" lon="2.576751760">
        <ele>771.00</ele>
        <time>2014-04-06T10:34:16Z</time>
      </trkpt>
      <trkpt lat="41.661491820" lon="2.576751760">
        <ele>771.00</ele>
        <time>2014-04-06T10:34:17Z</time>
      </trkpt>
      <trkpt lat="41.661491820" lon="2.576751760">
        <ele>771.00</ele>
        <time>2014-04-06T10:34:18Z</time>
      </trkpt>
      <trkpt lat="41.661490140" lon="2.576751760">
        <ele>771.00</ele>
        <time>2014-04-06T10:34:19Z</time>
      </trkpt>
      <trkpt lat="41.661490140" lon="2.576751760">
        <ele>771.10</ele>
        <time>2014-04-06T10:34:20Z</time>
      </trkpt>
      <trkpt lat="41.661490140" lon="2.576750080">
        <ele>771.20</ele>
        <time>2014-04-06T10:34:21Z</time>
      </trkpt>
      <trkpt lat="41.661490140" lon="2.576750080">
        <ele>771.30</ele>
        <time>2014-04-06T10:34:22Z</time>
      </trkpt>
      <trkpt lat="41.661490140" lon="2.576750080">
        <ele>771.40</ele>
        <time>2014-04-06T10:34:23Z</time>
      </trkpt>
      <trkpt lat="41.661490140" lon="2.576750080">
        <ele>771.40</ele>
        <time>2014-04-06T10:34:24Z</time>
      </trkpt>
      <trkpt lat="41.661490140" lon="2.576750080">
        <ele>771.50</ele>
        <time>2014-04-06T10:34:25Z</time>
      </trkpt>
      <trkpt lat="41.661490140" lon="2.576750080">
        <ele>771.60</ele>
        <time>2014-04-06T10:34:26Z</time>
      </trkpt>
      <trkpt lat="41.661490140" lon="2.576751760">
        <ele>771.70</ele>
        <time>2014-04-06T10:34:27Z</time>
      </trkpt>
      <trkpt lat="41.661490140" lon="2.576751760">
        <ele>771.60</ele>
        <time>2014-04-06T10:34:28Z</time>
      </trkpt>
      <trkpt lat="41.661490140" lon="2.576751760">
        <ele>771.50</ele>
        <time>2014-04-06T10:34:29Z</time>
      </trkpt>
      <trkpt lat="41.661488460" lon="2.576751760">
        <ele>771.50</ele>
        <time>2014-04-06T10:34:30Z</time>
      </trkpt>
      <trkpt lat="41.661488460" lon="2.576753440">
        <ele>771.40</ele>
        <time>2014-04-06T10:34:31Z</time>
      </trkpt>
      <trkpt lat="41.661488460" lon="2.576753440">
        <ele>771.30</ele>
        <time>2014-04-06T10:34:32Z</time>
      </trkpt>
      <trkpt lat="41.661486790" lon="2.576753440">
        <ele>771.30</ele>
        <time>2014-04-06T10:34:33Z</time>
      </trkpt>
      <trkpt lat="41.661486790" lon="2.576753440">
        <ele>771.40</ele>
        <time>2014-04-06T10:34:34Z</time>
      </trkpt>
      <trkpt lat="41.661485110" lon="2.576753440">
        <ele>771.60</ele>
        <time>2014-04-06T10:34:35Z</time>
      </trkpt>
      <trkpt lat="41.661485110" lon="2.576751760">
        <ele>771.70</ele>
        <time>2014-04-06T10:34:36Z</time>
      </trkpt>
      <trkpt lat="41.661483440" lon="2.576751760">
        <ele>771.80</ele>
        <time>2014-04-06T10:34:37Z</time>
      </trkpt>
      <trkpt lat="41.661481760" lon="2.576755110">
        <ele>771.50</ele>
        <time>2014-04-06T10:34:38Z</time>
      </trkpt>
      <trkpt lat="41.661480080" lon="2.576756790">
        <ele>771.30</ele>
        <time>2014-04-06T10:34:39Z</time>
      </trkpt>
      <trkpt lat="41.661480080" lon="2.576756790">
        <ele>771.30</ele>
        <time>2014-04-06T10:34:40Z</time>
      </trkpt>
      <trkpt lat="41.661478410" lon="2.576758470">
        <ele>771.30</ele>
        <time>2014-04-06T10:34:41Z</time>
      </trkpt>
      <trkpt lat="41.661476730" lon="2.576760140">
        <ele>770.90</ele>
        <time>2014-04-06T10:34:42Z</time>
      </trkpt>
      <trkpt lat="41.661475050" lon="2.576765000">
        <ele>770.60</ele>
        <time>2014-04-06T10:34:43Z</time>
      </trkpt>
      <trkpt lat="41.661473380" lon="2.576768360">
        <ele>770.30</ele>
        <time>2014-04-06T10:34:44Z</time>
      </trkpt>
      <trkpt lat="41.661471700" lon="2.576770030">
        <ele>770.70</ele>
        <time>2014-04-06T10:34:45Z</time>
      </trkpt>
      <trkpt lat="41.661470020" lon="2.576773390">
        <ele>771.00</ele>
        <time>2014-04-06T10:34:46Z</time>
      </trkpt>
      <trkpt lat="41.661468350" lon="2.576776740">
        <ele>771.20</ele>
        <time>2014-04-06T10:34:47Z</time>
      </trkpt>
      <trkpt lat="41.661466670" lon="2.576776740">
        <ele>771.30</ele>
        <time>2014-04-06T10:34:48Z</time>
      </trkpt>
      <trkpt lat="41.661466670" lon="2.576780090">
        <ele>771.40</ele>
        <time>2014-04-06T10:34:49Z</time>
      </trkpt>
      <trkpt lat="41.661465000" lon="2.576781770">
        <ele>771.20</ele>
        <time>2014-04-06T10:34:50Z</time>
      </trkpt>
      <trkpt lat="41.661463490" lon="2.576783440">
        <ele>771.10</ele>
        <time>2014-04-06T10:34:51Z</time>
      </trkpt>
      <trkpt lat="41.661463490" lon="2.576786800">
        <ele>771.10</ele>
        <time>2014-04-06T10:34:52Z</time>
      </trkpt>
      <trkpt lat="41.661461810" lon="2.576790150">
        <ele>771.10</ele>
        <time>2014-04-06T10:34:53Z</time>
      </trkpt>
      <trkpt lat="41.661460130" lon="2.576791830">
        <ele>771.20</ele>
        <time>2014-04-06T10:34:54Z</time>
      </trkpt>
      <trkpt lat="41.661460130" lon="2.576793330">
        <ele>771.20</ele>
        <time>2014-04-06T10:34:55Z</time>
      </trkpt>
      <trkpt lat="41.661458460" lon="2.576795010">
        <ele>771.30</ele>
        <time>2014-04-06T10:34:56Z</time>
      </trkpt>
      <trkpt lat="41.661458460" lon="2.576798360">
        <ele>771.30</ele>
        <time>2014-04-06T10:34:57Z</time>
      </trkpt>
      <trkpt lat="41.661456780" lon="2.576800040">
        <ele>771.30</ele>
        <time>2014-04-06T10:34:58Z</time>
      </trkpt>
      <trkpt lat="41.661456780" lon="2.576801720">
        <ele>771.70</ele>
        <time>2014-04-06T10:34:59Z</time>
      </trkpt>
      <trkpt lat="41.661455100" lon="2.576803390">
        <ele>772.00</ele>
        <time>2014-04-06T10:35:00Z</time>
      </trkpt>
      <trkpt lat="41.661455100" lon="2.576806750">
        <ele>771.70</ele>
        <time>2014-04-06T10:35:01Z</time>
      </trkpt>
      <trkpt lat="41.661453430" lon="2.576808420">
        <ele>771.50</ele>
        <time>2014-04-06T10:35:02Z</time>
      </trkpt>
      <trkpt lat="41.661453430" lon="2.576811770">
        <ele>771.40</ele>
        <time>2014-04-06T10:35:03Z</time>
      </trkpt>
      <trkpt lat="41.661453430" lon="2.576813450">
        <ele>771.30</ele>
        <time>2014-04-06T10:35:04Z</time>
      </trkpt>
      <trkpt lat="41.661451750" lon="2.576816800">
        <ele>771.20</ele>
        <time>2014-04-06T10:35:05Z</time>
      </trkpt>
      <trkpt lat="41.661450080" lon="2.576820160">
        <ele>771.10</ele>
        <time>2014-04-06T10:35:06Z</time>
      </trkpt>
      <trkpt lat="41.661450080" lon="2.576825020">
        <ele>771.10</ele>
        <time>2014-04-06T10:35:07Z</time>
      </trkpt>
      <trkpt lat="41.661448400" lon="2.576828370">
        <ele>771.00</ele>
        <time>2014-04-06T10:35:08Z</time>
      </trkpt>
      <trkpt lat="41.661448400" lon="2.576831720">
        <ele>770.90</ele>
        <time>2014-04-06T10:35:09Z</time>
      </trkpt>
      <trkpt lat="41.661448400" lon="2.576831720">
        <ele>770.70</ele>
        <time>2014-04-06T10:35:10Z</time>
      </trkpt>
      <trkpt lat="41.661448400" lon="2.576830050">
        <ele>770.70</ele>
        <time>2014-04-06T10:35:11Z</time>
      </trkpt>
      <trkpt lat="41.661448400" lon="2.576830050">
        <ele>770.70</ele>
        <time>2014-04-06T10:35:12Z</time>
      </trkpt>
      <trkpt lat="41.661448400" lon="2.576830050">
        <ele>771.10</ele>
        <time>2014-04-06T10:35:13Z</time>
      </trkpt>
      <trkpt lat="41.661448400" lon="2.576828370">
        <ele>771.30</ele>
        <time>2014-04-06T10:35:14Z</time>
      </trkpt>
      <trkpt lat="41.661450080" lon="2.576821660">
        <ele>771.50</ele>
        <time>2014-04-06T10:35:15Z</time>
      </trkpt>
      <trkpt lat="41.661453430" lon="2.576815130">
        <ele>771.50</ele>
        <time>2014-04-06T10:35:16Z</time>
      </trkpt>
      <trkpt lat="41.661455100" lon="2.576806750">
        <ele>771.50</ele>
        <time>2014-04-06T10:35:17Z</time>
      </trkpt>
      <trkpt lat="41.661456780" lon="2.576801720">
        <ele>771.50</ele>
        <time>2014-04-06T10:35:18Z</time>
      </trkpt>
      <trkpt lat="41.661458460" lon="2.576796690">
        <ele>771.60</ele>
        <time>2014-04-06T10:35:19Z</time>
      </trkpt>
      <trkpt lat="41.661460130" lon="2.576790150">
        <ele>771.60</ele>
        <time>2014-04-06T10:35:20Z</time>
      </trkpt>
      <trkpt lat="41.661461810" lon="2.576785120">
        <ele>771.60</ele>
        <time>2014-04-06T10:35:21Z</time>
      </trkpt>
      <trkpt lat="41.661463490" lon="2.576780090">
        <ele>771.60</ele>
        <time>2014-04-06T10:35:22Z</time>
      </trkpt>
      <trkpt lat="41.661463490" lon="2.576775060">
        <ele>771.90</ele>
        <time>2014-04-06T10:35:23Z</time>
      </trkpt>
      <trkpt lat="41.661465000" lon="2.576770030">
        <ele>772.10</ele>
        <time>2014-04-06T10:35:24Z</time>
      </trkpt>
      <trkpt lat="41.661465000" lon="2.576766680">
        <ele>771.90</ele>
        <time>2014-04-06T10:35:25Z</time>
      </trkpt>
      <trkpt lat="41.661466670" lon="2.576763490">
        <ele>771.80</ele>
        <time>2014-04-06T10:35:26Z</time>
      </trkpt>
      <trkpt lat="41.661468350" lon="2.576758470">
        <ele>771.70</ele>
        <time>2014-04-06T10:35:27Z</time>
      </trkpt>
      <trkpt lat="41.661468350" lon="2.576755110">
        <ele>771.70</ele>
        <time>2014-04-06T10:35:28Z</time>
      </trkpt>
      <trkpt lat="41.661470020" lon="2.576751760">
        <ele>771.60</ele>
        <time>2014-04-06T10:35:29Z</time>
      </trkpt>
      <trkpt lat="41.661470020" lon="2.576748410">
        <ele>771.40</ele>
        <time>2014-04-06T10:35:30Z</time>
      </trkpt>
      <trkpt lat="41.661470020" lon="2.576745050">
        <ele>771.30</ele>
        <time>2014-04-06T10:35:31Z</time>
      </trkpt>
      <trkpt lat="41.661471700" lon="2.576741700">
        <ele>771.80</ele>
        <time>2014-04-06T10:35:32Z</time>
      </trkpt>
      <trkpt lat="41.661471700" lon="2.576738350">
        <ele>772.10</ele>
        <time>2014-04-06T10:35:33Z</time>
      </trkpt>
      <trkpt lat="41.661471700" lon="2.576735000">
        <ele>772.40</ele>
        <time>2014-04-06T10:35:34Z</time>
      </trkpt>
      <trkpt lat="41.661473380" lon="2.576731810">
        <ele>772.30</ele>
        <time>2014-04-06T10:35:35Z</time>
      </trkpt>
      <trkpt lat="41.661473380" lon="2.576728460">
        <ele>772.20</ele>
        <time>2014-04-06T10:35:36Z</time>
      </trkpt>
      <trkpt lat="41.661473380" lon="2.576726780">
        <ele>771.80</ele>
        <time>2014-04-06T10:35:37Z</time>
      </trkpt>
      <trkpt lat="41.661475050" lon="2.576723430">
        <ele>771.50</ele>
        <time>2014-04-06T10:35:38Z</time>
      </trkpt>
      <trkpt lat="41.661475050" lon="2.576720080">
        <ele>771.60</ele>
        <time>2014-04-06T10:35:39Z</time>
      </trkpt>
      <trkpt lat="41.661475050" lon="2.576715050">
        <ele>771.80</ele>
        <time>2014-04-06T10:35:40Z</time>
      </trkpt>
      <trkpt lat="41.661476730" lon="2.576713370">
        <ele>771.80</ele>
        <time>2014-04-06T10:35:41Z</time>
      </trkpt>
      <trkpt lat="41.661476730" lon="2.576710020">
        <ele>771.40</ele>
        <time>2014-04-06T10:35:42Z</time>
      </trkpt>
      <trkpt lat="41.661478410" lon="2.576705160">
        <ele>771.10</ele>
        <time>2014-04-06T10:35:43Z</time>
      </trkpt>
      <trkpt lat="41.661478410" lon="2.576703480">
        <ele>771.40</ele>
        <time>2014-04-06T10:35:44Z</time>
      </trkpt>
      <trkpt lat="41.661478410" lon="2.576701800">
        <ele>771.60</ele>
        <time>2014-04-06T10:35:45Z</time>
      </trkpt>
      <trkpt lat="41.661480080" lon="2.576700130">
        <ele>771.70</ele>
        <time>2014-04-06T10:35:46Z</time>
      </trkpt>
      <trkpt lat="41.661480080" lon="2.576696770">
        <ele>772.20</ele>
        <time>2014-04-06T10:35:47Z</time>
      </trkpt>
      <trkpt lat="41.661481760" lon="2.576695100">
        <ele>772.50</ele>
        <time>2014-04-06T10:35:48Z</time>
      </trkpt>
      <trkpt lat="41.661481760" lon="2.576693420">
        <ele>772.20</ele>
        <time>2014-04-06T10:35:49Z</time>
      </trkpt>
      <trkpt lat="41.661481760" lon="2.576690070">
        <ele>771.90</ele>
        <time>2014-04-06T10:35:50Z</time>
      </trkpt>
      <trkpt lat="41.661483440" lon="2.576688390">
        <ele>771.70</ele>
        <time>2014-04-06T10:35:51Z</time>
      </trkpt>
      <trkpt lat="41.661483440" lon="2.576686720">
        <ele>771.60</ele>
        <time>2014-04-06T10:35:52Z</time>
      </trkpt>
      <trkpt lat="41.661481760" lon="2.576685040">
        <ele>771.40</ele>
        <time>2014-04-06T10:35:53Z</time>
      </trkpt>
      <trkpt lat="41.661481760" lon="2.576683360">
        <ele>771.80</ele>
        <time>2014-04-06T10:35:54Z</time>
      </trkpt>
      <trkpt lat="41.661481760" lon="2.576681690">
        <ele>772.00</ele>
        <time>2014-04-06T10:35:55Z</time>
      </trkpt>
      <trkpt lat="41.661480080" lon="2.576681690">
        <ele>771.80</ele>
        <time>2014-04-06T10:35:56Z</time>
      </trkpt>
      <trkpt lat="41.661480080" lon="2.576680010">
        <ele>771.70</ele>
        <time>2014-04-06T10:35:57Z</time>
      </trkpt>
      <trkpt lat="41.661478410" lon="2.576681690">
        <ele>771.90</ele>
        <time>2014-04-06T10:35:58Z</time>
      </trkpt>
      <trkpt lat="41.661476730" lon="2.576681690">
        <ele>772.10</ele>
        <time>2014-04-06T10:35:59Z</time>
      </trkpt>
      <trkpt lat="41.661475050" lon="2.576683360">
        <ele>772.30</ele>
        <time>2014-04-06T10:36:00Z</time>
      </trkpt>
      <trkpt lat="41.661475050" lon="2.576683360">
        <ele>772.20</ele>
        <time>2014-04-06T10:36:01Z</time>
      </trkpt>
      <trkpt lat="41.661473380" lon="2.576685040">
        <ele>772.20</ele>
        <time>2014-04-06T10:36:02Z</time>
      </trkpt>
      <trkpt lat="41.661471700" lon="2.576686720">
        <ele>772.10</ele>
        <time>2014-04-06T10:36:03Z</time>
      </trkpt>
      <trkpt lat="41.661471700" lon="2.576686720">
        <ele>772.00</ele>
        <time>2014-04-06T10:36:04Z</time>
      </trkpt>
      <trkpt lat="41.661471700" lon="2.576688390">
        <ele>772.00</ele>
        <time>2014-04-06T10:36:05Z</time>
      </trkpt>
      <trkpt lat="41.661470020" lon="2.576688390">
        <ele>772.00</ele>
        <time>2014-04-06T10:36:06Z</time>
      </trkpt>
      <trkpt lat="41.661468350" lon="2.576690070">
        <ele>772.00</ele>
        <time>2014-04-06T10:36:07Z</time>
      </trkpt>
      <trkpt lat="41.661468350" lon="2.576691750">
        <ele>772.00</ele>
        <time>2014-04-06T10:36:08Z</time>
      </trkpt>
      <trkpt lat="41.661466670" lon="2.576693420">
        <ele>772.00</ele>
        <time>2014-04-06T10:36:09Z</time>
      </trkpt>
      <trkpt lat="41.661466670" lon="2.576693420">
        <ele>772.00</ele>
        <time>2014-04-06T10:36:10Z</time>
      </trkpt>
      <trkpt lat="41.661465000" lon="2.576696770">
        <ele>772.10</ele>
        <time>2014-04-06T10:36:11Z</time>
      </trkpt>
      <trkpt lat="41.661465000" lon="2.576700130">
        <ele>772.10</ele>
        <time>2014-04-06T10:36:12Z</time>
      </trkpt>
      <trkpt lat="41.661463490" lon="2.576701800">
        <ele>772.10</ele>
        <time>2014-04-06T10:36:13Z</time>
      </trkpt>
      <trkpt lat="41.661463490" lon="2.576705160">
        <ele>772.10</ele>
        <time>2014-04-06T10:36:14Z</time>
      </trkpt>
      <trkpt lat="41.661461810" lon="2.576706670">
        <ele>772.20</ele>
        <time>2014-04-06T10:36:15Z</time>
      </trkpt>
      <trkpt lat="41.661461810" lon="2.576708340">
        <ele>772.30</ele>
        <time>2014-04-06T10:36:16Z</time>
      </trkpt>
      <trkpt lat="41.661461810" lon="2.576710020">
        <ele>772.40</ele>
        <time>2014-04-06T10:36:17Z</time>
      </trkpt>
      <trkpt lat="41.661461810" lon="2.576711690">
        <ele>772.60</ele>
        <time>2014-04-06T10:36:18Z</time>
      </trkpt>
      <trkpt lat="41.661460130" lon="2.576713370">
        <ele>772.70</ele>
        <time>2014-04-06T10:36:19Z</time>
      </trkpt>
      <trkpt lat="41.661460130" lon="2.576715050">
        <ele>772.70</ele>
        <time>2014-04-06T10:36:20Z</time>
      </trkpt>
      <trkpt lat="41.661460130" lon="2.576716720">
        <ele>772.70</ele>
        <time>2014-04-06T10:36:21Z</time>
      </trkpt>
      <trkpt lat="41.661460130" lon="2.576718400">
        <ele>772.60</ele>
        <time>2014-04-06T10:36:22Z</time>
      </trkpt>
      <trkpt lat="41.661458460" lon="2.576720080">
        <ele>772.60</ele>
        <time>2014-04-06T10:36:23Z</time>
      </trkpt>
      <trkpt lat="41.661458460" lon="2.576721750">
        <ele>772.60</ele>
        <time>2014-04-06T10:36:24Z</time>
      </trkpt>
      <trkpt lat="41.661458460" lon="2.576723430">
        <ele>772.60</ele>
        <time>2014-04-06T10:36:25Z</time>
      </trkpt>
      <trkpt lat="41.661458460" lon="2.576723430">
        <ele>772.60</ele>
        <time>2014-04-06T10:36:26Z</time>
      </trkpt>
      <trkpt lat="41.661458460" lon="2.576725110">
        <ele>772.50</ele>
        <time>2014-04-06T10:36:27Z</time>
      </trkpt>
      <trkpt lat="41.661458460" lon="2.576726780">
        <ele>772.40</ele>
        <time>2014-04-06T10:36:28Z</time>
      </trkpt>
      <trkpt lat="41.661458460" lon="2.576726780">
        <ele>772.50</ele>
        <time>2014-04-06T10:36:29Z</time>
      </trkpt>
      <trkpt lat="41.661458460" lon="2.576728460">
        <ele>772.50</ele>
        <time>2014-04-06T10:36:30Z</time>
      </trkpt>
      <trkpt lat="41.661458460" lon="2.576730130">
        <ele>772.50</ele>
        <time>2014-04-06T10:36:31Z</time>
      </trkpt>
      <trkpt lat="41.661458460" lon="2.576731810">
        <ele>772.50</ele>
        <time>2014-04-06T10:36:32Z</time>
      </trkpt>
      <trkpt lat="41.661458460" lon="2.576733490">
        <ele>772.40</ele>
        <time>2014-04-06T10:36:33Z</time>
      </trkpt>
      <trkpt lat="41.661458460" lon="2.576733490">
        <ele>772.40</ele>
        <time>2014-04-06T10:36:34Z</time>
      </trkpt>
      <trkpt lat="41.661458460" lon="2.576735000">
        <ele>772.40</ele>
        <time>2014-04-06T10:36:35Z</time>
      </trkpt>
      <trkpt lat="41.661458460" lon="2.576736670">
        <ele>772.20</ele>
        <time>2014-04-06T10:36:36Z</time>
      </trkpt>
      <trkpt lat="41.661458460" lon="2.576736670">
        <ele>772.00</ele>
        <time>2014-04-06T10:36:37Z</time>
      </trkpt>
      <trkpt lat="41.661458460" lon="2.576738350">
        <ele>771.90</ele>
        <time>2014-04-06T10:36:38Z</time>
      </trkpt>
      <trkpt lat="41.661458460" lon="2.576738350">
        <ele>772.10</ele>
        <time>2014-04-06T10:36:39Z</time>
      </trkpt>
      <trkpt lat="41.661458460" lon="2.576738350">
        <ele>772.30</ele>
        <time>2014-04-06T10:36:40Z</time>
      </trkpt>
      <trkpt lat="41.661460130" lon="2.576740030">
        <ele>772.40</ele>
        <time>2014-04-06T10:36:41Z</time>
      </trkpt>
      <trkpt lat="41.661460130" lon="2.576740030">
        <ele>772.50</ele>
        <time>2014-04-06T10:36:42Z</time>
      </trkpt>
      <trkpt lat="41.661460130" lon="2.576741700">
        <ele>772.60</ele>
        <time>2014-04-06T10:36:43Z</time>
      </trkpt>
      <trkpt lat="41.661460130" lon="2.576741700">
        <ele>772.50</ele>
        <time>2014-04-06T10:36:44Z</time>
      </trkpt>
      <trkpt lat="41.661460130" lon="2.576743380">
        <ele>772.50</ele>
        <time>2014-04-06T10:36:45Z</time>
      </trkpt>
      <trkpt lat="41.661460130" lon="2.576743380">
        <ele>772.60</ele>
        <time>2014-04-06T10:36:46Z</time>
      </trkpt>
      <trkpt lat="41.661460130" lon="2.576743380">
        <ele>772.60</ele>
        <time>2014-04-06T10:36:47Z</time>
      </trkpt>
      <trkpt lat="41.661460130" lon="2.576745050">
        <ele>772.60</ele>
        <time>2014-04-06T10:36:48Z</time>
      </trkpt>
      <trkpt lat="41.661460130" lon="2.576746730">
        <ele>772.60</ele>
        <time>2014-04-06T10:36:49Z</time>
      </trkpt>
      <trkpt lat="41.661460130" lon="2.576748410">
        <ele>772.60</ele>
        <time>2014-04-06T10:36:50Z</time>
      </trkpt>
      <trkpt lat="41.661460130" lon="2.576748410">
        <ele>772.20</ele>
        <time>2014-04-06T10:36:51Z</time>
      </trkpt>
      <trkpt lat="41.661460130" lon="2.576750080">
        <ele>771.90</ele>
        <time>2014-04-06T10:36:52Z</time>
      </trkpt>
      <trkpt lat="41.661460130" lon="2.576751760">
        <ele>771.70</ele>
        <time>2014-04-06T10:36:53Z</time>
      </trkpt>
      <trkpt lat="41.661460130" lon="2.576751760">
        <ele>771.60</ele>
        <time>2014-04-06T10:36:54Z</time>
      </trkpt>
      <trkpt lat="41.661461810" lon="2.576753440">
        <ele>771.90</ele>
        <time>2014-04-06T10:36:55Z</time>
      </trkpt>
      <trkpt lat="41.661461810" lon="2.576753440">
        <ele>772.20</ele>
        <time>2014-04-06T10:36:56Z</time>
      </trkpt>
      <trkpt lat="41.661461810" lon="2.576753440">
        <ele>772.30</ele>
        <time>2014-04-06T10:36:57Z</time>
      </trkpt>
      <trkpt lat="41.661461810" lon="2.576755110">
        <ele>772.40</ele>
        <time>2014-04-06T10:36:58Z</time>
      </trkpt>
      <trkpt lat="41.661461810" lon="2.576758470">
        <ele>772.50</ele>
        <time>2014-04-06T10:36:59Z</time>
      </trkpt>
      <trkpt lat="41.661461810" lon="2.576760140">
        <ele>772.50</ele>
        <time>2014-04-06T10:37:00Z</time>
      </trkpt>
      <trkpt lat="41.661460130" lon="2.576763490">
        <ele>772.50</ele>
        <time>2014-04-06T10:37:01Z</time>
      </trkpt>
      <trkpt lat="41.661460130" lon="2.576765000">
        <ele>772.60</ele>
        <time>2014-04-06T10:37:02Z</time>
      </trkpt>
      <trkpt lat="41.661458460" lon="2.576768360">
        <ele>772.70</ele>
        <time>2014-04-06T10:37:03Z</time>
      </trkpt>
      <trkpt lat="41.661458460" lon="2.576770030">
        <ele>772.80</ele>
        <time>2014-04-06T10:37:04Z</time>
      </trkpt>
      <trkpt lat="41.661456780" lon="2.576773390">
        <ele>772.60</ele>
        <time>2014-04-06T10:37:05Z</time>
      </trkpt>
      <trkpt lat="41.661456780" lon="2.576776740">
        <ele>772.60</ele>
        <time>2014-04-06T10:37:06Z</time>
      </trkpt>
      <trkpt lat="41.661455100" lon="2.576780090">
        <ele>772.50</ele>
        <time>2014-04-06T10:37:07Z</time>
      </trkpt>
      <trkpt lat="41.661453430" lon="2.576783440">
        <ele>772.40</ele>
        <time>2014-04-06T10:37:08Z</time>
      </trkpt>
      <trkpt lat="41.661451750" lon="2.576786800">
        <ele>772.40</ele>
        <time>2014-04-06T10:37:09Z</time>
      </trkpt>
      <trkpt lat="41.661450080" lon="2.576788470">
        <ele>772.50</ele>
        <time>2014-04-06T10:37:10Z</time>
      </trkpt>
      <trkpt lat="41.661448400" lon="2.576790150">
        <ele>772.50</ele>
        <time>2014-04-06T10:37:11Z</time>
      </trkpt>
      <trkpt lat="41.661446720" lon="2.576791830">
        <ele>772.50</ele>
        <time>2014-04-06T10:37:12Z</time>
      </trkpt>
      <trkpt lat="41.661445050" lon="2.576793330">
        <ele>772.50</ele>
        <time>2014-04-06T10:37:13Z</time>
      </trkpt>
      <trkpt lat="41.661443370" lon="2.576795010">
        <ele>772.70</ele>
        <time>2014-04-06T10:37:14Z</time>
      </trkpt>
      <trkpt lat="41.661441690" lon="2.576796690">
        <ele>772.70</ele>
        <time>2014-04-06T10:37:15Z</time>
      </trkpt>
      <trkpt lat="41.661438340" lon="2.576798360">
        <ele>772.80</ele>
        <time>2014-04-06T10:37:16Z</time>
      </trkpt>
      <trkpt lat="41.661436660" lon="2.576801720">
        <ele>772.50</ele>
        <time>2014-04-06T10:37:17Z</time>
      </trkpt>
      <trkpt lat="41.661435160" lon="2.576803390">
        <ele>772.20</ele>
        <time>2014-04-06T10:37:18Z</time>
      </trkpt>
      <trkpt lat="41.661433480" lon="2.576805070">
        <ele>772.30</ele>
        <time>2014-04-06T10:37:19Z</time>
      </trkpt>
      <trkpt lat="41.661431800" lon="2.576806750">
        <ele>772.30</ele>
        <time>2014-04-06T10:37:20Z</time>
      </trkpt>
      <trkpt lat="41.661431800" lon="2.576808420">
        <ele>772.40</ele>
        <time>2014-04-06T10:37:21Z</time>
      </trkpt>
      <trkpt lat="41.661431800" lon="2.576810100">
        <ele>772.50</ele>
        <time>2014-04-06T10:37:22Z</time>
      </trkpt>
      <trkpt lat="41.661430130" lon="2.576810100">
        <ele>772.60</ele>
        <time>2014-04-06T10:37:23Z</time>
      </trkpt>
      <trkpt lat="41.661428450" lon="2.576811770">
        <ele>772.60</ele>
        <time>2014-04-06T10:37:24Z</time>
      </trkpt>
      <trkpt lat="41.661428450" lon="2.576813450">
        <ele>772.60</ele>
        <time>2014-04-06T10:37:25Z</time>
      </trkpt>
      <trkpt lat="41.661428450" lon="2.576815130">
        <ele>772.50</ele>
        <time>2014-04-06T10:37:26Z</time>
      </trkpt>
      <trkpt lat="41.661426770" lon="2.576815130">
        <ele>772.40</ele>
        <time>2014-04-06T10:37:27Z</time>
      </trkpt>
      <trkpt lat="41.661425100" lon="2.576816800">
        <ele>772.30</ele>
        <time>2014-04-06T10:37:28Z</time>
      </trkpt>
      <trkpt lat="41.661425100" lon="2.576820160">
        <ele>772.10</ele>
        <time>2014-04-06T10:37:29Z</time>
      </trkpt>
      <trkpt lat="41.661423420" lon="2.576821660">
        <ele>772.00</ele>
        <time>2014-04-06T10:37:30Z</time>
      </trkpt>
      <trkpt lat="41.661423420" lon="2.576823340">
        <ele>772.20</ele>
        <time>2014-04-06T10:37:31Z</time>
      </trkpt>
      <trkpt lat="41.661423420" lon="2.576825020">
        <ele>772.30</ele>
        <time>2014-04-06T10:37:32Z</time>
      </trkpt>
      <trkpt lat="41.661423420" lon="2.576826690">
        <ele>772.30</ele>
        <time>2014-04-06T10:37:33Z</time>
      </trkpt>
      <trkpt lat="41.661425100" lon="2.576828370">
        <ele>772.30</ele>
        <time>2014-04-06T10:37:34Z</time>
      </trkpt>
      <trkpt lat="41.661425100" lon="2.576830050">
        <ele>772.30</ele>
        <time>2014-04-06T10:37:35Z</time>
      </trkpt>
      <trkpt lat="41.661426770" lon="2.576833400">
        <ele>772.20</ele>
        <time>2014-04-06T10:37:36Z</time>
      </trkpt>
      <trkpt lat="41.661426770" lon="2.576835080">
        <ele>772.10</ele>
        <time>2014-04-06T10:37:37Z</time>
      </trkpt>
      <trkpt lat="41.661428450" lon="2.576836750">
        <ele>772.40</ele>
        <time>2014-04-06T10:37:38Z</time>
      </trkpt>
      <trkpt lat="41.661428450" lon="2.576838430">
        <ele>772.70</ele>
        <time>2014-04-06T10:37:39Z</time>
      </trkpt>
      <trkpt lat="41.661430130" lon="2.576841780">
        <ele>772.90</ele>
        <time>2014-04-06T10:37:40Z</time>
      </trkpt>
      <trkpt lat="41.661430130" lon="2.576843460">
        <ele>772.80</ele>
        <time>2014-04-06T10:37:41Z</time>
      </trkpt>
      <trkpt lat="41.661431800" lon="2.576845130">
        <ele>772.80</ele>
        <time>2014-04-06T10:37:42Z</time>
      </trkpt>
      <trkpt lat="41.661433480" lon="2.576846810">
        <ele>772.70</ele>
        <time>2014-04-06T10:37:43Z</time>
      </trkpt>
      <trkpt lat="41.661433480" lon="2.576848490">
        <ele>772.60</ele>
        <time>2014-04-06T10:37:44Z</time>
      </trkpt>
      <trkpt lat="41.661435160" lon="2.576850000">
        <ele>772.60</ele>
        <time>2014-04-06T10:37:45Z</time>
      </trkpt>
      <trkpt lat="41.661435160" lon="2.576851670">
        <ele>772.50</ele>
        <time>2014-04-06T10:37:46Z</time>
      </trkpt>
      <trkpt lat="41.661436660" lon="2.576853350">
        <ele>772.40</ele>
        <time>2014-04-06T10:37:47Z</time>
      </trkpt>
      <trkpt lat="41.661436660" lon="2.576855020">
        <ele>772.30</ele>
        <time>2014-04-06T10:37:48Z</time>
      </trkpt>
      <trkpt lat="41.661436660" lon="2.576856700">
        <ele>772.30</ele>
        <time>2014-04-06T10:37:49Z</time>
      </trkpt>
      <trkpt lat="41.661436660" lon="2.576858380">
        <ele>772.20</ele>
        <time>2014-04-06T10:37:50Z</time>
      </trkpt>
      <trkpt lat="41.661436660" lon="2.576858380">
        <ele>772.20</ele>
        <time>2014-04-06T10:37:51Z</time>
      </trkpt>
      <trkpt lat="41.661436660" lon="2.576860050">
        <ele>772.20</ele>
        <time>2014-04-06T10:37:52Z</time>
      </trkpt>
      <trkpt lat="41.661436660" lon="2.576860050">
        <ele>772.20</ele>
        <time>2014-04-06T10:37:53Z</time>
      </trkpt>
      <trkpt lat="41.661436660" lon="2.576861730">
        <ele>772.20</ele>
        <time>2014-04-06T10:37:54Z</time>
      </trkpt>
      <trkpt lat="41.661436660" lon="2.576861730">
        <ele>772.30</ele>
        <time>2014-04-06T10:37:55Z</time>
      </trkpt>
      <trkpt lat="41.661436660" lon="2.576861730">
        <ele>772.40</ele>
        <time>2014-04-06T10:37:56Z</time>
      </trkpt>
      <trkpt lat="41.661436660" lon="2.576861730">
        <ele>772.30</ele>
        <time>2014-04-06T10:37:57Z</time>
      </trkpt>
      <trkpt lat="41.661436660" lon="2.576860050">
        <ele>772.30</ele>
        <time>2014-04-06T10:37:58Z</time>
      </trkpt>
      <trkpt lat="41.661435160" lon="2.576860050">
        <ele>772.30</ele>
        <time>2014-04-06T10:37:59Z</time>
      </trkpt>
      <trkpt lat="41.661435160" lon="2.576860050">
        <ele>772.30</ele>
        <time>2014-04-06T10:38:00Z</time>
      </trkpt>
      <trkpt lat="41.661435160" lon="2.576858380">
        <ele>772.30</ele>
        <time>2014-04-06T10:38:01Z</time>
      </trkpt>
      <trkpt lat="41.661435160" lon="2.576858380">
        <ele>772.80</ele>
        <time>2014-04-06T10:38:02Z</time>
      </trkpt>
      <trkpt lat="41.661433480" lon="2.576856700">
        <ele>773.10</ele>
        <time>2014-04-06T10:38:03Z</time>
      </trkpt>
      <trkpt lat="41.661433480" lon="2.576856700">
        <ele>772.60</ele>
        <time>2014-04-06T10:38:04Z</time>
      </trkpt>
      <trkpt lat="41.661433480" lon="2.576856700">
        <ele>772.30</ele>
        <time>2014-04-06T10:38:05Z</time>
      </trkpt>
      <trkpt lat="41.661433480" lon="2.576855020">
        <ele>772.00</ele>
        <time>2014-04-06T10:38:06Z</time>
      </trkpt>
      <trkpt lat="41.661431800" lon="2.576855020">
        <ele>772.10</ele>
        <time>2014-04-06T10:38:07Z</time>
      </trkpt>
      <trkpt lat="41.661431800" lon="2.576853350">
        <ele>772.20</ele>
        <time>2014-04-06T10:38:08Z</time>
      </trkpt>
      <trkpt lat="41.661431800" lon="2.576853350">
        <ele>772.20</ele>
        <time>2014-04-06T10:38:09Z</time>
      </trkpt>
      <trkpt lat="41.661431800" lon="2.576851670">
        <ele>772.30</ele>
        <time>2014-04-06T10:38:10Z</time>
      </trkpt>
      <trkpt lat="41.661430130" lon="2.576851670">
        <ele>772.30</ele>
        <time>2014-04-06T10:38:11Z</time>
      </trkpt>
      <trkpt lat="41.661430130" lon="2.576851670">
        <ele>772.30</ele>
        <time>2014-04-06T10:38:12Z</time>
      </trkpt>
      <trkpt lat="41.661430130" lon="2.576850000">
        <ele>772.30</ele>
        <time>2014-04-06T10:38:13Z</time>
      </trkpt>
      <trkpt lat="41.661430130" lon="2.576850000">
        <ele>772.50</ele>
        <time>2014-04-06T10:38:14Z</time>
      </trkpt>
      <trkpt lat="41.661430130" lon="2.576848490">
        <ele>772.60</ele>
        <time>2014-04-06T10:38:15Z</time>
      </trkpt>
      <trkpt lat="41.661430130" lon="2.576848490">
        <ele>772.70</ele>
        <time>2014-04-06T10:38:16Z</time>
      </trkpt>
      <trkpt lat="41.661430130" lon="2.576848490">
        <ele>772.80</ele>
        <time>2014-04-06T10:38:17Z</time>
      </trkpt>
      <trkpt lat="41.661430130" lon="2.576846810">
        <ele>772.60</ele>
        <time>2014-04-06T10:38:18Z</time>
      </trkpt>
      <trkpt lat="41.661430130" lon="2.576846810">
        <ele>772.40</ele>
        <time>2014-04-06T10:38:19Z</time>
      </trkpt>
      <trkpt lat="41.661430130" lon="2.576846810">
        <ele>772.30</ele>
        <time>2014-04-06T10:38:20Z</time>
      </trkpt>
      <trkpt lat="41.661430130" lon="2.576845130">
        <ele>772.10</ele>
        <time>2014-04-06T10:38:21Z</time>
      </trkpt>
      <trkpt lat="41.661430130" lon="2.576845130">
        <ele>771.90</ele>
        <time>2014-04-06T10:38:22Z</time>
      </trkpt>
      <trkpt lat="41.661430130" lon="2.576845130">
        <ele>772.00</ele>
        <time>2014-04-06T10:38:23Z</time>
      </trkpt>
      <trkpt lat="41.661430130" lon="2.576843460">
        <ele>772.10</ele>
        <time>2014-04-06T10:38:24Z</time>
      </trkpt>
      <trkpt lat="41.661430130" lon="2.576843460">
        <ele>772.20</ele>
        <time>2014-04-06T10:38:25Z</time>
      </trkpt>
      <trkpt lat="41.661430130" lon="2.576843460">
        <ele>771.90</ele>
        <time>2014-04-06T10:38:26Z</time>
      </trkpt>
      <trkpt lat="41.661430130" lon="2.576841780">
        <ele>771.70</ele>
        <time>2014-04-06T10:38:27Z</time>
      </trkpt>
      <trkpt lat="41.661431800" lon="2.576841780">
        <ele>772.10</ele>
        <time>2014-04-06T10:38:28Z</time>
      </trkpt>
      <trkpt lat="41.661431800" lon="2.576841780">
        <ele>772.30</ele>
        <time>2014-04-06T10:38:29Z</time>
      </trkpt>
      <trkpt lat="41.661431800" lon="2.576841780">
        <ele>772.10</ele>
        <time>2014-04-06T10:38:30Z</time>
      </trkpt>
      <trkpt lat="41.661431800" lon="2.576840110">
        <ele>772.00</ele>
        <time>2014-04-06T10:38:31Z</time>
      </trkpt>
      <trkpt lat="41.661431800" lon="2.576840110">
        <ele>771.90</ele>
        <time>2014-04-06T10:38:32Z</time>
      </trkpt>
      <trkpt lat="41.661431800" lon="2.576840110">
        <ele>771.70</ele>
        <time>2014-04-06T10:38:33Z</time>
      </trkpt>
      <trkpt lat="41.661431800" lon="2.576840110">
        <ele>771.60</ele>
        <time>2014-04-06T10:38:34Z</time>
      </trkpt>
      <trkpt lat="41.661431800" lon="2.576838430">
        <ele>771.90</ele>
        <time>2014-04-06T10:38:35Z</time>
      </trkpt>
      <trkpt lat="41.661431800" lon="2.576838430">
        <ele>772.10</ele>
        <time>2014-04-06T10:38:36Z</time>
      </trkpt>
      <trkpt lat="41.661431800" lon="2.576838430">
        <ele>772.10</ele>
        <time>2014-04-06T10:38:37Z</time>
      </trkpt>
      <trkpt lat="41.661431800" lon="2.576838430">
        <ele>772.00</ele>
        <time>2014-04-06T10:38:38Z</time>
      </trkpt>
      <trkpt lat="41.661431800" lon="2.576836750">
        <ele>772.00</ele>
        <time>2014-04-06T10:38:39Z</time>
      </trkpt>
      <trkpt lat="41.661433480" lon="2.576836750">
        <ele>772.00</ele>
        <time>2014-04-06T10:38:40Z</time>
      </trkpt>
      <trkpt lat="41.661433480" lon="2.576835080">
        <ele>772.00</ele>
        <time>2014-04-06T10:38:41Z</time>
      </trkpt>
      <trkpt lat="41.661435160" lon="2.576833400">
        <ele>771.80</ele>
        <time>2014-04-06T10:38:42Z</time>
      </trkpt>
      <trkpt lat="41.661435160" lon="2.576831720">
        <ele>771.70</ele>
        <time>2014-04-06T10:38:43Z</time>
      </trkpt>
      <trkpt lat="41.661435160" lon="2.576831720">
        <ele>771.60</ele>
        <time>2014-04-06T10:38:44Z</time>
      </trkpt>
      <trkpt lat="41.661436660" lon="2.576830050">
        <ele>771.80</ele>
        <time>2014-04-06T10:38:45Z</time>
      </trkpt>
      <trkpt lat="41.661436660" lon="2.576830050">
        <ele>771.90</ele>
        <time>2014-04-06T10:38:46Z</time>
      </trkpt>
      <trkpt lat="41.661436660" lon="2.576828370">
        <ele>772.10</ele>
        <time>2014-04-06T10:38:47Z</time>
      </trkpt>
      <trkpt lat="41.661436660" lon="2.576828370">
        <ele>772.30</ele>
        <time>2014-04-06T10:38:48Z</time>
      </trkpt>
      <trkpt lat="41.661438340" lon="2.576826690">
        <ele>772.00</ele>
        <time>2014-04-06T10:38:49Z</time>
      </trkpt>
      <trkpt lat="41.661438340" lon="2.576826690">
        <ele>771.90</ele>
        <time>2014-04-06T10:38:50Z</time>
      </trkpt>
      <trkpt lat="41.661438340" lon="2.576825020">
        <ele>771.70</ele>
        <time>2014-04-06T10:38:51Z</time>
      </trkpt>
      <trkpt lat="41.661438340" lon="2.576825020">
        <ele>771.50</ele>
        <time>2014-04-06T10:38:52Z</time>
      </trkpt>
      <trkpt lat="41.661440020" lon="2.576825020">
        <ele>771.40</ele>
        <time>2014-04-06T10:38:53Z</time>
      </trkpt>
      <trkpt lat="41.661440020" lon="2.576823340">
        <ele>771.40</ele>
        <time>2014-04-06T10:38:54Z</time>
      </trkpt>
      <trkpt lat="41.661440020" lon="2.576823340">
        <ele>771.30</ele>
        <time>2014-04-06T10:38:55Z</time>
      </trkpt>
      <trkpt lat="41.661440020" lon="2.576823340">
        <ele>771.10</ele>
        <time>2014-04-06T10:38:56Z</time>
      </trkpt>
      <trkpt lat="41.661441690" lon="2.576821660">
        <ele>770.90</ele>
        <time>2014-04-06T10:38:57Z</time>
      </trkpt>
      <trkpt lat="41.661441690" lon="2.576821660">
        <ele>770.80</ele>
        <time>2014-04-06T10:38:58Z</time>
      </trkpt>
      <trkpt lat="41.661441690" lon="2.576821660">
        <ele>770.70</ele>
        <time>2014-04-06T10:38:59Z</time>
      </trkpt>
      <trkpt lat="41.661443370" lon="2.576820160">
        <ele>770.70</ele>
        <time>2014-04-06T10:39:00Z</time>
      </trkpt>
      <trkpt lat="41.661443370" lon="2.576820160">
        <ele>771.40</ele>
        <time>2014-04-06T10:39:01Z</time>
      </trkpt>
      <trkpt lat="41.661441690" lon="2.576823340">
        <ele>772.00</ele>
        <time>2014-04-06T10:39:02Z</time>
      </trkpt>
      <trkpt lat="41.661441690" lon="2.576826690">
        <ele>772.40</ele>
        <time>2014-04-06T10:39:03Z</time>
      </trkpt>
      <trkpt lat="41.661440020" lon="2.576830050">
        <ele>772.20</ele>
        <time>2014-04-06T10:39:04Z</time>
      </trkpt>
      <trkpt lat="41.661440020" lon="2.576830050">
        <ele>772.10</ele>
        <time>2014-04-06T10:39:05Z</time>
      </trkpt>
      <trkpt lat="41.661440020" lon="2.576830050">
        <ele>771.80</ele>
        <time>2014-04-06T10:39:06Z</time>
      </trkpt>
      <trkpt lat="41.661440020" lon="2.576828370">
        <ele>771.60</ele>
        <time>2014-04-06T10:39:07Z</time>
      </trkpt>
      <trkpt lat="41.661441690" lon="2.576826690">
        <ele>771.90</ele>
        <time>2014-04-06T10:39:08Z</time>
      </trkpt>
      <trkpt lat="41.661441690" lon="2.576823340">
        <ele>772.00</ele>
        <time>2014-04-06T10:39:09Z</time>
      </trkpt>
      <trkpt lat="41.661443370" lon="2.576820160">
        <ele>772.10</ele>
        <time>2014-04-06T10:39:10Z</time>
      </trkpt>
      <trkpt lat="41.661445050" lon="2.576816800">
        <ele>772.20</ele>
        <time>2014-04-06T10:39:11Z</time>
      </trkpt>
      <trkpt lat="41.661446720" lon="2.576813450">
        <ele>772.20</ele>
        <time>2014-04-06T10:39:12Z</time>
      </trkpt>
      <trkpt lat="41.661446720" lon="2.576811770">
        <ele>771.80</ele>
        <time>2014-04-06T10:39:13Z</time>
      </trkpt>
      <trkpt lat="41.661448400" lon="2.576810100">
        <ele>771.50</ele>
        <time>2014-04-06T10:39:14Z</time>
      </trkpt>
      <trkpt lat="41.661448400" lon="2.576808420">
        <ele>771.40</ele>
        <time>2014-04-06T10:39:15Z</time>
      </trkpt>
      <trkpt lat="41.661448400" lon="2.576808420">
        <ele>771.30</ele>
        <time>2014-04-06T10:39:16Z</time>
      </trkpt>
      <trkpt lat="41.661450080" lon="2.576806750">
        <ele>771.30</ele>
        <time>2014-04-06T10:39:17Z</time>
      </trkpt>
      <trkpt lat="41.661448400" lon="2.576808420">
        <ele>771.10</ele>
        <time>2014-04-06T10:39:18Z</time>
      </trkpt>
      <trkpt lat="41.661448400" lon="2.576811770">
        <ele>771.00</ele>
        <time>2014-04-06T10:39:19Z</time>
      </trkpt>
      <trkpt lat="41.661445050" lon="2.576816800">
        <ele>770.80</ele>
        <time>2014-04-06T10:39:20Z</time>
      </trkpt>
      <trkpt lat="41.661445050" lon="2.576820160">
        <ele>770.80</ele>
        <time>2014-04-06T10:39:21Z</time>
      </trkpt>
      <trkpt lat="41.661443370" lon="2.576825020">
        <ele>771.30</ele>
        <time>2014-04-06T10:39:22Z</time>
      </trkpt>
      <trkpt lat="41.661440020" lon="2.576828370">
        <ele>771.70</ele>
        <time>2014-04-06T10:39:23Z</time>
      </trkpt>
      <trkpt lat="41.661438340" lon="2.576833400">
        <ele>772.00</ele>
        <time>2014-04-06T10:39:24Z</time>
      </trkpt>
      <trkpt lat="41.661436660" lon="2.576838430">
        <ele>772.00</ele>
        <time>2014-04-06T10:39:25Z</time>
      </trkpt>
      <trkpt lat="41.661435160" lon="2.576841780">
        <ele>772.00</ele>
        <time>2014-04-06T10:39:26Z</time>
      </trkpt>
      <trkpt lat="41.661435160" lon="2.576843460">
        <ele>771.80</ele>
        <time>2014-04-06T10:39:27Z</time>
      </trkpt>
      <trkpt lat="41.661435160" lon="2.576843460">
        <ele>771.70</ele>
        <time>2014-04-06T10:39:28Z</time>
      </trkpt>
      <trkpt lat="41.661435160" lon="2.576841780">
        <ele>771.50</ele>
        <time>2014-04-06T10:39:29Z</time>
      </trkpt>
      <trkpt lat="41.661436660" lon="2.576840110">
        <ele>771.70</ele>
        <time>2014-04-06T10:39:30Z</time>
      </trkpt>
      <trkpt lat="41.661436660" lon="2.576838430">
        <ele>771.90</ele>
        <time>2014-04-06T10:39:31Z</time>
      </trkpt>
      <trkpt lat="41.661438340" lon="2.576836750">
        <ele>772.10</ele>
        <time>2014-04-06T10:39:32Z</time>
      </trkpt>
      <trkpt lat="41.661438340" lon="2.576836750">
        <ele>772.20</ele>
        <time>2014-04-06T10:39:33Z</time>
      </trkpt>
      <trkpt lat="41.661438340" lon="2.576836750">
        <ele>771.90</ele>
        <time>2014-04-06T10:39:34Z</time>
      </trkpt>
      <trkpt lat="41.661440020" lon="2.576831720">
        <ele>771.70</ele>
        <time>2014-04-06T10:39:35Z</time>
      </trkpt>
      <trkpt lat="41.661443370" lon="2.576826690">
        <ele>771.50</ele>
        <time>2014-04-06T10:39:36Z</time>
      </trkpt>
      <trkpt lat="41.661445050" lon="2.576821660">
        <ele>771.60</ele>
        <time>2014-04-06T10:39:37Z</time>
      </trkpt>
      <trkpt lat="41.661446720" lon="2.576818480">
        <ele>771.80</ele>
        <time>2014-04-06T10:39:38Z</time>
      </trkpt>
      <trkpt lat="41.661450080" lon="2.576813450">
        <ele>772.00</ele>
        <time>2014-04-06T10:39:39Z</time>
      </trkpt>
      <trkpt lat="41.661451750" lon="2.576810100">
        <ele>772.10</ele>
        <time>2014-04-06T10:39:40Z</time>
      </trkpt>
      <trkpt lat="41.661455100" lon="2.576806750">
        <ele>772.20</ele>
        <time>2014-04-06T10:39:41Z</time>
      </trkpt>
      <trkpt lat="41.661456780" lon="2.576801720">
        <ele>772.50</ele>
        <time>2014-04-06T10:39:42Z</time>
      </trkpt>
      <trkpt lat="41.661458460" lon="2.576798360">
        <ele>772.60</ele>
        <time>2014-04-06T10:39:43Z</time>
      </trkpt>
      <trkpt lat="41.661461810" lon="2.576793330">
        <ele>772.50</ele>
        <time>2014-04-06T10:39:44Z</time>
      </trkpt>
      <trkpt lat="41.661463490" lon="2.576790150">
        <ele>772.30</ele>
        <time>2014-04-06T10:39:45Z</time>
      </trkpt>
      <trkpt lat="41.661465000" lon="2.576786800">
        <ele>772.30</ele>
        <time>2014-04-06T10:39:46Z</time>
      </trkpt>
      <trkpt lat="41.661466670" lon="2.576783440">
        <ele>772.30</ele>
        <time>2014-04-06T10:39:47Z</time>
      </trkpt>
      <trkpt lat="41.661468350" lon="2.576781770">
        <ele>772.20</ele>
        <time>2014-04-06T10:39:48Z</time>
      </trkpt>
      <trkpt lat="41.661470020" lon="2.576778410">
        <ele>772.60</ele>
        <time>2014-04-06T10:39:49Z</time>
      </trkpt>
      <trkpt lat="41.661471700" lon="2.576775060">
        <ele>772.80</ele>
        <time>2014-04-06T10:39:50Z</time>
      </trkpt>
      <trkpt lat="41.661473380" lon="2.576771710">
        <ele>773.20</ele>
        <time>2014-04-06T10:39:51Z</time>
      </trkpt>
      <trkpt lat="41.661475050" lon="2.576768360">
        <ele>773.50</ele>
        <time>2014-04-06T10:39:52Z</time>
      </trkpt>
      <trkpt lat="41.661478410" lon="2.576765000">
        <ele>773.40</ele>
        <time>2014-04-06T10:39:53Z</time>
      </trkpt>
      <trkpt lat="41.661475050" lon="2.576766680">
        <ele>773.30</ele>
        <time>2014-04-06T10:39:54Z</time>
      </trkpt>
      <trkpt lat="41.661468350" lon="2.576765000">
        <ele>773.20</ele>
        <time>2014-04-06T10:39:55Z</time>
      </trkpt>
      <trkpt lat="41.661463490" lon="2.576763490">
        <ele>772.60</ele>
        <time>2014-04-06T10:39:56Z</time>
      </trkpt>
      <trkpt lat="41.661461810" lon="2.576755110">
        <ele>772.10</ele>
        <time>2014-04-06T10:39:57Z</time>
      </trkpt>
      <trkpt lat="41.661461810" lon="2.576746730">
        <ele>772.60</ele>
        <time>2014-04-06T10:39:58Z</time>
      </trkpt>
      <trkpt lat="41.661461810" lon="2.576740030">
        <ele>772.90</ele>
        <time>2014-04-06T10:39:59Z</time>
      </trkpt>
      <trkpt lat="41.661460130" lon="2.576735000">
        <ele>773.20</ele>
        <time>2014-04-06T10:40:00Z</time>
      </trkpt>
      <trkpt lat="41.661461810" lon="2.576733490">
        <ele>773.00</ele>
        <time>2014-04-06T10:40:01Z</time>
      </trkpt>
      <trkpt lat="41.661461810" lon="2.576731810">
        <ele>772.90</ele>
        <time>2014-04-06T10:40:02Z</time>
      </trkpt>
      <trkpt lat="41.661461810" lon="2.576730130">
        <ele>772.90</ele>
        <time>2014-04-06T10:40:03Z</time>
      </trkpt>
      <trkpt lat="41.661461810" lon="2.576728460">
        <ele>772.90</ele>
        <time>2014-04-06T10:40:04Z</time>
      </trkpt>
      <trkpt lat="41.661461810" lon="2.576728460">
        <ele>772.50</ele>
        <time>2014-04-06T10:40:05Z</time>
      </trkpt>
      <trkpt lat="41.661461810" lon="2.576728460">
        <ele>772.20</ele>
        <time>2014-04-06T10:40:06Z</time>
      </trkpt>
      <trkpt lat="41.661461810" lon="2.576726780">
        <ele>772.00</ele>
        <time>2014-04-06T10:40:07Z</time>
      </trkpt>
      <trkpt lat="41.661461810" lon="2.576726780">
        <ele>772.30</ele>
        <time>2014-04-06T10:40:08Z</time>
      </trkpt>
      <trkpt lat="41.661461810" lon="2.576726780">
        <ele>772.60</ele>
        <time>2014-04-06T10:40:09Z</time>
      </trkpt>
      <trkpt lat="41.661461810" lon="2.576726780">
        <ele>772.80</ele>
        <time>2014-04-06T10:40:10Z</time>
      </trkpt>
      <trkpt lat="41.661461810" lon="2.576725110">
        <ele>773.00</ele>
        <time>2014-04-06T10:40:11Z</time>
      </trkpt>
      <trkpt lat="41.661461810" lon="2.576725110">
        <ele>773.10</ele>
        <time>2014-04-06T10:40:12Z</time>
      </trkpt>
      <trkpt lat="41.661461810" lon="2.576725110">
        <ele>773.20</ele>
        <time>2014-04-06T10:40:13Z</time>
      </trkpt>
      <trkpt lat="41.661461810" lon="2.576725110">
        <ele>773.30</ele>
        <time>2014-04-06T10:40:14Z</time>
      </trkpt>
      <trkpt lat="41.661461810" lon="2.576725110">
        <ele>773.20</ele>
        <time>2014-04-06T10:40:15Z</time>
      </trkpt>
      <trkpt lat="41.661461810" lon="2.576725110">
        <ele>773.10</ele>
        <time>2014-04-06T10:40:16Z</time>
      </trkpt>
      <trkpt lat="41.661461810" lon="2.576725110">
        <ele>773.20</ele>
        <time>2014-04-06T10:40:17Z</time>
      </trkpt>
      <trkpt lat="41.661461810" lon="2.576723430">
        <ele>773.30</ele>
        <time>2014-04-06T10:40:18Z</time>
      </trkpt>
      <trkpt lat="41.661461810" lon="2.576723430">
        <ele>773.40</ele>
        <time>2014-04-06T10:40:19Z</time>
      </trkpt>
      <trkpt lat="41.661461810" lon="2.576723430">
        <ele>773.50</ele>
        <time>2014-04-06T10:40:20Z</time>
      </trkpt>
      <trkpt lat="41.661461810" lon="2.576723430">
        <ele>773.60</ele>
        <time>2014-04-06T10:40:21Z</time>
      </trkpt>
      <trkpt lat="41.661460130" lon="2.576723430">
        <ele>773.70</ele>
        <time>2014-04-06T10:40:22Z</time>
      </trkpt>
      <trkpt lat="41.661460130" lon="2.576721750">
        <ele>773.70</ele>
        <time>2014-04-06T10:40:23Z</time>
      </trkpt>
      <trkpt lat="41.661460130" lon="2.576721750">
        <ele>773.40</ele>
        <time>2014-04-06T10:40:24Z</time>
      </trkpt>
      <trkpt lat="41.661460130" lon="2.576720080">
        <ele>773.20</ele>
        <time>2014-04-06T10:40:25Z</time>
      </trkpt>
      <trkpt lat="41.661460130" lon="2.576720080">
        <ele>773.00</ele>
        <time>2014-04-06T10:40:26Z</time>
      </trkpt>
      <trkpt lat="41.661460130" lon="2.576720080">
        <ele>773.20</ele>
        <time>2014-04-06T10:40:27Z</time>
      </trkpt>
      <trkpt lat="41.661458460" lon="2.576720080">
        <ele>773.40</ele>
        <time>2014-04-06T10:40:28Z</time>
      </trkpt>
      <trkpt lat="41.661458460" lon="2.576720080">
        <ele>773.70</ele>
        <time>2014-04-06T10:40:29Z</time>
      </trkpt>
      <trkpt lat="41.661458460" lon="2.576720080">
        <ele>774.00</ele>
        <time>2014-04-06T10:40:30Z</time>
      </trkpt>
      <trkpt lat="41.661458460" lon="2.576720080">
        <ele>774.10</ele>
        <time>2014-04-06T10:40:31Z</time>
      </trkpt>
      <trkpt lat="41.661458460" lon="2.576721750">
        <ele>774.30</ele>
        <time>2014-04-06T10:40:32Z</time>
      </trkpt>
      <trkpt lat="41.661458460" lon="2.576721750">
        <ele>774.40</ele>
        <time>2014-04-06T10:40:33Z</time>
      </trkpt>
      <trkpt lat="41.661456780" lon="2.576721750">
        <ele>774.00</ele>
        <time>2014-04-06T10:40:34Z</time>
      </trkpt>
      <trkpt lat="41.661456780" lon="2.576721750">
        <ele>773.70</ele>
        <time>2014-04-06T10:40:35Z</time>
      </trkpt>
      <trkpt lat="41.661456780" lon="2.576721750">
        <ele>773.70</ele>
        <time>2014-04-06T10:40:36Z</time>
      </trkpt>
      <trkpt lat="41.661456780" lon="2.576720080">
        <ele>773.70</ele>
        <time>2014-04-06T10:40:37Z</time>
      </trkpt>
      <trkpt lat="41.661456780" lon="2.576720080">
        <ele>773.70</ele>
        <time>2014-04-06T10:40:38Z</time>
      </trkpt>
      <trkpt lat="41.661458460" lon="2.576718400">
        <ele>773.80</ele>
        <time>2014-04-06T10:40:39Z</time>
      </trkpt>
      <trkpt lat="41.661456780" lon="2.576716720">
        <ele>773.80</ele>
        <time>2014-04-06T10:40:40Z</time>
      </trkpt>
      <trkpt lat="41.661456780" lon="2.576715050">
        <ele>773.80</ele>
        <time>2014-04-06T10:40:41Z</time>
      </trkpt>
      <trkpt lat="41.661458460" lon="2.576713370">
        <ele>773.90</ele>
        <time>2014-04-06T10:40:42Z</time>
      </trkpt>
      <trkpt lat="41.661458460" lon="2.576713370">
        <ele>774.30</ele>
        <time>2014-04-06T10:40:43Z</time>
      </trkpt>
      <trkpt lat="41.661456780" lon="2.576713370">
        <ele>774.50</ele>
        <time>2014-04-06T10:40:44Z</time>
      </trkpt>
      <trkpt lat="41.661456780" lon="2.576711690">
        <ele>774.70</ele>
        <time>2014-04-06T10:40:45Z</time>
      </trkpt>
      <trkpt lat="41.661456780" lon="2.576711690">
        <ele>774.40</ele>
        <time>2014-04-06T10:40:46Z</time>
      </trkpt>
      <trkpt lat="41.661456780" lon="2.576710020">
        <ele>774.10</ele>
        <time>2014-04-06T10:40:47Z</time>
      </trkpt>
      <trkpt lat="41.661458460" lon="2.576708340">
        <ele>774.20</ele>
        <time>2014-04-06T10:40:48Z</time>
      </trkpt>
      <trkpt lat="41.661456780" lon="2.576708340">
        <ele>774.40</ele>
        <time>2014-04-06T10:40:49Z</time>
      </trkpt>
      <trkpt lat="41.661456780" lon="2.576708340">
        <ele>774.00</ele>
        <time>2014-04-06T10:40:50Z</time>
      </trkpt>
      <trkpt lat="41.661456780" lon="2.576708340">
        <ele>773.70</ele>
        <time>2014-04-06T10:40:51Z</time>
      </trkpt>
      <trkpt lat="41.661456780" lon="2.576706670">
        <ele>773.50</ele>
        <time>2014-04-06T10:40:52Z</time>
      </trkpt>
      <trkpt lat="41.661456780" lon="2.576705160">
        <ele>773.50</ele>
        <time>2014-04-06T10:40:53Z</time>
      </trkpt>
      <trkpt lat="41.661456780" lon="2.576705160">
        <ele>773.50</ele>
        <time>2014-04-06T10:40:54Z</time>
      </trkpt>
      <trkpt lat="41.661456780" lon="2.576705160">
        <ele>773.90</ele>
        <time>2014-04-06T10:40:55Z</time>
      </trkpt>
      <trkpt lat="41.661456780" lon="2.576703480">
        <ele>774.10</ele>
        <time>2014-04-06T10:40:56Z</time>
      </trkpt>
      <trkpt lat="41.661456780" lon="2.576703480">
        <ele>774.40</ele>
        <time>2014-04-06T10:40:57Z</time>
      </trkpt>
      <trkpt lat="41.661456780" lon="2.576701800">
        <ele>774.50</ele>
        <time>2014-04-06T10:40:58Z</time>
      </trkpt>
      <trkpt lat="41.661455100" lon="2.576701800">
        <ele>774.70</ele>
        <time>2014-04-06T10:40:59Z</time>
      </trkpt>
      <trkpt lat="41.661455100" lon="2.576700130">
        <ele>774.60</ele>
        <time>2014-04-06T10:41:00Z</time>
      </trkpt>
      <trkpt lat="41.661455100" lon="2.576698450">
        <ele>774.60</ele>
        <time>2014-04-06T10:41:01Z</time>
      </trkpt>
      <trkpt lat="41.661455100" lon="2.576696770">
        <ele>774.50</ele>
        <time>2014-04-06T10:41:02Z</time>
      </trkpt>
      <trkpt lat="41.661455100" lon="2.576696770">
        <ele>774.50</ele>
        <time>2014-04-06T10:41:03Z</time>
      </trkpt>
      <trkpt lat="41.661455100" lon="2.576695100">
        <ele>774.40</ele>
        <time>2014-04-06T10:41:04Z</time>
      </trkpt>
      <trkpt lat="41.661455100" lon="2.576695100">
        <ele>774.20</ele>
        <time>2014-04-06T10:41:05Z</time>
      </trkpt>
      <trkpt lat="41.661453430" lon="2.576693420">
        <ele>773.90</ele>
        <time>2014-04-06T10:41:06Z</time>
      </trkpt>
      <trkpt lat="41.661453430" lon="2.576691750">
        <ele>773.50</ele>
        <time>2014-04-06T10:41:07Z</time>
      </trkpt>
      <trkpt lat="41.661451750" lon="2.576690070">
        <ele>773.20</ele>
        <time>2014-04-06T10:41:08Z</time>
      </trkpt>
      <trkpt lat="41.661451750" lon="2.576688390">
        <ele>773.40</ele>
        <time>2014-04-06T10:41:09Z</time>
      </trkpt>
      <trkpt lat="41.661451750" lon="2.576686720">
        <ele>773.50</ele>
        <time>2014-04-06T10:41:10Z</time>
      </trkpt>
      <trkpt lat="41.661450080" lon="2.576685040">
        <ele>773.60</ele>
        <time>2014-04-06T10:41:11Z</time>
      </trkpt>
      <trkpt lat="41.661450080" lon="2.576685040">
        <ele>773.60</ele>
        <time>2014-04-06T10:41:12Z</time>
      </trkpt>
      <trkpt lat="41.661450080" lon="2.576683360">
        <ele>773.60</ele>
        <time>2014-04-06T10:41:13Z</time>
      </trkpt>
      <trkpt lat="41.661450080" lon="2.576681690">
        <ele>773.60</ele>
        <time>2014-04-06T10:41:14Z</time>
      </trkpt>
      <trkpt lat="41.661448400" lon="2.576681690">
        <ele>773.60</ele>
        <time>2014-04-06T10:41:15Z</time>
      </trkpt>
      <trkpt lat="41.661448400" lon="2.576680010">
        <ele>773.80</ele>
        <time>2014-04-06T10:41:16Z</time>
      </trkpt>
      <trkpt lat="41.661448400" lon="2.576680010">
        <ele>773.80</ele>
        <time>2014-04-06T10:41:17Z</time>
      </trkpt>
      <trkpt lat="41.661448400" lon="2.576678330">
        <ele>773.90</ele>
        <time>2014-04-06T10:41:18Z</time>
      </trkpt>
      <trkpt lat="41.661446720" lon="2.576678330">
        <ele>774.00</ele>
        <time>2014-04-06T10:41:19Z</time>
      </trkpt>
      <trkpt lat="41.661446720" lon="2.576678330">
        <ele>774.00</ele>
        <time>2014-04-06T10:41:20Z</time>
      </trkpt>
      <trkpt lat="41.661446720" lon="2.576676830">
        <ele>773.80</ele>
        <time>2014-04-06T10:41:21Z</time>
      </trkpt>
      <trkpt lat="41.661445050" lon="2.576676830">
        <ele>773.70</ele>
        <time>2014-04-06T10:41:22Z</time>
      </trkpt>
      <trkpt lat="41.661445050" lon="2.576675150">
        <ele>773.50</ele>
        <time>2014-04-06T10:41:23Z</time>
      </trkpt>
      <trkpt lat="41.661445050" lon="2.576673470">
        <ele>773.60</ele>
        <time>2014-04-06T10:41:24Z</time>
      </trkpt>
      <trkpt lat="41.661443370" lon="2.576671800">
        <ele>773.70</ele>
        <time>2014-04-06T10:41:25Z</time>
      </trkpt>
      <trkpt lat="41.661443370" lon="2.576671800">
        <ele>773.70</ele>
        <time>2014-04-06T10:41:26Z</time>
      </trkpt>
      <trkpt lat="41.661441690" lon="2.576670120">
        <ele>773.80</ele>
        <time>2014-04-06T10:41:27Z</time>
      </trkpt>
      <trkpt lat="41.661440020" lon="2.576668440">
        <ele>773.70</ele>
        <time>2014-04-06T10:41:28Z</time>
      </trkpt>
      <trkpt lat="41.661438340" lon="2.576666770">
        <ele>773.60</ele>
        <time>2014-04-06T10:41:29Z</time>
      </trkpt>
      <trkpt lat="41.661438340" lon="2.576666770">
        <ele>773.60</ele>
        <time>2014-04-06T10:41:30Z</time>
      </trkpt>
      <trkpt lat="41.661438340" lon="2.576666770">
        <ele>773.80</ele>
        <time>2014-04-06T10:41:31Z</time>
      </trkpt>
      <trkpt lat="41.661438340" lon="2.576666770">
        <ele>773.90</ele>
        <time>2014-04-06T10:41:32Z</time>
      </trkpt>
      <trkpt lat="41.661438340" lon="2.576666770">
        <ele>773.90</ele>
        <time>2014-04-06T10:41:33Z</time>
      </trkpt>
      <trkpt lat="41.661436660" lon="2.576665090">
        <ele>773.90</ele>
        <time>2014-04-06T10:41:34Z</time>
      </trkpt>
      <trkpt lat="41.661436660" lon="2.576665090">
        <ele>773.80</ele>
        <time>2014-04-06T10:41:35Z</time>
      </trkpt>
      <trkpt lat="41.661436660" lon="2.576665090">
        <ele>773.70</ele>
        <time>2014-04-06T10:41:36Z</time>
      </trkpt>
      <trkpt lat="41.661436660" lon="2.576663410">
        <ele>773.60</ele>
        <time>2014-04-06T10:41:37Z</time>
      </trkpt>
      <trkpt lat="41.661436660" lon="2.576661740">
        <ele>773.80</ele>
        <time>2014-04-06T10:41:38Z</time>
      </trkpt>
      <trkpt lat="41.661435160" lon="2.576661740">
        <ele>773.90</ele>
        <time>2014-04-06T10:41:39Z</time>
      </trkpt>
      <trkpt lat="41.661435160" lon="2.576661740">
        <ele>774.00</ele>
        <time>2014-04-06T10:41:40Z</time>
      </trkpt>
      <trkpt lat="41.661435160" lon="2.576660060">
        <ele>774.00</ele>
        <time>2014-04-06T10:41:41Z</time>
      </trkpt>
      <trkpt lat="41.661433480" lon="2.576660060">
        <ele>774.00</ele>
        <time>2014-04-06T10:41:42Z</time>
      </trkpt>
      <trkpt lat="41.661433480" lon="2.576660060">
        <ele>774.20</ele>
        <time>2014-04-06T10:41:43Z</time>
      </trkpt>
      <trkpt lat="41.661433480" lon="2.576658390">
        <ele>774.30</ele>
        <time>2014-04-06T10:41:44Z</time>
      </trkpt>
      <trkpt lat="41.661431800" lon="2.576660060">
        <ele>774.10</ele>
        <time>2014-04-06T10:41:45Z</time>
      </trkpt>
      <trkpt lat="41.661431800" lon="2.576658390">
        <ele>774.00</ele>
        <time>2014-04-06T10:41:46Z</time>
      </trkpt>
      <trkpt lat="41.661430130" lon="2.576658390">
        <ele>774.10</ele>
        <time>2014-04-06T10:41:47Z</time>
      </trkpt>
      <trkpt lat="41.661430130" lon="2.576656710">
        <ele>774.10</ele>
        <time>2014-04-06T10:41:48Z</time>
      </trkpt>
      <trkpt lat="41.661428450" lon="2.576656710">
        <ele>774.20</ele>
        <time>2014-04-06T10:41:49Z</time>
      </trkpt>
      <trkpt lat="41.661428450" lon="2.576656710">
        <ele>773.80</ele>
        <time>2014-04-06T10:41:50Z</time>
      </trkpt>
      <trkpt lat="41.661426770" lon="2.576655030">
        <ele>773.60</ele>
        <time>2014-04-06T10:41:51Z</time>
      </trkpt>
      <trkpt lat="41.661426770" lon="2.576653360">
        <ele>773.70</ele>
        <time>2014-04-06T10:41:52Z</time>
      </trkpt>
      <trkpt lat="41.661426770" lon="2.576653360">
        <ele>773.80</ele>
        <time>2014-04-06T10:41:53Z</time>
      </trkpt>
      <trkpt lat="41.661425100" lon="2.576653360">
        <ele>773.60</ele>
        <time>2014-04-06T10:41:54Z</time>
      </trkpt>
      <trkpt lat="41.661425100" lon="2.576651680">
        <ele>773.50</ele>
        <time>2014-04-06T10:41:55Z</time>
      </trkpt>
      <trkpt lat="41.661421740" lon="2.576653360">
        <ele>773.40</ele>
        <time>2014-04-06T10:41:56Z</time>
      </trkpt>
      <trkpt lat="41.661423420" lon="2.576655030">
        <ele>773.60</ele>
        <time>2014-04-06T10:41:57Z</time>
      </trkpt>
      <trkpt lat="41.661423420" lon="2.576655030">
        <ele>773.70</ele>
        <time>2014-04-06T10:41:58Z</time>
      </trkpt>
      <trkpt lat="41.661423420" lon="2.576656710">
        <ele>773.50</ele>
        <time>2014-04-06T10:41:59Z</time>
      </trkpt>
      <trkpt lat="41.661425100" lon="2.576658390">
        <ele>773.30</ele>
        <time>2014-04-06T10:42:00Z</time>
      </trkpt>
      <trkpt lat="41.661425100" lon="2.576658390">
        <ele>773.20</ele>
        <time>2014-04-06T10:42:01Z</time>
      </trkpt>
      <trkpt lat="41.661426770" lon="2.576660060">
        <ele>773.40</ele>
        <time>2014-04-06T10:42:02Z</time>
      </trkpt>
      <trkpt lat="41.661428450" lon="2.576660060">
        <ele>773.50</ele>
        <time>2014-04-06T10:42:03Z</time>
      </trkpt>
      <trkpt lat="41.661428450" lon="2.576661740">
        <ele>773.60</ele>
        <time>2014-04-06T10:42:04Z</time>
      </trkpt>
      <trkpt lat="41.661430130" lon="2.576661740">
        <ele>773.80</ele>
        <time>2014-04-06T10:42:05Z</time>
      </trkpt>
      <trkpt lat="41.661430130" lon="2.576663410">
        <ele>774.10</ele>
        <time>2014-04-06T10:42:06Z</time>
      </trkpt>
      <trkpt lat="41.661431800" lon="2.576665090">
        <ele>774.30</ele>
        <time>2014-04-06T10:42:07Z</time>
      </trkpt>
      <trkpt lat="41.661431800" lon="2.576666770">
        <ele>774.50</ele>
        <time>2014-04-06T10:42:08Z</time>
      </trkpt>
      <trkpt lat="41.661433480" lon="2.576668440">
        <ele>774.60</ele>
        <time>2014-04-06T10:42:09Z</time>
      </trkpt>
      <trkpt lat="41.661435160" lon="2.576668440">
        <ele>774.60</ele>
        <time>2014-04-06T10:42:10Z</time>
      </trkpt>
      <trkpt lat="41.661436660" lon="2.576670120">
        <ele>774.20</ele>
        <time>2014-04-06T10:42:11Z</time>
      </trkpt>
      <trkpt lat="41.661435160" lon="2.576670120">
        <ele>774.00</ele>
        <time>2014-04-06T10:42:12Z</time>
      </trkpt>
      <trkpt lat="41.661435160" lon="2.576670120">
        <ele>773.60</ele>
        <time>2014-04-06T10:42:13Z</time>
      </trkpt>
      <trkpt lat="41.661435160" lon="2.576670120">
        <ele>773.30</ele>
        <time>2014-04-06T10:42:14Z</time>
      </trkpt>
      <trkpt lat="41.661435160" lon="2.576670120">
        <ele>773.10</ele>
        <time>2014-04-06T10:42:15Z</time>
      </trkpt>
      <trkpt lat="41.661435160" lon="2.576670120">
        <ele>773.10</ele>
        <time>2014-04-06T10:42:16Z</time>
      </trkpt>
      <trkpt lat="41.661436660" lon="2.576671800">
        <ele>773.20</ele>
        <time>2014-04-06T10:42:17Z</time>
      </trkpt>
      <trkpt lat="41.661436660" lon="2.576671800">
        <ele>773.20</ele>
        <time>2014-04-06T10:42:18Z</time>
      </trkpt>
      <trkpt lat="41.661438340" lon="2.576670120">
        <ele>773.30</ele>
        <time>2014-04-06T10:42:19Z</time>
      </trkpt>
      <trkpt lat="41.661438340" lon="2.576670120">
        <ele>773.30</ele>
        <time>2014-04-06T10:42:20Z</time>
      </trkpt>
      <trkpt lat="41.661438340" lon="2.576670120">
        <ele>773.40</ele>
        <time>2014-04-06T10:42:21Z</time>
      </trkpt>
      <trkpt lat="41.661438340" lon="2.576670120">
        <ele>773.40</ele>
        <time>2014-04-06T10:42:22Z</time>
      </trkpt>
      <trkpt lat="41.661438340" lon="2.576670120">
        <ele>773.40</ele>
        <time>2014-04-06T10:42:23Z</time>
      </trkpt>
      <trkpt lat="41.661438340" lon="2.576670120">
        <ele>773.30</ele>
        <time>2014-04-06T10:42:24Z</time>
      </trkpt>
      <trkpt lat="41.661440020" lon="2.576671800">
        <ele>773.20</ele>
        <time>2014-04-06T10:42:25Z</time>
      </trkpt>
      <trkpt lat="41.661440020" lon="2.576671800">
        <ele>773.10</ele>
        <time>2014-04-06T10:42:26Z</time>
      </trkpt>
      <trkpt lat="41.661440020" lon="2.576671800">
        <ele>773.10</ele>
        <time>2014-04-06T10:42:27Z</time>
      </trkpt>
      <trkpt lat="41.661441690" lon="2.576673470">
        <ele>773.00</ele>
        <time>2014-04-06T10:42:28Z</time>
      </trkpt>
      <trkpt lat="41.661441690" lon="2.576673470">
        <ele>772.90</ele>
        <time>2014-04-06T10:42:29Z</time>
      </trkpt>
      <trkpt lat="41.661443370" lon="2.576675150">
        <ele>773.30</ele>
        <time>2014-04-06T10:42:30Z</time>
      </trkpt>
      <trkpt lat="41.661445050" lon="2.576676830">
        <ele>773.70</ele>
        <time>2014-04-06T10:42:31Z</time>
      </trkpt>
      <trkpt lat="41.661446720" lon="2.576676830">
        <ele>773.30</ele>
        <time>2014-04-06T10:42:32Z</time>
      </trkpt>
      <trkpt lat="41.661446720" lon="2.576676830">
        <ele>773.00</ele>
        <time>2014-04-06T10:42:33Z</time>
      </trkpt>
      <trkpt lat="41.661448400" lon="2.576678330">
        <ele>772.80</ele>
        <time>2014-04-06T10:42:34Z</time>
      </trkpt>
      <trkpt lat="41.661448400" lon="2.576678330">
        <ele>772.80</ele>
        <time>2014-04-06T10:42:35Z</time>
      </trkpt>
      <trkpt lat="41.661450080" lon="2.576680010">
        <ele>772.80</ele>
        <time>2014-04-06T10:42:36Z</time>
      </trkpt>
      <trkpt lat="41.661450080" lon="2.576680010">
        <ele>772.90</ele>
        <time>2014-04-06T10:42:37Z</time>
      </trkpt>
      <trkpt lat="41.661450080" lon="2.576680010">
        <ele>773.00</ele>
        <time>2014-04-06T10:42:38Z</time>
      </trkpt>
      <trkpt lat="41.661451750" lon="2.576680010">
        <ele>773.00</ele>
        <time>2014-04-06T10:42:39Z</time>
      </trkpt>
      <trkpt lat="41.661453430" lon="2.576681690">
        <ele>773.40</ele>
        <time>2014-04-06T10:42:40Z</time>
      </trkpt>
      <trkpt lat="41.661455100" lon="2.576681690">
        <ele>773.70</ele>
        <time>2014-04-06T10:42:41Z</time>
      </trkpt>
      <trkpt lat="41.661455100" lon="2.576681690">
        <ele>773.70</ele>
        <time>2014-04-06T10:42:42Z</time>
      </trkpt>
      <trkpt lat="41.661455100" lon="2.576681690">
        <ele>773.70</ele>
        <time>2014-04-06T10:42:43Z</time>
      </trkpt>
      <trkpt lat="41.661455100" lon="2.576681690">
        <ele>773.30</ele>
        <time>2014-04-06T10:42:44Z</time>
      </trkpt>
      <trkpt lat="41.661453430" lon="2.576681690">
        <ele>773.00</ele>
        <time>2014-04-06T10:42:45Z</time>
      </trkpt>
      <trkpt lat="41.661453430" lon="2.576680010">
        <ele>772.80</ele>
        <time>2014-04-06T10:42:46Z</time>
      </trkpt>
      <trkpt lat="41.661453430" lon="2.576678330">
        <ele>772.90</ele>
        <time>2014-04-06T10:42:47Z</time>
      </trkpt>
      <trkpt lat="41.661453430" lon="2.576678330">
        <ele>772.90</ele>
        <time>2014-04-06T10:42:48Z</time>
      </trkpt>
      <trkpt lat="41.661453430" lon="2.576680010">
        <ele>773.30</ele>
        <time>2014-04-06T10:42:49Z</time>
      </trkpt>
      <trkpt lat="41.661453430" lon="2.576680010">
        <ele>773.50</ele>
        <time>2014-04-06T10:42:50Z</time>
      </trkpt>
      <trkpt lat="41.661453430" lon="2.576680010">
        <ele>773.80</ele>
        <time>2014-04-06T10:42:51Z</time>
      </trkpt>
      <trkpt lat="41.661453430" lon="2.576680010">
        <ele>774.10</ele>
        <time>2014-04-06T10:42:52Z</time>
      </trkpt>
      <trkpt lat="41.661455100" lon="2.576681690">
        <ele>774.20</ele>
        <time>2014-04-06T10:42:53Z</time>
      </trkpt>
      <trkpt lat="41.661455100" lon="2.576681690">
        <ele>774.10</ele>
        <time>2014-04-06T10:42:54Z</time>
      </trkpt>
      <trkpt lat="41.661455100" lon="2.576683360">
        <ele>774.10</ele>
        <time>2014-04-06T10:42:55Z</time>
      </trkpt>
      <trkpt lat="41.661456780" lon="2.576683360">
        <ele>773.80</ele>
        <time>2014-04-06T10:42:56Z</time>
      </trkpt>
      <trkpt lat="41.661456780" lon="2.576683360">
        <ele>773.70</ele>
        <time>2014-04-06T10:42:57Z</time>
      </trkpt>
      <trkpt lat="41.661456780" lon="2.576683360">
        <ele>773.50</ele>
        <time>2014-04-06T10:42:58Z</time>
      </trkpt>
      <trkpt lat="41.661456780" lon="2.576683360">
        <ele>773.20</ele>
        <time>2014-04-06T10:42:59Z</time>
      </trkpt>
      <trkpt lat="41.661456780" lon="2.576683360">
        <ele>773.00</ele>
        <time>2014-04-06T10:43:00Z</time>
      </trkpt>
      <trkpt lat="41.661456780" lon="2.576683360">
        <ele>772.80</ele>
        <time>2014-04-06T10:43:01Z</time>
      </trkpt>
      <trkpt lat="41.661456780" lon="2.576685040">
        <ele>772.70</ele>
        <time>2014-04-06T10:43:02Z</time>
      </trkpt>
      <trkpt lat="41.661458460" lon="2.576688390">
        <ele>772.90</ele>
        <time>2014-04-06T10:43:03Z</time>
      </trkpt>
      <trkpt lat="41.661458460" lon="2.576690070">
        <ele>773.00</ele>
        <time>2014-04-06T10:43:04Z</time>
      </trkpt>
      <trkpt lat="41.661460130" lon="2.576690070">
        <ele>773.10</ele>
        <time>2014-04-06T10:43:05Z</time>
      </trkpt>
      <trkpt lat="41.661461810" lon="2.576691750">
        <ele>773.30</ele>
        <time>2014-04-06T10:43:06Z</time>
      </trkpt>
      <trkpt lat="41.661461810" lon="2.576691750">
        <ele>773.40</ele>
        <time>2014-04-06T10:43:07Z</time>
      </trkpt>
      <trkpt lat="41.661463490" lon="2.576688390">
        <ele>773.40</ele>
        <time>2014-04-06T10:43:08Z</time>
      </trkpt>
      <trkpt lat="41.661463490" lon="2.576675150">
        <ele>773.40</ele>
        <time>2014-04-06T10:43:09Z</time>
      </trkpt>
      <trkpt lat="41.661463490" lon="2.576660060">
        <ele>773.60</ele>
        <time>2014-04-06T10:43:10Z</time>
      </trkpt>
      <trkpt lat="41.661463490" lon="2.576645140">
        <ele>773.70</ele>
        <time>2014-04-06T10:43:11Z</time>
      </trkpt>
      <trkpt lat="41.661465000" lon="2.576628380">
        <ele>773.80</ele>
        <time>2014-04-06T10:43:12Z</time>
      </trkpt>
      <trkpt lat="41.661466670" lon="2.576613460">
        <ele>774.10</ele>
        <time>2014-04-06T10:43:13Z</time>
      </trkpt>
      <trkpt lat="41.661468350" lon="2.576601720">
        <ele>774.30</ele>
        <time>2014-04-06T10:43:14Z</time>
      </trkpt>
      <trkpt lat="41.661471700" lon="2.576588480">
        <ele>774.10</ele>
        <time>2014-04-06T10:43:15Z</time>
      </trkpt>
      <trkpt lat="41.661475050" lon="2.576578420">
        <ele>773.90</ele>
        <time>2014-04-06T10:43:16Z</time>
      </trkpt>
      <trkpt lat="41.661480080" lon="2.576566690">
        <ele>773.80</ele>
        <time>2014-04-06T10:43:17Z</time>
      </trkpt>
      <trkpt lat="41.661485110" lon="2.576556800">
        <ele>773.70</ele>
        <time>2014-04-06T10:43:18Z</time>
      </trkpt>
      <trkpt lat="41.661488460" lon="2.576546740">
        <ele>773.70</ele>
        <time>2014-04-06T10:43:19Z</time>
      </trkpt>
      <trkpt lat="41.661490140" lon="2.576536680">
        <ele>773.70</ele>
        <time>2014-04-06T10:43:20Z</time>
      </trkpt>
      <trkpt lat="41.661493490" lon="2.576528470">
        <ele>773.80</ele>
        <time>2014-04-06T10:43:21Z</time>
      </trkpt>
      <trkpt lat="41.661496680" lon="2.576520080">
        <ele>773.40</ele>
        <time>2014-04-06T10:43:22Z</time>
      </trkpt>
      <trkpt lat="41.661503380" lon="2.576508350">
        <ele>773.10</ele>
        <time>2014-04-06T10:43:23Z</time>
      </trkpt>
      <trkpt lat="41.661506740" lon="2.576498460">
        <ele>772.90</ele>
        <time>2014-04-06T10:43:24Z</time>
      </trkpt>
      <trkpt lat="41.661511770" lon="2.576488400">
        <ele>772.80</ele>
        <time>2014-04-06T10:43:25Z</time>
      </trkpt>
      <trkpt lat="41.661516800" lon="2.576480020">
        <ele>772.70</ele>
        <time>2014-04-06T10:43:26Z</time>
      </trkpt>
      <trkpt lat="41.661521820" lon="2.576470130">
        <ele>772.50</ele>
        <time>2014-04-06T10:43:27Z</time>
      </trkpt>
      <trkpt lat="41.661526690" lon="2.576461750">
        <ele>772.30</ele>
        <time>2014-04-06T10:43:28Z</time>
      </trkpt>
      <trkpt lat="41.661528360" lon="2.576450010">
        <ele>772.50</ele>
        <time>2014-04-06T10:43:29Z</time>
      </trkpt>
      <trkpt lat="41.661528360" lon="2.576436770">
        <ele>772.60</ele>
        <time>2014-04-06T10:43:30Z</time>
      </trkpt>
      <trkpt lat="41.661528360" lon="2.576421680">
        <ele>772.60</ele>
        <time>2014-04-06T10:43:31Z</time>
      </trkpt>
      <trkpt lat="41.661528360" lon="2.576406760">
        <ele>772.90</ele>
        <time>2014-04-06T10:43:32Z</time>
      </trkpt>
      <trkpt lat="41.661526690" lon="2.576395030">
        <ele>773.10</ele>
        <time>2014-04-06T10:43:33Z</time>
      </trkpt>
      <trkpt lat="41.661525010" lon="2.576386810">
        <ele>773.30</ele>
        <time>2014-04-06T10:43:34Z</time>
      </trkpt>
      <trkpt lat="41.661523330" lon="2.576378430">
        <ele>773.50</ele>
        <time>2014-04-06T10:43:35Z</time>
      </trkpt>
      <trkpt lat="41.661521820" lon="2.576368370">
        <ele>773.50</ele>
        <time>2014-04-06T10:43:36Z</time>
      </trkpt>
      <trkpt lat="41.661516800" lon="2.576358480">
        <ele>773.50</ele>
        <time>2014-04-06T10:43:37Z</time>
      </trkpt>
      <trkpt lat="41.661511770" lon="2.576346750">
        <ele>773.40</ele>
        <time>2014-04-06T10:43:38Z</time>
      </trkpt>
      <trkpt lat="41.661505060" lon="2.576331830">
        <ele>773.30</ele>
        <time>2014-04-06T10:43:39Z</time>
      </trkpt>
      <trkpt lat="41.661500030" lon="2.576316740">
        <ele>773.20</ele>
        <time>2014-04-06T10:43:40Z</time>
      </trkpt>
      <trkpt lat="41.661493490" lon="2.576301820">
        <ele>773.20</ele>
        <time>2014-04-06T10:43:41Z</time>
      </trkpt>
      <trkpt lat="41.661485110" lon="2.576283380">
        <ele>773.20</ele>
        <time>2014-04-06T10:43:42Z</time>
      </trkpt>
      <trkpt lat="41.661480080" lon="2.576271810">
        <ele>773.20</ele>
        <time>2014-04-06T10:43:43Z</time>
      </trkpt>
      <trkpt lat="41.661475050" lon="2.576258400">
        <ele>773.00</ele>
        <time>2014-04-06T10:43:44Z</time>
      </trkpt>
      <trkpt lat="41.661468350" lon="2.576238450">
        <ele>772.90</ele>
        <time>2014-04-06T10:43:45Z</time>
      </trkpt>
      <trkpt lat="41.661461810" lon="2.576216830">
        <ele>772.80</ele>
        <time>2014-04-06T10:43:46Z</time>
      </trkpt>
      <trkpt lat="41.661458460" lon="2.576198390">
        <ele>772.80</ele>
        <time>2014-04-06T10:43:47Z</time>
      </trkpt>
      <trkpt lat="41.661455100" lon="2.576173410">
        <ele>772.70</ele>
        <time>2014-04-06T10:43:48Z</time>
      </trkpt>
      <trkpt lat="41.661448400" lon="2.576153460">
        <ele>772.60</ele>
        <time>2014-04-06T10:43:49Z</time>
      </trkpt>
      <trkpt lat="41.661440020" lon="2.576130160">
        <ele>772.60</ele>
        <time>2014-04-06T10:43:50Z</time>
      </trkpt>
      <trkpt lat="41.661430130" lon="2.576106690">
        <ele>772.50</ele>
        <time>2014-04-06T10:43:51Z</time>
      </trkpt>
      <trkpt lat="41.661421740" lon="2.576081710">
        <ele>772.50</ele>
        <time>2014-04-06T10:43:52Z</time>
      </trkpt>
      <trkpt lat="41.661408330" lon="2.576058410">
        <ele>772.50</ele>
        <time>2014-04-06T10:43:53Z</time>
      </trkpt>
      <trkpt lat="41.661396770" lon="2.576036780">
        <ele>772.50</ele>
        <time>2014-04-06T10:43:54Z</time>
      </trkpt>
      <trkpt lat="41.661388380" lon="2.576015160">
        <ele>772.50</ele>
        <time>2014-04-06T10:43:55Z</time>
      </trkpt>
      <trkpt lat="41.661375140" lon="2.575996720">
        <ele>772.30</ele>
        <time>2014-04-06T10:43:56Z</time>
      </trkpt>
      <trkpt lat="41.661363410" lon="2.575976770">
        <ele>772.10</ele>
        <time>2014-04-06T10:43:57Z</time>
      </trkpt>
      <trkpt lat="41.661348490" lon="2.575965030">
        <ele>771.70</ele>
        <time>2014-04-06T10:43:58Z</time>
      </trkpt>
      <trkpt lat="41.661341780" lon="2.575958330">
        <ele>771.50</ele>
        <time>2014-04-06T10:43:59Z</time>
      </trkpt>
      <trkpt lat="41.661340110" lon="2.575956820">
        <ele>771.60</ele>
        <time>2014-04-06T10:44:00Z</time>
      </trkpt>
      <trkpt lat="41.661338430" lon="2.575955140">
        <ele>771.60</ele>
        <time>2014-04-06T10:44:01Z</time>
      </trkpt>
      <trkpt lat="41.661336750" lon="2.575953470">
        <ele>771.70</ele>
        <time>2014-04-06T10:44:02Z</time>
      </trkpt>
      <trkpt lat="41.661335080" lon="2.575950110">
        <ele>771.40</ele>
        <time>2014-04-06T10:44:03Z</time>
      </trkpt>
      <trkpt lat="41.661333400" lon="2.575948440">
        <ele>771.10</ele>
        <time>2014-04-06T10:44:04Z</time>
      </trkpt>
      <trkpt lat="41.661331720" lon="2.575945090">
        <ele>771.00</ele>
        <time>2014-04-06T10:44:05Z</time>
      </trkpt>
      <trkpt lat="41.661328370" lon="2.575943410">
        <ele>770.80</ele>
        <time>2014-04-06T10:44:06Z</time>
      </trkpt>
      <trkpt lat="41.661326690" lon="2.575941730">
        <ele>770.80</ele>
        <time>2014-04-06T10:44:07Z</time>
      </trkpt>
      <trkpt lat="41.661325020" lon="2.575938380">
        <ele>770.80</ele>
        <time>2014-04-06T10:44:08Z</time>
      </trkpt>
      <trkpt lat="41.661323340" lon="2.575935030">
        <ele>770.80</ele>
        <time>2014-04-06T10:44:09Z</time>
      </trkpt>
      <trkpt lat="41.661323340" lon="2.575933350">
        <ele>770.70</ele>
        <time>2014-04-06T10:44:10Z</time>
      </trkpt>
      <trkpt lat="41.661321660" lon="2.575930000">
        <ele>770.70</ele>
        <time>2014-04-06T10:44:11Z</time>
      </trkpt>
      <trkpt lat="41.661320160" lon="2.575928490">
        <ele>771.00</ele>
        <time>2014-04-06T10:44:12Z</time>
      </trkpt>
      <trkpt lat="41.661318480" lon="2.575926810">
        <ele>771.30</ele>
        <time>2014-04-06T10:44:13Z</time>
      </trkpt>
      <trkpt lat="41.661316800" lon="2.575920110">
        <ele>771.50</ele>
        <time>2014-04-06T10:44:14Z</time>
      </trkpt>
      <trkpt lat="41.661311770" lon="2.575903340">
        <ele>771.20</ele>
        <time>2014-04-06T10:44:15Z</time>
      </trkpt>
      <trkpt lat="41.661300040" lon="2.575885070">
        <ele>770.90</ele>
        <time>2014-04-06T10:44:16Z</time>
      </trkpt>
      <trkpt lat="41.661288470" lon="2.575863450">
        <ele>770.60</ele>
        <time>2014-04-06T10:44:17Z</time>
      </trkpt>
      <trkpt lat="41.661278410" lon="2.575838470">
        <ele>770.40</ele>
        <time>2014-04-06T10:44:18Z</time>
      </trkpt>
      <trkpt lat="41.661265000" lon="2.575813490">
        <ele>770.50</ele>
        <time>2014-04-06T10:44:19Z</time>
      </trkpt>
      <trkpt lat="41.661248410" lon="2.575786670">
        <ele>770.50</ele>
        <time>2014-04-06T10:44:20Z</time>
      </trkpt>
      <trkpt lat="41.661235000" lon="2.575753480">
        <ele>770.60</ele>
        <time>2014-04-06T10:44:21Z</time>
      </trkpt>
      <trkpt lat="41.661223430" lon="2.575716760">
        <ele>770.50</ele>
        <time>2014-04-06T10:44:22Z</time>
      </trkpt>
      <trkpt lat="41.661213370" lon="2.575676700">
        <ele>770.40</ele>
        <time>2014-04-06T10:44:23Z</time>
      </trkpt>
      <trkpt lat="41.661206670" lon="2.575631770">
        <ele>770.10</ele>
        <time>2014-04-06T10:44:24Z</time>
      </trkpt>
      <trkpt lat="41.661205160" lon="2.575586680">
        <ele>770.00</ele>
        <time>2014-04-06T10:44:25Z</time>
      </trkpt>
      <trkpt lat="41.661205160" lon="2.575543420">
        <ele>769.90</ele>
        <time>2014-04-06T10:44:26Z</time>
      </trkpt>
      <trkpt lat="41.661201800" lon="2.575500010">
        <ele>769.90</ele>
        <time>2014-04-06T10:44:27Z</time>
      </trkpt>
      <trkpt lat="41.661196770" lon="2.575465140">
        <ele>769.80</ele>
        <time>2014-04-06T10:44:28Z</time>
      </trkpt>
      <trkpt lat="41.661191750" lon="2.575433450">
        <ele>769.60</ele>
        <time>2014-04-06T10:44:29Z</time>
      </trkpt>
      <trkpt lat="41.661186720" lon="2.575410150">
        <ele>769.50</ele>
        <time>2014-04-06T10:44:30Z</time>
      </trkpt>
      <trkpt lat="41.661185040" lon="2.575393390">
        <ele>769.30</ele>
        <time>2014-04-06T10:44:31Z</time>
      </trkpt>
      <trkpt lat="41.661181690" lon="2.575380150">
        <ele>769.20</ele>
        <time>2014-04-06T10:44:32Z</time>
      </trkpt>
      <trkpt lat="41.661178330" lon="2.575365060">
        <ele>769.10</ele>
        <time>2014-04-06T10:44:33Z</time>
      </trkpt>
      <trkpt lat="41.661176830" lon="2.575351810">
        <ele>769.50</ele>
        <time>2014-04-06T10:44:34Z</time>
      </trkpt>
      <trkpt lat="41.661173470" lon="2.575335050">
        <ele>769.80</ele>
        <time>2014-04-06T10:44:35Z</time>
      </trkpt>
      <trkpt lat="41.661171800" lon="2.575318450">
        <ele>770.10</ele>
        <time>2014-04-06T10:44:36Z</time>
      </trkpt>
      <trkpt lat="41.661170120" lon="2.575306720">
        <ele>770.30</ele>
        <time>2014-04-06T10:44:37Z</time>
      </trkpt>
      <trkpt lat="41.661163410" lon="2.575293480">
        <ele>770.40</ele>
        <time>2014-04-06T10:44:38Z</time>
      </trkpt>
      <trkpt lat="41.661158390" lon="2.575278390">
        <ele>770.50</ele>
        <time>2014-04-06T10:44:39Z</time>
      </trkpt>
      <trkpt lat="41.661153360" lon="2.575265150">
        <ele>770.50</ele>
        <time>2014-04-06T10:44:40Z</time>
      </trkpt>
      <trkpt lat="41.661146820" lon="2.575251730">
        <ele>770.90</ele>
        <time>2014-04-06T10:44:41Z</time>
      </trkpt>
      <trkpt lat="41.661141790" lon="2.575235140">
        <ele>771.20</ele>
        <time>2014-04-06T10:44:42Z</time>
      </trkpt>
      <trkpt lat="41.661135080" lon="2.575211670">
        <ele>771.20</ele>
        <time>2014-04-06T10:44:43Z</time>
      </trkpt>
      <trkpt lat="41.661128380" lon="2.575186690">
        <ele>771.20</ele>
        <time>2014-04-06T10:44:44Z</time>
      </trkpt>
      <trkpt lat="41.661118490" lon="2.575155010">
        <ele>770.70</ele>
        <time>2014-04-06T10:44:45Z</time>
      </trkpt>
      <trkpt lat="41.661110110" lon="2.575118460">
        <ele>770.30</ele>
        <time>2014-04-06T10:44:46Z</time>
      </trkpt>
      <trkpt lat="41.661101720" lon="2.575085100">
        <ele>770.10</ele>
        <time>2014-04-06T10:44:47Z</time>
      </trkpt>
      <trkpt lat="41.661096690" lon="2.575051740">
        <ele>770.30</ele>
        <time>2014-04-06T10:44:48Z</time>
      </trkpt>
      <trkpt lat="41.661090160" lon="2.575020060">
        <ele>770.50</ele>
        <time>2014-04-06T10:44:49Z</time>
      </trkpt>
      <trkpt lat="41.661080100" lon="2.574983350">
        <ele>770.60</ele>
        <time>2014-04-06T10:44:50Z</time>
      </trkpt>
      <trkpt lat="41.661065010" lon="2.574938420">
        <ele>770.60</ele>
        <time>2014-04-06T10:44:51Z</time>
      </trkpt>
      <trkpt lat="41.661046740" lon="2.574886790">
        <ele>770.30</ele>
        <time>2014-04-06T10:44:52Z</time>
      </trkpt>
      <trkpt lat="41.661031820" lon="2.574821740">
        <ele>770.10</ele>
        <time>2014-04-06T10:44:53Z</time>
      </trkpt>
      <trkpt lat="41.661015050" lon="2.574756700">
        <ele>769.90</ele>
        <time>2014-04-06T10:44:54Z</time>
      </trkpt>
      <trkpt lat="41.660995110" lon="2.574708420">
        <ele>769.60</ele>
        <time>2014-04-06T10:44:55Z</time>
      </trkpt>
      <trkpt lat="41.660968450" lon="2.574673380">
        <ele>769.30</ele>
        <time>2014-04-06T10:44:56Z</time>
      </trkpt>
      <trkpt lat="41.660946830" lon="2.574636670">
        <ele>769.00</ele>
        <time>2014-04-06T10:44:57Z</time>
      </trkpt>
      <trkpt lat="41.660928390" lon="2.574605150">
        <ele>768.80</ele>
        <time>2014-04-06T10:44:58Z</time>
      </trkpt>
      <trkpt lat="41.660916820" lon="2.574580010">
        <ele>768.60</ele>
        <time>2014-04-06T10:44:59Z</time>
      </trkpt>
      <trkpt lat="41.660905080" lon="2.574560060">
        <ele>768.50</ele>
        <time>2014-04-06T10:45:00Z</time>
      </trkpt>
      <trkpt lat="41.660895030" lon="2.574543460">
        <ele>768.50</ele>
        <time>2014-04-06T10:45:01Z</time>
      </trkpt>
      <trkpt lat="41.660888490" lon="2.574533410">
        <ele>768.90</ele>
        <time>2014-04-06T10:45:02Z</time>
      </trkpt>
      <trkpt lat="41.660881780" lon="2.574520160">
        <ele>769.20</ele>
        <time>2014-04-06T10:45:03Z</time>
      </trkpt>
      <trkpt lat="41.660878430" lon="2.574503400">
        <ele>769.40</ele>
        <time>2014-04-06T10:45:04Z</time>
      </trkpt>
      <trkpt lat="41.660875080" lon="2.574485130">
        <ele>769.60</ele>
        <time>2014-04-06T10:45:05Z</time>
      </trkpt>
      <trkpt lat="41.660866700" lon="2.574466690">
        <ele>769.70</ele>
        <time>2014-04-06T10:45:06Z</time>
      </trkpt>
      <trkpt lat="41.660858480" lon="2.574448410">
        <ele>769.70</ele>
        <time>2014-04-06T10:45:07Z</time>
      </trkpt>
      <trkpt lat="41.660851780" lon="2.574425110">
        <ele>769.80</ele>
        <time>2014-04-06T10:45:08Z</time>
      </trkpt>
      <trkpt lat="41.660848420" lon="2.574405160">
        <ele>769.50</ele>
        <time>2014-04-06T10:45:09Z</time>
      </trkpt>
      <trkpt lat="41.660843390" lon="2.574376660">
        <ele>769.40</ele>
        <time>2014-04-06T10:45:10Z</time>
      </trkpt>
      <trkpt lat="41.660836690" lon="2.574341800">
        <ele>769.50</ele>
        <time>2014-04-06T10:45:11Z</time>
      </trkpt>
      <trkpt lat="41.660830150" lon="2.574303410">
        <ele>769.60</ele>
        <time>2014-04-06T10:45:12Z</time>
      </trkpt>
      <trkpt lat="41.660823440" lon="2.574258480">
        <ele>769.70</ele>
        <time>2014-04-06T10:45:13Z</time>
      </trkpt>
      <trkpt lat="41.660813390" lon="2.574201820">
        <ele>769.20</ele>
        <time>2014-04-06T10:45:14Z</time>
      </trkpt>
      <trkpt lat="41.660805000" lon="2.574145160">
        <ele>768.90</ele>
        <time>2014-04-06T10:45:15Z</time>
      </trkpt>
      <trkpt lat="41.660793440" lon="2.574078440">
        <ele>768.20</ele>
        <time>2014-04-06T10:45:16Z</time>
      </trkpt>
      <trkpt lat="41.660780030" lon="2.574011720">
        <ele>767.70</ele>
        <time>2014-04-06T10:45:17Z</time>
      </trkpt>
      <trkpt lat="41.660776670" lon="2.573955050">
        <ele>767.40</ele>
        <time>2014-04-06T10:45:18Z</time>
      </trkpt>
      <trkpt lat="41.660778350" lon="2.573898390">
        <ele>767.10</ele>
        <time>2014-04-06T10:45:19Z</time>
      </trkpt>
      <trkpt lat="41.660781700" lon="2.573845080">
        <ele>766.90</ele>
        <time>2014-04-06T10:45:20Z</time>
      </trkpt>
      <trkpt lat="41.660790080" lon="2.573796800">
        <ele>766.80</ele>
        <time>2014-04-06T10:45:21Z</time>
      </trkpt>
      <trkpt lat="41.660796790" lon="2.573760090">
        <ele>766.80</ele>
        <time>2014-04-06T10:45:22Z</time>
      </trkpt>
      <trkpt lat="41.660805000" lon="2.573730080">
        <ele>766.80</ele>
        <time>2014-04-06T10:45:23Z</time>
      </trkpt>
      <trkpt lat="41.660810030" lon="2.573688340">
        <ele>766.80</ele>
        <time>2014-04-06T10:45:24Z</time>
      </trkpt>
      <trkpt lat="41.660816740" lon="2.573643410">
        <ele>766.80</ele>
        <time>2014-04-06T10:45:25Z</time>
      </trkpt>
      <trkpt lat="41.660823440" lon="2.573600000">
        <ele>766.40</ele>
        <time>2014-04-06T10:45:26Z</time>
      </trkpt>
      <trkpt lat="41.660828470" lon="2.573553390">
        <ele>766.00</ele>
        <time>2014-04-06T10:45:27Z</time>
      </trkpt>
      <trkpt lat="41.660831830" lon="2.573503440">
        <ele>765.60</ele>
        <time>2014-04-06T10:45:28Z</time>
      </trkpt>
      <trkpt lat="41.660833340" lon="2.573455160">
        <ele>765.30</ele>
        <time>2014-04-06T10:45:29Z</time>
      </trkpt>
      <trkpt lat="41.660835010" lon="2.573415090">
        <ele>765.40</ele>
        <time>2014-04-06T10:45:30Z</time>
      </trkpt>
      <trkpt lat="41.660830150" lon="2.573365140">
        <ele>765.40</ele>
        <time>2014-04-06T10:45:31Z</time>
      </trkpt>
      <trkpt lat="41.660821770" lon="2.573306800">
        <ele>765.40</ele>
        <time>2014-04-06T10:45:32Z</time>
      </trkpt>
      <trkpt lat="41.660806680" lon="2.573245110">
        <ele>765.20</ele>
        <time>2014-04-06T10:45:33Z</time>
      </trkpt>
      <trkpt lat="41.660791760" lon="2.573178390">
        <ele>765.10</ele>
        <time>2014-04-06T10:45:34Z</time>
      </trkpt>
      <trkpt lat="41.660778350" lon="2.573111670">
        <ele>764.40</ele>
        <time>2014-04-06T10:45:35Z</time>
      </trkpt>
      <trkpt lat="41.660763430" lon="2.573036730">
        <ele>763.80</ele>
        <time>2014-04-06T10:45:36Z</time>
      </trkpt>
      <trkpt lat="41.660756720" lon="2.572956770">
        <ele>763.40</ele>
        <time>2014-04-06T10:45:37Z</time>
      </trkpt>
      <trkpt lat="41.660771810" lon="2.572885020">
        <ele>763.10</ele>
        <time>2014-04-06T10:45:38Z</time>
      </trkpt>
      <trkpt lat="41.660785060" lon="2.572811760">
        <ele>762.80</ele>
        <time>2014-04-06T10:45:39Z</time>
      </trkpt>
      <trkpt lat="41.660800140" lon="2.572745040">
        <ele>762.40</ele>
        <time>2014-04-06T10:45:40Z</time>
      </trkpt>
      <trkpt lat="41.660811710" lon="2.572686700">
        <ele>762.00</ele>
        <time>2014-04-06T10:45:41Z</time>
      </trkpt>
      <trkpt lat="41.660820090" lon="2.572633400">
        <ele>761.70</ele>
        <time>2014-04-06T10:45:42Z</time>
      </trkpt>
      <trkpt lat="41.660826800" lon="2.572590140">
        <ele>761.50</ele>
        <time>2014-04-06T10:45:43Z</time>
      </trkpt>
      <trkpt lat="41.660835010" lon="2.572545050">
        <ele>761.30</ele>
        <time>2014-04-06T10:45:44Z</time>
      </trkpt>
      <trkpt lat="41.660840040" lon="2.572508340">
        <ele>760.90</ele>
        <time>2014-04-06T10:45:45Z</time>
      </trkpt>
      <trkpt lat="41.660845070" lon="2.572475150">
        <ele>760.60</ele>
        <time>2014-04-06T10:45:46Z</time>
      </trkpt>
      <trkpt lat="41.660850100" lon="2.572436760">
        <ele>761.00</ele>
        <time>2014-04-06T10:45:47Z</time>
      </trkpt>
      <trkpt lat="41.660855130" lon="2.572401720">
        <ele>761.20</ele>
        <time>2014-04-06T10:45:48Z</time>
      </trkpt>
      <trkpt lat="41.660856800" lon="2.572370040">
        <ele>761.60</ele>
        <time>2014-04-06T10:45:49Z</time>
      </trkpt>
      <trkpt lat="41.660860160" lon="2.572341710">
        <ele>761.90</ele>
        <time>2014-04-06T10:45:50Z</time>
      </trkpt>
      <trkpt lat="41.660863340" lon="2.572310020">
        <ele>762.10</ele>
        <time>2014-04-06T10:45:51Z</time>
      </trkpt>
      <trkpt lat="41.660865020" lon="2.572276660">
        <ele>762.50</ele>
        <time>2014-04-06T10:45:52Z</time>
      </trkpt>
      <trkpt lat="41.660868370" lon="2.572245150">
        <ele>762.70</ele>
        <time>2014-04-06T10:45:53Z</time>
      </trkpt>
      <trkpt lat="41.660870050" lon="2.572211790">
        <ele>762.90</ele>
        <time>2014-04-06T10:45:54Z</time>
      </trkpt>
      <trkpt lat="41.660871720" lon="2.572178430">
        <ele>763.10</ele>
        <time>2014-04-06T10:45:55Z</time>
      </trkpt>
      <trkpt lat="41.660875080" lon="2.572140040">
        <ele>763.20</ele>
        <time>2014-04-06T10:45:56Z</time>
      </trkpt>
      <trkpt lat="41.660880110" lon="2.572101820">
        <ele>763.60</ele>
        <time>2014-04-06T10:45:57Z</time>
      </trkpt>
      <trkpt lat="41.660885140" lon="2.572063430">
        <ele>763.80</ele>
        <time>2014-04-06T10:45:58Z</time>
      </trkpt>
      <trkpt lat="41.660891670" lon="2.572030070">
        <ele>763.60</ele>
        <time>2014-04-06T10:45:59Z</time>
      </trkpt>
      <trkpt lat="41.660900060" lon="2.572001740">
        <ele>763.40</ele>
        <time>2014-04-06T10:46:00Z</time>
      </trkpt>
      <trkpt lat="41.660910110" lon="2.571971730">
        <ele>763.40</ele>
        <time>2014-04-06T10:46:01Z</time>
      </trkpt>
      <trkpt lat="41.660920000" lon="2.571935020">
        <ele>763.40</ele>
        <time>2014-04-06T10:46:02Z</time>
      </trkpt>
      <trkpt lat="41.660933420" lon="2.571898470">
        <ele>763.40</ele>
        <time>2014-04-06T10:46:03Z</time>
      </trkpt>
      <trkpt lat="41.660948330" lon="2.571860080">
        <ele>763.50</ele>
        <time>2014-04-06T10:46:04Z</time>
      </trkpt>
      <trkpt lat="41.660961750" lon="2.571821690">
        <ele>763.50</ele>
        <time>2014-04-06T10:46:05Z</time>
      </trkpt>
      <trkpt lat="41.660973480" lon="2.571785150">
        <ele>763.20</ele>
        <time>2014-04-06T10:46:06Z</time>
      </trkpt>
      <trkpt lat="41.660980020" lon="2.571746760">
        <ele>763.00</ele>
        <time>2014-04-06T10:46:07Z</time>
      </trkpt>
      <trkpt lat="41.660986720" lon="2.571708370">
        <ele>763.10</ele>
        <time>2014-04-06T10:46:08Z</time>
      </trkpt>
      <trkpt lat="41.660991750" lon="2.571676690">
        <ele>763.10</ele>
        <time>2014-04-06T10:46:09Z</time>
      </trkpt>
      <trkpt lat="41.660996780" lon="2.571648350">
        <ele>763.20</ele>
        <time>2014-04-06T10:46:10Z</time>
      </trkpt>
      <trkpt lat="41.661005000" lon="2.571630080">
        <ele>763.40</ele>
        <time>2014-04-06T10:46:11Z</time>
      </trkpt>
      <trkpt lat="41.661010030" lon="2.571605100">
        <ele>763.60</ele>
        <time>2014-04-06T10:46:12Z</time>
      </trkpt>
      <trkpt lat="41.661018410" lon="2.571576770">
        <ele>763.80</ele>
        <time>2014-04-06T10:46:13Z</time>
      </trkpt>
      <trkpt lat="41.661031820" lon="2.571553470">
        <ele>763.90</ele>
        <time>2014-04-06T10:46:14Z</time>
      </trkpt>
      <trkpt lat="41.661048410" lon="2.571525140">
        <ele>764.00</ele>
        <time>2014-04-06T10:46:15Z</time>
      </trkpt>
      <trkpt lat="41.661063330" lon="2.571490100">
        <ele>764.10</ele>
        <time>2014-04-06T10:46:16Z</time>
      </trkpt>
      <trkpt lat="41.661081770" lon="2.571460100">
        <ele>764.20</ele>
        <time>2014-04-06T10:46:17Z</time>
      </trkpt>
      <trkpt lat="41.661103400" lon="2.571425060">
        <ele>764.50</ele>
        <time>2014-04-06T10:46:18Z</time>
      </trkpt>
      <trkpt lat="41.661125030" lon="2.571385160">
        <ele>764.70</ele>
        <time>2014-04-06T10:46:19Z</time>
      </trkpt>
      <trkpt lat="41.661150000" lon="2.571340070">
        <ele>764.70</ele>
        <time>2014-04-06T10:46:20Z</time>
      </trkpt>
      <trkpt lat="41.661175150" lon="2.571293460">
        <ele>764.70</ele>
        <time>2014-04-06T10:46:21Z</time>
      </trkpt>
      <trkpt lat="41.661200130" lon="2.571240160">
        <ele>764.60</ele>
        <time>2014-04-06T10:46:22Z</time>
      </trkpt>
      <trkpt lat="41.661221750" lon="2.571188360">
        <ele>764.50</ele>
        <time>2014-04-06T10:46:23Z</time>
      </trkpt>
      <trkpt lat="41.661246730" lon="2.571131690">
        <ele>764.40</ele>
        <time>2014-04-06T10:46:24Z</time>
      </trkpt>
      <trkpt lat="41.661268360" lon="2.571075030">
        <ele>763.90</ele>
        <time>2014-04-06T10:46:25Z</time>
      </trkpt>
      <trkpt lat="41.661281770" lon="2.571025080">
        <ele>763.50</ele>
        <time>2014-04-06T10:46:26Z</time>
      </trkpt>
      <trkpt lat="41.661280090" lon="2.570971770">
        <ele>763.00</ele>
        <time>2014-04-06T10:46:27Z</time>
      </trkpt>
      <trkpt lat="41.661265000" lon="2.570928350">
        <ele>762.60</ele>
        <time>2014-04-06T10:46:28Z</time>
      </trkpt>
      <trkpt lat="41.661243380" lon="2.570896670">
        <ele>762.30</ele>
        <time>2014-04-06T10:46:29Z</time>
      </trkpt>
      <trkpt lat="41.661213370" lon="2.570866830">
        <ele>761.70</ele>
        <time>2014-04-06T10:46:30Z</time>
      </trkpt>
      <trkpt lat="41.661180010" lon="2.570851740">
        <ele>761.40</ele>
        <time>2014-04-06T10:46:31Z</time>
      </trkpt>
      <trkpt lat="41.661150000" lon="2.570858440">
        <ele>760.60</ele>
        <time>2014-04-06T10:46:32Z</time>
      </trkpt>
      <trkpt lat="41.661110110" lon="2.570876720">
        <ele>760.00</ele>
        <time>2014-04-06T10:46:33Z</time>
      </trkpt>
      <trkpt lat="41.661060150" lon="2.570910080">
        <ele>759.60</ele>
        <time>2014-04-06T10:46:34Z</time>
      </trkpt>
      <trkpt lat="41.661005000" lon="2.570936730">
        <ele>759.10</ele>
        <time>2014-04-06T10:46:35Z</time>
      </trkpt>
      <trkpt lat="41.660946830" lon="2.570945110">
        <ele>758.70</ele>
        <time>2014-04-06T10:46:36Z</time>
      </trkpt>
      <trkpt lat="41.660888490" lon="2.570946790">
        <ele>757.80</ele>
        <time>2014-04-06T10:46:37Z</time>
      </trkpt>
      <trkpt lat="41.660838360" lon="2.570925000">
        <ele>757.10</ele>
        <time>2014-04-06T10:46:38Z</time>
      </trkpt>
      <trkpt lat="41.660793440" lon="2.570895160">
        <ele>756.50</ele>
        <time>2014-04-06T10:46:39Z</time>
      </trkpt>
      <trkpt lat="41.660756720" lon="2.570870010">
        <ele>756.10</ele>
        <time>2014-04-06T10:46:40Z</time>
      </trkpt>
      <trkpt lat="41.660731750" lon="2.570845030">
        <ele>755.70</ele>
        <time>2014-04-06T10:46:41Z</time>
      </trkpt>
      <trkpt lat="41.660706770" lon="2.570820050">
        <ele>755.20</ele>
        <time>2014-04-06T10:46:42Z</time>
      </trkpt>
      <trkpt lat="41.660683470" lon="2.570783340">
        <ele>754.70</ele>
        <time>2014-04-06T10:46:43Z</time>
      </trkpt>
      <trkpt lat="41.660658490" lon="2.570745120">
        <ele>754.10</ele>
        <time>2014-04-06T10:46:44Z</time>
      </trkpt>
      <trkpt lat="41.660631670" lon="2.570701700">
        <ele>753.60</ele>
        <time>2014-04-06T10:46:45Z</time>
      </trkpt>
      <trkpt lat="41.660605010" lon="2.570658450">
        <ele>752.70</ele>
        <time>2014-04-06T10:46:46Z</time>
      </trkpt>
      <trkpt lat="41.660580030" lon="2.570615030">
        <ele>752.00</ele>
        <time>2014-04-06T10:46:47Z</time>
      </trkpt>
      <trkpt lat="41.660556730" lon="2.570571780">
        <ele>751.50</ele>
        <time>2014-04-06T10:46:48Z</time>
      </trkpt>
      <trkpt lat="41.660530080" lon="2.570516800">
        <ele>750.70</ele>
        <time>2014-04-06T10:46:49Z</time>
      </trkpt>
      <trkpt lat="41.660511810" lon="2.570460140">
        <ele>750.20</ele>
        <time>2014-04-06T10:46:50Z</time>
      </trkpt>
      <trkpt lat="41.660491690" lon="2.570403470">
        <ele>749.40</ele>
        <time>2014-04-06T10:46:51Z</time>
      </trkpt>
      <trkpt lat="41.660473420" lon="2.570345140">
        <ele>748.80</ele>
        <time>2014-04-06T10:46:52Z</time>
      </trkpt>
      <trkpt lat="41.660461680" lon="2.570283450">
        <ele>748.40</ele>
        <time>2014-04-06T10:46:53Z</time>
      </trkpt>
      <trkpt lat="41.660456820" lon="2.570216730">
        <ele>747.50</ele>
        <time>2014-04-06T10:46:54Z</time>
      </trkpt>
      <trkpt lat="41.660455140" lon="2.570145140">
        <ele>746.80</ele>
        <time>2014-04-06T10:46:55Z</time>
      </trkpt>
      <trkpt lat="41.660453470" lon="2.570075070">
        <ele>746.10</ele>
        <time>2014-04-06T10:46:56Z</time>
      </trkpt>
      <trkpt lat="41.660453470" lon="2.570000140">
        <ele>745.60</ele>
        <time>2014-04-06T10:46:57Z</time>
      </trkpt>
      <trkpt lat="41.660455140" lon="2.569920010">
        <ele>745.10</ele>
        <time>2014-04-06T10:46:58Z</time>
      </trkpt>
      <trkpt lat="41.660458330" lon="2.569851780">
        <ele>744.80</ele>
        <time>2014-04-06T10:46:59Z</time>
      </trkpt>
      <trkpt lat="41.660461680" lon="2.569780030">
        <ele>744.50</ele>
        <time>2014-04-06T10:47:00Z</time>
      </trkpt>
      <trkpt lat="41.660470060" lon="2.569715150">
        <ele>743.40</ele>
        <time>2014-04-06T10:47:01Z</time>
      </trkpt>
      <trkpt lat="41.660473420" lon="2.569661680">
        <ele>742.60</ele>
        <time>2014-04-06T10:47:02Z</time>
      </trkpt>
      <trkpt lat="41.660475090" lon="2.569613400">
        <ele>742.10</ele>
        <time>2014-04-06T10:47:03Z</time>
      </trkpt>
      <trkpt lat="41.660478450" lon="2.569578360">
        <ele>741.70</ele>
        <time>2014-04-06T10:47:04Z</time>
      </trkpt>
      <trkpt lat="41.660481800" lon="2.569540140">
        <ele>741.40</ele>
        <time>2014-04-06T10:47:05Z</time>
      </trkpt>
      <trkpt lat="41.660486830" lon="2.569503430">
        <ele>741.20</ele>
        <time>2014-04-06T10:47:06Z</time>
      </trkpt>
      <trkpt lat="41.660490010" lon="2.569470070">
        <ele>741.00</ele>
        <time>2014-04-06T10:47:07Z</time>
      </trkpt>
      <trkpt lat="41.660495040" lon="2.569436710">
        <ele>740.70</ele>
        <time>2014-04-06T10:47:08Z</time>
      </trkpt>
      <trkpt lat="41.660503420" lon="2.569403350">
        <ele>740.50</ele>
        <time>2014-04-06T10:47:09Z</time>
      </trkpt>
      <trkpt lat="41.660508450" lon="2.569376690">
        <ele>740.60</ele>
        <time>2014-04-06T10:47:10Z</time>
      </trkpt>
      <trkpt lat="41.660516670" lon="2.569351710">
        <ele>740.70</ele>
        <time>2014-04-06T10:47:11Z</time>
      </trkpt>
      <trkpt lat="41.660523370" lon="2.569326730">
        <ele>740.80</ele>
        <time>2014-04-06T10:47:12Z</time>
      </trkpt>
      <trkpt lat="41.660530080" lon="2.569298400">
        <ele>740.70</ele>
        <time>2014-04-06T10:47:13Z</time>
      </trkpt>
      <trkpt lat="41.660535110" lon="2.569266720">
        <ele>740.70</ele>
        <time>2014-04-06T10:47:14Z</time>
      </trkpt>
      <trkpt lat="41.660538460" lon="2.569236710">
        <ele>741.00</ele>
        <time>2014-04-06T10:47:15Z</time>
      </trkpt>
      <trkpt lat="41.660541810" lon="2.569206710">
        <ele>741.30</ele>
        <time>2014-04-06T10:47:16Z</time>
      </trkpt>
      <trkpt lat="41.660543490" lon="2.569173350">
        <ele>741.90</ele>
        <time>2014-04-06T10:47:17Z</time>
      </trkpt>
      <trkpt lat="41.660545000" lon="2.569143340">
        <ele>742.40</ele>
        <time>2014-04-06T10:47:18Z</time>
      </trkpt>
      <trkpt lat="41.660546670" lon="2.569111820">
        <ele>742.80</ele>
        <time>2014-04-06T10:47:19Z</time>
      </trkpt>
      <trkpt lat="41.660550030" lon="2.569081820">
        <ele>743.10</ele>
        <time>2014-04-06T10:47:20Z</time>
      </trkpt>
      <trkpt lat="41.660551700" lon="2.569053480">
        <ele>743.30</ele>
        <time>2014-04-06T10:47:21Z</time>
      </trkpt>
      <trkpt lat="41.660553380" lon="2.569020120">
        <ele>743.20</ele>
        <time>2014-04-06T10:47:22Z</time>
      </trkpt>
      <trkpt lat="41.660553380" lon="2.568983410">
        <ele>743.20</ele>
        <time>2014-04-06T10:47:23Z</time>
      </trkpt>
      <trkpt lat="41.660555060" lon="2.568943350">
        <ele>743.30</ele>
        <time>2014-04-06T10:47:24Z</time>
      </trkpt>
      <trkpt lat="41.660558410" lon="2.568898420">
        <ele>743.30</ele>
        <time>2014-04-06T10:47:25Z</time>
      </trkpt>
      <trkpt lat="41.660555060" lon="2.568848460">
        <ele>743.40</ele>
        <time>2014-04-06T10:47:26Z</time>
      </trkpt>
      <trkpt lat="41.660546670" lon="2.568793480">
        <ele>743.80</ele>
        <time>2014-04-06T10:47:27Z</time>
      </trkpt>
      <trkpt lat="41.660533430" lon="2.568746710">
        <ele>744.20</ele>
        <time>2014-04-06T10:47:28Z</time>
      </trkpt>
      <trkpt lat="41.660516670" lon="2.568696750">
        <ele>744.00</ele>
        <time>2014-04-06T10:47:29Z</time>
      </trkpt>
      <trkpt lat="41.660501750" lon="2.568646790">
        <ele>743.90</ele>
        <time>2014-04-06T10:47:30Z</time>
      </trkpt>
      <trkpt lat="41.660486830" lon="2.568595160">
        <ele>743.90</ele>
        <time>2014-04-06T10:47:31Z</time>
      </trkpt>
      <trkpt lat="41.660470060" lon="2.568546710">
        <ele>743.70</ele>
        <time>2014-04-06T10:47:32Z</time>
      </trkpt>
      <trkpt lat="41.660450110" lon="2.568503460">
        <ele>743.60</ele>
        <time>2014-04-06T10:47:33Z</time>
      </trkpt>
      <trkpt lat="41.660430000" lon="2.568460050">
        <ele>743.10</ele>
        <time>2014-04-06T10:47:34Z</time>
      </trkpt>
      <trkpt lat="41.660408370" lon="2.568415120">
        <ele>742.80</ele>
        <time>2014-04-06T10:47:35Z</time>
      </trkpt>
      <trkpt lat="41.660391780" lon="2.568371700">
        <ele>741.60</ele>
        <time>2014-04-06T10:47:36Z</time>
      </trkpt>
      <trkpt lat="41.660370150" lon="2.568318390">
        <ele>740.80</ele>
        <time>2014-04-06T10:47:37Z</time>
      </trkpt>
      <trkpt lat="41.660350030" lon="2.568263410">
        <ele>740.20</ele>
        <time>2014-04-06T10:47:38Z</time>
      </trkpt>
      <trkpt lat="41.660331760" lon="2.568205070">
        <ele>739.30</ele>
        <time>2014-04-06T10:47:39Z</time>
      </trkpt>
      <trkpt lat="41.660323380" lon="2.568143380">
        <ele>738.70</ele>
        <time>2014-04-06T10:47:40Z</time>
      </trkpt>
      <trkpt lat="41.660325060" lon="2.568091750">
        <ele>738.10</ele>
        <time>2014-04-06T10:47:41Z</time>
      </trkpt>
      <trkpt lat="41.660333440" lon="2.568043470">
        <ele>737.60</ele>
        <time>2014-04-06T10:47:42Z</time>
      </trkpt>
      <trkpt lat="41.660353390" lon="2.567993340">
        <ele>736.90</ele>
        <time>2014-04-06T10:47:43Z</time>
      </trkpt>
      <trkpt lat="41.660376690" lon="2.567955120">
        <ele>736.50</ele>
        <time>2014-04-06T10:47:44Z</time>
      </trkpt>
      <trkpt lat="41.660400160" lon="2.567923440">
        <ele>736.20</ele>
        <time>2014-04-06T10:47:45Z</time>
      </trkpt>
      <trkpt lat="41.660425140" lon="2.567885050">
        <ele>735.40</ele>
        <time>2014-04-06T10:47:46Z</time>
      </trkpt>
      <trkpt lat="41.660448440" lon="2.567855040">
        <ele>734.80</ele>
        <time>2014-04-06T10:47:47Z</time>
      </trkpt>
      <trkpt lat="41.660473420" lon="2.567830060">
        <ele>734.10</ele>
        <time>2014-04-06T10:47:48Z</time>
      </trkpt>
      <trkpt lat="41.660490010" lon="2.567811790">
        <ele>733.60</ele>
        <time>2014-04-06T10:47:49Z</time>
      </trkpt>
      <trkpt lat="41.660501750" lon="2.567793350">
        <ele>733.20</ele>
        <time>2014-04-06T10:47:50Z</time>
      </trkpt>
      <trkpt lat="41.660513480" lon="2.567773400">
        <ele>732.80</ele>
        <time>2014-04-06T10:47:51Z</time>
      </trkpt>
      <trkpt lat="41.660525050" lon="2.567753450">
        <ele>732.40</ele>
        <time>2014-04-06T10:47:52Z</time>
      </trkpt>
      <trkpt lat="41.660535110" lon="2.567736690">
        <ele>731.80</ele>
        <time>2014-04-06T10:47:53Z</time>
      </trkpt>
      <trkpt lat="41.660538460" lon="2.567721770">
        <ele>731.30</ele>
        <time>2014-04-06T10:47:54Z</time>
      </trkpt>
      <trkpt lat="41.660538460" lon="2.567700140">
        <ele>730.80</ele>
        <time>2014-04-06T10:47:55Z</time>
      </trkpt>
      <trkpt lat="41.660538460" lon="2.567678350">
        <ele>730.40</ele>
        <time>2014-04-06T10:47:56Z</time>
      </trkpt>
      <trkpt lat="41.660535110" lon="2.567656720">
        <ele>730.20</ele>
        <time>2014-04-06T10:47:57Z</time>
      </trkpt>
      <trkpt lat="41.660528400" lon="2.567640130">
        <ele>729.90</ele>
        <time>2014-04-06T10:47:58Z</time>
      </trkpt>
      <trkpt lat="41.660521700" lon="2.567625040">
        <ele>729.80</ele>
        <time>2014-04-06T10:47:59Z</time>
      </trkpt>
      <trkpt lat="41.660511810" lon="2.567610120">
        <ele>729.30</ele>
        <time>2014-04-06T10:48:00Z</time>
      </trkpt>
      <trkpt lat="41.660500070" lon="2.567596710">
        <ele>729.00</ele>
        <time>2014-04-06T10:48:01Z</time>
      </trkpt>
      <trkpt lat="41.660490010" lon="2.567583470">
        <ele>729.00</ele>
        <time>2014-04-06T10:48:02Z</time>
      </trkpt>
      <trkpt lat="41.660480120" lon="2.567566700">
        <ele>729.10</ele>
        <time>2014-04-06T10:48:03Z</time>
      </trkpt>
      <trkpt lat="41.660468390" lon="2.567550110">
        <ele>729.10</ele>
        <time>2014-04-06T10:48:04Z</time>
      </trkpt>
      <trkpt lat="41.660460010" lon="2.567533340">
        <ele>729.10</ele>
        <time>2014-04-06T10:48:05Z</time>
      </trkpt>
      <trkpt lat="41.660453470" lon="2.567516750">
        <ele>729.20</ele>
        <time>2014-04-06T10:48:06Z</time>
      </trkpt>
      <trkpt lat="41.660446760" lon="2.567501830">
        <ele>729.10</ele>
        <time>2014-04-06T10:48:07Z</time>
      </trkpt>
      <trkpt lat="41.660436700" lon="2.567483390">
        <ele>729.00</ele>
        <time>2014-04-06T10:48:08Z</time>
      </trkpt>
      <trkpt lat="41.660428490" lon="2.567468470">
        <ele>728.90</ele>
        <time>2014-04-06T10:48:09Z</time>
      </trkpt>
      <trkpt lat="41.660420110" lon="2.567451700">
        <ele>729.50</ele>
        <time>2014-04-06T10:48:10Z</time>
      </trkpt>
      <trkpt lat="41.660415080" lon="2.567436780">
        <ele>729.90</ele>
        <time>2014-04-06T10:48:11Z</time>
      </trkpt>
      <trkpt lat="41.660408370" lon="2.567421700">
        <ele>730.30</ele>
        <time>2014-04-06T10:48:12Z</time>
      </trkpt>
      <trkpt lat="41.660401670" lon="2.567406780">
        <ele>730.70</ele>
        <time>2014-04-06T10:48:13Z</time>
      </trkpt>
      <trkpt lat="41.660398480" lon="2.567395040">
        <ele>730.90</ele>
        <time>2014-04-06T10:48:14Z</time>
      </trkpt>
      <trkpt lat="41.660393450" lon="2.567385150">
        <ele>731.10</ele>
        <time>2014-04-06T10:48:15Z</time>
      </trkpt>
      <trkpt lat="41.660388420" lon="2.567373420">
        <ele>731.30</ele>
        <time>2014-04-06T10:48:16Z</time>
      </trkpt>
      <trkpt lat="41.660385070" lon="2.567358330">
        <ele>731.90</ele>
        <time>2014-04-06T10:48:17Z</time>
      </trkpt>
      <trkpt lat="41.660380040" lon="2.567343410">
        <ele>732.30</ele>
        <time>2014-04-06T10:48:18Z</time>
      </trkpt>
      <trkpt lat="41.660376690" lon="2.567326810">
        <ele>732.60</ele>
        <time>2014-04-06T10:48:19Z</time>
      </trkpt>
      <trkpt lat="41.660371830" lon="2.567310050">
        <ele>732.80</ele>
        <time>2014-04-06T10:48:20Z</time>
      </trkpt>
      <trkpt lat="41.660368470" lon="2.567291780">
        <ele>733.00</ele>
        <time>2014-04-06T10:48:21Z</time>
      </trkpt>
      <trkpt lat="41.660363450" lon="2.567268470">
        <ele>733.30</ele>
        <time>2014-04-06T10:48:22Z</time>
      </trkpt>
      <trkpt lat="41.660355060" lon="2.567238470">
        <ele>733.40</ele>
        <time>2014-04-06T10:48:23Z</time>
      </trkpt>
      <trkpt lat="41.660345010" lon="2.567203430">
        <ele>733.50</ele>
        <time>2014-04-06T10:48:24Z</time>
      </trkpt>
      <trkpt lat="41.660335110" lon="2.567171750">
        <ele>733.50</ele>
        <time>2014-04-06T10:48:25Z</time>
      </trkpt>
      <trkpt lat="41.660321700" lon="2.567141740">
        <ele>733.60</ele>
        <time>2014-04-06T10:48:26Z</time>
      </trkpt>
      <trkpt lat="41.660308460" lon="2.567111730">
        <ele>733.70</ele>
        <time>2014-04-06T10:48:27Z</time>
      </trkpt>
      <trkpt lat="41.660295050" lon="2.567081730">
        <ele>733.30</ele>
        <time>2014-04-06T10:48:28Z</time>
      </trkpt>
      <trkpt lat="41.660280130" lon="2.567053390">
        <ele>733.00</ele>
        <time>2014-04-06T10:48:29Z</time>
      </trkpt>
      <trkpt lat="41.660268390" lon="2.567028420">
        <ele>732.80</ele>
        <time>2014-04-06T10:48:30Z</time>
      </trkpt>
      <trkpt lat="41.660253480" lon="2.567006790">
        <ele>732.20</ele>
        <time>2014-04-06T10:48:31Z</time>
      </trkpt>
      <trkpt lat="41.660238390" lon="2.566993380">
        <ele>731.70</ele>
        <time>2014-04-06T10:48:32Z</time>
      </trkpt>
      <trkpt lat="41.660221790" lon="2.566980140">
        <ele>731.20</ele>
        <time>2014-04-06T10:48:33Z</time>
      </trkpt>
      <trkpt lat="41.660200000" lon="2.566960020">
        <ele>730.80</ele>
        <time>2014-04-06T10:48:34Z</time>
      </trkpt>
      <trkpt lat="41.660175020" lon="2.566938400">
        <ele>730.50</ele>
        <time>2014-04-06T10:48:35Z</time>
      </trkpt>
      <trkpt lat="41.660148370" lon="2.566916770">
        <ele>730.00</ele>
        <time>2014-04-06T10:48:36Z</time>
      </trkpt>
      <trkpt lat="41.660116680" lon="2.566893470">
        <ele>729.60</ele>
        <time>2014-04-06T10:48:37Z</time>
      </trkpt>
      <trkpt lat="41.660083490" lon="2.566870000">
        <ele>728.70</ele>
        <time>2014-04-06T10:48:38Z</time>
      </trkpt>
      <trkpt lat="41.660046780" lon="2.566846700">
        <ele>728.00</ele>
        <time>2014-04-06T10:48:39Z</time>
      </trkpt>
      <trkpt lat="41.660010060" lon="2.566820040">
        <ele>727.00</ele>
        <time>2014-04-06T10:48:40Z</time>
      </trkpt>
      <trkpt lat="41.659971680" lon="2.566793390">
        <ele>726.30</ele>
        <time>2014-04-06T10:48:41Z</time>
      </trkpt>
      <trkpt lat="41.659935130" lon="2.566765060">
        <ele>725.70</ele>
        <time>2014-04-06T10:48:42Z</time>
      </trkpt>
      <trkpt lat="41.659896740" lon="2.566736730">
        <ele>725.10</ele>
        <time>2014-04-06T10:48:43Z</time>
      </trkpt>
      <trkpt lat="41.659858350" lon="2.566708400">
        <ele>724.60</ele>
        <time>2014-04-06T10:48:44Z</time>
      </trkpt>
      <trkpt lat="41.659818450" lon="2.566676710">
        <ele>723.60</ele>
        <time>2014-04-06T10:48:45Z</time>
      </trkpt>
      <trkpt lat="41.659775040" lon="2.566631790">
        <ele>722.80</ele>
        <time>2014-04-06T10:48:46Z</time>
      </trkpt>
      <trkpt lat="41.659733460" lon="2.566575120">
        <ele>722.30</ele>
        <time>2014-04-06T10:48:47Z</time>
      </trkpt>
      <trkpt lat="41.659690040" lon="2.566518460">
        <ele>721.70</ele>
        <time>2014-04-06T10:48:48Z</time>
      </trkpt>
      <trkpt lat="41.659638410" lon="2.566468340">
        <ele>721.20</ele>
        <time>2014-04-06T10:48:49Z</time>
      </trkpt>
      <trkpt lat="41.659590130" lon="2.566426760">
        <ele>720.20</ele>
        <time>2014-04-06T10:48:50Z</time>
      </trkpt>
      <trkpt lat="41.659545040" lon="2.566391730">
        <ele>719.40</ele>
        <time>2014-04-06T10:48:51Z</time>
      </trkpt>
      <trkpt lat="41.659506820" lon="2.566361720">
        <ele>718.70</ele>
        <time>2014-04-06T10:48:52Z</time>
      </trkpt>
      <trkpt lat="41.659473460" lon="2.566341770">
        <ele>718.30</ele>
        <time>2014-04-06T10:48:53Z</time>
      </trkpt>
      <trkpt lat="41.659445120" lon="2.566315120">
        <ele>717.90</ele>
        <time>2014-04-06T10:48:54Z</time>
      </trkpt>
      <trkpt lat="41.659416790" lon="2.566276730">
        <ele>716.80</ele>
        <time>2014-04-06T10:48:55Z</time>
      </trkpt>
      <trkpt lat="41.659383430" lon="2.566225100">
        <ele>716.00</ele>
        <time>2014-04-06T10:48:56Z</time>
      </trkpt>
      <trkpt lat="41.659348400" lon="2.566168430">
        <ele>715.20</ele>
        <time>2014-04-06T10:48:57Z</time>
      </trkpt>
      <trkpt lat="41.659303470" lon="2.566123340">
        <ele>714.60</ele>
        <time>2014-04-06T10:48:58Z</time>
      </trkpt>
      <trkpt lat="41.659258380" lon="2.566085120">
        <ele>714.10</ele>
        <time>2014-04-06T10:48:59Z</time>
      </trkpt>
      <trkpt lat="41.659221660" lon="2.566053430">
        <ele>713.70</ele>
        <time>2014-04-06T10:49:00Z</time>
      </trkpt>
      <trkpt lat="41.659191820" lon="2.566026780">
        <ele>713.40</ele>
        <time>2014-04-06T10:49:01Z</time>
      </trkpt>
      <trkpt lat="41.659168350" lon="2.566001800">
        <ele>712.60</ele>
        <time>2014-04-06T10:49:02Z</time>
      </trkpt>
      <trkpt lat="41.659145050" lon="2.565975150">
        <ele>712.00</ele>
        <time>2014-04-06T10:49:03Z</time>
      </trkpt>
      <trkpt lat="41.659123430" lon="2.565950000">
        <ele>711.60</ele>
        <time>2014-04-06T10:49:04Z</time>
      </trkpt>
      <trkpt lat="41.659103480" lon="2.565923350">
        <ele>711.30</ele>
        <time>2014-04-06T10:49:05Z</time>
      </trkpt>
      <trkpt lat="41.659085040" lon="2.565893340">
        <ele>711.10</ele>
        <time>2014-04-06T10:49:06Z</time>
      </trkpt>
      <trkpt lat="41.659070120" lon="2.565865010">
        <ele>710.90</ele>
        <time>2014-04-06T10:49:07Z</time>
      </trkpt>
      <trkpt lat="41.659056710" lon="2.565836680">
        <ele>710.80</ele>
        <time>2014-04-06T10:49:08Z</time>
      </trkpt>
      <trkpt lat="41.659043460" lon="2.565806670">
        <ele>710.70</ele>
        <time>2014-04-06T10:49:09Z</time>
      </trkpt>
      <trkpt lat="41.659033410" lon="2.565776660">
        <ele>710.60</ele>
        <time>2014-04-06T10:49:10Z</time>
      </trkpt>
      <trkpt lat="41.659026700" lon="2.565746820">
        <ele>711.00</ele>
        <time>2014-04-06T10:49:11Z</time>
      </trkpt>
      <trkpt lat="41.659025020" lon="2.565715140">
        <ele>711.20</ele>
        <time>2014-04-06T10:49:12Z</time>
      </trkpt>
      <trkpt lat="41.659026700" lon="2.565685130">
        <ele>711.40</ele>
        <time>2014-04-06T10:49:13Z</time>
      </trkpt>
      <trkpt lat="41.659028380" lon="2.565655130">
        <ele>711.40</ele>
        <time>2014-04-06T10:49:14Z</time>
      </trkpt>
      <trkpt lat="41.659030050" lon="2.565625120">
        <ele>711.40</ele>
        <time>2014-04-06T10:49:15Z</time>
      </trkpt>
      <trkpt lat="41.659033410" lon="2.565601820">
        <ele>711.50</ele>
        <time>2014-04-06T10:49:16Z</time>
      </trkpt>
      <trkpt lat="41.659036760" lon="2.565578350">
        <ele>711.60</ele>
        <time>2014-04-06T10:49:17Z</time>
      </trkpt>
      <trkpt lat="41.659041790" lon="2.565553370">
        <ele>711.30</ele>
        <time>2014-04-06T10:49:18Z</time>
      </trkpt>
      <trkpt lat="41.659046820" lon="2.565531740">
        <ele>711.20</ele>
        <time>2014-04-06T10:49:19Z</time>
      </trkpt>
      <trkpt lat="41.659051680" lon="2.565506770">
        <ele>711.10</ele>
        <time>2014-04-06T10:49:20Z</time>
      </trkpt>
      <trkpt lat="41.659060060" lon="2.565481790">
        <ele>711.30</ele>
        <time>2014-04-06T10:49:21Z</time>
      </trkpt>
      <trkpt lat="41.659068440" lon="2.565458490">
        <ele>711.60</ele>
        <time>2014-04-06T10:49:22Z</time>
      </trkpt>
      <trkpt lat="41.659076820" lon="2.565431660">
        <ele>711.90</ele>
        <time>2014-04-06T10:49:23Z</time>
      </trkpt>
      <trkpt lat="41.659085040" lon="2.565403330">
        <ele>712.20</ele>
        <time>2014-04-06T10:49:24Z</time>
      </trkpt>
      <trkpt lat="41.659095100" lon="2.565373490">
        <ele>712.20</ele>
        <time>2014-04-06T10:49:25Z</time>
      </trkpt>
      <trkpt lat="41.659106660" lon="2.565350020">
        <ele>712.20</ele>
        <time>2014-04-06T10:49:26Z</time>
      </trkpt>
      <trkpt lat="41.659120070" lon="2.565323370">
        <ele>712.10</ele>
        <time>2014-04-06T10:49:27Z</time>
      </trkpt>
      <trkpt lat="41.659138350" lon="2.565295040">
        <ele>712.30</ele>
        <time>2014-04-06T10:49:28Z</time>
      </trkpt>
      <trkpt lat="41.659155110" lon="2.565265030">
        <ele>712.40</ele>
        <time>2014-04-06T10:49:29Z</time>
      </trkpt>
      <trkpt lat="41.659168350" lon="2.565238380">
        <ele>712.60</ele>
        <time>2014-04-06T10:49:30Z</time>
      </trkpt>
      <trkpt lat="41.659181760" lon="2.565213400">
        <ele>712.80</ele>
        <time>2014-04-06T10:49:31Z</time>
      </trkpt>
      <trkpt lat="41.659195010" lon="2.565190100">
        <ele>713.00</ele>
        <time>2014-04-06T10:49:32Z</time>
      </trkpt>
      <trkpt lat="41.659208420" lon="2.565170150">
        <ele>713.20</ele>
        <time>2014-04-06T10:49:33Z</time>
      </trkpt>
      <trkpt lat="41.659220150" lon="2.565146680">
        <ele>713.30</ele>
        <time>2014-04-06T10:49:34Z</time>
      </trkpt>
      <trkpt lat="41.659228370" lon="2.565121700">
        <ele>713.40</ele>
        <time>2014-04-06T10:49:35Z</time>
      </trkpt>
      <trkpt lat="41.659235070" lon="2.565095050">
        <ele>713.50</ele>
        <time>2014-04-06T10:49:36Z</time>
      </trkpt>
      <trkpt lat="41.659240100" lon="2.565066720">
        <ele>713.60</ele>
        <time>2014-04-06T10:49:37Z</time>
      </trkpt>
      <trkpt lat="41.659241780" lon="2.565036710">
        <ele>713.70</ele>
        <time>2014-04-06T10:49:38Z</time>
      </trkpt>
      <trkpt lat="41.659238430" lon="2.565010050">
        <ele>713.70</ele>
        <time>2014-04-06T10:49:39Z</time>
      </trkpt>
      <trkpt lat="41.659233400" lon="2.564983400">
        <ele>713.80</ele>
        <time>2014-04-06T10:49:40Z</time>
      </trkpt>
      <trkpt lat="41.659225020" lon="2.564960100">
        <ele>713.80</ele>
        <time>2014-04-06T10:49:41Z</time>
      </trkpt>
      <trkpt lat="41.659213450" lon="2.564936800">
        <ele>714.10</ele>
        <time>2014-04-06T10:49:42Z</time>
      </trkpt>
      <trkpt lat="41.659201710" lon="2.564918360">
        <ele>714.20</ele>
        <time>2014-04-06T10:49:43Z</time>
      </trkpt>
      <trkpt lat="41.659190150" lon="2.564900080">
        <ele>714.50</ele>
        <time>2014-04-06T10:49:44Z</time>
      </trkpt>
      <trkpt lat="41.659176740" lon="2.564881810">
        <ele>714.70</ele>
        <time>2014-04-06T10:49:45Z</time>
      </trkpt>
      <trkpt lat="41.659163490" lon="2.564866720">
        <ele>714.90</ele>
        <time>2014-04-06T10:49:46Z</time>
      </trkpt>
      <trkpt lat="41.659150080" lon="2.564851800">
        <ele>715.20</ele>
        <time>2014-04-06T10:49:47Z</time>
      </trkpt>
      <trkpt lat="41.659138350" lon="2.564838390">
        <ele>715.40</ele>
        <time>2014-04-06T10:49:48Z</time>
      </trkpt>
      <trkpt lat="41.659125100" lon="2.564825150">
        <ele>715.50</ele>
        <time>2014-04-06T10:49:49Z</time>
      </trkpt>
      <trkpt lat="41.659115040" lon="2.564811740">
        <ele>715.50</ele>
        <time>2014-04-06T10:49:50Z</time>
      </trkpt>
      <trkpt lat="41.659103480" lon="2.564798500">
        <ele>715.60</ele>
        <time>2014-04-06T10:49:51Z</time>
      </trkpt>
      <trkpt lat="41.659091740" lon="2.564783410">
        <ele>715.50</ele>
        <time>2014-04-06T10:49:52Z</time>
      </trkpt>
      <trkpt lat="41.659080010" lon="2.564771670">
        <ele>715.40</ele>
        <time>2014-04-06T10:49:53Z</time>
      </trkpt>
      <trkpt lat="41.659070120" lon="2.564758430">
        <ele>715.90</ele>
        <time>2014-04-06T10:49:54Z</time>
      </trkpt>
      <trkpt lat="41.659058380" lon="2.564746700">
        <ele>716.30</ele>
        <time>2014-04-06T10:49:55Z</time>
      </trkpt>
      <trkpt lat="41.659048490" lon="2.564735130">
        <ele>716.60</ele>
        <time>2014-04-06T10:49:56Z</time>
      </trkpt>
      <trkpt lat="41.659040110" lon="2.564725070">
        <ele>716.80</ele>
        <time>2014-04-06T10:49:57Z</time>
      </trkpt>
      <trkpt lat="41.659030050" lon="2.564715010">
        <ele>717.00</ele>
        <time>2014-04-06T10:49:58Z</time>
      </trkpt>
      <trkpt lat="41.659020160" lon="2.564705120">
        <ele>717.20</ele>
        <time>2014-04-06T10:49:59Z</time>
      </trkpt>
      <trkpt lat="41.659010100" lon="2.564693390">
        <ele>717.30</ele>
        <time>2014-04-06T10:50:00Z</time>
      </trkpt>
      <trkpt lat="41.658998370" lon="2.564683500">
        <ele>717.80</ele>
        <time>2014-04-06T10:50:01Z</time>
      </trkpt>
      <trkpt lat="41.658988480" lon="2.564671760">
        <ele>718.20</ele>
        <time>2014-04-06T10:50:02Z</time>
      </trkpt>
      <trkpt lat="41.658976740" lon="2.564660030">
        <ele>718.40</ele>
        <time>2014-04-06T10:50:03Z</time>
      </trkpt>
      <trkpt lat="41.658966690" lon="2.564648460">
        <ele>718.50</ele>
        <time>2014-04-06T10:50:04Z</time>
      </trkpt>
      <trkpt lat="41.658958470" lon="2.564636720">
        <ele>718.50</ele>
        <time>2014-04-06T10:50:05Z</time>
      </trkpt>
      <trkpt lat="41.658948410" lon="2.564626670">
        <ele>718.50</ele>
        <time>2014-04-06T10:50:06Z</time>
      </trkpt>
      <trkpt lat="41.658940030" lon="2.564616780">
        <ele>718.40</ele>
        <time>2014-04-06T10:50:07Z</time>
      </trkpt>
      <trkpt lat="41.658931820" lon="2.564610070">
        <ele>718.50</ele>
        <time>2014-04-06T10:50:08Z</time>
      </trkpt>
      <trkpt lat="41.658920080" lon="2.564605040">
        <ele>718.50</ele>
        <time>2014-04-06T10:50:09Z</time>
      </trkpt>
      <trkpt lat="41.658910020" lon="2.564600010">
        <ele>718.60</ele>
        <time>2014-04-06T10:50:10Z</time>
      </trkpt>
      <trkpt lat="41.658900130" lon="2.564593470">
        <ele>719.20</ele>
        <time>2014-04-06T10:50:11Z</time>
      </trkpt>
      <trkpt lat="41.658891750" lon="2.564583420">
        <ele>719.60</ele>
        <time>2014-04-06T10:50:12Z</time>
      </trkpt>
      <trkpt lat="41.658886720" lon="2.564575030">
        <ele>720.30</ele>
        <time>2014-04-06T10:50:13Z</time>
      </trkpt>
      <trkpt lat="41.658878340" lon="2.564565140">
        <ele>720.70</ele>
        <time>2014-04-06T10:50:14Z</time>
      </trkpt>
      <trkpt lat="41.658870130" lon="2.564558440">
        <ele>721.30</ele>
        <time>2014-04-06T10:50:15Z</time>
      </trkpt>
      <trkpt lat="41.658863420" lon="2.564551730">
        <ele>721.70</ele>
        <time>2014-04-06T10:50:16Z</time>
      </trkpt>
      <trkpt lat="41.658855040" lon="2.564541670">
        <ele>722.00</ele>
        <time>2014-04-06T10:50:17Z</time>
      </trkpt>
      <trkpt lat="41.658850010" lon="2.564533460">
        <ele>722.30</ele>
        <time>2014-04-06T10:50:18Z</time>
      </trkpt>
      <trkpt lat="41.658846820" lon="2.564523400">
        <ele>722.60</ele>
        <time>2014-04-06T10:50:19Z</time>
      </trkpt>
      <trkpt lat="41.658840120" lon="2.564516700">
        <ele>723.00</ele>
        <time>2014-04-06T10:50:20Z</time>
      </trkpt>
      <trkpt lat="41.658833410" lon="2.564508480">
        <ele>723.40</ele>
        <time>2014-04-06T10:50:21Z</time>
      </trkpt>
      <trkpt lat="41.658825030" lon="2.564503450">
        <ele>723.90</ele>
        <time>2014-04-06T10:50:22Z</time>
      </trkpt>
      <trkpt lat="41.658820000" lon="2.564496750">
        <ele>724.30</ele>
        <time>2014-04-06T10:50:23Z</time>
      </trkpt>
      <trkpt lat="41.658813460" lon="2.564490040">
        <ele>724.60</ele>
        <time>2014-04-06T10:50:24Z</time>
      </trkpt>
      <trkpt lat="41.658808430" lon="2.564481830">
        <ele>724.50</ele>
        <time>2014-04-06T10:50:25Z</time>
      </trkpt>
      <trkpt lat="41.658805080" lon="2.564471770">
        <ele>724.50</ele>
        <time>2014-04-06T10:50:26Z</time>
      </trkpt>
      <trkpt lat="41.658803410" lon="2.564461710">
        <ele>724.30</ele>
        <time>2014-04-06T10:50:27Z</time>
      </trkpt>
      <trkpt lat="41.658801730" lon="2.564453330">
        <ele>724.20</ele>
        <time>2014-04-06T10:50:28Z</time>
      </trkpt>
      <trkpt lat="41.658798380" lon="2.564443440">
        <ele>724.20</ele>
        <time>2014-04-06T10:50:29Z</time>
      </trkpt>
      <trkpt lat="41.658795020" lon="2.564435060">
        <ele>724.60</ele>
        <time>2014-04-06T10:50:30Z</time>
      </trkpt>
      <trkpt lat="41.658793350" lon="2.564426670">
        <ele>724.90</ele>
        <time>2014-04-06T10:50:31Z</time>
      </trkpt>
      <trkpt lat="41.658790160" lon="2.564421810">
        <ele>725.30</ele>
        <time>2014-04-06T10:50:32Z</time>
      </trkpt>
      <trkpt lat="41.658786810" lon="2.564420140">
        <ele>725.60</ele>
        <time>2014-04-06T10:50:33Z</time>
      </trkpt>
      <trkpt lat="41.658786810" lon="2.564420140">
        <ele>725.60</ele>
        <time>2014-04-06T10:50:34Z</time>
      </trkpt>
      <trkpt lat="41.658785130" lon="2.564418460">
        <ele>725.50</ele>
        <time>2014-04-06T10:50:35Z</time>
      </trkpt>
      <trkpt lat="41.658785130" lon="2.564415110">
        <ele>725.50</ele>
        <time>2014-04-06T10:50:36Z</time>
      </trkpt>
      <trkpt lat="41.658781780" lon="2.564415110">
        <ele>725.60</ele>
        <time>2014-04-06T10:50:37Z</time>
      </trkpt>
      <trkpt lat="41.658781780" lon="2.564413430">
        <ele>725.60</ele>
        <time>2014-04-06T10:50:38Z</time>
      </trkpt>
      <trkpt lat="41.658780100" lon="2.564411750">
        <ele>725.80</ele>
        <time>2014-04-06T10:50:39Z</time>
      </trkpt>
      <trkpt lat="41.658780100" lon="2.564410080">
        <ele>725.90</ele>
        <time>2014-04-06T10:50:40Z</time>
      </trkpt>
      <trkpt lat="41.658778430" lon="2.564408400">
        <ele>726.20</ele>
        <time>2014-04-06T10:50:41Z</time>
      </trkpt>
      <trkpt lat="41.658778430" lon="2.564406730">
        <ele>726.50</ele>
        <time>2014-04-06T10:50:42Z</time>
      </trkpt>
      <trkpt lat="41.658778430" lon="2.564403370">
        <ele>726.60</ele>
        <time>2014-04-06T10:50:43Z</time>
      </trkpt>
      <trkpt lat="41.658778430" lon="2.564401700">
        <ele>726.40</ele>
        <time>2014-04-06T10:50:44Z</time>
      </trkpt>
      <trkpt lat="41.658776750" lon="2.564400020">
        <ele>726.20</ele>
        <time>2014-04-06T10:50:45Z</time>
      </trkpt>
      <trkpt lat="41.658776750" lon="2.564398340">
        <ele>726.40</ele>
        <time>2014-04-06T10:50:46Z</time>
      </trkpt>
      <trkpt lat="41.658775070" lon="2.564395160">
        <ele>726.50</ele>
        <time>2014-04-06T10:50:47Z</time>
      </trkpt>
      <trkpt lat="41.658771720" lon="2.564391810">
        <ele>726.70</ele>
        <time>2014-04-06T10:50:48Z</time>
      </trkpt>
      <trkpt lat="41.658768370" lon="2.564383420">
        <ele>726.70</ele>
        <time>2014-04-06T10:50:49Z</time>
      </trkpt>
      <trkpt lat="41.658765020" lon="2.564371690">
        <ele>726.70</ele>
        <time>2014-04-06T10:50:50Z</time>
      </trkpt>
      <trkpt lat="41.658763340" lon="2.564360120">
        <ele>726.70</ele>
        <time>2014-04-06T10:50:51Z</time>
      </trkpt>
      <trkpt lat="41.658761660" lon="2.564340010">
        <ele>726.70</ele>
        <time>2014-04-06T10:50:52Z</time>
      </trkpt>
      <trkpt lat="41.658758480" lon="2.564316700">
        <ele>726.50</ele>
        <time>2014-04-06T10:50:53Z</time>
      </trkpt>
      <trkpt lat="41.658751770" lon="2.564296750">
        <ele>726.40</ele>
        <time>2014-04-06T10:50:54Z</time>
      </trkpt>
      <trkpt lat="41.658740040" lon="2.564278480">
        <ele>726.30</ele>
        <time>2014-04-06T10:50:55Z</time>
      </trkpt>
      <trkpt lat="41.658726800" lon="2.564256690">
        <ele>726.10</ele>
        <time>2014-04-06T10:50:56Z</time>
      </trkpt>
      <trkpt lat="41.658711710" lon="2.564230030">
        <ele>725.90</ele>
        <time>2014-04-06T10:50:57Z</time>
      </trkpt>
      <trkpt lat="41.658695110" lon="2.564201700">
        <ele>726.00</ele>
        <time>2014-04-06T10:50:58Z</time>
      </trkpt>
      <trkpt lat="41.658678350" lon="2.564168340">
        <ele>726.10</ele>
        <time>2014-04-06T10:50:59Z</time>
      </trkpt>
      <trkpt lat="41.658665100" lon="2.564131800">
        <ele>726.00</ele>
        <time>2014-04-06T10:51:00Z</time>
      </trkpt>
      <trkpt lat="41.658653370" lon="2.564086700">
        <ele>725.80</ele>
        <time>2014-04-06T10:51:01Z</time>
      </trkpt>
      <trkpt lat="41.658648340" lon="2.564040100">
        <ele>725.80</ele>
        <time>2014-04-06T10:51:02Z</time>
      </trkpt>
      <trkpt lat="41.658643480" lon="2.563998360">
        <ele>725.50</ele>
        <time>2014-04-06T10:51:03Z</time>
      </trkpt>
      <trkpt lat="41.658641800" lon="2.563963490">
        <ele>725.30</ele>
        <time>2014-04-06T10:51:04Z</time>
      </trkpt>
      <trkpt lat="41.658638450" lon="2.563928450">
        <ele>724.90</ele>
        <time>2014-04-06T10:51:05Z</time>
      </trkpt>
      <trkpt lat="41.658633420" lon="2.563891740">
        <ele>724.60</ele>
        <time>2014-04-06T10:51:06Z</time>
      </trkpt>
      <trkpt lat="41.658626720" lon="2.563855030">
        <ele>724.30</ele>
        <time>2014-04-06T10:51:07Z</time>
      </trkpt>
      <trkpt lat="41.658621690" lon="2.563818480">
        <ele>724.00</ele>
        <time>2014-04-06T10:51:08Z</time>
      </trkpt>
      <trkpt lat="41.658616820" lon="2.563786800">
        <ele>723.80</ele>
        <time>2014-04-06T10:51:09Z</time>
      </trkpt>
      <trkpt lat="41.658611800" lon="2.563753440">
        <ele>723.80</ele>
        <time>2014-04-06T10:51:10Z</time>
      </trkpt>
      <trkpt lat="41.658608440" lon="2.563720080">
        <ele>723.80</ele>
        <time>2014-04-06T10:51:11Z</time>
      </trkpt>
      <trkpt lat="41.658601740" lon="2.563685040">
        <ele>723.50</ele>
        <time>2014-04-06T10:51:12Z</time>
      </trkpt>
      <trkpt lat="41.658593360" lon="2.563646820">
        <ele>723.20</ele>
        <time>2014-04-06T10:51:13Z</time>
      </trkpt>
      <trkpt lat="41.658583460" lon="2.563608430">
        <ele>723.00</ele>
        <time>2014-04-06T10:51:14Z</time>
      </trkpt>
      <trkpt lat="41.658571730" lon="2.563568370">
        <ele>722.80</ele>
        <time>2014-04-06T10:51:15Z</time>
      </trkpt>
      <trkpt lat="41.658558490" lon="2.563536680">
        <ele>722.60</ele>
        <time>2014-04-06T10:51:16Z</time>
      </trkpt>
      <trkpt lat="41.658543400" lon="2.563505000">
        <ele>722.10</ele>
        <time>2014-04-06T10:51:17Z</time>
      </trkpt>
      <trkpt lat="41.658531660" lon="2.563475160">
        <ele>721.70</ele>
        <time>2014-04-06T10:51:18Z</time>
      </trkpt>
      <trkpt lat="41.658516740" lon="2.563445150">
        <ele>721.50</ele>
        <time>2014-04-06T10:51:19Z</time>
      </trkpt>
      <trkpt lat="41.658500150" lon="2.563415150">
        <ele>721.40</ele>
        <time>2014-04-06T10:51:20Z</time>
      </trkpt>
      <trkpt lat="41.658483380" lon="2.563385140">
        <ele>721.40</ele>
        <time>2014-04-06T10:51:21Z</time>
      </trkpt>
      <trkpt lat="41.658466790" lon="2.563356810">
        <ele>721.60</ele>
        <time>2014-04-06T10:51:22Z</time>
      </trkpt>
      <trkpt lat="41.658446670" lon="2.563328480">
        <ele>721.90</ele>
        <time>2014-04-06T10:51:23Z</time>
      </trkpt>
      <trkpt lat="41.658425050" lon="2.563298470">
        <ele>721.90</ele>
        <time>2014-04-06T10:51:24Z</time>
      </trkpt>
      <trkpt lat="41.658400070" lon="2.563263430">
        <ele>721.90</ele>
        <time>2014-04-06T10:51:25Z</time>
      </trkpt>
      <trkpt lat="41.658370060" lon="2.563223370">
        <ele>721.50</ele>
        <time>2014-04-06T10:51:26Z</time>
      </trkpt>
      <trkpt lat="41.658338380" lon="2.563178440">
        <ele>721.20</ele>
        <time>2014-04-06T10:51:27Z</time>
      </trkpt>
      <trkpt lat="41.658308370" lon="2.563131670">
        <ele>720.90</ele>
        <time>2014-04-06T10:51:28Z</time>
      </trkpt>
      <trkpt lat="41.658280040" lon="2.563081710">
        <ele>720.80</ele>
        <time>2014-04-06T10:51:29Z</time>
      </trkpt>
      <trkpt lat="41.658250030" lon="2.563033430">
        <ele>720.70</ele>
        <time>2014-04-06T10:51:30Z</time>
      </trkpt>
      <trkpt lat="41.658220030" lon="2.562985150">
        <ele>720.40</ele>
        <time>2014-04-06T10:51:31Z</time>
      </trkpt>
      <trkpt lat="41.658190020" lon="2.562938380">
        <ele>720.10</ele>
        <time>2014-04-06T10:51:32Z</time>
      </trkpt>
      <trkpt lat="41.658161690" lon="2.562898490">
        <ele>719.90</ele>
        <time>2014-04-06T10:51:33Z</time>
      </trkpt>
      <trkpt lat="41.658133360" lon="2.562863450">
        <ele>719.80</ele>
        <time>2014-04-06T10:51:34Z</time>
      </trkpt>
      <trkpt lat="41.658110050" lon="2.562828410">
        <ele>719.80</ele>
        <time>2014-04-06T10:51:35Z</time>
      </trkpt>
      <trkpt lat="41.658093460" lon="2.562801760">
        <ele>719.90</ele>
        <time>2014-04-06T10:51:36Z</time>
      </trkpt>
      <trkpt lat="41.658076690" lon="2.562778460">
        <ele>720.00</ele>
        <time>2014-04-06T10:51:37Z</time>
      </trkpt>
      <trkpt lat="41.658060100" lon="2.562758340">
        <ele>720.00</ele>
        <time>2014-04-06T10:51:38Z</time>
      </trkpt>
      <trkpt lat="41.658040150" lon="2.562740070">
        <ele>720.00</ele>
        <time>2014-04-06T10:51:39Z</time>
      </trkpt>
      <trkpt lat="41.658023390" lon="2.562723470">
        <ele>720.00</ele>
        <time>2014-04-06T10:51:40Z</time>
      </trkpt>
      <trkpt lat="41.658008470" lon="2.562705030">
        <ele>719.90</ele>
        <time>2014-04-06T10:51:41Z</time>
      </trkpt>
      <trkpt lat="41.657993380" lon="2.562685080">
        <ele>719.70</ele>
        <time>2014-04-06T10:51:42Z</time>
      </trkpt>
      <trkpt lat="41.657976780" lon="2.562671670">
        <ele>720.10</ele>
        <time>2014-04-06T10:51:43Z</time>
      </trkpt>
      <trkpt lat="41.657960020" lon="2.562655080">
        <ele>720.40</ele>
        <time>2014-04-06T10:51:44Z</time>
      </trkpt>
      <trkpt lat="41.657943420" lon="2.562640160">
        <ele>720.70</ele>
        <time>2014-04-06T10:51:45Z</time>
      </trkpt>
      <trkpt lat="41.657926830" lon="2.562625070">
        <ele>720.80</ele>
        <time>2014-04-06T10:51:46Z</time>
      </trkpt>
      <trkpt lat="41.657908390" lon="2.562610150">
        <ele>720.90</ele>
        <time>2014-04-06T10:51:47Z</time>
      </trkpt>
      <trkpt lat="41.657891790" lon="2.562596740">
        <ele>721.30</ele>
        <time>2014-04-06T10:51:48Z</time>
      </trkpt>
      <trkpt lat="41.657876700" lon="2.562583490">
        <ele>721.60</ele>
        <time>2014-04-06T10:51:49Z</time>
      </trkpt>
      <trkpt lat="41.657856750" lon="2.562571760">
        <ele>721.70</ele>
        <time>2014-04-06T10:51:50Z</time>
      </trkpt>
      <trkpt lat="41.657838480" lon="2.562560020">
        <ele>721.80</ele>
        <time>2014-04-06T10:51:51Z</time>
      </trkpt>
      <trkpt lat="41.657821720" lon="2.562548460">
        <ele>721.80</ele>
        <time>2014-04-06T10:51:52Z</time>
      </trkpt>
      <trkpt lat="41.657803440" lon="2.562538400">
        <ele>722.00</ele>
        <time>2014-04-06T10:51:53Z</time>
      </trkpt>
      <trkpt lat="41.657786680" lon="2.562528340">
        <ele>722.20</ele>
        <time>2014-04-06T10:51:54Z</time>
      </trkpt>
      <trkpt lat="41.657770080" lon="2.562515100">
        <ele>722.60</ele>
        <time>2014-04-06T10:51:55Z</time>
      </trkpt>
      <trkpt lat="41.657751810" lon="2.562505040">
        <ele>722.90</ele>
        <time>2014-04-06T10:51:56Z</time>
      </trkpt>
      <trkpt lat="41.657733370" lon="2.562496820">
        <ele>723.20</ele>
        <time>2014-04-06T10:51:57Z</time>
      </trkpt>
      <trkpt lat="41.657716780" lon="2.562485090">
        <ele>723.50</ele>
        <time>2014-04-06T10:51:58Z</time>
      </trkpt>
      <trkpt lat="41.657696830" lon="2.562478380">
        <ele>723.60</ele>
        <time>2014-04-06T10:51:59Z</time>
      </trkpt>
      <trkpt lat="41.657678390" lon="2.562473360">
        <ele>723.30</ele>
        <time>2014-04-06T10:52:00Z</time>
      </trkpt>
      <trkpt lat="41.657660110" lon="2.562466820">
        <ele>723.10</ele>
        <time>2014-04-06T10:52:01Z</time>
      </trkpt>
      <trkpt lat="41.657643350" lon="2.562458440">
        <ele>723.50</ele>
        <time>2014-04-06T10:52:02Z</time>
      </trkpt>
      <trkpt lat="41.657625080" lon="2.562451730">
        <ele>723.80</ele>
        <time>2014-04-06T10:52:03Z</time>
      </trkpt>
      <trkpt lat="41.657606810" lon="2.562450050">
        <ele>724.20</ele>
        <time>2014-04-06T10:52:04Z</time>
      </trkpt>
      <trkpt lat="41.657588370" lon="2.562448380">
        <ele>724.50</ele>
        <time>2014-04-06T10:52:05Z</time>
      </trkpt>
      <trkpt lat="41.657571770" lon="2.562446700">
        <ele>724.70</ele>
        <time>2014-04-06T10:52:06Z</time>
      </trkpt>
      <trkpt lat="41.657551820" lon="2.562446700">
        <ele>724.50</ele>
        <time>2014-04-06T10:52:07Z</time>
      </trkpt>
      <trkpt lat="41.657531700" lon="2.562443350">
        <ele>724.40</ele>
        <time>2014-04-06T10:52:08Z</time>
      </trkpt>
      <trkpt lat="41.657513430" lon="2.562433460">
        <ele>724.30</ele>
        <time>2014-04-06T10:52:09Z</time>
      </trkpt>
      <trkpt lat="41.657496670" lon="2.562423400">
        <ele>724.20</ele>
        <time>2014-04-06T10:52:10Z</time>
      </trkpt>
      <trkpt lat="41.657480070" lon="2.562413340">
        <ele>724.20</ele>
        <time>2014-04-06T10:52:11Z</time>
      </trkpt>
      <trkpt lat="41.657463470" lon="2.562403450">
        <ele>724.50</ele>
        <time>2014-04-06T10:52:12Z</time>
      </trkpt>
      <trkpt lat="41.657448390" lon="2.562388360">
        <ele>724.80</ele>
        <time>2014-04-06T10:52:13Z</time>
      </trkpt>
      <trkpt lat="41.657433470" lon="2.562373440">
        <ele>725.50</ele>
        <time>2014-04-06T10:52:14Z</time>
      </trkpt>
      <trkpt lat="41.657421730" lon="2.562355000">
        <ele>726.00</ele>
        <time>2014-04-06T10:52:15Z</time>
      </trkpt>
      <trkpt lat="41.657411670" lon="2.562336730">
        <ele>726.40</ele>
        <time>2014-04-06T10:52:16Z</time>
      </trkpt>
      <trkpt lat="41.657403460" lon="2.562320130">
        <ele>726.70</ele>
        <time>2014-04-06T10:52:17Z</time>
      </trkpt>
      <trkpt lat="41.657396750" lon="2.562305050">
        <ele>726.90</ele>
        <time>2014-04-06T10:52:18Z</time>
      </trkpt>
      <trkpt lat="41.657393400" lon="2.562288450">
        <ele>726.90</ele>
        <time>2014-04-06T10:52:19Z</time>
      </trkpt>
      <trkpt lat="41.657390050" lon="2.562271690">
        <ele>726.90</ele>
        <time>2014-04-06T10:52:20Z</time>
      </trkpt>
      <trkpt lat="41.657388370" lon="2.562255090">
        <ele>727.10</ele>
        <time>2014-04-06T10:52:21Z</time>
      </trkpt>
      <trkpt lat="41.657386700" lon="2.562241680">
        <ele>727.40</ele>
        <time>2014-04-06T10:52:22Z</time>
      </trkpt>
      <trkpt lat="41.657385020" lon="2.562226760">
        <ele>727.70</ele>
        <time>2014-04-06T10:52:23Z</time>
      </trkpt>
      <trkpt lat="41.657383340" lon="2.562206810">
        <ele>727.90</ele>
        <time>2014-04-06T10:52:24Z</time>
      </trkpt>
      <trkpt lat="41.657383340" lon="2.562188370">
        <ele>728.10</ele>
        <time>2014-04-06T10:52:25Z</time>
      </trkpt>
      <trkpt lat="41.657383340" lon="2.562166750">
        <ele>728.40</ele>
        <time>2014-04-06T10:52:26Z</time>
      </trkpt>
      <trkpt lat="41.657385020" lon="2.562141770">
        <ele>728.60</ele>
        <time>2014-04-06T10:52:27Z</time>
      </trkpt>
      <trkpt lat="41.657390050" lon="2.562113440">
        <ele>728.70</ele>
        <time>2014-04-06T10:52:28Z</time>
      </trkpt>
      <trkpt lat="41.657393400" lon="2.562081750">
        <ele>728.70</ele>
        <time>2014-04-06T10:52:29Z</time>
      </trkpt>
      <trkpt lat="41.657396750" lon="2.562050070">
        <ele>728.70</ele>
        <time>2014-04-06T10:52:30Z</time>
      </trkpt>
      <trkpt lat="41.657396750" lon="2.562021740">
        <ele>729.10</ele>
        <time>2014-04-06T10:52:31Z</time>
      </trkpt>
      <trkpt lat="41.657396750" lon="2.561993410">
        <ele>729.30</ele>
        <time>2014-04-06T10:52:32Z</time>
      </trkpt>
      <trkpt lat="41.657395080" lon="2.561963400">
        <ele>729.60</ele>
        <time>2014-04-06T10:52:33Z</time>
      </trkpt>
      <trkpt lat="41.657396750" lon="2.561935070">
        <ele>729.80</ele>
        <time>2014-04-06T10:52:34Z</time>
      </trkpt>
      <trkpt lat="41.657395080" lon="2.561903390">
        <ele>729.40</ele>
        <time>2014-04-06T10:52:35Z</time>
      </trkpt>
      <trkpt lat="41.657393400" lon="2.561871700">
        <ele>729.10</ele>
        <time>2014-04-06T10:52:36Z</time>
      </trkpt>
      <trkpt lat="41.657390050" lon="2.561841700">
        <ele>728.90</ele>
        <time>2014-04-06T10:52:37Z</time>
      </trkpt>
      <trkpt lat="41.657388370" lon="2.561811690">
        <ele>729.40</ele>
        <time>2014-04-06T10:52:38Z</time>
      </trkpt>
      <trkpt lat="41.657386700" lon="2.561781680">
        <ele>729.70</ele>
        <time>2014-04-06T10:52:39Z</time>
      </trkpt>
      <trkpt lat="41.657385020" lon="2.561753350">
        <ele>729.90</ele>
        <time>2014-04-06T10:52:40Z</time>
      </trkpt>
      <trkpt lat="41.657381670" lon="2.561725020">
        <ele>730.00</ele>
        <time>2014-04-06T10:52:41Z</time>
      </trkpt>
      <trkpt lat="41.657380160" lon="2.561700040">
        <ele>730.10</ele>
        <time>2014-04-06T10:52:42Z</time>
      </trkpt>
      <trkpt lat="41.657380160" lon="2.561673390">
        <ele>730.20</ele>
        <time>2014-04-06T10:52:43Z</time>
      </trkpt>
      <trkpt lat="41.657376810" lon="2.561648410">
        <ele>730.20</ele>
        <time>2014-04-06T10:52:44Z</time>
      </trkpt>
      <trkpt lat="41.657373450" lon="2.561620080">
        <ele>730.40</ele>
        <time>2014-04-06T10:52:45Z</time>
      </trkpt>
      <trkpt lat="41.657373450" lon="2.561593420">
        <ele>730.50</ele>
        <time>2014-04-06T10:52:46Z</time>
      </trkpt>
      <trkpt lat="41.657376810" lon="2.561568450">
        <ele>730.70</ele>
        <time>2014-04-06T10:52:47Z</time>
      </trkpt>
      <trkpt lat="41.657381670" lon="2.561543470">
        <ele>730.90</ele>
        <time>2014-04-06T10:52:48Z</time>
      </trkpt>
      <trkpt lat="41.657388370" lon="2.561516810">
        <ele>731.00</ele>
        <time>2014-04-06T10:52:49Z</time>
      </trkpt>
      <trkpt lat="41.657393400" lon="2.561488480">
        <ele>731.30</ele>
        <time>2014-04-06T10:52:50Z</time>
      </trkpt>
      <trkpt lat="41.657400110" lon="2.561461830">
        <ele>731.60</ele>
        <time>2014-04-06T10:52:51Z</time>
      </trkpt>
      <trkpt lat="41.657406810" lon="2.561436680">
        <ele>731.70</ele>
        <time>2014-04-06T10:52:52Z</time>
      </trkpt>
      <trkpt lat="41.657415030" lon="2.561411700">
        <ele>731.70</ele>
        <time>2014-04-06T10:52:53Z</time>
      </trkpt>
      <trkpt lat="41.657423410" lon="2.561386730">
        <ele>732.10</ele>
        <time>2014-04-06T10:52:54Z</time>
      </trkpt>
      <trkpt lat="41.657430110" lon="2.561363420">
        <ele>732.40</ele>
        <time>2014-04-06T10:52:55Z</time>
      </trkpt>
      <trkpt lat="41.657438330" lon="2.561336770">
        <ele>732.70</ele>
        <time>2014-04-06T10:52:56Z</time>
      </trkpt>
      <trkpt lat="41.657446710" lon="2.561310110">
        <ele>732.80</ele>
        <time>2014-04-06T10:52:57Z</time>
      </trkpt>
      <trkpt lat="41.657458450" lon="2.561288490">
        <ele>733.00</ele>
        <time>2014-04-06T10:52:58Z</time>
      </trkpt>
      <trkpt lat="41.657471690" lon="2.561270050">
        <ele>733.00</ele>
        <time>2014-04-06T10:52:59Z</time>
      </trkpt>
      <trkpt lat="41.657485100" lon="2.561251780">
        <ele>733.10</ele>
        <time>2014-04-06T10:53:00Z</time>
      </trkpt>
      <trkpt lat="41.657498340" lon="2.561235010">
        <ele>733.80</ele>
        <time>2014-04-06T10:53:01Z</time>
      </trkpt>
      <trkpt lat="41.657511750" lon="2.561220090">
        <ele>734.30</ele>
        <time>2014-04-06T10:53:02Z</time>
      </trkpt>
      <trkpt lat="41.657525000" lon="2.561203330">
        <ele>734.70</ele>
        <time>2014-04-06T10:53:03Z</time>
      </trkpt>
      <trkpt lat="41.657538410" lon="2.561188410">
        <ele>734.90</ele>
        <time>2014-04-06T10:53:04Z</time>
      </trkpt>
      <trkpt lat="41.657551820" lon="2.561173490">
        <ele>735.00</ele>
        <time>2014-04-06T10:53:05Z</time>
      </trkpt>
      <trkpt lat="41.657565060" lon="2.561158400">
        <ele>735.10</ele>
        <time>2014-04-06T10:53:06Z</time>
      </trkpt>
      <trkpt lat="41.657578470" lon="2.561145160">
        <ele>735.20</ele>
        <time>2014-04-06T10:53:07Z</time>
      </trkpt>
      <trkpt lat="41.657595070" lon="2.561131750">
        <ele>735.20</ele>
        <time>2014-04-06T10:53:08Z</time>
      </trkpt>
      <trkpt lat="41.657611670" lon="2.561113480">
        <ele>735.20</ele>
        <time>2014-04-06T10:53:09Z</time>
      </trkpt>
      <trkpt lat="41.657635140" lon="2.561095040">
        <ele>735.10</ele>
        <time>2014-04-06T10:53:10Z</time>
      </trkpt>
      <trkpt lat="41.657658440" lon="2.561078440">
        <ele>735.50</ele>
        <time>2014-04-06T10:53:11Z</time>
      </trkpt>
      <trkpt lat="41.657681740" lon="2.561065030">
        <ele>735.70</ele>
        <time>2014-04-06T10:53:12Z</time>
      </trkpt>
      <trkpt lat="41.657703360" lon="2.561051780">
        <ele>735.90</ele>
        <time>2014-04-06T10:53:13Z</time>
      </trkpt>
      <trkpt lat="41.657723480" lon="2.561040050">
        <ele>736.00</ele>
        <time>2014-04-06T10:53:14Z</time>
      </trkpt>
      <trkpt lat="41.657741750" lon="2.561028480">
        <ele>736.20</ele>
        <time>2014-04-06T10:53:15Z</time>
      </trkpt>
      <trkpt lat="41.657756670" lon="2.561015070">
        <ele>736.30</ele>
        <time>2014-04-06T10:53:16Z</time>
      </trkpt>
      <trkpt lat="41.657773440" lon="2.561001830">
        <ele>736.50</ele>
        <time>2014-04-06T10:53:17Z</time>
      </trkpt>
      <trkpt lat="41.657790030" lon="2.560988420">
        <ele>736.70</ele>
        <time>2014-04-06T10:53:18Z</time>
      </trkpt>
      <trkpt lat="41.657806800" lon="2.560976680">
        <ele>736.90</ele>
        <time>2014-04-06T10:53:19Z</time>
      </trkpt>
      <trkpt lat="41.657823390" lon="2.560961760">
        <ele>736.80</ele>
        <time>2014-04-06T10:53:20Z</time>
      </trkpt>
      <trkpt lat="41.657840160" lon="2.560950030">
        <ele>736.70</ele>
        <time>2014-04-06T10:53:21Z</time>
      </trkpt>
      <trkpt lat="41.657858430" lon="2.560936780">
        <ele>736.60</ele>
        <time>2014-04-06T10:53:22Z</time>
      </trkpt>
      <trkpt lat="41.657875030" lon="2.560925050">
        <ele>736.90</ele>
        <time>2014-04-06T10:53:23Z</time>
      </trkpt>
      <trkpt lat="41.657893470" lon="2.560913480">
        <ele>737.20</ele>
        <time>2014-04-06T10:53:24Z</time>
      </trkpt>
      <trkpt lat="41.657910060" lon="2.560906780">
        <ele>737.60</ele>
        <time>2014-04-06T10:53:25Z</time>
      </trkpt>
      <trkpt lat="41.657928340" lon="2.560898400">
        <ele>738.00</ele>
        <time>2014-04-06T10:53:26Z</time>
      </trkpt>
      <trkpt lat="41.657946780" lon="2.560888340">
        <ele>738.30</ele>
        <time>2014-04-06T10:53:27Z</time>
      </trkpt>
      <trkpt lat="41.657963370" lon="2.560878450">
        <ele>738.60</ele>
        <time>2014-04-06T10:53:28Z</time>
      </trkpt>
      <trkpt lat="41.657981810" lon="2.560870070">
        <ele>738.80</ele>
        <time>2014-04-06T10:53:29Z</time>
      </trkpt>
      <trkpt lat="41.658000080" lon="2.560860010">
        <ele>739.00</ele>
        <time>2014-04-06T10:53:30Z</time>
      </trkpt>
      <trkpt lat="41.658018360" lon="2.560851790">
        <ele>739.20</ele>
        <time>2014-04-06T10:53:31Z</time>
      </trkpt>
      <trkpt lat="41.658035120" lon="2.560841730">
        <ele>739.10</ele>
        <time>2014-04-06T10:53:32Z</time>
      </trkpt>
      <trkpt lat="41.658053390" lon="2.560833350">
        <ele>739.10</ele>
        <time>2014-04-06T10:53:33Z</time>
      </trkpt>
      <trkpt lat="41.658071670" lon="2.560825140">
        <ele>739.10</ele>
        <time>2014-04-06T10:53:34Z</time>
      </trkpt>
      <trkpt lat="41.658088430" lon="2.560820110">
        <ele>739.10</ele>
        <time>2014-04-06T10:53:35Z</time>
      </trkpt>
      <trkpt lat="41.658105030" lon="2.560813400">
        <ele>739.20</ele>
        <time>2014-04-06T10:53:36Z</time>
      </trkpt>
      <trkpt lat="41.658123470" lon="2.560805020">
        <ele>739.60</ele>
        <time>2014-04-06T10:53:37Z</time>
      </trkpt>
      <trkpt lat="41.658140060" lon="2.560795130">
        <ele>739.50</ele>
        <time>2014-04-06T10:53:38Z</time>
      </trkpt>
      <trkpt lat="41.658155150" lon="2.560785070">
        <ele>739.50</ele>
        <time>2014-04-06T10:53:39Z</time>
      </trkpt>
      <trkpt lat="41.658170070" lon="2.560773340">
        <ele>739.40</ele>
        <time>2014-04-06T10:53:40Z</time>
      </trkpt>
      <trkpt lat="41.658183480" lon="2.560760090">
        <ele>739.40</ele>
        <time>2014-04-06T10:53:41Z</time>
      </trkpt>
      <trkpt lat="41.658200080" lon="2.560745010">
        <ele>739.90</ele>
        <time>2014-04-06T10:53:42Z</time>
      </trkpt>
      <trkpt lat="41.658216670" lon="2.560730090">
        <ele>740.20</ele>
        <time>2014-04-06T10:53:43Z</time>
      </trkpt>
      <trkpt lat="41.658233440" lon="2.560721710">
        <ele>740.30</ele>
        <time>2014-04-06T10:53:44Z</time>
      </trkpt>
      <trkpt lat="41.658248360" lon="2.560711810">
        <ele>740.40</ele>
        <time>2014-04-06T10:53:45Z</time>
      </trkpt>
      <trkpt lat="41.658265120" lon="2.560700080">
        <ele>740.50</ele>
        <time>2014-04-06T10:53:46Z</time>
      </trkpt>
      <trkpt lat="41.658281720" lon="2.560691700">
        <ele>740.80</ele>
        <time>2014-04-06T10:53:47Z</time>
      </trkpt>
      <trkpt lat="41.658298480" lon="2.560683480">
        <ele>741.00</ele>
        <time>2014-04-06T10:53:48Z</time>
      </trkpt>
      <trkpt lat="41.658315080" lon="2.560675100">
        <ele>741.00</ele>
        <time>2014-04-06T10:53:49Z</time>
      </trkpt>
      <trkpt lat="41.658331670" lon="2.560665040">
        <ele>741.00</ele>
        <time>2014-04-06T10:53:50Z</time>
      </trkpt>
      <trkpt lat="41.658350110" lon="2.560656660">
        <ele>741.60</ele>
        <time>2014-04-06T10:53:51Z</time>
      </trkpt>
      <trkpt lat="41.658366710" lon="2.560648450">
        <ele>742.00</ele>
        <time>2014-04-06T10:53:52Z</time>
      </trkpt>
      <trkpt lat="41.658385150" lon="2.560643420">
        <ele>742.40</ele>
        <time>2014-04-06T10:53:53Z</time>
      </trkpt>
      <trkpt lat="41.658403420" lon="2.560638390">
        <ele>742.00</ele>
        <time>2014-04-06T10:53:54Z</time>
      </trkpt>
      <trkpt lat="41.658420020" lon="2.560631680">
        <ele>741.70</ele>
        <time>2014-04-06T10:53:55Z</time>
      </trkpt>
      <trkpt lat="41.658436780" lon="2.560623470">
        <ele>741.80</ele>
        <time>2014-04-06T10:53:56Z</time>
      </trkpt>
      <trkpt lat="41.658451700" lon="2.560616760">
        <ele>741.90</ele>
        <time>2014-04-06T10:53:57Z</time>
      </trkpt>
      <trkpt lat="41.658466790" lon="2.560610060">
        <ele>742.20</ele>
        <time>2014-04-06T10:53:58Z</time>
      </trkpt>
      <trkpt lat="41.658483380" lon="2.560601680">
        <ele>742.50</ele>
        <time>2014-04-06T10:53:59Z</time>
      </trkpt>
      <trkpt lat="41.658501820" lon="2.560591790">
        <ele>742.60</ele>
        <time>2014-04-06T10:54:00Z</time>
      </trkpt>
      <trkpt lat="41.658528480" lon="2.560560100">
        <ele>743.20</ele>
        <time>2014-04-06T10:54:01Z</time>
      </trkpt>
      <trkpt lat="41.658546750" lon="2.560550040">
        <ele>743.60</ele>
        <time>2014-04-06T10:54:02Z</time>
      </trkpt>
      <trkpt lat="41.658565020" lon="2.560533450">
        <ele>743.20</ele>
        <time>2014-04-06T10:54:03Z</time>
      </trkpt>
      <trkpt lat="41.658583460" lon="2.560518360">
        <ele>742.90</ele>
        <time>2014-04-06T10:54:04Z</time>
      </trkpt>
      <trkpt lat="41.658601740" lon="2.560503440">
        <ele>742.70</ele>
        <time>2014-04-06T10:54:05Z</time>
      </trkpt>
      <trkpt lat="41.658621690" lon="2.560485000">
        <ele>742.70</ele>
        <time>2014-04-06T10:54:06Z</time>
      </trkpt>
      <trkpt lat="41.658638450" lon="2.560468400">
        <ele>742.70</ele>
        <time>2014-04-06T10:54:07Z</time>
      </trkpt>
      <trkpt lat="41.658651690" lon="2.560450130">
        <ele>743.00</ele>
        <time>2014-04-06T10:54:08Z</time>
      </trkpt>
      <trkpt lat="41.658663430" lon="2.560431690">
        <ele>743.30</ele>
        <time>2014-04-06T10:54:09Z</time>
      </trkpt>
      <trkpt lat="41.658678350" lon="2.560415100">
        <ele>743.10</ele>
        <time>2014-04-06T10:54:10Z</time>
      </trkpt>
      <trkpt lat="41.658693440" lon="2.560396820">
        <ele>743.00</ele>
        <time>2014-04-06T10:54:11Z</time>
      </trkpt>
      <trkpt lat="41.658706680" lon="2.560381740">
        <ele>742.90</ele>
        <time>2014-04-06T10:54:12Z</time>
      </trkpt>
      <trkpt lat="41.658718410" lon="2.560368490">
        <ele>743.30</ele>
        <time>2014-04-06T10:54:13Z</time>
      </trkpt>
      <trkpt lat="41.658731820" lon="2.560351730">
        <ele>743.60</ele>
        <time>2014-04-06T10:54:14Z</time>
      </trkpt>
      <trkpt lat="41.658743390" lon="2.560338480">
        <ele>744.30</ele>
        <time>2014-04-06T10:54:15Z</time>
      </trkpt>
      <trkpt lat="41.658753450" lon="2.560323400">
        <ele>744.90</ele>
        <time>2014-04-06T10:54:16Z</time>
      </trkpt>
      <trkpt lat="41.658766690" lon="2.560311660">
        <ele>745.20</ele>
        <time>2014-04-06T10:54:17Z</time>
      </trkpt>
      <trkpt lat="41.658778430" lon="2.560301770">
        <ele>745.40</ele>
        <time>2014-04-06T10:54:18Z</time>
      </trkpt>
      <trkpt lat="41.658790160" lon="2.560286680">
        <ele>745.60</ele>
        <time>2014-04-06T10:54:19Z</time>
      </trkpt>
      <trkpt lat="41.658801730" lon="2.560278470">
        <ele>745.70</ele>
        <time>2014-04-06T10:54:20Z</time>
      </trkpt>
      <trkpt lat="41.658813460" lon="2.560273440">
        <ele>745.70</ele>
        <time>2014-04-06T10:54:21Z</time>
      </trkpt>
      <trkpt lat="41.658833410" lon="2.560260030">
        <ele>746.10</ele>
        <time>2014-04-06T10:54:22Z</time>
      </trkpt>
      <trkpt lat="41.658853360" lon="2.560240080">
        <ele>746.40</ele>
        <time>2014-04-06T10:54:23Z</time>
      </trkpt>
      <trkpt lat="41.658878340" lon="2.560225160">
        <ele>746.40</ele>
        <time>2014-04-06T10:54:24Z</time>
      </trkpt>
      <trkpt lat="41.658903490" lon="2.560208400">
        <ele>746.50</ele>
        <time>2014-04-06T10:54:25Z</time>
      </trkpt>
      <trkpt lat="41.658928460" lon="2.560176710">
        <ele>746.50</ele>
        <time>2014-04-06T10:54:26Z</time>
      </trkpt>
      <trkpt lat="41.658948410" lon="2.560141680">
        <ele>746.90</ele>
        <time>2014-04-06T10:54:27Z</time>
      </trkpt>
      <trkpt lat="41.658975070" lon="2.560106810">
        <ele>747.20</ele>
        <time>2014-04-06T10:54:28Z</time>
      </trkpt>
      <trkpt lat="41.658991660" lon="2.560076800">
        <ele>747.10</ele>
        <time>2014-04-06T10:54:29Z</time>
      </trkpt>
      <trkpt lat="41.659005070" lon="2.560046790">
        <ele>747.00</ele>
        <time>2014-04-06T10:54:30Z</time>
      </trkpt>
      <trkpt lat="41.659016810" lon="2.560020140">
        <ele>746.90</ele>
        <time>2014-04-06T10:54:31Z</time>
      </trkpt>
      <trkpt lat="41.659031730" lon="2.559996670">
        <ele>746.80</ele>
        <time>2014-04-06T10:54:32Z</time>
      </trkpt>
      <trkpt lat="41.659043460" lon="2.559971690">
        <ele>746.70</ele>
        <time>2014-04-06T10:54:33Z</time>
      </trkpt>
      <trkpt lat="41.659055030" lon="2.559951740">
        <ele>746.40</ele>
        <time>2014-04-06T10:54:34Z</time>
      </trkpt>
      <trkpt lat="41.659068440" lon="2.559926770">
        <ele>746.20</ele>
        <time>2014-04-06T10:54:35Z</time>
      </trkpt>
      <trkpt lat="41.659081690" lon="2.559898430">
        <ele>746.10</ele>
        <time>2014-04-06T10:54:36Z</time>
      </trkpt>
      <trkpt lat="41.659096770" lon="2.559870100">
        <ele>746.10</ele>
        <time>2014-04-06T10:54:37Z</time>
      </trkpt>
      <trkpt lat="41.659110020" lon="2.559841770">
        <ele>746.10</ele>
        <time>2014-04-06T10:54:38Z</time>
      </trkpt>
      <trkpt lat="41.659126780" lon="2.559816800">
        <ele>746.50</ele>
        <time>2014-04-06T10:54:39Z</time>
      </trkpt>
      <trkpt lat="41.659146730" lon="2.559786790">
        <ele>746.80</ele>
        <time>2014-04-06T10:54:40Z</time>
      </trkpt>
      <trkpt lat="41.659166680" lon="2.559753430">
        <ele>746.70</ele>
        <time>2014-04-06T10:54:41Z</time>
      </trkpt>
      <trkpt lat="41.659190150" lon="2.559713360">
        <ele>746.60</ele>
        <time>2014-04-06T10:54:42Z</time>
      </trkpt>
      <trkpt lat="41.659216800" lon="2.559668440">
        <ele>746.50</ele>
        <time>2014-04-06T10:54:43Z</time>
      </trkpt>
      <trkpt lat="41.659243460" lon="2.559618480">
        <ele>746.20</ele>
        <time>2014-04-06T10:54:44Z</time>
      </trkpt>
      <trkpt lat="41.659271790" lon="2.559563490">
        <ele>746.00</ele>
        <time>2014-04-06T10:54:45Z</time>
      </trkpt>
      <trkpt lat="41.659300120" lon="2.559505160">
        <ele>745.60</ele>
        <time>2014-04-06T10:54:46Z</time>
      </trkpt>
      <trkpt lat="41.659325100" lon="2.559441790">
        <ele>745.40</ele>
        <time>2014-04-06T10:54:47Z</time>
      </trkpt>
      <trkpt lat="41.659346720" lon="2.559376750">
        <ele>745.00</ele>
        <time>2014-04-06T10:54:48Z</time>
      </trkpt>
      <trkpt lat="41.659363480" lon="2.559323440">
        <ele>744.70</ele>
        <time>2014-04-06T10:54:49Z</time>
      </trkpt>
      <trkpt lat="41.659380080" lon="2.559273480">
        <ele>744.50</ele>
        <time>2014-04-06T10:54:50Z</time>
      </trkpt>
      <trkpt lat="41.659393490" lon="2.559228390">
        <ele>744.10</ele>
        <time>2014-04-06T10:54:51Z</time>
      </trkpt>
      <trkpt lat="41.659403380" lon="2.559193350">
        <ele>743.90</ele>
        <time>2014-04-06T10:54:52Z</time>
      </trkpt>
      <trkpt lat="41.659413440" lon="2.559160160">
        <ele>743.60</ele>
        <time>2014-04-06T10:54:53Z</time>
      </trkpt>
      <trkpt lat="41.659423330" lon="2.559126800">
        <ele>743.40</ele>
        <time>2014-04-06T10:54:54Z</time>
      </trkpt>
      <trkpt lat="41.659430040" lon="2.559096790">
        <ele>743.60</ele>
        <time>2014-04-06T10:54:55Z</time>
      </trkpt>
      <trkpt lat="41.659438420" lon="2.559065110">
        <ele>743.80</ele>
        <time>2014-04-06T10:54:56Z</time>
      </trkpt>
      <trkpt lat="41.659450150" lon="2.559033420">
        <ele>743.90</ele>
        <time>2014-04-06T10:54:57Z</time>
      </trkpt>
      <trkpt lat="41.659458370" lon="2.559008440">
        <ele>744.30</ele>
        <time>2014-04-06T10:54:58Z</time>
      </trkpt>
      <trkpt lat="41.659468430" lon="2.558981790">
        <ele>744.50</ele>
        <time>2014-04-06T10:54:59Z</time>
      </trkpt>
      <trkpt lat="41.659480160" lon="2.558958490">
        <ele>744.60</ele>
        <time>2014-04-06T10:55:00Z</time>
      </trkpt>
      <trkpt lat="41.659490050" lon="2.558940050">
        <ele>744.60</ele>
        <time>2014-04-06T10:55:01Z</time>
      </trkpt>
      <trkpt lat="41.659501790" lon="2.558921780">
        <ele>744.60</ele>
        <time>2014-04-06T10:55:02Z</time>
      </trkpt>
      <trkpt lat="41.659513350" lon="2.558903340">
        <ele>744.60</ele>
        <time>2014-04-06T10:55:03Z</time>
      </trkpt>
      <trkpt lat="41.659528440" lon="2.558883390">
        <ele>744.70</ele>
        <time>2014-04-06T10:55:04Z</time>
      </trkpt>
      <trkpt lat="41.659545040" lon="2.558866790">
        <ele>744.10</ele>
        <time>2014-04-06T10:55:05Z</time>
      </trkpt>
      <trkpt lat="41.659565150" lon="2.558853380">
        <ele>743.60</ele>
        <time>2014-04-06T10:55:06Z</time>
      </trkpt>
      <trkpt lat="41.659586780" lon="2.558840140">
        <ele>743.50</ele>
        <time>2014-04-06T10:55:07Z</time>
      </trkpt>
      <trkpt lat="41.659608400" lon="2.558830080">
        <ele>743.40</ele>
        <time>2014-04-06T10:55:08Z</time>
      </trkpt>
      <trkpt lat="41.659630030" lon="2.558820020">
        <ele>743.40</ele>
        <time>2014-04-06T10:55:09Z</time>
      </trkpt>
      <trkpt lat="41.659655010" lon="2.558813480">
        <ele>742.70</ele>
        <time>2014-04-06T10:55:10Z</time>
      </trkpt>
      <trkpt lat="41.659676800" lon="2.558810130">
        <ele>742.20</ele>
        <time>2014-04-06T10:55:11Z</time>
      </trkpt>
      <trkpt lat="41.659691720" lon="2.558803420">
        <ele>741.60</ele>
        <time>2014-04-06T10:55:12Z</time>
      </trkpt>
      <trkpt lat="41.659713350" lon="2.558791690">
        <ele>741.10</ele>
        <time>2014-04-06T10:55:13Z</time>
      </trkpt>
      <trkpt lat="41.659740000" lon="2.558775090">
        <ele>739.90</ele>
        <time>2014-04-06T10:55:14Z</time>
      </trkpt>
      <trkpt lat="41.659771680" lon="2.558755140">
        <ele>738.90</ele>
        <time>2014-04-06T10:55:15Z</time>
      </trkpt>
      <trkpt lat="41.659803370" lon="2.558738380">
        <ele>738.20</ele>
        <time>2014-04-06T10:55:16Z</time>
      </trkpt>
      <trkpt lat="41.659833370" lon="2.558720110">
        <ele>737.70</ele>
        <time>2014-04-06T10:55:17Z</time>
      </trkpt>
      <trkpt lat="41.659858350" lon="2.558703340">
        <ele>737.30</ele>
        <time>2014-04-06T10:55:18Z</time>
      </trkpt>
      <trkpt lat="41.659883330" lon="2.558688420">
        <ele>736.60</ele>
        <time>2014-04-06T10:55:19Z</time>
      </trkpt>
      <trkpt lat="41.659910150" lon="2.558670150">
        <ele>736.10</ele>
        <time>2014-04-06T10:55:20Z</time>
      </trkpt>
      <trkpt lat="41.659938480" lon="2.558653390">
        <ele>735.00</ele>
        <time>2014-04-06T10:55:21Z</time>
      </trkpt>
      <trkpt lat="41.659968490" lon="2.558638470">
        <ele>734.20</ele>
        <time>2014-04-06T10:55:22Z</time>
      </trkpt>
      <trkpt lat="41.660001680" lon="2.558623380">
        <ele>733.60</ele>
        <time>2014-04-06T10:55:23Z</time>
      </trkpt>
      <trkpt lat="41.660035040" lon="2.558610140">
        <ele>733.30</ele>
        <time>2014-04-06T10:55:24Z</time>
      </trkpt>
      <trkpt lat="41.660063370" lon="2.558596730">
        <ele>733.10</ele>
        <time>2014-04-06T10:55:25Z</time>
      </trkpt>
      <trkpt lat="41.660086680" lon="2.558585160">
        <ele>732.10</ele>
        <time>2014-04-06T10:55:26Z</time>
      </trkpt>
      <trkpt lat="41.660108470" lon="2.558575100">
        <ele>731.40</ele>
        <time>2014-04-06T10:55:27Z</time>
      </trkpt>
      <trkpt lat="41.660131770" lon="2.558565040">
        <ele>730.90</ele>
        <time>2014-04-06T10:55:28Z</time>
      </trkpt>
      <trkpt lat="41.660158420" lon="2.558555150">
        <ele>730.10</ele>
        <time>2014-04-06T10:55:29Z</time>
      </trkpt>
      <trkpt lat="41.660188430" lon="2.558545090">
        <ele>729.50</ele>
        <time>2014-04-06T10:55:30Z</time>
      </trkpt>
      <trkpt lat="41.660220120" lon="2.558538390">
        <ele>728.80</ele>
        <time>2014-04-06T10:55:31Z</time>
      </trkpt>
      <trkpt lat="41.660241740" lon="2.558530010">
        <ele>728.30</ele>
        <time>2014-04-06T10:55:32Z</time>
      </trkpt>
      <trkpt lat="41.660268390" lon="2.558526820">
        <ele>726.80</ele>
        <time>2014-04-06T10:55:33Z</time>
      </trkpt>
      <trkpt lat="41.660295050" lon="2.558523470">
        <ele>725.70</ele>
        <time>2014-04-06T10:55:34Z</time>
      </trkpt>
      <trkpt lat="41.660325060" lon="2.558516760">
        <ele>724.90</ele>
        <time>2014-04-06T10:55:35Z</time>
      </trkpt>
      <trkpt lat="41.660356740" lon="2.558505030">
        <ele>724.10</ele>
        <time>2014-04-06T10:55:36Z</time>
      </trkpt>
      <trkpt lat="41.660391780" lon="2.558501670">
        <ele>723.50</ele>
        <time>2014-04-06T10:55:37Z</time>
      </trkpt>
      <trkpt lat="41.660436700" lon="2.558500000">
        <ele>722.50</ele>
        <time>2014-04-06T10:55:38Z</time>
      </trkpt>
      <trkpt lat="41.660465030" lon="2.558501670">
        <ele>721.90</ele>
        <time>2014-04-06T10:55:39Z</time>
      </trkpt>
      <trkpt lat="41.660486830" lon="2.558493460">
        <ele>720.50</ele>
        <time>2014-04-06T10:55:40Z</time>
      </trkpt>
      <trkpt lat="41.660521700" lon="2.558475020">
        <ele>719.60</ele>
        <time>2014-04-06T10:55:41Z</time>
      </trkpt>
      <trkpt lat="41.660565110" lon="2.558460100">
        <ele>718.50</ele>
        <time>2014-04-06T10:55:42Z</time>
      </trkpt>
      <trkpt lat="41.660615070" lon="2.558448370">
        <ele>717.70</ele>
        <time>2014-04-06T10:55:43Z</time>
      </trkpt>
      <trkpt lat="41.660675080" lon="2.558440150">
        <ele>717.10</ele>
        <time>2014-04-06T10:55:44Z</time>
      </trkpt>
      <trkpt lat="41.660731750" lon="2.558431770">
        <ele>716.20</ele>
        <time>2014-04-06T10:55:45Z</time>
      </trkpt>
      <trkpt lat="41.660781700" lon="2.558423390">
        <ele>715.50</ele>
        <time>2014-04-06T10:55:46Z</time>
      </trkpt>
      <trkpt lat="41.660826800" lon="2.558415010">
        <ele>715.00</ele>
        <time>2014-04-06T10:55:47Z</time>
      </trkpt>
      <trkpt lat="41.660871720" lon="2.558401760">
        <ele>714.30</ele>
        <time>2014-04-06T10:55:48Z</time>
      </trkpt>
      <trkpt lat="41.660913470" lon="2.558388350">
        <ele>713.70</ele>
        <time>2014-04-06T10:55:49Z</time>
      </trkpt>
      <trkpt lat="41.660953360" lon="2.558375110">
        <ele>712.80</ele>
        <time>2014-04-06T10:55:50Z</time>
      </trkpt>
      <trkpt lat="41.660995110" lon="2.558366730">
        <ele>712.20</ele>
        <time>2014-04-06T10:55:51Z</time>
      </trkpt>
      <trkpt lat="41.661036680" lon="2.558360020">
        <ele>711.40</ele>
        <time>2014-04-06T10:55:52Z</time>
      </trkpt>
      <trkpt lat="41.661075070" lon="2.558353480">
        <ele>710.80</ele>
        <time>2014-04-06T10:55:53Z</time>
      </trkpt>
      <trkpt lat="41.661101720" lon="2.558345100">
        <ele>710.30</ele>
        <time>2014-04-06T10:55:54Z</time>
      </trkpt>
      <trkpt lat="41.661123350" lon="2.558326830">
        <ele>709.70</ele>
        <time>2014-04-06T10:55:55Z</time>
      </trkpt>
      <trkpt lat="41.661136760" lon="2.558300010">
        <ele>709.30</ele>
        <time>2014-04-06T10:55:56Z</time>
      </trkpt>
      <trkpt lat="41.661138440" lon="2.558271680">
        <ele>708.60</ele>
        <time>2014-04-06T10:55:57Z</time>
      </trkpt>
      <trkpt lat="41.661136760" lon="2.558251730">
        <ele>708.20</ele>
        <time>2014-04-06T10:55:58Z</time>
      </trkpt>
      <trkpt lat="41.661131730" lon="2.558235130">
        <ele>707.40</ele>
        <time>2014-04-06T10:55:59Z</time>
      </trkpt>
      <trkpt lat="41.661123350" lon="2.558225070">
        <ele>706.80</ele>
        <time>2014-04-06T10:56:00Z</time>
      </trkpt>
      <trkpt lat="41.661113460" lon="2.558213340">
        <ele>706.40</ele>
        <time>2014-04-06T10:56:01Z</time>
      </trkpt>
      <trkpt lat="41.661101720" lon="2.558200090">
        <ele>706.10</ele>
        <time>2014-04-06T10:56:02Z</time>
      </trkpt>
      <trkpt lat="41.661090160" lon="2.558183330">
        <ele>705.90</ele>
        <time>2014-04-06T10:56:03Z</time>
      </trkpt>
      <trkpt lat="41.661071720" lon="2.558170090">
        <ele>705.80</ele>
        <time>2014-04-06T10:56:04Z</time>
      </trkpt>
      <trkpt lat="41.661058470" lon="2.558156680">
        <ele>705.70</ele>
        <time>2014-04-06T10:56:05Z</time>
      </trkpt>
      <trkpt lat="41.661040030" lon="2.558145110">
        <ele>705.60</ele>
        <time>2014-04-06T10:56:06Z</time>
      </trkpt>
      <trkpt lat="41.661023440" lon="2.558131700">
        <ele>705.00</ele>
        <time>2014-04-06T10:56:07Z</time>
      </trkpt>
      <trkpt lat="41.661006670" lon="2.558115100">
        <ele>704.50</ele>
        <time>2014-04-06T10:56:08Z</time>
      </trkpt>
      <trkpt lat="41.660980020" lon="2.558100010">
        <ele>704.10</ele>
        <time>2014-04-06T10:56:09Z</time>
      </trkpt>
      <trkpt lat="41.660948330" lon="2.558081740">
        <ele>703.70</ele>
        <time>2014-04-06T10:56:10Z</time>
      </trkpt>
      <trkpt lat="41.660910110" lon="2.558058440">
        <ele>703.10</ele>
        <time>2014-04-06T10:56:11Z</time>
      </trkpt>
      <trkpt lat="41.660865020" lon="2.558041680">
        <ele>702.70</ele>
        <time>2014-04-06T10:56:12Z</time>
      </trkpt>
      <trkpt lat="41.660821770" lon="2.558021730">
        <ele>702.40</ele>
        <time>2014-04-06T10:56:13Z</time>
      </trkpt>
      <trkpt lat="41.660775000" lon="2.557998420">
        <ele>701.90</ele>
        <time>2014-04-06T10:56:14Z</time>
      </trkpt>
      <trkpt lat="41.660726720" lon="2.557973450">
        <ele>701.50</ele>
        <time>2014-04-06T10:56:15Z</time>
      </trkpt>
      <trkpt lat="41.660676760" lon="2.557946790">
        <ele>701.20</ele>
        <time>2014-04-06T10:56:16Z</time>
      </trkpt>
      <trkpt lat="41.660623450" lon="2.557913430">
        <ele>700.90</ele>
        <time>2014-04-06T10:56:17Z</time>
      </trkpt>
      <trkpt lat="41.660571820" lon="2.557880070">
        <ele>700.20</ele>
        <time>2014-04-06T10:56:18Z</time>
      </trkpt>
      <trkpt lat="41.660526730" lon="2.557851740">
        <ele>699.70</ele>
        <time>2014-04-06T10:56:19Z</time>
      </trkpt>
      <trkpt lat="41.660488340" lon="2.557831790">
        <ele>699.30</ele>
        <time>2014-04-06T10:56:20Z</time>
      </trkpt>
      <trkpt lat="41.660446760" lon="2.557808490">
        <ele>698.40</ele>
        <time>2014-04-06T10:56:21Z</time>
      </trkpt>
      <trkpt lat="41.660405020" lon="2.557781670">
        <ele>697.80</ele>
        <time>2014-04-06T10:56:22Z</time>
      </trkpt>
      <trkpt lat="41.660371830" lon="2.557765070">
        <ele>697.70</ele>
        <time>2014-04-06T10:56:23Z</time>
      </trkpt>
      <trkpt lat="41.660340140" lon="2.557738420">
        <ele>697.50</ele>
        <time>2014-04-06T10:56:24Z</time>
      </trkpt>
      <trkpt lat="41.660318350" lon="2.557698350">
        <ele>697.50</ele>
        <time>2014-04-06T10:56:25Z</time>
      </trkpt>
      <trkpt lat="41.660323380" lon="2.557646720">
        <ele>696.90</ele>
        <time>2014-04-06T10:56:26Z</time>
      </trkpt>
      <trkpt lat="41.660338470" lon="2.557611680">
        <ele>696.50</ele>
        <time>2014-04-06T10:56:27Z</time>
      </trkpt>
      <trkpt lat="41.660360090" lon="2.557580000">
        <ele>696.00</ele>
        <time>2014-04-06T10:56:28Z</time>
      </trkpt>
      <trkpt lat="41.660383390" lon="2.557550160">
        <ele>695.70</ele>
        <time>2014-04-06T10:56:29Z</time>
      </trkpt>
      <trkpt lat="41.660405020" lon="2.557518480">
        <ele>695.30</ele>
        <time>2014-04-06T10:56:30Z</time>
      </trkpt>
      <trkpt lat="41.660421780" lon="2.557491820">
        <ele>695.10</ele>
        <time>2014-04-06T10:56:31Z</time>
      </trkpt>
      <trkpt lat="41.660446760" lon="2.557451760">
        <ele>694.90</ele>
        <time>2014-04-06T10:56:32Z</time>
      </trkpt>
      <trkpt lat="41.660475090" lon="2.557408340">
        <ele>694.50</ele>
        <time>2014-04-06T10:56:33Z</time>
      </trkpt>
      <trkpt lat="41.660518340" lon="2.557373470">
        <ele>694.30</ele>
        <time>2014-04-06T10:56:34Z</time>
      </trkpt>
      <trkpt lat="41.660561760" lon="2.557350000">
        <ele>693.60</ele>
        <time>2014-04-06T10:56:35Z</time>
      </trkpt>
      <trkpt lat="41.660603340" lon="2.557326700">
        <ele>693.10</ele>
        <time>2014-04-06T10:56:36Z</time>
      </trkpt>
      <trkpt lat="41.660638370" lon="2.557305070">
        <ele>692.40</ele>
        <time>2014-04-06T10:56:37Z</time>
      </trkpt>
      <trkpt lat="41.660663350" lon="2.557276740">
        <ele>691.90</ele>
        <time>2014-04-06T10:56:38Z</time>
      </trkpt>
      <trkpt lat="41.660688500" lon="2.557241710">
        <ele>691.50</ele>
        <time>2014-04-06T10:56:39Z</time>
      </trkpt>
      <trkpt lat="41.660705090" lon="2.557201810">
        <ele>691.00</ele>
        <time>2014-04-06T10:56:40Z</time>
      </trkpt>
      <trkpt lat="41.660720010" lon="2.557165100">
        <ele>690.70</ele>
        <time>2014-04-06T10:56:41Z</time>
      </trkpt>
      <trkpt lat="41.660740130" lon="2.557135090">
        <ele>690.40</ele>
        <time>2014-04-06T10:56:42Z</time>
      </trkpt>
      <trkpt lat="41.660760080" lon="2.557105080">
        <ele>690.30</ele>
        <time>2014-04-06T10:56:43Z</time>
      </trkpt>
      <trkpt lat="41.660776670" lon="2.557073400">
        <ele>690.10</ele>
        <time>2014-04-06T10:56:44Z</time>
      </trkpt>
      <trkpt lat="41.660793440" lon="2.557041710">
        <ele>689.90</ele>
        <time>2014-04-06T10:56:45Z</time>
      </trkpt>
      <trkpt lat="41.660806680" lon="2.557015060">
        <ele>689.70</ele>
        <time>2014-04-06T10:56:46Z</time>
      </trkpt>
      <trkpt lat="41.660823440" lon="2.556986730">
        <ele>689.50</ele>
        <time>2014-04-06T10:56:47Z</time>
      </trkpt>
      <trkpt lat="41.660838360" lon="2.556960070">
        <ele>689.30</ele>
        <time>2014-04-06T10:56:48Z</time>
      </trkpt>
      <trkpt lat="41.660856800" lon="2.556930070">
        <ele>689.60</ele>
        <time>2014-04-06T10:56:49Z</time>
      </trkpt>
      <trkpt lat="41.660875080" lon="2.556903410">
        <ele>689.80</ele>
        <time>2014-04-06T10:56:50Z</time>
      </trkpt>
      <trkpt lat="41.660890000" lon="2.556873410">
        <ele>690.00</ele>
        <time>2014-04-06T10:56:51Z</time>
      </trkpt>
      <trkpt lat="41.660906760" lon="2.556846750">
        <ele>690.10</ele>
        <time>2014-04-06T10:56:52Z</time>
      </trkpt>
      <trkpt lat="41.660923360" lon="2.556820100">
        <ele>690.10</ele>
        <time>2014-04-06T10:56:53Z</time>
      </trkpt>
      <trkpt lat="41.660938440" lon="2.556790090">
        <ele>690.10</ele>
        <time>2014-04-06T10:56:54Z</time>
      </trkpt>
      <trkpt lat="41.660953360" lon="2.556761760">
        <ele>690.10</ele>
        <time>2014-04-06T10:56:55Z</time>
      </trkpt>
      <trkpt lat="41.660966780" lon="2.556733430">
        <ele>690.40</ele>
        <time>2014-04-06T10:56:56Z</time>
      </trkpt>
      <trkpt lat="41.660978340" lon="2.556703420">
        <ele>690.50</ele>
        <time>2014-04-06T10:56:57Z</time>
      </trkpt>
      <trkpt lat="41.660991750" lon="2.556675090">
        <ele>690.70</ele>
        <time>2014-04-06T10:56:58Z</time>
      </trkpt>
      <trkpt lat="41.661006670" lon="2.556643410">
        <ele>690.90</ele>
        <time>2014-04-06T10:56:59Z</time>
      </trkpt>
      <trkpt lat="41.661018410" lon="2.556610050">
        <ele>691.00</ele>
        <time>2014-04-06T10:57:00Z</time>
      </trkpt>
      <trkpt lat="41.661031820" lon="2.556575010">
        <ele>690.80</ele>
        <time>2014-04-06T10:57:01Z</time>
      </trkpt>
      <trkpt lat="41.661048410" lon="2.556540140">
        <ele>690.70</ele>
        <time>2014-04-06T10:57:02Z</time>
      </trkpt>
      <trkpt lat="41.661060150" lon="2.556500080">
        <ele>690.60</ele>
        <time>2014-04-06T10:57:03Z</time>
      </trkpt>
      <trkpt lat="41.661071720" lon="2.556463360">
        <ele>690.60</ele>
        <time>2014-04-06T10:57:04Z</time>
      </trkpt>
      <trkpt lat="41.661085130" lon="2.556428490">
        <ele>690.70</ele>
        <time>2014-04-06T10:57:05Z</time>
      </trkpt>
      <trkpt lat="41.661098370" lon="2.556393460">
        <ele>690.60</ele>
        <time>2014-04-06T10:57:06Z</time>
      </trkpt>
      <trkpt lat="41.661110110" lon="2.556353390">
        <ele>690.50</ele>
        <time>2014-04-06T10:57:07Z</time>
      </trkpt>
      <trkpt lat="41.661121670" lon="2.556313490">
        <ele>690.90</ele>
        <time>2014-04-06T10:57:08Z</time>
      </trkpt>
      <trkpt lat="41.661131730" lon="2.556275110">
        <ele>691.10</ele>
        <time>2014-04-06T10:57:09Z</time>
      </trkpt>
      <trkpt lat="41.661143470" lon="2.556240070">
        <ele>691.30</ele>
        <time>2014-04-06T10:57:10Z</time>
      </trkpt>
      <trkpt lat="41.661151680" lon="2.556205030">
        <ele>691.20</ele>
        <time>2014-04-06T10:57:11Z</time>
      </trkpt>
      <trkpt lat="41.661158390" lon="2.556171670">
        <ele>691.20</ele>
        <time>2014-04-06T10:57:12Z</time>
      </trkpt>
      <trkpt lat="41.661163410" lon="2.556141670">
        <ele>691.00</ele>
        <time>2014-04-06T10:57:13Z</time>
      </trkpt>
      <trkpt lat="41.661171800" lon="2.556111830">
        <ele>690.90</ele>
        <time>2014-04-06T10:57:14Z</time>
      </trkpt>
      <trkpt lat="41.661178330" lon="2.556078470">
        <ele>690.60</ele>
        <time>2014-04-06T10:57:15Z</time>
      </trkpt>
      <trkpt lat="41.661181690" lon="2.556046780">
        <ele>690.30</ele>
        <time>2014-04-06T10:57:16Z</time>
      </trkpt>
      <trkpt lat="41.661185040" lon="2.556010070">
        <ele>690.10</ele>
        <time>2014-04-06T10:57:17Z</time>
      </trkpt>
      <trkpt lat="41.661188390" lon="2.555971680">
        <ele>690.70</ele>
        <time>2014-04-06T10:57:18Z</time>
      </trkpt>
      <trkpt lat="41.661191750" lon="2.555930110">
        <ele>691.10</ele>
        <time>2014-04-06T10:57:19Z</time>
      </trkpt>
      <trkpt lat="41.661193420" lon="2.555895070">
        <ele>691.40</ele>
        <time>2014-04-06T10:57:20Z</time>
      </trkpt>
      <trkpt lat="41.661198450" lon="2.555856680">
        <ele>691.60</ele>
        <time>2014-04-06T10:57:21Z</time>
      </trkpt>
      <trkpt lat="41.661213370" lon="2.555810080">
        <ele>691.40</ele>
        <time>2014-04-06T10:57:22Z</time>
      </trkpt>
      <trkpt lat="41.661236670" lon="2.555763470">
        <ele>691.30</ele>
        <time>2014-04-06T10:57:23Z</time>
      </trkpt>
      <trkpt lat="41.661260140" lon="2.555718380">
        <ele>691.30</ele>
        <time>2014-04-06T10:57:24Z</time>
      </trkpt>
      <trkpt lat="41.661286800" lon="2.555676810">
        <ele>691.00</ele>
        <time>2014-04-06T10:57:25Z</time>
      </trkpt>
      <trkpt lat="41.661310100" lon="2.555643450">
        <ele>690.70</ele>
        <time>2014-04-06T10:57:26Z</time>
      </trkpt>
      <trkpt lat="41.661335080" lon="2.555605060">
        <ele>691.00</ele>
        <time>2014-04-06T10:57:27Z</time>
      </trkpt>
      <trkpt lat="41.661360050" lon="2.555563480">
        <ele>691.10</ele>
        <time>2014-04-06T10:57:28Z</time>
      </trkpt>
      <trkpt lat="41.661383360" lon="2.555520060">
        <ele>691.30</ele>
        <time>2014-04-06T10:57:29Z</time>
      </trkpt>
      <trkpt lat="41.661406820" lon="2.555470110">
        <ele>690.80</ele>
        <time>2014-04-06T10:57:30Z</time>
      </trkpt>
      <trkpt lat="41.661426770" lon="2.555416800">
        <ele>690.40</ele>
        <time>2014-04-06T10:57:31Z</time>
      </trkpt>
      <trkpt lat="41.661446720" lon="2.555353430">
        <ele>690.40</ele>
        <time>2014-04-06T10:57:32Z</time>
      </trkpt>
      <trkpt lat="41.661461810" lon="2.555301800">
        <ele>690.40</ele>
        <time>2014-04-06T10:57:33Z</time>
      </trkpt>
      <trkpt lat="41.661473380" lon="2.555243460">
        <ele>690.40</ele>
        <time>2014-04-06T10:57:34Z</time>
      </trkpt>
      <trkpt lat="41.661476730" lon="2.555180090">
        <ele>690.30</ele>
        <time>2014-04-06T10:57:35Z</time>
      </trkpt>
      <trkpt lat="41.661476730" lon="2.555115050">
        <ele>690.30</ele>
        <time>2014-04-06T10:57:36Z</time>
      </trkpt>
      <trkpt lat="41.661476730" lon="2.555048330">
        <ele>689.90</ele>
        <time>2014-04-06T10:57:37Z</time>
      </trkpt>
      <trkpt lat="41.661475050" lon="2.554980100">
        <ele>689.50</ele>
        <time>2014-04-06T10:57:38Z</time>
      </trkpt>
      <trkpt lat="41.661480080" lon="2.554913380">
        <ele>688.60</ele>
        <time>2014-04-06T10:57:39Z</time>
      </trkpt>
      <trkpt lat="41.661486790" lon="2.554843480">
        <ele>687.90</ele>
        <time>2014-04-06T10:57:40Z</time>
      </trkpt>
      <trkpt lat="41.661491820" lon="2.554775080">
        <ele>686.80</ele>
        <time>2014-04-06T10:57:41Z</time>
      </trkpt>
      <trkpt lat="41.661498360" lon="2.554710040">
        <ele>686.00</ele>
        <time>2014-04-06T10:57:42Z</time>
      </trkpt>
      <trkpt lat="41.661498360" lon="2.554645160">
        <ele>685.40</ele>
        <time>2014-04-06T10:57:43Z</time>
      </trkpt>
      <trkpt lat="41.661500030" lon="2.554590010">
        <ele>685.20</ele>
        <time>2014-04-06T10:57:44Z</time>
      </trkpt>
      <trkpt lat="41.661505060" lon="2.554541730">
        <ele>685.10</ele>
        <time>2014-04-06T10:57:45Z</time>
      </trkpt>
      <trkpt lat="41.661508410" lon="2.554495120">
        <ele>684.40</ele>
        <time>2014-04-06T10:57:46Z</time>
      </trkpt>
      <trkpt lat="41.661516800" lon="2.554453380">
        <ele>683.90</ele>
        <time>2014-04-06T10:57:47Z</time>
      </trkpt>
      <trkpt lat="41.661528360" lon="2.554406780">
        <ele>683.50</ele>
        <time>2014-04-06T10:57:48Z</time>
      </trkpt>
      <trkpt lat="41.661545130" lon="2.554363360">
        <ele>683.00</ele>
        <time>2014-04-06T10:57:49Z</time>
      </trkpt>
      <trkpt lat="41.661565080" lon="2.554320110">
        <ele>682.50</ele>
        <time>2014-04-06T10:57:50Z</time>
      </trkpt>
      <trkpt lat="41.661585020" lon="2.554276690">
        <ele>681.70</ele>
        <time>2014-04-06T10:57:51Z</time>
      </trkpt>
      <trkpt lat="41.661608490" lon="2.554235120">
        <ele>681.10</ele>
        <time>2014-04-06T10:57:52Z</time>
      </trkpt>
      <trkpt lat="41.661636820" lon="2.554193380">
        <ele>680.70</ele>
        <time>2014-04-06T10:57:53Z</time>
      </trkpt>
      <trkpt lat="41.661661800" lon="2.554158340">
        <ele>680.40</ele>
        <time>2014-04-06T10:57:54Z</time>
      </trkpt>
      <trkpt lat="41.661685100" lon="2.554115090">
        <ele>680.10</ele>
        <time>2014-04-06T10:57:55Z</time>
      </trkpt>
      <trkpt lat="41.661711760" lon="2.554066810">
        <ele>679.70</ele>
        <time>2014-04-06T10:57:56Z</time>
      </trkpt>
      <trkpt lat="41.661730030" lon="2.554013330">
        <ele>679.30</ele>
        <time>2014-04-06T10:57:57Z</time>
      </trkpt>
      <trkpt lat="41.661753330" lon="2.553960020">
        <ele>678.20</ele>
        <time>2014-04-06T10:57:58Z</time>
      </trkpt>
      <trkpt lat="41.661771770" lon="2.553911740">
        <ele>677.40</ele>
        <time>2014-04-06T10:57:59Z</time>
      </trkpt>
      <trkpt lat="41.661786690" lon="2.553870000">
        <ele>676.80</ele>
        <time>2014-04-06T10:58:00Z</time>
      </trkpt>
      <trkpt lat="41.661798430" lon="2.553823400">
        <ele>675.70</ele>
        <time>2014-04-06T10:58:01Z</time>
      </trkpt>
      <trkpt lat="41.661808490" lon="2.553773440">
        <ele>674.90</ele>
        <time>2014-04-06T10:58:02Z</time>
      </trkpt>
      <trkpt lat="41.661816700" lon="2.553725000">
        <ele>673.90</ele>
        <time>2014-04-06T10:58:03Z</time>
      </trkpt>
      <trkpt lat="41.661821730" lon="2.553681740">
        <ele>673.10</ele>
        <time>2014-04-06T10:58:04Z</time>
      </trkpt>
      <trkpt lat="41.661828430" lon="2.553635140">
        <ele>672.00</ele>
        <time>2014-04-06T10:58:05Z</time>
      </trkpt>
      <trkpt lat="41.661831790" lon="2.553590050">
        <ele>671.30</ele>
        <time>2014-04-06T10:58:06Z</time>
      </trkpt>
      <trkpt lat="41.661831790" lon="2.553546800">
        <ele>670.70</ele>
        <time>2014-04-06T10:58:07Z</time>
      </trkpt>
      <trkpt lat="41.661828430" lon="2.553506730">
        <ele>669.60</ele>
        <time>2014-04-06T10:58:08Z</time>
      </trkpt>
      <trkpt lat="41.661820050" lon="2.553466670">
        <ele>668.80</ele>
        <time>2014-04-06T10:58:09Z</time>
      </trkpt>
      <trkpt lat="41.661808490" lon="2.553426770">
        <ele>668.00</ele>
        <time>2014-04-06T10:58:10Z</time>
      </trkpt>
      <trkpt lat="41.661793400" lon="2.553391730">
        <ele>667.40</ele>
        <time>2014-04-06T10:58:11Z</time>
      </trkpt>
      <trkpt lat="41.661771770" lon="2.553355020">
        <ele>666.60</ele>
        <time>2014-04-06T10:58:12Z</time>
      </trkpt>
      <trkpt lat="41.661748470" lon="2.553318470">
        <ele>665.90</ele>
        <time>2014-04-06T10:58:13Z</time>
      </trkpt>
      <trkpt lat="41.661723490" lon="2.553281760">
        <ele>665.40</ele>
        <time>2014-04-06T10:58:14Z</time>
      </trkpt>
      <trkpt lat="41.661698350" lon="2.553253430">
        <ele>664.80</ele>
        <time>2014-04-06T10:58:15Z</time>
      </trkpt>
      <trkpt lat="41.661678400" lon="2.553228450">
        <ele>664.30</ele>
        <time>2014-04-06T10:58:16Z</time>
      </trkpt>
      <trkpt lat="41.661658450" lon="2.553208330">
        <ele>663.10</ele>
        <time>2014-04-06T10:58:17Z</time>
      </trkpt>
      <trkpt lat="41.661635150" lon="2.553193420">
        <ele>662.10</ele>
        <time>2014-04-06T10:58:18Z</time>
      </trkpt>
      <trkpt lat="41.661610000" lon="2.553171790">
        <ele>661.40</ele>
        <time>2014-04-06T10:58:19Z</time>
      </trkpt>
      <trkpt lat="41.661581670" lon="2.553151670">
        <ele>660.90</ele>
        <time>2014-04-06T10:58:20Z</time>
      </trkpt>
      <trkpt lat="41.661555020" lon="2.553136750">
        <ele>660.60</ele>
        <time>2014-04-06T10:58:21Z</time>
      </trkpt>
      <trkpt lat="41.661526690" lon="2.553121670">
        <ele>659.70</ele>
        <time>2014-04-06T10:58:22Z</time>
      </trkpt>
      <trkpt lat="41.661495000" lon="2.553105070">
        <ele>659.10</ele>
        <time>2014-04-06T10:58:23Z</time>
      </trkpt>
      <trkpt lat="41.661461810" lon="2.553086800">
        <ele>658.10</ele>
        <time>2014-04-06T10:58:24Z</time>
      </trkpt>
      <trkpt lat="41.661430130" lon="2.553070030">
        <ele>657.30</ele>
        <time>2014-04-06T10:58:25Z</time>
      </trkpt>
      <trkpt lat="41.661393410" lon="2.553048410">
        <ele>656.70</ele>
        <time>2014-04-06T10:58:26Z</time>
      </trkpt>
      <trkpt lat="41.661356700" lon="2.553030140">
        <ele>655.80</ele>
        <time>2014-04-06T10:58:27Z</time>
      </trkpt>
      <trkpt lat="41.661323340" lon="2.553011700">
        <ele>655.10</ele>
        <time>2014-04-06T10:58:28Z</time>
      </trkpt>
      <trkpt lat="41.661285120" lon="2.552991750">
        <ele>654.50</ele>
        <time>2014-04-06T10:58:29Z</time>
      </trkpt>
      <trkpt lat="41.661246730" lon="2.552971800">
        <ele>654.10</ele>
        <time>2014-04-06T10:58:30Z</time>
      </trkpt>
      <trkpt lat="41.661208340" lon="2.552955030">
        <ele>653.00</ele>
        <time>2014-04-06T10:58:31Z</time>
      </trkpt>
      <trkpt lat="41.661168440" lon="2.552930060">
        <ele>652.20</ele>
        <time>2014-04-06T10:58:32Z</time>
      </trkpt>
      <trkpt lat="41.661131730" lon="2.552900050">
        <ele>651.50</ele>
        <time>2014-04-06T10:58:33Z</time>
      </trkpt>
      <trkpt lat="41.661101720" lon="2.552858470">
        <ele>650.70</ele>
        <time>2014-04-06T10:58:34Z</time>
      </trkpt>
      <trkpt lat="41.661083450" lon="2.552810030">
        <ele>650.10</ele>
        <time>2014-04-06T10:58:35Z</time>
      </trkpt>
      <trkpt lat="41.661081770" lon="2.552758390">
        <ele>649.50</ele>
        <time>2014-04-06T10:58:36Z</time>
      </trkpt>
      <trkpt lat="41.661088480" lon="2.552711790">
        <ele>649.00</ele>
        <time>2014-04-06T10:58:37Z</time>
      </trkpt>
      <trkpt lat="41.661098370" lon="2.552671730">
        <ele>648.30</ele>
        <time>2014-04-06T10:58:38Z</time>
      </trkpt>
      <trkpt lat="41.661115130" lon="2.552630150">
        <ele>647.70</ele>
        <time>2014-04-06T10:58:39Z</time>
      </trkpt>
      <trkpt lat="41.661131730" lon="2.552588410">
        <ele>647.30</ele>
        <time>2014-04-06T10:58:40Z</time>
      </trkpt>
      <trkpt lat="41.661145140" lon="2.552540130">
        <ele>647.20</ele>
        <time>2014-04-06T10:58:41Z</time>
      </trkpt>
      <trkpt lat="41.661156710" lon="2.552488330">
        <ele>647.10</ele>
        <time>2014-04-06T10:58:42Z</time>
      </trkpt>
      <trkpt lat="41.661171800" lon="2.552433340">
        <ele>646.90</ele>
        <time>2014-04-06T10:58:43Z</time>
      </trkpt>
      <trkpt lat="41.661186720" lon="2.552383390">
        <ele>646.80</ele>
        <time>2014-04-06T10:58:44Z</time>
      </trkpt>
      <trkpt lat="41.661201800" lon="2.552335110">
        <ele>646.70</ele>
        <time>2014-04-06T10:58:45Z</time>
      </trkpt>
      <trkpt lat="41.661213370" lon="2.552288340">
        <ele>645.90</ele>
        <time>2014-04-06T10:58:46Z</time>
      </trkpt>
      <trkpt lat="41.661228460" lon="2.552235030">
        <ele>645.40</ele>
        <time>2014-04-06T10:58:47Z</time>
      </trkpt>
      <trkpt lat="41.661245050" lon="2.552176690">
        <ele>645.00</ele>
        <time>2014-04-06T10:58:48Z</time>
      </trkpt>
      <trkpt lat="41.661268360" lon="2.552115000">
        <ele>644.70</ele>
        <time>2014-04-06T10:58:49Z</time>
      </trkpt>
      <trkpt lat="41.661286800" lon="2.552056830">
        <ele>644.70</ele>
        <time>2014-04-06T10:58:50Z</time>
      </trkpt>
      <trkpt lat="41.661305070" lon="2.551993460">
        <ele>644.60</ele>
        <time>2014-04-06T10:58:51Z</time>
      </trkpt>
      <trkpt lat="41.661323340" lon="2.551933450">
        <ele>644.60</ele>
        <time>2014-04-06T10:58:52Z</time>
      </trkpt>
      <trkpt lat="41.661338430" lon="2.551870080">
        <ele>644.10</ele>
        <time>2014-04-06T10:58:53Z</time>
      </trkpt>
      <trkpt lat="41.661355020" lon="2.551800010">
        <ele>643.80</ele>
        <time>2014-04-06T10:58:54Z</time>
      </trkpt>
      <trkpt lat="41.661375140" lon="2.551731780">
        <ele>643.10</ele>
        <time>2014-04-06T10:58:55Z</time>
      </trkpt>
      <trkpt lat="41.661400120" lon="2.551665060">
        <ele>642.60</ele>
        <time>2014-04-06T10:58:56Z</time>
      </trkpt>
      <trkpt lat="41.661423420" lon="2.551598340">
        <ele>642.10</ele>
        <time>2014-04-06T10:58:57Z</time>
      </trkpt>
      <trkpt lat="41.661445050" lon="2.551533460">
        <ele>641.70</ele>
        <time>2014-04-06T10:58:58Z</time>
      </trkpt>
      <trkpt lat="41.661461810" lon="2.551481660">
        <ele>641.40</ele>
        <time>2014-04-06T10:58:59Z</time>
      </trkpt>
      <trkpt lat="41.661468350" lon="2.551435060">
        <ele>641.00</ele>
        <time>2014-04-06T10:59:00Z</time>
      </trkpt>
      <trkpt lat="41.661476730" lon="2.551391810">
        <ele>640.70</ele>
        <time>2014-04-06T10:59:01Z</time>
      </trkpt>
      <trkpt lat="41.661485110" lon="2.551350070">
        <ele>640.50</ele>
        <time>2014-04-06T10:59:02Z</time>
      </trkpt>
      <trkpt lat="41.661495000" lon="2.551313350">
        <ele>640.30</ele>
        <time>2014-04-06T10:59:03Z</time>
      </trkpt>
      <trkpt lat="41.661503380" lon="2.551273460">
        <ele>640.20</ele>
        <time>2014-04-06T10:59:04Z</time>
      </trkpt>
      <trkpt lat="41.661521820" lon="2.551235070">
        <ele>640.10</ele>
        <time>2014-04-06T10:59:05Z</time>
      </trkpt>
      <trkpt lat="41.661546800" lon="2.551193490">
        <ele>640.00</ele>
        <time>2014-04-06T10:59:06Z</time>
      </trkpt>
      <trkpt lat="41.661575130" lon="2.551148400">
        <ele>640.00</ele>
        <time>2014-04-06T10:59:07Z</time>
      </trkpt>
      <trkpt lat="41.661603460" lon="2.551105150">
        <ele>640.00</ele>
        <time>2014-04-06T10:59:08Z</time>
      </trkpt>
      <trkpt lat="41.661631800" lon="2.551065080">
        <ele>639.70</ele>
        <time>2014-04-06T10:59:09Z</time>
      </trkpt>
      <trkpt lat="41.661660130" lon="2.551026690">
        <ele>639.50</ele>
        <time>2014-04-06T10:59:10Z</time>
      </trkpt>
      <trkpt lat="41.661683430" lon="2.550986800">
        <ele>639.30</ele>
        <time>2014-04-06T10:59:11Z</time>
      </trkpt>
      <trkpt lat="41.661706730" lon="2.550951760">
        <ele>639.30</ele>
        <time>2014-04-06T10:59:12Z</time>
      </trkpt>
      <trkpt lat="41.661723490" lon="2.550921750">
        <ele>639.20</ele>
        <time>2014-04-06T10:59:13Z</time>
      </trkpt>
      <trkpt lat="41.661733380" lon="2.550893420">
        <ele>639.00</ele>
        <time>2014-04-06T10:59:14Z</time>
      </trkpt>
      <trkpt lat="41.661738410" lon="2.550860060">
        <ele>638.80</ele>
        <time>2014-04-06T10:59:15Z</time>
      </trkpt>
      <trkpt lat="41.661746790" lon="2.550816810">
        <ele>638.90</ele>
        <time>2014-04-06T10:59:16Z</time>
      </trkpt>
      <trkpt lat="41.661763390" lon="2.550760150">
        <ele>639.00</ele>
        <time>2014-04-06T10:59:17Z</time>
      </trkpt>
      <trkpt lat="41.661781660" lon="2.550696780">
        <ele>639.00</ele>
        <time>2014-04-06T10:59:18Z</time>
      </trkpt>
      <trkpt lat="41.661800100" lon="2.550643470">
        <ele>638.70</ele>
        <time>2014-04-06T10:59:19Z</time>
      </trkpt>
      <trkpt lat="41.661820050" lon="2.550595030">
        <ele>638.50</ele>
        <time>2014-04-06T10:59:20Z</time>
      </trkpt>
      <trkpt lat="41.661843350" lon="2.550551770">
        <ele>638.50</ele>
        <time>2014-04-06T10:59:21Z</time>
      </trkpt>
      <trkpt lat="41.661858440" lon="2.550520090">
        <ele>638.50</ele>
        <time>2014-04-06T10:59:22Z</time>
      </trkpt>
      <trkpt lat="41.661868330" lon="2.550488410">
        <ele>638.60</ele>
        <time>2014-04-06T10:59:23Z</time>
      </trkpt>
      <trkpt lat="41.661876710" lon="2.550460080">
        <ele>638.40</ele>
        <time>2014-04-06T10:59:24Z</time>
      </trkpt>
      <trkpt lat="41.661891800" lon="2.550423360">
        <ele>638.40</ele>
        <time>2014-04-06T10:59:25Z</time>
      </trkpt>
      <trkpt lat="41.661903370" lon="2.550391680">
        <ele>638.30</ele>
        <time>2014-04-06T10:59:26Z</time>
      </trkpt>
      <trkpt lat="41.661911750" lon="2.550355140">
        <ele>638.20</ele>
        <time>2014-04-06T10:59:27Z</time>
      </trkpt>
      <trkpt lat="41.661923490" lon="2.550316750">
        <ele>638.10</ele>
        <time>2014-04-06T10:59:28Z</time>
      </trkpt>
      <trkpt lat="41.661941760" lon="2.550275000">
        <ele>638.10</ele>
        <time>2014-04-06T10:59:29Z</time>
      </trkpt>
      <trkpt lat="41.661966740" lon="2.550228400">
        <ele>638.10</ele>
        <time>2014-04-06T10:59:30Z</time>
      </trkpt>
      <trkpt lat="41.661996740" lon="2.550183470">
        <ele>637.60</ele>
        <time>2014-04-06T10:59:31Z</time>
      </trkpt>
      <trkpt lat="41.662030100" lon="2.550140060">
        <ele>637.30</ele>
        <time>2014-04-06T10:59:32Z</time>
      </trkpt>
      <trkpt lat="41.662063460" lon="2.550105020">
        <ele>637.20</ele>
        <time>2014-04-06T10:59:33Z</time>
      </trkpt>
      <trkpt lat="41.662105040" lon="2.550063440">
        <ele>637.00</ele>
        <time>2014-04-06T10:59:34Z</time>
      </trkpt>
      <trkpt lat="41.662148460" lon="2.550020030">
        <ele>636.40</ele>
        <time>2014-04-06T10:59:35Z</time>
      </trkpt>
      <trkpt lat="41.662193380" lon="2.549978450">
        <ele>636.00</ele>
        <time>2014-04-06T10:59:36Z</time>
      </trkpt>
      <trkpt lat="41.662236800" lon="2.549933360">
        <ele>635.60</ele>
        <time>2014-04-06T10:59:37Z</time>
      </trkpt>
      <trkpt lat="41.662280050" lon="2.549886750">
        <ele>634.80</ele>
        <time>2014-04-06T10:59:38Z</time>
      </trkpt>
      <trkpt lat="41.662321790" lon="2.549840150">
        <ele>634.20</ele>
        <time>2014-04-06T10:59:39Z</time>
      </trkpt>
      <trkpt lat="41.662361690" lon="2.549795060">
        <ele>633.60</ele>
        <time>2014-04-06T10:59:40Z</time>
      </trkpt>
      <trkpt lat="41.662401760" lon="2.549756670">
        <ele>633.20</ele>
        <time>2014-04-06T10:59:41Z</time>
      </trkpt>
      <trkpt lat="41.662435120" lon="2.549718450">
        <ele>632.80</ele>
        <time>2014-04-06T10:59:42Z</time>
      </trkpt>
      <trkpt lat="41.662466800" lon="2.549676700">
        <ele>632.20</ele>
        <time>2014-04-06T10:59:43Z</time>
      </trkpt>
      <trkpt lat="41.662488430" lon="2.549628420">
        <ele>631.80</ele>
        <time>2014-04-06T10:59:44Z</time>
      </trkpt>
      <trkpt lat="41.662506700" lon="2.549568410">
        <ele>631.40</ele>
        <time>2014-04-06T10:59:45Z</time>
      </trkpt>
      <trkpt lat="41.662518430" lon="2.549511750">
        <ele>631.10</ele>
        <time>2014-04-06T10:59:46Z</time>
      </trkpt>
      <trkpt lat="41.662525140" lon="2.549456760">
        <ele>630.30</ele>
        <time>2014-04-06T10:59:47Z</time>
      </trkpt>
      <trkpt lat="41.662530000" lon="2.549401780">
        <ele>629.70</ele>
        <time>2014-04-06T10:59:48Z</time>
      </trkpt>
      <trkpt lat="41.662536710" lon="2.549341760">
        <ele>629.20</ele>
        <time>2014-04-06T10:59:49Z</time>
      </trkpt>
      <trkpt lat="41.662540060" lon="2.549285100">
        <ele>628.40</ele>
        <time>2014-04-06T10:59:50Z</time>
      </trkpt>
      <trkpt lat="41.662545090" lon="2.549228440">
        <ele>627.80</ele>
        <time>2014-04-06T10:59:51Z</time>
      </trkpt>
      <trkpt lat="41.662551790" lon="2.549168430">
        <ele>627.10</ele>
        <time>2014-04-06T10:59:52Z</time>
      </trkpt>
      <trkpt lat="41.662558330" lon="2.549111760">
        <ele>626.60</ele>
        <time>2014-04-06T10:59:53Z</time>
      </trkpt>
      <trkpt lat="41.662570070" lon="2.549055100">
        <ele>625.60</ele>
        <time>2014-04-06T10:59:54Z</time>
      </trkpt>
      <trkpt lat="41.662578450" lon="2.548993410">
        <ele>624.90</ele>
        <time>2014-04-06T10:59:55Z</time>
      </trkpt>
      <trkpt lat="41.662590010" lon="2.548935070">
        <ele>624.30</ele>
        <time>2014-04-06T10:59:56Z</time>
      </trkpt>
      <trkpt lat="41.662603430" lon="2.548876740">
        <ele>623.30</ele>
        <time>2014-04-06T10:59:57Z</time>
      </trkpt>
      <trkpt lat="41.662615160" lon="2.548815040">
        <ele>622.60</ele>
        <time>2014-04-06T10:59:58Z</time>
      </trkpt>
      <trkpt lat="41.662631760" lon="2.548746820">
        <ele>622.00</ele>
        <time>2014-04-06T10:59:59Z</time>
      </trkpt>
      <trkpt lat="41.662646680" lon="2.548668360">
        <ele>621.50</ele>
        <time>2014-04-06T11:00:00Z</time>
      </trkpt>
      <trkpt lat="41.662665120" lon="2.548600130">
        <ele>621.20</ele>
        <time>2014-04-06T11:00:01Z</time>
      </trkpt>
      <trkpt lat="41.662685070" lon="2.548533410">
        <ele>620.30</ele>
        <time>2014-04-06T11:00:02Z</time>
      </trkpt>
      <trkpt lat="41.662701830" lon="2.548468370">
        <ele>619.70</ele>
        <time>2014-04-06T11:00:03Z</time>
      </trkpt>
      <trkpt lat="41.662718430" lon="2.548405000">
        <ele>619.00</ele>
        <time>2014-04-06T11:00:04Z</time>
      </trkpt>
      <trkpt lat="41.662736700" lon="2.548343480">
        <ele>618.40</ele>
        <time>2014-04-06T11:00:05Z</time>
      </trkpt>
      <trkpt lat="41.662750110" lon="2.548293350">
        <ele>617.60</ele>
        <time>2014-04-06T11:00:06Z</time>
      </trkpt>
      <trkpt lat="41.662760000" lon="2.548241720">
        <ele>617.00</ele>
        <time>2014-04-06T11:00:07Z</time>
      </trkpt>
      <trkpt lat="41.662766700" lon="2.548196800">
        <ele>616.50</ele>
        <time>2014-04-06T11:00:08Z</time>
      </trkpt>
      <trkpt lat="41.662771730" lon="2.548153380">
        <ele>615.80</ele>
        <time>2014-04-06T11:00:09Z</time>
      </trkpt>
      <trkpt lat="41.662776760" lon="2.548113480">
        <ele>615.30</ele>
        <time>2014-04-06T11:00:10Z</time>
      </trkpt>
      <trkpt lat="41.662783470" lon="2.548078440">
        <ele>615.00</ele>
        <time>2014-04-06T11:00:11Z</time>
      </trkpt>
      <trkpt lat="41.662791680" lon="2.548050110">
        <ele>614.70</ele>
        <time>2014-04-06T11:00:12Z</time>
      </trkpt>
      <trkpt lat="41.662796710" lon="2.548026810">
        <ele>614.60</ele>
        <time>2014-04-06T11:00:13Z</time>
      </trkpt>
      <trkpt lat="41.662800060" lon="2.548003340">
        <ele>614.50</ele>
        <time>2014-04-06T11:00:14Z</time>
      </trkpt>
      <trkpt lat="41.662800060" lon="2.547985070">
        <ele>614.40</ele>
        <time>2014-04-06T11:00:15Z</time>
      </trkpt>
      <trkpt lat="41.662800060" lon="2.547975010">
        <ele>613.90</ele>
        <time>2014-04-06T11:00:16Z</time>
      </trkpt>
      <trkpt lat="41.662801740" lon="2.547968470">
        <ele>613.60</ele>
        <time>2014-04-06T11:00:17Z</time>
      </trkpt>
      <trkpt lat="41.662801740" lon="2.547961770">
        <ele>613.20</ele>
        <time>2014-04-06T11:00:18Z</time>
      </trkpt>
      <trkpt lat="41.662803420" lon="2.547955060">
        <ele>613.00</ele>
        <time>2014-04-06T11:00:19Z</time>
      </trkpt>
      <trkpt lat="41.662803420" lon="2.547950030">
        <ele>612.80</ele>
        <time>2014-04-06T11:00:20Z</time>
      </trkpt>
      <trkpt lat="41.662803420" lon="2.547941820">
        <ele>612.50</ele>
        <time>2014-04-06T11:00:21Z</time>
      </trkpt>
      <trkpt lat="41.662801740" lon="2.547931760">
        <ele>612.30</ele>
        <time>2014-04-06T11:00:22Z</time>
      </trkpt>
      <trkpt lat="41.662798390" lon="2.547916670">
        <ele>612.20</ele>
        <time>2014-04-06T11:00:23Z</time>
      </trkpt>
      <trkpt lat="41.662795040" lon="2.547903430">
        <ele>612.10</ele>
        <time>2014-04-06T11:00:24Z</time>
      </trkpt>
      <trkpt lat="41.662786820" lon="2.547890020">
        <ele>611.60</ele>
        <time>2014-04-06T11:00:25Z</time>
      </trkpt>
      <trkpt lat="41.662776760" lon="2.547873420">
        <ele>611.20</ele>
        <time>2014-04-06T11:00:26Z</time>
      </trkpt>
      <trkpt lat="41.662761680" lon="2.547858330">
        <ele>611.00</ele>
        <time>2014-04-06T11:00:27Z</time>
      </trkpt>
      <trkpt lat="41.662745080" lon="2.547855150">
        <ele>611.10</ele>
        <time>2014-04-06T11:00:28Z</time>
      </trkpt>
      <trkpt lat="41.662726810" lon="2.547858330">
        <ele>611.30</ele>
        <time>2014-04-06T11:00:29Z</time>
      </trkpt>
      <trkpt lat="41.662710040" lon="2.547860010">
        <ele>610.70</ele>
        <time>2014-04-06T11:00:30Z</time>
      </trkpt>
      <trkpt lat="41.662686740" lon="2.547863360">
        <ele>610.30</ele>
        <time>2014-04-06T11:00:31Z</time>
      </trkpt>
      <trkpt lat="41.662663440" lon="2.547875100">
        <ele>609.60</ele>
        <time>2014-04-06T11:00:32Z</time>
      </trkpt>
      <trkpt lat="41.662638460" lon="2.547885160">
        <ele>609.10</ele>
        <time>2014-04-06T11:00:33Z</time>
      </trkpt>
      <trkpt lat="41.662613480" lon="2.547891690">
        <ele>608.70</ele>
        <time>2014-04-06T11:00:34Z</time>
      </trkpt>
      <trkpt lat="41.662586830" lon="2.547896720">
        <ele>608.80</ele>
        <time>2014-04-06T11:00:35Z</time>
      </trkpt>
      <trkpt lat="41.662558330" lon="2.547890020">
        <ele>608.80</ele>
        <time>2014-04-06T11:00:36Z</time>
      </trkpt>
      <trkpt lat="41.662531680" lon="2.547886660">
        <ele>608.50</ele>
        <time>2014-04-06T11:00:37Z</time>
      </trkpt>
      <trkpt lat="41.662498480" lon="2.547883480">
        <ele>608.30</ele>
        <time>2014-04-06T11:00:38Z</time>
      </trkpt>
      <trkpt lat="41.662460090" lon="2.547881800">
        <ele>608.00</ele>
        <time>2014-04-06T11:00:39Z</time>
      </trkpt>
      <trkpt lat="41.662421710" lon="2.547871740">
        <ele>607.70</ele>
        <time>2014-04-06T11:00:40Z</time>
      </trkpt>
      <trkpt lat="41.662381810" lon="2.547861690">
        <ele>607.50</ele>
        <time>2014-04-06T11:00:41Z</time>
      </trkpt>
      <trkpt lat="41.662341740" lon="2.547841740">
        <ele>607.00</ele>
        <time>2014-04-06T11:00:42Z</time>
      </trkpt>
      <trkpt lat="41.662296820" lon="2.547821790">
        <ele>606.50</ele>
        <time>2014-04-06T11:00:43Z</time>
      </trkpt>
      <trkpt lat="41.662250040" lon="2.547798490">
        <ele>606.00</ele>
        <time>2014-04-06T11:00:44Z</time>
      </trkpt>
      <trkpt lat="41.662201760" lon="2.547768480">
        <ele>605.60</ele>
        <time>2014-04-06T11:00:45Z</time>
      </trkpt>
      <trkpt lat="41.662155160" lon="2.547738470">
        <ele>605.30</ele>
        <time>2014-04-06T11:00:46Z</time>
      </trkpt>
      <trkpt lat="41.662108390" lon="2.547711820">
        <ele>605.10</ele>
        <time>2014-04-06T11:00:47Z</time>
      </trkpt>
      <trkpt lat="41.662061790" lon="2.547681810">
        <ele>605.00</ele>
        <time>2014-04-06T11:00:48Z</time>
      </trkpt>
      <trkpt lat="41.662015020" lon="2.547651800">
        <ele>604.90</ele>
        <time>2014-04-06T11:00:49Z</time>
      </trkpt>
      <trkpt lat="41.661968410" lon="2.547625150">
        <ele>604.80</ele>
        <time>2014-04-06T11:00:50Z</time>
      </trkpt>
      <trkpt lat="41.661918460" lon="2.547608390">
        <ele>604.50</ele>
        <time>2014-04-06T11:00:51Z</time>
      </trkpt>
      <trkpt lat="41.661870010" lon="2.547596820">
        <ele>604.30</ele>
        <time>2014-04-06T11:00:52Z</time>
      </trkpt>
      <trkpt lat="41.661821730" lon="2.547586760">
        <ele>604.10</ele>
        <time>2014-04-06T11:00:53Z</time>
      </trkpt>
      <trkpt lat="41.661775130" lon="2.547591790">
        <ele>604.00</ele>
        <time>2014-04-06T11:00:54Z</time>
      </trkpt>
      <trkpt lat="41.661736740" lon="2.547596820">
        <ele>603.90</ele>
        <time>2014-04-06T11:00:55Z</time>
      </trkpt>
      <trkpt lat="41.661701700" lon="2.547593470">
        <ele>603.90</ele>
        <time>2014-04-06T11:00:56Z</time>
      </trkpt>
      <trkpt lat="41.661668340" lon="2.547595140">
        <ele>603.90</ele>
        <time>2014-04-06T11:00:57Z</time>
      </trkpt>
      <trkpt lat="41.661638330" lon="2.547595140">
        <ele>604.00</ele>
        <time>2014-04-06T11:00:58Z</time>
      </trkpt>
      <trkpt lat="41.661610000" lon="2.547593470">
        <ele>603.60</ele>
        <time>2014-04-06T11:00:59Z</time>
      </trkpt>
      <trkpt lat="41.661586700" lon="2.547590110">
        <ele>603.20</ele>
        <time>2014-04-06T11:01:00Z</time>
      </trkpt>
      <trkpt lat="41.661558370" lon="2.547586760">
        <ele>603.00</ele>
        <time>2014-04-06T11:01:01Z</time>
      </trkpt>
      <trkpt lat="41.661530040" lon="2.547583410">
        <ele>602.80</ele>
        <time>2014-04-06T11:01:02Z</time>
      </trkpt>
      <trkpt lat="41.661496680" lon="2.547580050">
        <ele>602.80</ele>
        <time>2014-04-06T11:01:03Z</time>
      </trkpt>
      <trkpt lat="41.661456780" lon="2.547581730">
        <ele>602.80</ele>
        <time>2014-04-06T11:01:04Z</time>
      </trkpt>
      <trkpt lat="41.661415040" lon="2.547580050">
        <ele>602.80</ele>
        <time>2014-04-06T11:01:05Z</time>
      </trkpt>
      <trkpt lat="41.661375140" lon="2.547585080">
        <ele>602.90</ele>
        <time>2014-04-06T11:01:06Z</time>
      </trkpt>
      <trkpt lat="41.661340110" lon="2.547588440">
        <ele>603.00</ele>
        <time>2014-04-06T11:01:07Z</time>
      </trkpt>
      <trkpt lat="41.661301720" lon="2.547595140">
        <ele>602.90</ele>
        <time>2014-04-06T11:01:08Z</time>
      </trkpt>
      <trkpt lat="41.661266680" lon="2.547600000">
        <ele>602.70</ele>
        <time>2014-04-06T11:01:09Z</time>
      </trkpt>
      <trkpt lat="41.661228460" lon="2.547608390">
        <ele>602.50</ele>
        <time>2014-04-06T11:01:10Z</time>
      </trkpt>
      <trkpt lat="41.661188390" lon="2.547620120">
        <ele>602.30</ele>
        <time>2014-04-06T11:01:11Z</time>
      </trkpt>
      <trkpt lat="41.661150000" lon="2.547631690">
        <ele>602.20</ele>
        <time>2014-04-06T11:01:12Z</time>
      </trkpt>
      <trkpt lat="41.661111780" lon="2.547635040">
        <ele>601.70</ele>
        <time>2014-04-06T11:01:13Z</time>
      </trkpt>
      <trkpt lat="41.661075070" lon="2.547636720">
        <ele>601.40</ele>
        <time>2014-04-06T11:01:14Z</time>
      </trkpt>
      <trkpt lat="41.661043390" lon="2.547640070">
        <ele>600.50</ele>
        <time>2014-04-06T11:01:15Z</time>
      </trkpt>
      <trkpt lat="41.661010030" lon="2.547646770">
        <ele>599.90</ele>
        <time>2014-04-06T11:01:16Z</time>
      </trkpt>
      <trkpt lat="41.660976670" lon="2.547656670">
        <ele>599.50</ele>
        <time>2014-04-06T11:01:17Z</time>
      </trkpt>
      <trkpt lat="41.660941800" lon="2.547665050">
        <ele>599.20</ele>
        <time>2014-04-06T11:01:18Z</time>
      </trkpt>
      <trkpt lat="41.660906760" lon="2.547668400">
        <ele>599.00</ele>
        <time>2014-04-06T11:01:19Z</time>
      </trkpt>
      <trkpt lat="41.660868370" lon="2.547671750">
        <ele>598.60</ele>
        <time>2014-04-06T11:01:20Z</time>
      </trkpt>
      <trkpt lat="41.660830150" lon="2.547676780">
        <ele>598.40</ele>
        <time>2014-04-06T11:01:21Z</time>
      </trkpt>
      <trkpt lat="41.660795110" lon="2.547680130">
        <ele>598.20</ele>
        <time>2014-04-06T11:01:22Z</time>
      </trkpt>
      <trkpt lat="41.660758400" lon="2.547686670">
        <ele>598.10</ele>
        <time>2014-04-06T11:01:23Z</time>
      </trkpt>
      <trkpt lat="41.660725040" lon="2.547688350">
        <ele>598.00</ele>
        <time>2014-04-06T11:01:24Z</time>
      </trkpt>
      <trkpt lat="41.660691680" lon="2.547688350">
        <ele>597.60</ele>
        <time>2014-04-06T11:01:25Z</time>
      </trkpt>
      <trkpt lat="41.660660000" lon="2.547690030">
        <ele>597.20</ele>
        <time>2014-04-06T11:01:26Z</time>
      </trkpt>
      <trkpt lat="41.660626810" lon="2.547683490">
        <ele>596.70</ele>
        <time>2014-04-06T11:01:27Z</time>
      </trkpt>
      <trkpt lat="41.660596800" lon="2.547675110">
        <ele>596.20</ele>
        <time>2014-04-06T11:01:28Z</time>
      </trkpt>
      <trkpt lat="41.660566790" lon="2.547673430">
        <ele>595.50</ele>
        <time>2014-04-06T11:01:29Z</time>
      </trkpt>
      <trkpt lat="41.660538460" lon="2.547675110">
        <ele>595.10</ele>
        <time>2014-04-06T11:01:30Z</time>
      </trkpt>
      <trkpt lat="41.660508450" lon="2.547676780">
        <ele>594.70</ele>
        <time>2014-04-06T11:01:31Z</time>
      </trkpt>
      <trkpt lat="41.660481800" lon="2.547675110">
        <ele>594.30</ele>
        <time>2014-04-06T11:01:32Z</time>
      </trkpt>
      <trkpt lat="41.660456820" lon="2.547673430">
        <ele>594.00</ele>
        <time>2014-04-06T11:01:33Z</time>
      </trkpt>
      <trkpt lat="41.660436700" lon="2.547663370">
        <ele>593.70</ele>
        <time>2014-04-06T11:01:34Z</time>
      </trkpt>
      <trkpt lat="41.660423460" lon="2.547646770">
        <ele>593.50</ele>
        <time>2014-04-06T11:01:35Z</time>
      </trkpt>
      <trkpt lat="41.660416750" lon="2.547620120">
        <ele>593.30</ele>
        <time>2014-04-06T11:01:36Z</time>
      </trkpt>
      <trkpt lat="41.660405020" lon="2.547590110">
        <ele>593.30</ele>
        <time>2014-04-06T11:01:37Z</time>
      </trkpt>
      <trkpt lat="41.660390100" lon="2.547566810">
        <ele>593.20</ele>
        <time>2014-04-06T11:01:38Z</time>
      </trkpt>
      <trkpt lat="41.660371830" lon="2.547545020">
        <ele>592.90</ele>
        <time>2014-04-06T11:01:39Z</time>
      </trkpt>
      <trkpt lat="41.660353390" lon="2.547526750">
        <ele>592.60</ele>
        <time>2014-04-06T11:01:40Z</time>
      </trkpt>
      <trkpt lat="41.660335110" lon="2.547510150">
        <ele>592.00</ele>
        <time>2014-04-06T11:01:41Z</time>
      </trkpt>
      <trkpt lat="41.660318350" lon="2.547493390">
        <ele>591.60</ele>
        <time>2014-04-06T11:01:42Z</time>
      </trkpt>
      <trkpt lat="41.660308460" lon="2.547483500">
        <ele>591.20</ele>
        <time>2014-04-06T11:01:43Z</time>
      </trkpt>
      <trkpt lat="41.660305110" lon="2.547483500">
        <ele>591.00</ele>
        <time>2014-04-06T11:01:44Z</time>
      </trkpt>
      <trkpt lat="41.660298400" lon="2.547480140">
        <ele>590.90</ele>
        <time>2014-04-06T11:01:45Z</time>
      </trkpt>
      <trkpt lat="41.660288340" lon="2.547470080">
        <ele>590.90</ele>
        <time>2014-04-06T11:01:46Z</time>
      </trkpt>
      <trkpt lat="41.660273420" lon="2.547463380">
        <ele>591.00</ele>
        <time>2014-04-06T11:01:47Z</time>
      </trkpt>
      <trkpt lat="41.660256830" lon="2.547456670">
        <ele>590.40</ele>
        <time>2014-04-06T11:01:48Z</time>
      </trkpt>
      <trkpt lat="41.660238390" lon="2.547448460">
        <ele>590.00</ele>
        <time>2014-04-06T11:01:49Z</time>
      </trkpt>
      <trkpt lat="41.660221790" lon="2.547445110">
        <ele>589.60</ele>
        <time>2014-04-06T11:01:50Z</time>
      </trkpt>
      <trkpt lat="41.660200000" lon="2.547443430">
        <ele>588.90</ele>
        <time>2014-04-06T11:01:51Z</time>
      </trkpt>
      <trkpt lat="41.660181730" lon="2.547436720">
        <ele>588.40</ele>
        <time>2014-04-06T11:01:52Z</time>
      </trkpt>
      <trkpt lat="41.660160100" lon="2.547428340">
        <ele>587.50</ele>
        <time>2014-04-06T11:01:53Z</time>
      </trkpt>
      <trkpt lat="41.660140150" lon="2.547420130">
        <ele>586.90</ele>
        <time>2014-04-06T11:01:54Z</time>
      </trkpt>
      <trkpt lat="41.660118360" lon="2.547418450">
        <ele>586.40</ele>
        <time>2014-04-06T11:01:55Z</time>
      </trkpt>
      <trkpt lat="41.660098410" lon="2.547421800">
        <ele>586.00</ele>
        <time>2014-04-06T11:01:56Z</time>
      </trkpt>
      <trkpt lat="41.660081810" lon="2.547428340">
        <ele>585.70</ele>
        <time>2014-04-06T11:01:57Z</time>
      </trkpt>
      <trkpt lat="41.660066730" lon="2.547440080">
        <ele>585.00</ele>
        <time>2014-04-06T11:01:58Z</time>
      </trkpt>
      <trkpt lat="41.660053480" lon="2.547451810">
        <ele>584.40</ele>
        <time>2014-04-06T11:01:59Z</time>
      </trkpt>
      <trkpt lat="41.660043420" lon="2.547468410">
        <ele>584.00</ele>
        <time>2014-04-06T11:02:00Z</time>
      </trkpt>
      <trkpt lat="41.660031690" lon="2.547486680">
        <ele>583.60</ele>
        <time>2014-04-06T11:02:01Z</time>
      </trkpt>
      <trkpt lat="41.660021800" lon="2.547501770">
        <ele>583.40</ele>
        <time>2014-04-06T11:02:02Z</time>
      </trkpt>
      <trkpt lat="41.660020120" lon="2.547510150">
        <ele>582.90</ele>
        <time>2014-04-06T11:02:03Z</time>
      </trkpt>
      <trkpt lat="41.660018450" lon="2.547511830">
        <ele>582.50</ele>
        <time>2014-04-06T11:02:04Z</time>
      </trkpt>
      <trkpt lat="41.660015090" lon="2.547511830">
        <ele>581.60</ele>
        <time>2014-04-06T11:02:05Z</time>
      </trkpt>
      <trkpt lat="41.660013420" lon="2.547513330">
        <ele>580.90</ele>
        <time>2014-04-06T11:02:06Z</time>
      </trkpt>
      <trkpt lat="41.660008390" lon="2.547518360">
        <ele>580.50</ele>
        <time>2014-04-06T11:02:07Z</time>
      </trkpt>
      <trkpt lat="41.660003360" lon="2.547523390">
        <ele>580.10</ele>
        <time>2014-04-06T11:02:08Z</time>
      </trkpt>
      <trkpt lat="41.659998330" lon="2.547526750">
        <ele>579.90</ele>
        <time>2014-04-06T11:02:09Z</time>
      </trkpt>
      <trkpt lat="41.659993470" lon="2.547533450">
        <ele>579.40</ele>
        <time>2014-04-06T11:02:10Z</time>
      </trkpt>
      <trkpt lat="41.659986760" lon="2.547536800">
        <ele>579.10</ele>
        <time>2014-04-06T11:02:11Z</time>
      </trkpt>
      <trkpt lat="41.659981730" lon="2.547541670">
        <ele>578.90</ele>
        <time>2014-04-06T11:02:12Z</time>
      </trkpt>
      <trkpt lat="41.659976700" lon="2.547546690">
        <ele>578.80</ele>
        <time>2014-04-06T11:02:13Z</time>
      </trkpt>
      <trkpt lat="41.659973350" lon="2.547553400">
        <ele>578.70</ele>
        <time>2014-04-06T11:02:14Z</time>
      </trkpt>
      <trkpt lat="41.659970000" lon="2.547558430">
        <ele>578.40</ele>
        <time>2014-04-06T11:02:15Z</time>
      </trkpt>
      <trkpt lat="41.659965140" lon="2.547561780">
        <ele>578.30</ele>
        <time>2014-04-06T11:02:16Z</time>
      </trkpt>
      <trkpt lat="41.659961780" lon="2.547563460">
        <ele>577.90</ele>
        <time>2014-04-06T11:02:17Z</time>
      </trkpt>
      <trkpt lat="41.659958430" lon="2.547570000">
        <ele>577.70</ele>
        <time>2014-04-06T11:02:18Z</time>
      </trkpt>
      <trkpt lat="41.659958430" lon="2.547575030">
        <ele>577.50</ele>
        <time>2014-04-06T11:02:19Z</time>
      </trkpt>
      <trkpt lat="41.659955080" lon="2.547580050">
        <ele>577.40</ele>
        <time>2014-04-06T11:02:20Z</time>
      </trkpt>
      <trkpt lat="41.659951730" lon="2.547588440">
        <ele>577.30</ele>
        <time>2014-04-06T11:02:21Z</time>
      </trkpt>
      <trkpt lat="41.659950050" lon="2.547595140">
        <ele>577.00</ele>
        <time>2014-04-06T11:02:22Z</time>
      </trkpt>
      <trkpt lat="41.659946700" lon="2.547600000">
        <ele>576.80</ele>
        <time>2014-04-06T11:02:23Z</time>
      </trkpt>
      <trkpt lat="41.659943340" lon="2.547606710">
        <ele>576.60</ele>
        <time>2014-04-06T11:02:24Z</time>
      </trkpt>
      <trkpt lat="41.659941670" lon="2.547610060">
        <ele>576.40</ele>
        <time>2014-04-06T11:02:25Z</time>
      </trkpt>
      <trkpt lat="41.659940160" lon="2.547615090">
        <ele>576.40</ele>
        <time>2014-04-06T11:02:26Z</time>
      </trkpt>
      <trkpt lat="41.659938480" lon="2.547620120">
        <ele>576.40</ele>
        <time>2014-04-06T11:02:27Z</time>
      </trkpt>
      <trkpt lat="41.659935130" lon="2.547626830">
        <ele>576.40</ele>
        <time>2014-04-06T11:02:28Z</time>
      </trkpt>
      <trkpt lat="41.659933450" lon="2.547631690">
        <ele>576.10</ele>
        <time>2014-04-06T11:02:29Z</time>
      </trkpt>
      <trkpt lat="41.659931780" lon="2.547635040">
        <ele>575.90</ele>
        <time>2014-04-06T11:02:30Z</time>
      </trkpt>
      <trkpt lat="41.659930100" lon="2.547636720">
        <ele>575.50</ele>
        <time>2014-04-06T11:02:31Z</time>
      </trkpt>
      <trkpt lat="41.659928420" lon="2.547640070">
        <ele>575.20</ele>
        <time>2014-04-06T11:02:32Z</time>
      </trkpt>
      <trkpt lat="41.659928420" lon="2.547638390">
        <ele>574.90</ele>
        <time>2014-04-06T11:02:33Z</time>
      </trkpt>
      <trkpt lat="41.659928420" lon="2.547640070">
        <ele>574.70</ele>
        <time>2014-04-06T11:02:34Z</time>
      </trkpt>
      <trkpt lat="41.659928420" lon="2.547643420">
        <ele>574.60</ele>
        <time>2014-04-06T11:02:35Z</time>
      </trkpt>
      <trkpt lat="41.659926750" lon="2.547643420">
        <ele>574.40</ele>
        <time>2014-04-06T11:02:36Z</time>
      </trkpt>
      <trkpt lat="41.659926750" lon="2.547643420">
        <ele>574.30</ele>
        <time>2014-04-06T11:02:37Z</time>
      </trkpt>
      <trkpt lat="41.659925070" lon="2.547645100">
        <ele>573.70</ele>
        <time>2014-04-06T11:02:38Z</time>
      </trkpt>
      <trkpt lat="41.659923400" lon="2.547648450">
        <ele>573.20</ele>
        <time>2014-04-06T11:02:39Z</time>
      </trkpt>
      <trkpt lat="41.659921720" lon="2.547650130">
        <ele>572.80</ele>
        <time>2014-04-06T11:02:40Z</time>
      </trkpt>
      <trkpt lat="41.659920040" lon="2.547653480">
        <ele>572.90</ele>
        <time>2014-04-06T11:02:41Z</time>
      </trkpt>
      <trkpt lat="41.659916690" lon="2.547660020">
        <ele>572.90</ele>
        <time>2014-04-06T11:02:42Z</time>
      </trkpt>
      <trkpt lat="41.659913340" lon="2.547665050">
        <ele>572.40</ele>
        <time>2014-04-06T11:02:43Z</time>
      </trkpt>
      <trkpt lat="41.659908480" lon="2.547668400">
        <ele>572.10</ele>
        <time>2014-04-06T11:02:44Z</time>
      </trkpt>
      <trkpt lat="41.659901770" lon="2.547675110">
        <ele>571.60</ele>
        <time>2014-04-06T11:02:45Z</time>
      </trkpt>
      <trkpt lat="41.659898420" lon="2.547678460">
        <ele>571.30</ele>
        <time>2014-04-06T11:02:46Z</time>
      </trkpt>
      <trkpt lat="41.659896740" lon="2.547685000">
        <ele>571.00</ele>
        <time>2014-04-06T11:02:47Z</time>
      </trkpt>
      <trkpt lat="41.659890040" lon="2.547691700">
        <ele>571.00</ele>
        <time>2014-04-06T11:02:48Z</time>
      </trkpt>
      <trkpt lat="41.659886680" lon="2.547698410">
        <ele>570.90</ele>
        <time>2014-04-06T11:02:49Z</time>
      </trkpt>
      <trkpt lat="41.659883330" lon="2.547706790">
        <ele>571.20</ele>
        <time>2014-04-06T11:02:50Z</time>
      </trkpt>
      <trkpt lat="41.659878470" lon="2.547713490">
        <ele>571.40</ele>
        <time>2014-04-06T11:02:51Z</time>
      </trkpt>
      <trkpt lat="41.659875120" lon="2.547721710">
        <ele>571.50</ele>
        <time>2014-04-06T11:02:52Z</time>
      </trkpt>
      <trkpt lat="41.659873440" lon="2.547726740">
        <ele>571.50</ele>
        <time>2014-04-06T11:02:53Z</time>
      </trkpt>
      <trkpt lat="41.659868410" lon="2.547731770">
        <ele>571.50</ele>
        <time>2014-04-06T11:02:54Z</time>
      </trkpt>
      <trkpt lat="41.659865060" lon="2.547735120">
        <ele>571.40</ele>
        <time>2014-04-06T11:02:55Z</time>
      </trkpt>
      <trkpt lat="41.659861700" lon="2.547743330">
        <ele>571.30</ele>
        <time>2014-04-06T11:02:56Z</time>
      </trkpt>
      <trkpt lat="41.659858350" lon="2.547753390">
        <ele>570.90</ele>
        <time>2014-04-06T11:02:57Z</time>
      </trkpt>
      <trkpt lat="41.659855000" lon="2.547765130">
        <ele>570.70</ele>
        <time>2014-04-06T11:02:58Z</time>
      </trkpt>
      <trkpt lat="41.659850140" lon="2.547775020">
        <ele>570.50</ele>
        <time>2014-04-06T11:02:59Z</time>
      </trkpt>
      <trkpt lat="41.659843430" lon="2.547783400">
        <ele>570.70</ele>
        <time>2014-04-06T11:03:00Z</time>
      </trkpt>
      <trkpt lat="41.659840080" lon="2.547791780">
        <ele>571.00</ele>
        <time>2014-04-06T11:03:01Z</time>
      </trkpt>
      <trkpt lat="41.659833370" lon="2.547798490">
        <ele>570.40</ele>
        <time>2014-04-06T11:03:02Z</time>
      </trkpt>
      <trkpt lat="41.659826670" lon="2.547805020">
        <ele>570.00</ele>
        <time>2014-04-06T11:03:03Z</time>
      </trkpt>
      <trkpt lat="41.659823480" lon="2.547811730">
        <ele>569.60</ele>
        <time>2014-04-06T11:03:04Z</time>
      </trkpt>
      <trkpt lat="41.659818450" lon="2.547818440">
        <ele>569.30</ele>
        <time>2014-04-06T11:03:05Z</time>
      </trkpt>
      <trkpt lat="41.659815100" lon="2.547825140">
        <ele>569.10</ele>
        <time>2014-04-06T11:03:06Z</time>
      </trkpt>
      <trkpt lat="41.659811750" lon="2.547831680">
        <ele>568.70</ele>
        <time>2014-04-06T11:03:07Z</time>
      </trkpt>
      <trkpt lat="41.659806720" lon="2.547840060">
        <ele>568.50</ele>
        <time>2014-04-06T11:03:08Z</time>
      </trkpt>
      <trkpt lat="41.659800010" lon="2.547848440">
        <ele>568.20</ele>
        <time>2014-04-06T11:03:09Z</time>
      </trkpt>
      <trkpt lat="41.659793480" lon="2.547856830">
        <ele>568.10</ele>
        <time>2014-04-06T11:03:10Z</time>
      </trkpt>
      <trkpt lat="41.659788450" lon="2.547863360">
        <ele>568.10</ele>
        <time>2014-04-06T11:03:11Z</time>
      </trkpt>
      <trkpt lat="41.659783420" lon="2.547870070">
        <ele>568.10</ele>
        <time>2014-04-06T11:03:12Z</time>
      </trkpt>
      <trkpt lat="41.659780070" lon="2.547873420">
        <ele>568.10</ele>
        <time>2014-04-06T11:03:13Z</time>
      </trkpt>
      <trkpt lat="41.659776710" lon="2.547878450">
        <ele>568.20</ele>
        <time>2014-04-06T11:03:14Z</time>
      </trkpt>
      <trkpt lat="41.659768330" lon="2.547880130">
        <ele>568.20</ele>
        <time>2014-04-06T11:03:15Z</time>
      </trkpt>
      <trkpt lat="41.659760120" lon="2.547883480">
        <ele>567.90</ele>
        <time>2014-04-06T11:03:16Z</time>
      </trkpt>
      <trkpt lat="41.659755090" lon="2.547891690">
        <ele>567.70</ele>
        <time>2014-04-06T11:03:17Z</time>
      </trkpt>
      <trkpt lat="41.659750060" lon="2.547898400">
        <ele>567.60</ele>
        <time>2014-04-06T11:03:18Z</time>
      </trkpt>
      <trkpt lat="41.659745030" lon="2.547905100">
        <ele>567.20</ele>
        <time>2014-04-06T11:03:19Z</time>
      </trkpt>
      <trkpt lat="41.659738490" lon="2.547910130">
        <ele>566.90</ele>
        <time>2014-04-06T11:03:20Z</time>
      </trkpt>
      <trkpt lat="41.659731790" lon="2.547916670">
        <ele>566.80</ele>
        <time>2014-04-06T11:03:21Z</time>
      </trkpt>
      <trkpt lat="41.659723400" lon="2.547925050">
        <ele>566.80</ele>
        <time>2014-04-06T11:03:22Z</time>
      </trkpt>
      <trkpt lat="41.659716700" lon="2.547933440">
        <ele>566.60</ele>
        <time>2014-04-06T11:03:23Z</time>
      </trkpt>
      <trkpt lat="41.659710160" lon="2.547941820">
        <ele>566.40</ele>
        <time>2014-04-06T11:03:24Z</time>
      </trkpt>
      <trkpt lat="41.659700100" lon="2.547950030">
        <ele>566.30</ele>
        <time>2014-04-06T11:03:25Z</time>
      </trkpt>
      <trkpt lat="41.659691720" lon="2.547960090">
        <ele>566.10</ele>
        <time>2014-04-06T11:03:26Z</time>
      </trkpt>
      <trkpt lat="41.659683340" lon="2.547968470">
        <ele>565.90</ele>
        <time>2014-04-06T11:03:27Z</time>
      </trkpt>
      <trkpt lat="41.659675120" lon="2.547978360">
        <ele>565.90</ele>
        <time>2014-04-06T11:03:28Z</time>
      </trkpt>
      <trkpt lat="41.659671770" lon="2.547985070">
        <ele>565.80</ele>
        <time>2014-04-06T11:03:29Z</time>
      </trkpt>
      <trkpt lat="41.659668420" lon="2.547991770">
        <ele>565.70</ele>
        <time>2014-04-06T11:03:30Z</time>
      </trkpt>
      <trkpt lat="41.659660040" lon="2.547996800">
        <ele>565.50</ele>
        <time>2014-04-06T11:03:31Z</time>
      </trkpt>
      <trkpt lat="41.659651820" lon="2.547996800">
        <ele>565.40</ele>
        <time>2014-04-06T11:03:32Z</time>
      </trkpt>
      <trkpt lat="41.659643440" lon="2.548000160">
        <ele>565.00</ele>
        <time>2014-04-06T11:03:33Z</time>
      </trkpt>
      <trkpt lat="41.659635060" lon="2.548005020">
        <ele>564.60</ele>
        <time>2014-04-06T11:03:34Z</time>
      </trkpt>
      <trkpt lat="41.659631710" lon="2.548008370">
        <ele>564.40</ele>
        <time>2014-04-06T11:03:35Z</time>
      </trkpt>
      <trkpt lat="41.659631710" lon="2.548011720">
        <ele>564.20</ele>
        <time>2014-04-06T11:03:36Z</time>
      </trkpt>
      <trkpt lat="41.659630030" lon="2.548011720">
        <ele>564.30</ele>
        <time>2014-04-06T11:03:37Z</time>
      </trkpt>
      <trkpt lat="41.659628350" lon="2.548013400">
        <ele>564.40</ele>
        <time>2014-04-06T11:03:38Z</time>
      </trkpt>
      <trkpt lat="41.659626680" lon="2.548013400">
        <ele>564.40</ele>
        <time>2014-04-06T11:03:39Z</time>
      </trkpt>
      <trkpt lat="41.659623490" lon="2.548013400">
        <ele>564.70</ele>
        <time>2014-04-06T11:03:40Z</time>
      </trkpt>
      <trkpt lat="41.659618460" lon="2.548013400">
        <ele>564.90</ele>
        <time>2014-04-06T11:03:41Z</time>
      </trkpt>
      <trkpt lat="41.659605050" lon="2.548015080">
        <ele>565.20</ele>
        <time>2014-04-06T11:03:42Z</time>
      </trkpt>
      <trkpt lat="41.659588450" lon="2.548016750">
        <ele>565.30</ele>
        <time>2014-04-06T11:03:43Z</time>
      </trkpt>
      <trkpt lat="41.659570010" lon="2.548020100">
        <ele>565.50</ele>
        <time>2014-04-06T11:03:44Z</time>
      </trkpt>
      <trkpt lat="41.659543360" lon="2.548023460">
        <ele>565.40</ele>
        <time>2014-04-06T11:03:45Z</time>
      </trkpt>
      <trkpt lat="41.659523410" lon="2.548030000">
        <ele>565.30</ele>
        <time>2014-04-06T11:03:46Z</time>
      </trkpt>
      <trkpt lat="41.659503460" lon="2.548030000">
        <ele>564.90</ele>
        <time>2014-04-06T11:03:47Z</time>
      </trkpt>
      <trkpt lat="41.659483350" lon="2.548028490">
        <ele>564.70</ele>
        <time>2014-04-06T11:03:48Z</time>
      </trkpt>
      <trkpt lat="41.659465070" lon="2.548020100">
        <ele>564.10</ele>
        <time>2014-04-06T11:03:49Z</time>
      </trkpt>
      <trkpt lat="41.659445120" lon="2.548008370">
        <ele>563.70</ele>
        <time>2014-04-06T11:03:50Z</time>
      </trkpt>
      <trkpt lat="41.659426680" lon="2.547996800">
        <ele>563.40</ele>
        <time>2014-04-06T11:03:51Z</time>
      </trkpt>
      <trkpt lat="41.659403380" lon="2.547985070">
        <ele>563.30</ele>
        <time>2014-04-06T11:03:52Z</time>
      </trkpt>
      <trkpt lat="41.659378400" lon="2.547971820">
        <ele>563.20</ele>
        <time>2014-04-06T11:03:53Z</time>
      </trkpt>
      <trkpt lat="41.659353430" lon="2.547955060">
        <ele>562.90</ele>
        <time>2014-04-06T11:03:54Z</time>
      </trkpt>
      <trkpt lat="41.659328450" lon="2.547936790">
        <ele>562.70</ele>
        <time>2014-04-06T11:03:55Z</time>
      </trkpt>
      <trkpt lat="41.659305150" lon="2.547915000">
        <ele>562.60</ele>
        <time>2014-04-06T11:03:56Z</time>
      </trkpt>
      <trkpt lat="41.659280000" lon="2.547893370">
        <ele>562.00</ele>
        <time>2014-04-06T11:03:57Z</time>
      </trkpt>
      <trkpt lat="41.659253350" lon="2.547873420">
        <ele>561.90</ele>
        <time>2014-04-06T11:03:58Z</time>
      </trkpt>
      <trkpt lat="41.659231720" lon="2.547851800">
        <ele>561.80</ele>
        <time>2014-04-06T11:03:59Z</time>
      </trkpt>
      <trkpt lat="41.659208420" lon="2.547833360">
        <ele>561.80</ele>
        <time>2014-04-06T11:04:00Z</time>
      </trkpt>
      <trkpt lat="41.659186790" lon="2.547820110">
        <ele>561.10</ele>
        <time>2014-04-06T11:04:01Z</time>
      </trkpt>
      <trkpt lat="41.659163490" lon="2.547815080">
        <ele>560.50</ele>
        <time>2014-04-06T11:04:02Z</time>
      </trkpt>
      <trkpt lat="41.659133490" lon="2.547813410">
        <ele>560.10</ele>
        <time>2014-04-06T11:04:03Z</time>
      </trkpt>
      <trkpt lat="41.659101800" lon="2.547811730">
        <ele>559.80</ele>
        <time>2014-04-06T11:04:04Z</time>
      </trkpt>
      <trkpt lat="41.659070120" lon="2.547808380">
        <ele>559.60</ele>
        <time>2014-04-06T11:04:05Z</time>
      </trkpt>
      <trkpt lat="41.659040110" lon="2.547806700">
        <ele>559.10</ele>
        <time>2014-04-06T11:04:06Z</time>
      </trkpt>
      <trkpt lat="41.659010100" lon="2.547803350">
        <ele>558.80</ele>
        <time>2014-04-06T11:04:07Z</time>
      </trkpt>
      <trkpt lat="41.658976740" lon="2.547801670">
        <ele>558.30</ele>
        <time>2014-04-06T11:04:08Z</time>
      </trkpt>
      <trkpt lat="41.658943380" lon="2.547800000">
        <ele>558.00</ele>
        <time>2014-04-06T11:04:09Z</time>
      </trkpt>
      <trkpt lat="41.658911700" lon="2.547791780">
        <ele>557.70</ele>
        <time>2014-04-06T11:04:10Z</time>
      </trkpt>
      <trkpt lat="41.658878340" lon="2.547786750">
        <ele>557.40</ele>
        <time>2014-04-06T11:04:11Z</time>
      </trkpt>
      <trkpt lat="41.658850010" lon="2.547780050">
        <ele>557.10</ele>
        <time>2014-04-06T11:04:12Z</time>
      </trkpt>
      <trkpt lat="41.658825030" lon="2.547773340">
        <ele>557.20</ele>
        <time>2014-04-06T11:04:13Z</time>
      </trkpt>
      <trkpt lat="41.658805080" lon="2.547768480">
        <ele>557.20</ele>
        <time>2014-04-06T11:04:14Z</time>
      </trkpt>
      <trkpt lat="41.658788490" lon="2.547763450">
        <ele>557.20</ele>
        <time>2014-04-06T11:04:15Z</time>
      </trkpt>
      <trkpt lat="41.658771720" lon="2.547756750">
        <ele>556.90</ele>
        <time>2014-04-06T11:04:16Z</time>
      </trkpt>
      <trkpt lat="41.658755130" lon="2.547748360">
        <ele>556.70</ele>
        <time>2014-04-06T11:04:17Z</time>
      </trkpt>
      <trkpt lat="41.658738360" lon="2.547735120">
        <ele>556.30</ele>
        <time>2014-04-06T11:04:18Z</time>
      </trkpt>
      <trkpt lat="41.658721770" lon="2.547716680">
        <ele>556.00</ele>
        <time>2014-04-06T11:04:19Z</time>
      </trkpt>
      <trkpt lat="41.658706680" lon="2.547700080">
        <ele>555.80</ele>
        <time>2014-04-06T11:04:20Z</time>
      </trkpt>
      <trkpt lat="41.658691760" lon="2.547683490">
        <ele>555.60</ele>
        <time>2014-04-06T11:04:21Z</time>
      </trkpt>
      <trkpt lat="41.658678350" lon="2.547666720">
        <ele>555.50</ele>
        <time>2014-04-06T11:04:22Z</time>
      </trkpt>
      <trkpt lat="41.658663430" lon="2.547648450">
        <ele>555.20</ele>
        <time>2014-04-06T11:04:23Z</time>
      </trkpt>
      <trkpt lat="41.658651690" lon="2.547630010">
        <ele>555.00</ele>
        <time>2014-04-06T11:04:24Z</time>
      </trkpt>
      <trkpt lat="41.658641800" lon="2.547615090">
        <ele>554.70</ele>
        <time>2014-04-06T11:04:25Z</time>
      </trkpt>
      <trkpt lat="41.658633420" lon="2.547595140">
        <ele>554.40</ele>
        <time>2014-04-06T11:04:26Z</time>
      </trkpt>
      <trkpt lat="41.658625040" lon="2.547571670">
        <ele>553.70</ele>
        <time>2014-04-06T11:04:27Z</time>
      </trkpt>
      <trkpt lat="41.658616820" lon="2.547546690">
        <ele>553.20</ele>
        <time>2014-04-06T11:04:28Z</time>
      </trkpt>
      <trkpt lat="41.658606770" lon="2.547520040">
        <ele>552.90</ele>
        <time>2014-04-06T11:04:29Z</time>
      </trkpt>
      <trkpt lat="41.658596710" lon="2.547491710">
        <ele>552.40</ele>
        <time>2014-04-06T11:04:30Z</time>
      </trkpt>
      <trkpt lat="41.658595030" lon="2.547461700">
        <ele>552.00</ele>
        <time>2014-04-06T11:04:31Z</time>
      </trkpt>
      <trkpt lat="41.658598380" lon="2.547428340">
        <ele>551.30</ele>
        <time>2014-04-06T11:04:32Z</time>
      </trkpt>
      <trkpt lat="41.658603410" lon="2.547395150">
        <ele>550.80</ele>
        <time>2014-04-06T11:04:33Z</time>
      </trkpt>
      <trkpt lat="41.658605090" lon="2.547361790">
        <ele>549.60</ele>
        <time>2014-04-06T11:04:34Z</time>
      </trkpt>
      <trkpt lat="41.658603410" lon="2.547330110">
        <ele>548.70</ele>
        <time>2014-04-06T11:04:35Z</time>
      </trkpt>
      <trkpt lat="41.658595030" lon="2.547301780">
        <ele>548.10</ele>
        <time>2014-04-06T11:04:36Z</time>
      </trkpt>
      <trkpt lat="41.658580110" lon="2.547281830">
        <ele>547.90</ele>
        <time>2014-04-06T11:04:37Z</time>
      </trkpt>
      <trkpt lat="41.658565020" lon="2.547266740">
        <ele>547.80</ele>
        <time>2014-04-06T11:04:38Z</time>
      </trkpt>
      <trkpt lat="41.658546750" lon="2.547245110">
        <ele>547.20</ele>
        <time>2014-04-06T11:04:39Z</time>
      </trkpt>
      <trkpt lat="41.658525130" lon="2.547213430">
        <ele>546.80</ele>
        <time>2014-04-06T11:04:40Z</time>
      </trkpt>
      <trkpt lat="41.658498470" lon="2.547173360">
        <ele>546.40</ele>
        <time>2014-04-06T11:04:41Z</time>
      </trkpt>
      <trkpt lat="41.658471820" lon="2.547136820">
        <ele>545.80</ele>
        <time>2014-04-06T11:04:42Z</time>
      </trkpt>
      <trkpt lat="41.658448350" lon="2.547098430">
        <ele>545.30</ele>
        <time>2014-04-06T11:04:43Z</time>
      </trkpt>
      <trkpt lat="41.658418340" lon="2.547070100">
        <ele>544.30</ele>
        <time>2014-04-06T11:04:44Z</time>
      </trkpt>
      <trkpt lat="41.658388330" lon="2.547043450">
        <ele>543.50</ele>
        <time>2014-04-06T11:04:45Z</time>
      </trkpt>
      <trkpt lat="41.658358490" lon="2.547013440">
        <ele>542.60</ele>
        <time>2014-04-06T11:04:46Z</time>
      </trkpt>
      <trkpt lat="41.658335030" lon="2.546986780">
        <ele>541.90</ele>
        <time>2014-04-06T11:04:47Z</time>
      </trkpt>
      <trkpt lat="41.658313400" lon="2.546951750">
        <ele>541.40</ele>
        <time>2014-04-06T11:04:48Z</time>
      </trkpt>
      <trkpt lat="41.658296800" lon="2.546916710">
        <ele>540.70</ele>
        <time>2014-04-06T11:04:49Z</time>
      </trkpt>
      <trkpt lat="41.658281720" lon="2.546883350">
        <ele>540.20</ele>
        <time>2014-04-06T11:04:50Z</time>
      </trkpt>
      <trkpt lat="41.658270150" lon="2.546836750">
        <ele>539.60</ele>
        <time>2014-04-06T11:04:51Z</time>
      </trkpt>
      <trkpt lat="41.658251710" lon="2.546778410">
        <ele>539.20</ele>
        <time>2014-04-06T11:04:52Z</time>
      </trkpt>
      <trkpt lat="41.658233440" lon="2.546723420">
        <ele>538.80</ele>
        <time>2014-04-06T11:04:53Z</time>
      </trkpt>
      <trkpt lat="41.658211810" lon="2.546668440">
        <ele>538.20</ele>
        <time>2014-04-06T11:04:54Z</time>
      </trkpt>
      <trkpt lat="41.658193370" lon="2.546606750">
        <ele>537.70</ele>
        <time>2014-04-06T11:04:55Z</time>
      </trkpt>
      <trkpt lat="41.658175100" lon="2.546550090">
        <ele>536.70</ele>
        <time>2014-04-06T11:04:56Z</time>
      </trkpt>
      <trkpt lat="41.658153470" lon="2.546505160">
        <ele>535.90</ele>
        <time>2014-04-06T11:04:57Z</time>
      </trkpt>
      <trkpt lat="41.658135030" lon="2.546458390">
        <ele>535.10</ele>
        <time>2014-04-06T11:04:58Z</time>
      </trkpt>
      <trkpt lat="41.658133360" lon="2.546415140">
        <ele>534.40</ele>
        <time>2014-04-06T11:04:59Z</time>
      </trkpt>
      <trkpt lat="41.658146770" lon="2.546385130">
        <ele>533.60</ele>
        <time>2014-04-06T11:05:00Z</time>
      </trkpt>
      <trkpt lat="41.658166720" lon="2.546381780">
        <ele>533.00</ele>
        <time>2014-04-06T11:05:01Z</time>
      </trkpt>
      <trkpt lat="41.658180130" lon="2.546391670">
        <ele>532.60</ele>
        <time>2014-04-06T11:05:02Z</time>
      </trkpt>
      <trkpt lat="41.658191690" lon="2.546416810">
        <ele>532.10</ele>
        <time>2014-04-06T11:05:03Z</time>
      </trkpt>
      <trkpt lat="41.658203430" lon="2.546435090">
        <ele>531.70</ele>
        <time>2014-04-06T11:05:04Z</time>
      </trkpt>
      <trkpt lat="41.658210130" lon="2.546453360">
        <ele>530.60</ele>
        <time>2014-04-06T11:05:05Z</time>
      </trkpt>
      <trkpt lat="41.658220030" lon="2.546473480">
        <ele>529.80</ele>
        <time>2014-04-06T11:05:06Z</time>
      </trkpt>
      <trkpt lat="41.658228410" lon="2.546486720">
        <ele>529.30</ele>
        <time>2014-04-06T11:05:07Z</time>
      </trkpt>
      <trkpt lat="41.658238470" lon="2.546490070">
        <ele>529.20</ele>
        <time>2014-04-06T11:05:08Z</time>
      </trkpt>
      <trkpt lat="41.658245000" lon="2.546493420">
        <ele>529.10</ele>
        <time>2014-04-06T11:05:09Z</time>
      </trkpt>
      <trkpt lat="41.658250030" lon="2.546496780">
        <ele>528.20</ele>
        <time>2014-04-06T11:05:10Z</time>
      </trkpt>
      <trkpt lat="41.658251710" lon="2.546496780">
        <ele>527.60</ele>
        <time>2014-04-06T11:05:11Z</time>
      </trkpt>
      <trkpt lat="41.658253390" lon="2.546495100">
        <ele>527.10</ele>
        <time>2014-04-06T11:05:12Z</time>
      </trkpt>
      <trkpt lat="41.658253390" lon="2.546493420">
        <ele>526.90</ele>
        <time>2014-04-06T11:05:13Z</time>
      </trkpt>
      <trkpt lat="41.658253390" lon="2.546491750">
        <ele>526.80</ele>
        <time>2014-04-06T11:05:14Z</time>
      </trkpt>
      <trkpt lat="41.658253390" lon="2.546490070">
        <ele>526.60</ele>
        <time>2014-04-06T11:05:15Z</time>
      </trkpt>
      <trkpt lat="41.658253390" lon="2.546488400">
        <ele>526.50</ele>
        <time>2014-04-06T11:05:16Z</time>
      </trkpt>
      <trkpt lat="41.658255060" lon="2.546486720">
        <ele>526.80</ele>
        <time>2014-04-06T11:05:17Z</time>
      </trkpt>
      <trkpt lat="41.658253390" lon="2.546485040">
        <ele>526.90</ele>
        <time>2014-04-06T11:05:18Z</time>
      </trkpt>
      <trkpt lat="41.658253390" lon="2.546481690">
        <ele>527.00</ele>
        <time>2014-04-06T11:05:19Z</time>
      </trkpt>
      <trkpt lat="41.658253390" lon="2.546480010">
        <ele>526.90</ele>
        <time>2014-04-06T11:05:20Z</time>
      </trkpt>
      <trkpt lat="41.658253390" lon="2.546478340">
        <ele>526.80</ele>
        <time>2014-04-06T11:05:21Z</time>
      </trkpt>
      <trkpt lat="41.658253390" lon="2.546476830">
        <ele>526.90</ele>
        <time>2014-04-06T11:05:22Z</time>
      </trkpt>
      <trkpt lat="41.658253390" lon="2.546473480">
        <ele>526.90</ele>
        <time>2014-04-06T11:05:23Z</time>
      </trkpt>
      <trkpt lat="41.658255060" lon="2.546471800">
        <ele>526.90</ele>
        <time>2014-04-06T11:05:24Z</time>
      </trkpt>
      <trkpt lat="41.658255060" lon="2.546470120">
        <ele>526.80</ele>
        <time>2014-04-06T11:05:25Z</time>
      </trkpt>
      <trkpt lat="41.658255060" lon="2.546466770">
        <ele>526.70</ele>
        <time>2014-04-06T11:05:26Z</time>
      </trkpt>
      <trkpt lat="41.658256740" lon="2.546465090">
        <ele>526.70</ele>
        <time>2014-04-06T11:05:27Z</time>
      </trkpt>
      <trkpt lat="41.658256740" lon="2.546463420">
        <ele>526.70</ele>
        <time>2014-04-06T11:05:28Z</time>
      </trkpt>
      <trkpt lat="41.658258410" lon="2.546460060">
        <ele>526.40</ele>
        <time>2014-04-06T11:05:29Z</time>
      </trkpt>
      <trkpt lat="41.658258410" lon="2.546458390">
        <ele>526.20</ele>
        <time>2014-04-06T11:05:30Z</time>
      </trkpt>
      <trkpt lat="41.658258410" lon="2.546456710">
        <ele>526.20</ele>
        <time>2014-04-06T11:05:31Z</time>
      </trkpt>
      <trkpt lat="41.658258410" lon="2.546455040">
        <ele>526.20</ele>
        <time>2014-04-06T11:05:32Z</time>
      </trkpt>
      <trkpt lat="41.658258410" lon="2.546451680">
        <ele>526.20</ele>
        <time>2014-04-06T11:05:33Z</time>
      </trkpt>
      <trkpt lat="41.658260090" lon="2.546450010">
        <ele>526.00</ele>
        <time>2014-04-06T11:05:34Z</time>
      </trkpt>
      <trkpt lat="41.658260090" lon="2.546448330">
        <ele>525.90</ele>
        <time>2014-04-06T11:05:35Z</time>
      </trkpt>
      <trkpt lat="41.658260090" lon="2.546446820">
        <ele>525.90</ele>
        <time>2014-04-06T11:05:36Z</time>
      </trkpt>
      <trkpt lat="41.658261770" lon="2.546445140">
        <ele>525.90</ele>
        <time>2014-04-06T11:05:37Z</time>
      </trkpt>
      <trkpt lat="41.658261770" lon="2.546443470">
        <ele>525.90</ele>
        <time>2014-04-06T11:05:38Z</time>
      </trkpt>
      <trkpt lat="41.658263440" lon="2.546441790">
        <ele>525.90</ele>
        <time>2014-04-06T11:05:39Z</time>
      </trkpt>
      <trkpt lat="41.658265120" lon="2.546440120">
        <ele>525.90</ele>
        <time>2014-04-06T11:05:40Z</time>
      </trkpt>
      <trkpt lat="41.658265120" lon="2.546436760">
        <ele>525.90</ele>
        <time>2014-04-06T11:05:41Z</time>
      </trkpt>
      <trkpt lat="41.658266800" lon="2.546436760">
        <ele>525.90</ele>
        <time>2014-04-06T11:05:42Z</time>
      </trkpt>
      <trkpt lat="41.658266800" lon="2.546435090">
        <ele>525.80</ele>
        <time>2014-04-06T11:05:43Z</time>
      </trkpt>
      <trkpt lat="41.658268470" lon="2.546433410">
        <ele>525.70</ele>
        <time>2014-04-06T11:05:44Z</time>
      </trkpt>
      <trkpt lat="41.658268470" lon="2.546431730">
        <ele>525.60</ele>
        <time>2014-04-06T11:05:45Z</time>
      </trkpt>
      <trkpt lat="41.658268470" lon="2.546430060">
        <ele>525.80</ele>
        <time>2014-04-06T11:05:46Z</time>
      </trkpt>
      <trkpt lat="41.658270150" lon="2.546428380">
        <ele>525.90</ele>
        <time>2014-04-06T11:05:47Z</time>
      </trkpt>
      <trkpt lat="41.658270150" lon="2.546428380">
        <ele>526.40</ele>
        <time>2014-04-06T11:05:48Z</time>
      </trkpt>
      <trkpt lat="41.658271830" lon="2.546426700">
        <ele>526.70</ele>
        <time>2014-04-06T11:05:49Z</time>
      </trkpt>
      <trkpt lat="41.658271830" lon="2.546425030">
        <ele>526.20</ele>
        <time>2014-04-06T11:05:50Z</time>
      </trkpt>
      <trkpt lat="41.658273330" lon="2.546425030">
        <ele>525.90</ele>
        <time>2014-04-06T11:05:51Z</time>
      </trkpt>
      <trkpt lat="41.658273330" lon="2.546423350">
        <ele>525.60</ele>
        <time>2014-04-06T11:05:52Z</time>
      </trkpt>
      <trkpt lat="41.658275010" lon="2.546423350">
        <ele>525.40</ele>
        <time>2014-04-06T11:05:53Z</time>
      </trkpt>
      <trkpt lat="41.658275010" lon="2.546421680">
        <ele>525.30</ele>
        <time>2014-04-06T11:05:54Z</time>
      </trkpt>
      <trkpt lat="41.658275010" lon="2.546421680">
        <ele>525.60</ele>
        <time>2014-04-06T11:05:55Z</time>
      </trkpt>
      <trkpt lat="41.658276690" lon="2.546421680">
        <ele>525.80</ele>
        <time>2014-04-06T11:05:56Z</time>
      </trkpt>
      <trkpt lat="41.658281720" lon="2.546431730">
        <ele>525.90</ele>
        <time>2014-04-06T11:05:57Z</time>
      </trkpt>
      <trkpt lat="41.658288420" lon="2.546443470">
        <ele>525.90</ele>
        <time>2014-04-06T11:05:58Z</time>
      </trkpt>
      <trkpt lat="41.658298480" lon="2.546453360">
        <ele>525.80</ele>
        <time>2014-04-06T11:05:59Z</time>
      </trkpt>
      <trkpt lat="41.658311720" lon="2.546468450">
        <ele>525.80</ele>
        <time>2014-04-06T11:06:00Z</time>
      </trkpt>
      <trkpt lat="41.658330000" lon="2.546486720">
        <ele>525.80</ele>
        <time>2014-04-06T11:06:01Z</time>
      </trkpt>
      <trkpt lat="41.658355140" lon="2.546508340">
        <ele>525.90</ele>
        <time>2014-04-06T11:06:02Z</time>
      </trkpt>
      <trkpt lat="41.658381800" lon="2.546536680">
        <ele>526.00</ele>
        <time>2014-04-06T11:06:03Z</time>
      </trkpt>
      <trkpt lat="41.658403420" lon="2.546565010">
        <ele>526.10</ele>
        <time>2014-04-06T11:06:04Z</time>
      </trkpt>
      <trkpt lat="41.658428400" lon="2.546583450">
        <ele>525.80</ele>
        <time>2014-04-06T11:06:05Z</time>
      </trkpt>
      <trkpt lat="41.658448350" lon="2.546598370">
        <ele>525.50</ele>
        <time>2014-04-06T11:06:06Z</time>
      </trkpt>
      <trkpt lat="41.658470140" lon="2.546601720">
        <ele>525.50</ele>
        <time>2014-04-06T11:06:07Z</time>
      </trkpt>
      <trkpt lat="41.658495120" lon="2.546596690">
        <ele>525.40</ele>
        <time>2014-04-06T11:06:08Z</time>
      </trkpt>
      <trkpt lat="41.658521770" lon="2.546581770">
        <ele>525.00</ele>
        <time>2014-04-06T11:06:09Z</time>
      </trkpt>
      <trkpt lat="41.658553460" lon="2.546560140">
        <ele>524.60</ele>
        <time>2014-04-06T11:06:10Z</time>
      </trkpt>
      <trkpt lat="41.658591680" lon="2.546536680">
        <ele>524.40</ele>
        <time>2014-04-06T11:06:11Z</time>
      </trkpt>
      <trkpt lat="41.658633420" lon="2.546516730">
        <ele>523.60</ele>
        <time>2014-04-06T11:06:12Z</time>
      </trkpt>
      <trkpt lat="41.658675000" lon="2.546515050">
        <ele>523.00</ele>
        <time>2014-04-06T11:06:13Z</time>
      </trkpt>
      <trkpt lat="41.658713380" lon="2.546521760">
        <ele>522.30</ele>
        <time>2014-04-06T11:06:14Z</time>
      </trkpt>
      <trkpt lat="41.658751770" lon="2.546541700">
        <ele>521.80</ele>
        <time>2014-04-06T11:06:15Z</time>
      </trkpt>
      <trkpt lat="41.658783460" lon="2.546563330">
        <ele>521.40</ele>
        <time>2014-04-06T11:06:16Z</time>
      </trkpt>
      <trkpt lat="41.658810110" lon="2.546581770">
        <ele>520.80</ele>
        <time>2014-04-06T11:06:17Z</time>
      </trkpt>
      <trkpt lat="41.658838440" lon="2.546585120">
        <ele>520.30</ele>
        <time>2014-04-06T11:06:18Z</time>
      </trkpt>
      <trkpt lat="41.658865100" lon="2.546576740">
        <ele>520.20</ele>
        <time>2014-04-06T11:06:19Z</time>
      </trkpt>
      <trkpt lat="41.658888400" lon="2.546555120">
        <ele>520.10</ele>
        <time>2014-04-06T11:06:20Z</time>
      </trkpt>
      <trkpt lat="41.658905160" lon="2.546525110">
        <ele>519.80</ele>
        <time>2014-04-06T11:06:21Z</time>
      </trkpt>
      <trkpt lat="41.658910020" lon="2.546496780">
        <ele>519.50</ele>
        <time>2014-04-06T11:06:22Z</time>
      </trkpt>
      <trkpt lat="41.658906670" lon="2.546468450">
        <ele>519.30</ele>
        <time>2014-04-06T11:06:23Z</time>
      </trkpt>
      <trkpt lat="41.658903490" lon="2.546443470">
        <ele>518.70</ele>
        <time>2014-04-06T11:06:24Z</time>
      </trkpt>
      <trkpt lat="41.658900130" lon="2.546416810">
        <ele>518.30</ele>
        <time>2014-04-06T11:06:25Z</time>
      </trkpt>
      <trkpt lat="41.658895100" lon="2.546388480">
        <ele>517.60</ele>
        <time>2014-04-06T11:06:26Z</time>
      </trkpt>
      <trkpt lat="41.658881690" lon="2.546348420">
        <ele>517.10</ele>
        <time>2014-04-06T11:06:27Z</time>
      </trkpt>
      <trkpt lat="41.658875150" lon="2.546308350">
        <ele>516.40</ele>
        <time>2014-04-06T11:06:28Z</time>
      </trkpt>
      <trkpt lat="41.658871800" lon="2.546261750">
        <ele>515.90</ele>
        <time>2014-04-06T11:06:29Z</time>
      </trkpt>
      <trkpt lat="41.658873480" lon="2.546205090">
        <ele>515.50</ele>
        <time>2014-04-06T11:06:30Z</time>
      </trkpt>
      <trkpt lat="41.658876660" lon="2.546145070">
        <ele>514.80</ele>
        <time>2014-04-06T11:06:31Z</time>
      </trkpt>
      <trkpt lat="41.658881690" lon="2.546085060">
        <ele>514.20</ele>
        <time>2014-04-06T11:06:32Z</time>
      </trkpt>
      <trkpt lat="41.658888400" lon="2.546025040">
        <ele>513.40</ele>
        <time>2014-04-06T11:06:33Z</time>
      </trkpt>
      <trkpt lat="41.658900130" lon="2.545971740">
        <ele>512.80</ele>
        <time>2014-04-06T11:06:34Z</time>
      </trkpt>
      <trkpt lat="41.658915050" lon="2.545921780">
        <ele>512.40</ele>
        <time>2014-04-06T11:06:35Z</time>
      </trkpt>
      <trkpt lat="41.658926790" lon="2.545875010">
        <ele>511.90</ele>
        <time>2014-04-06T11:06:36Z</time>
      </trkpt>
      <trkpt lat="41.658935000" lon="2.545828400">
        <ele>511.50</ele>
        <time>2014-04-06T11:06:37Z</time>
      </trkpt>
      <trkpt lat="41.658941710" lon="2.545788340">
        <ele>510.90</ele>
        <time>2014-04-06T11:06:38Z</time>
      </trkpt>
      <trkpt lat="41.658948410" lon="2.545751790">
        <ele>510.50</ele>
        <time>2014-04-06T11:06:39Z</time>
      </trkpt>
      <trkpt lat="41.658953440" lon="2.545720110">
        <ele>509.70</ele>
        <time>2014-04-06T11:06:40Z</time>
      </trkpt>
      <trkpt lat="41.658960150" lon="2.545688430">
        <ele>509.10</ele>
        <time>2014-04-06T11:06:41Z</time>
      </trkpt>
      <trkpt lat="41.658961820" lon="2.545656740">
        <ele>508.70</ele>
        <time>2014-04-06T11:06:42Z</time>
      </trkpt>
      <trkpt lat="41.658965010" lon="2.545628410">
        <ele>508.00</ele>
        <time>2014-04-06T11:06:43Z</time>
      </trkpt>
      <trkpt lat="41.658971710" lon="2.545605110">
        <ele>507.50</ele>
        <time>2014-04-06T11:06:44Z</time>
      </trkpt>
      <trkpt lat="41.658978420" lon="2.545576780">
        <ele>506.80</ele>
        <time>2014-04-06T11:06:45Z</time>
      </trkpt>
      <trkpt lat="41.658980100" lon="2.545541740">
        <ele>506.20</ele>
        <time>2014-04-06T11:06:46Z</time>
      </trkpt>
      <trkpt lat="41.658976740" lon="2.545516770">
        <ele>505.60</ele>
        <time>2014-04-06T11:06:47Z</time>
      </trkpt>
      <trkpt lat="41.658970040" lon="2.545493460">
        <ele>505.20</ele>
        <time>2014-04-06T11:06:48Z</time>
      </trkpt>
      <trkpt lat="41.658963330" lon="2.545483410">
        <ele>504.90</ele>
        <time>2014-04-06T11:06:49Z</time>
      </trkpt>
      <trkpt lat="41.658963330" lon="2.545478380">
        <ele>504.50</ele>
        <time>2014-04-06T11:06:50Z</time>
      </trkpt>
      <trkpt lat="41.658965010" lon="2.545475020">
        <ele>504.10</ele>
        <time>2014-04-06T11:06:51Z</time>
      </trkpt>
      <trkpt lat="41.658965010" lon="2.545471670">
        <ele>503.80</ele>
        <time>2014-04-06T11:06:52Z</time>
      </trkpt>
      <trkpt lat="41.658965010" lon="2.545468490">
        <ele>503.50</ele>
        <time>2014-04-06T11:06:53Z</time>
      </trkpt>
      <trkpt lat="41.658966690" lon="2.545465130">
        <ele>503.30</ele>
        <time>2014-04-06T11:06:54Z</time>
      </trkpt>
      <trkpt lat="41.658968360" lon="2.545461780">
        <ele>502.60</ele>
        <time>2014-04-06T11:06:55Z</time>
      </trkpt>
      <trkpt lat="41.658970040" lon="2.545458430">
        <ele>502.10</ele>
        <time>2014-04-06T11:06:56Z</time>
      </trkpt>
      <trkpt lat="41.658971710" lon="2.545456750">
        <ele>501.90</ele>
        <time>2014-04-06T11:06:57Z</time>
      </trkpt>
      <trkpt lat="41.658973390" lon="2.545453400">
        <ele>501.70</ele>
        <time>2014-04-06T11:06:58Z</time>
      </trkpt>
      <trkpt lat="41.658973390" lon="2.545451720">
        <ele>501.30</ele>
        <time>2014-04-06T11:06:59Z</time>
      </trkpt>
      <trkpt lat="41.658975070" lon="2.545448370">
        <ele>500.90</ele>
        <time>2014-04-06T11:07:00Z</time>
      </trkpt>
      <trkpt lat="41.658976740" lon="2.545445020">
        <ele>500.60</ele>
        <time>2014-04-06T11:07:01Z</time>
      </trkpt>
      <trkpt lat="41.658976740" lon="2.545441660">
        <ele>500.90</ele>
        <time>2014-04-06T11:07:02Z</time>
      </trkpt>
      <trkpt lat="41.658975070" lon="2.545440150">
        <ele>501.10</ele>
        <time>2014-04-06T11:07:03Z</time>
      </trkpt>
      <trkpt lat="41.658971710" lon="2.545440150">
        <ele>500.90</ele>
        <time>2014-04-06T11:07:04Z</time>
      </trkpt>
      <trkpt lat="41.658965010" lon="2.545443340">
        <ele>500.80</ele>
        <time>2014-04-06T11:07:05Z</time>
      </trkpt>
      <trkpt lat="41.658958470" lon="2.545455070">
        <ele>500.50</ele>
        <time>2014-04-06T11:07:06Z</time>
      </trkpt>
      <trkpt lat="41.658950090" lon="2.545470160">
        <ele>500.40</ele>
        <time>2014-04-06T11:07:07Z</time>
      </trkpt>
      <trkpt lat="41.658938350" lon="2.545483410">
        <ele>500.20</ele>
        <time>2014-04-06T11:07:08Z</time>
      </trkpt>
      <trkpt lat="41.658926790" lon="2.545498490">
        <ele>500.00</ele>
        <time>2014-04-06T11:07:09Z</time>
      </trkpt>
      <trkpt lat="41.658918410" lon="2.545513410">
        <ele>499.80</ele>
        <time>2014-04-06T11:07:10Z</time>
      </trkpt>
      <trkpt lat="41.658911700" lon="2.545526820">
        <ele>499.60</ele>
        <time>2014-04-06T11:07:11Z</time>
      </trkpt>
      <trkpt lat="41.658908350" lon="2.545536710">
        <ele>499.40</ele>
        <time>2014-04-06T11:07:12Z</time>
      </trkpt>
      <trkpt lat="41.658903490" lon="2.545546770">
        <ele>499.30</ele>
        <time>2014-04-06T11:07:13Z</time>
      </trkpt>
      <trkpt lat="41.658896780" lon="2.545555150">
        <ele>499.10</ele>
        <time>2014-04-06T11:07:14Z</time>
      </trkpt>
      <trkpt lat="41.658888400" lon="2.545566720">
        <ele>499.00</ele>
        <time>2014-04-06T11:07:15Z</time>
      </trkpt>
      <trkpt lat="41.658880020" lon="2.545580130">
        <ele>499.10</ele>
        <time>2014-04-06T11:07:16Z</time>
      </trkpt>
      <trkpt lat="41.658870130" lon="2.545596730">
        <ele>499.10</ele>
        <time>2014-04-06T11:07:17Z</time>
      </trkpt>
      <trkpt lat="41.658860070" lon="2.545615000">
        <ele>499.40</ele>
        <time>2014-04-06T11:07:18Z</time>
      </trkpt>
      <trkpt lat="41.658850010" lon="2.545631770">
        <ele>499.60</ele>
        <time>2014-04-06T11:07:19Z</time>
      </trkpt>
      <trkpt lat="41.658841790" lon="2.545648360">
        <ele>499.80</ele>
        <time>2014-04-06T11:07:20Z</time>
      </trkpt>
      <trkpt lat="41.658831740" lon="2.545668480">
        <ele>499.60</ele>
        <time>2014-04-06T11:07:21Z</time>
      </trkpt>
      <trkpt lat="41.658820000" lon="2.545688430">
        <ele>499.40</ele>
        <time>2014-04-06T11:07:22Z</time>
      </trkpt>
      <trkpt lat="41.658808430" lon="2.545710050">
        <ele>499.30</ele>
        <time>2014-04-06T11:07:23Z</time>
      </trkpt>
      <trkpt lat="41.658795020" lon="2.545733350">
        <ele>499.30</ele>
        <time>2014-04-06T11:07:24Z</time>
      </trkpt>
      <trkpt lat="41.658781780" lon="2.545755150">
        <ele>499.30</ele>
        <time>2014-04-06T11:07:25Z</time>
      </trkpt>
      <trkpt lat="41.658765020" lon="2.545773420">
        <ele>499.30</ele>
        <time>2014-04-06T11:07:26Z</time>
      </trkpt>
      <trkpt lat="41.658746740" lon="2.545791690">
        <ele>499.20</ele>
        <time>2014-04-06T11:07:27Z</time>
      </trkpt>
      <trkpt lat="41.658728470" lon="2.545801750">
        <ele>499.20</ele>
        <time>2014-04-06T11:07:28Z</time>
      </trkpt>
      <trkpt lat="41.658710030" lon="2.545810130">
        <ele>499.20</ele>
        <time>2014-04-06T11:07:29Z</time>
      </trkpt>
      <trkpt lat="41.658690080" lon="2.545813480">
        <ele>499.10</ele>
        <time>2014-04-06T11:07:30Z</time>
      </trkpt>
      <trkpt lat="41.658666780" lon="2.545813480">
        <ele>498.90</ele>
        <time>2014-04-06T11:07:31Z</time>
      </trkpt>
      <trkpt lat="41.658648340" lon="2.545816670">
        <ele>498.90</ele>
        <time>2014-04-06T11:07:32Z</time>
      </trkpt>
      <trkpt lat="41.658630070" lon="2.545818350">
        <ele>499.20</ele>
        <time>2014-04-06T11:07:33Z</time>
      </trkpt>
      <trkpt lat="41.658611800" lon="2.545816670">
        <ele>499.40</ele>
        <time>2014-04-06T11:07:34Z</time>
      </trkpt>
      <trkpt lat="41.658591680" lon="2.545811810">
        <ele>499.70</ele>
        <time>2014-04-06T11:07:35Z</time>
      </trkpt>
      <trkpt lat="41.658573410" lon="2.545803430">
        <ele>499.90</ele>
        <time>2014-04-06T11:07:36Z</time>
      </trkpt>
      <trkpt lat="41.658555130" lon="2.545791690">
        <ele>500.20</ele>
        <time>2014-04-06T11:07:37Z</time>
      </trkpt>
      <trkpt lat="41.658538370" lon="2.545783480">
        <ele>500.40</ele>
        <time>2014-04-06T11:07:38Z</time>
      </trkpt>
      <trkpt lat="41.658518420" lon="2.545776770">
        <ele>500.60</ele>
        <time>2014-04-06T11:07:39Z</time>
      </trkpt>
      <trkpt lat="41.658501820" lon="2.545771740">
        <ele>500.80</ele>
        <time>2014-04-06T11:07:40Z</time>
      </trkpt>
      <trkpt lat="41.658485060" lon="2.545765040">
        <ele>500.90</ele>
        <time>2014-04-06T11:07:41Z</time>
      </trkpt>
      <trkpt lat="41.658465110" lon="2.545760010">
        <ele>501.40</ele>
        <time>2014-04-06T11:07:42Z</time>
      </trkpt>
      <trkpt lat="41.658446670" lon="2.545753470">
        <ele>501.80</ele>
        <time>2014-04-06T11:07:43Z</time>
      </trkpt>
      <trkpt lat="41.658430080" lon="2.545741740">
        <ele>502.00</ele>
        <time>2014-04-06T11:07:44Z</time>
      </trkpt>
      <trkpt lat="41.658411800" lon="2.545730000">
        <ele>502.10</ele>
        <time>2014-04-06T11:07:45Z</time>
      </trkpt>
      <trkpt lat="41.658395040" lon="2.545721790">
        <ele>502.20</ele>
        <time>2014-04-06T11:07:46Z</time>
      </trkpt>
      <trkpt lat="41.658378440" lon="2.545713400">
        <ele>502.00</ele>
        <time>2014-04-06T11:07:47Z</time>
      </trkpt>
      <trkpt lat="41.658360000" lon="2.545703350">
        <ele>501.90</ele>
        <time>2014-04-06T11:07:48Z</time>
      </trkpt>
      <trkpt lat="41.658340050" lon="2.545695130">
        <ele>502.50</ele>
        <time>2014-04-06T11:07:49Z</time>
      </trkpt>
      <trkpt lat="41.658321780" lon="2.545685070">
        <ele>503.00</ele>
        <time>2014-04-06T11:07:50Z</time>
      </trkpt>
      <trkpt lat="41.658305020" lon="2.545676690">
        <ele>503.30</ele>
        <time>2014-04-06T11:07:51Z</time>
      </trkpt>
      <trkpt lat="41.658286750" lon="2.545668480">
        <ele>503.40</ele>
        <time>2014-04-06T11:07:52Z</time>
      </trkpt>
      <trkpt lat="41.658268470" lon="2.545656740">
        <ele>503.40</ele>
        <time>2014-04-06T11:07:53Z</time>
      </trkpt>
      <trkpt lat="41.658253390" lon="2.545641820">
        <ele>503.50</ele>
        <time>2014-04-06T11:07:54Z</time>
      </trkpt>
      <trkpt lat="41.658236790" lon="2.545631770">
        <ele>503.50</ele>
        <time>2014-04-06T11:07:55Z</time>
      </trkpt>
      <trkpt lat="41.658218350" lon="2.545618350">
        <ele>503.60</ele>
        <time>2014-04-06T11:07:56Z</time>
      </trkpt>
      <trkpt lat="41.658201750" lon="2.545610140">
        <ele>503.70</ele>
        <time>2014-04-06T11:07:57Z</time>
      </trkpt>
      <trkpt lat="41.658188340" lon="2.545600080">
        <ele>503.80</ele>
        <time>2014-04-06T11:07:58Z</time>
      </trkpt>
      <trkpt lat="41.658175100" lon="2.545588350">
        <ele>503.70</ele>
        <time>2014-04-06T11:07:59Z</time>
      </trkpt>
      <trkpt lat="41.658161690" lon="2.545571750">
        <ele>503.60</ele>
        <time>2014-04-06T11:08:00Z</time>
      </trkpt>
      <trkpt lat="41.658148440" lon="2.545555150">
        <ele>503.80</ele>
        <time>2014-04-06T11:08:01Z</time>
      </trkpt>
      <trkpt lat="41.658130000" lon="2.545538390">
        <ele>504.00</ele>
        <time>2014-04-06T11:08:02Z</time>
      </trkpt>
      <trkpt lat="41.658115080" lon="2.545518440">
        <ele>504.40</ele>
        <time>2014-04-06T11:08:03Z</time>
      </trkpt>
      <trkpt lat="41.658098490" lon="2.545508380">
        <ele>504.70</ele>
        <time>2014-04-06T11:08:04Z</time>
      </trkpt>
      <trkpt lat="41.658081720" lon="2.545493460">
        <ele>504.90</ele>
        <time>2014-04-06T11:08:05Z</time>
      </trkpt>
      <trkpt lat="41.658063450" lon="2.545475020">
        <ele>505.10</ele>
        <time>2014-04-06T11:08:06Z</time>
      </trkpt>
      <trkpt lat="41.658046690" lon="2.545456750">
        <ele>505.20</ele>
        <time>2014-04-06T11:08:07Z</time>
      </trkpt>
      <trkpt lat="41.658026740" lon="2.545440150">
        <ele>505.10</ele>
        <time>2014-04-06T11:08:08Z</time>
      </trkpt>
      <trkpt lat="41.658005110" lon="2.545416690">
        <ele>505.00</ele>
        <time>2014-04-06T11:08:09Z</time>
      </trkpt>
      <trkpt lat="41.657985000" lon="2.545391710">
        <ele>505.00</ele>
        <time>2014-04-06T11:08:10Z</time>
      </trkpt>
      <trkpt lat="41.657963370" lon="2.545370080">
        <ele>504.70</ele>
        <time>2014-04-06T11:08:11Z</time>
      </trkpt>
      <trkpt lat="41.657936720" lon="2.545355160">
        <ele>504.50</ele>
        <time>2014-04-06T11:08:12Z</time>
      </trkpt>
      <trkpt lat="41.657906710" lon="2.545343430">
        <ele>504.50</ele>
        <time>2014-04-06T11:08:13Z</time>
      </trkpt>
      <trkpt lat="41.657873350" lon="2.545338400">
        <ele>504.40</ele>
        <time>2014-04-06T11:08:14Z</time>
      </trkpt>
      <trkpt lat="41.657835130" lon="2.545338400">
        <ele>504.10</ele>
        <time>2014-04-06T11:08:15Z</time>
      </trkpt>
      <trkpt lat="41.657796740" lon="2.545351810">
        <ele>503.80</ele>
        <time>2014-04-06T11:08:16Z</time>
      </trkpt>
      <trkpt lat="41.657761700" lon="2.545371760">
        <ele>503.70</ele>
        <time>2014-04-06T11:08:17Z</time>
      </trkpt>
      <trkpt lat="41.657730020" lon="2.545396740">
        <ele>503.50</ele>
        <time>2014-04-06T11:08:18Z</time>
      </trkpt>
      <trkpt lat="41.657701690" lon="2.545420040">
        <ele>503.40</ele>
        <time>2014-04-06T11:08:19Z</time>
      </trkpt>
      <trkpt lat="41.657675030" lon="2.545441660">
        <ele>503.30</ele>
        <time>2014-04-06T11:08:20Z</time>
      </trkpt>
      <trkpt lat="41.657650060" lon="2.545465130">
        <ele>503.30</ele>
        <time>2014-04-06T11:08:21Z</time>
      </trkpt>
      <trkpt lat="41.657625080" lon="2.545486760">
        <ele>502.60</ele>
        <time>2014-04-06T11:08:22Z</time>
      </trkpt>
      <trkpt lat="41.657601780" lon="2.545505030">
        <ele>502.20</ele>
        <time>2014-04-06T11:08:23Z</time>
      </trkpt>
      <trkpt lat="41.657578470" lon="2.545521790">
        <ele>501.80</ele>
        <time>2014-04-06T11:08:24Z</time>
      </trkpt>
      <trkpt lat="41.657558360" lon="2.545536710">
        <ele>502.00</ele>
        <time>2014-04-06T11:08:25Z</time>
      </trkpt>
      <trkpt lat="41.657538410" lon="2.545550130">
        <ele>502.10</ele>
        <time>2014-04-06T11:08:26Z</time>
      </trkpt>
      <trkpt lat="41.657515110" lon="2.545561690">
        <ele>502.20</ele>
        <time>2014-04-06T11:08:27Z</time>
      </trkpt>
      <trkpt lat="41.657490130" lon="2.545575100">
        <ele>502.20</ele>
        <time>2014-04-06T11:08:28Z</time>
      </trkpt>
      <trkpt lat="41.657463470" lon="2.545586670">
        <ele>502.20</ele>
        <time>2014-04-06T11:08:29Z</time>
      </trkpt>
      <trkpt lat="41.657436820" lon="2.545595050">
        <ele>502.40</ele>
        <time>2014-04-06T11:08:30Z</time>
      </trkpt>
      <trkpt lat="41.657411670" lon="2.545603430">
        <ele>502.50</ele>
        <time>2014-04-06T11:08:31Z</time>
      </trkpt>
      <trkpt lat="41.657385020" lon="2.545610140">
        <ele>502.40</ele>
        <time>2014-04-06T11:08:32Z</time>
      </trkpt>
      <trkpt lat="41.657356690" lon="2.545616680">
        <ele>502.30</ele>
        <time>2014-04-06T11:08:33Z</time>
      </trkpt>
      <trkpt lat="41.657328360" lon="2.545623380">
        <ele>502.80</ele>
        <time>2014-04-06T11:08:34Z</time>
      </trkpt>
      <trkpt lat="41.657300030" lon="2.545630090">
        <ele>503.20</ele>
        <time>2014-04-06T11:08:35Z</time>
      </trkpt>
      <trkpt lat="41.657271700" lon="2.545640150">
        <ele>503.50</ele>
        <time>2014-04-06T11:08:36Z</time>
      </trkpt>
      <trkpt lat="41.657245040" lon="2.545650040">
        <ele>503.20</ele>
        <time>2014-04-06T11:08:37Z</time>
      </trkpt>
      <trkpt lat="41.657218390" lon="2.545656740">
        <ele>503.00</ele>
        <time>2014-04-06T11:08:38Z</time>
      </trkpt>
      <trkpt lat="41.657191730" lon="2.545663450">
        <ele>502.80</ele>
        <time>2014-04-06T11:08:39Z</time>
      </trkpt>
      <trkpt lat="41.657166760" lon="2.545670150">
        <ele>502.70</ele>
        <time>2014-04-06T11:08:40Z</time>
      </trkpt>
      <trkpt lat="41.657143450" lon="2.545676690">
        <ele>502.90</ele>
        <time>2014-04-06T11:08:41Z</time>
      </trkpt>
      <trkpt lat="41.657120150" lon="2.545680040">
        <ele>503.00</ele>
        <time>2014-04-06T11:08:42Z</time>
      </trkpt>
      <trkpt lat="41.657096680" lon="2.545685070">
        <ele>503.10</ele>
        <time>2014-04-06T11:08:43Z</time>
      </trkpt>
      <trkpt lat="41.657075060" lon="2.545688430">
        <ele>503.20</ele>
        <time>2014-04-06T11:08:44Z</time>
      </trkpt>
      <trkpt lat="41.657051760" lon="2.545693460">
        <ele>503.30</ele>
        <time>2014-04-06T11:08:45Z</time>
      </trkpt>
      <trkpt lat="41.657028450" lon="2.545698480">
        <ele>503.50</ele>
        <time>2014-04-06T11:08:46Z</time>
      </trkpt>
      <trkpt lat="41.657003480" lon="2.545701670">
        <ele>503.70</ele>
        <time>2014-04-06T11:08:47Z</time>
      </trkpt>
      <trkpt lat="41.656978330" lon="2.545705020">
        <ele>503.80</ele>
        <time>2014-04-06T11:08:48Z</time>
      </trkpt>
      <trkpt lat="41.656953350" lon="2.545703350">
        <ele>503.70</ele>
        <time>2014-04-06T11:08:49Z</time>
      </trkpt>
      <trkpt lat="41.656926700" lon="2.545700160">
        <ele>503.60</ele>
        <time>2014-04-06T11:08:50Z</time>
      </trkpt>
      <trkpt lat="41.656898370" lon="2.545693460">
        <ele>503.40</ele>
        <time>2014-04-06T11:08:51Z</time>
      </trkpt>
      <trkpt lat="41.656870040" lon="2.545690100">
        <ele>503.20</ele>
        <time>2014-04-06T11:08:52Z</time>
      </trkpt>
      <trkpt lat="41.656838350" lon="2.545681720">
        <ele>502.90</ele>
        <time>2014-04-06T11:08:53Z</time>
      </trkpt>
      <trkpt lat="41.656806670" lon="2.545673340">
        <ele>502.60</ele>
        <time>2014-04-06T11:08:54Z</time>
      </trkpt>
      <trkpt lat="41.656773480" lon="2.545665130">
        <ele>502.40</ele>
        <time>2014-04-06T11:08:55Z</time>
      </trkpt>
      <trkpt lat="41.656740120" lon="2.545655070">
        <ele>503.00</ele>
        <time>2014-04-06T11:08:56Z</time>
      </trkpt>
      <trkpt lat="41.656705080" lon="2.545645010">
        <ele>503.30</ele>
        <time>2014-04-06T11:08:57Z</time>
      </trkpt>
      <trkpt lat="41.656673400" lon="2.545636790">
        <ele>503.40</ele>
        <time>2014-04-06T11:08:58Z</time>
      </trkpt>
      <trkpt lat="41.656640040" lon="2.545631770">
        <ele>503.40</ele>
        <time>2014-04-06T11:08:59Z</time>
      </trkpt>
      <trkpt lat="41.656608350" lon="2.545626740">
        <ele>503.10</ele>
        <time>2014-04-06T11:09:00Z</time>
      </trkpt>
      <trkpt lat="41.656575160" lon="2.545623380">
        <ele>502.90</ele>
        <time>2014-04-06T11:09:01Z</time>
      </trkpt>
      <trkpt lat="41.656541800" lon="2.545618350">
        <ele>502.70</ele>
        <time>2014-04-06T11:09:02Z</time>
      </trkpt>
      <trkpt lat="41.656510120" lon="2.545613490">
        <ele>502.80</ele>
        <time>2014-04-06T11:09:03Z</time>
      </trkpt>
      <trkpt lat="41.656476760" lon="2.545608460">
        <ele>502.80</ele>
        <time>2014-04-06T11:09:04Z</time>
      </trkpt>
      <trkpt lat="41.656443400" lon="2.545605110">
        <ele>502.80</ele>
        <time>2014-04-06T11:09:05Z</time>
      </trkpt>
      <trkpt lat="41.656408360" lon="2.545610140">
        <ele>502.80</ele>
        <time>2014-04-06T11:09:06Z</time>
      </trkpt>
      <trkpt lat="41.656375000" lon="2.545611820">
        <ele>502.90</ele>
        <time>2014-04-06T11:09:07Z</time>
      </trkpt>
      <trkpt lat="41.656341810" lon="2.545615000">
        <ele>502.40</ele>
        <time>2014-04-06T11:09:08Z</time>
      </trkpt>
      <trkpt lat="41.656311800" lon="2.545618350">
        <ele>502.10</ele>
        <time>2014-04-06T11:09:09Z</time>
      </trkpt>
      <trkpt lat="41.656283470" lon="2.545625060">
        <ele>502.50</ele>
        <time>2014-04-06T11:09:10Z</time>
      </trkpt>
      <trkpt lat="41.656256820" lon="2.545630090">
        <ele>502.80</ele>
        <time>2014-04-06T11:09:11Z</time>
      </trkpt>
      <trkpt lat="41.656228490" lon="2.545636790">
        <ele>502.90</ele>
        <time>2014-04-06T11:09:12Z</time>
      </trkpt>
      <trkpt lat="41.656200150" lon="2.545643330">
        <ele>503.00</ele>
        <time>2014-04-06T11:09:13Z</time>
      </trkpt>
      <trkpt lat="41.656171820" lon="2.545648360">
        <ele>503.10</ele>
        <time>2014-04-06T11:09:14Z</time>
      </trkpt>
      <trkpt lat="41.656143490" lon="2.545655070">
        <ele>503.30</ele>
        <time>2014-04-06T11:09:15Z</time>
      </trkpt>
      <trkpt lat="41.656113490" lon="2.545663450">
        <ele>503.50</ele>
        <time>2014-04-06T11:09:16Z</time>
      </trkpt>
      <trkpt lat="41.656083480" lon="2.545668480">
        <ele>503.30</ele>
        <time>2014-04-06T11:09:17Z</time>
      </trkpt>
      <trkpt lat="41.656051790" lon="2.545671660">
        <ele>503.10</ele>
        <time>2014-04-06T11:09:18Z</time>
      </trkpt>
      <trkpt lat="41.656020110" lon="2.545670150">
        <ele>503.30</ele>
        <time>2014-04-06T11:09:19Z</time>
      </trkpt>
      <trkpt lat="41.655988430" lon="2.545665130">
        <ele>503.40</ele>
        <time>2014-04-06T11:09:20Z</time>
      </trkpt>
      <trkpt lat="41.655955070" lon="2.545656740">
        <ele>503.50</ele>
        <time>2014-04-06T11:09:21Z</time>
      </trkpt>
      <trkpt lat="41.655923380" lon="2.545645010">
        <ele>502.90</ele>
        <time>2014-04-06T11:09:22Z</time>
      </trkpt>
      <trkpt lat="41.655886670" lon="2.545631770">
        <ele>502.40</ele>
        <time>2014-04-06T11:09:23Z</time>
      </trkpt>
      <trkpt lat="41.655848450" lon="2.545613490">
        <ele>502.10</ele>
        <time>2014-04-06T11:09:24Z</time>
      </trkpt>
      <trkpt lat="41.655806710" lon="2.545590020">
        <ele>501.80</ele>
        <time>2014-04-06T11:09:25Z</time>
      </trkpt>
      <trkpt lat="41.655763460" lon="2.545553480">
        <ele>501.70</ele>
        <time>2014-04-06T11:09:26Z</time>
      </trkpt>
      <trkpt lat="41.655715010" lon="2.545510060">
        <ele>501.60</ele>
        <time>2014-04-06T11:09:27Z</time>
      </trkpt>
      <trkpt lat="41.655668410" lon="2.545461780">
        <ele>501.50</ele>
        <time>2014-04-06T11:09:28Z</time>
      </trkpt>
      <trkpt lat="41.655621800" lon="2.545410150">
        <ele>501.00</ele>
        <time>2014-04-06T11:09:29Z</time>
      </trkpt>
      <trkpt lat="41.655578380" lon="2.545348460">
        <ele>500.60</ele>
        <time>2014-04-06T11:09:30Z</time>
      </trkpt>
      <trkpt lat="41.655543350" lon="2.545278380">
        <ele>500.00</ele>
        <time>2014-04-06T11:09:31Z</time>
      </trkpt>
      <trkpt lat="41.655516690" lon="2.545198420">
        <ele>499.50</ele>
        <time>2014-04-06T11:09:32Z</time>
      </trkpt>
      <trkpt lat="41.655486690" lon="2.545126670">
        <ele>499.10</ele>
        <time>2014-04-06T11:09:33Z</time>
      </trkpt>
      <trkpt lat="41.655448470" lon="2.545080070">
        <ele>498.50</ele>
        <time>2014-04-06T11:09:34Z</time>
      </trkpt>
      <trkpt lat="41.655403370" lon="2.545050060">
        <ele>498.00</ele>
        <time>2014-04-06T11:09:35Z</time>
      </trkpt>
      <trkpt lat="41.655351740" lon="2.545038490">
        <ele>497.30</ele>
        <time>2014-04-06T11:09:36Z</time>
      </trkpt>
      <trkpt lat="41.655295080" lon="2.545038490">
        <ele>496.70</ele>
        <time>2014-04-06T11:09:37Z</time>
      </trkpt>
      <trkpt lat="41.655236740" lon="2.545055090">
        <ele>496.10</ele>
        <time>2014-04-06T11:09:38Z</time>
      </trkpt>
      <trkpt lat="41.655178400" lon="2.545085100">
        <ele>495.60</ele>
        <time>2014-04-06T11:09:39Z</time>
      </trkpt>
      <trkpt lat="41.655118390" lon="2.545118460">
        <ele>495.20</ele>
        <time>2014-04-06T11:09:40Z</time>
      </trkpt>
      <trkpt lat="41.655056700" lon="2.545145110">
        <ele>494.90</ele>
        <time>2014-04-06T11:09:41Z</time>
      </trkpt>
      <trkpt lat="41.654995000" lon="2.545160030">
        <ele>494.60</ele>
        <time>2014-04-06T11:09:42Z</time>
      </trkpt>
      <trkpt lat="41.654933480" lon="2.545161710">
        <ele>493.60</ele>
        <time>2014-04-06T11:09:43Z</time>
      </trkpt>
      <trkpt lat="41.654871790" lon="2.545158360">
        <ele>492.80</ele>
        <time>2014-04-06T11:09:44Z</time>
      </trkpt>
      <trkpt lat="41.654815130" lon="2.545150140">
        <ele>491.90</ele>
        <time>2014-04-06T11:09:45Z</time>
      </trkpt>
      <trkpt lat="41.654756790" lon="2.545141760">
        <ele>491.20</ele>
        <time>2014-04-06T11:09:46Z</time>
      </trkpt>
      <trkpt lat="41.654700130" lon="2.545128350">
        <ele>490.70</ele>
        <time>2014-04-06T11:09:47Z</time>
      </trkpt>
      <trkpt lat="41.654641790" lon="2.545108400">
        <ele>489.70</ele>
        <time>2014-04-06T11:09:48Z</time>
      </trkpt>
      <trkpt lat="41.654581780" lon="2.545081740">
        <ele>489.00</ele>
        <time>2014-04-06T11:09:49Z</time>
      </trkpt>
      <trkpt lat="41.654520090" lon="2.545050060">
        <ele>487.80</ele>
        <time>2014-04-06T11:09:50Z</time>
      </trkpt>
      <trkpt lat="41.654456720" lon="2.545018380">
        <ele>486.80</ele>
        <time>2014-04-06T11:09:51Z</time>
      </trkpt>
      <trkpt lat="41.654400060" lon="2.544991720">
        <ele>486.20</ele>
        <time>2014-04-06T11:09:52Z</time>
      </trkpt>
      <trkpt lat="41.654350100" lon="2.544971770">
        <ele>484.80</ele>
        <time>2014-04-06T11:09:53Z</time>
      </trkpt>
      <trkpt lat="41.654305010" lon="2.544955010">
        <ele>483.80</ele>
        <time>2014-04-06T11:09:54Z</time>
      </trkpt>
      <trkpt lat="41.654268460" lon="2.544938410">
        <ele>482.30</ele>
        <time>2014-04-06T11:09:55Z</time>
      </trkpt>
      <trkpt lat="41.654238450" lon="2.544921820">
        <ele>481.10</ele>
        <time>2014-04-06T11:09:56Z</time>
      </trkpt>
      <trkpt lat="41.654211800" lon="2.544901700">
        <ele>479.60</ele>
        <time>2014-04-06T11:09:57Z</time>
      </trkpt>
      <trkpt lat="41.654180120" lon="2.544880080">
        <ele>478.50</ele>
        <time>2014-04-06T11:09:58Z</time>
      </trkpt>
      <trkpt lat="41.654145080" lon="2.544856770">
        <ele>477.70</ele>
        <time>2014-04-06T11:09:59Z</time>
      </trkpt>
      <trkpt lat="41.654105010" lon="2.544835150">
        <ele>476.60</ele>
        <time>2014-04-06T11:10:00Z</time>
      </trkpt>
      <trkpt lat="41.654063440" lon="2.544811680">
        <ele>475.80</ele>
        <time>2014-04-06T11:10:01Z</time>
      </trkpt>
      <trkpt lat="41.654018340" lon="2.544786700">
        <ele>474.60</ele>
        <time>2014-04-06T11:10:02Z</time>
      </trkpt>
      <trkpt lat="41.653973420" lon="2.544763400">
        <ele>473.70</ele>
        <time>2014-04-06T11:10:03Z</time>
      </trkpt>
      <trkpt lat="41.653928490" lon="2.544741770">
        <ele>472.60</ele>
        <time>2014-04-06T11:10:04Z</time>
      </trkpt>
      <trkpt lat="41.653881720" lon="2.544723330">
        <ele>471.80</ele>
        <time>2014-04-06T11:10:05Z</time>
      </trkpt>
      <trkpt lat="41.653836790" lon="2.544711770">
        <ele>471.20</ele>
        <time>2014-04-06T11:10:06Z</time>
      </trkpt>
      <trkpt lat="41.653791700" lon="2.544696680">
        <ele>470.20</ele>
        <time>2014-04-06T11:10:07Z</time>
      </trkpt>
      <trkpt lat="41.653746770" lon="2.544683440">
        <ele>469.30</ele>
        <time>2014-04-06T11:10:08Z</time>
      </trkpt>
      <trkpt lat="41.653698490" lon="2.544668350">
        <ele>468.40</ele>
        <time>2014-04-06T11:10:09Z</time>
      </trkpt>
      <trkpt lat="41.653651720" lon="2.544638340">
        <ele>467.80</ele>
        <time>2014-04-06T11:10:10Z</time>
      </trkpt>
      <trkpt lat="41.653615010" lon="2.544598440">
        <ele>467.30</ele>
        <time>2014-04-06T11:10:11Z</time>
      </trkpt>
      <trkpt lat="41.653581820" lon="2.544560050">
        <ele>466.00</ele>
        <time>2014-04-06T11:10:12Z</time>
      </trkpt>
      <trkpt lat="41.653545100" lon="2.544530050">
        <ele>465.10</ele>
        <time>2014-04-06T11:10:13Z</time>
      </trkpt>
      <trkpt lat="41.653505040" lon="2.544510100">
        <ele>464.00</ele>
        <time>2014-04-06T11:10:14Z</time>
      </trkpt>
      <trkpt lat="41.653471680" lon="2.544481770">
        <ele>463.20</ele>
        <time>2014-04-06T11:10:15Z</time>
      </trkpt>
      <trkpt lat="41.653436810" lon="2.544445060">
        <ele>462.20</ele>
        <time>2014-04-06T11:10:16Z</time>
      </trkpt>
      <trkpt lat="41.653396740" lon="2.544408340">
        <ele>461.50</ele>
        <time>2014-04-06T11:10:17Z</time>
      </trkpt>
      <trkpt lat="41.653358350" lon="2.544385040">
        <ele>460.90</ele>
        <time>2014-04-06T11:10:18Z</time>
      </trkpt>
      <trkpt lat="41.653315100" lon="2.544373470">
        <ele>460.50</ele>
        <time>2014-04-06T11:10:19Z</time>
      </trkpt>
      <trkpt lat="41.653258440" lon="2.544370120">
        <ele>460.20</ele>
        <time>2014-04-06T11:10:20Z</time>
      </trkpt>
      <trkpt lat="41.653200100" lon="2.544375150">
        <ele>458.80</ele>
        <time>2014-04-06T11:10:21Z</time>
      </trkpt>
      <trkpt lat="41.653141770" lon="2.544385040">
        <ele>457.80</ele>
        <time>2014-04-06T11:10:22Z</time>
      </trkpt>
      <trkpt lat="41.653088460" lon="2.544401800">
        <ele>456.90</ele>
        <time>2014-04-06T11:10:23Z</time>
      </trkpt>
      <trkpt lat="41.653038330" lon="2.544423430">
        <ele>456.30</ele>
        <time>2014-04-06T11:10:24Z</time>
      </trkpt>
      <trkpt lat="41.652985020" lon="2.544440030">
        <ele>455.80</ele>
        <time>2014-04-06T11:10:25Z</time>
      </trkpt>
      <trkpt lat="41.652928360" lon="2.544446730">
        <ele>455.00</ele>
        <time>2014-04-06T11:10:26Z</time>
      </trkpt>
      <trkpt lat="41.652866670" lon="2.544443380">
        <ele>454.40</ele>
        <time>2014-04-06T11:10:27Z</time>
      </trkpt>
      <trkpt lat="41.652803470" lon="2.544438350">
        <ele>453.50</ele>
        <time>2014-04-06T11:10:28Z</time>
      </trkpt>
      <trkpt lat="41.652743460" lon="2.544441700">
        <ele>452.90</ele>
        <time>2014-04-06T11:10:29Z</time>
      </trkpt>
      <trkpt lat="41.652683440" lon="2.544443380">
        <ele>452.40</ele>
        <time>2014-04-06T11:10:30Z</time>
      </trkpt>
      <trkpt lat="41.652620080" lon="2.544440030">
        <ele>451.80</ele>
        <time>2014-04-06T11:10:31Z</time>
      </trkpt>
      <trkpt lat="41.652553360" lon="2.544441700">
        <ele>451.30</ele>
        <time>2014-04-06T11:10:32Z</time>
      </trkpt>
      <trkpt lat="41.652485130" lon="2.544448410">
        <ele>450.30</ele>
        <time>2014-04-06T11:10:33Z</time>
      </trkpt>
      <trkpt lat="41.652416730" lon="2.544458470">
        <ele>449.50</ele>
        <time>2014-04-06T11:10:34Z</time>
      </trkpt>
      <trkpt lat="41.652355040" lon="2.544473390">
        <ele>448.70</ele>
        <time>2014-04-06T11:10:35Z</time>
      </trkpt>
      <trkpt lat="41.652296700" lon="2.544490150">
        <ele>448.00</ele>
        <time>2014-04-06T11:10:36Z</time>
      </trkpt>
      <trkpt lat="41.652236690" lon="2.544508420">
        <ele>447.50</ele>
        <time>2014-04-06T11:10:37Z</time>
      </trkpt>
      <trkpt lat="41.652178350" lon="2.544535080">
        <ele>447.00</ele>
        <time>2014-04-06T11:10:38Z</time>
      </trkpt>
      <trkpt lat="41.652120010" lon="2.544563410">
        <ele>446.60</ele>
        <time>2014-04-06T11:10:39Z</time>
      </trkpt>
      <trkpt lat="41.652063350" lon="2.544590060">
        <ele>445.90</ele>
        <time>2014-04-06T11:10:40Z</time>
      </trkpt>
      <trkpt lat="41.652013390" lon="2.544618390">
        <ele>445.40</ele>
        <time>2014-04-06T11:10:41Z</time>
      </trkpt>
      <trkpt lat="41.651968470" lon="2.544653430">
        <ele>444.80</ele>
        <time>2014-04-06T11:10:42Z</time>
      </trkpt>
      <trkpt lat="41.651920020" lon="2.544691820">
        <ele>444.40</ele>
        <time>2014-04-06T11:10:43Z</time>
      </trkpt>
      <trkpt lat="41.651868390" lon="2.544728360">
        <ele>444.00</ele>
        <time>2014-04-06T11:10:44Z</time>
      </trkpt>
      <trkpt lat="41.651816750" lon="2.544775130">
        <ele>443.40</ele>
        <time>2014-04-06T11:10:45Z</time>
      </trkpt>
      <trkpt lat="41.651760090" lon="2.544828440">
        <ele>442.90</ele>
        <time>2014-04-06T11:10:46Z</time>
      </trkpt>
      <trkpt lat="41.651705110" lon="2.544885110">
        <ele>441.80</ele>
        <time>2014-04-06T11:10:47Z</time>
      </trkpt>
      <trkpt lat="41.651653470" lon="2.544935060">
        <ele>441.00</ele>
        <time>2014-04-06T11:10:48Z</time>
      </trkpt>
      <trkpt lat="41.651598490" lon="2.544956690">
        <ele>440.30</ele>
        <time>2014-04-06T11:10:49Z</time>
      </trkpt>
      <trkpt lat="41.651540150" lon="2.544955010">
        <ele>439.50</ele>
        <time>2014-04-06T11:10:50Z</time>
      </trkpt>
      <trkpt lat="41.651475110" lon="2.544940090">
        <ele>438.80</ele>
        <time>2014-04-06T11:10:51Z</time>
      </trkpt>
      <trkpt lat="41.651406710" lon="2.544921820">
        <ele>437.90</ele>
        <time>2014-04-06T11:10:52Z</time>
      </trkpt>
      <trkpt lat="41.651340160" lon="2.544918470">
        <ele>437.20</ele>
        <time>2014-04-06T11:10:53Z</time>
      </trkpt>
      <trkpt lat="41.651275120" lon="2.544935060">
        <ele>436.00</ele>
        <time>2014-04-06T11:10:54Z</time>
      </trkpt>
      <trkpt lat="41.651210070" lon="2.544970100">
        <ele>435.20</ele>
        <time>2014-04-06T11:10:55Z</time>
      </trkpt>
      <trkpt lat="41.651141680" lon="2.545005130">
        <ele>434.50</ele>
        <time>2014-04-06T11:10:56Z</time>
      </trkpt>
      <trkpt lat="41.651073450" lon="2.545030110">
        <ele>434.30</ele>
        <time>2014-04-06T11:10:57Z</time>
      </trkpt>
      <trkpt lat="41.651005050" lon="2.545041680">
        <ele>434.10</ele>
        <time>2014-04-06T11:10:58Z</time>
      </trkpt>
      <trkpt lat="41.650941680" lon="2.545035140">
        <ele>433.40</ele>
        <time>2014-04-06T11:10:59Z</time>
      </trkpt>
      <trkpt lat="41.650886700" lon="2.545010000">
        <ele>432.80</ele>
        <time>2014-04-06T11:11:00Z</time>
      </trkpt>
      <trkpt lat="41.650836740" lon="2.544960040">
        <ele>431.80</ele>
        <time>2014-04-06T11:11:01Z</time>
      </trkpt>
      <trkpt lat="41.650786790" lon="2.544898350">
        <ele>431.10</ele>
        <time>2014-04-06T11:11:02Z</time>
      </trkpt>
      <trkpt lat="41.650731800" lon="2.544835150">
        <ele>430.50</ele>
        <time>2014-04-06T11:11:03Z</time>
      </trkpt>
      <trkpt lat="41.650676820" lon="2.544780000">
        <ele>429.70</ele>
        <time>2014-04-06T11:11:04Z</time>
      </trkpt>
      <trkpt lat="41.650618480" lon="2.544736750">
        <ele>429.10</ele>
        <time>2014-04-06T11:11:05Z</time>
      </trkpt>
      <trkpt lat="41.650563490" lon="2.544703390">
        <ele>428.30</ele>
        <time>2014-04-06T11:11:06Z</time>
      </trkpt>
      <trkpt lat="41.650508340" lon="2.544680080">
        <ele>427.60</ele>
        <time>2014-04-06T11:11:07Z</time>
      </trkpt>
      <trkpt lat="41.650450000" lon="2.544663490">
        <ele>427.20</ele>
        <time>2014-04-06T11:11:08Z</time>
      </trkpt>
      <trkpt lat="41.650388480" lon="2.544650080">
        <ele>426.60</ele>
        <time>2014-04-06T11:11:09Z</time>
      </trkpt>
      <trkpt lat="41.650323430" lon="2.544638340">
        <ele>426.10</ele>
        <time>2014-04-06T11:11:10Z</time>
      </trkpt>
      <trkpt lat="41.650255040" lon="2.544630130">
        <ele>425.20</ele>
        <time>2014-04-06T11:11:11Z</time>
      </trkpt>
      <trkpt lat="41.650186810" lon="2.544633480">
        <ele>424.60</ele>
        <time>2014-04-06T11:11:12Z</time>
      </trkpt>
      <trkpt lat="41.650118410" lon="2.544653430">
        <ele>423.80</ele>
        <time>2014-04-06T11:11:13Z</time>
      </trkpt>
      <trkpt lat="41.650050020" lon="2.544683440">
        <ele>423.20</ele>
        <time>2014-04-06T11:11:14Z</time>
      </trkpt>
      <trkpt lat="41.649978440" lon="2.544715120">
        <ele>422.80</ele>
        <time>2014-04-06T11:11:15Z</time>
      </trkpt>
      <trkpt lat="41.649903330" lon="2.544738420">
        <ele>422.10</ele>
        <time>2014-04-06T11:11:16Z</time>
      </trkpt>
      <trkpt lat="41.649835100" lon="2.544748480">
        <ele>421.60</ele>
        <time>2014-04-06T11:11:17Z</time>
      </trkpt>
      <trkpt lat="41.649775090" lon="2.544733390">
        <ele>421.00</ele>
        <time>2014-04-06T11:11:18Z</time>
      </trkpt>
      <trkpt lat="41.649723460" lon="2.544693490">
        <ele>420.50</ele>
        <time>2014-04-06T11:11:19Z</time>
      </trkpt>
      <trkpt lat="41.649673330" lon="2.544641690">
        <ele>419.70</ele>
        <time>2014-04-06T11:11:20Z</time>
      </trkpt>
      <trkpt lat="41.649630080" lon="2.544581680">
        <ele>419.10</ele>
        <time>2014-04-06T11:11:21Z</time>
      </trkpt>
      <trkpt lat="41.649588340" lon="2.544515130">
        <ele>418.70</ele>
        <time>2014-04-06T11:11:22Z</time>
      </trkpt>
      <trkpt lat="41.649550120" lon="2.544445060">
        <ele>418.30</ele>
        <time>2014-04-06T11:11:23Z</time>
      </trkpt>
      <trkpt lat="41.649511730" lon="2.544376830">
        <ele>418.10</ele>
        <time>2014-04-06T11:11:24Z</time>
      </trkpt>
      <trkpt lat="41.649481720" lon="2.544305080">
        <ele>417.30</ele>
        <time>2014-04-06T11:11:25Z</time>
      </trkpt>
      <trkpt lat="41.649463450" lon="2.544228470">
        <ele>416.80</ele>
        <time>2014-04-06T11:11:26Z</time>
      </trkpt>
      <trkpt lat="41.649450040" lon="2.544151690">
        <ele>416.40</ele>
        <time>2014-04-06T11:11:27Z</time>
      </trkpt>
      <trkpt lat="41.649441830" lon="2.544061670">
        <ele>415.90</ele>
        <time>2014-04-06T11:11:28Z</time>
      </trkpt>
      <trkpt lat="41.649436800" lon="2.543971810">
        <ele>415.60</ele>
        <time>2014-04-06T11:11:29Z</time>
      </trkpt>
      <trkpt lat="41.649430090" lon="2.543876760">
        <ele>415.50</ele>
        <time>2014-04-06T11:11:30Z</time>
      </trkpt>
      <trkpt lat="41.649421710" lon="2.543781710">
        <ele>415.50</ele>
        <time>2014-04-06T11:11:31Z</time>
      </trkpt>
      <trkpt lat="41.649406790" lon="2.543681800">
        <ele>415.10</ele>
        <time>2014-04-06T11:11:32Z</time>
      </trkpt>
      <trkpt lat="41.649386670" lon="2.543578370">
        <ele>414.80</ele>
        <time>2014-04-06T11:11:33Z</time>
      </trkpt>
      <trkpt lat="41.649365050" lon="2.543473420">
        <ele>414.60</ele>
        <time>2014-04-06T11:11:34Z</time>
      </trkpt>
      <trkpt lat="41.649341750" lon="2.543366810">
        <ele>414.20</ele>
        <time>2014-04-06T11:11:35Z</time>
      </trkpt>
      <trkpt lat="41.649318440" lon="2.543258350">
        <ele>413.90</ele>
        <time>2014-04-06T11:11:36Z</time>
      </trkpt>
      <trkpt lat="41.649288440" lon="2.543148370">
        <ele>413.10</ele>
        <time>2014-04-06T11:11:37Z</time>
      </trkpt>
      <trkpt lat="41.649251720" lon="2.543041760">
        <ele>412.60</ele>
        <time>2014-04-06T11:11:38Z</time>
      </trkpt>
      <trkpt lat="41.649213340" lon="2.542935140">
        <ele>411.90</ele>
        <time>2014-04-06T11:11:39Z</time>
      </trkpt>
      <trkpt lat="41.649171760" lon="2.542826680">
        <ele>411.50</ele>
        <time>2014-04-06T11:11:40Z</time>
      </trkpt>
      <trkpt lat="41.649133370" lon="2.542716710">
        <ele>411.10</ele>
        <time>2014-04-06T11:11:41Z</time>
      </trkpt>
      <trkpt lat="41.649103360" lon="2.542603380">
        <ele>410.70</ele>
        <time>2014-04-06T11:11:42Z</time>
      </trkpt>
      <trkpt lat="41.649075030" lon="2.542486710">
        <ele>410.40</ele>
        <time>2014-04-06T11:11:43Z</time>
      </trkpt>
      <trkpt lat="41.649056760" lon="2.542375060">
        <ele>410.00</ele>
        <time>2014-04-06T11:11:44Z</time>
      </trkpt>
      <trkpt lat="41.649050060" lon="2.542261740">
        <ele>409.70</ele>
        <time>2014-04-06T11:11:45Z</time>
      </trkpt>
      <trkpt lat="41.649055080" lon="2.542150090">
        <ele>409.40</ele>
        <time>2014-04-06T11:11:46Z</time>
      </trkpt>
      <trkpt lat="41.649060110" lon="2.542041800">
        <ele>408.70</ele>
        <time>2014-04-06T11:11:47Z</time>
      </trkpt>
      <trkpt lat="41.649050060" lon="2.541938360">
        <ele>408.20</ele>
        <time>2014-04-06T11:11:48Z</time>
      </trkpt>
      <trkpt lat="41.649030110" lon="2.541838450">
        <ele>407.40</ele>
        <time>2014-04-06T11:11:49Z</time>
      </trkpt>
      <trkpt lat="41.649000100" lon="2.541746750">
        <ele>406.90</ele>
        <time>2014-04-06T11:11:50Z</time>
      </trkpt>
      <trkpt lat="41.648961710" lon="2.541666790">
        <ele>406.60</ele>
        <time>2014-04-06T11:11:51Z</time>
      </trkpt>
      <trkpt lat="41.648911750" lon="2.541600070">
        <ele>406.40</ele>
        <time>2014-04-06T11:11:52Z</time>
      </trkpt>
      <trkpt lat="41.648853420" lon="2.541548440">
        <ele>406.30</ele>
        <time>2014-04-06T11:11:53Z</time>
      </trkpt>
      <trkpt lat="41.648790050" lon="2.541506700">
        <ele>405.70</ele>
        <time>2014-04-06T11:11:54Z</time>
      </trkpt>
      <trkpt lat="41.648723330" lon="2.541468470">
        <ele>405.20</ele>
        <time>2014-04-06T11:11:55Z</time>
      </trkpt>
      <trkpt lat="41.648653420" lon="2.541445000">
        <ele>404.90</ele>
        <time>2014-04-06T11:11:56Z</time>
      </trkpt>
      <trkpt lat="41.648581670" lon="2.541433440">
        <ele>404.70</ele>
        <time>2014-04-06T11:11:57Z</time>
      </trkpt>
      <trkpt lat="41.648505060" lon="2.541416670">
        <ele>404.20</ele>
        <time>2014-04-06T11:11:58Z</time>
      </trkpt>
      <trkpt lat="41.648430130" lon="2.541401750">
        <ele>403.80</ele>
        <time>2014-04-06T11:11:59Z</time>
      </trkpt>
      <trkpt lat="41.648351680" lon="2.541380130">
        <ele>403.50</ele>
        <time>2014-04-06T11:12:00Z</time>
      </trkpt>
      <trkpt lat="41.648273390" lon="2.541348440">
        <ele>402.90</ele>
        <time>2014-04-06T11:12:01Z</time>
      </trkpt>
      <trkpt lat="41.648193430" lon="2.541320110">
        <ele>402.40</ele>
        <time>2014-04-06T11:12:02Z</time>
      </trkpt>
      <trkpt lat="41.648118490" lon="2.541301670">
        <ele>401.90</ele>
        <time>2014-04-06T11:12:03Z</time>
      </trkpt>
      <trkpt lat="41.648048420" lon="2.541285080">
        <ele>401.50</ele>
        <time>2014-04-06T11:12:04Z</time>
      </trkpt>
      <trkpt lat="41.647978350" lon="2.541268480">
        <ele>401.30</ele>
        <time>2014-04-06T11:12:05Z</time>
      </trkpt>
      <trkpt lat="41.647913470" lon="2.541236800">
        <ele>401.00</ele>
        <time>2014-04-06T11:12:06Z</time>
      </trkpt>
      <trkpt lat="41.647850100" lon="2.541188350">
        <ele>400.80</ele>
        <time>2014-04-06T11:12:07Z</time>
      </trkpt>
      <trkpt lat="41.647786740" lon="2.541130010">
        <ele>400.00</ele>
        <time>2014-04-06T11:12:08Z</time>
      </trkpt>
      <trkpt lat="41.647725040" lon="2.541070000">
        <ele>399.30</ele>
        <time>2014-04-06T11:12:09Z</time>
      </trkpt>
      <trkpt lat="41.647661680" lon="2.541013340">
        <ele>398.50</ele>
        <time>2014-04-06T11:12:10Z</time>
      </trkpt>
      <trkpt lat="41.647598480" lon="2.540953490">
        <ele>397.90</ele>
        <time>2014-04-06T11:12:11Z</time>
      </trkpt>
      <trkpt lat="41.647535110" lon="2.540896830">
        <ele>397.40</ele>
        <time>2014-04-06T11:12:12Z</time>
      </trkpt>
      <trkpt lat="41.647466710" lon="2.540851730">
        <ele>396.30</ele>
        <time>2014-04-06T11:12:13Z</time>
      </trkpt>
      <trkpt lat="41.647390100" lon="2.540816700">
        <ele>395.40</ele>
        <time>2014-04-06T11:12:14Z</time>
      </trkpt>
      <trkpt lat="41.647305110" lon="2.540795070">
        <ele>394.70</ele>
        <time>2014-04-06T11:12:15Z</time>
      </trkpt>
      <trkpt lat="41.647213410" lon="2.540785010">
        <ele>394.20</ele>
        <time>2014-04-06T11:12:16Z</time>
      </trkpt>
      <trkpt lat="41.647121720" lon="2.540781830">
        <ele>392.60</ele>
        <time>2014-04-06T11:12:17Z</time>
      </trkpt>
      <trkpt lat="41.647025160" lon="2.540770090">
        <ele>391.40</ele>
        <time>2014-04-06T11:12:18Z</time>
      </trkpt>
      <trkpt lat="41.646935130" lon="2.540775120">
        <ele>390.50</ele>
        <time>2014-04-06T11:12:19Z</time>
      </trkpt>
      <trkpt lat="41.646855000" lon="2.540786690">
        <ele>389.50</ele>
        <time>2014-04-06T11:12:20Z</time>
      </trkpt>
      <trkpt lat="41.646780070" lon="2.540805130">
        <ele>388.70</ele>
        <time>2014-04-06T11:12:21Z</time>
      </trkpt>
      <trkpt lat="41.646706810" lon="2.540823400">
        <ele>388.00</ele>
        <time>2014-04-06T11:12:22Z</time>
      </trkpt>
      <trkpt lat="41.646638410" lon="2.540833460">
        <ele>387.50</ele>
        <time>2014-04-06T11:12:23Z</time>
      </trkpt>
      <trkpt lat="41.646573370" lon="2.540831780">
        <ele>386.90</ele>
        <time>2014-04-06T11:12:24Z</time>
      </trkpt>
      <trkpt lat="41.646511680" lon="2.540816700">
        <ele>386.40</ele>
        <time>2014-04-06T11:12:25Z</time>
      </trkpt>
      <trkpt lat="41.646445130" lon="2.540791720">
        <ele>386.00</ele>
        <time>2014-04-06T11:12:26Z</time>
      </trkpt>
      <trkpt lat="41.646373380" lon="2.540765060">
        <ele>384.70</ele>
        <time>2014-04-06T11:12:27Z</time>
      </trkpt>
      <trkpt lat="41.646298440" lon="2.540738410">
        <ele>383.70</ele>
        <time>2014-04-06T11:12:28Z</time>
      </trkpt>
      <trkpt lat="41.646218480" lon="2.540705050">
        <ele>382.50</ele>
        <time>2014-04-06T11:12:29Z</time>
      </trkpt>
      <trkpt lat="41.646141700" lon="2.540670010">
        <ele>381.70</ele>
        <time>2014-04-06T11:12:30Z</time>
      </trkpt>
      <trkpt lat="41.646070120" lon="2.540635140">
        <ele>381.00</ele>
        <time>2014-04-06T11:12:31Z</time>
      </trkpt>
      <trkpt lat="41.646008430" lon="2.540588370">
        <ele>379.90</ele>
        <time>2014-04-06T11:12:32Z</time>
      </trkpt>
      <trkpt lat="41.645955120" lon="2.540521820">
        <ele>379.00</ele>
        <time>2014-04-06T11:12:33Z</time>
      </trkpt>
      <trkpt lat="41.645905000" lon="2.540446720">
        <ele>377.20</ele>
        <time>2014-04-06T11:12:34Z</time>
      </trkpt>
      <trkpt lat="41.645853370" lon="2.540380000">
        <ele>375.90</ele>
        <time>2014-04-06T11:12:35Z</time>
      </trkpt>
      <trkpt lat="41.645791670" lon="2.540331720">
        <ele>374.70</ele>
        <time>2014-04-06T11:12:36Z</time>
      </trkpt>
      <trkpt lat="41.645720090" lon="2.540290150">
        <ele>373.80</ele>
        <time>2014-04-06T11:12:37Z</time>
      </trkpt>
      <trkpt lat="41.645641810" lon="2.540250080">
        <ele>373.20</ele>
        <time>2014-04-06T11:12:38Z</time>
      </trkpt>
      <trkpt lat="41.645560000" lon="2.540210010">
        <ele>372.00</ele>
        <time>2014-04-06T11:12:39Z</time>
      </trkpt>
      <trkpt lat="41.645478360" lon="2.540181680">
        <ele>371.10</ele>
        <time>2014-04-06T11:12:40Z</time>
      </trkpt>
      <trkpt lat="41.645401750" lon="2.540168440">
        <ele>370.00</ele>
        <time>2014-04-06T11:12:41Z</time>
      </trkpt>
      <trkpt lat="41.645333350" lon="2.540161740">
        <ele>369.20</ele>
        <time>2014-04-06T11:12:42Z</time>
      </trkpt>
      <trkpt lat="41.645275010" lon="2.540150000">
        <ele>368.60</ele>
        <time>2014-04-06T11:12:43Z</time>
      </trkpt>
      <trkpt lat="41.645226730" lon="2.540133400">
        <ele>368.10</ele>
        <time>2014-04-06T11:12:44Z</time>
      </trkpt>
      <trkpt lat="41.645188350" lon="2.540118480">
        <ele>367.70</ele>
        <time>2014-04-06T11:12:45Z</time>
      </trkpt>
      <trkpt lat="41.645151800" lon="2.540103400">
        <ele>367.60</ele>
        <time>2014-04-06T11:12:46Z</time>
      </trkpt>
      <trkpt lat="41.645115090" lon="2.540086800">
        <ele>367.50</ele>
        <time>2014-04-06T11:12:47Z</time>
      </trkpt>
      <trkpt lat="41.645080050" lon="2.540068360">
        <ele>367.40</ele>
        <time>2014-04-06T11:12:48Z</time>
      </trkpt>
      <trkpt lat="41.645046690" lon="2.540050090">
        <ele>367.40</ele>
        <time>2014-04-06T11:12:49Z</time>
      </trkpt>
      <trkpt lat="41.645015010" lon="2.540031820">
        <ele>367.30</ele>
        <time>2014-04-06T11:12:50Z</time>
      </trkpt>
      <trkpt lat="41.644981820" lon="2.540013380">
        <ele>367.60</ele>
        <time>2014-04-06T11:12:51Z</time>
      </trkpt>
      <trkpt lat="41.644950130" lon="2.539995100">
        <ele>367.90</ele>
        <time>2014-04-06T11:12:52Z</time>
      </trkpt>
      <trkpt lat="41.644918450" lon="2.539978340">
        <ele>368.30</ele>
        <time>2014-04-06T11:12:53Z</time>
      </trkpt>
      <trkpt lat="41.644888440" lon="2.539963420">
        <ele>368.60</ele>
        <time>2014-04-06T11:12:54Z</time>
      </trkpt>
      <trkpt lat="41.644858430" lon="2.539948330">
        <ele>368.90</ele>
        <time>2014-04-06T11:12:55Z</time>
      </trkpt>
      <trkpt lat="41.644826750" lon="2.539933410">
        <ele>369.10</ele>
        <time>2014-04-06T11:12:56Z</time>
      </trkpt>
      <trkpt lat="41.644793390" lon="2.539918490">
        <ele>369.30</ele>
        <time>2014-04-06T11:12:57Z</time>
      </trkpt>
      <trkpt lat="41.644761710" lon="2.539903400">
        <ele>369.70</ele>
        <time>2014-04-06T11:12:58Z</time>
      </trkpt>
      <trkpt lat="41.644735050" lon="2.539891670">
        <ele>370.10</ele>
        <time>2014-04-06T11:12:59Z</time>
      </trkpt>
      <trkpt lat="41.644710070" lon="2.539876750">
        <ele>370.20</ele>
        <time>2014-04-06T11:13:00Z</time>
      </trkpt>
      <trkpt lat="41.644683420" lon="2.539865020">
        <ele>370.20</ele>
        <time>2014-04-06T11:13:01Z</time>
      </trkpt>
      <trkpt lat="41.644658440" lon="2.539860150">
        <ele>370.90</ele>
        <time>2014-04-06T11:13:02Z</time>
      </trkpt>
      <trkpt lat="41.644635140" lon="2.539866690">
        <ele>371.40</ele>
        <time>2014-04-06T11:13:03Z</time>
      </trkpt>
      <trkpt lat="41.644615020" lon="2.539881780">
        <ele>371.80</ele>
        <time>2014-04-06T11:13:04Z</time>
      </trkpt>
      <trkpt lat="41.644600100" lon="2.539900050">
        <ele>372.10</ele>
        <time>2014-04-06T11:13:05Z</time>
      </trkpt>
      <trkpt lat="41.644588370" lon="2.539920000">
        <ele>372.20</ele>
        <time>2014-04-06T11:13:06Z</time>
      </trkpt>
      <trkpt lat="41.644580150" lon="2.539940120">
        <ele>372.50</ele>
        <time>2014-04-06T11:13:07Z</time>
      </trkpt>
      <trkpt lat="41.644571770" lon="2.539958390">
        <ele>372.80</ele>
        <time>2014-04-06T11:13:08Z</time>
      </trkpt>
      <trkpt lat="41.644561710" lon="2.539976660">
        <ele>372.90</ele>
        <time>2014-04-06T11:13:09Z</time>
      </trkpt>
      <trkpt lat="41.644555010" lon="2.539993430">
        <ele>373.00</ele>
        <time>2014-04-06T11:13:10Z</time>
      </trkpt>
      <trkpt lat="41.644553330" lon="2.540013380">
        <ele>373.00</ele>
        <time>2014-04-06T11:13:11Z</time>
      </trkpt>
      <trkpt lat="41.644550150" lon="2.540038350">
        <ele>373.30</ele>
        <time>2014-04-06T11:13:12Z</time>
      </trkpt>
      <trkpt lat="41.644546790" lon="2.540061820">
        <ele>373.40</ele>
        <time>2014-04-06T11:13:13Z</time>
      </trkpt>
      <trkpt lat="41.644543440" lon="2.540086800">
        <ele>373.90</ele>
        <time>2014-04-06T11:13:14Z</time>
      </trkpt>
      <trkpt lat="41.644540090" lon="2.540110100">
        <ele>374.20</ele>
        <time>2014-04-06T11:13:15Z</time>
      </trkpt>
      <trkpt lat="41.644536740" lon="2.540135080">
        <ele>374.40</ele>
        <time>2014-04-06T11:13:16Z</time>
      </trkpt>
      <trkpt lat="41.644533380" lon="2.540156710">
        <ele>374.60</ele>
        <time>2014-04-06T11:13:17Z</time>
      </trkpt>
      <trkpt lat="41.644530030" lon="2.540180010">
        <ele>374.70</ele>
        <time>2014-04-06T11:13:18Z</time>
      </trkpt>
      <trkpt lat="41.644526680" lon="2.540203480">
        <ele>375.00</ele>
        <time>2014-04-06T11:13:19Z</time>
      </trkpt>
      <trkpt lat="41.644521820" lon="2.540225100">
        <ele>375.30</ele>
        <time>2014-04-06T11:13:20Z</time>
      </trkpt>
      <trkpt lat="41.644516790" lon="2.540248400">
        <ele>375.50</ele>
        <time>2014-04-06T11:13:21Z</time>
      </trkpt>
      <trkpt lat="41.644511760" lon="2.540270030">
        <ele>376.30</ele>
        <time>2014-04-06T11:13:22Z</time>
      </trkpt>
      <trkpt lat="41.644506730" lon="2.540290150">
        <ele>376.90</ele>
        <time>2014-04-06T11:13:23Z</time>
      </trkpt>
      <trkpt lat="41.644501700" lon="2.540311770">
        <ele>377.20</ele>
        <time>2014-04-06T11:13:24Z</time>
      </trkpt>
      <trkpt lat="41.644495160" lon="2.540330040">
        <ele>377.40</ele>
        <time>2014-04-06T11:13:25Z</time>
      </trkpt>
      <trkpt lat="41.644490130" lon="2.540350160">
        <ele>377.80</ele>
        <time>2014-04-06T11:13:26Z</time>
      </trkpt>
      <trkpt lat="41.644480070" lon="2.540366760">
        <ele>378.10</ele>
        <time>2014-04-06T11:13:27Z</time>
      </trkpt>
      <trkpt lat="41.644468340" lon="2.540383350">
        <ele>378.40</ele>
        <time>2014-04-06T11:13:28Z</time>
      </trkpt>
      <trkpt lat="41.644453420" lon="2.540398440">
        <ele>378.40</ele>
        <time>2014-04-06T11:13:29Z</time>
      </trkpt>
      <trkpt lat="41.644438330" lon="2.540411680">
        <ele>378.40</ele>
        <time>2014-04-06T11:13:30Z</time>
      </trkpt>
      <trkpt lat="41.644421740" lon="2.540421740">
        <ele>378.10</ele>
        <time>2014-04-06T11:13:31Z</time>
      </trkpt>
      <trkpt lat="41.644406820" lon="2.540433480">
        <ele>377.80</ele>
        <time>2014-04-06T11:13:32Z</time>
      </trkpt>
      <trkpt lat="41.644390050" lon="2.540441690">
        <ele>378.30</ele>
        <time>2014-04-06T11:13:33Z</time>
      </trkpt>
      <trkpt lat="41.644375130" lon="2.540446720">
        <ele>378.60</ele>
        <time>2014-04-06T11:13:34Z</time>
      </trkpt>
      <trkpt lat="41.644358370" lon="2.540448400">
        <ele>378.80</ele>
        <time>2014-04-06T11:13:35Z</time>
      </trkpt>
      <trkpt lat="41.644341770" lon="2.540443370">
        <ele>379.30</ele>
        <time>2014-04-06T11:13:36Z</time>
      </trkpt>
      <trkpt lat="41.644326690" lon="2.540435150">
        <ele>379.70</ele>
        <time>2014-04-06T11:13:37Z</time>
      </trkpt>
      <trkpt lat="41.644311770" lon="2.540423420">
        <ele>380.00</ele>
        <time>2014-04-06T11:13:38Z</time>
      </trkpt>
      <trkpt lat="41.644298350" lon="2.540410010">
        <ele>380.20</ele>
        <time>2014-04-06T11:13:39Z</time>
      </trkpt>
      <trkpt lat="41.644286790" lon="2.540395090">
        <ele>380.20</ele>
        <time>2014-04-06T11:13:40Z</time>
      </trkpt>
      <trkpt lat="41.644280080" lon="2.540376810">
        <ele>380.20</ele>
        <time>2014-04-06T11:13:41Z</time>
      </trkpt>
      <trkpt lat="41.644278410" lon="2.540358370">
        <ele>380.10</ele>
        <time>2014-04-06T11:13:42Z</time>
      </trkpt>
      <trkpt lat="41.644276730" lon="2.540336750">
        <ele>380.60</ele>
        <time>2014-04-06T11:13:43Z</time>
      </trkpt>
      <trkpt lat="41.644275050" lon="2.540318480">
        <ele>381.00</ele>
        <time>2014-04-06T11:13:44Z</time>
      </trkpt>
      <trkpt lat="41.644270020" lon="2.540298360">
        <ele>381.50</ele>
        <time>2014-04-06T11:13:45Z</time>
      </trkpt>
      <trkpt lat="41.644265160" lon="2.540280090">
        <ele>381.80</ele>
        <time>2014-04-06T11:13:46Z</time>
      </trkpt>
      <trkpt lat="41.644261810" lon="2.540263490">
        <ele>382.00</ele>
        <time>2014-04-06T11:13:47Z</time>
      </trkpt>
      <trkpt lat="41.644256780" lon="2.540241700">
        <ele>382.40</ele>
        <time>2014-04-06T11:13:48Z</time>
      </trkpt>
      <trkpt lat="41.644251750" lon="2.540218400">
        <ele>382.70</ele>
        <time>2014-04-06T11:13:49Z</time>
      </trkpt>
      <trkpt lat="41.644246720" lon="2.540196770">
        <ele>383.30</ele>
        <time>2014-04-06T11:13:50Z</time>
      </trkpt>
      <trkpt lat="41.644241690" lon="2.540176820">
        <ele>383.70</ele>
        <time>2014-04-06T11:13:51Z</time>
      </trkpt>
      <trkpt lat="41.644231800" lon="2.540158380">
        <ele>383.90</ele>
        <time>2014-04-06T11:13:52Z</time>
      </trkpt>
      <trkpt lat="41.644221740" lon="2.540140110">
        <ele>384.20</ele>
        <time>2014-04-06T11:13:53Z</time>
      </trkpt>
      <trkpt lat="41.644210010" lon="2.540121670">
        <ele>384.30</ele>
        <time>2014-04-06T11:13:54Z</time>
      </trkpt>
      <trkpt lat="41.644200120" lon="2.540103400">
        <ele>384.30</ele>
        <time>2014-04-06T11:13:55Z</time>
      </trkpt>
      <trkpt lat="41.644190060" lon="2.540085120">
        <ele>384.20</ele>
        <time>2014-04-06T11:13:56Z</time>
      </trkpt>
      <trkpt lat="41.644180000" lon="2.540066680">
        <ele>384.30</ele>
        <time>2014-04-06T11:13:57Z</time>
      </trkpt>
      <trkpt lat="41.644170110" lon="2.540051760">
        <ele>384.40</ele>
        <time>2014-04-06T11:13:58Z</time>
      </trkpt>
      <trkpt lat="41.644158380" lon="2.540036680">
        <ele>384.60</ele>
        <time>2014-04-06T11:13:59Z</time>
      </trkpt>
      <trkpt lat="41.644148490" lon="2.540020080">
        <ele>384.80</ele>
        <time>2014-04-06T11:14:00Z</time>
      </trkpt>
      <trkpt lat="41.644136750" lon="2.540000130">
        <ele>384.90</ele>
        <time>2014-04-06T11:14:01Z</time>
      </trkpt>
      <trkpt lat="41.644123340" lon="2.539983370">
        <ele>385.60</ele>
        <time>2014-04-06T11:14:02Z</time>
      </trkpt>
      <trkpt lat="41.644110100" lon="2.539966770">
        <ele>386.10</ele>
        <time>2014-04-06T11:14:03Z</time>
      </trkpt>
      <trkpt lat="41.644096690" lon="2.539951680">
        <ele>386.30</ele>
        <time>2014-04-06T11:14:04Z</time>
      </trkpt>
      <trkpt lat="41.644083440" lon="2.539935090">
        <ele>386.40</ele>
        <time>2014-04-06T11:14:05Z</time>
      </trkpt>
      <trkpt lat="41.644070030" lon="2.539918490">
        <ele>386.50</ele>
        <time>2014-04-06T11:14:06Z</time>
      </trkpt>
      <trkpt lat="41.644058460" lon="2.539901730">
        <ele>386.90</ele>
        <time>2014-04-06T11:14:07Z</time>
      </trkpt>
      <trkpt lat="41.644045050" lon="2.539886810">
        <ele>387.30</ele>
        <time>2014-04-06T11:14:08Z</time>
      </trkpt>
      <trkpt lat="41.644031810" lon="2.539870040">
        <ele>387.60</ele>
        <time>2014-04-06T11:14:09Z</time>
      </trkpt>
      <trkpt lat="41.644018400" lon="2.539855130">
        <ele>387.80</ele>
        <time>2014-04-06T11:14:10Z</time>
      </trkpt>
      <trkpt lat="41.644003480" lon="2.539840040">
        <ele>388.00</ele>
        <time>2014-04-06T11:14:11Z</time>
      </trkpt>
      <trkpt lat="41.643990070" lon="2.539828470">
        <ele>388.10</ele>
        <time>2014-04-06T11:14:12Z</time>
      </trkpt>
      <trkpt lat="41.643975150" lon="2.539815060">
        <ele>388.20</ele>
        <time>2014-04-06T11:14:13Z</time>
      </trkpt>
      <trkpt lat="41.643961740" lon="2.539798460">
        <ele>388.60</ele>
        <time>2014-04-06T11:14:14Z</time>
      </trkpt>
      <trkpt lat="41.643948490" lon="2.539783380">
        <ele>388.90</ele>
        <time>2014-04-06T11:14:15Z</time>
      </trkpt>
      <trkpt lat="41.643935080" lon="2.539766780">
        <ele>389.10</ele>
        <time>2014-04-06T11:14:16Z</time>
      </trkpt>
      <trkpt lat="41.643920000" lon="2.539748340">
        <ele>389.20</ele>
        <time>2014-04-06T11:14:17Z</time>
      </trkpt>
      <trkpt lat="41.643906750" lon="2.539730070">
        <ele>389.60</ele>
        <time>2014-04-06T11:14:18Z</time>
      </trkpt>
      <trkpt lat="41.643891660" lon="2.539711790">
        <ele>389.80</ele>
        <time>2014-04-06T11:14:19Z</time>
      </trkpt>
      <trkpt lat="41.643876750" lon="2.539695030">
        <ele>390.00</ele>
        <time>2014-04-06T11:14:20Z</time>
      </trkpt>
      <trkpt lat="41.643860150" lon="2.539680110">
        <ele>389.90</ele>
        <time>2014-04-06T11:14:21Z</time>
      </trkpt>
      <trkpt lat="41.643843390" lon="2.539666700">
        <ele>389.80</ele>
        <time>2014-04-06T11:14:22Z</time>
      </trkpt>
      <trkpt lat="41.643830140" lon="2.539651780">
        <ele>389.80</ele>
        <time>2014-04-06T11:14:23Z</time>
      </trkpt>
      <trkpt lat="41.643816730" lon="2.539640050">
        <ele>389.70</ele>
        <time>2014-04-06T11:14:24Z</time>
      </trkpt>
      <trkpt lat="41.643801810" lon="2.539631660">
        <ele>389.70</ele>
        <time>2014-04-06T11:14:25Z</time>
      </trkpt>
      <trkpt lat="41.643785050" lon="2.539621770">
        <ele>390.30</ele>
        <time>2014-04-06T11:14:26Z</time>
      </trkpt>
      <trkpt lat="41.643766770" lon="2.539611710">
        <ele>390.80</ele>
        <time>2014-04-06T11:14:27Z</time>
      </trkpt>
      <trkpt lat="41.643746830" lon="2.539601820">
        <ele>391.40</ele>
        <time>2014-04-06T11:14:28Z</time>
      </trkpt>
      <trkpt lat="41.643730060" lon="2.539593440">
        <ele>391.90</ele>
        <time>2014-04-06T11:14:29Z</time>
      </trkpt>
      <trkpt lat="41.643713470" lon="2.539583380">
        <ele>392.40</ele>
        <time>2014-04-06T11:14:30Z</time>
      </trkpt>
      <trkpt lat="41.643696700" lon="2.539576680">
        <ele>392.80</ele>
        <time>2014-04-06T11:14:31Z</time>
      </trkpt>
      <trkpt lat="41.643678430" lon="2.539570140">
        <ele>393.10</ele>
        <time>2014-04-06T11:14:32Z</time>
      </trkpt>
      <trkpt lat="41.643661670" lon="2.539561760">
        <ele>393.00</ele>
        <time>2014-04-06T11:14:33Z</time>
      </trkpt>
      <trkpt lat="41.643645070" lon="2.539553380">
        <ele>392.90</ele>
        <time>2014-04-06T11:14:34Z</time>
      </trkpt>
      <trkpt lat="41.643626800" lon="2.539543490">
        <ele>393.20</ele>
        <time>2014-04-06T11:14:35Z</time>
      </trkpt>
      <trkpt lat="41.643608360" lon="2.539536780">
        <ele>393.50</ele>
        <time>2014-04-06T11:14:36Z</time>
      </trkpt>
      <trkpt lat="41.643591760" lon="2.539526720">
        <ele>393.60</ele>
        <time>2014-04-06T11:14:37Z</time>
      </trkpt>
      <trkpt lat="41.643573490" lon="2.539518340">
        <ele>393.70</ele>
        <time>2014-04-06T11:14:38Z</time>
      </trkpt>
      <trkpt lat="41.643555050" lon="2.539510130">
        <ele>393.70</ele>
        <time>2014-04-06T11:14:39Z</time>
      </trkpt>
      <trkpt lat="41.643538450" lon="2.539501740">
        <ele>394.20</ele>
        <time>2014-04-06T11:14:40Z</time>
      </trkpt>
      <trkpt lat="41.643521690" lon="2.539493360">
        <ele>394.50</ele>
        <time>2014-04-06T11:14:41Z</time>
      </trkpt>
      <trkpt lat="41.643505090" lon="2.539486820">
        <ele>395.20</ele>
        <time>2014-04-06T11:14:42Z</time>
      </trkpt>
      <trkpt lat="41.643488500" lon="2.539478440">
        <ele>395.80</ele>
        <time>2014-04-06T11:14:43Z</time>
      </trkpt>
      <trkpt lat="41.643471730" lon="2.539468380">
        <ele>396.10</ele>
        <time>2014-04-06T11:14:44Z</time>
      </trkpt>
      <trkpt lat="41.643456810" lon="2.539456820">
        <ele>396.20</ele>
        <time>2014-04-06T11:14:45Z</time>
      </trkpt>
      <trkpt lat="41.643441720" lon="2.539446760">
        <ele>396.20</ele>
        <time>2014-04-06T11:14:46Z</time>
      </trkpt>
      <trkpt lat="41.643415070" lon="2.539428490">
        <ele>396.50</ele>
        <time>2014-04-06T11:14:47Z</time>
      </trkpt>
      <trkpt lat="41.643400150" lon="2.539416750">
        <ele>396.70</ele>
        <time>2014-04-06T11:14:48Z</time>
      </trkpt>
      <trkpt lat="41.643381710" lon="2.539403340">
        <ele>397.00</ele>
        <time>2014-04-06T11:14:49Z</time>
      </trkpt>
      <trkpt lat="41.643365110" lon="2.539386740">
        <ele>397.10</ele>
        <time>2014-04-06T11:14:50Z</time>
      </trkpt>
      <trkpt lat="41.643351700" lon="2.539368470">
        <ele>397.30</ele>
        <time>2014-04-06T11:14:51Z</time>
      </trkpt>
      <trkpt lat="41.643340140" lon="2.539350030">
        <ele>397.30</ele>
        <time>2014-04-06T11:14:52Z</time>
      </trkpt>
      <trkpt lat="41.643328400" lon="2.539330080">
        <ele>397.40</ele>
        <time>2014-04-06T11:14:53Z</time>
      </trkpt>
      <trkpt lat="41.643318340" lon="2.539311810">
        <ele>397.80</ele>
        <time>2014-04-06T11:14:54Z</time>
      </trkpt>
      <trkpt lat="41.643310130" lon="2.539293370">
        <ele>398.10</ele>
        <time>2014-04-06T11:14:55Z</time>
      </trkpt>
      <trkpt lat="41.643300070" lon="2.539275100">
        <ele>398.50</ele>
        <time>2014-04-06T11:14:56Z</time>
      </trkpt>
      <trkpt lat="41.643290010" lon="2.539258330">
        <ele>398.80</ele>
        <time>2014-04-06T11:14:57Z</time>
      </trkpt>
      <trkpt lat="41.643280120" lon="2.539240060">
        <ele>399.00</ele>
        <time>2014-04-06T11:14:58Z</time>
      </trkpt>
      <trkpt lat="41.643270060" lon="2.539221790">
        <ele>399.80</ele>
        <time>2014-04-06T11:14:59Z</time>
      </trkpt>
      <trkpt lat="41.643258500" lon="2.539205020">
        <ele>400.40</ele>
        <time>2014-04-06T11:15:00Z</time>
      </trkpt>
      <trkpt lat="41.643246760" lon="2.539186750">
        <ele>400.70</ele>
        <time>2014-04-06T11:15:01Z</time>
      </trkpt>
      <trkpt lat="41.643233350" lon="2.539170160">
        <ele>400.90</ele>
        <time>2014-04-06T11:15:02Z</time>
      </trkpt>
      <trkpt lat="41.643218430" lon="2.539158420">
        <ele>401.10</ele>
        <time>2014-04-06T11:15:03Z</time>
      </trkpt>
      <trkpt lat="41.643203340" lon="2.539146690">
        <ele>401.40</ele>
        <time>2014-04-06T11:15:04Z</time>
      </trkpt>
      <trkpt lat="41.643188420" lon="2.539133440">
        <ele>401.50</ele>
        <time>2014-04-06T11:15:05Z</time>
      </trkpt>
      <trkpt lat="41.643173340" lon="2.539121710">
        <ele>402.20</ele>
        <time>2014-04-06T11:15:06Z</time>
      </trkpt>
      <trkpt lat="41.643158420" lon="2.539110140">
        <ele>402.70</ele>
        <time>2014-04-06T11:15:07Z</time>
      </trkpt>
      <trkpt lat="41.643140140" lon="2.539100080">
        <ele>402.20</ele>
        <time>2014-04-06T11:15:08Z</time>
      </trkpt>
      <trkpt lat="41.643118350" lon="2.539088350">
        <ele>401.90</ele>
        <time>2014-04-06T11:15:09Z</time>
      </trkpt>
      <trkpt lat="41.643098400" lon="2.539078460">
        <ele>401.70</ele>
        <time>2014-04-06T11:15:10Z</time>
      </trkpt>
      <trkpt lat="41.643078450" lon="2.539066720">
        <ele>402.00</ele>
        <time>2014-04-06T11:15:11Z</time>
      </trkpt>
      <trkpt lat="41.643060010" lon="2.539056660">
        <ele>402.20</ele>
        <time>2014-04-06T11:15:12Z</time>
      </trkpt>
      <trkpt lat="41.643041740" lon="2.539048450">
        <ele>402.60</ele>
        <time>2014-04-06T11:15:13Z</time>
      </trkpt>
      <trkpt lat="41.643023470" lon="2.539041750">
        <ele>403.00</ele>
        <time>2014-04-06T11:15:14Z</time>
      </trkpt>
      <trkpt lat="41.643005030" lon="2.539035040">
        <ele>403.50</ele>
        <time>2014-04-06T11:15:15Z</time>
      </trkpt>
      <trkpt lat="41.642988430" lon="2.539028330">
        <ele>404.00</ele>
        <time>2014-04-06T11:15:16Z</time>
      </trkpt>
      <trkpt lat="41.642970160" lon="2.539018440">
        <ele>404.30</ele>
        <time>2014-04-06T11:15:17Z</time>
      </trkpt>
      <trkpt lat="41.642951720" lon="2.539008390">
        <ele>404.60</ele>
        <time>2014-04-06T11:15:18Z</time>
      </trkpt>
      <trkpt lat="41.642933450" lon="2.538998490">
        <ele>404.80</ele>
        <time>2014-04-06T11:15:19Z</time>
      </trkpt>
      <trkpt lat="41.642915010" lon="2.538986760">
        <ele>404.70</ele>
        <time>2014-04-06T11:15:20Z</time>
      </trkpt>
      <trkpt lat="41.642896730" lon="2.538975030">
        <ele>404.70</ele>
        <time>2014-04-06T11:15:21Z</time>
      </trkpt>
      <trkpt lat="41.642876780" lon="2.538961780">
        <ele>404.60</ele>
        <time>2014-04-06T11:15:22Z</time>
      </trkpt>
      <trkpt lat="41.642858340" lon="2.538946690">
        <ele>405.00</ele>
        <time>2014-04-06T11:15:23Z</time>
      </trkpt>
      <trkpt lat="41.642840070" lon="2.538931770">
        <ele>405.30</ele>
        <time>2014-04-06T11:15:24Z</time>
      </trkpt>
      <trkpt lat="41.642821800" lon="2.538915010">
        <ele>405.80</ele>
        <time>2014-04-06T11:15:25Z</time>
      </trkpt>
      <trkpt lat="41.642800010" lon="2.538900090">
        <ele>406.20</ele>
        <time>2014-04-06T11:15:26Z</time>
      </trkpt>
      <trkpt lat="41.642780060" lon="2.538883490">
        <ele>406.30</ele>
        <time>2014-04-06T11:15:27Z</time>
      </trkpt>
      <trkpt lat="41.642758430" lon="2.538861700">
        <ele>406.40</ele>
        <time>2014-04-06T11:15:28Z</time>
      </trkpt>
      <trkpt lat="41.642735130" lon="2.538841750">
        <ele>406.40</ele>
        <time>2014-04-06T11:15:29Z</time>
      </trkpt>
      <trkpt lat="41.642713340" lon="2.538823480">
        <ele>406.50</ele>
        <time>2014-04-06T11:15:30Z</time>
      </trkpt>
      <trkpt lat="41.642695060" lon="2.538805040">
        <ele>406.60</ele>
        <time>2014-04-06T11:15:31Z</time>
      </trkpt>
      <trkpt lat="41.642676790" lon="2.538786770">
        <ele>406.80</ele>
        <time>2014-04-06T11:15:32Z</time>
      </trkpt>
      <trkpt lat="41.642658350" lon="2.538768500">
        <ele>406.90</ele>
        <time>2014-04-06T11:15:33Z</time>
      </trkpt>
      <trkpt lat="41.642641760" lon="2.538751730">
        <ele>406.60</ele>
        <time>2014-04-06T11:15:34Z</time>
      </trkpt>
      <trkpt lat="41.642625160" lon="2.538733460">
        <ele>406.40</ele>
        <time>2014-04-06T11:15:35Z</time>
      </trkpt>
      <trkpt lat="41.642610070" lon="2.538715020">
        <ele>406.30</ele>
        <time>2014-04-06T11:15:36Z</time>
      </trkpt>
      <trkpt lat="41.642595150" lon="2.538698420">
        <ele>406.70</ele>
        <time>2014-04-06T11:15:37Z</time>
      </trkpt>
      <trkpt lat="41.642580060" lon="2.538683330">
        <ele>407.00</ele>
        <time>2014-04-06T11:15:38Z</time>
      </trkpt>
      <trkpt lat="41.642565140" lon="2.538668420">
        <ele>407.20</ele>
        <time>2014-04-06T11:15:39Z</time>
      </trkpt>
      <trkpt lat="41.642551730" lon="2.538653500">
        <ele>407.30</ele>
        <time>2014-04-06T11:15:40Z</time>
      </trkpt>
      <trkpt lat="41.642538490" lon="2.538636730">
        <ele>407.40</ele>
        <time>2014-04-06T11:15:41Z</time>
      </trkpt>
      <trkpt lat="41.642525080" lon="2.538621810">
        <ele>407.00</ele>
        <time>2014-04-06T11:15:42Z</time>
      </trkpt>
      <trkpt lat="41.642510160" lon="2.538606720">
        <ele>406.80</ele>
        <time>2014-04-06T11:15:43Z</time>
      </trkpt>
      <trkpt lat="41.642493400" lon="2.538595160">
        <ele>407.10</ele>
        <time>2014-04-06T11:15:44Z</time>
      </trkpt>
      <trkpt lat="41.642476800" lon="2.538583420">
        <ele>407.30</ele>
        <time>2014-04-06T11:15:45Z</time>
      </trkpt>
      <trkpt lat="41.642458360" lon="2.538570010">
        <ele>407.20</ele>
        <time>2014-04-06T11:15:46Z</time>
      </trkpt>
      <trkpt lat="41.642436730" lon="2.538561800">
        <ele>407.10</ele>
        <time>2014-04-06T11:15:47Z</time>
      </trkpt>
      <trkpt lat="41.642413430" lon="2.538555090">
        <ele>407.00</ele>
        <time>2014-04-06T11:15:48Z</time>
      </trkpt>
      <trkpt lat="41.642390130" lon="2.538546710">
        <ele>407.20</ele>
        <time>2014-04-06T11:15:49Z</time>
      </trkpt>
      <trkpt lat="41.642365150" lon="2.538543360">
        <ele>407.40</ele>
        <time>2014-04-06T11:15:50Z</time>
      </trkpt>
      <trkpt lat="41.642338330" lon="2.538543360">
        <ele>407.50</ele>
        <time>2014-04-06T11:15:51Z</time>
      </trkpt>
      <trkpt lat="41.642313350" lon="2.538541680">
        <ele>407.60</ele>
        <time>2014-04-06T11:15:52Z</time>
      </trkpt>
      <trkpt lat="41.642283350" lon="2.538543360">
        <ele>407.40</ele>
        <time>2014-04-06T11:15:53Z</time>
      </trkpt>
      <trkpt lat="41.642253340" lon="2.538545030">
        <ele>407.20</ele>
        <time>2014-04-06T11:15:54Z</time>
      </trkpt>
      <trkpt lat="41.642223330" lon="2.538543360">
        <ele>407.10</ele>
        <time>2014-04-06T11:15:55Z</time>
      </trkpt>
      <trkpt lat="41.642193490" lon="2.538543360">
        <ele>407.00</ele>
        <time>2014-04-06T11:15:56Z</time>
      </trkpt>
      <trkpt lat="41.642161810" lon="2.538541680">
        <ele>406.90</ele>
        <time>2014-04-06T11:15:57Z</time>
      </trkpt>
      <trkpt lat="41.642130120" lon="2.538536820">
        <ele>406.20</ele>
        <time>2014-04-06T11:15:58Z</time>
      </trkpt>
      <trkpt lat="41.642096760" lon="2.538525080">
        <ele>405.70</ele>
        <time>2014-04-06T11:15:59Z</time>
      </trkpt>
      <trkpt lat="41.642063400" lon="2.538511670">
        <ele>405.40</ele>
        <time>2014-04-06T11:16:00Z</time>
      </trkpt>
      <trkpt lat="41.642028370" lon="2.538498430">
        <ele>405.70</ele>
        <time>2014-04-06T11:16:01Z</time>
      </trkpt>
      <trkpt lat="41.641995010" lon="2.538483340">
        <ele>406.00</ele>
        <time>2014-04-06T11:16:02Z</time>
      </trkpt>
      <trkpt lat="41.641963490" lon="2.538463390">
        <ele>405.90</ele>
        <time>2014-04-06T11:16:03Z</time>
      </trkpt>
      <trkpt lat="41.641933480" lon="2.538445120">
        <ele>405.80</ele>
        <time>2014-04-06T11:16:04Z</time>
      </trkpt>
      <trkpt lat="41.641905150" lon="2.538428360">
        <ele>405.70</ele>
        <time>2014-04-06T11:16:05Z</time>
      </trkpt>
      <trkpt lat="41.641880010" lon="2.538413440">
        <ele>405.60</ele>
        <time>2014-04-06T11:16:06Z</time>
      </trkpt>
      <trkpt lat="41.641858380" lon="2.538395000">
        <ele>405.50</ele>
        <time>2014-04-06T11:16:07Z</time>
      </trkpt>
      <trkpt lat="41.641836760" lon="2.538371700">
        <ele>405.90</ele>
        <time>2014-04-06T11:16:08Z</time>
      </trkpt>
      <trkpt lat="41.641816810" lon="2.538348390">
        <ele>406.10</ele>
        <time>2014-04-06T11:16:09Z</time>
      </trkpt>
      <trkpt lat="41.641798370" lon="2.538325090">
        <ele>405.70</ele>
        <time>2014-04-06T11:16:10Z</time>
      </trkpt>
      <trkpt lat="41.641783450" lon="2.538301790">
        <ele>405.40</ele>
        <time>2014-04-06T11:16:11Z</time>
      </trkpt>
      <trkpt lat="41.641768360" lon="2.538278490">
        <ele>405.40</ele>
        <time>2014-04-06T11:16:12Z</time>
      </trkpt>
      <trkpt lat="41.641755120" lon="2.538255020">
        <ele>405.50</ele>
        <time>2014-04-06T11:16:13Z</time>
      </trkpt>
      <trkpt lat="41.641741710" lon="2.538231720">
        <ele>405.50</ele>
        <time>2014-04-06T11:16:14Z</time>
      </trkpt>
      <trkpt lat="41.641726790" lon="2.538211770">
        <ele>405.20</ele>
        <time>2014-04-06T11:16:15Z</time>
      </trkpt>
      <trkpt lat="41.641713380" lon="2.538188470">
        <ele>405.10</ele>
        <time>2014-04-06T11:16:16Z</time>
      </trkpt>
      <trkpt lat="41.641700130" lon="2.538165000">
        <ele>405.10</ele>
        <time>2014-04-06T11:16:17Z</time>
      </trkpt>
      <trkpt lat="41.641685040" lon="2.538141700">
        <ele>405.10</ele>
        <time>2014-04-06T11:16:18Z</time>
      </trkpt>
      <trkpt lat="41.641670130" lon="2.538120070">
        <ele>405.30</ele>
        <time>2014-04-06T11:16:19Z</time>
      </trkpt>
      <trkpt lat="41.641658390" lon="2.538096770">
        <ele>405.40</ele>
        <time>2014-04-06T11:16:20Z</time>
      </trkpt>
      <trkpt lat="41.641646820" lon="2.538071790">
        <ele>405.50</ele>
        <time>2014-04-06T11:16:21Z</time>
      </trkpt>
      <trkpt lat="41.641638440" lon="2.538043460">
        <ele>405.70</ele>
        <time>2014-04-06T11:16:22Z</time>
      </trkpt>
      <trkpt lat="41.641630060" lon="2.538013450">
        <ele>405.90</ele>
        <time>2014-04-06T11:16:23Z</time>
      </trkpt>
      <trkpt lat="41.641621680" lon="2.537978420">
        <ele>405.80</ele>
        <time>2014-04-06T11:16:24Z</time>
      </trkpt>
      <trkpt lat="41.641616820" lon="2.537940030">
        <ele>405.80</ele>
        <time>2014-04-06T11:16:25Z</time>
      </trkpt>
      <trkpt lat="41.641611790" lon="2.537900130">
        <ele>405.70</ele>
        <time>2014-04-06T11:16:26Z</time>
      </trkpt>
      <trkpt lat="41.641606760" lon="2.537856710">
        <ele>405.80</ele>
        <time>2014-04-06T11:16:27Z</time>
      </trkpt>
      <trkpt lat="41.641600050" lon="2.537808430">
        <ele>405.80</ele>
        <time>2014-04-06T11:16:28Z</time>
      </trkpt>
      <trkpt lat="41.641595020" lon="2.537753450">
        <ele>405.60</ele>
        <time>2014-04-06T11:16:29Z</time>
      </trkpt>
      <trkpt lat="41.641591670" lon="2.537696780">
        <ele>405.40</ele>
        <time>2014-04-06T11:16:30Z</time>
      </trkpt>
      <trkpt lat="41.641588490" lon="2.537640120">
        <ele>405.50</ele>
        <time>2014-04-06T11:16:31Z</time>
      </trkpt>
      <trkpt lat="41.641583460" lon="2.537583460">
        <ele>405.60</ele>
        <time>2014-04-06T11:16:32Z</time>
      </trkpt>
      <trkpt lat="41.641578430" lon="2.537525120">
        <ele>405.70</ele>
        <time>2014-04-06T11:16:33Z</time>
      </trkpt>
      <trkpt lat="41.641576750" lon="2.537465110">
        <ele>406.10</ele>
        <time>2014-04-06T11:16:34Z</time>
      </trkpt>
      <trkpt lat="41.641580100" lon="2.537403420">
        <ele>406.30</ele>
        <time>2014-04-06T11:16:35Z</time>
      </trkpt>
      <trkpt lat="41.641588490" lon="2.537341730">
        <ele>406.30</ele>
        <time>2014-04-06T11:16:36Z</time>
      </trkpt>
      <trkpt lat="41.641593350" lon="2.537283390">
        <ele>406.30</ele>
        <time>2014-04-06T11:16:37Z</time>
      </trkpt>
      <trkpt lat="41.641603410" lon="2.537230080">
        <ele>406.30</ele>
        <time>2014-04-06T11:16:38Z</time>
      </trkpt>
      <trkpt lat="41.641618490" lon="2.537180120">
        <ele>406.00</ele>
        <time>2014-04-06T11:16:39Z</time>
      </trkpt>
      <trkpt lat="41.641630060" lon="2.537136710">
        <ele>405.80</ele>
        <time>2014-04-06T11:16:40Z</time>
      </trkpt>
      <trkpt lat="41.641633410" lon="2.537096810">
        <ele>405.70</ele>
        <time>2014-04-06T11:16:41Z</time>
      </trkpt>
      <trkpt lat="41.641633410" lon="2.537060100">
        <ele>405.60</ele>
        <time>2014-04-06T11:16:42Z</time>
      </trkpt>
      <trkpt lat="41.641625030" lon="2.537028410">
        <ele>405.20</ele>
        <time>2014-04-06T11:16:43Z</time>
      </trkpt>
      <trkpt lat="41.641615140" lon="2.537000080">
        <ele>404.90</ele>
        <time>2014-04-06T11:16:44Z</time>
      </trkpt>
      <trkpt lat="41.641608430" lon="2.536971750">
        <ele>404.60</ele>
        <time>2014-04-06T11:16:45Z</time>
      </trkpt>
      <trkpt lat="41.641598380" lon="2.536945100">
        <ele>404.90</ele>
        <time>2014-04-06T11:16:46Z</time>
      </trkpt>
      <trkpt lat="41.641590160" lon="2.536913410">
        <ele>405.10</ele>
        <time>2014-04-06T11:16:47Z</time>
      </trkpt>
      <trkpt lat="41.641580100" lon="2.536881730">
        <ele>405.40</ele>
        <time>2014-04-06T11:16:48Z</time>
      </trkpt>
      <trkpt lat="41.641565020" lon="2.536850050">
        <ele>405.60</ele>
        <time>2014-04-06T11:16:49Z</time>
      </trkpt>
      <trkpt lat="41.641545070" lon="2.536820040">
        <ele>405.70</ele>
        <time>2014-04-06T11:16:50Z</time>
      </trkpt>
      <trkpt lat="41.641518410" lon="2.536788350">
        <ele>405.70</ele>
        <time>2014-04-06T11:16:51Z</time>
      </trkpt>
      <trkpt lat="41.641488410" lon="2.536751810">
        <ele>405.70</ele>
        <time>2014-04-06T11:16:52Z</time>
      </trkpt>
      <trkpt lat="41.641460070" lon="2.536710070">
        <ele>405.20</ele>
        <time>2014-04-06T11:16:53Z</time>
      </trkpt>
      <trkpt lat="41.641440130" lon="2.536658430">
        <ele>404.70</ele>
        <time>2014-04-06T11:16:54Z</time>
      </trkpt>
      <trkpt lat="41.641420010" lon="2.536606800">
        <ele>404.40</ele>
        <time>2014-04-06T11:16:55Z</time>
      </trkpt>
      <trkpt lat="41.641403410" lon="2.536551820">
        <ele>404.10</ele>
        <time>2014-04-06T11:16:56Z</time>
      </trkpt>
      <trkpt lat="41.641391680" lon="2.536495160">
        <ele>403.80</ele>
        <time>2014-04-06T11:16:57Z</time>
      </trkpt>
      <trkpt lat="41.641376760" lon="2.536438490">
        <ele>403.60</ele>
        <time>2014-04-06T11:16:58Z</time>
      </trkpt>
      <trkpt lat="41.641363350" lon="2.536380160">
        <ele>403.50</ele>
        <time>2014-04-06T11:16:59Z</time>
      </trkpt>
      <trkpt lat="41.641348430" lon="2.536320140">
        <ele>402.90</ele>
        <time>2014-04-06T11:17:00Z</time>
      </trkpt>
      <trkpt lat="41.641331660" lon="2.536256770">
        <ele>402.40</ele>
        <time>2014-04-06T11:17:01Z</time>
      </trkpt>
      <trkpt lat="41.641315070" lon="2.536185020">
        <ele>402.10</ele>
        <time>2014-04-06T11:17:02Z</time>
      </trkpt>
      <trkpt lat="41.641296800" lon="2.536113440">
        <ele>401.90</ele>
        <time>2014-04-06T11:17:03Z</time>
      </trkpt>
      <trkpt lat="41.641271820" lon="2.536043370">
        <ele>401.70</ele>
        <time>2014-04-06T11:17:04Z</time>
      </trkpt>
      <trkpt lat="41.641246670" lon="2.535973470">
        <ele>401.50</ele>
        <time>2014-04-06T11:17:05Z</time>
      </trkpt>
      <trkpt lat="41.641221690" lon="2.535905070">
        <ele>401.30</ele>
        <time>2014-04-06T11:17:06Z</time>
      </trkpt>
      <trkpt lat="41.641198390" lon="2.535840030">
        <ele>400.40</ele>
        <time>2014-04-06T11:17:07Z</time>
      </trkpt>
      <trkpt lat="41.641175090" lon="2.535776830">
        <ele>399.70</ele>
        <time>2014-04-06T11:17:08Z</time>
      </trkpt>
      <trkpt lat="41.641150110" lon="2.535716810">
        <ele>399.20</ele>
        <time>2014-04-06T11:17:09Z</time>
      </trkpt>
      <trkpt lat="41.641126810" lon="2.535663340">
        <ele>398.80</ele>
        <time>2014-04-06T11:17:10Z</time>
      </trkpt>
      <trkpt lat="41.641108370" lon="2.535615060">
        <ele>398.50</ele>
        <time>2014-04-06T11:17:11Z</time>
      </trkpt>
      <trkpt lat="41.641085070" lon="2.535563420">
        <ele>398.20</ele>
        <time>2014-04-06T11:17:12Z</time>
      </trkpt>
      <trkpt lat="41.641058410" lon="2.535511790">
        <ele>398.00</ele>
        <time>2014-04-06T11:17:13Z</time>
      </trkpt>
      <trkpt lat="41.641026730" lon="2.535461670">
        <ele>397.90</ele>
        <time>2014-04-06T11:17:14Z</time>
      </trkpt>
      <trkpt lat="41.640991690" lon="2.535426800">
        <ele>397.80</ele>
        <time>2014-04-06T11:17:15Z</time>
      </trkpt>
      <trkpt lat="41.640958330" lon="2.535403330">
        <ele>397.70</ele>
        <time>2014-04-06T11:17:16Z</time>
      </trkpt>
      <trkpt lat="41.640935030" lon="2.535390090">
        <ele>397.60</ele>
        <time>2014-04-06T11:17:17Z</time>
      </trkpt>
      <trkpt lat="41.640913410" lon="2.535378350">
        <ele>397.50</ele>
        <time>2014-04-06T11:17:18Z</time>
      </trkpt>
      <trkpt lat="41.640893460" lon="2.535360080">
        <ele>396.90</ele>
        <time>2014-04-06T11:17:19Z</time>
      </trkpt>
      <trkpt lat="41.640876690" lon="2.535338450">
        <ele>396.40</ele>
        <time>2014-04-06T11:17:20Z</time>
      </trkpt>
      <trkpt lat="41.640858420" lon="2.535315150">
        <ele>396.20</ele>
        <time>2014-04-06T11:17:21Z</time>
      </trkpt>
      <trkpt lat="41.640843330" lon="2.535293360">
        <ele>396.00</ele>
        <time>2014-04-06T11:17:22Z</time>
      </trkpt>
      <trkpt lat="41.640823390" lon="2.535276760">
        <ele>395.90</ele>
        <time>2014-04-06T11:17:23Z</time>
      </trkpt>
      <trkpt lat="41.640801760" lon="2.535260000">
        <ele>395.80</ele>
        <time>2014-04-06T11:17:24Z</time>
      </trkpt>
      <trkpt lat="41.640778460" lon="2.535246750">
        <ele>395.80</ele>
        <time>2014-04-06T11:17:25Z</time>
      </trkpt>
      <trkpt lat="41.640753480" lon="2.535233340">
        <ele>395.80</ele>
        <time>2014-04-06T11:17:26Z</time>
      </trkpt>
      <trkpt lat="41.640723470" lon="2.535225130">
        <ele>395.80</ele>
        <time>2014-04-06T11:17:27Z</time>
      </trkpt>
      <trkpt lat="41.640690110" lon="2.535221780">
        <ele>396.10</ele>
        <time>2014-04-06T11:17:28Z</time>
      </trkpt>
      <trkpt lat="41.640655080" lon="2.535220100">
        <ele>396.30</ele>
        <time>2014-04-06T11:17:29Z</time>
      </trkpt>
      <trkpt lat="41.640618360" lon="2.535221780">
        <ele>396.40</ele>
        <time>2014-04-06T11:17:30Z</time>
      </trkpt>
      <trkpt lat="41.640580140" lon="2.535226810">
        <ele>396.20</ele>
        <time>2014-04-06T11:17:31Z</time>
      </trkpt>
      <trkpt lat="41.640540080" lon="2.535228480">
        <ele>395.90</ele>
        <time>2014-04-06T11:17:32Z</time>
      </trkpt>
      <trkpt lat="41.640500010" lon="2.535230160">
        <ele>395.80</ele>
        <time>2014-04-06T11:17:33Z</time>
      </trkpt>
      <trkpt lat="41.640460110" lon="2.535233340">
        <ele>395.70</ele>
        <time>2014-04-06T11:17:34Z</time>
      </trkpt>
      <trkpt lat="41.640423400" lon="2.535236700">
        <ele>395.60</ele>
        <time>2014-04-06T11:17:35Z</time>
      </trkpt>
      <trkpt lat="41.640390040" lon="2.535241730">
        <ele>395.40</ele>
        <time>2014-04-06T11:17:36Z</time>
      </trkpt>
      <trkpt lat="41.640356680" lon="2.535248430">
        <ele>395.30</ele>
        <time>2014-04-06T11:17:37Z</time>
      </trkpt>
      <trkpt lat="41.640321810" lon="2.535255140">
        <ele>395.10</ele>
        <time>2014-04-06T11:17:38Z</time>
      </trkpt>
      <trkpt lat="41.640286780" lon="2.535261670">
        <ele>394.90</ele>
        <time>2014-04-06T11:17:39Z</time>
      </trkpt>
      <trkpt lat="41.640251740" lon="2.535265030">
        <ele>395.20</ele>
        <time>2014-04-06T11:17:40Z</time>
      </trkpt>
      <trkpt lat="41.640216700" lon="2.535258490">
        <ele>395.40</ele>
        <time>2014-04-06T11:17:41Z</time>
      </trkpt>
      <trkpt lat="41.640186700" lon="2.535241730">
        <ele>395.60</ele>
        <time>2014-04-06T11:17:42Z</time>
      </trkpt>
      <trkpt lat="41.640155010" lon="2.535221780">
        <ele>395.00</ele>
        <time>2014-04-06T11:17:43Z</time>
      </trkpt>
      <trkpt lat="41.640125010" lon="2.535198470">
        <ele>394.50</ele>
        <time>2014-04-06T11:17:44Z</time>
      </trkpt>
      <trkpt lat="41.640090140" lon="2.535175010">
        <ele>394.40</ele>
        <time>2014-04-06T11:17:45Z</time>
      </trkpt>
      <trkpt lat="41.640055100" lon="2.535150030">
        <ele>394.30</ele>
        <time>2014-04-06T11:17:46Z</time>
      </trkpt>
      <trkpt lat="41.640018390" lon="2.535121700">
        <ele>393.90</ele>
        <time>2014-04-06T11:17:47Z</time>
      </trkpt>
      <trkpt lat="41.639978490" lon="2.535098390">
        <ele>393.60</ele>
        <time>2014-04-06T11:17:48Z</time>
      </trkpt>
      <trkpt lat="41.639935070" lon="2.535076770">
        <ele>393.40</ele>
        <time>2014-04-06T11:17:49Z</time>
      </trkpt>
      <trkpt lat="41.639890140" lon="2.535056820">
        <ele>392.80</ele>
        <time>2014-04-06T11:17:50Z</time>
      </trkpt>
      <trkpt lat="41.639846730" lon="2.535045090">
        <ele>392.30</ele>
        <time>2014-04-06T11:17:51Z</time>
      </trkpt>
      <trkpt lat="41.639808340" lon="2.535031680">
        <ele>392.40</ele>
        <time>2014-04-06T11:17:52Z</time>
      </trkpt>
      <trkpt lat="41.639771790" lon="2.535018430">
        <ele>392.50</ele>
        <time>2014-04-06T11:17:53Z</time>
      </trkpt>
      <trkpt lat="41.639736760" lon="2.535008370">
        <ele>392.50</ele>
        <time>2014-04-06T11:17:54Z</time>
      </trkpt>
      <trkpt lat="41.639701720" lon="2.535001670">
        <ele>392.50</ele>
        <time>2014-04-06T11:17:55Z</time>
      </trkpt>
      <trkpt lat="41.639663330" lon="2.534995130">
        <ele>392.50</ele>
        <time>2014-04-06T11:17:56Z</time>
      </trkpt>
      <trkpt lat="41.639628460" lon="2.534990100">
        <ele>391.70</ele>
        <time>2014-04-06T11:17:57Z</time>
      </trkpt>
      <trkpt lat="41.639593420" lon="2.534983400">
        <ele>391.10</ele>
        <time>2014-04-06T11:17:58Z</time>
      </trkpt>
      <trkpt lat="41.639556710" lon="2.534980040">
        <ele>391.00</ele>
        <time>2014-04-06T11:17:59Z</time>
      </trkpt>
      <trkpt lat="41.639523350" lon="2.534981720">
        <ele>391.00</ele>
        <time>2014-04-06T11:18:00Z</time>
      </trkpt>
      <trkpt lat="41.639491670" lon="2.534975010">
        <ele>390.90</ele>
        <time>2014-04-06T11:18:01Z</time>
      </trkpt>
      <trkpt lat="41.639461830" lon="2.534973340">
        <ele>390.70</ele>
        <time>2014-04-06T11:18:02Z</time>
      </trkpt>
      <trkpt lat="41.639436680" lon="2.534975010">
        <ele>390.50</ele>
        <time>2014-04-06T11:18:03Z</time>
      </trkpt>
      <trkpt lat="41.639408350" lon="2.534976690">
        <ele>390.30</ele>
        <time>2014-04-06T11:18:04Z</time>
      </trkpt>
      <trkpt lat="41.639381700" lon="2.534975010">
        <ele>390.20</ele>
        <time>2014-04-06T11:18:05Z</time>
      </trkpt>
      <trkpt lat="41.639350010" lon="2.534975010">
        <ele>389.70</ele>
        <time>2014-04-06T11:18:06Z</time>
      </trkpt>
      <trkpt lat="41.639318330" lon="2.534970150">
        <ele>389.40</ele>
        <time>2014-04-06T11:18:07Z</time>
      </trkpt>
      <trkpt lat="41.639283460" lon="2.534960090">
        <ele>389.10</ele>
        <time>2014-04-06T11:18:08Z</time>
      </trkpt>
      <trkpt lat="41.639243400" lon="2.534956740">
        <ele>388.80</ele>
        <time>2014-04-06T11:18:09Z</time>
      </trkpt>
      <trkpt lat="41.639198470" lon="2.534961770">
        <ele>388.60</ele>
        <time>2014-04-06T11:18:10Z</time>
      </trkpt>
      <trkpt lat="41.639151700" lon="2.534963450">
        <ele>388.20</ele>
        <time>2014-04-06T11:18:11Z</time>
      </trkpt>
      <trkpt lat="41.639106770" lon="2.534955060">
        <ele>387.90</ele>
        <time>2014-04-06T11:18:12Z</time>
      </trkpt>
      <trkpt lat="41.639061680" lon="2.534938470">
        <ele>387.50</ele>
        <time>2014-04-06T11:18:13Z</time>
      </trkpt>
      <trkpt lat="41.639015070" lon="2.534920030">
        <ele>387.30</ele>
        <time>2014-04-06T11:18:14Z</time>
      </trkpt>
      <trkpt lat="41.638971820" lon="2.534896730">
        <ele>387.10</ele>
        <time>2014-04-06T11:18:15Z</time>
      </trkpt>
      <trkpt lat="41.638928400" lon="2.534870070">
        <ele>386.50</ele>
        <time>2014-04-06T11:18:16Z</time>
      </trkpt>
      <trkpt lat="41.638885150" lon="2.534845090">
        <ele>386.00</ele>
        <time>2014-04-06T11:18:17Z</time>
      </trkpt>
      <trkpt lat="41.638843410" lon="2.534825140">
        <ele>385.70</ele>
        <time>2014-04-06T11:18:18Z</time>
      </trkpt>
      <trkpt lat="41.638803350" lon="2.534801680">
        <ele>385.50</ele>
        <time>2014-04-06T11:18:19Z</time>
      </trkpt>
      <trkpt lat="41.638766800" lon="2.534776700">
        <ele>385.30</ele>
        <time>2014-04-06T11:18:20Z</time>
      </trkpt>
      <trkpt lat="41.638731770" lon="2.534756750">
        <ele>385.40</ele>
        <time>2014-04-06T11:18:21Z</time>
      </trkpt>
      <trkpt lat="41.638698410" lon="2.534736800">
        <ele>385.60</ele>
        <time>2014-04-06T11:18:22Z</time>
      </trkpt>
      <trkpt lat="41.638666720" lon="2.534721710">
        <ele>385.20</ele>
        <time>2014-04-06T11:18:23Z</time>
      </trkpt>
      <trkpt lat="41.638638390" lon="2.534705120">
        <ele>384.90</ele>
        <time>2014-04-06T11:18:24Z</time>
      </trkpt>
      <trkpt lat="41.638606710" lon="2.534690030">
        <ele>384.90</ele>
        <time>2014-04-06T11:18:25Z</time>
      </trkpt>
      <trkpt lat="41.638575020" lon="2.534675110">
        <ele>384.80</ele>
        <time>2014-04-06T11:18:26Z</time>
      </trkpt>
      <trkpt lat="41.638545020" lon="2.534660020">
        <ele>384.80</ele>
        <time>2014-04-06T11:18:27Z</time>
      </trkpt>
      <trkpt lat="41.638515010" lon="2.534646780">
        <ele>385.00</ele>
        <time>2014-04-06T11:18:28Z</time>
      </trkpt>
      <trkpt lat="41.638485000" lon="2.534636720">
        <ele>385.10</ele>
        <time>2014-04-06T11:18:29Z</time>
      </trkpt>
      <trkpt lat="41.638453490" lon="2.534625150">
        <ele>385.20</ele>
        <time>2014-04-06T11:18:30Z</time>
      </trkpt>
      <trkpt lat="41.638420130" lon="2.534613420">
        <ele>385.20</ele>
        <time>2014-04-06T11:18:31Z</time>
      </trkpt>
      <trkpt lat="41.638388440" lon="2.534610070">
        <ele>384.90</ele>
        <time>2014-04-06T11:18:32Z</time>
      </trkpt>
      <trkpt lat="41.638355080" lon="2.534613420">
        <ele>384.70</ele>
        <time>2014-04-06T11:18:33Z</time>
      </trkpt>
      <trkpt lat="41.638320050" lon="2.534620120">
        <ele>384.60</ele>
        <time>2014-04-06T11:18:34Z</time>
      </trkpt>
      <trkpt lat="41.638285010" lon="2.534628340">
        <ele>384.60</ele>
        <time>2014-04-06T11:18:35Z</time>
      </trkpt>
      <trkpt lat="41.638253490" lon="2.534643430">
        <ele>384.70</ele>
        <time>2014-04-06T11:18:36Z</time>
      </trkpt>
      <trkpt lat="41.638225000" lon="2.534663370">
        <ele>384.40</ele>
        <time>2014-04-06T11:18:37Z</time>
      </trkpt>
      <trkpt lat="41.638198340" lon="2.534678460">
        <ele>384.10</ele>
        <time>2014-04-06T11:18:38Z</time>
      </trkpt>
      <trkpt lat="41.638173360" lon="2.534695060">
        <ele>383.90</ele>
        <time>2014-04-06T11:18:39Z</time>
      </trkpt>
      <trkpt lat="41.638151740" lon="2.534713330">
        <ele>384.00</ele>
        <time>2014-04-06T11:18:40Z</time>
      </trkpt>
      <trkpt lat="41.638130110" lon="2.534730090">
        <ele>384.00</ele>
        <time>2014-04-06T11:18:41Z</time>
      </trkpt>
      <trkpt lat="41.638113350" lon="2.534750040">
        <ele>384.40</ele>
        <time>2014-04-06T11:18:42Z</time>
      </trkpt>
      <trkpt lat="41.638098430" lon="2.534768480">
        <ele>384.60</ele>
        <time>2014-04-06T11:18:43Z</time>
      </trkpt>
      <trkpt lat="41.638086690" lon="2.534785080">
        <ele>384.70</ele>
        <time>2014-04-06T11:18:44Z</time>
      </trkpt>
      <trkpt lat="41.638080160" lon="2.534803350">
        <ele>384.80</ele>
        <time>2014-04-06T11:18:45Z</time>
      </trkpt>
      <trkpt lat="41.638075130" lon="2.534825140">
        <ele>384.90</ele>
        <time>2014-04-06T11:18:46Z</time>
      </trkpt>
      <trkpt lat="41.638070100" lon="2.534851800">
        <ele>385.10</ele>
        <time>2014-04-06T11:18:47Z</time>
      </trkpt>
      <trkpt lat="41.638066750" lon="2.534886670">
        <ele>385.20</ele>
        <time>2014-04-06T11:18:48Z</time>
      </trkpt>
      <trkpt lat="41.638065070" lon="2.534930090">
        <ele>385.50</ele>
        <time>2014-04-06T11:18:49Z</time>
      </trkpt>
      <trkpt lat="41.638056690" lon="2.534976690">
        <ele>385.70</ele>
        <time>2014-04-06T11:18:50Z</time>
      </trkpt>
      <trkpt lat="41.638041770" lon="2.535026810">
        <ele>385.30</ele>
        <time>2014-04-06T11:18:51Z</time>
      </trkpt>
      <trkpt lat="41.638025000" lon="2.535073420">
        <ele>385.10</ele>
        <time>2014-04-06T11:18:52Z</time>
      </trkpt>
      <trkpt lat="41.638010080" lon="2.535120020">
        <ele>384.90</ele>
        <time>2014-04-06T11:18:53Z</time>
      </trkpt>
      <trkpt lat="41.637991810" lon="2.535168470">
        <ele>384.90</ele>
        <time>2014-04-06T11:18:54Z</time>
      </trkpt>
      <trkpt lat="41.637971690" lon="2.535216750">
        <ele>384.90</ele>
        <time>2014-04-06T11:18:55Z</time>
      </trkpt>
      <trkpt lat="41.637953420" lon="2.535266700">
        <ele>384.80</ele>
        <time>2014-04-06T11:18:56Z</time>
      </trkpt>
      <trkpt lat="41.637933470" lon="2.535316830">
        <ele>384.70</ele>
        <time>2014-04-06T11:18:57Z</time>
      </trkpt>
      <trkpt lat="41.637913360" lon="2.535365110">
        <ele>384.60</ele>
        <time>2014-04-06T11:18:58Z</time>
      </trkpt>
      <trkpt lat="41.637891730" lon="2.535411710">
        <ele>384.50</ele>
        <time>2014-04-06T11:18:59Z</time>
      </trkpt>
      <trkpt lat="41.637868430" lon="2.535456810">
        <ele>384.40</ele>
        <time>2014-04-06T11:19:00Z</time>
      </trkpt>
      <trkpt lat="41.637843450" lon="2.535500060">
        <ele>384.40</ele>
        <time>2014-04-06T11:19:01Z</time>
      </trkpt>
      <trkpt lat="41.637815120" lon="2.535541800">
        <ele>384.30</ele>
        <time>2014-04-06T11:19:02Z</time>
      </trkpt>
      <trkpt lat="41.637780080" lon="2.535575160">
        <ele>383.70</ele>
        <time>2014-04-06T11:19:03Z</time>
      </trkpt>
      <trkpt lat="41.637736670" lon="2.535606670">
        <ele>383.20</ele>
        <time>2014-04-06T11:19:04Z</time>
      </trkpt>
      <trkpt lat="41.637690060" lon="2.535641710">
        <ele>382.90</ele>
        <time>2014-04-06T11:19:05Z</time>
      </trkpt>
      <trkpt lat="41.637640110" lon="2.535678420">
        <ele>382.50</ele>
        <time>2014-04-06T11:19:06Z</time>
      </trkpt>
      <trkpt lat="41.637593340" lon="2.535715140">
        <ele>382.30</ele>
        <time>2014-04-06T11:19:07Z</time>
      </trkpt>
      <trkpt lat="41.637551760" lon="2.535748500">
        <ele>382.00</ele>
        <time>2014-04-06T11:19:08Z</time>
      </trkpt>
      <trkpt lat="41.637515050" lon="2.535781690">
        <ele>381.80</ele>
        <time>2014-04-06T11:19:09Z</time>
      </trkpt>
      <trkpt lat="41.637485040" lon="2.535810020">
        <ele>381.60</ele>
        <time>2014-04-06T11:19:10Z</time>
      </trkpt>
      <trkpt lat="41.637460060" lon="2.535836670">
        <ele>381.40</ele>
        <time>2014-04-06T11:19:11Z</time>
      </trkpt>
      <trkpt lat="41.637438440" lon="2.535863500">
        <ele>381.30</ele>
        <time>2014-04-06T11:19:12Z</time>
      </trkpt>
      <trkpt lat="41.637416810" lon="2.535895010">
        <ele>381.20</ele>
        <time>2014-04-06T11:19:13Z</time>
      </trkpt>
      <trkpt lat="41.637406750" lon="2.535933400">
        <ele>381.20</ele>
        <time>2014-04-06T11:19:14Z</time>
      </trkpt>
      <trkpt lat="41.637405080" lon="2.535973470">
        <ele>381.00</ele>
        <time>2014-04-06T11:19:15Z</time>
      </trkpt>
      <trkpt lat="41.637408430" lon="2.536018390">
        <ele>380.90</ele>
        <time>2014-04-06T11:19:16Z</time>
      </trkpt>
      <trkpt lat="41.637410110" lon="2.536060130">
        <ele>380.90</ele>
        <time>2014-04-06T11:19:17Z</time>
      </trkpt>
      <trkpt lat="41.637410110" lon="2.536106740">
        <ele>381.20</ele>
        <time>2014-04-06T11:19:18Z</time>
      </trkpt>
      <trkpt lat="41.637415140" lon="2.536155020">
        <ele>381.40</ele>
        <time>2014-04-06T11:19:19Z</time>
      </trkpt>
      <trkpt lat="41.637430060" lon="2.536206820">
        <ele>381.50</ele>
        <time>2014-04-06T11:19:20Z</time>
      </trkpt>
      <trkpt lat="41.637450000" lon="2.536263480">
        <ele>381.60</ele>
        <time>2014-04-06T11:19:21Z</time>
      </trkpt>
      <trkpt lat="41.637471800" lon="2.536318460">
        <ele>381.00</ele>
        <time>2014-04-06T11:19:22Z</time>
      </trkpt>
      <trkpt lat="41.637493420" lon="2.536371770">
        <ele>380.60</ele>
        <time>2014-04-06T11:19:23Z</time>
      </trkpt>
      <trkpt lat="41.637511700" lon="2.536425080">
        <ele>380.30</ele>
        <time>2014-04-06T11:19:24Z</time>
      </trkpt>
      <trkpt lat="41.637520080" lon="2.536473360">
        <ele>380.00</ele>
        <time>2014-04-06T11:19:25Z</time>
      </trkpt>
      <trkpt lat="41.637520080" lon="2.536518460">
        <ele>379.80</ele>
        <time>2014-04-06T11:19:26Z</time>
      </trkpt>
      <trkpt lat="41.637521750" lon="2.536558350">
        <ele>379.40</ele>
        <time>2014-04-06T11:19:27Z</time>
      </trkpt>
      <trkpt lat="41.637523430" lon="2.536601770">
        <ele>379.00</ele>
        <time>2014-04-06T11:19:28Z</time>
      </trkpt>
      <trkpt lat="41.637520080" lon="2.536648380">
        <ele>378.70</ele>
        <time>2014-04-06T11:19:29Z</time>
      </trkpt>
      <trkpt lat="41.637510020" lon="2.536698330">
        <ele>378.50</ele>
        <time>2014-04-06T11:19:30Z</time>
      </trkpt>
      <trkpt lat="41.637501800" lon="2.536750130">
        <ele>378.30</ele>
        <time>2014-04-06T11:19:31Z</time>
      </trkpt>
      <trkpt lat="41.637496780" lon="2.536798410">
        <ele>378.50</ele>
        <time>2014-04-06T11:19:32Z</time>
      </trkpt>
      <trkpt lat="41.637496780" lon="2.536846690">
        <ele>378.70</ele>
        <time>2014-04-06T11:19:33Z</time>
      </trkpt>
      <trkpt lat="41.637498450" lon="2.536888430">
        <ele>379.00</ele>
        <time>2014-04-06T11:19:34Z</time>
      </trkpt>
      <trkpt lat="41.637500130" lon="2.536930010">
        <ele>379.20</ele>
        <time>2014-04-06T11:19:35Z</time>
      </trkpt>
      <trkpt lat="41.637496780" lon="2.536973430">
        <ele>379.40</ele>
        <time>2014-04-06T11:19:36Z</time>
      </trkpt>
      <trkpt lat="41.637490070" lon="2.537021710">
        <ele>379.00</ele>
        <time>2014-04-06T11:19:37Z</time>
      </trkpt>
      <trkpt lat="41.637478340" lon="2.537071660">
        <ele>378.80</ele>
        <time>2014-04-06T11:19:38Z</time>
      </trkpt>
      <trkpt lat="41.637458390" lon="2.537120110">
        <ele>378.30</ele>
        <time>2014-04-06T11:19:39Z</time>
      </trkpt>
      <trkpt lat="41.637438440" lon="2.537165040">
        <ele>377.90</ele>
        <time>2014-04-06T11:19:40Z</time>
      </trkpt>
      <trkpt lat="41.637420000" lon="2.537213480">
        <ele>377.50</ele>
        <time>2014-04-06T11:19:41Z</time>
      </trkpt>
      <trkpt lat="41.637411780" lon="2.537266790">
        <ele>377.30</ele>
        <time>2014-04-06T11:19:42Z</time>
      </trkpt>
      <trkpt lat="41.637403400" lon="2.537323450">
        <ele>377.10</ele>
        <time>2014-04-06T11:19:43Z</time>
      </trkpt>
      <trkpt lat="41.637398370" lon="2.537380120">
        <ele>376.80</ele>
        <time>2014-04-06T11:19:44Z</time>
      </trkpt>
      <trkpt lat="41.637390160" lon="2.537431750">
        <ele>376.60</ele>
        <time>2014-04-06T11:19:45Z</time>
      </trkpt>
      <trkpt lat="41.637370040" lon="2.537468460">
        <ele>376.40</ele>
        <time>2014-04-06T11:19:46Z</time>
      </trkpt>
      <trkpt lat="41.637345060" lon="2.537486730">
        <ele>376.20</ele>
        <time>2014-04-06T11:19:47Z</time>
      </trkpt>
      <trkpt lat="41.637323440" lon="2.537490090">
        <ele>375.60</ele>
        <time>2014-04-06T11:19:48Z</time>
      </trkpt>
      <trkpt lat="41.637305000" lon="2.537486730">
        <ele>375.20</ele>
        <time>2014-04-06T11:19:49Z</time>
      </trkpt>
      <trkpt lat="41.637293430" lon="2.537483380">
        <ele>374.90</ele>
        <time>2014-04-06T11:19:50Z</time>
      </trkpt>
      <trkpt lat="41.637285050" lon="2.537481710">
        <ele>374.30</ele>
        <time>2014-04-06T11:19:51Z</time>
      </trkpt>
      <trkpt lat="41.637276670" lon="2.537480030">
        <ele>373.90</ele>
        <time>2014-04-06T11:19:52Z</time>
      </trkpt>
      <trkpt lat="41.637266780" lon="2.537480030">
        <ele>373.60</ele>
        <time>2014-04-06T11:19:53Z</time>
      </trkpt>
      <trkpt lat="41.637260070" lon="2.537480030">
        <ele>373.30</ele>
        <time>2014-04-06T11:19:54Z</time>
      </trkpt>
      <trkpt lat="41.637255040" lon="2.537480030">
        <ele>373.00</ele>
        <time>2014-04-06T11:19:55Z</time>
      </trkpt>
      <trkpt lat="41.637253370" lon="2.537483380">
        <ele>372.70</ele>
        <time>2014-04-06T11:19:56Z</time>
      </trkpt>
      <trkpt lat="41.637251690" lon="2.537488410">
        <ele>372.60</ele>
        <time>2014-04-06T11:19:57Z</time>
      </trkpt>
      <trkpt lat="41.637248340" lon="2.537490090">
        <ele>371.90</ele>
        <time>2014-04-06T11:19:58Z</time>
      </trkpt>
      <trkpt lat="41.637235090" lon="2.537496790">
        <ele>371.40</ele>
        <time>2014-04-06T11:19:59Z</time>
      </trkpt>
      <trkpt lat="41.637220010" lon="2.537500150">
        <ele>370.60</ele>
        <time>2014-04-06T11:20:00Z</time>
      </trkpt>
      <trkpt lat="41.637201730" lon="2.537500150">
        <ele>370.10</ele>
        <time>2014-04-06T11:20:01Z</time>
      </trkpt>
      <trkpt lat="41.637178430" lon="2.537495120">
        <ele>369.70</ele>
        <time>2014-04-06T11:20:02Z</time>
      </trkpt>
      <trkpt lat="41.637153450" lon="2.537491760">
        <ele>369.70</ele>
        <time>2014-04-06T11:20:03Z</time>
      </trkpt>
      <trkpt lat="41.637125120" lon="2.537488410">
        <ele>369.70</ele>
        <time>2014-04-06T11:20:04Z</time>
      </trkpt>
      <trkpt lat="41.637093440" lon="2.537483380">
        <ele>369.10</ele>
        <time>2014-04-06T11:20:05Z</time>
      </trkpt>
      <trkpt lat="41.637060080" lon="2.537476680">
        <ele>368.70</ele>
        <time>2014-04-06T11:20:06Z</time>
      </trkpt>
      <trkpt lat="41.637026720" lon="2.537465110">
        <ele>368.10</ele>
        <time>2014-04-06T11:20:07Z</time>
      </trkpt>
      <trkpt lat="41.636986820" lon="2.537483380">
        <ele>367.70</ele>
        <time>2014-04-06T11:20:08Z</time>
      </trkpt>
      <trkpt lat="41.636955140" lon="2.537456730">
        <ele>367.40</ele>
        <time>2014-04-06T11:20:09Z</time>
      </trkpt>
      <trkpt lat="41.636921780" lon="2.537428400">
        <ele>367.10</ele>
        <time>2014-04-06T11:20:10Z</time>
      </trkpt>
      <trkpt lat="41.636891770" lon="2.537396710">
        <ele>367.00</ele>
        <time>2014-04-06T11:20:11Z</time>
      </trkpt>
      <trkpt lat="41.636861760" lon="2.537366710">
        <ele>366.60</ele>
        <time>2014-04-06T11:20:12Z</time>
      </trkpt>
      <trkpt lat="41.636828400" lon="2.537335020">
        <ele>366.30</ele>
        <time>2014-04-06T11:20:13Z</time>
      </trkpt>
      <trkpt lat="41.636793370" lon="2.537301660">
        <ele>366.10</ele>
        <time>2014-04-06T11:20:14Z</time>
      </trkpt>
      <trkpt lat="41.636755140" lon="2.537273330">
        <ele>365.20</ele>
        <time>2014-04-06T11:20:15Z</time>
      </trkpt>
      <trkpt lat="41.636711730" lon="2.537258410">
        <ele>364.50</ele>
        <time>2014-04-06T11:20:16Z</time>
      </trkpt>
      <trkpt lat="41.636670150" lon="2.537248350">
        <ele>364.30</ele>
        <time>2014-04-06T11:20:17Z</time>
      </trkpt>
      <trkpt lat="41.636628410" lon="2.537245000">
        <ele>364.10</ele>
        <time>2014-04-06T11:20:18Z</time>
      </trkpt>
      <trkpt lat="41.636588340" lon="2.537241820">
        <ele>363.60</ele>
        <time>2014-04-06T11:20:19Z</time>
      </trkpt>
      <trkpt lat="41.636548450" lon="2.537246680">
        <ele>363.20</ele>
        <time>2014-04-06T11:20:20Z</time>
      </trkpt>
      <trkpt lat="41.636508380" lon="2.537255060">
        <ele>362.90</ele>
        <time>2014-04-06T11:20:21Z</time>
      </trkpt>
      <trkpt lat="41.636471670" lon="2.537266790">
        <ele>362.00</ele>
        <time>2014-04-06T11:20:22Z</time>
      </trkpt>
      <trkpt lat="41.636443340" lon="2.537281710">
        <ele>361.30</ele>
        <time>2014-04-06T11:20:23Z</time>
      </trkpt>
      <trkpt lat="41.636425070" lon="2.537308370">
        <ele>360.80</ele>
        <time>2014-04-06T11:20:24Z</time>
      </trkpt>
      <trkpt lat="41.636418360" lon="2.537343400">
        <ele>360.30</ele>
        <time>2014-04-06T11:20:25Z</time>
      </trkpt>
      <trkpt lat="41.636423390" lon="2.537381790">
        <ele>359.80</ele>
        <time>2014-04-06T11:20:26Z</time>
      </trkpt>
      <trkpt lat="41.636435120" lon="2.537425040">
        <ele>359.40</ele>
        <time>2014-04-06T11:20:27Z</time>
      </trkpt>
      <trkpt lat="41.636453400" lon="2.537470140">
        <ele>359.10</ele>
        <time>2014-04-06T11:20:28Z</time>
      </trkpt>
      <trkpt lat="41.636476700" lon="2.537520090">
        <ele>358.40</ele>
        <time>2014-04-06T11:20:29Z</time>
      </trkpt>
      <trkpt lat="41.636498490" lon="2.537575080">
        <ele>357.90</ele>
        <time>2014-04-06T11:20:30Z</time>
      </trkpt>
      <trkpt lat="41.636513410" lon="2.537636770">
        <ele>357.40</ele>
        <time>2014-04-06T11:20:31Z</time>
      </trkpt>
      <trkpt lat="41.636515090" lon="2.537700140">
        <ele>357.10</ele>
        <time>2014-04-06T11:20:32Z</time>
      </trkpt>
      <trkpt lat="41.636503350" lon="2.537736680">
        <ele>356.80</ele>
        <time>2014-04-06T11:20:33Z</time>
      </trkpt>
      <trkpt lat="41.636488430" lon="2.537760150">
        <ele>356.30</ele>
        <time>2014-04-06T11:20:34Z</time>
      </trkpt>
      <trkpt lat="41.636470160" lon="2.537780100">
        <ele>356.00</ele>
        <time>2014-04-06T11:20:35Z</time>
      </trkpt>
      <trkpt lat="41.636451720" lon="2.537806760">
        <ele>355.70</ele>
        <time>2014-04-06T11:20:36Z</time>
      </trkpt>
      <trkpt lat="41.636430090" lon="2.537828380">
        <ele>355.50</ele>
        <time>2014-04-06T11:20:37Z</time>
      </trkpt>
      <trkpt lat="41.636401760" lon="2.537843470">
        <ele>355.10</ele>
        <time>2014-04-06T11:20:38Z</time>
      </trkpt>
      <trkpt lat="41.636365050" lon="2.537848330">
        <ele>354.80</ele>
        <time>2014-04-06T11:20:39Z</time>
      </trkpt>
      <trkpt lat="41.636328340" lon="2.537846820">
        <ele>354.60</ele>
        <time>2014-04-06T11:20:40Z</time>
      </trkpt>
      <trkpt lat="41.636285090" lon="2.537856710">
        <ele>354.20</ele>
        <time>2014-04-06T11:20:41Z</time>
      </trkpt>
      <trkpt lat="41.636246700" lon="2.537883370">
        <ele>353.90</ele>
        <time>2014-04-06T11:20:42Z</time>
      </trkpt>
      <trkpt lat="41.636216690" lon="2.537926780">
        <ele>353.10</ele>
        <time>2014-04-06T11:20:43Z</time>
      </trkpt>
      <trkpt lat="41.636206800" lon="2.537981770">
        <ele>352.50</ele>
        <time>2014-04-06T11:20:44Z</time>
      </trkpt>
      <trkpt lat="41.636210150" lon="2.538035080">
        <ele>352.30</ele>
        <time>2014-04-06T11:20:45Z</time>
      </trkpt>
      <trkpt lat="41.636213340" lon="2.538086710">
        <ele>352.10</ele>
        <time>2014-04-06T11:20:46Z</time>
      </trkpt>
      <trkpt lat="41.636210150" lon="2.538136670">
        <ele>352.00</ele>
        <time>2014-04-06T11:20:47Z</time>
      </trkpt>
      <trkpt lat="41.636203450" lon="2.538188470">
        <ele>352.10</ele>
        <time>2014-04-06T11:20:48Z</time>
      </trkpt>
      <trkpt lat="41.636195070" lon="2.538235070">
        <ele>352.10</ele>
        <time>2014-04-06T11:20:49Z</time>
      </trkpt>
      <trkpt lat="41.636178470" lon="2.538276810">
        <ele>351.70</ele>
        <time>2014-04-06T11:20:50Z</time>
      </trkpt>
      <trkpt lat="41.636158350" lon="2.538316710">
        <ele>351.40</ele>
        <time>2014-04-06T11:20:51Z</time>
      </trkpt>
      <trkpt lat="41.636136730" lon="2.538353420">
        <ele>351.40</ele>
        <time>2014-04-06T11:20:52Z</time>
      </trkpt>
      <trkpt lat="41.636111750" lon="2.538390140">
        <ele>351.50</ele>
        <time>2014-04-06T11:20:53Z</time>
      </trkpt>
      <trkpt lat="41.636075040" lon="2.538428360">
        <ele>351.50</ele>
        <time>2014-04-06T11:20:54Z</time>
      </trkpt>
      <trkpt lat="41.636035140" lon="2.538463390">
        <ele>351.80</ele>
        <time>2014-04-06T11:20:55Z</time>
      </trkpt>
      <trkpt lat="41.635993400" lon="2.538500110">
        <ele>352.00</ele>
        <time>2014-04-06T11:20:56Z</time>
      </trkpt>
      <trkpt lat="41.635955010" lon="2.538540000">
        <ele>351.80</ele>
        <time>2014-04-06T11:20:57Z</time>
      </trkpt>
      <trkpt lat="41.635923490" lon="2.538585100">
        <ele>351.60</ele>
        <time>2014-04-06T11:20:58Z</time>
      </trkpt>
      <trkpt lat="41.635900020" lon="2.538631700">
        <ele>351.40</ele>
        <time>2014-04-06T11:20:59Z</time>
      </trkpt>
      <trkpt lat="41.635878400" lon="2.538680150">
        <ele>351.40</ele>
        <time>2014-04-06T11:21:00Z</time>
      </trkpt>
      <trkpt lat="41.635860130" lon="2.538733460">
        <ele>351.40</ele>
        <time>2014-04-06T11:21:01Z</time>
      </trkpt>
      <trkpt lat="41.635841690" lon="2.538790120">
        <ele>350.90</ele>
        <time>2014-04-06T11:21:02Z</time>
      </trkpt>
      <trkpt lat="41.635828440" lon="2.538853490">
        <ele>350.60</ele>
        <time>2014-04-06T11:21:03Z</time>
      </trkpt>
      <trkpt lat="41.635815030" lon="2.538915010">
        <ele>350.20</ele>
        <time>2014-04-06T11:21:04Z</time>
      </trkpt>
      <trkpt lat="41.635795080" lon="2.538976700">
        <ele>350.00</ele>
        <time>2014-04-06T11:21:05Z</time>
      </trkpt>
      <trkpt lat="41.635771780" lon="2.539031690">
        <ele>349.80</ele>
        <time>2014-04-06T11:21:06Z</time>
      </trkpt>
      <trkpt lat="41.635738420" lon="2.539068400">
        <ele>349.60</ele>
        <time>2014-04-06T11:21:07Z</time>
      </trkpt>
      <trkpt lat="41.635700030" lon="2.539091700">
        <ele>349.50</ele>
        <time>2014-04-06T11:21:08Z</time>
      </trkpt>
      <trkpt lat="41.635656780" lon="2.539100080">
        <ele>348.50</ele>
        <time>2014-04-06T11:21:09Z</time>
      </trkpt>
      <trkpt lat="41.635611690" lon="2.539088350">
        <ele>347.70</ele>
        <time>2014-04-06T11:21:10Z</time>
      </trkpt>
      <trkpt lat="41.635568430" lon="2.539073430">
        <ele>347.20</ele>
        <time>2014-04-06T11:21:11Z</time>
      </trkpt>
      <trkpt lat="41.635526690" lon="2.539063370">
        <ele>346.80</ele>
        <time>2014-04-06T11:21:12Z</time>
      </trkpt>
      <trkpt lat="41.635490150" lon="2.539070080">
        <ele>346.50</ele>
        <time>2014-04-06T11:21:13Z</time>
      </trkpt>
      <trkpt lat="41.635460140" lon="2.539091700">
        <ele>346.30</ele>
        <time>2014-04-06T11:21:14Z</time>
      </trkpt>
      <trkpt lat="41.635426780" lon="2.539123380">
        <ele>346.10</ele>
        <time>2014-04-06T11:21:15Z</time>
      </trkpt>
      <trkpt lat="41.635390070" lon="2.539165130">
        <ele>345.80</ele>
        <time>2014-04-06T11:21:16Z</time>
      </trkpt>
      <trkpt lat="41.635346820" lon="2.539203350">
        <ele>345.50</ele>
        <time>2014-04-06T11:21:17Z</time>
      </trkpt>
      <trkpt lat="41.635301720" lon="2.539225140">
        <ele>345.30</ele>
        <time>2014-04-06T11:21:18Z</time>
      </trkpt>
      <trkpt lat="41.635251770" lon="2.539230000">
        <ele>344.70</ele>
        <time>2014-04-06T11:21:19Z</time>
      </trkpt>
      <trkpt lat="41.635196780" lon="2.539235030">
        <ele>344.20</ele>
        <time>2014-04-06T11:21:20Z</time>
      </trkpt>
      <trkpt lat="41.635146830" lon="2.539240060">
        <ele>343.10</ele>
        <time>2014-04-06T11:21:21Z</time>
      </trkpt>
      <trkpt lat="41.635108440" lon="2.539253470">
        <ele>342.20</ele>
        <time>2014-04-06T11:21:22Z</time>
      </trkpt>
      <trkpt lat="41.635078430" lon="2.539281800">
        <ele>341.00</ele>
        <time>2014-04-06T11:21:23Z</time>
      </trkpt>
      <trkpt lat="41.635060160" lon="2.539315000">
        <ele>340.00</ele>
        <time>2014-04-06T11:21:24Z</time>
      </trkpt>
      <trkpt lat="41.635048420" lon="2.539356740">
        <ele>339.30</ele>
        <time>2014-04-06T11:21:25Z</time>
      </trkpt>
      <trkpt lat="41.635043390" lon="2.539406690">
        <ele>338.70</ele>
        <time>2014-04-06T11:21:26Z</time>
      </trkpt>
      <trkpt lat="41.635043390" lon="2.539456820">
        <ele>338.20</ele>
        <time>2014-04-06T11:21:27Z</time>
      </trkpt>
      <trkpt lat="41.635046750" lon="2.539505100">
        <ele>337.80</ele>
        <time>2014-04-06T11:21:28Z</time>
      </trkpt>
      <trkpt lat="41.635055130" lon="2.539550020">
        <ele>337.50</ele>
        <time>2014-04-06T11:21:29Z</time>
      </trkpt>
      <trkpt lat="41.635068370" lon="2.539591770">
        <ele>337.30</ele>
        <time>2014-04-06T11:21:30Z</time>
      </trkpt>
      <trkpt lat="41.635086810" lon="2.539633340">
        <ele>337.00</ele>
        <time>2014-04-06T11:21:31Z</time>
      </trkpt>
      <trkpt lat="41.635103410" lon="2.539671730">
        <ele>336.70</ele>
        <time>2014-04-06T11:21:32Z</time>
      </trkpt>
      <trkpt lat="41.635116820" lon="2.539711790">
        <ele>336.50</ele>
        <time>2014-04-06T11:21:33Z</time>
      </trkpt>
      <trkpt lat="41.635125030" lon="2.539748340">
        <ele>336.30</ele>
        <time>2014-04-06T11:21:34Z</time>
      </trkpt>
      <trkpt lat="41.635130060" lon="2.539785050">
        <ele>336.40</ele>
        <time>2014-04-06T11:21:35Z</time>
      </trkpt>
      <trkpt lat="41.635131740" lon="2.539818410">
        <ele>336.50</ele>
        <time>2014-04-06T11:21:36Z</time>
      </trkpt>
      <trkpt lat="41.635131740" lon="2.539846740">
        <ele>336.50</ele>
        <time>2014-04-06T11:21:37Z</time>
      </trkpt>
      <trkpt lat="41.635128390" lon="2.539876750">
        <ele>336.90</ele>
        <time>2014-04-06T11:21:38Z</time>
      </trkpt>
      <trkpt lat="41.635123360" lon="2.539906760">
        <ele>337.20</ele>
        <time>2014-04-06T11:21:39Z</time>
      </trkpt>
      <trkpt lat="41.635118490" lon="2.539940120">
        <ele>338.00</ele>
        <time>2014-04-06T11:21:40Z</time>
      </trkpt>
      <trkpt lat="41.635115140" lon="2.539971800">
        <ele>338.60</ele>
        <time>2014-04-06T11:21:41Z</time>
      </trkpt>
      <trkpt lat="41.635115140" lon="2.540003480">
        <ele>338.60</ele>
        <time>2014-04-06T11:21:42Z</time>
      </trkpt>
      <trkpt lat="41.635116820" lon="2.540035000">
        <ele>338.60</ele>
        <time>2014-04-06T11:21:43Z</time>
      </trkpt>
      <trkpt lat="41.635116820" lon="2.540065010">
        <ele>338.60</ele>
        <time>2014-04-06T11:21:44Z</time>
      </trkpt>
      <trkpt lat="41.635116820" lon="2.540093340">
        <ele>339.30</ele>
        <time>2014-04-06T11:21:45Z</time>
      </trkpt>
      <trkpt lat="41.635120000" lon="2.540121670">
        <ele>339.70</ele>
        <time>2014-04-06T11:21:46Z</time>
      </trkpt>
      <trkpt lat="41.635121680" lon="2.540151680">
        <ele>339.70</ele>
        <time>2014-04-06T11:21:47Z</time>
      </trkpt>
      <trkpt lat="41.635123360" lon="2.540180010">
        <ele>339.80</ele>
        <time>2014-04-06T11:21:48Z</time>
      </trkpt>
      <trkpt lat="41.635120000" lon="2.540208340">
        <ele>339.80</ele>
        <time>2014-04-06T11:21:49Z</time>
      </trkpt>
      <trkpt lat="41.635118490" lon="2.540235160">
        <ele>340.40</ele>
        <time>2014-04-06T11:21:50Z</time>
      </trkpt>
      <trkpt lat="41.635120000" lon="2.540266680">
        <ele>340.90</ele>
        <time>2014-04-06T11:21:51Z</time>
      </trkpt>
      <trkpt lat="41.635121680" lon="2.540296680">
        <ele>341.10</ele>
        <time>2014-04-06T11:21:52Z</time>
      </trkpt>
      <trkpt lat="41.635123360" lon="2.540325010">
        <ele>341.30</ele>
        <time>2014-04-06T11:21:53Z</time>
      </trkpt>
      <trkpt lat="41.635126710" lon="2.540353350">
        <ele>341.80</ele>
        <time>2014-04-06T11:21:54Z</time>
      </trkpt>
      <trkpt lat="41.635130060" lon="2.540378490">
        <ele>342.20</ele>
        <time>2014-04-06T11:21:55Z</time>
      </trkpt>
      <trkpt lat="41.635135090" lon="2.540405150">
        <ele>342.50</ele>
        <time>2014-04-06T11:21:56Z</time>
      </trkpt>
      <trkpt lat="41.635136770" lon="2.540428450">
        <ele>342.40</ele>
        <time>2014-04-06T11:21:57Z</time>
      </trkpt>
      <trkpt lat="41.635138440" lon="2.540455100">
        <ele>342.40</ele>
        <time>2014-04-06T11:21:58Z</time>
      </trkpt>
      <trkpt lat="41.635136770" lon="2.540480080">
        <ele>342.50</ele>
        <time>2014-04-06T11:21:59Z</time>
      </trkpt>
      <trkpt lat="41.635135090" lon="2.540505060">
        <ele>342.70</ele>
        <time>2014-04-06T11:22:00Z</time>
      </trkpt>
      <trkpt lat="41.635133410" lon="2.540530040">
        <ele>342.70</ele>
        <time>2014-04-06T11:22:01Z</time>
      </trkpt>
      <trkpt lat="41.635130060" lon="2.540553340">
        <ele>342.70</ele>
        <time>2014-04-06T11:22:02Z</time>
      </trkpt>
      <trkpt lat="41.635123360" lon="2.540575130">
        <ele>342.70</ele>
        <time>2014-04-06T11:22:03Z</time>
      </trkpt>
      <trkpt lat="41.635111790" lon="2.540595080">
        <ele>343.00</ele>
        <time>2014-04-06T11:22:04Z</time>
      </trkpt>
      <trkpt lat="41.635096700" lon="2.540608490">
        <ele>343.10</ele>
        <time>2014-04-06T11:22:05Z</time>
      </trkpt>
      <trkpt lat="41.635080110" lon="2.540618380">
        <ele>342.90</ele>
        <time>2014-04-06T11:22:06Z</time>
      </trkpt>
      <trkpt lat="41.635061670" lon="2.540623410">
        <ele>342.80</ele>
        <time>2014-04-06T11:22:07Z</time>
      </trkpt>
      <trkpt lat="41.635043390" lon="2.540628440">
        <ele>343.10</ele>
        <time>2014-04-06T11:22:08Z</time>
      </trkpt>
      <trkpt lat="41.635026800" lon="2.540626760">
        <ele>343.40</ele>
        <time>2014-04-06T11:22:09Z</time>
      </trkpt>
      <trkpt lat="41.635010030" lon="2.540626760">
        <ele>343.60</ele>
        <time>2014-04-06T11:22:10Z</time>
      </trkpt>
      <trkpt lat="41.634995110" lon="2.540626760">
        <ele>343.60</ele>
        <time>2014-04-06T11:22:11Z</time>
      </trkpt>
      <trkpt lat="41.634978350" lon="2.540630120">
        <ele>343.60</ele>
        <time>2014-04-06T11:22:12Z</time>
      </trkpt>
      <trkpt lat="41.634961750" lon="2.540633470">
        <ele>344.30</ele>
        <time>2014-04-06T11:22:13Z</time>
      </trkpt>
      <trkpt lat="41.634945160" lon="2.540631790">
        <ele>344.90</ele>
        <time>2014-04-06T11:22:14Z</time>
      </trkpt>
      <trkpt lat="41.634930070" lon="2.540633470">
        <ele>345.30</ele>
        <time>2014-04-06T11:22:15Z</time>
      </trkpt>
      <trkpt lat="41.634915150" lon="2.540638330">
        <ele>345.30</ele>
        <time>2014-04-06T11:22:16Z</time>
      </trkpt>
      <trkpt lat="41.634898390" lon="2.540643360">
        <ele>345.30</ele>
        <time>2014-04-06T11:22:17Z</time>
      </trkpt>
      <trkpt lat="41.634880110" lon="2.540653420">
        <ele>346.00</ele>
        <time>2014-04-06T11:22:18Z</time>
      </trkpt>
      <trkpt lat="41.634861670" lon="2.540663480">
        <ele>346.50</ele>
        <time>2014-04-06T11:22:19Z</time>
      </trkpt>
      <trkpt lat="41.634841720" lon="2.540675040">
        <ele>346.80</ele>
        <time>2014-04-06T11:22:20Z</time>
      </trkpt>
      <trkpt lat="41.634820100" lon="2.540685100">
        <ele>347.00</ele>
        <time>2014-04-06T11:22:21Z</time>
      </trkpt>
      <trkpt lat="41.634800150" lon="2.540696670">
        <ele>347.20</ele>
        <time>2014-04-06T11:22:22Z</time>
      </trkpt>
      <trkpt lat="41.634781710" lon="2.540710080">
        <ele>346.90</ele>
        <time>2014-04-06T11:22:23Z</time>
      </trkpt>
      <trkpt lat="41.634763440" lon="2.540725000">
        <ele>346.70</ele>
        <time>2014-04-06T11:22:24Z</time>
      </trkpt>
      <trkpt lat="41.634741810" lon="2.540735060">
        <ele>346.80</ele>
        <time>2014-04-06T11:22:25Z</time>
      </trkpt>
      <trkpt lat="41.634721700" lon="2.540741760">
        <ele>346.90</ele>
        <time>2014-04-06T11:22:26Z</time>
      </trkpt>
      <trkpt lat="41.634700070" lon="2.540751820">
        <ele>346.60</ele>
        <time>2014-04-06T11:22:27Z</time>
      </trkpt>
      <trkpt lat="41.634678440" lon="2.540756680">
        <ele>346.40</ele>
        <time>2014-04-06T11:22:28Z</time>
      </trkpt>
      <trkpt lat="41.634656820" lon="2.540761710">
        <ele>346.20</ele>
        <time>2014-04-06T11:22:29Z</time>
      </trkpt>
      <trkpt lat="41.634638380" lon="2.540766740">
        <ele>346.00</ele>
        <time>2014-04-06T11:22:30Z</time>
      </trkpt>
      <trkpt lat="41.634620110" lon="2.540770090">
        <ele>345.80</ele>
        <time>2014-04-06T11:22:31Z</time>
      </trkpt>
      <trkpt lat="41.634601670" lon="2.540773450">
        <ele>345.90</ele>
        <time>2014-04-06T11:22:32Z</time>
      </trkpt>
      <trkpt lat="41.634581720" lon="2.540776800">
        <ele>345.90</ele>
        <time>2014-04-06T11:22:33Z</time>
      </trkpt>
      <trkpt lat="41.634560090" lon="2.540780150">
        <ele>345.80</ele>
        <time>2014-04-06T11:22:34Z</time>
      </trkpt>
      <trkpt lat="41.634538470" lon="2.540783340">
        <ele>345.80</ele>
        <time>2014-04-06T11:22:35Z</time>
      </trkpt>
      <trkpt lat="41.634518350" lon="2.540788370">
        <ele>345.80</ele>
        <time>2014-04-06T11:22:36Z</time>
      </trkpt>
      <trkpt lat="41.634501750" lon="2.540793400">
        <ele>345.90</ele>
        <time>2014-04-06T11:22:37Z</time>
      </trkpt>
      <trkpt lat="41.634486670" lon="2.540803450">
        <ele>346.00</ele>
        <time>2014-04-06T11:22:38Z</time>
      </trkpt>
      <trkpt lat="41.634471750" lon="2.540813340">
        <ele>346.50</ele>
        <time>2014-04-06T11:22:39Z</time>
      </trkpt>
      <trkpt lat="41.634458340" lon="2.540825080">
        <ele>346.80</ele>
        <time>2014-04-06T11:22:40Z</time>
      </trkpt>
      <trkpt lat="41.634443420" lon="2.540840000">
        <ele>347.10</ele>
        <time>2014-04-06T11:22:41Z</time>
      </trkpt>
      <trkpt lat="41.634428330" lon="2.540851730">
        <ele>347.00</ele>
        <time>2014-04-06T11:22:42Z</time>
      </trkpt>
      <trkpt lat="41.634413410" lon="2.540865140">
        <ele>346.90</ele>
        <time>2014-04-06T11:22:43Z</time>
      </trkpt>
      <trkpt lat="41.634396810" lon="2.540875030">
        <ele>347.00</ele>
        <time>2014-04-06T11:22:44Z</time>
      </trkpt>
      <trkpt lat="41.634380050" lon="2.540883420">
        <ele>347.10</ele>
        <time>2014-04-06T11:22:45Z</time>
      </trkpt>
      <trkpt lat="41.634361780" lon="2.540895150">
        <ele>347.40</ele>
        <time>2014-04-06T11:22:46Z</time>
      </trkpt>
      <trkpt lat="41.634345010" lon="2.540903370">
        <ele>347.60</ele>
        <time>2014-04-06T11:22:47Z</time>
      </trkpt>
      <trkpt lat="41.634330090" lon="2.540915100">
        <ele>347.70</ele>
        <time>2014-04-06T11:22:48Z</time>
      </trkpt>
      <trkpt lat="41.634313330" lon="2.540926670">
        <ele>348.00</ele>
        <time>2014-04-06T11:22:49Z</time>
      </trkpt>
      <trkpt lat="41.634298410" lon="2.540938400">
        <ele>348.20</ele>
        <time>2014-04-06T11:22:50Z</time>
      </trkpt>
      <trkpt lat="41.634281810" lon="2.540946780">
        <ele>348.40</ele>
        <time>2014-04-06T11:22:51Z</time>
      </trkpt>
      <trkpt lat="41.634265050" lon="2.540955000">
        <ele>348.50</ele>
        <time>2014-04-06T11:22:52Z</time>
      </trkpt>
      <trkpt lat="41.634251810" lon="2.540966730">
        <ele>348.60</ele>
        <time>2014-04-06T11:22:53Z</time>
      </trkpt>
      <trkpt lat="41.634236720" lon="2.540978470">
        <ele>349.00</ele>
        <time>2014-04-06T11:22:54Z</time>
      </trkpt>
      <trkpt lat="41.634221800" lon="2.540990030">
        <ele>349.30</ele>
        <time>2014-04-06T11:22:55Z</time>
      </trkpt>
      <trkpt lat="41.634206710" lon="2.541001770">
        <ele>349.40</ele>
        <time>2014-04-06T11:22:56Z</time>
      </trkpt>
      <trkpt lat="41.634190110" lon="2.541011830">
        <ele>349.40</ele>
        <time>2014-04-06T11:22:57Z</time>
      </trkpt>
      <trkpt lat="41.634175030" lon="2.541020040">
        <ele>349.50</ele>
        <time>2014-04-06T11:22:58Z</time>
      </trkpt>
      <trkpt lat="41.634160110" lon="2.541025070">
        <ele>349.60</ele>
        <time>2014-04-06T11:22:59Z</time>
      </trkpt>
      <trkpt lat="41.634143340" lon="2.541026750">
        <ele>349.70</ele>
        <time>2014-04-06T11:23:00Z</time>
      </trkpt>
      <trkpt lat="41.634128420" lon="2.541023390">
        <ele>350.00</ele>
        <time>2014-04-06T11:23:01Z</time>
      </trkpt>
      <trkpt lat="41.634115010" lon="2.541018370">
        <ele>350.30</ele>
        <time>2014-04-06T11:23:02Z</time>
      </trkpt>
      <trkpt lat="41.634103450" lon="2.541010150">
        <ele>350.20</ele>
        <time>2014-04-06T11:23:03Z</time>
      </trkpt>
      <trkpt lat="41.634088360" lon="2.541005120">
        <ele>350.20</ele>
        <time>2014-04-06T11:23:04Z</time>
      </trkpt>
      <trkpt lat="41.634073440" lon="2.541000090">
        <ele>350.60</ele>
        <time>2014-04-06T11:23:05Z</time>
      </trkpt>
      <trkpt lat="41.634058350" lon="2.540995060">
        <ele>351.00</ele>
        <time>2014-04-06T11:23:06Z</time>
      </trkpt>
      <trkpt lat="41.634045110" lon="2.540986680">
        <ele>351.20</ele>
        <time>2014-04-06T11:23:07Z</time>
      </trkpt>
      <trkpt lat="41.634033370" lon="2.540973440">
        <ele>351.80</ele>
        <time>2014-04-06T11:23:08Z</time>
      </trkpt>
      <trkpt lat="41.634021810" lon="2.540950140">
        <ele>352.20</ele>
        <time>2014-04-06T11:23:09Z</time>
      </trkpt>
      <trkpt lat="41.634015100" lon="2.540926670">
        <ele>351.50</ele>
        <time>2014-04-06T11:23:10Z</time>
      </trkpt>
      <trkpt lat="41.634006720" lon="2.540901690">
        <ele>351.00</ele>
        <time>2014-04-06T11:23:11Z</time>
      </trkpt>
      <trkpt lat="41.633998340" lon="2.540871680">
        <ele>350.70</ele>
        <time>2014-04-06T11:23:12Z</time>
      </trkpt>
      <trkpt lat="41.633990120" lon="2.540838490">
        <ele>350.80</ele>
        <time>2014-04-06T11:23:13Z</time>
      </trkpt>
      <trkpt lat="41.633985090" lon="2.540806810">
        <ele>350.90</ele>
        <time>2014-04-06T11:23:14Z</time>
      </trkpt>
      <trkpt lat="41.633978390" lon="2.540783340">
        <ele>351.00</ele>
        <time>2014-04-06T11:23:15Z</time>
      </trkpt>
      <trkpt lat="41.633968330" lon="2.540760040">
        <ele>351.00</ele>
        <time>2014-04-06T11:23:16Z</time>
      </trkpt>
      <trkpt lat="41.633961790" lon="2.540731700">
        <ele>350.80</ele>
        <time>2014-04-06T11:23:17Z</time>
      </trkpt>
      <trkpt lat="41.633950060" lon="2.540708400">
        <ele>350.50</ele>
        <time>2014-04-06T11:23:18Z</time>
      </trkpt>
      <trkpt lat="41.633940000" lon="2.540688450">
        <ele>350.40</ele>
        <time>2014-04-06T11:23:19Z</time>
      </trkpt>
      <trkpt lat="41.633930110" lon="2.540661800">
        <ele>350.60</ele>
        <time>2014-04-06T11:23:20Z</time>
      </trkpt>
      <trkpt lat="41.633918370" lon="2.540640010">
        <ele>350.70</ele>
        <time>2014-04-06T11:23:21Z</time>
      </trkpt>
      <trkpt lat="41.633908480" lon="2.540625090">
        <ele>350.50</ele>
        <time>2014-04-06T11:23:22Z</time>
      </trkpt>
      <trkpt lat="41.633900100" lon="2.540610000">
        <ele>350.30</ele>
        <time>2014-04-06T11:23:23Z</time>
      </trkpt>
      <trkpt lat="41.633890040" lon="2.540593400">
        <ele>349.70</ele>
        <time>2014-04-06T11:23:24Z</time>
      </trkpt>
      <trkpt lat="41.633878480" lon="2.540570100">
        <ele>349.30</ele>
        <time>2014-04-06T11:23:25Z</time>
      </trkpt>
      <trkpt lat="41.633870090" lon="2.540548480">
        <ele>348.90</ele>
        <time>2014-04-06T11:23:26Z</time>
      </trkpt>
      <trkpt lat="41.633861710" lon="2.540528360">
        <ele>349.00</ele>
        <time>2014-04-06T11:23:27Z</time>
      </trkpt>
      <trkpt lat="41.633851820" lon="2.540506730">
        <ele>349.00</ele>
        <time>2014-04-06T11:23:28Z</time>
      </trkpt>
      <trkpt lat="41.633838410" lon="2.540483430">
        <ele>348.70</ele>
        <time>2014-04-06T11:23:29Z</time>
      </trkpt>
      <trkpt lat="41.633810080" lon="2.540458450">
        <ele>348.60</ele>
        <time>2014-04-06T11:23:30Z</time>
      </trkpt>
      <trkpt lat="41.633775040" lon="2.540431800">
        <ele>348.50</ele>
        <time>2014-04-06T11:23:31Z</time>
      </trkpt>
      <trkpt lat="41.633750060" lon="2.540420070">
        <ele>348.40</ele>
        <time>2014-04-06T11:23:32Z</time>
      </trkpt>
      <trkpt lat="41.633728440" lon="2.540408330">
        <ele>348.40</ele>
        <time>2014-04-06T11:23:33Z</time>
      </trkpt>
      <trkpt lat="41.633705140" lon="2.540400120">
        <ele>347.70</ele>
        <time>2014-04-06T11:23:34Z</time>
      </trkpt>
      <trkpt lat="41.633683340" lon="2.540393410">
        <ele>347.20</ele>
        <time>2014-04-06T11:23:35Z</time>
      </trkpt>
      <trkpt lat="41.633663400" lon="2.540388380">
        <ele>347.40</ele>
        <time>2014-04-06T11:23:36Z</time>
      </trkpt>
      <trkpt lat="41.633646800" lon="2.540386710">
        <ele>347.40</ele>
        <time>2014-04-06T11:23:37Z</time>
      </trkpt>
      <trkpt lat="41.633633390" lon="2.540390060">
        <ele>347.50</ele>
        <time>2014-04-06T11:23:38Z</time>
      </trkpt>
      <trkpt lat="41.633628360" lon="2.540391730">
        <ele>347.60</ele>
        <time>2014-04-06T11:23:39Z</time>
      </trkpt>
      <trkpt lat="41.633625010" lon="2.540388380">
        <ele>347.70</ele>
        <time>2014-04-06T11:23:40Z</time>
      </trkpt>
      <trkpt lat="41.633621820" lon="2.540388380">
        <ele>348.00</ele>
        <time>2014-04-06T11:23:41Z</time>
      </trkpt>
      <trkpt lat="41.633618470" lon="2.540388380">
        <ele>348.20</ele>
        <time>2014-04-06T11:23:42Z</time>
      </trkpt>
      <trkpt lat="41.633615120" lon="2.540388380">
        <ele>347.90</ele>
        <time>2014-04-06T11:23:43Z</time>
      </trkpt>
      <trkpt lat="41.633611760" lon="2.540388380">
        <ele>347.70</ele>
        <time>2014-04-06T11:23:44Z</time>
      </trkpt>
      <trkpt lat="41.633608410" lon="2.540388380">
        <ele>347.60</ele>
        <time>2014-04-06T11:23:45Z</time>
      </trkpt>
      <trkpt lat="41.633606730" lon="2.540388380">
        <ele>347.70</ele>
        <time>2014-04-06T11:23:46Z</time>
      </trkpt>
      <trkpt lat="41.633603380" lon="2.540390060">
        <ele>347.80</ele>
        <time>2014-04-06T11:23:47Z</time>
      </trkpt>
      <trkpt lat="41.633600030" lon="2.540390060">
        <ele>348.10</ele>
        <time>2014-04-06T11:23:48Z</time>
      </trkpt>
      <trkpt lat="41.633598350" lon="2.540390060">
        <ele>348.20</ele>
        <time>2014-04-06T11:23:49Z</time>
      </trkpt>
      <trkpt lat="41.633595000" lon="2.540390060">
        <ele>348.40</ele>
        <time>2014-04-06T11:23:50Z</time>
      </trkpt>
      <trkpt lat="41.633591810" lon="2.540391730">
        <ele>348.10</ele>
        <time>2014-04-06T11:23:51Z</time>
      </trkpt>
      <trkpt lat="41.633590140" lon="2.540391730">
        <ele>347.90</ele>
        <time>2014-04-06T11:23:52Z</time>
      </trkpt>
      <trkpt lat="41.633586790" lon="2.540391730">
        <ele>348.10</ele>
        <time>2014-04-06T11:23:53Z</time>
      </trkpt>
      <trkpt lat="41.633585110" lon="2.540391730">
        <ele>348.20</ele>
        <time>2014-04-06T11:23:54Z</time>
      </trkpt>
      <trkpt lat="41.633581760" lon="2.540393410">
        <ele>348.90</ele>
        <time>2014-04-06T11:23:55Z</time>
      </trkpt>
      <trkpt lat="41.633580080" lon="2.540393410">
        <ele>349.40</ele>
        <time>2014-04-06T11:23:56Z</time>
      </trkpt>
      <trkpt lat="41.633578400" lon="2.540393410">
        <ele>349.80</ele>
        <time>2014-04-06T11:23:57Z</time>
      </trkpt>
      <trkpt lat="41.633575050" lon="2.540391730">
        <ele>349.50</ele>
        <time>2014-04-06T11:23:58Z</time>
      </trkpt>
      <trkpt lat="41.633573370" lon="2.540393410">
        <ele>349.30</ele>
        <time>2014-04-06T11:23:59Z</time>
      </trkpt>
      <trkpt lat="41.633570020" lon="2.540395090">
        <ele>348.80</ele>
        <time>2014-04-06T11:24:00Z</time>
      </trkpt>
      <trkpt lat="41.633568350" lon="2.540395090">
        <ele>348.40</ele>
        <time>2014-04-06T11:24:01Z</time>
      </trkpt>
      <trkpt lat="41.633568350" lon="2.540395090">
        <ele>348.30</ele>
        <time>2014-04-06T11:24:02Z</time>
      </trkpt>
      <trkpt lat="41.633566670" lon="2.540395090">
        <ele>348.20</ele>
        <time>2014-04-06T11:24:03Z</time>
      </trkpt>
      <trkpt lat="41.633565160" lon="2.540395090">
        <ele>348.10</ele>
        <time>2014-04-06T11:24:04Z</time>
      </trkpt>
      <trkpt lat="41.633556780" lon="2.540391730">
        <ele>347.90</ele>
        <time>2014-04-06T11:24:05Z</time>
      </trkpt>
      <trkpt lat="41.633541690" lon="2.540393410">
        <ele>347.80</ele>
        <time>2014-04-06T11:24:06Z</time>
      </trkpt>
      <trkpt lat="41.633523420" lon="2.540398440">
        <ele>348.40</ele>
        <time>2014-04-06T11:24:07Z</time>
      </trkpt>
      <trkpt lat="41.633505150" lon="2.540396760">
        <ele>348.90</ele>
        <time>2014-04-06T11:24:08Z</time>
      </trkpt>
      <trkpt lat="41.633486710" lon="2.540391730">
        <ele>349.60</ele>
        <time>2014-04-06T11:24:09Z</time>
      </trkpt>
      <trkpt lat="41.633468430" lon="2.540388380">
        <ele>350.00</ele>
        <time>2014-04-06T11:24:10Z</time>
      </trkpt>
      <trkpt lat="41.633450160" lon="2.540385030">
        <ele>350.40</ele>
        <time>2014-04-06T11:24:11Z</time>
      </trkpt>
      <trkpt lat="41.633431720" lon="2.540378490">
        <ele>350.00</ele>
        <time>2014-04-06T11:24:12Z</time>
      </trkpt>
      <trkpt lat="41.633415120" lon="2.540371790">
        <ele>349.70</ele>
        <time>2014-04-06T11:24:13Z</time>
      </trkpt>
      <trkpt lat="41.633396680" lon="2.540365080">
        <ele>349.30</ele>
        <time>2014-04-06T11:24:14Z</time>
      </trkpt>
      <trkpt lat="41.633378410" lon="2.540360050">
        <ele>349.10</ele>
        <time>2014-04-06T11:24:15Z</time>
      </trkpt>
      <trkpt lat="41.633361820" lon="2.540350160">
        <ele>348.90</ele>
        <time>2014-04-06T11:24:16Z</time>
      </trkpt>
      <trkpt lat="41.633345050" lon="2.540340100">
        <ele>349.40</ele>
        <time>2014-04-06T11:24:17Z</time>
      </trkpt>
      <trkpt lat="41.633326780" lon="2.540330040">
        <ele>349.80</ele>
        <time>2014-04-06T11:24:18Z</time>
      </trkpt>
      <trkpt lat="41.633308340" lon="2.540323340">
        <ele>350.40</ele>
        <time>2014-04-06T11:24:19Z</time>
      </trkpt>
      <trkpt lat="41.633290070" lon="2.540318480">
        <ele>350.80</ele>
        <time>2014-04-06T11:24:20Z</time>
      </trkpt>
      <trkpt lat="41.633271790" lon="2.540315120">
        <ele>350.80</ele>
        <time>2014-04-06T11:24:21Z</time>
      </trkpt>
      <trkpt lat="41.633253350" lon="2.540311770">
        <ele>350.80</ele>
        <time>2014-04-06T11:24:22Z</time>
      </trkpt>
      <trkpt lat="41.633236760" lon="2.540311770">
        <ele>350.80</ele>
        <time>2014-04-06T11:24:23Z</time>
      </trkpt>
      <trkpt lat="41.633218480" lon="2.540310090">
        <ele>350.90</ele>
        <time>2014-04-06T11:24:24Z</time>
      </trkpt>
      <trkpt lat="41.633200040" lon="2.540311770">
        <ele>350.90</ele>
        <time>2014-04-06T11:24:25Z</time>
      </trkpt>
      <trkpt lat="41.633183450" lon="2.540316800">
        <ele>351.30</ele>
        <time>2014-04-06T11:24:26Z</time>
      </trkpt>
      <trkpt lat="41.633165010" lon="2.540320150">
        <ele>351.50</ele>
        <time>2014-04-06T11:24:27Z</time>
      </trkpt>
      <trkpt lat="41.633148410" lon="2.540321660">
        <ele>351.70</ele>
        <time>2014-04-06T11:24:28Z</time>
      </trkpt>
      <trkpt lat="41.633130140" lon="2.540325010">
        <ele>352.00</ele>
        <time>2014-04-06T11:24:29Z</time>
      </trkpt>
      <trkpt lat="41.633115050" lon="2.540330040">
        <ele>352.10</ele>
        <time>2014-04-06T11:24:30Z</time>
      </trkpt>
      <trkpt lat="41.633098460" lon="2.540331720">
        <ele>351.70</ele>
        <time>2014-04-06T11:24:31Z</time>
      </trkpt>
      <trkpt lat="41.633081690" lon="2.540335070">
        <ele>351.40</ele>
        <time>2014-04-06T11:24:32Z</time>
      </trkpt>
      <trkpt lat="41.633065100" lon="2.540335070">
        <ele>351.50</ele>
        <time>2014-04-06T11:24:33Z</time>
      </trkpt>
      <trkpt lat="41.633048330" lon="2.540336750">
        <ele>351.60</ele>
        <time>2014-04-06T11:24:34Z</time>
      </trkpt>
      <trkpt lat="41.633031740" lon="2.540341780">
        <ele>351.60</ele>
        <time>2014-04-06T11:24:35Z</time>
      </trkpt>
      <trkpt lat="41.633006760" lon="2.540345130">
        <ele>351.90</ele>
        <time>2014-04-06T11:24:36Z</time>
      </trkpt>
      <trkpt lat="41.632978430" lon="2.540353350">
        <ele>352.10</ele>
        <time>2014-04-06T11:24:37Z</time>
      </trkpt>
      <trkpt lat="41.632950100" lon="2.540366760">
        <ele>352.30</ele>
        <time>2014-04-06T11:24:38Z</time>
      </trkpt>
      <trkpt lat="41.632921770" lon="2.540380000">
        <ele>352.50</ele>
        <time>2014-04-06T11:24:39Z</time>
      </trkpt>
      <trkpt lat="41.632890080" lon="2.540371790">
        <ele>352.30</ele>
        <time>2014-04-06T11:24:40Z</time>
      </trkpt>
      <trkpt lat="41.632858400" lon="2.540348480">
        <ele>352.20</ele>
        <time>2014-04-06T11:24:41Z</time>
      </trkpt>
      <trkpt lat="41.632836770" lon="2.540306740">
        <ele>352.10</ele>
        <time>2014-04-06T11:24:42Z</time>
      </trkpt>
      <trkpt lat="41.632820010" lon="2.540255110">
        <ele>352.00</ele>
        <time>2014-04-06T11:24:43Z</time>
      </trkpt>
      <trkpt lat="41.632810120" lon="2.540195100">
        <ele>351.80</ele>
        <time>2014-04-06T11:24:44Z</time>
      </trkpt>
      <trkpt lat="41.632796710" lon="2.540125020">
        <ele>350.90</ele>
        <time>2014-04-06T11:24:45Z</time>
      </trkpt>
      <trkpt lat="41.632781790" lon="2.540051760">
        <ele>350.10</ele>
        <time>2014-04-06T11:24:46Z</time>
      </trkpt>
      <trkpt lat="41.632773410" lon="2.539975150">
        <ele>349.10</ele>
        <time>2014-04-06T11:24:47Z</time>
      </trkpt>
      <trkpt lat="41.632771730" lon="2.539896700">
        <ele>348.40</ele>
        <time>2014-04-06T11:24:48Z</time>
      </trkpt>
      <trkpt lat="41.632761670" lon="2.539825120">
        <ele>347.80</ele>
        <time>2014-04-06T11:24:49Z</time>
      </trkpt>
      <trkpt lat="41.632748430" lon="2.539755050">
        <ele>347.00</ele>
        <time>2014-04-06T11:24:50Z</time>
      </trkpt>
      <trkpt lat="41.632735020" lon="2.539690000">
        <ele>346.40</ele>
        <time>2014-04-06T11:24:51Z</time>
      </trkpt>
      <trkpt lat="41.632725130" lon="2.539631660">
        <ele>346.30</ele>
        <time>2014-04-06T11:24:52Z</time>
      </trkpt>
      <trkpt lat="41.632721770" lon="2.539565110">
        <ele>346.20</ele>
        <time>2014-04-06T11:24:53Z</time>
      </trkpt>
      <trkpt lat="41.632725130" lon="2.539498390">
        <ele>346.10</ele>
        <time>2014-04-06T11:24:54Z</time>
      </trkpt>
      <trkpt lat="41.632730150" lon="2.539430160">
        <ele>345.00</ele>
        <time>2014-04-06T11:24:55Z</time>
      </trkpt>
      <trkpt lat="41.632728480" lon="2.539358410">
        <ele>344.10</ele>
        <time>2014-04-06T11:24:56Z</time>
      </trkpt>
      <trkpt lat="41.632713390" lon="2.539298400">
        <ele>343.40</ele>
        <time>2014-04-06T11:24:57Z</time>
      </trkpt>
      <trkpt lat="41.632686740" lon="2.539260010">
        <ele>343.00</ele>
        <time>2014-04-06T11:24:58Z</time>
      </trkpt>
      <trkpt lat="41.632653380" lon="2.539238380">
        <ele>342.40</ele>
        <time>2014-04-06T11:24:59Z</time>
      </trkpt>
      <trkpt lat="41.632615160" lon="2.539236710">
        <ele>342.10</ele>
        <time>2014-04-06T11:25:00Z</time>
      </trkpt>
      <trkpt lat="41.632575090" lon="2.539248440">
        <ele>341.80</ele>
        <time>2014-04-06T11:25:01Z</time>
      </trkpt>
      <trkpt lat="41.632531670" lon="2.539271740">
        <ele>341.10</ele>
        <time>2014-04-06T11:25:02Z</time>
      </trkpt>
      <trkpt lat="41.632486740" lon="2.539296720">
        <ele>340.70</ele>
        <time>2014-04-06T11:25:03Z</time>
      </trkpt>
      <trkpt lat="41.632440140" lon="2.539328410">
        <ele>339.60</ele>
        <time>2014-04-06T11:25:04Z</time>
      </trkpt>
      <trkpt lat="41.632396720" lon="2.539358410">
        <ele>338.70</ele>
        <time>2014-04-06T11:25:05Z</time>
      </trkpt>
      <trkpt lat="41.632355150" lon="2.539380040">
        <ele>337.90</ele>
        <time>2014-04-06T11:25:06Z</time>
      </trkpt>
      <trkpt lat="41.632315080" lon="2.539398480">
        <ele>337.30</ele>
        <time>2014-04-06T11:25:07Z</time>
      </trkpt>
      <trkpt lat="41.632280050" lon="2.539415080">
        <ele>336.80</ele>
        <time>2014-04-06T11:25:08Z</time>
      </trkpt>
      <trkpt lat="41.632250040" lon="2.539428490">
        <ele>336.20</ele>
        <time>2014-04-06T11:25:09Z</time>
      </trkpt>
      <trkpt lat="41.632220030" lon="2.539440050">
        <ele>335.70</ele>
        <time>2014-04-06T11:25:10Z</time>
      </trkpt>
      <trkpt lat="41.632191700" lon="2.539450110">
        <ele>335.70</ele>
        <time>2014-04-06T11:25:11Z</time>
      </trkpt>
      <trkpt lat="41.632161690" lon="2.539458490">
        <ele>335.70</ele>
        <time>2014-04-06T11:25:12Z</time>
      </trkpt>
      <trkpt lat="41.632131690" lon="2.539458490">
        <ele>335.60</ele>
        <time>2014-04-06T11:25:13Z</time>
      </trkpt>
      <trkpt lat="41.632101680" lon="2.539445080">
        <ele>335.20</ele>
        <time>2014-04-06T11:25:14Z</time>
      </trkpt>
      <trkpt lat="41.632076700" lon="2.539421780">
        <ele>334.90</ele>
        <time>2014-04-06T11:25:15Z</time>
      </trkpt>
      <trkpt lat="41.632060110" lon="2.539390100">
        <ele>334.80</ele>
        <time>2014-04-06T11:25:16Z</time>
      </trkpt>
      <trkpt lat="41.632045020" lon="2.539356740">
        <ele>334.60</ele>
        <time>2014-04-06T11:25:17Z</time>
      </trkpt>
      <trkpt lat="41.632033450" lon="2.539321700">
        <ele>334.60</ele>
        <time>2014-04-06T11:25:18Z</time>
      </trkpt>
      <trkpt lat="41.632025070" lon="2.539286660">
        <ele>334.60</ele>
        <time>2014-04-06T11:25:19Z</time>
      </trkpt>
      <trkpt lat="41.632016690" lon="2.539250120">
        <ele>334.60</ele>
        <time>2014-04-06T11:25:20Z</time>
      </trkpt>
      <trkpt lat="41.632013330" lon="2.539215080">
        <ele>335.00</ele>
        <time>2014-04-06T11:25:21Z</time>
      </trkpt>
      <trkpt lat="41.632006800" lon="2.539183400">
        <ele>335.30</ele>
        <time>2014-04-06T11:25:22Z</time>
      </trkpt>
      <trkpt lat="41.632003440" lon="2.539155070">
        <ele>335.60</ele>
        <time>2014-04-06T11:25:23Z</time>
      </trkpt>
      <trkpt lat="41.631998410" lon="2.539128410">
        <ele>335.80</ele>
        <time>2014-04-06T11:25:24Z</time>
      </trkpt>
      <trkpt lat="41.631985000" lon="2.539110140">
        <ele>335.70</ele>
        <time>2014-04-06T11:25:25Z</time>
      </trkpt>
      <trkpt lat="41.631966730" lon="2.539101760">
        <ele>335.70</ele>
        <time>2014-04-06T11:25:26Z</time>
      </trkpt>
      <trkpt lat="41.631941750" lon="2.539095050">
        <ele>335.70</ele>
        <time>2014-04-06T11:25:27Z</time>
      </trkpt>
      <trkpt lat="41.631916780" lon="2.539093380">
        <ele>336.20</ele>
        <time>2014-04-06T11:25:28Z</time>
      </trkpt>
      <trkpt lat="41.631895150" lon="2.539105110">
        <ele>336.60</ele>
        <time>2014-04-06T11:25:29Z</time>
      </trkpt>
      <trkpt lat="41.631878390" lon="2.539123380">
        <ele>336.70</ele>
        <time>2014-04-06T11:25:30Z</time>
      </trkpt>
      <trkpt lat="41.631860110" lon="2.539141830">
        <ele>336.80</ele>
        <time>2014-04-06T11:25:31Z</time>
      </trkpt>
      <trkpt lat="41.631843350" lon="2.539160100">
        <ele>336.90</ele>
        <time>2014-04-06T11:25:32Z</time>
      </trkpt>
      <trkpt lat="41.631828430" lon="2.539178370">
        <ele>337.20</ele>
        <time>2014-04-06T11:25:33Z</time>
      </trkpt>
      <trkpt lat="41.631815020" lon="2.539196810">
        <ele>337.50</ele>
        <time>2014-04-06T11:25:34Z</time>
      </trkpt>
      <trkpt lat="41.631800100" lon="2.539218440">
        <ele>337.50</ele>
        <time>2014-04-06T11:25:35Z</time>
      </trkpt>
      <trkpt lat="41.631781830" lon="2.539236710">
        <ele>337.50</ele>
        <time>2014-04-06T11:25:36Z</time>
      </trkpt>
      <trkpt lat="41.631765060" lon="2.539255150">
        <ele>337.20</ele>
        <time>2014-04-06T11:25:37Z</time>
      </trkpt>
      <trkpt lat="41.631748470" lon="2.539273420">
        <ele>337.00</ele>
        <time>2014-04-06T11:25:38Z</time>
      </trkpt>
      <trkpt lat="41.631733380" lon="2.539290020">
        <ele>336.90</ele>
        <time>2014-04-06T11:25:39Z</time>
      </trkpt>
      <trkpt lat="41.631715110" lon="2.539301750">
        <ele>337.40</ele>
        <time>2014-04-06T11:25:40Z</time>
      </trkpt>
      <trkpt lat="41.631693480" lon="2.539310130">
        <ele>337.80</ele>
        <time>2014-04-06T11:25:41Z</time>
      </trkpt>
      <trkpt lat="41.631671690" lon="2.539318350">
        <ele>338.30</ele>
        <time>2014-04-06T11:25:42Z</time>
      </trkpt>
      <trkpt lat="41.631648390" lon="2.539321700">
        <ele>338.60</ele>
        <time>2014-04-06T11:25:43Z</time>
      </trkpt>
      <trkpt lat="41.631625080" lon="2.539321700">
        <ele>338.90</ele>
        <time>2014-04-06T11:25:44Z</time>
      </trkpt>
      <trkpt lat="41.631603460" lon="2.539323380">
        <ele>339.10</ele>
        <time>2014-04-06T11:25:45Z</time>
      </trkpt>
      <trkpt lat="41.631583340" lon="2.539323380">
        <ele>339.30</ele>
        <time>2014-04-06T11:25:46Z</time>
      </trkpt>
      <trkpt lat="41.631560040" lon="2.539325050">
        <ele>339.50</ele>
        <time>2014-04-06T11:25:47Z</time>
      </trkpt>
      <trkpt lat="41.631538420" lon="2.539325050">
        <ele>339.70</ele>
        <time>2014-04-06T11:25:48Z</time>
      </trkpt>
      <trkpt lat="41.631516790" lon="2.539323380">
        <ele>340.00</ele>
        <time>2014-04-06T11:25:49Z</time>
      </trkpt>
      <trkpt lat="41.631495000" lon="2.539321700">
        <ele>340.20</ele>
        <time>2014-04-06T11:25:50Z</time>
      </trkpt>
      <trkpt lat="41.631475050" lon="2.539320020">
        <ele>340.30</ele>
        <time>2014-04-06T11:25:51Z</time>
      </trkpt>
      <trkpt lat="41.631453420" lon="2.539318350">
        <ele>340.50</ele>
        <time>2014-04-06T11:25:52Z</time>
      </trkpt>
      <trkpt lat="41.631431800" lon="2.539313490">
        <ele>340.70</ele>
        <time>2014-04-06T11:25:53Z</time>
      </trkpt>
      <trkpt lat="41.631410010" lon="2.539306780">
        <ele>341.30</ele>
        <time>2014-04-06T11:25:54Z</time>
      </trkpt>
      <trkpt lat="41.631390060" lon="2.539300080">
        <ele>341.80</ele>
        <time>2014-04-06T11:25:55Z</time>
      </trkpt>
      <trkpt lat="41.631370110" lon="2.539288340">
        <ele>342.10</ele>
        <time>2014-04-06T11:25:56Z</time>
      </trkpt>
      <trkpt lat="41.631351670" lon="2.539278450">
        <ele>342.40</ele>
        <time>2014-04-06T11:25:57Z</time>
      </trkpt>
      <trkpt lat="41.631333390" lon="2.539266720">
        <ele>342.60</ele>
        <time>2014-04-06T11:25:58Z</time>
      </trkpt>
      <trkpt lat="41.631318470" lon="2.539253470">
        <ele>342.70</ele>
        <time>2014-04-06T11:25:59Z</time>
      </trkpt>
      <trkpt lat="41.631300030" lon="2.539240060">
        <ele>342.70</ele>
        <time>2014-04-06T11:26:00Z</time>
      </trkpt>
      <trkpt lat="41.631281760" lon="2.539226820">
        <ele>343.20</ele>
        <time>2014-04-06T11:26:01Z</time>
      </trkpt>
      <trkpt lat="41.631261810" lon="2.539213410">
        <ele>343.60</ele>
        <time>2014-04-06T11:26:02Z</time>
      </trkpt>
      <trkpt lat="41.631245050" lon="2.539203350">
        <ele>343.50</ele>
        <time>2014-04-06T11:26:03Z</time>
      </trkpt>
      <trkpt lat="41.631228450" lon="2.539193460">
        <ele>343.50</ele>
        <time>2014-04-06T11:26:04Z</time>
      </trkpt>
      <trkpt lat="41.631211690" lon="2.539181720">
        <ele>343.40</ele>
        <time>2014-04-06T11:26:05Z</time>
      </trkpt>
      <trkpt lat="41.631193420" lon="2.539171660">
        <ele>343.70</ele>
        <time>2014-04-06T11:26:06Z</time>
      </trkpt>
      <trkpt lat="41.631175140" lon="2.539166800">
        <ele>344.00</ele>
        <time>2014-04-06T11:26:07Z</time>
      </trkpt>
      <trkpt lat="41.631153350" lon="2.539163450">
        <ele>344.30</ele>
        <time>2014-04-06T11:26:08Z</time>
      </trkpt>
      <trkpt lat="41.631133400" lon="2.539160100">
        <ele>344.60</ele>
        <time>2014-04-06T11:26:09Z</time>
      </trkpt>
      <trkpt lat="41.631111780" lon="2.539158420">
        <ele>344.80</ele>
        <time>2014-04-06T11:26:10Z</time>
      </trkpt>
      <trkpt lat="41.631091830" lon="2.539158420">
        <ele>344.70</ele>
        <time>2014-04-06T11:26:11Z</time>
      </trkpt>
      <trkpt lat="41.631070040" lon="2.539161770">
        <ele>344.70</ele>
        <time>2014-04-06T11:26:12Z</time>
      </trkpt>
      <trkpt lat="41.631050090" lon="2.539165130">
        <ele>345.20</ele>
        <time>2014-04-06T11:26:13Z</time>
      </trkpt>
      <trkpt lat="41.631028460" lon="2.539171660">
        <ele>345.60</ele>
        <time>2014-04-06T11:26:14Z</time>
      </trkpt>
      <trkpt lat="41.631006670" lon="2.539176690">
        <ele>346.40</ele>
        <time>2014-04-06T11:26:15Z</time>
      </trkpt>
      <trkpt lat="41.630985040" lon="2.539185080">
        <ele>346.90</ele>
        <time>2014-04-06T11:26:16Z</time>
      </trkpt>
      <trkpt lat="41.630966770" lon="2.539193460">
        <ele>347.30</ele>
        <time>2014-04-06T11:26:17Z</time>
      </trkpt>
      <trkpt lat="41.630946820" lon="2.539201670">
        <ele>347.90</ele>
        <time>2014-04-06T11:26:18Z</time>
      </trkpt>
      <trkpt lat="41.630926700" lon="2.539215080">
        <ele>348.30</ele>
        <time>2014-04-06T11:26:19Z</time>
      </trkpt>
      <trkpt lat="41.630911780" lon="2.539226820">
        <ele>348.50</ele>
        <time>2014-04-06T11:26:20Z</time>
      </trkpt>
      <trkpt lat="41.630898370" lon="2.539238380">
        <ele>348.70</ele>
        <time>2014-04-06T11:26:21Z</time>
      </trkpt>
      <trkpt lat="41.630886810" lon="2.539255150">
        <ele>349.10</ele>
        <time>2014-04-06T11:26:22Z</time>
      </trkpt>
      <trkpt lat="41.630873400" lon="2.539271740">
        <ele>349.40</ele>
        <time>2014-04-06T11:26:23Z</time>
      </trkpt>
      <trkpt lat="41.630860150" lon="2.539286660">
        <ele>349.60</ele>
        <time>2014-04-06T11:26:24Z</time>
      </trkpt>
      <trkpt lat="41.630848420" lon="2.539301750">
        <ele>349.80</ele>
        <time>2014-04-06T11:26:25Z</time>
      </trkpt>
      <trkpt lat="41.630840040" lon="2.539315000">
        <ele>349.90</ele>
        <time>2014-04-06T11:26:26Z</time>
      </trkpt>
      <trkpt lat="41.630828470" lon="2.539326730">
        <ele>349.80</ele>
        <time>2014-04-06T11:26:27Z</time>
      </trkpt>
      <trkpt lat="41.630820090" lon="2.539338460">
        <ele>349.80</ele>
        <time>2014-04-06T11:26:28Z</time>
      </trkpt>
      <trkpt lat="41.630811700" lon="2.539350030">
        <ele>349.80</ele>
        <time>2014-04-06T11:26:29Z</time>
      </trkpt>
      <trkpt lat="41.630796790" lon="2.539360090">
        <ele>350.10</ele>
        <time>2014-04-06T11:26:30Z</time>
      </trkpt>
      <trkpt lat="41.630778340" lon="2.539370150">
        <ele>350.30</ele>
        <time>2014-04-06T11:26:31Z</time>
      </trkpt>
      <trkpt lat="41.630758400" lon="2.539378360">
        <ele>350.90</ele>
        <time>2014-04-06T11:26:32Z</time>
      </trkpt>
      <trkpt lat="41.630738450" lon="2.539388420">
        <ele>351.30</ele>
        <time>2014-04-06T11:26:33Z</time>
      </trkpt>
      <trkpt lat="41.630716820" lon="2.539406690">
        <ele>351.40</ele>
        <time>2014-04-06T11:26:34Z</time>
      </trkpt>
      <trkpt lat="41.630700060" lon="2.539425130">
        <ele>351.50</ele>
        <time>2014-04-06T11:26:35Z</time>
      </trkpt>
      <trkpt lat="41.630681790" lon="2.539443410">
        <ele>351.60</ele>
        <time>2014-04-06T11:26:36Z</time>
      </trkpt>
      <trkpt lat="41.630663350" lon="2.539461680">
        <ele>351.90</ele>
        <time>2014-04-06T11:26:37Z</time>
      </trkpt>
      <trkpt lat="41.630646750" lon="2.539481800">
        <ele>352.20</ele>
        <time>2014-04-06T11:26:38Z</time>
      </trkpt>
      <trkpt lat="41.630631830" lon="2.539501740">
        <ele>352.10</ele>
        <time>2014-04-06T11:26:39Z</time>
      </trkpt>
      <trkpt lat="41.630616740" lon="2.539520020">
        <ele>352.10</ele>
        <time>2014-04-06T11:26:40Z</time>
      </trkpt>
      <trkpt lat="41.630600150" lon="2.539538460">
        <ele>352.30</ele>
        <time>2014-04-06T11:26:41Z</time>
      </trkpt>
      <trkpt lat="41.630585060" lon="2.539560080">
        <ele>352.50</ele>
        <time>2014-04-06T11:26:42Z</time>
      </trkpt>
      <trkpt lat="41.630571810" lon="2.539581710">
        <ele>352.60</ele>
        <time>2014-04-06T11:26:43Z</time>
      </trkpt>
      <trkpt lat="41.630558400" lon="2.539606690">
        <ele>352.90</ele>
        <time>2014-04-06T11:26:44Z</time>
      </trkpt>
      <trkpt lat="41.630546670" lon="2.539630150">
        <ele>353.10</ele>
        <time>2014-04-06T11:26:45Z</time>
      </trkpt>
      <trkpt lat="41.630535100" lon="2.539655130">
        <ele>353.40</ele>
        <time>2014-04-06T11:26:46Z</time>
      </trkpt>
      <trkpt lat="41.630525040" lon="2.539681790">
        <ele>353.60</ele>
        <time>2014-04-06T11:26:47Z</time>
      </trkpt>
      <trkpt lat="41.630515150" lon="2.539708440">
        <ele>353.80</ele>
        <time>2014-04-06T11:26:48Z</time>
      </trkpt>
      <trkpt lat="41.630506770" lon="2.539736770">
        <ele>353.60</ele>
        <time>2014-04-06T11:26:49Z</time>
      </trkpt>
      <trkpt lat="41.630496710" lon="2.539763430">
        <ele>353.50</ele>
        <time>2014-04-06T11:26:50Z</time>
      </trkpt>
      <trkpt lat="41.630485150" lon="2.539790080">
        <ele>353.50</ele>
        <time>2014-04-06T11:26:51Z</time>
      </trkpt>
      <trkpt lat="41.630473410" lon="2.539818410">
        <ele>353.50</ele>
        <time>2014-04-06T11:26:52Z</time>
      </trkpt>
      <trkpt lat="41.630463350" lon="2.539845070">
        <ele>353.30</ele>
        <time>2014-04-06T11:26:53Z</time>
      </trkpt>
      <trkpt lat="41.630451790" lon="2.539871720">
        <ele>353.20</ele>
        <time>2014-04-06T11:26:54Z</time>
      </trkpt>
      <trkpt lat="41.630438370" lon="2.539896700">
        <ele>353.20</ele>
        <time>2014-04-06T11:26:55Z</time>
      </trkpt>
      <trkpt lat="41.630426810" lon="2.539920000">
        <ele>353.30</ele>
        <time>2014-04-06T11:26:56Z</time>
      </trkpt>
      <trkpt lat="41.630413400" lon="2.539945150">
        <ele>353.40</ele>
        <time>2014-04-06T11:26:57Z</time>
      </trkpt>
      <trkpt lat="41.630400150" lon="2.539970120">
        <ele>353.40</ele>
        <time>2014-04-06T11:26:58Z</time>
      </trkpt>
      <trkpt lat="41.630385070" lon="2.539995100">
        <ele>353.40</ele>
        <time>2014-04-06T11:26:59Z</time>
      </trkpt>
      <trkpt lat="41.630371820" lon="2.540018400">
        <ele>353.30</ele>
        <time>2014-04-06T11:27:00Z</time>
      </trkpt>
      <trkpt lat="41.630356740" lon="2.540043380">
        <ele>353.30</ele>
        <time>2014-04-06T11:27:01Z</time>
      </trkpt>
      <trkpt lat="41.630341820" lon="2.540068360">
        <ele>353.30</ele>
        <time>2014-04-06T11:27:02Z</time>
      </trkpt>
      <trkpt lat="41.630326730" lon="2.540093340">
        <ele>353.30</ele>
        <time>2014-04-06T11:27:03Z</time>
      </trkpt>
      <trkpt lat="41.630311810" lon="2.540115130">
        <ele>353.40</ele>
        <time>2014-04-06T11:27:04Z</time>
      </trkpt>
      <trkpt lat="41.630295040" lon="2.540140110">
        <ele>353.20</ele>
        <time>2014-04-06T11:27:05Z</time>
      </trkpt>
      <trkpt lat="41.630278450" lon="2.540163410">
        <ele>353.10</ele>
        <time>2014-04-06T11:27:06Z</time>
      </trkpt>
      <trkpt lat="41.630261680" lon="2.540190070">
        <ele>353.10</ele>
        <time>2014-04-06T11:27:07Z</time>
      </trkpt>
      <trkpt lat="41.630243410" lon="2.540215040">
        <ele>352.90</ele>
        <time>2014-04-06T11:27:08Z</time>
      </trkpt>
      <trkpt lat="41.630226820" lon="2.540238350">
        <ele>352.70</ele>
        <time>2014-04-06T11:27:09Z</time>
      </trkpt>
      <trkpt lat="41.630206700" lon="2.540258460">
        <ele>353.10</ele>
        <time>2014-04-06T11:27:10Z</time>
      </trkpt>
      <trkpt lat="41.630188430" lon="2.540278410">
        <ele>353.30</ele>
        <time>2014-04-06T11:27:11Z</time>
      </trkpt>
      <trkpt lat="41.630168480" lon="2.540298360">
        <ele>353.40</ele>
        <time>2014-04-06T11:27:12Z</time>
      </trkpt>
      <trkpt lat="41.630150040" lon="2.540320150">
        <ele>353.50</ele>
        <time>2014-04-06T11:27:13Z</time>
      </trkpt>
      <trkpt lat="41.630131760" lon="2.540340100">
        <ele>353.60</ele>
        <time>2014-04-06T11:27:14Z</time>
      </trkpt>
      <trkpt lat="41.630111820" lon="2.540353350">
        <ele>353.60</ele>
        <time>2014-04-06T11:27:15Z</time>
      </trkpt>
      <trkpt lat="41.630090020" lon="2.540360050">
        <ele>353.60</ele>
        <time>2014-04-06T11:27:16Z</time>
      </trkpt>
      <trkpt lat="41.630065040" lon="2.540368430">
        <ele>353.80</ele>
        <time>2014-04-06T11:27:17Z</time>
      </trkpt>
      <trkpt lat="41.630036710" lon="2.540375140">
        <ele>353.90</ele>
        <time>2014-04-06T11:27:18Z</time>
      </trkpt>
      <trkpt lat="41.630005030" lon="2.540378490">
        <ele>353.70</ele>
        <time>2014-04-06T11:27:19Z</time>
      </trkpt>
      <trkpt lat="41.629976700" lon="2.540380000">
        <ele>353.60</ele>
        <time>2014-04-06T11:27:20Z</time>
      </trkpt>
      <trkpt lat="41.629948370" lon="2.540380000">
        <ele>353.60</ele>
        <time>2014-04-06T11:27:21Z</time>
      </trkpt>
      <trkpt lat="41.629921710" lon="2.540381680">
        <ele>353.60</ele>
        <time>2014-04-06T11:27:22Z</time>
      </trkpt>
      <trkpt lat="41.629893380" lon="2.540386710">
        <ele>353.60</ele>
        <time>2014-04-06T11:27:23Z</time>
      </trkpt>
      <trkpt lat="41.629865050" lon="2.540390060">
        <ele>353.80</ele>
        <time>2014-04-06T11:27:24Z</time>
      </trkpt>
      <trkpt lat="41.629836720" lon="2.540405150">
        <ele>354.00</ele>
        <time>2014-04-06T11:27:25Z</time>
      </trkpt>
      <trkpt lat="41.629803360" lon="2.540428450">
        <ele>354.10</ele>
        <time>2014-04-06T11:27:26Z</time>
      </trkpt>
      <trkpt lat="41.629761790" lon="2.540463480">
        <ele>353.60</ele>
        <time>2014-04-06T11:27:27Z</time>
      </trkpt>
      <trkpt lat="41.629716690" lon="2.540501710">
        <ele>353.20</ele>
        <time>2014-04-06T11:27:28Z</time>
      </trkpt>
      <trkpt lat="41.629673440" lon="2.540541770">
        <ele>352.30</ele>
        <time>2014-04-06T11:27:29Z</time>
      </trkpt>
      <trkpt lat="41.629630020" lon="2.540580160">
        <ele>351.60</ele>
        <time>2014-04-06T11:27:30Z</time>
      </trkpt>
      <trkpt lat="41.629581740" lon="2.540618380">
        <ele>350.70</ele>
        <time>2014-04-06T11:27:31Z</time>
      </trkpt>
      <trkpt lat="41.629535140" lon="2.540653420">
        <ele>350.00</ele>
        <time>2014-04-06T11:27:32Z</time>
      </trkpt>
      <trkpt lat="41.629488370" lon="2.540678400">
        <ele>349.50</ele>
        <time>2014-04-06T11:27:33Z</time>
      </trkpt>
      <trkpt lat="41.629440090" lon="2.540705050">
        <ele>348.40</ele>
        <time>2014-04-06T11:27:34Z</time>
      </trkpt>
      <trkpt lat="41.629396670" lon="2.540730030">
        <ele>347.60</ele>
        <time>2014-04-06T11:27:35Z</time>
      </trkpt>
      <trkpt lat="41.629346720" lon="2.540765060">
        <ele>346.80</ele>
        <time>2014-04-06T11:27:36Z</time>
      </trkpt>
      <trkpt lat="41.629288380" lon="2.540801780">
        <ele>346.30</ele>
        <time>2014-04-06T11:27:37Z</time>
      </trkpt>
      <trkpt lat="41.629233390" lon="2.540825080">
        <ele>345.30</ele>
        <time>2014-04-06T11:27:38Z</time>
      </trkpt>
      <trkpt lat="41.629186790" lon="2.540826760">
        <ele>344.50</ele>
        <time>2014-04-06T11:27:39Z</time>
      </trkpt>
      <trkpt lat="41.629143370" lon="2.540813340">
        <ele>343.90</ele>
        <time>2014-04-06T11:27:40Z</time>
      </trkpt>
      <trkpt lat="41.629101800" lon="2.540786690">
        <ele>343.00</ele>
        <time>2014-04-06T11:27:41Z</time>
      </trkpt>
      <trkpt lat="41.629065080" lon="2.540750140">
        <ele>342.20</ele>
        <time>2014-04-06T11:27:42Z</time>
      </trkpt>
      <trkpt lat="41.629035080" lon="2.540708400">
        <ele>341.20</ele>
        <time>2014-04-06T11:27:43Z</time>
      </trkpt>
      <trkpt lat="41.629005070" lon="2.540665150">
        <ele>340.00</ele>
        <time>2014-04-06T11:27:44Z</time>
      </trkpt>
      <trkpt lat="41.628973390" lon="2.540618380">
        <ele>339.10</ele>
        <time>2014-04-06T11:27:45Z</time>
      </trkpt>
      <trkpt lat="41.628943380" lon="2.540568420">
        <ele>338.40</ele>
        <time>2014-04-06T11:27:46Z</time>
      </trkpt>
      <trkpt lat="41.628911700" lon="2.540516790">
        <ele>337.90</ele>
        <time>2014-04-06T11:27:47Z</time>
      </trkpt>
      <trkpt lat="41.628880010" lon="2.540463480">
        <ele>337.10</ele>
        <time>2014-04-06T11:27:48Z</time>
      </trkpt>
      <trkpt lat="41.628843470" lon="2.540406820">
        <ele>336.40</ele>
        <time>2014-04-06T11:27:49Z</time>
      </trkpt>
      <trkpt lat="41.628806750" lon="2.540345130">
        <ele>335.20</ele>
        <time>2014-04-06T11:27:50Z</time>
      </trkpt>
      <trkpt lat="41.628773390" lon="2.540280090">
        <ele>334.20</ele>
        <time>2014-04-06T11:27:51Z</time>
      </trkpt>
      <trkpt lat="41.628738360" lon="2.540215040">
        <ele>333.50</ele>
        <time>2014-04-06T11:27:52Z</time>
      </trkpt>
      <trkpt lat="41.628701810" lon="2.540145140">
        <ele>332.50</ele>
        <time>2014-04-06T11:27:53Z</time>
      </trkpt>
      <trkpt lat="41.628660070" lon="2.540086800">
        <ele>331.80</ele>
        <time>2014-04-06T11:27:54Z</time>
      </trkpt>
      <trkpt lat="41.628618330" lon="2.540035000">
        <ele>330.80</ele>
        <time>2014-04-06T11:27:55Z</time>
      </trkpt>
      <trkpt lat="41.628575080" lon="2.539988400">
        <ele>330.10</ele>
        <time>2014-04-06T11:27:56Z</time>
      </trkpt>
      <trkpt lat="41.628536690" lon="2.539936760">
        <ele>329.00</ele>
        <time>2014-04-06T11:27:57Z</time>
      </trkpt>
      <trkpt lat="41.628498470" lon="2.539880100">
        <ele>328.20</ele>
        <time>2014-04-06T11:27:58Z</time>
      </trkpt>
      <trkpt lat="41.628456730" lon="2.539831820">
        <ele>327.60</ele>
        <time>2014-04-06T11:27:59Z</time>
      </trkpt>
      <trkpt lat="41.628408450" lon="2.539803490">
        <ele>326.30</ele>
        <time>2014-04-06T11:28:00Z</time>
      </trkpt>
      <trkpt lat="41.628360000" lon="2.539785050">
        <ele>325.30</ele>
        <time>2014-04-06T11:28:01Z</time>
      </trkpt>
      <trkpt lat="41.628318420" lon="2.539780020">
        <ele>324.20</ele>
        <time>2014-04-06T11:28:02Z</time>
      </trkpt>
      <trkpt lat="41.628280030" lon="2.539781700">
        <ele>323.40</ele>
        <time>2014-04-06T11:28:03Z</time>
      </trkpt>
      <trkpt lat="41.628241810" lon="2.539786730">
        <ele>322.80</ele>
        <time>2014-04-06T11:28:04Z</time>
      </trkpt>
      <trkpt lat="41.628210130" lon="2.539785050">
        <ele>322.40</ele>
        <time>2014-04-06T11:28:05Z</time>
      </trkpt>
      <trkpt lat="41.628178450" lon="2.539776670">
        <ele>322.10</ele>
        <time>2014-04-06T11:28:06Z</time>
      </trkpt>
      <trkpt lat="41.628140060" lon="2.539760070">
        <ele>322.00</ele>
        <time>2014-04-06T11:28:07Z</time>
      </trkpt>
      <trkpt lat="41.628100160" lon="2.539731740">
        <ele>321.90</ele>
        <time>2014-04-06T11:28:08Z</time>
      </trkpt>
      <trkpt lat="41.628056740" lon="2.539696710">
        <ele>321.30</ele>
        <time>2014-04-06T11:28:09Z</time>
      </trkpt>
      <trkpt lat="41.628006780" lon="2.539656810">
        <ele>320.90</ele>
        <time>2014-04-06T11:28:10Z</time>
      </trkpt>
      <trkpt lat="41.627955150" lon="2.539608360">
        <ele>320.60</ele>
        <time>2014-04-06T11:28:11Z</time>
      </trkpt>
      <trkpt lat="41.627901680" lon="2.539556730">
        <ele>320.00</ele>
        <time>2014-04-06T11:28:12Z</time>
      </trkpt>
      <trkpt lat="41.627846690" lon="2.539503420">
        <ele>319.70</ele>
        <time>2014-04-06T11:28:13Z</time>
      </trkpt>
      <trkpt lat="41.627793380" lon="2.539445080">
        <ele>318.60</ele>
        <time>2014-04-06T11:28:14Z</time>
      </trkpt>
      <trkpt lat="41.627735040" lon="2.539385070">
        <ele>317.80</ele>
        <time>2014-04-06T11:28:15Z</time>
      </trkpt>
      <trkpt lat="41.627663460" lon="2.539331760">
        <ele>316.60</ele>
        <time>2014-04-06T11:28:16Z</time>
      </trkpt>
      <trkpt lat="41.627590040" lon="2.539286660">
        <ele>315.70</ele>
        <time>2014-04-06T11:28:17Z</time>
      </trkpt>
      <trkpt lat="41.627515100" lon="2.539248440">
        <ele>315.10</ele>
        <time>2014-04-06T11:28:18Z</time>
      </trkpt>
      <trkpt lat="41.627436820" lon="2.539210050">
        <ele>315.00</ele>
        <time>2014-04-06T11:28:19Z</time>
      </trkpt>
      <trkpt lat="41.627358360" lon="2.539176690">
        <ele>314.90</ele>
        <time>2014-04-06T11:28:20Z</time>
      </trkpt>
      <trkpt lat="41.627280070" lon="2.539160100">
        <ele>313.80</ele>
        <time>2014-04-06T11:28:21Z</time>
      </trkpt>
      <trkpt lat="41.627206820" lon="2.539155070">
        <ele>313.10</ele>
        <time>2014-04-06T11:28:22Z</time>
      </trkpt>
      <trkpt lat="41.627140100" lon="2.539155070">
        <ele>311.60</ele>
        <time>2014-04-06T11:28:23Z</time>
      </trkpt>
      <trkpt lat="41.627071700" lon="2.539155070">
        <ele>310.50</ele>
        <time>2014-04-06T11:28:24Z</time>
      </trkpt>
      <trkpt lat="41.627005150" lon="2.539151720">
        <ele>309.70</ele>
        <time>2014-04-06T11:28:25Z</time>
      </trkpt>
      <trkpt lat="41.626933400" lon="2.539138470">
        <ele>309.00</ele>
        <time>2014-04-06T11:28:26Z</time>
      </trkpt>
      <trkpt lat="41.626868350" lon="2.539121710">
        <ele>308.40</ele>
        <time>2014-04-06T11:28:27Z</time>
      </trkpt>
      <trkpt lat="41.626808340" lon="2.539120030">
        <ele>306.90</ele>
        <time>2014-04-06T11:28:28Z</time>
      </trkpt>
      <trkpt lat="41.626746820" lon="2.539140150">
        <ele>305.80</ele>
        <time>2014-04-06T11:28:29Z</time>
      </trkpt>
      <trkpt lat="41.626688480" lon="2.539180050">
        <ele>304.90</ele>
        <time>2014-04-06T11:28:30Z</time>
      </trkpt>
      <trkpt lat="41.626633490" lon="2.539233360">
        <ele>304.30</ele>
        <time>2014-04-06T11:28:31Z</time>
      </trkpt>
      <trkpt lat="41.626580020" lon="2.539290020">
        <ele>303.80</ele>
        <time>2014-04-06T11:28:32Z</time>
      </trkpt>
      <trkpt lat="41.626528380" lon="2.539343490">
        <ele>303.00</ele>
        <time>2014-04-06T11:28:33Z</time>
      </trkpt>
      <trkpt lat="41.626473400" lon="2.539395130">
        <ele>302.50</ele>
        <time>2014-04-06T11:28:34Z</time>
      </trkpt>
      <trkpt lat="41.626415060" lon="2.539445080">
        <ele>301.50</ele>
        <time>2014-04-06T11:28:35Z</time>
      </trkpt>
      <trkpt lat="41.626358400" lon="2.539483470">
        <ele>300.90</ele>
        <time>2014-04-06T11:28:36Z</time>
      </trkpt>
      <trkpt lat="41.626301740" lon="2.539516660">
        <ele>300.30</ele>
        <time>2014-04-06T11:28:37Z</time>
      </trkpt>
      <trkpt lat="41.626250110" lon="2.539540130">
        <ele>299.60</ele>
        <time>2014-04-06T11:28:38Z</time>
      </trkpt>
      <trkpt lat="41.626196800" lon="2.539565110">
        <ele>299.10</ele>
        <time>2014-04-06T11:28:39Z</time>
      </trkpt>
      <trkpt lat="41.626138460" lon="2.539596790">
        <ele>298.20</ele>
        <time>2014-04-06T11:28:40Z</time>
      </trkpt>
      <trkpt lat="41.626078440" lon="2.539631660">
        <ele>297.60</ele>
        <time>2014-04-06T11:28:41Z</time>
      </trkpt>
      <trkpt lat="41.626015080" lon="2.539668380">
        <ele>296.60</ele>
        <time>2014-04-06T11:28:42Z</time>
      </trkpt>
      <trkpt lat="41.625951710" lon="2.539705090">
        <ele>295.80</ele>
        <time>2014-04-06T11:28:43Z</time>
      </trkpt>
      <trkpt lat="41.625886670" lon="2.539741800">
        <ele>295.20</ele>
        <time>2014-04-06T11:28:44Z</time>
      </trkpt>
      <trkpt lat="41.625818440" lon="2.539780020">
        <ele>294.40</ele>
        <time>2014-04-06T11:28:45Z</time>
      </trkpt>
      <trkpt lat="41.625750040" lon="2.539820090">
        <ele>293.80</ele>
        <time>2014-04-06T11:28:46Z</time>
      </trkpt>
      <trkpt lat="41.625676780" lon="2.539866690">
        <ele>292.30</ele>
        <time>2014-04-06T11:28:47Z</time>
      </trkpt>
      <trkpt lat="41.625600010" lon="2.539916820">
        <ele>291.20</ele>
        <time>2014-04-06T11:28:48Z</time>
      </trkpt>
      <trkpt lat="41.625523390" lon="2.539971800">
        <ele>290.30</ele>
        <time>2014-04-06T11:28:49Z</time>
      </trkpt>
      <trkpt lat="41.625453490" lon="2.540033490">
        <ele>289.30</ele>
        <time>2014-04-06T11:28:50Z</time>
      </trkpt>
      <trkpt lat="41.625385090" lon="2.540096690">
        <ele>288.50</ele>
        <time>2014-04-06T11:28:51Z</time>
      </trkpt>
      <trkpt lat="41.625320050" lon="2.540161740">
        <ele>287.20</ele>
        <time>2014-04-06T11:28:52Z</time>
      </trkpt>
      <trkpt lat="41.625256680" lon="2.540220070">
        <ele>286.10</ele>
        <time>2014-04-06T11:28:53Z</time>
      </trkpt>
      <trkpt lat="41.625198340" lon="2.540275060">
        <ele>285.00</ele>
        <time>2014-04-06T11:28:54Z</time>
      </trkpt>
      <trkpt lat="41.625155090" lon="2.540323340">
        <ele>284.20</ele>
        <time>2014-04-06T11:28:55Z</time>
      </trkpt>
      <trkpt lat="41.625116700" lon="2.540371790">
        <ele>283.60</ele>
        <time>2014-04-06T11:28:56Z</time>
      </trkpt>
      <trkpt lat="41.625075130" lon="2.540415040">
        <ele>282.30</ele>
        <time>2014-04-06T11:28:57Z</time>
      </trkpt>
      <trkpt lat="41.625030040" lon="2.540441690">
        <ele>281.30</ele>
        <time>2014-04-06T11:28:58Z</time>
      </trkpt>
      <trkpt lat="41.624980080" lon="2.540466670">
        <ele>280.50</ele>
        <time>2014-04-06T11:28:59Z</time>
      </trkpt>
      <trkpt lat="41.624920070" lon="2.540511760">
        <ele>280.00</ele>
        <time>2014-04-06T11:29:00Z</time>
      </trkpt>
      <trkpt lat="41.624861730" lon="2.540568420">
        <ele>279.20</ele>
        <time>2014-04-06T11:29:01Z</time>
      </trkpt>
      <trkpt lat="41.624803390" lon="2.540628440">
        <ele>278.60</ele>
        <time>2014-04-06T11:29:02Z</time>
      </trkpt>
      <trkpt lat="41.624743370" lon="2.540693480">
        <ele>278.20</ele>
        <time>2014-04-06T11:29:03Z</time>
      </trkpt>
      <trkpt lat="41.624686710" lon="2.540758360">
        <ele>277.10</ele>
        <time>2014-04-06T11:29:04Z</time>
      </trkpt>
      <trkpt lat="41.624628370" lon="2.540820050">
        <ele>276.30</ele>
        <time>2014-04-06T11:29:05Z</time>
      </trkpt>
      <trkpt lat="41.624571710" lon="2.540881740">
        <ele>275.00</ele>
        <time>2014-04-06T11:29:06Z</time>
      </trkpt>
      <trkpt lat="41.624513380" lon="2.540938400">
        <ele>274.00</ele>
        <time>2014-04-06T11:29:07Z</time>
      </trkpt>
      <trkpt lat="41.624456710" lon="2.540993390">
        <ele>273.30</ele>
        <time>2014-04-06T11:29:08Z</time>
      </trkpt>
      <trkpt lat="41.624400050" lon="2.541051730">
        <ele>272.50</ele>
        <time>2014-04-06T11:29:09Z</time>
      </trkpt>
      <trkpt lat="41.624348420" lon="2.541120120">
        <ele>272.00</ele>
        <time>2014-04-06T11:29:10Z</time>
      </trkpt>
      <trkpt lat="41.624293430" lon="2.541178460">
        <ele>271.20</ele>
        <time>2014-04-06T11:29:11Z</time>
      </trkpt>
      <trkpt lat="41.624235100" lon="2.541223390">
        <ele>270.70</ele>
        <time>2014-04-06T11:29:12Z</time>
      </trkpt>
      <trkpt lat="41.624173410" lon="2.541263450">
        <ele>269.90</ele>
        <time>2014-04-06T11:29:13Z</time>
      </trkpt>
      <trkpt lat="41.624111710" lon="2.541296810">
        <ele>269.30</ele>
        <time>2014-04-06T11:29:14Z</time>
      </trkpt>
      <trkpt lat="41.624055050" lon="2.541330000">
        <ele>268.80</ele>
        <time>2014-04-06T11:29:15Z</time>
      </trkpt>
      <trkpt lat="41.624006770" lon="2.541353470">
        <ele>267.90</ele>
        <time>2014-04-06T11:29:16Z</time>
      </trkpt>
      <trkpt lat="41.623955140" lon="2.541378450">
        <ele>267.20</ele>
        <time>2014-04-06T11:29:17Z</time>
      </trkpt>
      <trkpt lat="41.623896800" lon="2.541395050">
        <ele>266.70</ele>
        <time>2014-04-06T11:29:18Z</time>
      </trkpt>
      <trkpt lat="41.623838460" lon="2.541401750">
        <ele>266.30</ele>
        <time>2014-04-06T11:29:19Z</time>
      </trkpt>
      <trkpt lat="41.623783480" lon="2.541403430">
        <ele>265.30</ele>
        <time>2014-04-06T11:29:20Z</time>
      </trkpt>
      <trkpt lat="41.623733360" lon="2.541420030">
        <ele>264.50</ele>
        <time>2014-04-06T11:29:21Z</time>
      </trkpt>
      <trkpt lat="41.623686750" lon="2.541455060">
        <ele>263.80</ele>
        <time>2014-04-06T11:29:22Z</time>
      </trkpt>
      <trkpt lat="41.623643330" lon="2.541496800">
        <ele>262.80</ele>
        <time>2014-04-06T11:29:23Z</time>
      </trkpt>
      <trkpt lat="41.623605110" lon="2.541535030">
        <ele>262.10</ele>
        <time>2014-04-06T11:29:24Z</time>
      </trkpt>
      <trkpt lat="41.623570080" lon="2.541576770">
        <ele>261.20</ele>
        <time>2014-04-06T11:29:25Z</time>
      </trkpt>
      <trkpt lat="41.623533360" lon="2.541628400">
        <ele>260.60</ele>
        <time>2014-04-06T11:29:26Z</time>
      </trkpt>
      <trkpt lat="41.623500000" lon="2.541681710">
        <ele>260.10</ele>
        <time>2014-04-06T11:29:27Z</time>
      </trkpt>
      <trkpt lat="41.623466810" lon="2.541733340">
        <ele>259.40</ele>
        <time>2014-04-06T11:29:28Z</time>
      </trkpt>
      <trkpt lat="41.623430100" lon="2.541773410">
        <ele>258.90</ele>
        <time>2014-04-06T11:29:29Z</time>
      </trkpt>
      <trkpt lat="41.623385000" lon="2.541795030">
        <ele>257.90</ele>
        <time>2014-04-06T11:29:30Z</time>
      </trkpt>
      <trkpt lat="41.623340080" lon="2.541801740">
        <ele>257.10</ele>
        <time>2014-04-06T11:29:31Z</time>
      </trkpt>
      <trkpt lat="41.623285090" lon="2.541808440">
        <ele>256.10</ele>
        <time>2014-04-06T11:29:32Z</time>
      </trkpt>
      <trkpt lat="41.623225080" lon="2.541821690">
        <ele>255.30</ele>
        <time>2014-04-06T11:29:33Z</time>
      </trkpt>
      <trkpt lat="41.623163390" lon="2.541846670">
        <ele>254.70</ele>
        <time>2014-04-06T11:29:34Z</time>
      </trkpt>
      <trkpt lat="41.623105050" lon="2.541873490">
        <ele>254.10</ele>
        <time>2014-04-06T11:29:35Z</time>
      </trkpt>
      <trkpt lat="41.623051740" lon="2.541895110">
        <ele>253.70</ele>
        <time>2014-04-06T11:29:36Z</time>
      </trkpt>
      <trkpt lat="41.622998430" lon="2.541915060">
        <ele>252.70</ele>
        <time>2014-04-06T11:29:37Z</time>
      </trkpt>
      <trkpt lat="41.622940090" lon="2.541930150">
        <ele>251.90</ele>
        <time>2014-04-06T11:29:38Z</time>
      </trkpt>
      <trkpt lat="41.622878400" lon="2.541941720">
        <ele>251.00</ele>
        <time>2014-04-06T11:29:39Z</time>
      </trkpt>
      <trkpt lat="41.622818390" lon="2.541956800">
        <ele>250.30</ele>
        <time>2014-04-06T11:29:40Z</time>
      </trkpt>
      <trkpt lat="41.622760050" lon="2.541976750">
        <ele>249.80</ele>
        <time>2014-04-06T11:29:41Z</time>
      </trkpt>
      <trkpt lat="41.622706740" lon="2.542001730">
        <ele>248.90</ele>
        <time>2014-04-06T11:29:42Z</time>
      </trkpt>
      <trkpt lat="41.622655110" lon="2.542015140">
        <ele>248.20</ele>
        <time>2014-04-06T11:29:43Z</time>
      </trkpt>
      <trkpt lat="41.622595090" lon="2.542025030">
        <ele>247.20</ele>
        <time>2014-04-06T11:29:44Z</time>
      </trkpt>
      <trkpt lat="41.622530050" lon="2.542031740">
        <ele>246.50</ele>
        <time>2014-04-06T11:29:45Z</time>
      </trkpt>
      <trkpt lat="41.622456790" lon="2.542045150">
        <ele>245.90</ele>
        <time>2014-04-06T11:29:46Z</time>
      </trkpt>
      <trkpt lat="41.622381690" lon="2.542063420">
        <ele>245.10</ele>
        <time>2014-04-06T11:29:47Z</time>
      </trkpt>
      <trkpt lat="41.622305080" lon="2.542086720">
        <ele>243.70</ele>
        <time>2014-04-06T11:29:48Z</time>
      </trkpt>
      <trkpt lat="41.622230140" lon="2.542111700">
        <ele>242.70</ele>
        <time>2014-04-06T11:29:49Z</time>
      </trkpt>
      <trkpt lat="41.622156720" lon="2.542140030">
        <ele>242.00</ele>
        <time>2014-04-06T11:29:50Z</time>
      </trkpt>
      <trkpt lat="41.622086810" lon="2.542178420">
        <ele>241.00</ele>
        <time>2014-04-06T11:29:51Z</time>
      </trkpt>
      <trkpt lat="41.622020090" lon="2.542230050">
        <ele>240.30</ele>
        <time>2014-04-06T11:29:52Z</time>
      </trkpt>
      <trkpt lat="41.621956730" lon="2.542291740">
        <ele>239.70</ele>
        <time>2014-04-06T11:29:53Z</time>
      </trkpt>
      <trkpt lat="41.621895040" lon="2.542348410">
        <ele>238.90</ele>
        <time>2014-04-06T11:29:54Z</time>
      </trkpt>
      <trkpt lat="41.621833350" lon="2.542403390">
        <ele>238.30</ele>
        <time>2014-04-06T11:29:55Z</time>
      </trkpt>
      <trkpt lat="41.621778360" lon="2.542480000">
        <ele>237.30</ele>
        <time>2014-04-06T11:29:56Z</time>
      </trkpt>
      <trkpt lat="41.621733430" lon="2.542563490">
        <ele>236.50</ele>
        <time>2014-04-06T11:29:57Z</time>
      </trkpt>
      <trkpt lat="41.621698400" lon="2.542636740">
        <ele>235.30</ele>
        <time>2014-04-06T11:29:58Z</time>
      </trkpt>
      <trkpt lat="41.621666710" lon="2.542700110">
        <ele>234.50</ele>
        <time>2014-04-06T11:29:59Z</time>
      </trkpt>
      <trkpt lat="41.621640060" lon="2.542733470">
        <ele>233.80</ele>
        <time>2014-04-06T11:30:00Z</time>
      </trkpt>
      <trkpt lat="41.621608380" lon="2.542740010">
        <ele>233.00</ele>
        <time>2014-04-06T11:30:01Z</time>
      </trkpt>
      <trkpt lat="41.621583400" lon="2.542715030">
        <ele>232.40</ele>
        <time>2014-04-06T11:30:02Z</time>
      </trkpt>
      <trkpt lat="41.621573340" lon="2.542673460">
        <ele>231.50</ele>
        <time>2014-04-06T11:30:03Z</time>
      </trkpt>
      <trkpt lat="41.621580040" lon="2.542626690">
        <ele>230.90</ele>
        <time>2014-04-06T11:30:04Z</time>
      </trkpt>
      <trkpt lat="41.621601670" lon="2.542581760">
        <ele>230.40</ele>
        <time>2014-04-06T11:30:05Z</time>
      </trkpt>
      <trkpt lat="41.621628490" lon="2.542531800">
        <ele>230.10</ele>
        <time>2014-04-06T11:30:06Z</time>
      </trkpt>
      <trkpt lat="41.621643410" lon="2.542475140">
        <ele>229.90</ele>
        <time>2014-04-06T11:30:07Z</time>
      </trkpt>
      <trkpt lat="41.621638380" lon="2.542410100">
        <ele>229.10</ele>
        <time>2014-04-06T11:30:08Z</time>
      </trkpt>
      <trkpt lat="41.621613400" lon="2.542338350">
        <ele>228.50</ele>
        <time>2014-04-06T11:30:09Z</time>
      </trkpt>
      <trkpt lat="41.621568480" lon="2.542270120">
        <ele>227.80</ele>
        <time>2014-04-06T11:30:10Z</time>
      </trkpt>
      <trkpt lat="41.621516680" lon="2.542203400">
        <ele>227.30</ele>
        <time>2014-04-06T11:30:11Z</time>
      </trkpt>
      <trkpt lat="41.621470070" lon="2.542141710">
        <ele>227.00</ele>
        <time>2014-04-06T11:30:12Z</time>
      </trkpt>
      <trkpt lat="41.621425150" lon="2.542083370">
        <ele>226.40</ele>
        <time>2014-04-06T11:30:13Z</time>
      </trkpt>
      <trkpt lat="41.621375020" lon="2.542031740">
        <ele>225.90</ele>
        <time>2014-04-06T11:30:14Z</time>
      </trkpt>
      <trkpt lat="41.621316680" lon="2.541986810">
        <ele>224.80</ele>
        <time>2014-04-06T11:30:15Z</time>
      </trkpt>
      <trkpt lat="41.621253490" lon="2.541953450">
        <ele>224.00</ele>
        <time>2014-04-06T11:30:16Z</time>
      </trkpt>
      <trkpt lat="41.621186770" lon="2.541933330">
        <ele>223.50</ele>
        <time>2014-04-06T11:30:17Z</time>
      </trkpt>
      <trkpt lat="41.621118370" lon="2.541923440">
        <ele>223.10</ele>
        <time>2014-04-06T11:30:18Z</time>
      </trkpt>
      <trkpt lat="41.621050140" lon="2.541918410">
        <ele>222.80</ele>
        <time>2014-04-06T11:30:19Z</time>
      </trkpt>
      <trkpt lat="41.620983420" lon="2.541920090">
        <ele>221.90</ele>
        <time>2014-04-06T11:30:20Z</time>
      </trkpt>
      <trkpt lat="41.620923410" lon="2.541916740">
        <ele>221.30</ele>
        <time>2014-04-06T11:30:21Z</time>
      </trkpt>
      <trkpt lat="41.620861720" lon="2.541908360">
        <ele>220.00</ele>
        <time>2014-04-06T11:30:22Z</time>
      </trkpt>
      <trkpt lat="41.620800020" lon="2.541903490">
        <ele>218.90</ele>
        <time>2014-04-06T11:30:23Z</time>
      </trkpt>
      <trkpt lat="41.620741690" lon="2.541906680">
        <ele>217.90</ele>
        <time>2014-04-06T11:30:24Z</time>
      </trkpt>
      <trkpt lat="41.620683350" lon="2.541921770">
        <ele>217.10</ele>
        <time>2014-04-06T11:30:25Z</time>
      </trkpt>
      <trkpt lat="41.620635070" lon="2.541945070">
        <ele>216.50</ele>
        <time>2014-04-06T11:30:26Z</time>
      </trkpt>
      <trkpt lat="41.620591820" lon="2.541985130">
        <ele>215.90</ele>
        <time>2014-04-06T11:30:27Z</time>
      </trkpt>
      <trkpt lat="41.620556780" lon="2.542033410">
        <ele>215.50</ele>
        <time>2014-04-06T11:30:28Z</time>
      </trkpt>
      <trkpt lat="41.620515040" lon="2.542100130">
        <ele>214.90</ele>
        <time>2014-04-06T11:30:29Z</time>
      </trkpt>
      <trkpt lat="41.620466760" lon="2.542161820">
        <ele>214.40</ele>
        <time>2014-04-06T11:30:30Z</time>
      </trkpt>
      <trkpt lat="41.620413450" lon="2.542220000">
        <ele>214.10</ele>
        <time>2014-04-06T11:30:31Z</time>
      </trkpt>
      <trkpt lat="41.620363490" lon="2.542270120">
        <ele>213.00</ele>
        <time>2014-04-06T11:30:32Z</time>
      </trkpt>
      <trkpt lat="41.620323430" lon="2.542321750">
        <ele>212.20</ele>
        <time>2014-04-06T11:30:33Z</time>
      </trkpt>
      <trkpt lat="41.620301800" lon="2.542370030">
        <ele>211.50</ele>
        <time>2014-04-06T11:30:34Z</time>
      </trkpt>
      <trkpt lat="41.620291750" lon="2.542411770">
        <ele>211.00</ele>
        <time>2014-04-06T11:30:35Z</time>
      </trkpt>
      <trkpt lat="41.620283360" lon="2.542445130">
        <ele>210.80</ele>
        <time>2014-04-06T11:30:36Z</time>
      </trkpt>
      <trkpt lat="41.620278330" lon="2.542475140">
        <ele>210.60</ele>
        <time>2014-04-06T11:30:37Z</time>
      </trkpt>
      <trkpt lat="41.620271800" lon="2.542506820">
        <ele>210.50</ele>
        <time>2014-04-06T11:30:38Z</time>
      </trkpt>
      <trkpt lat="41.620265090" lon="2.542536660">
        <ele>210.60</ele>
        <time>2014-04-06T11:30:39Z</time>
      </trkpt>
      <trkpt lat="41.620255030" lon="2.542568350">
        <ele>210.80</ele>
        <time>2014-04-06T11:30:40Z</time>
      </trkpt>
      <trkpt lat="41.620241790" lon="2.542596680">
        <ele>211.00</ele>
        <time>2014-04-06T11:30:41Z</time>
      </trkpt>
      <trkpt lat="41.620225030" lon="2.542623330">
        <ele>211.10</ele>
        <time>2014-04-06T11:30:42Z</time>
      </trkpt>
      <trkpt lat="41.620208430" lon="2.542648480">
        <ele>211.30</ele>
        <time>2014-04-06T11:30:43Z</time>
      </trkpt>
      <trkpt lat="41.620190160" lon="2.542673460">
        <ele>211.40</ele>
        <time>2014-04-06T11:30:44Z</time>
      </trkpt>
      <trkpt lat="41.620171720" lon="2.542700110">
        <ele>211.50</ele>
        <time>2014-04-06T11:30:45Z</time>
      </trkpt>
      <trkpt lat="41.620155120" lon="2.542723410">
        <ele>211.40</ele>
        <time>2014-04-06T11:30:46Z</time>
      </trkpt>
      <trkpt lat="41.620136680" lon="2.542748390">
        <ele>211.40</ele>
        <time>2014-04-06T11:30:47Z</time>
      </trkpt>
      <trkpt lat="41.620120080" lon="2.542780070">
        <ele>211.80</ele>
        <time>2014-04-06T11:30:48Z</time>
      </trkpt>
      <trkpt lat="41.620108350" lon="2.542808400">
        <ele>212.00</ele>
        <time>2014-04-06T11:30:49Z</time>
      </trkpt>
      <trkpt lat="41.620093430" lon="2.542836740">
        <ele>212.10</ele>
        <time>2014-04-06T11:30:50Z</time>
      </trkpt>
      <trkpt lat="41.620078340" lon="2.542868420">
        <ele>212.20</ele>
        <time>2014-04-06T11:30:51Z</time>
      </trkpt>
      <trkpt lat="41.620065100" lon="2.542896750">
        <ele>212.20</ele>
        <time>2014-04-06T11:30:52Z</time>
      </trkpt>
      <trkpt lat="41.620051690" lon="2.542925080">
        <ele>212.80</ele>
        <time>2014-04-06T11:30:53Z</time>
      </trkpt>
      <trkpt lat="41.620036770" lon="2.542946710">
        <ele>213.30</ele>
        <time>2014-04-06T11:30:54Z</time>
      </trkpt>
      <trkpt lat="41.620020000" lon="2.542966820">
        <ele>214.00</ele>
        <time>2014-04-06T11:30:55Z</time>
      </trkpt>
      <trkpt lat="41.619998380" lon="2.542985100">
        <ele>214.50</ele>
        <time>2014-04-06T11:30:56Z</time>
      </trkpt>
      <trkpt lat="41.619976750" lon="2.542993480">
        <ele>214.80</ele>
        <time>2014-04-06T11:30:57Z</time>
      </trkpt>
      <trkpt lat="41.619955130" lon="2.542995150">
        <ele>215.10</ele>
        <time>2014-04-06T11:30:58Z</time>
      </trkpt>
      <trkpt lat="41.619933340" lon="2.542990120">
        <ele>215.30</ele>
        <time>2014-04-06T11:30:59Z</time>
      </trkpt>
      <trkpt lat="41.619913390" lon="2.542985100">
        <ele>215.70</ele>
        <time>2014-04-06T11:31:00Z</time>
      </trkpt>
      <trkpt lat="41.619893440" lon="2.542976710">
        <ele>216.00</ele>
        <time>2014-04-06T11:31:01Z</time>
      </trkpt>
      <trkpt lat="41.619875000" lon="2.542961790">
        <ele>216.30</ele>
        <time>2014-04-06T11:31:02Z</time>
      </trkpt>
      <trkpt lat="41.619858400" lon="2.542943350">
        <ele>216.60</ele>
        <time>2014-04-06T11:31:03Z</time>
      </trkpt>
      <trkpt lat="41.619843480" lon="2.542921730">
        <ele>216.70</ele>
        <time>2014-04-06T11:31:04Z</time>
      </trkpt>
      <trkpt lat="41.619826720" lon="2.542905130">
        <ele>217.00</ele>
        <time>2014-04-06T11:31:05Z</time>
      </trkpt>
      <trkpt lat="41.619810120" lon="2.542886690">
        <ele>217.20</ele>
        <time>2014-04-06T11:31:06Z</time>
      </trkpt>
      <trkpt lat="41.619791680" lon="2.542868420">
        <ele>217.50</ele>
        <time>2014-04-06T11:31:07Z</time>
      </trkpt>
      <trkpt lat="41.619773410" lon="2.542848470">
        <ele>217.70</ele>
        <time>2014-04-06T11:31:08Z</time>
      </trkpt>
      <trkpt lat="41.619756810" lon="2.542828350">
        <ele>217.80</ele>
        <time>2014-04-06T11:31:09Z</time>
      </trkpt>
      <trkpt lat="41.619736700" lon="2.542811760">
        <ele>218.40</ele>
        <time>2014-04-06T11:31:10Z</time>
      </trkpt>
      <trkpt lat="41.619716750" lon="2.542796670">
        <ele>218.80</ele>
        <time>2014-04-06T11:31:11Z</time>
      </trkpt>
      <trkpt lat="41.619696800" lon="2.542781750">
        <ele>219.20</ele>
        <time>2014-04-06T11:31:12Z</time>
      </trkpt>
      <trkpt lat="41.619676680" lon="2.542768340">
        <ele>219.50</ele>
        <time>2014-04-06T11:31:13Z</time>
      </trkpt>
      <trkpt lat="41.619656730" lon="2.542755100">
        <ele>219.60</ele>
        <time>2014-04-06T11:31:14Z</time>
      </trkpt>
      <trkpt lat="41.619636780" lon="2.542745040">
        <ele>219.80</ele>
        <time>2014-04-06T11:31:15Z</time>
      </trkpt>
      <trkpt lat="41.619616670" lon="2.542738330">
        <ele>219.90</ele>
        <time>2014-04-06T11:31:16Z</time>
      </trkpt>
      <trkpt lat="41.619596720" lon="2.542733470">
        <ele>219.80</ele>
        <time>2014-04-06T11:31:17Z</time>
      </trkpt>
      <trkpt lat="41.619578450" lon="2.542728440">
        <ele>219.70</ele>
        <time>2014-04-06T11:31:18Z</time>
      </trkpt>
      <trkpt lat="41.619560010" lon="2.542726770">
        <ele>219.90</ele>
        <time>2014-04-06T11:31:19Z</time>
      </trkpt>
      <trkpt lat="41.619543410" lon="2.542726770">
        <ele>220.00</ele>
        <time>2014-04-06T11:31:20Z</time>
      </trkpt>
      <trkpt lat="41.619531670" lon="2.542725090">
        <ele>220.20</ele>
        <time>2014-04-06T11:31:21Z</time>
      </trkpt>
      <trkpt lat="41.619520110" lon="2.542726770">
        <ele>220.50</ele>
        <time>2014-04-06T11:31:22Z</time>
      </trkpt>
      <trkpt lat="41.619513400" lon="2.542728440">
        <ele>220.80</ele>
        <time>2014-04-06T11:31:23Z</time>
      </trkpt>
      <trkpt lat="41.619510050" lon="2.542730120">
        <ele>221.20</ele>
        <time>2014-04-06T11:31:24Z</time>
      </trkpt>
      <trkpt lat="41.619508370" lon="2.542730120">
        <ele>221.50</ele>
        <time>2014-04-06T11:31:25Z</time>
      </trkpt>
      <trkpt lat="41.619505020" lon="2.542731790">
        <ele>221.70</ele>
        <time>2014-04-06T11:31:26Z</time>
      </trkpt>
      <trkpt lat="41.619503340" lon="2.542733470">
        <ele>221.80</ele>
        <time>2014-04-06T11:31:27Z</time>
      </trkpt>
      <trkpt lat="41.619501670" lon="2.542733470">
        <ele>221.90</ele>
        <time>2014-04-06T11:31:28Z</time>
      </trkpt>
      <trkpt lat="41.619498480" lon="2.542736820">
        <ele>222.30</ele>
        <time>2014-04-06T11:31:29Z</time>
      </trkpt>
      <trkpt lat="41.619496810" lon="2.542738330">
        <ele>222.50</ele>
        <time>2014-04-06T11:31:30Z</time>
      </trkpt>
      <trkpt lat="41.619493450" lon="2.542740010">
        <ele>222.40</ele>
        <time>2014-04-06T11:31:31Z</time>
      </trkpt>
      <trkpt lat="41.619491780" lon="2.542741680">
        <ele>222.40</ele>
        <time>2014-04-06T11:31:32Z</time>
      </trkpt>
      <trkpt lat="41.619488420" lon="2.542745040">
        <ele>222.60</ele>
        <time>2014-04-06T11:31:33Z</time>
      </trkpt>
      <trkpt lat="41.619486750" lon="2.542746710">
        <ele>222.70</ele>
        <time>2014-04-06T11:31:34Z</time>
      </trkpt>
      <trkpt lat="41.619483400" lon="2.542750070">
        <ele>222.80</ele>
        <time>2014-04-06T11:31:35Z</time>
      </trkpt>
      <trkpt lat="41.619481720" lon="2.542753420">
        <ele>222.80</ele>
        <time>2014-04-06T11:31:36Z</time>
      </trkpt>
      <trkpt lat="41.619478370" lon="2.542756770">
        <ele>222.80</ele>
        <time>2014-04-06T11:31:37Z</time>
      </trkpt>
      <trkpt lat="41.619476690" lon="2.542760130">
        <ele>222.90</ele>
        <time>2014-04-06T11:31:38Z</time>
      </trkpt>
      <trkpt lat="41.619473340" lon="2.542763480">
        <ele>222.90</ele>
        <time>2014-04-06T11:31:39Z</time>
      </trkpt>
      <trkpt lat="41.619470150" lon="2.542768340">
        <ele>223.00</ele>
        <time>2014-04-06T11:31:40Z</time>
      </trkpt>
      <trkpt lat="41.619466800" lon="2.542773370">
        <ele>223.10</ele>
        <time>2014-04-06T11:31:41Z</time>
      </trkpt>
      <trkpt lat="41.619463450" lon="2.542778400">
        <ele>223.20</ele>
        <time>2014-04-06T11:31:42Z</time>
      </trkpt>
      <trkpt lat="41.619460090" lon="2.542783430">
        <ele>223.50</ele>
        <time>2014-04-06T11:31:43Z</time>
      </trkpt>
      <trkpt lat="41.619456740" lon="2.542788460">
        <ele>223.80</ele>
        <time>2014-04-06T11:31:44Z</time>
      </trkpt>
      <trkpt lat="41.619455060" lon="2.542791810">
        <ele>223.40</ele>
        <time>2014-04-06T11:31:45Z</time>
      </trkpt>
      <trkpt lat="41.619451710" lon="2.542796670">
        <ele>223.20</ele>
        <time>2014-04-06T11:31:46Z</time>
      </trkpt>
      <trkpt lat="41.619448360" lon="2.542800020">
        <ele>223.00</ele>
        <time>2014-04-06T11:31:47Z</time>
      </trkpt>
      <trkpt lat="41.619446680" lon="2.542803380">
        <ele>222.70</ele>
        <time>2014-04-06T11:31:48Z</time>
      </trkpt>
      <trkpt lat="41.619443330" lon="2.542808400">
        <ele>222.50</ele>
        <time>2014-04-06T11:31:49Z</time>
      </trkpt>
      <trkpt lat="41.619440140" lon="2.542811760">
        <ele>222.50</ele>
        <time>2014-04-06T11:31:50Z</time>
      </trkpt>
      <trkpt lat="41.619438470" lon="2.542816790">
        <ele>222.40</ele>
        <time>2014-04-06T11:31:51Z</time>
      </trkpt>
      <trkpt lat="41.619435120" lon="2.542821820">
        <ele>222.60</ele>
        <time>2014-04-06T11:31:52Z</time>
      </trkpt>
      <trkpt lat="41.619431760" lon="2.542826680">
        <ele>222.80</ele>
        <time>2014-04-06T11:31:53Z</time>
      </trkpt>
      <trkpt lat="41.619428410" lon="2.542833380">
        <ele>222.90</ele>
        <time>2014-04-06T11:31:54Z</time>
      </trkpt>
      <trkpt lat="41.619426730" lon="2.542838410">
        <ele>222.90</ele>
        <time>2014-04-06T11:31:55Z</time>
      </trkpt>
      <trkpt lat="41.619423380" lon="2.542843440">
        <ele>222.90</ele>
        <time>2014-04-06T11:31:56Z</time>
      </trkpt>
      <trkpt lat="41.619420030" lon="2.542846790">
        <ele>222.70</ele>
        <time>2014-04-06T11:31:57Z</time>
      </trkpt>
      <trkpt lat="41.619416680" lon="2.542851820">
        <ele>222.50</ele>
        <time>2014-04-06T11:31:58Z</time>
      </trkpt>
      <trkpt lat="41.619415000" lon="2.542856680">
        <ele>223.20</ele>
        <time>2014-04-06T11:31:59Z</time>
      </trkpt>
      <trkpt lat="41.619411810" lon="2.542861710">
        <ele>223.70</ele>
        <time>2014-04-06T11:32:00Z</time>
      </trkpt>
      <trkpt lat="41.619410140" lon="2.542865070">
        <ele>224.10</ele>
        <time>2014-04-06T11:32:01Z</time>
      </trkpt>
      <trkpt lat="41.619408460" lon="2.542868420">
        <ele>224.00</ele>
        <time>2014-04-06T11:32:02Z</time>
      </trkpt>
      <trkpt lat="41.619406780" lon="2.542871770">
        <ele>223.90</ele>
        <time>2014-04-06T11:32:03Z</time>
      </trkpt>
      <trkpt lat="41.619403430" lon="2.542875120">
        <ele>223.90</ele>
        <time>2014-04-06T11:32:04Z</time>
      </trkpt>
      <trkpt lat="41.619401760" lon="2.542878480">
        <ele>223.90</ele>
        <time>2014-04-06T11:32:05Z</time>
      </trkpt>
      <trkpt lat="41.619400080" lon="2.542881660">
        <ele>223.80</ele>
        <time>2014-04-06T11:32:06Z</time>
      </trkpt>
      <trkpt lat="41.619398400" lon="2.542883340">
        <ele>223.50</ele>
        <time>2014-04-06T11:32:07Z</time>
      </trkpt>
      <trkpt lat="41.619398400" lon="2.542886690">
        <ele>223.20</ele>
        <time>2014-04-06T11:32:08Z</time>
      </trkpt>
      <trkpt lat="41.619396730" lon="2.542888370">
        <ele>223.30</ele>
        <time>2014-04-06T11:32:09Z</time>
      </trkpt>
      <trkpt lat="41.619395050" lon="2.542890040">
        <ele>223.30</ele>
        <time>2014-04-06T11:32:10Z</time>
      </trkpt>
      <trkpt lat="41.619393370" lon="2.542891720">
        <ele>223.20</ele>
        <time>2014-04-06T11:32:11Z</time>
      </trkpt>
      <trkpt lat="41.619393370" lon="2.542893400">
        <ele>223.00</ele>
        <time>2014-04-06T11:32:12Z</time>
      </trkpt>
      <trkpt lat="41.619391700" lon="2.542895070">
        <ele>222.90</ele>
        <time>2014-04-06T11:32:13Z</time>
      </trkpt>
      <trkpt lat="41.619391700" lon="2.542896750">
        <ele>223.10</ele>
        <time>2014-04-06T11:32:14Z</time>
      </trkpt>
      <trkpt lat="41.619390020" lon="2.542898430">
        <ele>223.10</ele>
        <time>2014-04-06T11:32:15Z</time>
      </trkpt>
      <trkpt lat="41.619390020" lon="2.542900100">
        <ele>223.10</ele>
        <time>2014-04-06T11:32:16Z</time>
      </trkpt>
      <trkpt lat="41.619388340" lon="2.542901780">
        <ele>223.10</ele>
        <time>2014-04-06T11:32:17Z</time>
      </trkpt>
      <trkpt lat="41.619388340" lon="2.542901780">
        <ele>223.10</ele>
        <time>2014-04-06T11:32:18Z</time>
      </trkpt>
      <trkpt lat="41.619386670" lon="2.542903460">
        <ele>223.20</ele>
        <time>2014-04-06T11:32:19Z</time>
      </trkpt>
      <trkpt lat="41.619386670" lon="2.542905130">
        <ele>223.30</ele>
        <time>2014-04-06T11:32:20Z</time>
      </trkpt>
      <trkpt lat="41.619386670" lon="2.542906810">
        <ele>223.50</ele>
        <time>2014-04-06T11:32:21Z</time>
      </trkpt>
      <trkpt lat="41.619385160" lon="2.542906810">
        <ele>223.60</ele>
        <time>2014-04-06T11:32:22Z</time>
      </trkpt>
      <trkpt lat="41.619376780" lon="2.542905130">
        <ele>223.30</ele>
        <time>2014-04-06T11:32:23Z</time>
      </trkpt>
      <trkpt lat="41.619368400" lon="2.542901780">
        <ele>223.00</ele>
        <time>2014-04-06T11:32:24Z</time>
      </trkpt>
      <trkpt lat="41.619356830" lon="2.542898430">
        <ele>222.80</ele>
        <time>2014-04-06T11:32:25Z</time>
      </trkpt>
      <trkpt lat="41.619346770" lon="2.542896750">
        <ele>222.60</ele>
        <time>2014-04-06T11:32:26Z</time>
      </trkpt>
      <trkpt lat="41.619335040" lon="2.542895070">
        <ele>222.40</ele>
        <time>2014-04-06T11:32:27Z</time>
      </trkpt>
      <trkpt lat="41.619323470" lon="2.542895070">
        <ele>222.80</ele>
        <time>2014-04-06T11:32:28Z</time>
      </trkpt>
      <trkpt lat="41.619308380" lon="2.542891720">
        <ele>223.10</ele>
        <time>2014-04-06T11:32:29Z</time>
      </trkpt>
      <trkpt lat="41.619293460" lon="2.542885020">
        <ele>223.10</ele>
        <time>2014-04-06T11:32:30Z</time>
      </trkpt>
      <trkpt lat="41.619276700" lon="2.542880150">
        <ele>223.10</ele>
        <time>2014-04-06T11:32:31Z</time>
      </trkpt>
      <trkpt lat="41.619255070" lon="2.542876800">
        <ele>223.10</ele>
        <time>2014-04-06T11:32:32Z</time>
      </trkpt>
      <trkpt lat="41.619231770" lon="2.542875120">
        <ele>222.90</ele>
        <time>2014-04-06T11:32:33Z</time>
      </trkpt>
      <trkpt lat="41.619205120" lon="2.542875120">
        <ele>222.80</ele>
        <time>2014-04-06T11:32:34Z</time>
      </trkpt>
      <trkpt lat="41.619173430" lon="2.542875120">
        <ele>222.80</ele>
        <time>2014-04-06T11:32:35Z</time>
      </trkpt>
      <trkpt lat="41.619138400" lon="2.542876800">
        <ele>222.80</ele>
        <time>2014-04-06T11:32:36Z</time>
      </trkpt>
      <trkpt lat="41.619096820" lon="2.542881660">
        <ele>222.40</ele>
        <time>2014-04-06T11:32:37Z</time>
      </trkpt>
      <trkpt lat="41.619051730" lon="2.542883340">
        <ele>222.20</ele>
        <time>2014-04-06T11:32:38Z</time>
      </trkpt>
      <trkpt lat="41.619003450" lon="2.542876800">
        <ele>222.00</ele>
        <time>2014-04-06T11:32:39Z</time>
      </trkpt>
      <trkpt lat="41.618950140" lon="2.542861710">
        <ele>222.10</ele>
        <time>2014-04-06T11:32:40Z</time>
      </trkpt>
      <trkpt lat="41.618896660" lon="2.542833380">
        <ele>222.20</ele>
        <time>2014-04-06T11:32:41Z</time>
      </trkpt>
      <trkpt lat="41.618845030" lon="2.542796670">
        <ele>222.10</ele>
        <time>2014-04-06T11:32:42Z</time>
      </trkpt>
      <trkpt lat="41.618793400" lon="2.542751740">
        <ele>222.10</ele>
        <time>2014-04-06T11:32:43Z</time>
      </trkpt>
      <trkpt lat="41.618740090" lon="2.542703460">
        <ele>222.00</ele>
        <time>2014-04-06T11:32:44Z</time>
      </trkpt>
      <trkpt lat="41.618688460" lon="2.542648480">
        <ele>221.50</ele>
        <time>2014-04-06T11:32:45Z</time>
      </trkpt>
      <trkpt lat="41.618638330" lon="2.542596680">
        <ele>221.10</ele>
        <time>2014-04-06T11:32:46Z</time>
      </trkpt>
      <trkpt lat="41.618588380" lon="2.542543370">
        <ele>220.50</ele>
        <time>2014-04-06T11:32:47Z</time>
      </trkpt>
      <trkpt lat="41.618540100" lon="2.542481680">
        <ele>219.90</ele>
        <time>2014-04-06T11:32:48Z</time>
      </trkpt>
      <trkpt lat="41.618490140" lon="2.542416800">
        <ele>219.30</ele>
        <time>2014-04-06T11:32:49Z</time>
      </trkpt>
      <trkpt lat="41.618438340" lon="2.542346730">
        <ele>218.80</ele>
        <time>2014-04-06T11:32:50Z</time>
      </trkpt>
      <trkpt lat="41.618390060" lon="2.542266770">
        <ele>218.40</ele>
        <time>2014-04-06T11:32:51Z</time>
      </trkpt>
      <trkpt lat="41.618345130" lon="2.542180100">
        <ele>218.10</ele>
        <time>2014-04-06T11:32:52Z</time>
      </trkpt>
      <trkpt lat="41.618300040" lon="2.542090080">
        <ele>218.00</ele>
        <time>2014-04-06T11:32:53Z</time>
      </trkpt>
      <trkpt lat="41.618260140" lon="2.542000050">
        <ele>217.20</ele>
        <time>2014-04-06T11:32:54Z</time>
      </trkpt>
      <trkpt lat="41.618221750" lon="2.541910030">
        <ele>216.70</ele>
        <time>2014-04-06T11:32:55Z</time>
      </trkpt>
      <trkpt lat="41.618183360" lon="2.541820010">
        <ele>216.00</ele>
        <time>2014-04-06T11:32:56Z</time>
      </trkpt>
      <trkpt lat="41.618145140" lon="2.541726800">
        <ele>215.50</ele>
        <time>2014-04-06T11:32:57Z</time>
      </trkpt>
      <trkpt lat="41.618108430" lon="2.541626720">
        <ele>215.10</ele>
        <time>2014-04-06T11:32:58Z</time>
      </trkpt>
      <trkpt lat="41.618071720" lon="2.541526810">
        <ele>214.20</ele>
        <time>2014-04-06T11:32:59Z</time>
      </trkpt>
      <trkpt lat="41.618035000" lon="2.541431760">
        <ele>213.40</ele>
        <time>2014-04-06T11:33:00Z</time>
      </trkpt>
      <trkpt lat="41.618001810" lon="2.541338390">
        <ele>213.10</ele>
        <time>2014-04-06T11:33:01Z</time>
      </trkpt>
      <trkpt lat="41.617975160" lon="2.541245010">
        <ele>212.80</ele>
        <time>2014-04-06T11:33:02Z</time>
      </trkpt>
      <trkpt lat="41.617958390" lon="2.541148450">
        <ele>212.60</ele>
        <time>2014-04-06T11:33:03Z</time>
      </trkpt>
      <trkpt lat="41.617960070" lon="2.541048370">
        <ele>211.70</ele>
        <time>2014-04-06T11:33:04Z</time>
      </trkpt>
      <trkpt lat="41.617980020" lon="2.540948460">
        <ele>211.00</ele>
        <time>2014-04-06T11:33:05Z</time>
      </trkpt>
      <trkpt lat="41.618016730" lon="2.540851730">
        <ele>210.20</ele>
        <time>2014-04-06T11:33:06Z</time>
      </trkpt>
      <trkpt lat="41.618053440" lon="2.540758360">
        <ele>209.60</ele>
        <time>2014-04-06T11:33:07Z</time>
      </trkpt>
      <trkpt lat="41.618076740" lon="2.540661800">
        <ele>208.70</ele>
        <time>2014-04-06T11:33:08Z</time>
      </trkpt>
      <trkpt lat="41.618086800" lon="2.540565070">
        <ele>208.00</ele>
        <time>2014-04-06T11:33:09Z</time>
      </trkpt>
      <trkpt lat="41.618090160" lon="2.540473370">
        <ele>207.50</ele>
        <time>2014-04-06T11:33:10Z</time>
      </trkpt>
      <trkpt lat="41.618091660" lon="2.540386710">
        <ele>206.80</ele>
        <time>2014-04-06T11:33:11Z</time>
      </trkpt>
      <trkpt lat="41.618093340" lon="2.540310090">
        <ele>206.30</ele>
        <time>2014-04-06T11:33:12Z</time>
      </trkpt>
      <trkpt lat="41.618091660" lon="2.540243370">
        <ele>206.30</ele>
        <time>2014-04-06T11:33:13Z</time>
      </trkpt>
      <trkpt lat="41.618080100" lon="2.540193420">
        <ele>206.30</ele>
        <time>2014-04-06T11:33:14Z</time>
      </trkpt>
      <trkpt lat="41.618051770" lon="2.540165090">
        <ele>205.80</ele>
        <time>2014-04-06T11:33:15Z</time>
      </trkpt>
      <trkpt lat="41.618016730" lon="2.540156710">
        <ele>205.40</ele>
        <time>2014-04-06T11:33:16Z</time>
      </trkpt>
      <trkpt lat="41.617981690" lon="2.540166760">
        <ele>205.00</ele>
        <time>2014-04-06T11:33:17Z</time>
      </trkpt>
      <trkpt lat="41.617946820" lon="2.540195100">
        <ele>204.60</ele>
        <time>2014-04-06T11:33:18Z</time>
      </trkpt>
      <trkpt lat="41.617915140" lon="2.540241700">
        <ele>204.20</ele>
        <time>2014-04-06T11:33:19Z</time>
      </trkpt>
      <trkpt lat="41.617883460" lon="2.540296680">
        <ele>203.80</ele>
        <time>2014-04-06T11:33:20Z</time>
      </trkpt>
      <trkpt lat="41.617858480" lon="2.540348480">
        <ele>203.60</ele>
        <time>2014-04-06T11:33:21Z</time>
      </trkpt>
      <trkpt lat="41.617841720" lon="2.540386710">
        <ele>203.30</ele>
        <time>2014-04-06T11:33:22Z</time>
      </trkpt>
      <trkpt lat="41.617826800" lon="2.540426770">
        <ele>202.70</ele>
        <time>2014-04-06T11:33:23Z</time>
      </trkpt>
      <trkpt lat="41.617810030" lon="2.540465160">
        <ele>202.20</ele>
        <time>2014-04-06T11:33:24Z</time>
      </trkpt>
      <trkpt lat="41.617793440" lon="2.540501710">
        <ele>202.00</ele>
        <time>2014-04-06T11:33:25Z</time>
      </trkpt>
      <trkpt lat="41.617771810" lon="2.540535070">
        <ele>201.90</ele>
        <time>2014-04-06T11:33:26Z</time>
      </trkpt>
      <trkpt lat="41.617750020" lon="2.540580160">
        <ele>201.80</ele>
        <time>2014-04-06T11:33:27Z</time>
      </trkpt>
      <trkpt lat="41.617725040" lon="2.540638330">
        <ele>201.80</ele>
        <time>2014-04-06T11:33:28Z</time>
      </trkpt>
      <trkpt lat="41.617698390" lon="2.540705050">
        <ele>201.80</ele>
        <time>2014-04-06T11:33:29Z</time>
      </trkpt>
      <trkpt lat="41.617663350" lon="2.540776800">
        <ele>201.00</ele>
        <time>2014-04-06T11:33:30Z</time>
      </trkpt>
      <trkpt lat="41.617625130" lon="2.540856760">
        <ele>200.40</ele>
        <time>2014-04-06T11:33:31Z</time>
      </trkpt>
      <trkpt lat="41.617586740" lon="2.540945110">
        <ele>199.30</ele>
        <time>2014-04-06T11:33:32Z</time>
      </trkpt>
      <trkpt lat="41.617546670" lon="2.541041670">
        <ele>198.40</ele>
        <time>2014-04-06T11:33:33Z</time>
      </trkpt>
      <trkpt lat="41.617506770" lon="2.541143420">
        <ele>197.50</ele>
        <time>2014-04-06T11:33:34Z</time>
      </trkpt>
      <trkpt lat="41.617465030" lon="2.541246690">
        <ele>196.80</ele>
        <time>2014-04-06T11:33:35Z</time>
      </trkpt>
      <trkpt lat="41.617420110" lon="2.541346770">
        <ele>196.20</ele>
        <time>2014-04-06T11:33:36Z</time>
      </trkpt>
      <trkpt lat="41.617375010" lon="2.541433440">
        <ele>195.20</ele>
        <time>2014-04-06T11:33:37Z</time>
      </trkpt>
      <trkpt lat="41.617325060" lon="2.541506700">
        <ele>194.50</ele>
        <time>2014-04-06T11:33:38Z</time>
      </trkpt>
      <trkpt lat="41.617273420" lon="2.541571740">
        <ele>193.70</ele>
        <time>2014-04-06T11:33:39Z</time>
      </trkpt>
      <trkpt lat="41.617221790" lon="2.541630080">
        <ele>193.10</ele>
        <time>2014-04-06T11:33:40Z</time>
      </trkpt>
      <trkpt lat="41.617175020" lon="2.541690090">
        <ele>192.60</ele>
        <time>2014-04-06T11:33:41Z</time>
      </trkpt>
      <trkpt lat="41.617126740" lon="2.541745080">
        <ele>192.10</ele>
        <time>2014-04-06T11:33:42Z</time>
      </trkpt>
      <trkpt lat="41.617080140" lon="2.541798390">
        <ele>191.80</ele>
        <time>2014-04-06T11:33:43Z</time>
      </trkpt>
      <trkpt lat="41.617035040" lon="2.541851690">
        <ele>191.30</ele>
        <time>2014-04-06T11:33:44Z</time>
      </trkpt>
      <trkpt lat="41.616990110" lon="2.541896790">
        <ele>191.00</ele>
        <time>2014-04-06T11:33:45Z</time>
      </trkpt>
      <trkpt lat="41.616938480" lon="2.541938360">
        <ele>190.60</ele>
        <time>2014-04-06T11:33:46Z</time>
      </trkpt>
      <trkpt lat="41.616888360" lon="2.541973400">
        <ele>190.30</ele>
        <time>2014-04-06T11:33:47Z</time>
      </trkpt>
      <trkpt lat="41.616836730" lon="2.542010110">
        <ele>190.10</ele>
        <time>2014-04-06T11:33:48Z</time>
      </trkpt>
      <trkpt lat="41.616781740" lon="2.542038440">
        <ele>190.00</ele>
        <time>2014-04-06T11:33:49Z</time>
      </trkpt>
      <trkpt lat="41.616721730" lon="2.542063420">
        <ele>189.90</ele>
        <time>2014-04-06T11:33:50Z</time>
      </trkpt>
      <trkpt lat="41.616661710" lon="2.542073480">
        <ele>189.60</ele>
        <time>2014-04-06T11:33:51Z</time>
      </trkpt>
      <trkpt lat="41.616598340" lon="2.542073480">
        <ele>189.40</ele>
        <time>2014-04-06T11:33:52Z</time>
      </trkpt>
      <trkpt lat="41.616533470" lon="2.542065100">
        <ele>188.80</ele>
        <time>2014-04-06T11:33:53Z</time>
      </trkpt>
      <trkpt lat="41.616468420" lon="2.542046830">
        <ele>188.30</ele>
        <time>2014-04-06T11:33:54Z</time>
      </trkpt>
      <trkpt lat="41.616403380" lon="2.542016820">
        <ele>188.00</ele>
        <time>2014-04-06T11:33:55Z</time>
      </trkpt>
      <trkpt lat="41.616338340" lon="2.541980110">
        <ele>187.60</ele>
        <time>2014-04-06T11:33:56Z</time>
      </trkpt>
      <trkpt lat="41.616270110" lon="2.541938360">
        <ele>187.20</ele>
        <time>2014-04-06T11:33:57Z</time>
      </trkpt>
      <trkpt lat="41.616203390" lon="2.541891760">
        <ele>187.30</ele>
        <time>2014-04-06T11:33:58Z</time>
      </trkpt>
      <trkpt lat="41.616131810" lon="2.541845160">
        <ele>187.30</ele>
        <time>2014-04-06T11:33:59Z</time>
      </trkpt>
      <trkpt lat="41.616060060" lon="2.541793360">
        <ele>187.30</ele>
        <time>2014-04-06T11:34:00Z</time>
      </trkpt>
      <trkpt lat="41.615986800" lon="2.541743400">
        <ele>187.10</ele>
        <time>2014-04-06T11:34:01Z</time>
      </trkpt>
      <trkpt lat="41.615911700" lon="2.541691770">
        <ele>186.90</ele>
        <time>2014-04-06T11:34:02Z</time>
      </trkpt>
      <trkpt lat="41.615835090" lon="2.541638460">
        <ele>186.30</ele>
        <time>2014-04-06T11:34:03Z</time>
      </trkpt>
      <trkpt lat="41.615755120" lon="2.541585150">
        <ele>185.80</ele>
        <time>2014-04-06T11:34:04Z</time>
      </trkpt>
      <trkpt lat="41.615673480" lon="2.541531670">
        <ele>185.30</ele>
        <time>2014-04-06T11:34:05Z</time>
      </trkpt>
      <trkpt lat="41.615590000" lon="2.541481720">
        <ele>185.00</ele>
        <time>2014-04-06T11:34:06Z</time>
      </trkpt>
      <trkpt lat="41.615503330" lon="2.541440140">
        <ele>184.70</ele>
        <time>2014-04-06T11:34:07Z</time>
      </trkpt>
      <trkpt lat="41.615413480" lon="2.541403430">
        <ele>184.00</ele>
        <time>2014-04-06T11:34:08Z</time>
      </trkpt>
      <trkpt lat="41.615320100" lon="2.541375100">
        <ele>183.40</ele>
        <time>2014-04-06T11:34:09Z</time>
      </trkpt>
      <trkpt lat="41.615225050" lon="2.541348440">
        <ele>182.70</ele>
        <time>2014-04-06T11:34:10Z</time>
      </trkpt>
      <trkpt lat="41.615128490" lon="2.541323470">
        <ele>182.20</ele>
        <time>2014-04-06T11:34:11Z</time>
      </trkpt>
      <trkpt lat="41.615031770" lon="2.541298490">
        <ele>181.40</ele>
        <time>2014-04-06T11:34:12Z</time>
      </trkpt>
      <trkpt lat="41.614940070" lon="2.541273340">
        <ele>180.90</ele>
        <time>2014-04-06T11:34:13Z</time>
      </trkpt>
      <trkpt lat="41.614848370" lon="2.541253390">
        <ele>180.50</ele>
        <time>2014-04-06T11:34:14Z</time>
      </trkpt>
      <trkpt lat="41.614756670" lon="2.541231770">
        <ele>179.50</ele>
        <time>2014-04-06T11:34:15Z</time>
      </trkpt>
      <trkpt lat="41.614670000" lon="2.541200090">
        <ele>178.90</ele>
        <time>2014-04-06T11:34:16Z</time>
      </trkpt>
      <trkpt lat="41.614580150" lon="2.541170080">
        <ele>178.30</ele>
        <time>2014-04-06T11:34:17Z</time>
      </trkpt>
      <trkpt lat="41.614485100" lon="2.541143420">
        <ele>177.80</ele>
        <time>2014-04-06T11:34:18Z</time>
      </trkpt>
      <trkpt lat="41.614388370" lon="2.541118450">
        <ele>177.50</ele>
        <time>2014-04-06T11:34:19Z</time>
      </trkpt>
      <trkpt lat="41.614290140" lon="2.541093470">
        <ele>176.90</ele>
        <time>2014-04-06T11:34:20Z</time>
      </trkpt>
      <trkpt lat="41.614195080" lon="2.541070000">
        <ele>176.50</ele>
        <time>2014-04-06T11:34:21Z</time>
      </trkpt>
      <trkpt lat="41.614098360" lon="2.541048370">
        <ele>175.60</ele>
        <time>2014-04-06T11:34:22Z</time>
      </trkpt>
      <trkpt lat="41.614001800" lon="2.541025070">
        <ele>175.00</ele>
        <time>2014-04-06T11:34:23Z</time>
      </trkpt>
      <trkpt lat="41.613905070" lon="2.541000090">
        <ele>174.40</ele>
        <time>2014-04-06T11:34:24Z</time>
      </trkpt>
      <trkpt lat="41.613805160" lon="2.540975110">
        <ele>173.90</ele>
        <time>2014-04-06T11:34:25Z</time>
      </trkpt>
      <trkpt lat="41.613705080" lon="2.540948460">
        <ele>173.60</ele>
        <time>2014-04-06T11:34:26Z</time>
      </trkpt>
      <trkpt lat="41.613601810" lon="2.540923480">
        <ele>172.80</ele>
        <time>2014-04-06T11:34:27Z</time>
      </trkpt>
      <trkpt lat="41.613498380" lon="2.540906720">
        <ele>172.20</ele>
        <time>2014-04-06T11:34:28Z</time>
      </trkpt>
      <trkpt lat="41.613396790" lon="2.540895150">
        <ele>171.30</ele>
        <time>2014-04-06T11:34:29Z</time>
      </trkpt>
      <trkpt lat="41.613296710" lon="2.540883420">
        <ele>170.70</ele>
        <time>2014-04-06T11:34:30Z</time>
      </trkpt>
      <trkpt lat="41.613198480" lon="2.540873360">
        <ele>169.80</ele>
        <time>2014-04-06T11:34:31Z</time>
      </trkpt>
      <trkpt lat="41.613100070" lon="2.540868330">
        <ele>169.10</ele>
        <time>2014-04-06T11:34:32Z</time>
      </trkpt>
      <trkpt lat="41.613008370" lon="2.540866820">
        <ele>168.60</ele>
        <time>2014-04-06T11:34:33Z</time>
      </trkpt>
      <trkpt lat="41.612920030" lon="2.540866820">
        <ele>167.90</ele>
        <time>2014-04-06T11:34:34Z</time>
      </trkpt>
      <trkpt lat="41.612836710" lon="2.540863470">
        <ele>167.40</ele>
        <time>2014-04-06T11:34:35Z</time>
      </trkpt>
      <trkpt lat="41.612760100" lon="2.540860120">
        <ele>166.40</ele>
        <time>2014-04-06T11:34:36Z</time>
      </trkpt>
      <trkpt lat="41.612688350" lon="2.540863470">
        <ele>165.70</ele>
        <time>2014-04-06T11:34:37Z</time>
      </trkpt>
      <trkpt lat="41.612625150" lon="2.540868330">
        <ele>165.20</ele>
        <time>2014-04-06T11:34:38Z</time>
      </trkpt>
      <trkpt lat="41.612566820" lon="2.540871680">
        <ele>164.80</ele>
        <time>2014-04-06T11:34:39Z</time>
      </trkpt>
      <trkpt lat="41.612510150" lon="2.540873360">
        <ele>164.40</ele>
        <time>2014-04-06T11:34:40Z</time>
      </trkpt>
      <trkpt lat="41.612451820" lon="2.540871680">
        <ele>164.00</ele>
        <time>2014-04-06T11:34:41Z</time>
      </trkpt>
      <trkpt lat="41.612393480" lon="2.540868330">
        <ele>163.70</ele>
        <time>2014-04-06T11:34:42Z</time>
      </trkpt>
      <trkpt lat="41.612336820" lon="2.540868330">
        <ele>163.30</ele>
        <time>2014-04-06T11:34:43Z</time>
      </trkpt>
      <trkpt lat="41.612283340" lon="2.540865140">
        <ele>163.00</ele>
        <time>2014-04-06T11:34:44Z</time>
      </trkpt>
      <trkpt lat="41.612226680" lon="2.540861790">
        <ele>162.80</ele>
        <time>2014-04-06T11:34:45Z</time>
      </trkpt>
      <trkpt lat="41.612171690" lon="2.540858440">
        <ele>162.20</ele>
        <time>2014-04-06T11:34:46Z</time>
      </trkpt>
      <trkpt lat="41.612115030" lon="2.540856760">
        <ele>161.80</ele>
        <time>2014-04-06T11:34:47Z</time>
      </trkpt>
      <trkpt lat="41.612053340" lon="2.540856760">
        <ele>161.30</ele>
        <time>2014-04-06T11:34:48Z</time>
      </trkpt>
      <trkpt lat="41.611990140" lon="2.540853410">
        <ele>160.90</ele>
        <time>2014-04-06T11:34:49Z</time>
      </trkpt>
      <trkpt lat="41.611926770" lon="2.540846700">
        <ele>160.60</ele>
        <time>2014-04-06T11:34:50Z</time>
      </trkpt>
      <trkpt lat="41.611870110" lon="2.540838490">
        <ele>160.30</ele>
        <time>2014-04-06T11:34:51Z</time>
      </trkpt>
      <trkpt lat="41.611816800" lon="2.540830110">
        <ele>160.20</ele>
        <time>2014-04-06T11:34:52Z</time>
      </trkpt>
      <trkpt lat="41.611765000" lon="2.540826760">
        <ele>159.90</ele>
        <time>2014-04-06T11:34:53Z</time>
      </trkpt>
      <trkpt lat="41.611710020" lon="2.540826760">
        <ele>159.60</ele>
        <time>2014-04-06T11:34:54Z</time>
      </trkpt>
      <trkpt lat="41.611653360" lon="2.540831780">
        <ele>159.40</ele>
        <time>2014-04-06T11:34:55Z</time>
      </trkpt>
      <trkpt lat="41.611598370" lon="2.540841680">
        <ele>159.30</ele>
        <time>2014-04-06T11:34:56Z</time>
      </trkpt>
      <trkpt lat="41.611550090" lon="2.540856760">
        <ele>159.20</ele>
        <time>2014-04-06T11:34:57Z</time>
      </trkpt>
      <trkpt lat="41.611501810" lon="2.540876710">
        <ele>159.20</ele>
        <time>2014-04-06T11:34:58Z</time>
      </trkpt>
      <trkpt lat="41.611451690" lon="2.540898340">
        <ele>159.20</ele>
        <time>2014-04-06T11:34:59Z</time>
      </trkpt>
      <trkpt lat="41.611396700" lon="2.540920130">
        <ele>158.60</ele>
        <time>2014-04-06T11:35:00Z</time>
      </trkpt>
      <trkpt lat="41.611341720" lon="2.540940080">
        <ele>158.10</ele>
        <time>2014-04-06T11:35:01Z</time>
      </trkpt>
      <trkpt lat="41.611283380" lon="2.540965060">
        <ele>157.50</ele>
        <time>2014-04-06T11:35:02Z</time>
      </trkpt>
      <trkpt lat="41.611223360" lon="2.540988360">
        <ele>157.10</ele>
        <time>2014-04-06T11:35:03Z</time>
      </trkpt>
      <trkpt lat="41.611161670" lon="2.541011830">
        <ele>156.80</ele>
        <time>2014-04-06T11:35:04Z</time>
      </trkpt>
      <trkpt lat="41.611101830" lon="2.541036810">
        <ele>156.70</ele>
        <time>2014-04-06T11:35:05Z</time>
      </trkpt>
      <trkpt lat="41.611041810" lon="2.541060110">
        <ele>156.70</ele>
        <time>2014-04-06T11:35:06Z</time>
      </trkpt>
      <trkpt lat="41.610976770" lon="2.541085090">
        <ele>156.40</ele>
        <time>2014-04-06T11:35:07Z</time>
      </trkpt>
      <trkpt lat="41.610913400" lon="2.541105030">
        <ele>156.10</ele>
        <time>2014-04-06T11:35:08Z</time>
      </trkpt>
      <trkpt lat="41.610848360" lon="2.541126830">
        <ele>155.50</ele>
        <time>2014-04-06T11:35:09Z</time>
      </trkpt>
      <trkpt lat="41.610780130" lon="2.541153480">
        <ele>155.00</ele>
        <time>2014-04-06T11:35:10Z</time>
      </trkpt>
      <trkpt lat="41.610711730" lon="2.541180140">
        <ele>154.70</ele>
        <time>2014-04-06T11:35:11Z</time>
      </trkpt>
      <trkpt lat="41.610640150" lon="2.541208470">
        <ele>154.80</ele>
        <time>2014-04-06T11:35:12Z</time>
      </trkpt>
      <trkpt lat="41.610566730" lon="2.541238470">
        <ele>154.90</ele>
        <time>2014-04-06T11:35:13Z</time>
      </trkpt>
      <trkpt lat="41.610491790" lon="2.541270160">
        <ele>154.30</ele>
        <time>2014-04-06T11:35:14Z</time>
      </trkpt>
      <trkpt lat="41.610418370" lon="2.541301670">
        <ele>153.80</ele>
        <time>2014-04-06T11:35:15Z</time>
      </trkpt>
      <trkpt lat="41.610343430" lon="2.541335030">
        <ele>153.50</ele>
        <time>2014-04-06T11:35:16Z</time>
      </trkpt>
      <trkpt lat="41.610270010" lon="2.541366720">
        <ele>153.00</ele>
        <time>2014-04-06T11:35:17Z</time>
      </trkpt>
      <trkpt lat="41.610200100" lon="2.541388340">
        <ele>152.70</ele>
        <time>2014-04-06T11:35:18Z</time>
      </trkpt>
      <trkpt lat="41.610133380" lon="2.541401750">
        <ele>152.80</ele>
        <time>2014-04-06T11:35:19Z</time>
      </trkpt>
      <trkpt lat="41.610071690" lon="2.541413490">
        <ele>152.80</ele>
        <time>2014-04-06T11:35:20Z</time>
      </trkpt>
      <trkpt lat="41.610010000" lon="2.541416670">
        <ele>152.30</ele>
        <time>2014-04-06T11:35:21Z</time>
      </trkpt>
      <trkpt lat="41.609948480" lon="2.541408460">
        <ele>151.90</ele>
        <time>2014-04-06T11:35:22Z</time>
      </trkpt>
      <trkpt lat="41.609890140" lon="2.541396720">
        <ele>151.60</ele>
        <time>2014-04-06T11:35:23Z</time>
      </trkpt>
      <trkpt lat="41.609841690" lon="2.541390020">
        <ele>150.90</ele>
        <time>2014-04-06T11:35:24Z</time>
      </trkpt>
      <trkpt lat="41.609800120" lon="2.541376780">
        <ele>150.40</ele>
        <time>2014-04-06T11:35:25Z</time>
      </trkpt>
      <trkpt lat="41.609763400" lon="2.541370070">
        <ele>149.90</ele>
        <time>2014-04-06T11:35:26Z</time>
      </trkpt>
      <trkpt lat="41.609735070" lon="2.541370070">
        <ele>149.50</ele>
        <time>2014-04-06T11:35:27Z</time>
      </trkpt>
      <trkpt lat="41.609710100" lon="2.541370070">
        <ele>149.70</ele>
        <time>2014-04-06T11:35:28Z</time>
      </trkpt>
      <trkpt lat="41.609683440" lon="2.541373420">
        <ele>149.80</ele>
        <time>2014-04-06T11:35:29Z</time>
      </trkpt>
      <trkpt lat="41.609658460" lon="2.541380130">
        <ele>150.00</ele>
        <time>2014-04-06T11:35:30Z</time>
      </trkpt>
      <trkpt lat="41.609635160" lon="2.541383480">
        <ele>149.60</ele>
        <time>2014-04-06T11:35:31Z</time>
      </trkpt>
      <trkpt lat="41.609615050" lon="2.541388340">
        <ele>149.20</ele>
        <time>2014-04-06T11:35:32Z</time>
      </trkpt>
      <trkpt lat="41.609596770" lon="2.541390020">
        <ele>149.00</ele>
        <time>2014-04-06T11:35:33Z</time>
      </trkpt>
      <trkpt lat="41.609578330" lon="2.541391700">
        <ele>148.80</ele>
        <time>2014-04-06T11:35:34Z</time>
      </trkpt>
      <trkpt lat="41.609563410" lon="2.541395050">
        <ele>148.90</ele>
        <time>2014-04-06T11:35:35Z</time>
      </trkpt>
      <trkpt lat="41.609558380" lon="2.541398400">
        <ele>148.90</ele>
        <time>2014-04-06T11:35:36Z</time>
      </trkpt>
      <trkpt lat="41.609558380" lon="2.541401750">
        <ele>148.90</ele>
        <time>2014-04-06T11:35:37Z</time>
      </trkpt>
      <trkpt lat="41.609556710" lon="2.541405110">
        <ele>148.70</ele>
        <time>2014-04-06T11:35:38Z</time>
      </trkpt>
      <trkpt lat="41.609556710" lon="2.541406780">
        <ele>148.60</ele>
        <time>2014-04-06T11:35:39Z</time>
      </trkpt>
      <trkpt lat="41.609556710" lon="2.541410140">
        <ele>148.40</ele>
        <time>2014-04-06T11:35:40Z</time>
      </trkpt>
      <trkpt lat="41.609555030" lon="2.541411810">
        <ele>148.20</ele>
        <time>2014-04-06T11:35:41Z</time>
      </trkpt>
      <trkpt lat="41.609555030" lon="2.541413490">
        <ele>148.10</ele>
        <time>2014-04-06T11:35:42Z</time>
      </trkpt>
      <trkpt lat="41.609555030" lon="2.541415000">
        <ele>147.80</ele>
        <time>2014-04-06T11:35:43Z</time>
      </trkpt>
      <trkpt lat="41.609555030" lon="2.541418350">
        <ele>147.60</ele>
        <time>2014-04-06T11:35:44Z</time>
      </trkpt>
      <trkpt lat="41.609553350" lon="2.541423380">
        <ele>147.30</ele>
        <time>2014-04-06T11:35:45Z</time>
      </trkpt>
      <trkpt lat="41.609553350" lon="2.541428410">
        <ele>147.10</ele>
        <time>2014-04-06T11:35:46Z</time>
      </trkpt>
      <trkpt lat="41.609553350" lon="2.541430080">
        <ele>147.10</ele>
        <time>2014-04-06T11:35:47Z</time>
      </trkpt>
      <trkpt lat="41.609553350" lon="2.541431760">
        <ele>147.00</ele>
        <time>2014-04-06T11:35:48Z</time>
      </trkpt>
      <trkpt lat="41.609551680" lon="2.541435110">
        <ele>146.90</ele>
        <time>2014-04-06T11:35:49Z</time>
      </trkpt>
      <trkpt lat="41.609551680" lon="2.541438470">
        <ele>146.90</ele>
        <time>2014-04-06T11:35:50Z</time>
      </trkpt>
      <trkpt lat="41.609551680" lon="2.541441820">
        <ele>146.80</ele>
        <time>2014-04-06T11:35:51Z</time>
      </trkpt>
      <trkpt lat="41.609550000" lon="2.541446680">
        <ele>146.80</ele>
        <time>2014-04-06T11:35:52Z</time>
      </trkpt>
      <trkpt lat="41.609548490" lon="2.541450030">
        <ele>146.70</ele>
        <time>2014-04-06T11:35:53Z</time>
      </trkpt>
      <trkpt lat="41.609546820" lon="2.541455060">
        <ele>146.50</ele>
        <time>2014-04-06T11:35:54Z</time>
      </trkpt>
      <trkpt lat="41.609545140" lon="2.541458420">
        <ele>146.40</ele>
        <time>2014-04-06T11:35:55Z</time>
      </trkpt>
      <trkpt lat="41.609543460" lon="2.541461770">
        <ele>146.20</ele>
        <time>2014-04-06T11:35:56Z</time>
      </trkpt>
      <trkpt lat="41.609541790" lon="2.541463440">
        <ele>146.10</ele>
        <time>2014-04-06T11:35:57Z</time>
      </trkpt>
      <trkpt lat="41.609541790" lon="2.541466800">
        <ele>146.10</ele>
        <time>2014-04-06T11:35:58Z</time>
      </trkpt>
      <trkpt lat="41.609540110" lon="2.541468470">
        <ele>146.10</ele>
        <time>2014-04-06T11:35:59Z</time>
      </trkpt>
      <trkpt lat="41.609540110" lon="2.541471830">
        <ele>146.40</ele>
        <time>2014-04-06T11:36:00Z</time>
      </trkpt>
      <trkpt lat="41.609538430" lon="2.541473340">
        <ele>146.60</ele>
        <time>2014-04-06T11:36:01Z</time>
      </trkpt>
      <trkpt lat="41.609538430" lon="2.541476690">
        <ele>146.80</ele>
        <time>2014-04-06T11:36:02Z</time>
      </trkpt>
      <trkpt lat="41.609536760" lon="2.541480040">
        <ele>146.90</ele>
        <time>2014-04-06T11:36:03Z</time>
      </trkpt>
      <trkpt lat="41.609533410" lon="2.541486750">
        <ele>146.60</ele>
        <time>2014-04-06T11:36:04Z</time>
      </trkpt>
      <trkpt lat="41.609531730" lon="2.541488420">
        <ele>146.40</ele>
        <time>2014-04-06T11:36:05Z</time>
      </trkpt>
      <trkpt lat="41.609530050" lon="2.541491780">
        <ele>146.20</ele>
        <time>2014-04-06T11:36:06Z</time>
      </trkpt>
      <trkpt lat="41.609528380" lon="2.541496800">
        <ele>146.10</ele>
        <time>2014-04-06T11:36:07Z</time>
      </trkpt>
      <trkpt lat="41.609526700" lon="2.541498480">
        <ele>146.00</ele>
        <time>2014-04-06T11:36:08Z</time>
      </trkpt>
      <trkpt lat="41.609526700" lon="2.541501670">
        <ele>145.80</ele>
        <time>2014-04-06T11:36:09Z</time>
      </trkpt>
      <trkpt lat="41.609526700" lon="2.541501670">
        <ele>145.70</ele>
        <time>2014-04-06T11:36:10Z</time>
      </trkpt>
      <trkpt lat="41.609525020" lon="2.541503340">
        <ele>145.50</ele>
        <time>2014-04-06T11:36:11Z</time>
      </trkpt>
      <trkpt lat="41.609523350" lon="2.541505020">
        <ele>145.40</ele>
        <time>2014-04-06T11:36:12Z</time>
      </trkpt>
      <trkpt lat="41.609523350" lon="2.541508370">
        <ele>145.20</ele>
        <time>2014-04-06T11:36:13Z</time>
      </trkpt>
      <trkpt lat="41.609520160" lon="2.541511720">
        <ele>145.10</ele>
        <time>2014-04-06T11:36:14Z</time>
      </trkpt>
      <trkpt lat="41.609518490" lon="2.541511720">
        <ele>144.90</ele>
        <time>2014-04-06T11:36:15Z</time>
      </trkpt>
      <trkpt lat="41.609520160" lon="2.541511720">
        <ele>145.00</ele>
        <time>2014-04-06T11:36:16Z</time>
      </trkpt>
      <trkpt lat="41.609518490" lon="2.541513400">
        <ele>145.00</ele>
        <time>2014-04-06T11:36:17Z</time>
      </trkpt>
      <trkpt lat="41.609518490" lon="2.541515080">
        <ele>145.40</ele>
        <time>2014-04-06T11:36:18Z</time>
      </trkpt>
      <trkpt lat="41.609518490" lon="2.541515080">
        <ele>145.70</ele>
        <time>2014-04-06T11:36:19Z</time>
      </trkpt>
      <trkpt lat="41.609518490" lon="2.541515080">
        <ele>145.90</ele>
        <time>2014-04-06T11:36:20Z</time>
      </trkpt>
      <trkpt lat="41.609520160" lon="2.541513400">
        <ele>145.90</ele>
        <time>2014-04-06T11:36:21Z</time>
      </trkpt>
      <trkpt lat="41.609520160" lon="2.541511720">
        <ele>145.90</ele>
        <time>2014-04-06T11:36:22Z</time>
      </trkpt>
      <trkpt lat="41.609521670" lon="2.541511720">
        <ele>145.90</ele>
        <time>2014-04-06T11:36:23Z</time>
      </trkpt>
      <trkpt lat="41.609521670" lon="2.541510050">
        <ele>146.00</ele>
        <time>2014-04-06T11:36:24Z</time>
      </trkpt>
      <trkpt lat="41.609523350" lon="2.541510050">
        <ele>146.30</ele>
        <time>2014-04-06T11:36:25Z</time>
      </trkpt>
      <trkpt lat="41.609523350" lon="2.541508370">
        <ele>146.50</ele>
        <time>2014-04-06T11:36:26Z</time>
      </trkpt>
      <trkpt lat="41.609525020" lon="2.541505020">
        <ele>146.70</ele>
        <time>2014-04-06T11:36:27Z</time>
      </trkpt>
      <trkpt lat="41.609526700" lon="2.541503340">
        <ele>146.70</ele>
        <time>2014-04-06T11:36:28Z</time>
      </trkpt>
      <trkpt lat="41.609526700" lon="2.541501670">
        <ele>146.60</ele>
        <time>2014-04-06T11:36:29Z</time>
      </trkpt>
      <trkpt lat="41.609526700" lon="2.541501670">
        <ele>146.60</ele>
        <time>2014-04-06T11:36:30Z</time>
      </trkpt>
      <trkpt lat="41.609528380" lon="2.541501670">
        <ele>146.50</ele>
        <time>2014-04-06T11:36:31Z</time>
      </trkpt>
      <trkpt lat="41.609528380" lon="2.541500160">
        <ele>146.60</ele>
        <time>2014-04-06T11:36:32Z</time>
      </trkpt>
      <trkpt lat="41.609530050" lon="2.541500160">
        <ele>146.70</ele>
        <time>2014-04-06T11:36:33Z</time>
      </trkpt>
      <trkpt lat="41.609530050" lon="2.541498480">
        <ele>146.70</ele>
        <time>2014-04-06T11:36:34Z</time>
      </trkpt>
      <trkpt lat="41.609531730" lon="2.541496800">
        <ele>146.50</ele>
        <time>2014-04-06T11:36:35Z</time>
      </trkpt>
      <trkpt lat="41.609531730" lon="2.541496800">
        <ele>146.40</ele>
        <time>2014-04-06T11:36:36Z</time>
      </trkpt>
      <trkpt lat="41.609531730" lon="2.541495130">
        <ele>146.10</ele>
        <time>2014-04-06T11:36:37Z</time>
      </trkpt>
      <trkpt lat="41.609533410" lon="2.541493450">
        <ele>145.90</ele>
        <time>2014-04-06T11:36:38Z</time>
      </trkpt>
      <trkpt lat="41.609531730" lon="2.541493450">
        <ele>145.70</ele>
        <time>2014-04-06T11:36:39Z</time>
      </trkpt>
      <trkpt lat="41.609531730" lon="2.541491780">
        <ele>146.00</ele>
        <time>2014-04-06T11:36:40Z</time>
      </trkpt>
      <trkpt lat="41.609531730" lon="2.541491780">
        <ele>146.20</ele>
        <time>2014-04-06T11:36:41Z</time>
      </trkpt>
      <trkpt lat="41.609530050" lon="2.541490100">
        <ele>146.00</ele>
        <time>2014-04-06T11:36:42Z</time>
      </trkpt>
      <trkpt lat="41.609525020" lon="2.541488420">
        <ele>145.80</ele>
        <time>2014-04-06T11:36:43Z</time>
      </trkpt>
      <trkpt lat="41.609518490" lon="2.541488420">
        <ele>145.80</ele>
        <time>2014-04-06T11:36:44Z</time>
      </trkpt>
      <trkpt lat="41.609508430" lon="2.541490100">
        <ele>145.70</ele>
        <time>2014-04-06T11:36:45Z</time>
      </trkpt>
      <trkpt lat="41.609495020" lon="2.541491780">
        <ele>145.70</ele>
        <time>2014-04-06T11:36:46Z</time>
      </trkpt>
      <trkpt lat="41.609478420" lon="2.541493450">
        <ele>145.90</ele>
        <time>2014-04-06T11:36:47Z</time>
      </trkpt>
      <trkpt lat="41.609461820" lon="2.541495130">
        <ele>146.10</ele>
        <time>2014-04-06T11:36:48Z</time>
      </trkpt>
      <trkpt lat="41.609445060" lon="2.541498480">
        <ele>145.90</ele>
        <time>2014-04-06T11:36:49Z</time>
      </trkpt>
      <trkpt lat="41.609425110" lon="2.541503340">
        <ele>145.70</ele>
        <time>2014-04-06T11:36:50Z</time>
      </trkpt>
      <trkpt lat="41.609401810" lon="2.541513400">
        <ele>146.00</ele>
        <time>2014-04-06T11:36:51Z</time>
      </trkpt>
      <trkpt lat="41.609373480" lon="2.541518430">
        <ele>146.20</ele>
        <time>2014-04-06T11:36:52Z</time>
      </trkpt>
      <trkpt lat="41.609341800" lon="2.541520110">
        <ele>146.30</ele>
        <time>2014-04-06T11:36:53Z</time>
      </trkpt>
      <trkpt lat="41.609305080" lon="2.541526810">
        <ele>145.90</ele>
        <time>2014-04-06T11:36:54Z</time>
      </trkpt>
      <trkpt lat="41.609268370" lon="2.541530000">
        <ele>145.60</ele>
        <time>2014-04-06T11:36:55Z</time>
      </trkpt>
      <trkpt lat="41.609231820" lon="2.541531670">
        <ele>145.30</ele>
        <time>2014-04-06T11:36:56Z</time>
      </trkpt>
      <trkpt lat="41.609195110" lon="2.541535030">
        <ele>145.00</ele>
        <time>2014-04-06T11:36:57Z</time>
      </trkpt>
      <trkpt lat="41.609158400" lon="2.541541730">
        <ele>144.90</ele>
        <time>2014-04-06T11:36:58Z</time>
      </trkpt>
      <trkpt lat="41.609120010" lon="2.541546760">
        <ele>145.10</ele>
        <time>2014-04-06T11:36:59Z</time>
      </trkpt>
      <trkpt lat="41.609081790" lon="2.541548440">
        <ele>145.30</ele>
        <time>2014-04-06T11:37:00Z</time>
      </trkpt>
      <trkpt lat="41.609040050" lon="2.541551790">
        <ele>145.20</ele>
        <time>2014-04-06T11:37:01Z</time>
      </trkpt>
      <trkpt lat="41.608998470" lon="2.541553470">
        <ele>145.10</ele>
        <time>2014-04-06T11:37:02Z</time>
      </trkpt>
      <trkpt lat="41.608955050" lon="2.541556820">
        <ele>144.90</ele>
        <time>2014-04-06T11:37:03Z</time>
      </trkpt>
      <trkpt lat="41.608910130" lon="2.541558500">
        <ele>144.80</ele>
        <time>2014-04-06T11:37:04Z</time>
      </trkpt>
      <trkpt lat="41.608866710" lon="2.541561680">
        <ele>144.70</ele>
        <time>2014-04-06T11:37:05Z</time>
      </trkpt>
      <trkpt lat="41.608820110" lon="2.541560000">
        <ele>144.90</ele>
        <time>2014-04-06T11:37:06Z</time>
      </trkpt>
      <trkpt lat="41.608771830" lon="2.541555140">
        <ele>145.10</ele>
        <time>2014-04-06T11:37:07Z</time>
      </trkpt>
      <trkpt lat="41.608721700" lon="2.541540060">
        <ele>144.80</ele>
        <time>2014-04-06T11:37:08Z</time>
      </trkpt>
      <trkpt lat="41.608671750" lon="2.541520110">
        <ele>144.60</ele>
        <time>2014-04-06T11:37:09Z</time>
      </trkpt>
      <trkpt lat="41.608616760" lon="2.541496800">
        <ele>144.30</ele>
        <time>2014-04-06T11:37:10Z</time>
      </trkpt>
      <trkpt lat="41.608568480" lon="2.541456740">
        <ele>144.10</ele>
        <time>2014-04-06T11:37:11Z</time>
      </trkpt>
      <trkpt lat="41.608520030" lon="2.541413490">
        <ele>143.90</ele>
        <time>2014-04-06T11:37:12Z</time>
      </trkpt>
      <trkpt lat="41.608473430" lon="2.541368390">
        <ele>144.10</ele>
        <time>2014-04-06T11:37:13Z</time>
      </trkpt>
      <trkpt lat="41.608425150" lon="2.541325140">
        <ele>144.20</ele>
        <time>2014-04-06T11:37:14Z</time>
      </trkpt>
      <trkpt lat="41.608375030" lon="2.541283400">
        <ele>143.70</ele>
        <time>2014-04-06T11:37:15Z</time>
      </trkpt>
      <trkpt lat="41.608321720" lon="2.541248360">
        <ele>143.40</ele>
        <time>2014-04-06T11:37:16Z</time>
      </trkpt>
      <trkpt lat="41.608265060" lon="2.541220030">
        <ele>143.10</ele>
        <time>2014-04-06T11:37:17Z</time>
      </trkpt>
      <trkpt lat="41.608205040" lon="2.541195060">
        <ele>143.20</ele>
        <time>2014-04-06T11:37:18Z</time>
      </trkpt>
      <trkpt lat="41.608141670" lon="2.541170080">
        <ele>143.20</ele>
        <time>2014-04-06T11:37:19Z</time>
      </trkpt>
      <trkpt lat="41.608075120" lon="2.541143420">
        <ele>142.90</ele>
        <time>2014-04-06T11:37:20Z</time>
      </trkpt>
      <trkpt lat="41.608008400" lon="2.541116770">
        <ele>142.70</ele>
        <time>2014-04-06T11:37:21Z</time>
      </trkpt>
      <trkpt lat="41.607946710" lon="2.541095140">
        <ele>143.00</ele>
        <time>2014-04-06T11:37:22Z</time>
      </trkpt>
      <trkpt lat="41.607885020" lon="2.541078380">
        <ele>143.10</ele>
        <time>2014-04-06T11:37:23Z</time>
      </trkpt>
      <trkpt lat="41.607825010" lon="2.541065140">
        <ele>143.30</ele>
        <time>2014-04-06T11:37:24Z</time>
      </trkpt>
      <trkpt lat="41.607763480" lon="2.541058430">
        <ele>142.60</ele>
        <time>2014-04-06T11:37:25Z</time>
      </trkpt>
      <trkpt lat="41.607705140" lon="2.541051730">
        <ele>142.10</ele>
        <time>2014-04-06T11:37:26Z</time>
      </trkpt>
      <trkpt lat="41.607646810" lon="2.541051730">
        <ele>141.90</ele>
        <time>2014-04-06T11:37:27Z</time>
      </trkpt>
      <trkpt lat="41.607588470" lon="2.541051730">
        <ele>141.70</ele>
        <time>2014-04-06T11:37:28Z</time>
      </trkpt>
      <trkpt lat="41.607526780" lon="2.541051730">
        <ele>141.70</ele>
        <time>2014-04-06T11:37:29Z</time>
      </trkpt>
      <trkpt lat="41.607466760" lon="2.541053400">
        <ele>141.80</ele>
        <time>2014-04-06T11:37:30Z</time>
      </trkpt>
      <trkpt lat="41.607403400" lon="2.541055080">
        <ele>141.80</ele>
        <time>2014-04-06T11:37:31Z</time>
      </trkpt>
      <trkpt lat="41.607341710" lon="2.541050050">
        <ele>141.50</ele>
        <time>2014-04-06T11:37:32Z</time>
      </trkpt>
      <trkpt lat="41.607280010" lon="2.541040160">
        <ele>141.30</ele>
        <time>2014-04-06T11:37:33Z</time>
      </trkpt>
      <trkpt lat="41.607218490" lon="2.541026750">
        <ele>141.30</ele>
        <time>2014-04-06T11:37:34Z</time>
      </trkpt>
      <trkpt lat="41.607155120" lon="2.541013340">
        <ele>141.30</ele>
        <time>2014-04-06T11:37:35Z</time>
      </trkpt>
      <trkpt lat="41.607093430" lon="2.540996740">
        <ele>141.30</ele>
        <time>2014-04-06T11:37:36Z</time>
      </trkpt>
      <trkpt lat="41.607031740" lon="2.540978470">
        <ele>140.80</ele>
        <time>2014-04-06T11:37:37Z</time>
      </trkpt>
      <trkpt lat="41.606968380" lon="2.540958350">
        <ele>140.50</ele>
        <time>2014-04-06T11:37:38Z</time>
      </trkpt>
      <trkpt lat="41.606905010" lon="2.540935050">
        <ele>140.50</ele>
        <time>2014-04-06T11:37:39Z</time>
      </trkpt>
      <trkpt lat="41.606841810" lon="2.540910070">
        <ele>140.40</ele>
        <time>2014-04-06T11:37:40Z</time>
      </trkpt>
      <trkpt lat="41.606778440" lon="2.540885090">
        <ele>140.40</ele>
        <time>2014-04-06T11:37:41Z</time>
      </trkpt>
      <trkpt lat="41.606713400" lon="2.540860120">
        <ele>140.40</ele>
        <time>2014-04-06T11:37:42Z</time>
      </trkpt>
      <trkpt lat="41.606646680" lon="2.540835140">
        <ele>140.40</ele>
        <time>2014-04-06T11:37:43Z</time>
      </trkpt>
      <trkpt lat="41.606580130" lon="2.540808480">
        <ele>139.70</ele>
        <time>2014-04-06T11:37:44Z</time>
      </trkpt>
      <trkpt lat="41.606515080" lon="2.540780150">
        <ele>139.20</ele>
        <time>2014-04-06T11:37:45Z</time>
      </trkpt>
      <trkpt lat="41.606448360" lon="2.540750140">
        <ele>139.20</ele>
        <time>2014-04-06T11:37:46Z</time>
      </trkpt>
      <trkpt lat="41.606381810" lon="2.540721810">
        <ele>139.20</ele>
        <time>2014-04-06T11:37:47Z</time>
      </trkpt>
      <trkpt lat="41.606315090" lon="2.540691810">
        <ele>138.40</ele>
        <time>2014-04-06T11:37:48Z</time>
      </trkpt>
      <trkpt lat="41.606250050" lon="2.540665150">
        <ele>137.90</ele>
        <time>2014-04-06T11:37:49Z</time>
      </trkpt>
      <trkpt lat="41.606186680" lon="2.540640010">
        <ele>137.50</ele>
        <time>2014-04-06T11:37:50Z</time>
      </trkpt>
      <trkpt lat="41.606123480" lon="2.540615030">
        <ele>137.50</ele>
        <time>2014-04-06T11:37:51Z</time>
      </trkpt>
      <trkpt lat="41.606063470" lon="2.540595080">
        <ele>137.60</ele>
        <time>2014-04-06T11:37:52Z</time>
      </trkpt>
      <trkpt lat="41.606006800" lon="2.540571780">
        <ele>137.30</ele>
        <time>2014-04-06T11:37:53Z</time>
      </trkpt>
      <trkpt lat="41.605960030" lon="2.540536740">
        <ele>137.20</ele>
        <time>2014-04-06T11:37:54Z</time>
      </trkpt>
      <trkpt lat="41.605913430" lon="2.540506730">
        <ele>137.00</ele>
        <time>2014-04-06T11:37:55Z</time>
      </trkpt>
      <trkpt lat="41.605870010" lon="2.540480080">
        <ele>136.70</ele>
        <time>2014-04-06T11:37:56Z</time>
      </trkpt>
      <trkpt lat="41.605831790" lon="2.540451750">
        <ele>136.40</ele>
        <time>2014-04-06T11:37:57Z</time>
      </trkpt>
      <trkpt lat="41.605801780" lon="2.540428450">
        <ele>136.80</ele>
        <time>2014-04-06T11:37:58Z</time>
      </trkpt>
      <trkpt lat="41.605778480" lon="2.540416710">
        <ele>137.10</ele>
        <time>2014-04-06T11:37:59Z</time>
      </trkpt>
      <trkpt lat="41.605766750" lon="2.540410010">
        <ele>136.70</ele>
        <time>2014-04-06T11:38:00Z</time>
      </trkpt>
      <trkpt lat="41.605763390" lon="2.540408330">
        <ele>136.40</ele>
        <time>2014-04-06T11:38:01Z</time>
      </trkpt>
      <trkpt lat="41.605763390" lon="2.540406820">
        <ele>136.10</ele>
        <time>2014-04-06T11:38:02Z</time>
      </trkpt>
      <trkpt lat="41.605761720" lon="2.540406820">
        <ele>136.20</ele>
        <time>2014-04-06T11:38:03Z</time>
      </trkpt>
      <trkpt lat="41.605760040" lon="2.540405150">
        <ele>136.10</ele>
        <time>2014-04-06T11:38:04Z</time>
      </trkpt>
      <trkpt lat="41.605760040" lon="2.540403470">
        <ele>135.90</ele>
        <time>2014-04-06T11:38:05Z</time>
      </trkpt>
      <trkpt lat="41.605758360" lon="2.540403470">
        <ele>135.90</ele>
        <time>2014-04-06T11:38:06Z</time>
      </trkpt>
      <trkpt lat="41.605756690" lon="2.540403470">
        <ele>135.70</ele>
        <time>2014-04-06T11:38:07Z</time>
      </trkpt>
      <trkpt lat="41.605756690" lon="2.540401790">
        <ele>135.60</ele>
        <time>2014-04-06T11:38:08Z</time>
      </trkpt>
      <trkpt lat="41.605756690" lon="2.540400120">
        <ele>135.50</ele>
        <time>2014-04-06T11:38:09Z</time>
      </trkpt>
      <trkpt lat="41.605755010" lon="2.540400120">
        <ele>135.40</ele>
        <time>2014-04-06T11:38:10Z</time>
      </trkpt>
      <trkpt lat="41.605755010" lon="2.540400120">
        <ele>135.40</ele>
        <time>2014-04-06T11:38:11Z</time>
      </trkpt>
      <trkpt lat="41.605755010" lon="2.540398440">
        <ele>135.80</ele>
        <time>2014-04-06T11:38:12Z</time>
      </trkpt>
      <trkpt lat="41.605755010" lon="2.540398440">
        <ele>136.10</ele>
        <time>2014-04-06T11:38:13Z</time>
      </trkpt>
      <trkpt lat="41.605748470" lon="2.540391730">
        <ele>136.30</ele>
        <time>2014-04-06T11:38:14Z</time>
      </trkpt>
      <trkpt lat="41.605748470" lon="2.540390060">
        <ele>136.30</ele>
        <time>2014-04-06T11:38:15Z</time>
      </trkpt>
      <trkpt lat="41.605748470" lon="2.540390060">
        <ele>136.30</ele>
        <time>2014-04-06T11:38:16Z</time>
      </trkpt>
      <trkpt lat="41.605750150" lon="2.540390060">
        <ele>135.70</ele>
        <time>2014-04-06T11:38:17Z</time>
      </trkpt>
      <trkpt lat="41.605750150" lon="2.540388380">
        <ele>135.40</ele>
        <time>2014-04-06T11:38:18Z</time>
      </trkpt>
      <trkpt lat="41.605750150" lon="2.540388380">
        <ele>135.10</ele>
        <time>2014-04-06T11:38:19Z</time>
      </trkpt>
      <trkpt lat="41.605750150" lon="2.540386710">
        <ele>134.90</ele>
        <time>2014-04-06T11:38:20Z</time>
      </trkpt>
      <trkpt lat="41.605750150" lon="2.540386710">
        <ele>134.70</ele>
        <time>2014-04-06T11:38:21Z</time>
      </trkpt>
      <trkpt lat="41.605750150" lon="2.540386710">
        <ele>134.50</ele>
        <time>2014-04-06T11:38:22Z</time>
      </trkpt>
      <trkpt lat="41.605750150" lon="2.540385030">
        <ele>134.30</ele>
        <time>2014-04-06T11:38:23Z</time>
      </trkpt>
      <trkpt lat="41.605750150" lon="2.540385030">
        <ele>134.40</ele>
        <time>2014-04-06T11:38:24Z</time>
      </trkpt>
      <trkpt lat="41.605748470" lon="2.540386710">
        <ele>134.40</ele>
        <time>2014-04-06T11:38:25Z</time>
      </trkpt>
      <trkpt lat="41.605748470" lon="2.540386710">
        <ele>134.80</ele>
        <time>2014-04-06T11:38:26Z</time>
      </trkpt>
      <trkpt lat="41.605748470" lon="2.540386710">
        <ele>135.20</ele>
        <time>2014-04-06T11:38:27Z</time>
      </trkpt>
      <trkpt lat="41.605746800" lon="2.540388380">
        <ele>135.40</ele>
        <time>2014-04-06T11:38:28Z</time>
      </trkpt>
      <trkpt lat="41.605746800" lon="2.540388380">
        <ele>135.20</ele>
        <time>2014-04-06T11:38:29Z</time>
      </trkpt>
      <trkpt lat="41.605745120" lon="2.540388380">
        <ele>135.00</ele>
        <time>2014-04-06T11:38:30Z</time>
      </trkpt>
      <trkpt lat="41.605745120" lon="2.540388380">
        <ele>135.00</ele>
        <time>2014-04-06T11:38:31Z</time>
      </trkpt>
      <trkpt lat="41.605743440" lon="2.540388380">
        <ele>135.10</ele>
        <time>2014-04-06T11:38:32Z</time>
      </trkpt>
      <trkpt lat="41.605743440" lon="2.540390060">
        <ele>135.10</ele>
        <time>2014-04-06T11:38:33Z</time>
      </trkpt>
      <trkpt lat="41.605743440" lon="2.540390060">
        <ele>134.80</ele>
        <time>2014-04-06T11:38:34Z</time>
      </trkpt>
      <trkpt lat="41.605741770" lon="2.540390060">
        <ele>134.50</ele>
        <time>2014-04-06T11:38:35Z</time>
      </trkpt>
      <trkpt lat="41.605741770" lon="2.540391730">
        <ele>135.00</ele>
        <time>2014-04-06T11:38:36Z</time>
      </trkpt>
      <trkpt lat="41.605740090" lon="2.540391730">
        <ele>135.30</ele>
        <time>2014-04-06T11:38:37Z</time>
      </trkpt>
      <trkpt lat="41.605740090" lon="2.540391730">
        <ele>135.20</ele>
        <time>2014-04-06T11:38:38Z</time>
      </trkpt>
      <trkpt lat="41.605740090" lon="2.540391730">
        <ele>135.00</ele>
        <time>2014-04-06T11:38:39Z</time>
      </trkpt>
      <trkpt lat="41.605740090" lon="2.540393410">
        <ele>135.00</ele>
        <time>2014-04-06T11:38:40Z</time>
      </trkpt>
      <trkpt lat="41.605740090" lon="2.540393410">
        <ele>134.60</ele>
        <time>2014-04-06T11:38:41Z</time>
      </trkpt>
      <trkpt lat="41.605740090" lon="2.540393410">
        <ele>134.40</ele>
        <time>2014-04-06T11:38:42Z</time>
      </trkpt>
      <trkpt lat="41.605740090" lon="2.540391730">
        <ele>134.80</ele>
        <time>2014-04-06T11:38:43Z</time>
      </trkpt>
      <trkpt lat="41.605740090" lon="2.540391730">
        <ele>135.20</ele>
        <time>2014-04-06T11:38:44Z</time>
      </trkpt>
      <trkpt lat="41.605741770" lon="2.540391730">
        <ele>134.80</ele>
        <time>2014-04-06T11:38:45Z</time>
      </trkpt>
      <trkpt lat="41.605741770" lon="2.540390060">
        <ele>134.50</ele>
        <time>2014-04-06T11:38:46Z</time>
      </trkpt>
      <trkpt lat="41.605743440" lon="2.540388380">
        <ele>134.30</ele>
        <time>2014-04-06T11:38:47Z</time>
      </trkpt>
      <trkpt lat="41.605745120" lon="2.540388380">
        <ele>134.50</ele>
        <time>2014-04-06T11:38:48Z</time>
      </trkpt>
      <trkpt lat="41.605745120" lon="2.540386710">
        <ele>134.60</ele>
        <time>2014-04-06T11:38:49Z</time>
      </trkpt>
      <trkpt lat="41.605745120" lon="2.540386710">
        <ele>134.60</ele>
        <time>2014-04-06T11:38:50Z</time>
      </trkpt>
      <trkpt lat="41.605743440" lon="2.540388380">
        <ele>134.60</ele>
        <time>2014-04-06T11:38:51Z</time>
      </trkpt>
      <trkpt lat="41.605745120" lon="2.540386710">
        <ele>134.70</ele>
        <time>2014-04-06T11:38:52Z</time>
      </trkpt>
      <trkpt lat="41.605745120" lon="2.540386710">
        <ele>134.70</ele>
        <time>2014-04-06T11:38:53Z</time>
      </trkpt>
      <trkpt lat="41.605745120" lon="2.540385030">
        <ele>134.80</ele>
        <time>2014-04-06T11:38:54Z</time>
      </trkpt>
      <trkpt lat="41.605745120" lon="2.540385030">
        <ele>135.10</ele>
        <time>2014-04-06T11:38:55Z</time>
      </trkpt>
      <trkpt lat="41.605745120" lon="2.540383350">
        <ele>135.40</ele>
        <time>2014-04-06T11:38:56Z</time>
      </trkpt>
      <trkpt lat="41.605746800" lon="2.540385030">
        <ele>135.30</ele>
        <time>2014-04-06T11:38:57Z</time>
      </trkpt>
      <trkpt lat="41.605746800" lon="2.540385030">
        <ele>135.30</ele>
        <time>2014-04-06T11:38:58Z</time>
      </trkpt>
      <trkpt lat="41.605746800" lon="2.540385030">
        <ele>135.30</ele>
        <time>2014-04-06T11:38:59Z</time>
      </trkpt>
      <trkpt lat="41.605746800" lon="2.540383350">
        <ele>135.30</ele>
        <time>2014-04-06T11:39:00Z</time>
      </trkpt>
      <trkpt lat="41.605746800" lon="2.540383350">
        <ele>135.20</ele>
        <time>2014-04-06T11:39:01Z</time>
      </trkpt>
      <trkpt lat="41.605746800" lon="2.540381680">
        <ele>135.30</ele>
        <time>2014-04-06T11:39:02Z</time>
      </trkpt>
      <trkpt lat="41.605746800" lon="2.540381680">
        <ele>135.40</ele>
        <time>2014-04-06T11:39:03Z</time>
      </trkpt>
      <trkpt lat="41.605746800" lon="2.540381680">
        <ele>135.00</ele>
        <time>2014-04-06T11:39:04Z</time>
      </trkpt>
      <trkpt lat="41.605746800" lon="2.540381680">
        <ele>134.70</ele>
        <time>2014-04-06T11:39:05Z</time>
      </trkpt>
      <trkpt lat="41.605746800" lon="2.540380000">
        <ele>134.50</ele>
        <time>2014-04-06T11:39:06Z</time>
      </trkpt>
      <trkpt lat="41.605746800" lon="2.540380000">
        <ele>134.40</ele>
        <time>2014-04-06T11:39:07Z</time>
      </trkpt>
      <trkpt lat="41.605746800" lon="2.540378490">
        <ele>134.30</ele>
        <time>2014-04-06T11:39:08Z</time>
      </trkpt>
      <trkpt lat="41.605746800" lon="2.540378490">
        <ele>134.30</ele>
        <time>2014-04-06T11:39:09Z</time>
      </trkpt>
      <trkpt lat="41.605746800" lon="2.540380000">
        <ele>134.20</ele>
        <time>2014-04-06T11:39:10Z</time>
      </trkpt>
      <trkpt lat="41.605748470" lon="2.540381680">
        <ele>134.20</ele>
        <time>2014-04-06T11:39:11Z</time>
      </trkpt>
      <trkpt lat="41.605748470" lon="2.540383350">
        <ele>134.30</ele>
        <time>2014-04-06T11:39:12Z</time>
      </trkpt>
      <trkpt lat="41.605748470" lon="2.540385030">
        <ele>134.40</ele>
        <time>2014-04-06T11:39:13Z</time>
      </trkpt>
      <trkpt lat="41.605748470" lon="2.540385030">
        <ele>134.40</ele>
        <time>2014-04-06T11:39:14Z</time>
      </trkpt>
      <trkpt lat="41.605748470" lon="2.540386710">
        <ele>134.50</ele>
        <time>2014-04-06T11:39:15Z</time>
      </trkpt>
      <trkpt lat="41.605748470" lon="2.540386710">
        <ele>134.10</ele>
        <time>2014-04-06T11:39:16Z</time>
      </trkpt>
      <trkpt lat="41.605750150" lon="2.540386710">
        <ele>133.80</ele>
        <time>2014-04-06T11:39:17Z</time>
      </trkpt>
      <trkpt lat="41.605748470" lon="2.540388380">
        <ele>133.60</ele>
        <time>2014-04-06T11:39:18Z</time>
      </trkpt>
      <trkpt lat="41.605748470" lon="2.540388380">
        <ele>134.10</ele>
        <time>2014-04-06T11:39:19Z</time>
      </trkpt>
      <trkpt lat="41.605748470" lon="2.540388380">
        <ele>134.50</ele>
        <time>2014-04-06T11:39:20Z</time>
      </trkpt>
      <trkpt lat="41.605748470" lon="2.540388380">
        <ele>134.80</ele>
        <time>2014-04-06T11:39:21Z</time>
      </trkpt>
      <trkpt lat="41.605748470" lon="2.540390060">
        <ele>135.10</ele>
        <time>2014-04-06T11:39:22Z</time>
      </trkpt>
      <trkpt lat="41.605748470" lon="2.540390060">
        <ele>135.10</ele>
        <time>2014-04-06T11:39:23Z</time>
      </trkpt>
      <trkpt lat="41.605748470" lon="2.540390060">
        <ele>135.00</ele>
        <time>2014-04-06T11:39:24Z</time>
      </trkpt>
      <trkpt lat="41.605748470" lon="2.540386710">
        <ele>135.00</ele>
        <time>2014-04-06T11:39:25Z</time>
      </trkpt>
      <trkpt lat="41.605746800" lon="2.540380000">
        <ele>135.00</ele>
        <time>2014-04-06T11:39:26Z</time>
      </trkpt>
      <trkpt lat="41.605745120" lon="2.540375140">
        <ele>134.90</ele>
        <time>2014-04-06T11:39:27Z</time>
      </trkpt>
      <trkpt lat="41.605745120" lon="2.540371790">
        <ele>135.10</ele>
        <time>2014-04-06T11:39:28Z</time>
      </trkpt>
      <trkpt lat="41.605743440" lon="2.540370110">
        <ele>135.10</ele>
        <time>2014-04-06T11:39:29Z</time>
      </trkpt>
      <trkpt lat="41.605743440" lon="2.540368430">
        <ele>135.20</ele>
        <time>2014-04-06T11:39:30Z</time>
      </trkpt>
      <trkpt lat="41.605743440" lon="2.540368430">
        <ele>135.10</ele>
        <time>2014-04-06T11:39:31Z</time>
      </trkpt>
      <trkpt lat="41.605743440" lon="2.540366760">
        <ele>135.10</ele>
        <time>2014-04-06T11:39:32Z</time>
      </trkpt>
      <trkpt lat="41.605741770" lon="2.540366760">
        <ele>134.90</ele>
        <time>2014-04-06T11:39:33Z</time>
      </trkpt>
      <trkpt lat="41.605745120" lon="2.540365080">
        <ele>134.70</ele>
        <time>2014-04-06T11:39:34Z</time>
      </trkpt>
      <trkpt lat="41.605746800" lon="2.540363400">
        <ele>134.30</ele>
        <time>2014-04-06T11:39:35Z</time>
      </trkpt>
      <trkpt lat="41.605746800" lon="2.540361730">
        <ele>134.10</ele>
        <time>2014-04-06T11:39:36Z</time>
      </trkpt>
      <trkpt lat="41.605746800" lon="2.540363400">
        <ele>133.80</ele>
        <time>2014-04-06T11:39:37Z</time>
      </trkpt>
      <trkpt lat="41.605748470" lon="2.540363400">
        <ele>134.00</ele>
        <time>2014-04-06T11:39:38Z</time>
      </trkpt>
      <trkpt lat="41.605748470" lon="2.540365080">
        <ele>134.10</ele>
        <time>2014-04-06T11:39:39Z</time>
      </trkpt>
      <trkpt lat="41.605748470" lon="2.540366760">
        <ele>134.20</ele>
        <time>2014-04-06T11:39:40Z</time>
      </trkpt>
      <trkpt lat="41.605746800" lon="2.540366760">
        <ele>134.30</ele>
        <time>2014-04-06T11:39:41Z</time>
      </trkpt>
      <trkpt lat="41.605741770" lon="2.540365080">
        <ele>134.50</ele>
        <time>2014-04-06T11:39:42Z</time>
      </trkpt>
      <trkpt lat="41.605733390" lon="2.540361730">
        <ele>134.60</ele>
        <time>2014-04-06T11:39:43Z</time>
      </trkpt>
      <trkpt lat="41.605721820" lon="2.540355020">
        <ele>134.70</ele>
        <time>2014-04-06T11:39:44Z</time>
      </trkpt>
      <trkpt lat="41.605710080" lon="2.540350160">
        <ele>134.50</ele>
        <time>2014-04-06T11:39:45Z</time>
      </trkpt>
      <trkpt lat="41.605695000" lon="2.540346810">
        <ele>134.30</ele>
        <time>2014-04-06T11:39:46Z</time>
      </trkpt>
      <trkpt lat="41.605681750" lon="2.540340100">
        <ele>134.70</ele>
        <time>2014-04-06T11:39:47Z</time>
      </trkpt>
      <trkpt lat="41.605666670" lon="2.540330040">
        <ele>134.90</ele>
        <time>2014-04-06T11:39:48Z</time>
      </trkpt>
      <trkpt lat="41.605648390" lon="2.540323340">
        <ele>135.10</ele>
        <time>2014-04-06T11:39:49Z</time>
      </trkpt>
      <trkpt lat="41.605625090" lon="2.540315120">
        <ele>135.30</ele>
        <time>2014-04-06T11:39:50Z</time>
      </trkpt>
      <trkpt lat="41.605601790" lon="2.540303390">
        <ele>135.50</ele>
        <time>2014-04-06T11:39:51Z</time>
      </trkpt>
      <trkpt lat="41.605581670" lon="2.540291820">
        <ele>135.60</ele>
        <time>2014-04-06T11:39:52Z</time>
      </trkpt>
      <trkpt lat="41.605560050" lon="2.540285120">
        <ele>135.70</ele>
        <time>2014-04-06T11:39:53Z</time>
      </trkpt>
      <trkpt lat="41.605538420" lon="2.540281760">
        <ele>135.70</ele>
        <time>2014-04-06T11:39:54Z</time>
      </trkpt>
      <trkpt lat="41.605518470" lon="2.540273380">
        <ele>135.60</ele>
        <time>2014-04-06T11:39:55Z</time>
      </trkpt>
      <trkpt lat="41.605496680" lon="2.540263490">
        <ele>135.60</ele>
        <time>2014-04-06T11:39:56Z</time>
      </trkpt>
      <trkpt lat="41.605476730" lon="2.540258460">
        <ele>135.30</ele>
        <time>2014-04-06T11:39:57Z</time>
      </trkpt>
      <trkpt lat="41.605458460" lon="2.540253430">
        <ele>135.00</ele>
        <time>2014-04-06T11:39:58Z</time>
      </trkpt>
      <trkpt lat="41.605440020" lon="2.540245050">
        <ele>134.80</ele>
        <time>2014-04-06T11:39:59Z</time>
      </trkpt>
      <trkpt lat="41.605420070" lon="2.540235160">
        <ele>134.60</ele>
        <time>2014-04-06T11:40:00Z</time>
      </trkpt>
      <trkpt lat="41.605395090" lon="2.540225100">
        <ele>134.70</ele>
        <time>2014-04-06T11:40:01Z</time>
      </trkpt>
      <trkpt lat="41.605366760" lon="2.540216720">
        <ele>134.80</ele>
        <time>2014-04-06T11:40:02Z</time>
      </trkpt>
      <trkpt lat="41.605340110" lon="2.540206660">
        <ele>134.90</ele>
        <time>2014-04-06T11:40:03Z</time>
      </trkpt>
      <trkpt lat="41.605311780" lon="2.540198450">
        <ele>134.70</ele>
        <time>2014-04-06T11:40:04Z</time>
      </trkpt>
      <trkpt lat="41.605285120" lon="2.540186710">
        <ele>134.60</ele>
        <time>2014-04-06T11:40:05Z</time>
      </trkpt>
      <trkpt lat="41.605258470" lon="2.540175150">
        <ele>134.20</ele>
        <time>2014-04-06T11:40:06Z</time>
      </trkpt>
      <trkpt lat="41.605231810" lon="2.540158380">
        <ele>133.90</ele>
        <time>2014-04-06T11:40:07Z</time>
      </trkpt>
      <trkpt lat="41.605210020" lon="2.540131730">
        <ele>133.60</ele>
        <time>2014-04-06T11:40:08Z</time>
      </trkpt>
      <trkpt lat="41.605190070" lon="2.540103400">
        <ele>133.40</ele>
        <time>2014-04-06T11:40:09Z</time>
      </trkpt>
      <trkpt lat="41.605165090" lon="2.540081770">
        <ele>133.20</ele>
        <time>2014-04-06T11:40:10Z</time>
      </trkpt>
      <trkpt lat="41.605135090" lon="2.540070040">
        <ele>133.20</ele>
        <time>2014-04-06T11:40:11Z</time>
      </trkpt>
      <trkpt lat="41.605101730" lon="2.540060150">
        <ele>133.10</ele>
        <time>2014-04-06T11:40:12Z</time>
      </trkpt>
      <trkpt lat="41.605066690" lon="2.540051760">
        <ele>133.20</ele>
        <time>2014-04-06T11:40:13Z</time>
      </trkpt>
      <trkpt lat="41.605028470" lon="2.540043380">
        <ele>133.20</ele>
        <time>2014-04-06T11:40:14Z</time>
      </trkpt>
      <trkpt lat="41.604988400" lon="2.540036680">
        <ele>133.20</ele>
        <time>2014-04-06T11:40:15Z</time>
      </trkpt>
      <trkpt lat="41.604948340" lon="2.540030140">
        <ele>132.70</ele>
        <time>2014-04-06T11:40:16Z</time>
      </trkpt>
      <trkpt lat="41.604906760" lon="2.540025110">
        <ele>132.40</ele>
        <time>2014-04-06T11:40:17Z</time>
      </trkpt>
      <trkpt lat="41.604868370" lon="2.540021760">
        <ele>132.60</ele>
        <time>2014-04-06T11:40:18Z</time>
      </trkpt>
      <trkpt lat="41.604828480" lon="2.540016730">
        <ele>132.70</ele>
        <time>2014-04-06T11:40:19Z</time>
      </trkpt>
      <trkpt lat="41.604791760" lon="2.540013380">
        <ele>132.40</ele>
        <time>2014-04-06T11:40:20Z</time>
      </trkpt>
      <trkpt lat="41.604753370" lon="2.540006670">
        <ele>132.20</ele>
        <time>2014-04-06T11:40:21Z</time>
      </trkpt>
      <trkpt lat="41.604715150" lon="2.539998460">
        <ele>132.00</ele>
        <time>2014-04-06T11:40:22Z</time>
      </trkpt>
      <trkpt lat="41.604675090" lon="2.539985040">
        <ele>131.80</ele>
        <time>2014-04-06T11:40:23Z</time>
      </trkpt>
      <trkpt lat="41.604631670" lon="2.539976660">
        <ele>131.70</ele>
        <time>2014-04-06T11:40:24Z</time>
      </trkpt>
      <trkpt lat="41.604581710" lon="2.539970120">
        <ele>131.50</ele>
        <time>2014-04-06T11:40:25Z</time>
      </trkpt>
      <trkpt lat="41.604535110" lon="2.539956710">
        <ele>131.30</ele>
        <time>2014-04-06T11:40:26Z</time>
      </trkpt>
      <trkpt lat="41.604493370" lon="2.539933410">
        <ele>131.40</ele>
        <time>2014-04-06T11:40:27Z</time>
      </trkpt>
      <trkpt lat="41.604463360" lon="2.539900050">
        <ele>131.50</ele>
        <time>2014-04-06T11:40:28Z</time>
      </trkpt>
      <trkpt lat="41.604443410" lon="2.539861660">
        <ele>131.50</ele>
        <time>2014-04-06T11:40:29Z</time>
      </trkpt>
      <trkpt lat="41.604431680" lon="2.539818410">
        <ele>131.40</ele>
        <time>2014-04-06T11:40:30Z</time>
      </trkpt>
      <trkpt lat="41.604426810" lon="2.539775160">
        <ele>131.40</ele>
        <time>2014-04-06T11:40:31Z</time>
      </trkpt>
      <trkpt lat="41.604428490" lon="2.539726710">
        <ele>131.40</ele>
        <time>2014-04-06T11:40:32Z</time>
      </trkpt>
      <trkpt lat="41.604435030" lon="2.539680110">
        <ele>131.40</ele>
        <time>2014-04-06T11:40:33Z</time>
      </trkpt>
      <trkpt lat="41.604448440" lon="2.539633340">
        <ele>131.40</ele>
        <time>2014-04-06T11:40:34Z</time>
      </trkpt>
      <trkpt lat="41.604463360" lon="2.539591770">
        <ele>131.50</ele>
        <time>2014-04-06T11:40:35Z</time>
      </trkpt>
      <trkpt lat="41.604480120" lon="2.539550020">
        <ele>131.60</ele>
        <time>2014-04-06T11:40:36Z</time>
      </trkpt>
      <trkpt lat="41.604496720" lon="2.539510130">
        <ele>131.70</ele>
        <time>2014-04-06T11:40:37Z</time>
      </trkpt>
      <trkpt lat="41.604511810" lon="2.539471740">
        <ele>131.70</ele>
        <time>2014-04-06T11:40:38Z</time>
      </trkpt>
      <trkpt lat="41.604528400" lon="2.539436700">
        <ele>131.80</ele>
        <time>2014-04-06T11:40:39Z</time>
      </trkpt>
      <trkpt lat="41.604545000" lon="2.539400160">
        <ele>131.90</ele>
        <time>2014-04-06T11:40:40Z</time>
      </trkpt>
      <trkpt lat="41.604560090" lon="2.539363440">
        <ele>132.00</ele>
        <time>2014-04-06T11:40:41Z</time>
      </trkpt>
      <trkpt lat="41.604576680" lon="2.539326730">
        <ele>132.30</ele>
        <time>2014-04-06T11:40:42Z</time>
      </trkpt>
      <trkpt lat="41.604591770" lon="2.539290020">
        <ele>132.50</ele>
        <time>2014-04-06T11:40:43Z</time>
      </trkpt>
      <trkpt lat="41.604605010" lon="2.539255150">
        <ele>132.90</ele>
        <time>2014-04-06T11:40:44Z</time>
      </trkpt>
      <trkpt lat="41.604613400" lon="2.539225140">
        <ele>133.20</ele>
        <time>2014-04-06T11:40:45Z</time>
      </trkpt>
      <trkpt lat="41.604615070" lon="2.539200000">
        <ele>133.50</ele>
        <time>2014-04-06T11:40:46Z</time>
      </trkpt>
      <trkpt lat="41.604613400" lon="2.539185080">
        <ele>133.60</ele>
        <time>2014-04-06T11:40:47Z</time>
      </trkpt>
      <trkpt lat="41.604613400" lon="2.539181720">
        <ele>133.80</ele>
        <time>2014-04-06T11:40:48Z</time>
      </trkpt>
      <trkpt lat="41.604615070" lon="2.539178370">
        <ele>134.40</ele>
        <time>2014-04-06T11:40:49Z</time>
      </trkpt>
      <trkpt lat="41.604613400" lon="2.539176690">
        <ele>134.80</ele>
        <time>2014-04-06T11:40:50Z</time>
      </trkpt>
      <trkpt lat="41.604610040" lon="2.539175020">
        <ele>134.60</ele>
        <time>2014-04-06T11:40:51Z</time>
      </trkpt>
      <trkpt lat="41.604610040" lon="2.539173340">
        <ele>134.30</ele>
        <time>2014-04-06T11:40:52Z</time>
      </trkpt>
      <trkpt lat="41.604610040" lon="2.539171660">
        <ele>134.20</ele>
        <time>2014-04-06T11:40:53Z</time>
      </trkpt>
      <trkpt lat="41.604610040" lon="2.539171660">
        <ele>134.30</ele>
        <time>2014-04-06T11:40:54Z</time>
      </trkpt>
      <trkpt lat="41.604610040" lon="2.539168480">
        <ele>134.30</ele>
        <time>2014-04-06T11:40:55Z</time>
      </trkpt>
      <trkpt lat="41.604610040" lon="2.539166800">
        <ele>134.30</ele>
        <time>2014-04-06T11:40:56Z</time>
      </trkpt>
      <trkpt lat="41.604610040" lon="2.539165130">
        <ele>134.20</ele>
        <time>2014-04-06T11:40:57Z</time>
      </trkpt>
      <trkpt lat="41.604611720" lon="2.539163450">
        <ele>134.30</ele>
        <time>2014-04-06T11:40:58Z</time>
      </trkpt>
      <trkpt lat="41.604611720" lon="2.539160100">
        <ele>134.30</ele>
        <time>2014-04-06T11:40:59Z</time>
      </trkpt>
      <trkpt lat="41.604613400" lon="2.539158420">
        <ele>134.30</ele>
        <time>2014-04-06T11:41:00Z</time>
      </trkpt>
      <trkpt lat="41.604613400" lon="2.539155070">
        <ele>134.20</ele>
        <time>2014-04-06T11:41:01Z</time>
      </trkpt>
      <trkpt lat="41.604615070" lon="2.539153390">
        <ele>134.00</ele>
        <time>2014-04-06T11:41:02Z</time>
      </trkpt>
      <trkpt lat="41.604615070" lon="2.539150040">
        <ele>134.10</ele>
        <time>2014-04-06T11:41:03Z</time>
      </trkpt>
      <trkpt lat="41.604616750" lon="2.539148360">
        <ele>134.20</ele>
        <time>2014-04-06T11:41:04Z</time>
      </trkpt>
      <trkpt lat="41.604618430" lon="2.539148360">
        <ele>134.30</ele>
        <time>2014-04-06T11:41:05Z</time>
      </trkpt>
      <trkpt lat="41.604620100" lon="2.539146690">
        <ele>134.30</ele>
        <time>2014-04-06T11:41:06Z</time>
      </trkpt>
      <trkpt lat="41.604621780" lon="2.539145010">
        <ele>134.40</ele>
        <time>2014-04-06T11:41:07Z</time>
      </trkpt>
      <trkpt lat="41.604621780" lon="2.539143330">
        <ele>134.40</ele>
        <time>2014-04-06T11:41:08Z</time>
      </trkpt>
      <trkpt lat="41.604623450" lon="2.539143330">
        <ele>134.40</ele>
        <time>2014-04-06T11:41:09Z</time>
      </trkpt>
      <trkpt lat="41.604623450" lon="2.539141830">
        <ele>134.20</ele>
        <time>2014-04-06T11:41:10Z</time>
      </trkpt>
      <trkpt lat="41.604625130" lon="2.539141830">
        <ele>134.00</ele>
        <time>2014-04-06T11:41:11Z</time>
      </trkpt>
      <trkpt lat="41.604626810" lon="2.539140150">
        <ele>134.00</ele>
        <time>2014-04-06T11:41:12Z</time>
      </trkpt>
      <trkpt lat="41.604626810" lon="2.539138470">
        <ele>133.90</ele>
        <time>2014-04-06T11:41:13Z</time>
      </trkpt>
      <trkpt lat="41.604628480" lon="2.539136800">
        <ele>133.90</ele>
        <time>2014-04-06T11:41:14Z</time>
      </trkpt>
      <trkpt lat="41.604630160" lon="2.539135120">
        <ele>133.70</ele>
        <time>2014-04-06T11:41:15Z</time>
      </trkpt>
      <trkpt lat="41.604631670" lon="2.539133440">
        <ele>133.60</ele>
        <time>2014-04-06T11:41:16Z</time>
      </trkpt>
      <trkpt lat="41.604631670" lon="2.539131770">
        <ele>133.60</ele>
        <time>2014-04-06T11:41:17Z</time>
      </trkpt>
      <trkpt lat="41.604633340" lon="2.539130090">
        <ele>133.70</ele>
        <time>2014-04-06T11:41:18Z</time>
      </trkpt>
      <trkpt lat="41.604633340" lon="2.539128410">
        <ele>133.70</ele>
        <time>2014-04-06T11:41:19Z</time>
      </trkpt>
      <trkpt lat="41.604635020" lon="2.539126740">
        <ele>133.90</ele>
        <time>2014-04-06T11:41:20Z</time>
      </trkpt>
      <trkpt lat="41.604635020" lon="2.539126740">
        <ele>134.10</ele>
        <time>2014-04-06T11:41:21Z</time>
      </trkpt>
      <trkpt lat="41.604636700" lon="2.539125060">
        <ele>134.00</ele>
        <time>2014-04-06T11:41:22Z</time>
      </trkpt>
      <trkpt lat="41.604636700" lon="2.539123380">
        <ele>134.00</ele>
        <time>2014-04-06T11:41:23Z</time>
      </trkpt>
      <trkpt lat="41.604638370" lon="2.539121710">
        <ele>133.90</ele>
        <time>2014-04-06T11:41:24Z</time>
      </trkpt>
      <trkpt lat="41.604638370" lon="2.539120030">
        <ele>133.80</ele>
        <time>2014-04-06T11:41:25Z</time>
      </trkpt>
      <trkpt lat="41.604640050" lon="2.539120030">
        <ele>133.70</ele>
        <time>2014-04-06T11:41:26Z</time>
      </trkpt>
      <trkpt lat="41.604640050" lon="2.539118360">
        <ele>134.10</ele>
        <time>2014-04-06T11:41:27Z</time>
      </trkpt>
      <trkpt lat="41.604641730" lon="2.539116680">
        <ele>134.30</ele>
        <time>2014-04-06T11:41:28Z</time>
      </trkpt>
      <trkpt lat="41.604641730" lon="2.539115000">
        <ele>134.20</ele>
        <time>2014-04-06T11:41:29Z</time>
      </trkpt>
      <trkpt lat="41.604641730" lon="2.539113490">
        <ele>134.10</ele>
        <time>2014-04-06T11:41:30Z</time>
      </trkpt>
      <trkpt lat="41.604643400" lon="2.539111820">
        <ele>133.70</ele>
        <time>2014-04-06T11:41:31Z</time>
      </trkpt>
      <trkpt lat="41.604643400" lon="2.539111820">
        <ele>133.40</ele>
        <time>2014-04-06T11:41:32Z</time>
      </trkpt>
      <trkpt lat="41.604643400" lon="2.539110140">
        <ele>133.20</ele>
        <time>2014-04-06T11:41:33Z</time>
      </trkpt>
      <trkpt lat="41.604645080" lon="2.539108470">
        <ele>133.40</ele>
        <time>2014-04-06T11:41:34Z</time>
      </trkpt>
      <trkpt lat="41.604645080" lon="2.539106790">
        <ele>133.60</ele>
        <time>2014-04-06T11:41:35Z</time>
      </trkpt>
      <trkpt lat="41.604645080" lon="2.539106790">
        <ele>133.60</ele>
        <time>2014-04-06T11:41:36Z</time>
      </trkpt>
      <trkpt lat="41.604645080" lon="2.539105110">
        <ele>133.50</ele>
        <time>2014-04-06T11:41:37Z</time>
      </trkpt>
      <trkpt lat="41.604646760" lon="2.539105110">
        <ele>133.50</ele>
        <time>2014-04-06T11:41:38Z</time>
      </trkpt>
      <trkpt lat="41.604646760" lon="2.539103440">
        <ele>133.80</ele>
        <time>2014-04-06T11:41:39Z</time>
      </trkpt>
      <trkpt lat="41.604646760" lon="2.539103440">
        <ele>134.00</ele>
        <time>2014-04-06T11:41:40Z</time>
      </trkpt>
      <trkpt lat="41.604646760" lon="2.539101760">
        <ele>133.90</ele>
        <time>2014-04-06T11:41:41Z</time>
      </trkpt>
      <trkpt lat="41.604648430" lon="2.539101760">
        <ele>133.80</ele>
        <time>2014-04-06T11:41:42Z</time>
      </trkpt>
      <trkpt lat="41.604648430" lon="2.539100080">
        <ele>134.10</ele>
        <time>2014-04-06T11:41:43Z</time>
      </trkpt>
      <trkpt lat="41.604648430" lon="2.539100080">
        <ele>134.40</ele>
        <time>2014-04-06T11:41:44Z</time>
      </trkpt>
      <trkpt lat="41.604650110" lon="2.539100080">
        <ele>134.60</ele>
        <time>2014-04-06T11:41:45Z</time>
      </trkpt>
      <trkpt lat="41.604650110" lon="2.539098410">
        <ele>134.30</ele>
        <time>2014-04-06T11:41:46Z</time>
      </trkpt>
      <trkpt lat="41.604650110" lon="2.539098410">
        <ele>134.20</ele>
        <time>2014-04-06T11:41:47Z</time>
      </trkpt>
      <trkpt lat="41.604651790" lon="2.539096730">
        <ele>134.10</ele>
        <time>2014-04-06T11:41:48Z</time>
      </trkpt>
      <trkpt lat="41.604651790" lon="2.539096730">
        <ele>134.10</ele>
        <time>2014-04-06T11:41:49Z</time>
      </trkpt>
      <trkpt lat="41.604651790" lon="2.539096730">
        <ele>134.00</ele>
        <time>2014-04-06T11:41:50Z</time>
      </trkpt>
      <trkpt lat="41.604653460" lon="2.539096730">
        <ele>133.70</ele>
        <time>2014-04-06T11:41:51Z</time>
      </trkpt>
      <trkpt lat="41.604653460" lon="2.539096730">
        <ele>133.50</ele>
        <time>2014-04-06T11:41:52Z</time>
      </trkpt>
      <trkpt lat="41.604653460" lon="2.539096730">
        <ele>133.70</ele>
        <time>2014-04-06T11:41:53Z</time>
      </trkpt>
      <trkpt lat="41.604655140" lon="2.539096730">
        <ele>133.90</ele>
        <time>2014-04-06T11:41:54Z</time>
      </trkpt>
      <trkpt lat="41.604655140" lon="2.539098410">
        <ele>133.90</ele>
        <time>2014-04-06T11:41:55Z</time>
      </trkpt>
      <trkpt lat="41.604655140" lon="2.539098410">
        <ele>133.90</ele>
        <time>2014-04-06T11:41:56Z</time>
      </trkpt>
      <trkpt lat="41.604656810" lon="2.539098410">
        <ele>134.00</ele>
        <time>2014-04-06T11:41:57Z</time>
      </trkpt>
      <trkpt lat="41.604656810" lon="2.539096730">
        <ele>133.90</ele>
        <time>2014-04-06T11:41:58Z</time>
      </trkpt>
      <trkpt lat="41.604656810" lon="2.539096730">
        <ele>133.80</ele>
        <time>2014-04-06T11:41:59Z</time>
      </trkpt>
      <trkpt lat="41.604656810" lon="2.539096730">
        <ele>133.40</ele>
        <time>2014-04-06T11:42:00Z</time>
      </trkpt>
      <trkpt lat="41.604658490" lon="2.539096730">
        <ele>133.20</ele>
        <time>2014-04-06T11:42:01Z</time>
      </trkpt>
      <trkpt lat="41.604658490" lon="2.539095050">
        <ele>133.60</ele>
        <time>2014-04-06T11:42:02Z</time>
      </trkpt>
      <trkpt lat="41.604658490" lon="2.539095050">
        <ele>133.90</ele>
        <time>2014-04-06T11:42:03Z</time>
      </trkpt>
      <trkpt lat="41.604658490" lon="2.539095050">
        <ele>134.10</ele>
        <time>2014-04-06T11:42:04Z</time>
      </trkpt>
      <trkpt lat="41.604658490" lon="2.539095050">
        <ele>134.40</ele>
        <time>2014-04-06T11:42:05Z</time>
      </trkpt>
      <trkpt lat="41.604658490" lon="2.539095050">
        <ele>134.50</ele>
        <time>2014-04-06T11:42:06Z</time>
      </trkpt>
      <trkpt lat="41.604658490" lon="2.539093380">
        <ele>134.40</ele>
        <time>2014-04-06T11:42:07Z</time>
      </trkpt>
      <trkpt lat="41.604658490" lon="2.539093380">
        <ele>134.40</ele>
        <time>2014-04-06T11:42:08Z</time>
      </trkpt>
      <trkpt lat="41.604658490" lon="2.539093380">
        <ele>134.30</ele>
        <time>2014-04-06T11:42:09Z</time>
      </trkpt>
      <trkpt lat="41.604658490" lon="2.539091700">
        <ele>134.30</ele>
        <time>2014-04-06T11:42:10Z</time>
      </trkpt>
      <trkpt lat="41.604658490" lon="2.539091700">
        <ele>134.20</ele>
        <time>2014-04-06T11:42:11Z</time>
      </trkpt>
      <trkpt lat="41.604658490" lon="2.539091700">
        <ele>134.50</ele>
        <time>2014-04-06T11:42:12Z</time>
      </trkpt>
      <trkpt lat="41.604658490" lon="2.539090020">
        <ele>134.60</ele>
        <time>2014-04-06T11:42:13Z</time>
      </trkpt>
      <trkpt lat="41.604660000" lon="2.539090020">
        <ele>134.60</ele>
        <time>2014-04-06T11:42:14Z</time>
      </trkpt>
      <trkpt lat="41.604660000" lon="2.539090020">
        <ele>134.60</ele>
        <time>2014-04-06T11:42:15Z</time>
      </trkpt>
      <trkpt lat="41.604660000" lon="2.539090020">
        <ele>134.60</ele>
        <time>2014-04-06T11:42:16Z</time>
      </trkpt>
      <trkpt lat="41.604660000" lon="2.539088350">
        <ele>134.20</ele>
        <time>2014-04-06T11:42:17Z</time>
      </trkpt>
      <trkpt lat="41.604660000" lon="2.539088350">
        <ele>133.90</ele>
        <time>2014-04-06T11:42:18Z</time>
      </trkpt>
      <trkpt lat="41.604660000" lon="2.539088350">
        <ele>134.00</ele>
        <time>2014-04-06T11:42:19Z</time>
      </trkpt>
      <trkpt lat="41.604660000" lon="2.539086670">
        <ele>134.10</ele>
        <time>2014-04-06T11:42:20Z</time>
      </trkpt>
      <trkpt lat="41.604660000" lon="2.539086670">
        <ele>134.10</ele>
        <time>2014-04-06T11:42:21Z</time>
      </trkpt>
      <trkpt lat="41.604660000" lon="2.539086670">
        <ele>134.10</ele>
        <time>2014-04-06T11:42:22Z</time>
      </trkpt>
      <trkpt lat="41.604660000" lon="2.539086670">
        <ele>134.10</ele>
        <time>2014-04-06T11:42:23Z</time>
      </trkpt>
      <trkpt lat="41.604660000" lon="2.539086670">
        <ele>133.90</ele>
        <time>2014-04-06T11:42:24Z</time>
      </trkpt>
      <trkpt lat="41.604660000" lon="2.539085000">
        <ele>133.70</ele>
        <time>2014-04-06T11:42:25Z</time>
      </trkpt>
      <trkpt lat="41.604660000" lon="2.539085000">
        <ele>133.70</ele>
        <time>2014-04-06T11:42:26Z</time>
      </trkpt>
      <trkpt lat="41.604661680" lon="2.539083490">
        <ele>133.70</ele>
        <time>2014-04-06T11:42:27Z</time>
      </trkpt>
      <trkpt lat="41.604661680" lon="2.539083490">
        <ele>134.00</ele>
        <time>2014-04-06T11:42:28Z</time>
      </trkpt>
      <trkpt lat="41.604661680" lon="2.539083490">
        <ele>134.20</ele>
        <time>2014-04-06T11:42:29Z</time>
      </trkpt>
      <trkpt lat="41.604661680" lon="2.539081810">
        <ele>134.40</ele>
        <time>2014-04-06T11:42:30Z</time>
      </trkpt>
      <trkpt lat="41.604661680" lon="2.539081810">
        <ele>133.80</ele>
        <time>2014-04-06T11:42:31Z</time>
      </trkpt>
      <trkpt lat="41.604661680" lon="2.539080130">
        <ele>133.30</ele>
        <time>2014-04-06T11:42:32Z</time>
      </trkpt>
      <trkpt lat="41.604661680" lon="2.539080130">
        <ele>133.30</ele>
        <time>2014-04-06T11:42:33Z</time>
      </trkpt>
      <trkpt lat="41.604663350" lon="2.539080130">
        <ele>133.30</ele>
        <time>2014-04-06T11:42:34Z</time>
      </trkpt>
      <trkpt lat="41.604663350" lon="2.539080130">
        <ele>133.30</ele>
        <time>2014-04-06T11:42:35Z</time>
      </trkpt>
      <trkpt lat="41.604663350" lon="2.539080130">
        <ele>133.50</ele>
        <time>2014-04-06T11:42:36Z</time>
      </trkpt>
      <trkpt lat="41.604665030" lon="2.539080130">
        <ele>133.70</ele>
        <time>2014-04-06T11:42:37Z</time>
      </trkpt>
      <trkpt lat="41.604665030" lon="2.539078460">
        <ele>133.50</ele>
        <time>2014-04-06T11:42:38Z</time>
      </trkpt>
      <trkpt lat="41.604666700" lon="2.539078460">
        <ele>133.40</ele>
        <time>2014-04-06T11:42:39Z</time>
      </trkpt>
      <trkpt lat="41.604666700" lon="2.539076780">
        <ele>133.30</ele>
        <time>2014-04-06T11:42:40Z</time>
      </trkpt>
      <trkpt lat="41.604666700" lon="2.539076780">
        <ele>133.20</ele>
        <time>2014-04-06T11:42:41Z</time>
      </trkpt>
      <trkpt lat="41.604666700" lon="2.539075110">
        <ele>133.20</ele>
        <time>2014-04-06T11:42:42Z</time>
      </trkpt>
      <trkpt lat="41.604668380" lon="2.539075110">
        <ele>133.20</ele>
        <time>2014-04-06T11:42:43Z</time>
      </trkpt>
      <trkpt lat="41.604668380" lon="2.539075110">
        <ele>133.20</ele>
        <time>2014-04-06T11:42:44Z</time>
      </trkpt>
      <trkpt lat="41.604668380" lon="2.539075110">
        <ele>133.20</ele>
        <time>2014-04-06T11:42:45Z</time>
      </trkpt>
      <trkpt lat="41.604668380" lon="2.539075110">
        <ele>133.20</ele>
        <time>2014-04-06T11:42:46Z</time>
      </trkpt>
      <trkpt lat="41.604668380" lon="2.539075110">
        <ele>133.40</ele>
        <time>2014-04-06T11:42:47Z</time>
      </trkpt>
      <trkpt lat="41.604668380" lon="2.539076780">
        <ele>133.60</ele>
        <time>2014-04-06T11:42:48Z</time>
      </trkpt>
      <trkpt lat="41.604670060" lon="2.539076780">
        <ele>133.70</ele>
        <time>2014-04-06T11:42:49Z</time>
      </trkpt>
      <trkpt lat="41.604670060" lon="2.539076780">
        <ele>133.80</ele>
        <time>2014-04-06T11:42:50Z</time>
      </trkpt>
      <trkpt lat="41.604670060" lon="2.539076780">
        <ele>133.90</ele>
        <time>2014-04-06T11:42:51Z</time>
      </trkpt>
      <trkpt lat="41.604670060" lon="2.539076780">
        <ele>133.70</ele>
        <time>2014-04-06T11:42:52Z</time>
      </trkpt>
      <trkpt lat="41.604670060" lon="2.539078460">
        <ele>133.60</ele>
        <time>2014-04-06T11:42:53Z</time>
      </trkpt>
      <trkpt lat="41.604671730" lon="2.539076780">
        <ele>133.40</ele>
        <time>2014-04-06T11:42:54Z</time>
      </trkpt>
      <trkpt lat="41.604671730" lon="2.539078460">
        <ele>133.60</ele>
        <time>2014-04-06T11:42:55Z</time>
      </trkpt>
      <trkpt lat="41.604671730" lon="2.539078460">
        <ele>133.80</ele>
        <time>2014-04-06T11:42:56Z</time>
      </trkpt>
      <trkpt lat="41.604671730" lon="2.539078460">
        <ele>133.40</ele>
        <time>2014-04-06T11:42:57Z</time>
      </trkpt>
      <trkpt lat="41.604673410" lon="2.539078460">
        <ele>133.20</ele>
        <time>2014-04-06T11:42:58Z</time>
      </trkpt>
      <trkpt lat="41.604673410" lon="2.539078460">
        <ele>133.40</ele>
        <time>2014-04-06T11:42:59Z</time>
      </trkpt>
      <trkpt lat="41.604673410" lon="2.539078460">
        <ele>133.50</ele>
        <time>2014-04-06T11:43:00Z</time>
      </trkpt>
      <trkpt lat="41.604673410" lon="2.539078460">
        <ele>133.70</ele>
        <time>2014-04-06T11:43:01Z</time>
      </trkpt>
      <trkpt lat="41.604675090" lon="2.539078460">
        <ele>133.50</ele>
        <time>2014-04-06T11:43:02Z</time>
      </trkpt>
      <trkpt lat="41.604675090" lon="2.539078460">
        <ele>133.30</ele>
        <time>2014-04-06T11:43:03Z</time>
      </trkpt>
      <trkpt lat="41.604675090" lon="2.539080130">
        <ele>133.00</ele>
        <time>2014-04-06T11:43:04Z</time>
      </trkpt>
      <trkpt lat="41.604675090" lon="2.539080130">
        <ele>132.80</ele>
        <time>2014-04-06T11:43:05Z</time>
      </trkpt>
      <trkpt lat="41.604675090" lon="2.539081810">
        <ele>132.80</ele>
        <time>2014-04-06T11:43:06Z</time>
      </trkpt>
      <trkpt lat="41.604675090" lon="2.539083490">
        <ele>132.70</ele>
        <time>2014-04-06T11:43:07Z</time>
      </trkpt>
      <trkpt lat="41.604675090" lon="2.539083490">
        <ele>132.70</ele>
        <time>2014-04-06T11:43:08Z</time>
      </trkpt>
      <trkpt lat="41.604675090" lon="2.539085000">
        <ele>133.00</ele>
        <time>2014-04-06T11:43:09Z</time>
      </trkpt>
      <trkpt lat="41.604675090" lon="2.539085000">
        <ele>133.20</ele>
        <time>2014-04-06T11:43:10Z</time>
      </trkpt>
      <trkpt lat="41.604675090" lon="2.539085000">
        <ele>133.20</ele>
        <time>2014-04-06T11:43:11Z</time>
      </trkpt>
      <trkpt lat="41.604675090" lon="2.539086670">
        <ele>133.10</ele>
        <time>2014-04-06T11:43:12Z</time>
      </trkpt>
      <trkpt lat="41.604676760" lon="2.539086670">
        <ele>133.10</ele>
        <time>2014-04-06T11:43:13Z</time>
      </trkpt>
      <trkpt lat="41.604676760" lon="2.539086670">
        <ele>132.80</ele>
        <time>2014-04-06T11:43:14Z</time>
      </trkpt>
      <trkpt lat="41.604676760" lon="2.539086670">
        <ele>132.60</ele>
        <time>2014-04-06T11:43:15Z</time>
      </trkpt>
      <trkpt lat="41.604676760" lon="2.539086670">
        <ele>132.60</ele>
        <time>2014-04-06T11:43:16Z</time>
      </trkpt>
      <trkpt lat="41.604676760" lon="2.539086670">
        <ele>132.70</ele>
        <time>2014-04-06T11:43:17Z</time>
      </trkpt>
      <trkpt lat="41.604676760" lon="2.539086670">
        <ele>132.70</ele>
        <time>2014-04-06T11:43:18Z</time>
      </trkpt>
      <trkpt lat="41.604678440" lon="2.539086670">
        <ele>132.70</ele>
        <time>2014-04-06T11:43:19Z</time>
      </trkpt>
      <trkpt lat="41.604678440" lon="2.539086670">
        <ele>132.70</ele>
        <time>2014-04-06T11:43:20Z</time>
      </trkpt>
      <trkpt lat="41.604678440" lon="2.539086670">
        <ele>133.20</ele>
        <time>2014-04-06T11:43:21Z</time>
      </trkpt>
      <trkpt lat="41.604678440" lon="2.539086670">
        <ele>133.60</ele>
        <time>2014-04-06T11:43:22Z</time>
      </trkpt>
      <trkpt lat="41.604678440" lon="2.539086670">
        <ele>133.70</ele>
        <time>2014-04-06T11:43:23Z</time>
      </trkpt>
      <trkpt lat="41.604678440" lon="2.539086670">
        <ele>133.90</ele>
        <time>2014-04-06T11:43:24Z</time>
      </trkpt>
      <trkpt lat="41.604678440" lon="2.539086670">
        <ele>133.90</ele>
        <time>2014-04-06T11:43:25Z</time>
      </trkpt>
      <trkpt lat="41.604678440" lon="2.539086670">
        <ele>133.90</ele>
        <time>2014-04-06T11:43:26Z</time>
      </trkpt>
      <trkpt lat="41.604680120" lon="2.539086670">
        <ele>133.90</ele>
        <time>2014-04-06T11:43:27Z</time>
      </trkpt>
      <trkpt lat="41.604680120" lon="2.539086670">
        <ele>133.80</ele>
        <time>2014-04-06T11:43:28Z</time>
      </trkpt>
      <trkpt lat="41.604680120" lon="2.539088350">
        <ele>133.80</ele>
        <time>2014-04-06T11:43:29Z</time>
      </trkpt>
      <trkpt lat="41.604680120" lon="2.539088350">
        <ele>133.60</ele>
        <time>2014-04-06T11:43:30Z</time>
      </trkpt>
      <trkpt lat="41.604680120" lon="2.539088350">
        <ele>133.60</ele>
        <time>2014-04-06T11:43:31Z</time>
      </trkpt>
      <trkpt lat="41.604680120" lon="2.539086670">
        <ele>133.50</ele>
        <time>2014-04-06T11:43:32Z</time>
      </trkpt>
      <trkpt lat="41.604680120" lon="2.539086670">
        <ele>133.40</ele>
        <time>2014-04-06T11:43:33Z</time>
      </trkpt>
      <trkpt lat="41.604680120" lon="2.539085000">
        <ele>133.30</ele>
        <time>2014-04-06T11:43:34Z</time>
      </trkpt>
      <trkpt lat="41.604680120" lon="2.539085000">
        <ele>132.90</ele>
        <time>2014-04-06T11:43:35Z</time>
      </trkpt>
      <trkpt lat="41.604680120" lon="2.539085000">
        <ele>132.60</ele>
        <time>2014-04-06T11:43:36Z</time>
      </trkpt>
      <trkpt lat="41.604680120" lon="2.539083490">
        <ele>132.60</ele>
        <time>2014-04-06T11:43:37Z</time>
      </trkpt>
      <trkpt lat="41.604680120" lon="2.539083490">
        <ele>132.70</ele>
        <time>2014-04-06T11:43:38Z</time>
      </trkpt>
      <trkpt lat="41.604680120" lon="2.539083490">
        <ele>132.70</ele>
        <time>2014-04-06T11:43:39Z</time>
      </trkpt>
      <trkpt lat="41.604680120" lon="2.539083490">
        <ele>132.60</ele>
        <time>2014-04-06T11:43:40Z</time>
      </trkpt>
      <trkpt lat="41.604680120" lon="2.539083490">
        <ele>132.50</ele>
        <time>2014-04-06T11:43:41Z</time>
      </trkpt>
      <trkpt lat="41.604680120" lon="2.539083490">
        <ele>132.90</ele>
        <time>2014-04-06T11:43:42Z</time>
      </trkpt>
      <trkpt lat="41.604680120" lon="2.539083490">
        <ele>133.20</ele>
        <time>2014-04-06T11:43:43Z</time>
      </trkpt>
      <trkpt lat="41.604680120" lon="2.539083490">
        <ele>132.90</ele>
        <time>2014-04-06T11:43:44Z</time>
      </trkpt>
      <trkpt lat="41.604680120" lon="2.539083490">
        <ele>132.70</ele>
        <time>2014-04-06T11:43:45Z</time>
      </trkpt>
      <trkpt lat="41.604678440" lon="2.539083490">
        <ele>132.60</ele>
        <time>2014-04-06T11:43:46Z</time>
      </trkpt>
      <trkpt lat="41.604678440" lon="2.539083490">
        <ele>133.20</ele>
        <time>2014-04-06T11:43:47Z</time>
      </trkpt>
      <trkpt lat="41.604678440" lon="2.539085000">
        <ele>133.70</ele>
        <time>2014-04-06T11:43:48Z</time>
      </trkpt>
      <trkpt lat="41.604678440" lon="2.539085000">
        <ele>133.70</ele>
        <time>2014-04-06T11:43:49Z</time>
      </trkpt>
      <trkpt lat="41.604678440" lon="2.539085000">
        <ele>133.80</ele>
        <time>2014-04-06T11:43:50Z</time>
      </trkpt>
      <trkpt lat="41.604678440" lon="2.539085000">
        <ele>133.30</ele>
        <time>2014-04-06T11:43:51Z</time>
      </trkpt>
      <trkpt lat="41.604678440" lon="2.539085000">
        <ele>132.90</ele>
        <time>2014-04-06T11:43:52Z</time>
      </trkpt>
      <trkpt lat="41.604678440" lon="2.539085000">
        <ele>132.60</ele>
        <time>2014-04-06T11:43:53Z</time>
      </trkpt>
      <trkpt lat="41.604678440" lon="2.539085000">
        <ele>133.10</ele>
        <time>2014-04-06T11:43:54Z</time>
      </trkpt>
      <trkpt lat="41.604678440" lon="2.539085000">
        <ele>133.40</ele>
        <time>2014-04-06T11:43:55Z</time>
      </trkpt>
      <trkpt lat="41.604678440" lon="2.539085000">
        <ele>133.20</ele>
        <time>2014-04-06T11:43:56Z</time>
      </trkpt>
      <trkpt lat="41.604678440" lon="2.539083490">
        <ele>133.20</ele>
        <time>2014-04-06T11:43:57Z</time>
      </trkpt>
      <trkpt lat="41.604678440" lon="2.539083490">
        <ele>133.10</ele>
        <time>2014-04-06T11:43:58Z</time>
      </trkpt>
      <trkpt lat="41.604678440" lon="2.539083490">
        <ele>133.30</ele>
        <time>2014-04-06T11:43:59Z</time>
      </trkpt>
      <trkpt lat="41.604678440" lon="2.539083490">
        <ele>133.40</ele>
        <time>2014-04-06T11:44:00Z</time>
      </trkpt>
      <trkpt lat="41.604678440" lon="2.539083490">
        <ele>133.20</ele>
        <time>2014-04-06T11:44:01Z</time>
      </trkpt>
      <trkpt lat="41.604678440" lon="2.539083490">
        <ele>133.00</ele>
        <time>2014-04-06T11:44:02Z</time>
      </trkpt>
      <trkpt lat="41.604678440" lon="2.539083490">
        <ele>133.30</ele>
        <time>2014-04-06T11:44:03Z</time>
      </trkpt>
      <trkpt lat="41.604678440" lon="2.539083490">
        <ele>133.50</ele>
        <time>2014-04-06T11:44:04Z</time>
      </trkpt>
      <trkpt lat="41.604678440" lon="2.539083490">
        <ele>133.70</ele>
        <time>2014-04-06T11:44:05Z</time>
      </trkpt>
      <trkpt lat="41.604678440" lon="2.539083490">
        <ele>134.00</ele>
        <time>2014-04-06T11:44:06Z</time>
      </trkpt>
      <trkpt lat="41.604678440" lon="2.539085000">
        <ele>134.20</ele>
        <time>2014-04-06T11:44:07Z</time>
      </trkpt>
      <trkpt lat="41.604678440" lon="2.539085000">
        <ele>134.10</ele>
        <time>2014-04-06T11:44:08Z</time>
      </trkpt>
      <trkpt lat="41.604678440" lon="2.539085000">
        <ele>134.00</ele>
        <time>2014-04-06T11:44:09Z</time>
      </trkpt>
      <trkpt lat="41.604678440" lon="2.539086670">
        <ele>133.90</ele>
        <time>2014-04-06T11:44:10Z</time>
      </trkpt>
      <trkpt lat="41.604678440" lon="2.539086670">
        <ele>133.80</ele>
        <time>2014-04-06T11:44:11Z</time>
      </trkpt>
      <trkpt lat="41.604678440" lon="2.539086670">
        <ele>133.80</ele>
        <time>2014-04-06T11:44:12Z</time>
      </trkpt>
      <trkpt lat="41.604678440" lon="2.539086670">
        <ele>134.10</ele>
        <time>2014-04-06T11:44:13Z</time>
      </trkpt>
      <trkpt lat="41.604678440" lon="2.539086670">
        <ele>134.40</ele>
        <time>2014-04-06T11:44:14Z</time>
      </trkpt>
      <trkpt lat="41.604678440" lon="2.539085000">
        <ele>134.10</ele>
        <time>2014-04-06T11:44:15Z</time>
      </trkpt>
    </trkseg>
  </trk>
</gpx>
